<?xml version="1.0" encoding="UTF-8" standalone="no" ?>
<gpx xmlns="http://www.topografix.com/GPX/1/1" xmlns:xsi="http://www.w3.org/2001/XMLSchema-instance" xsi:schemaLocation="http://www.topografix.com/GPX/1/1 http://www.topografix.com/GPX/1/1/gpx.xsd" version="1.1" creator="VisuGPX - https://www.visugpx.com">
  <metadata>
    <name>Roc’n bike 2025</name>
    <desc><![CDATA[Parcours VTT rando roc’n bike 2025, 37 kms, un parcours très sympa au depart de Billom.]]></desc>
  </metadata>
  <trk>
    <name><![CDATA[Roc’n bike 2025_1]]></name>
    <trkseg>
      <trkpt lat="45.72328" lon="3.33319">
        <ele>351.4</ele>
        <time>2025-09-14T06:21:00Z</time>
      </trkpt>
      <trkpt lat="45.72328" lon="3.33319">
        <ele>353.4</ele>
        <time>2025-09-14T06:21:01Z</time>
      </trkpt>
      <trkpt lat="45.72328" lon="3.33319">
        <ele>353.4</ele>
        <time>2025-09-14T06:21:02Z</time>
      </trkpt>
      <trkpt lat="45.72328" lon="3.33319">
        <ele>353.4</ele>
        <time>2025-09-14T06:21:03Z</time>
      </trkpt>
      <trkpt lat="45.72328" lon="3.33319">
        <ele>353.4</ele>
        <time>2025-09-14T06:21:04Z</time>
      </trkpt>
      <trkpt lat="45.72328" lon="3.33319">
        <ele>353.4</ele>
        <time>2025-09-14T06:21:05Z</time>
      </trkpt>
      <trkpt lat="45.72328" lon="3.33319">
        <ele>353.4</ele>
        <time>2025-09-14T06:21:06Z</time>
      </trkpt>
      <trkpt lat="45.72328" lon="3.33319">
        <ele>353.4</ele>
        <time>2025-09-14T06:21:07Z</time>
      </trkpt>
      <trkpt lat="45.72328" lon="3.33319">
        <ele>353.4</ele>
        <time>2025-09-14T06:21:08Z</time>
      </trkpt>
      <trkpt lat="45.72328" lon="3.33319">
        <ele>353.4</ele>
        <time>2025-09-14T06:21:09Z</time>
      </trkpt>
      <trkpt lat="45.72328" lon="3.33319">
        <ele>353.4</ele>
        <time>2025-09-14T06:21:10Z</time>
      </trkpt>
      <trkpt lat="45.72328" lon="3.33319">
        <ele>353.4</ele>
        <time>2025-09-14T06:21:11Z</time>
      </trkpt>
      <trkpt lat="45.72328" lon="3.33319">
        <ele>353.4</ele>
        <time>2025-09-14T06:21:12Z</time>
      </trkpt>
      <trkpt lat="45.72328" lon="3.33319">
        <ele>353.4</ele>
        <time>2025-09-14T06:21:13Z</time>
      </trkpt>
      <trkpt lat="45.72328" lon="3.33319">
        <ele>353.4</ele>
        <time>2025-09-14T06:21:14Z</time>
      </trkpt>
      <trkpt lat="45.72327" lon="3.33319">
        <ele>353.4</ele>
        <time>2025-09-14T06:21:15Z</time>
      </trkpt>
      <trkpt lat="45.72327" lon="3.33318">
        <ele>353.4</ele>
        <time>2025-09-14T06:21:16Z</time>
      </trkpt>
      <trkpt lat="45.72327" lon="3.33318">
        <ele>353.4</ele>
        <time>2025-09-14T06:21:17Z</time>
      </trkpt>
      <trkpt lat="45.72327" lon="3.33318">
        <ele>353.4</ele>
        <time>2025-09-14T06:21:18Z</time>
      </trkpt>
      <trkpt lat="45.72327" lon="3.33317">
        <ele>353.4</ele>
        <time>2025-09-14T06:21:19Z</time>
      </trkpt>
      <trkpt lat="45.72327" lon="3.33317">
        <ele>353.4</ele>
        <time>2025-09-14T06:21:20Z</time>
      </trkpt>
      <trkpt lat="45.72327" lon="3.33317">
        <ele>353.4</ele>
        <time>2025-09-14T06:21:21Z</time>
      </trkpt>
      <trkpt lat="45.72327" lon="3.33317">
        <ele>353.4</ele>
        <time>2025-09-14T06:21:22Z</time>
      </trkpt>
      <trkpt lat="45.72327" lon="3.33317">
        <ele>353.4</ele>
        <time>2025-09-14T06:21:23Z</time>
      </trkpt>
      <trkpt lat="45.72327" lon="3.33317">
        <ele>353.4</ele>
        <time>2025-09-14T06:21:24Z</time>
      </trkpt>
      <trkpt lat="45.72327" lon="3.33317">
        <ele>353.4</ele>
        <time>2025-09-14T06:21:25Z</time>
      </trkpt>
      <trkpt lat="45.72327" lon="3.33317">
        <ele>353.4</ele>
        <time>2025-09-14T06:21:26Z</time>
      </trkpt>
      <trkpt lat="45.72327" lon="3.33317">
        <ele>353.4</ele>
        <time>2025-09-14T06:21:27Z</time>
      </trkpt>
      <trkpt lat="45.72327" lon="3.33317">
        <ele>353.4</ele>
        <time>2025-09-14T06:21:28Z</time>
      </trkpt>
      <trkpt lat="45.72327" lon="3.33317">
        <ele>353.4</ele>
        <time>2025-09-14T06:21:29Z</time>
      </trkpt>
      <trkpt lat="45.72327" lon="3.33317">
        <ele>353.4</ele>
        <time>2025-09-14T06:21:30Z</time>
      </trkpt>
      <trkpt lat="45.72326" lon="3.33317">
        <ele>353.4</ele>
        <time>2025-09-14T06:21:31Z</time>
      </trkpt>
      <trkpt lat="45.72326" lon="3.33316">
        <ele>353.4</ele>
        <time>2025-09-14T06:21:32Z</time>
      </trkpt>
      <trkpt lat="45.72326" lon="3.33316">
        <ele>353.4</ele>
        <time>2025-09-14T06:21:33Z</time>
      </trkpt>
      <trkpt lat="45.72326" lon="3.33316">
        <ele>353.4</ele>
        <time>2025-09-14T06:21:34Z</time>
      </trkpt>
      <trkpt lat="45.72326" lon="3.33316">
        <ele>353.4</ele>
        <time>2025-09-14T06:21:35Z</time>
      </trkpt>
      <trkpt lat="45.72326" lon="3.33316">
        <ele>353.4</ele>
        <time>2025-09-14T06:21:36Z</time>
      </trkpt>
      <trkpt lat="45.72326" lon="3.33316">
        <ele>353.4</ele>
        <time>2025-09-14T06:21:37Z</time>
      </trkpt>
      <trkpt lat="45.72326" lon="3.33317">
        <ele>353.4</ele>
        <time>2025-09-14T06:21:38Z</time>
      </trkpt>
      <trkpt lat="45.72327" lon="3.33317">
        <ele>353.4</ele>
        <time>2025-09-14T06:21:39Z</time>
      </trkpt>
      <trkpt lat="45.72327" lon="3.33316">
        <ele>353.4</ele>
        <time>2025-09-14T06:21:40Z</time>
      </trkpt>
      <trkpt lat="45.72327" lon="3.33317">
        <ele>353.4</ele>
        <time>2025-09-14T06:21:41Z</time>
      </trkpt>
      <trkpt lat="45.72327" lon="3.33317">
        <ele>353.4</ele>
        <time>2025-09-14T06:21:42Z</time>
      </trkpt>
      <trkpt lat="45.72327" lon="3.33317">
        <ele>353.4</ele>
        <time>2025-09-14T06:21:43Z</time>
      </trkpt>
      <trkpt lat="45.72327" lon="3.33317">
        <ele>353.4</ele>
        <time>2025-09-14T06:21:44Z</time>
      </trkpt>
      <trkpt lat="45.72327" lon="3.33317">
        <ele>353.4</ele>
        <time>2025-09-14T06:21:45Z</time>
      </trkpt>
      <trkpt lat="45.72327" lon="3.33317">
        <ele>353.4</ele>
        <time>2025-09-14T06:21:46Z</time>
      </trkpt>
      <trkpt lat="45.72327" lon="3.33317">
        <ele>353.4</ele>
        <time>2025-09-14T06:21:47Z</time>
      </trkpt>
      <trkpt lat="45.72327" lon="3.33317">
        <ele>353.4</ele>
        <time>2025-09-14T06:21:48Z</time>
      </trkpt>
      <trkpt lat="45.72327" lon="3.33317">
        <ele>353.4</ele>
        <time>2025-09-14T06:21:49Z</time>
      </trkpt>
      <trkpt lat="45.72327" lon="3.33317">
        <ele>353.4</ele>
        <time>2025-09-14T06:21:50Z</time>
      </trkpt>
      <trkpt lat="45.72327" lon="3.33317">
        <ele>353.4</ele>
        <time>2025-09-14T06:21:51Z</time>
      </trkpt>
      <trkpt lat="45.72327" lon="3.33317">
        <ele>353.4</ele>
        <time>2025-09-14T06:21:52Z</time>
      </trkpt>
      <trkpt lat="45.72327" lon="3.33317">
        <ele>353.4</ele>
        <time>2025-09-14T06:21:53Z</time>
      </trkpt>
      <trkpt lat="45.72327" lon="3.33317">
        <ele>353.4</ele>
        <time>2025-09-14T06:21:54Z</time>
      </trkpt>
      <trkpt lat="45.72327" lon="3.33317">
        <ele>353.4</ele>
        <time>2025-09-14T06:21:55Z</time>
      </trkpt>
      <trkpt lat="45.72327" lon="3.33317">
        <ele>353.4</ele>
        <time>2025-09-14T06:21:56Z</time>
      </trkpt>
      <trkpt lat="45.72327" lon="3.33319">
        <ele>353.4</ele>
        <time>2025-09-14T06:21:57Z</time>
      </trkpt>
      <trkpt lat="45.72327" lon="3.3332">
        <ele>353.4</ele>
        <time>2025-09-14T06:21:58Z</time>
      </trkpt>
      <trkpt lat="45.72327" lon="3.33321">
        <ele>353.4</ele>
        <time>2025-09-14T06:21:59Z</time>
      </trkpt>
      <trkpt lat="45.72327" lon="3.33322">
        <ele>353.4</ele>
        <time>2025-09-14T06:22:00Z</time>
      </trkpt>
      <trkpt lat="45.72327" lon="3.33322">
        <ele>353.4</ele>
        <time>2025-09-14T06:22:01Z</time>
      </trkpt>
      <trkpt lat="45.72327" lon="3.33322">
        <ele>353.4</ele>
        <time>2025-09-14T06:22:02Z</time>
      </trkpt>
      <trkpt lat="45.72327" lon="3.33322">
        <ele>353.4</ele>
        <time>2025-09-14T06:22:03Z</time>
      </trkpt>
      <trkpt lat="45.72327" lon="3.33322">
        <ele>353.4</ele>
        <time>2025-09-14T06:22:04Z</time>
      </trkpt>
      <trkpt lat="45.72327" lon="3.33322">
        <ele>353.4</ele>
        <time>2025-09-14T06:22:05Z</time>
      </trkpt>
      <trkpt lat="45.72327" lon="3.33322">
        <ele>353.4</ele>
        <time>2025-09-14T06:22:06Z</time>
      </trkpt>
      <trkpt lat="45.72327" lon="3.33322">
        <ele>353.4</ele>
        <time>2025-09-14T06:22:07Z</time>
      </trkpt>
      <trkpt lat="45.72327" lon="3.33322">
        <ele>353.4</ele>
        <time>2025-09-14T06:22:08Z</time>
      </trkpt>
      <trkpt lat="45.72327" lon="3.33322">
        <ele>353.4</ele>
        <time>2025-09-14T06:22:09Z</time>
      </trkpt>
      <trkpt lat="45.72327" lon="3.33322">
        <ele>353.4</ele>
        <time>2025-09-14T06:22:10Z</time>
      </trkpt>
      <trkpt lat="45.72327" lon="3.33322">
        <ele>353.4</ele>
        <time>2025-09-14T06:22:11Z</time>
      </trkpt>
      <trkpt lat="45.72326" lon="3.33322">
        <ele>353.4</ele>
        <time>2025-09-14T06:22:12Z</time>
      </trkpt>
      <trkpt lat="45.72324" lon="3.33321">
        <ele>353.4</ele>
        <time>2025-09-14T06:22:13Z</time>
      </trkpt>
      <trkpt lat="45.72322" lon="3.3332">
        <ele>353.4</ele>
        <time>2025-09-14T06:22:14Z</time>
      </trkpt>
      <trkpt lat="45.72319" lon="3.33319">
        <ele>353.4</ele>
        <time>2025-09-14T06:22:15Z</time>
      </trkpt>
      <trkpt lat="45.72315" lon="3.33318">
        <ele>353.4</ele>
        <time>2025-09-14T06:22:16Z</time>
      </trkpt>
      <trkpt lat="45.72312" lon="3.33318">
        <ele>353.4</ele>
        <time>2025-09-14T06:22:17Z</time>
      </trkpt>
      <trkpt lat="45.72308" lon="3.33316">
        <ele>353.4</ele>
        <time>2025-09-14T06:22:18Z</time>
      </trkpt>
      <trkpt lat="45.72305" lon="3.33315">
        <ele>353.6</ele>
        <time>2025-09-14T06:22:19Z</time>
      </trkpt>
      <trkpt lat="45.72301" lon="3.33314">
        <ele>353.6</ele>
        <time>2025-09-14T06:22:20Z</time>
      </trkpt>
      <trkpt lat="45.72298" lon="3.33313">
        <ele>353.6</ele>
        <time>2025-09-14T06:22:21Z</time>
      </trkpt>
      <trkpt lat="45.72294" lon="3.33313">
        <ele>353.6</ele>
        <time>2025-09-14T06:22:22Z</time>
      </trkpt>
      <trkpt lat="45.72291" lon="3.33312">
        <ele>353.6</ele>
        <time>2025-09-14T06:22:23Z</time>
      </trkpt>
      <trkpt lat="45.72287" lon="3.33312">
        <ele>353.6</ele>
        <time>2025-09-14T06:22:24Z</time>
      </trkpt>
      <trkpt lat="45.72284" lon="3.33311">
        <ele>353.6</ele>
        <time>2025-09-14T06:22:25Z</time>
      </trkpt>
      <trkpt lat="45.72281" lon="3.3331">
        <ele>353.6</ele>
        <time>2025-09-14T06:22:26Z</time>
      </trkpt>
      <trkpt lat="45.72278" lon="3.33308">
        <ele>353.6</ele>
        <time>2025-09-14T06:22:27Z</time>
      </trkpt>
      <trkpt lat="45.72276" lon="3.33307">
        <ele>353.6</ele>
        <time>2025-09-14T06:22:28Z</time>
      </trkpt>
      <trkpt lat="45.72273" lon="3.33306">
        <ele>353.6</ele>
        <time>2025-09-14T06:22:29Z</time>
      </trkpt>
      <trkpt lat="45.72271" lon="3.33306">
        <ele>353.6</ele>
        <time>2025-09-14T06:22:30Z</time>
      </trkpt>
      <trkpt lat="45.72268" lon="3.33304">
        <ele>353.8</ele>
        <time>2025-09-14T06:22:31Z</time>
      </trkpt>
      <trkpt lat="45.72266" lon="3.33303">
        <ele>353.8</ele>
        <time>2025-09-14T06:22:32Z</time>
      </trkpt>
      <trkpt lat="45.72263" lon="3.33301">
        <ele>353.8</ele>
        <time>2025-09-14T06:22:33Z</time>
      </trkpt>
      <trkpt lat="45.72262" lon="3.333">
        <ele>353.8</ele>
        <time>2025-09-14T06:22:34Z</time>
      </trkpt>
      <trkpt lat="45.72261" lon="3.33299">
        <ele>353.8</ele>
        <time>2025-09-14T06:22:35Z</time>
      </trkpt>
      <trkpt lat="45.72259" lon="3.33298">
        <ele>354</ele>
        <time>2025-09-14T06:22:36Z</time>
      </trkpt>
      <trkpt lat="45.72258" lon="3.33297">
        <ele>354</ele>
        <time>2025-09-14T06:22:37Z</time>
      </trkpt>
      <trkpt lat="45.72256" lon="3.33296">
        <ele>354</ele>
        <time>2025-09-14T06:22:38Z</time>
      </trkpt>
      <trkpt lat="45.72254" lon="3.33297">
        <ele>354</ele>
        <time>2025-09-14T06:22:39Z</time>
      </trkpt>
      <trkpt lat="45.72252" lon="3.33298">
        <ele>354.2</ele>
        <time>2025-09-14T06:22:40Z</time>
      </trkpt>
      <trkpt lat="45.7225" lon="3.33299">
        <ele>354.2</ele>
        <time>2025-09-14T06:22:41Z</time>
      </trkpt>
      <trkpt lat="45.72249" lon="3.33301">
        <ele>354.4</ele>
        <time>2025-09-14T06:22:42Z</time>
      </trkpt>
      <trkpt lat="45.72247" lon="3.33304">
        <ele>354.4</ele>
        <time>2025-09-14T06:22:43Z</time>
      </trkpt>
      <trkpt lat="45.72246" lon="3.33306">
        <ele>354.6</ele>
        <time>2025-09-14T06:22:44Z</time>
      </trkpt>
      <trkpt lat="45.72245" lon="3.33309">
        <ele>354.8</ele>
        <time>2025-09-14T06:22:45Z</time>
      </trkpt>
      <trkpt lat="45.72243" lon="3.33312">
        <ele>354.8</ele>
        <time>2025-09-14T06:22:46Z</time>
      </trkpt>
      <trkpt lat="45.72241" lon="3.33315">
        <ele>355.2</ele>
        <time>2025-09-14T06:22:47Z</time>
      </trkpt>
      <trkpt lat="45.72238" lon="3.33318">
        <ele>355.4</ele>
        <time>2025-09-14T06:22:48Z</time>
      </trkpt>
      <trkpt lat="45.72237" lon="3.3332">
        <ele>355.6</ele>
        <time>2025-09-14T06:22:49Z</time>
      </trkpt>
      <trkpt lat="45.72236" lon="3.33319">
        <ele>356</ele>
        <time>2025-09-14T06:22:50Z</time>
      </trkpt>
      <trkpt lat="45.72236" lon="3.33317">
        <ele>356</ele>
        <time>2025-09-14T06:22:51Z</time>
      </trkpt>
      <trkpt lat="45.72235" lon="3.33314">
        <ele>356.2</ele>
        <time>2025-09-14T06:22:52Z</time>
      </trkpt>
      <trkpt lat="45.72234" lon="3.3331">
        <ele>356.4</ele>
        <time>2025-09-14T06:22:53Z</time>
      </trkpt>
      <trkpt lat="45.72233" lon="3.33305">
        <ele>356.6</ele>
        <time>2025-09-14T06:22:54Z</time>
      </trkpt>
      <trkpt lat="45.72232" lon="3.33301">
        <ele>356.6</ele>
        <time>2025-09-14T06:22:55Z</time>
      </trkpt>
      <trkpt lat="45.72233" lon="3.33296">
        <ele>356.8</ele>
        <time>2025-09-14T06:22:56Z</time>
      </trkpt>
      <trkpt lat="45.72232" lon="3.33292">
        <ele>356.8</ele>
        <time>2025-09-14T06:22:57Z</time>
      </trkpt>
      <trkpt lat="45.72231" lon="3.33287">
        <ele>356.8</ele>
        <time>2025-09-14T06:22:58Z</time>
      </trkpt>
      <trkpt lat="45.72229" lon="3.33281">
        <ele>357</ele>
        <time>2025-09-14T06:22:59Z</time>
      </trkpt>
      <trkpt lat="45.72227" lon="3.33276">
        <ele>357</ele>
        <time>2025-09-14T06:23:00Z</time>
      </trkpt>
      <trkpt lat="45.72224" lon="3.33272">
        <ele>357</ele>
        <time>2025-09-14T06:23:01Z</time>
      </trkpt>
      <trkpt lat="45.72221" lon="3.33268">
        <ele>357.2</ele>
        <time>2025-09-14T06:23:02Z</time>
      </trkpt>
      <trkpt lat="45.72217" lon="3.33267">
        <ele>357.2</ele>
        <time>2025-09-14T06:23:03Z</time>
      </trkpt>
      <trkpt lat="45.72213" lon="3.33267">
        <ele>357.2</ele>
        <time>2025-09-14T06:23:04Z</time>
      </trkpt>
      <trkpt lat="45.72209" lon="3.33268">
        <ele>357.4</ele>
        <time>2025-09-14T06:23:05Z</time>
      </trkpt>
      <trkpt lat="45.72205" lon="3.33269">
        <ele>357.4</ele>
        <time>2025-09-14T06:23:06Z</time>
      </trkpt>
      <trkpt lat="45.72202" lon="3.3327">
        <ele>357.6</ele>
        <time>2025-09-14T06:23:07Z</time>
      </trkpt>
      <trkpt lat="45.72198" lon="3.3327">
        <ele>357.8</ele>
        <time>2025-09-14T06:23:08Z</time>
      </trkpt>
      <trkpt lat="45.72195" lon="3.33272">
        <ele>358</ele>
        <time>2025-09-14T06:23:09Z</time>
      </trkpt>
      <trkpt lat="45.72192" lon="3.33271">
        <ele>358.2</ele>
        <time>2025-09-14T06:23:10Z</time>
      </trkpt>
      <trkpt lat="45.72189" lon="3.3327">
        <ele>358.4</ele>
        <time>2025-09-14T06:23:11Z</time>
      </trkpt>
      <trkpt lat="45.72186" lon="3.33267">
        <ele>358.4</ele>
        <time>2025-09-14T06:23:12Z</time>
      </trkpt>
      <trkpt lat="45.72184" lon="3.33263">
        <ele>358.6</ele>
        <time>2025-09-14T06:23:13Z</time>
      </trkpt>
      <trkpt lat="45.72183" lon="3.33257">
        <ele>358.6</ele>
        <time>2025-09-14T06:23:14Z</time>
      </trkpt>
      <trkpt lat="45.72181" lon="3.33251">
        <ele>358.6</ele>
        <time>2025-09-14T06:23:15Z</time>
      </trkpt>
      <trkpt lat="45.72178" lon="3.33245">
        <ele>358.6</ele>
        <time>2025-09-14T06:23:16Z</time>
      </trkpt>
      <trkpt lat="45.72174" lon="3.33239">
        <ele>358.6</ele>
        <time>2025-09-14T06:23:17Z</time>
      </trkpt>
      <trkpt lat="45.72169" lon="3.33235">
        <ele>358.6</ele>
        <time>2025-09-14T06:23:18Z</time>
      </trkpt>
      <trkpt lat="45.72165" lon="3.33231">
        <ele>358.6</ele>
        <time>2025-09-14T06:23:19Z</time>
      </trkpt>
      <trkpt lat="45.72161" lon="3.33229">
        <ele>358.8</ele>
        <time>2025-09-14T06:23:20Z</time>
      </trkpt>
      <trkpt lat="45.72156" lon="3.33229">
        <ele>359</ele>
        <time>2025-09-14T06:23:21Z</time>
      </trkpt>
      <trkpt lat="45.72153" lon="3.33229">
        <ele>359</ele>
        <time>2025-09-14T06:23:22Z</time>
      </trkpt>
      <trkpt lat="45.72148" lon="3.33229">
        <ele>359.2</ele>
        <time>2025-09-14T06:23:23Z</time>
      </trkpt>
      <trkpt lat="45.72144" lon="3.3323">
        <ele>359.4</ele>
        <time>2025-09-14T06:23:24Z</time>
      </trkpt>
      <trkpt lat="45.7214" lon="3.33231">
        <ele>359.8</ele>
        <time>2025-09-14T06:23:25Z</time>
      </trkpt>
      <trkpt lat="45.72136" lon="3.33233">
        <ele>360</ele>
        <time>2025-09-14T06:23:26Z</time>
      </trkpt>
      <trkpt lat="45.72132" lon="3.33233">
        <ele>360.2</ele>
        <time>2025-09-14T06:23:27Z</time>
      </trkpt>
      <trkpt lat="45.72128" lon="3.33234">
        <ele>360.4</ele>
        <time>2025-09-14T06:23:28Z</time>
      </trkpt>
      <trkpt lat="45.72124" lon="3.33235">
        <ele>360.6</ele>
        <time>2025-09-14T06:23:29Z</time>
      </trkpt>
      <trkpt lat="45.72119" lon="3.33236">
        <ele>360.8</ele>
        <time>2025-09-14T06:23:30Z</time>
      </trkpt>
      <trkpt lat="45.72116" lon="3.33237">
        <ele>361.2</ele>
        <time>2025-09-14T06:23:31Z</time>
      </trkpt>
      <trkpt lat="45.72111" lon="3.33238">
        <ele>361.4</ele>
        <time>2025-09-14T06:23:32Z</time>
      </trkpt>
      <trkpt lat="45.72107" lon="3.33239">
        <ele>361.6</ele>
        <time>2025-09-14T06:23:33Z</time>
      </trkpt>
      <trkpt lat="45.72103" lon="3.3324">
        <ele>361.8</ele>
        <time>2025-09-14T06:23:34Z</time>
      </trkpt>
      <trkpt lat="45.72099" lon="3.3324">
        <ele>362.2</ele>
        <time>2025-09-14T06:23:35Z</time>
      </trkpt>
      <trkpt lat="45.72095" lon="3.33241">
        <ele>362.4</ele>
        <time>2025-09-14T06:23:36Z</time>
      </trkpt>
      <trkpt lat="45.72092" lon="3.33241">
        <ele>362.6</ele>
        <time>2025-09-14T06:23:37Z</time>
      </trkpt>
      <trkpt lat="45.72088" lon="3.33242">
        <ele>362.8</ele>
        <time>2025-09-14T06:23:38Z</time>
      </trkpt>
      <trkpt lat="45.72084" lon="3.33244">
        <ele>363.2</ele>
        <time>2025-09-14T06:23:39Z</time>
      </trkpt>
      <trkpt lat="45.72081" lon="3.33246">
        <ele>363.4</ele>
        <time>2025-09-14T06:23:40Z</time>
      </trkpt>
      <trkpt lat="45.72078" lon="3.33249">
        <ele>363.6</ele>
        <time>2025-09-14T06:23:41Z</time>
      </trkpt>
      <trkpt lat="45.72075" lon="3.33252">
        <ele>363.8</ele>
        <time>2025-09-14T06:23:42Z</time>
      </trkpt>
      <trkpt lat="45.72073" lon="3.33256">
        <ele>364.2</ele>
        <time>2025-09-14T06:23:43Z</time>
      </trkpt>
      <trkpt lat="45.7207" lon="3.3326">
        <ele>364.4</ele>
        <time>2025-09-14T06:23:44Z</time>
      </trkpt>
      <trkpt lat="45.72069" lon="3.33265">
        <ele>364.6</ele>
        <time>2025-09-14T06:23:45Z</time>
      </trkpt>
      <trkpt lat="45.72068" lon="3.3327">
        <ele>365</ele>
        <time>2025-09-14T06:23:46Z</time>
      </trkpt>
      <trkpt lat="45.72067" lon="3.33275">
        <ele>365.2</ele>
        <time>2025-09-14T06:23:47Z</time>
      </trkpt>
      <trkpt lat="45.72066" lon="3.3328">
        <ele>365.6</ele>
        <time>2025-09-14T06:23:48Z</time>
      </trkpt>
      <trkpt lat="45.72065" lon="3.33284">
        <ele>365.8</ele>
        <time>2025-09-14T06:23:49Z</time>
      </trkpt>
      <trkpt lat="45.72064" lon="3.33289">
        <ele>366.2</ele>
        <time>2025-09-14T06:23:50Z</time>
      </trkpt>
      <trkpt lat="45.72062" lon="3.33293">
        <ele>366.4</ele>
        <time>2025-09-14T06:23:51Z</time>
      </trkpt>
      <trkpt lat="45.72059" lon="3.33297">
        <ele>366.6</ele>
        <time>2025-09-14T06:23:52Z</time>
      </trkpt>
      <trkpt lat="45.72057" lon="3.333">
        <ele>367</ele>
        <time>2025-09-14T06:23:53Z</time>
      </trkpt>
      <trkpt lat="45.72054" lon="3.33303">
        <ele>367.2</ele>
        <time>2025-09-14T06:23:54Z</time>
      </trkpt>
      <trkpt lat="45.72051" lon="3.33306">
        <ele>367.4</ele>
        <time>2025-09-14T06:23:55Z</time>
      </trkpt>
      <trkpt lat="45.72048" lon="3.33309">
        <ele>367.8</ele>
        <time>2025-09-14T06:23:56Z</time>
      </trkpt>
      <trkpt lat="45.72045" lon="3.33311">
        <ele>367.8</ele>
        <time>2025-09-14T06:23:57Z</time>
      </trkpt>
      <trkpt lat="45.72042" lon="3.33313">
        <ele>368</ele>
        <time>2025-09-14T06:23:58Z</time>
      </trkpt>
      <trkpt lat="45.72039" lon="3.33315">
        <ele>368.2</ele>
        <time>2025-09-14T06:23:59Z</time>
      </trkpt>
      <trkpt lat="45.72035" lon="3.33316">
        <ele>368.2</ele>
        <time>2025-09-14T06:24:00Z</time>
      </trkpt>
      <trkpt lat="45.72032" lon="3.33316">
        <ele>368.4</ele>
        <time>2025-09-14T06:24:01Z</time>
      </trkpt>
      <trkpt lat="45.72028" lon="3.33317">
        <ele>368.4</ele>
        <time>2025-09-14T06:24:02Z</time>
      </trkpt>
      <trkpt lat="45.72024" lon="3.33318">
        <ele>368.4</ele>
        <time>2025-09-14T06:24:03Z</time>
      </trkpt>
      <trkpt lat="45.7202" lon="3.33318">
        <ele>368.4</ele>
        <time>2025-09-14T06:24:04Z</time>
      </trkpt>
      <trkpt lat="45.72017" lon="3.33319">
        <ele>368.4</ele>
        <time>2025-09-14T06:24:05Z</time>
      </trkpt>
      <trkpt lat="45.72014" lon="3.3332">
        <ele>368.4</ele>
        <time>2025-09-14T06:24:06Z</time>
      </trkpt>
      <trkpt lat="45.72012" lon="3.33321">
        <ele>368.2</ele>
        <time>2025-09-14T06:24:07Z</time>
      </trkpt>
      <trkpt lat="45.7201" lon="3.33322">
        <ele>368.2</ele>
        <time>2025-09-14T06:24:08Z</time>
      </trkpt>
      <trkpt lat="45.72009" lon="3.33323">
        <ele>368.2</ele>
        <time>2025-09-14T06:24:09Z</time>
      </trkpt>
      <trkpt lat="45.72008" lon="3.33326">
        <ele>368.2</ele>
        <time>2025-09-14T06:24:10Z</time>
      </trkpt>
      <trkpt lat="45.72006" lon="3.33329">
        <ele>368.2</ele>
        <time>2025-09-14T06:24:11Z</time>
      </trkpt>
      <trkpt lat="45.72006" lon="3.33333">
        <ele>368.4</ele>
        <time>2025-09-14T06:24:12Z</time>
      </trkpt>
      <trkpt lat="45.72006" lon="3.33337">
        <ele>368.4</ele>
        <time>2025-09-14T06:24:13Z</time>
      </trkpt>
      <trkpt lat="45.72007" lon="3.33342">
        <ele>368.6</ele>
        <time>2025-09-14T06:24:14Z</time>
      </trkpt>
      <trkpt lat="45.72007" lon="3.33347">
        <ele>368.8</ele>
        <time>2025-09-14T06:24:15Z</time>
      </trkpt>
      <trkpt lat="45.72008" lon="3.33352">
        <ele>369</ele>
        <time>2025-09-14T06:24:16Z</time>
      </trkpt>
      <trkpt lat="45.72009" lon="3.33357">
        <ele>369.2</ele>
        <time>2025-09-14T06:24:17Z</time>
      </trkpt>
      <trkpt lat="45.72009" lon="3.33362">
        <ele>369.4</ele>
        <time>2025-09-14T06:24:18Z</time>
      </trkpt>
      <trkpt lat="45.7201" lon="3.33367">
        <ele>369.6</ele>
        <time>2025-09-14T06:24:19Z</time>
      </trkpt>
      <trkpt lat="45.7201" lon="3.33373">
        <ele>369.8</ele>
        <time>2025-09-14T06:24:20Z</time>
      </trkpt>
      <trkpt lat="45.72011" lon="3.33378">
        <ele>370</ele>
        <time>2025-09-14T06:24:21Z</time>
      </trkpt>
      <trkpt lat="45.72012" lon="3.33383">
        <ele>370.2</ele>
        <time>2025-09-14T06:24:22Z</time>
      </trkpt>
      <trkpt lat="45.72013" lon="3.33388">
        <ele>370.4</ele>
        <time>2025-09-14T06:24:23Z</time>
      </trkpt>
      <trkpt lat="45.72014" lon="3.33393">
        <ele>370.8</ele>
        <time>2025-09-14T06:24:24Z</time>
      </trkpt>
      <trkpt lat="45.72015" lon="3.33398">
        <ele>371</ele>
        <time>2025-09-14T06:24:25Z</time>
      </trkpt>
      <trkpt lat="45.72015" lon="3.33403">
        <ele>371.2</ele>
        <time>2025-09-14T06:24:26Z</time>
      </trkpt>
      <trkpt lat="45.72016" lon="3.33408">
        <ele>371.4</ele>
        <time>2025-09-14T06:24:27Z</time>
      </trkpt>
      <trkpt lat="45.72017" lon="3.33413">
        <ele>371.6</ele>
        <time>2025-09-14T06:24:28Z</time>
      </trkpt>
      <trkpt lat="45.72018" lon="3.33419">
        <ele>371.8</ele>
        <time>2025-09-14T06:24:29Z</time>
      </trkpt>
      <trkpt lat="45.72018" lon="3.33424">
        <ele>372</ele>
        <time>2025-09-14T06:24:30Z</time>
      </trkpt>
      <trkpt lat="45.72018" lon="3.33429">
        <ele>372.2</ele>
        <time>2025-09-14T06:24:31Z</time>
      </trkpt>
      <trkpt lat="45.72019" lon="3.33433">
        <ele>372.4</ele>
        <time>2025-09-14T06:24:32Z</time>
      </trkpt>
      <trkpt lat="45.72019" lon="3.33437">
        <ele>372.6</ele>
        <time>2025-09-14T06:24:33Z</time>
      </trkpt>
      <trkpt lat="45.7202" lon="3.33442">
        <ele>372.8</ele>
        <time>2025-09-14T06:24:34Z</time>
      </trkpt>
      <trkpt lat="45.72022" lon="3.33447">
        <ele>373</ele>
        <time>2025-09-14T06:24:35Z</time>
      </trkpt>
      <trkpt lat="45.72023" lon="3.33453">
        <ele>373.2</ele>
        <time>2025-09-14T06:24:36Z</time>
      </trkpt>
      <trkpt lat="45.72024" lon="3.33459">
        <ele>373.4</ele>
        <time>2025-09-14T06:24:37Z</time>
      </trkpt>
      <trkpt lat="45.72025" lon="3.33464">
        <ele>373.6</ele>
        <time>2025-09-14T06:24:38Z</time>
      </trkpt>
      <trkpt lat="45.72026" lon="3.3347">
        <ele>373.8</ele>
        <time>2025-09-14T06:24:39Z</time>
      </trkpt>
      <trkpt lat="45.72027" lon="3.33476">
        <ele>374</ele>
        <time>2025-09-14T06:24:40Z</time>
      </trkpt>
      <trkpt lat="45.72029" lon="3.33481">
        <ele>374.2</ele>
        <time>2025-09-14T06:24:41Z</time>
      </trkpt>
      <trkpt lat="45.7203" lon="3.33487">
        <ele>374.4</ele>
        <time>2025-09-14T06:24:42Z</time>
      </trkpt>
      <trkpt lat="45.72031" lon="3.33494">
        <ele>374.6</ele>
        <time>2025-09-14T06:24:43Z</time>
      </trkpt>
      <trkpt lat="45.72031" lon="3.335">
        <ele>374.8</ele>
        <time>2025-09-14T06:24:44Z</time>
      </trkpt>
      <trkpt lat="45.72031" lon="3.33505">
        <ele>375</ele>
        <time>2025-09-14T06:24:45Z</time>
      </trkpt>
      <trkpt lat="45.72032" lon="3.33511">
        <ele>375.2</ele>
        <time>2025-09-14T06:24:46Z</time>
      </trkpt>
      <trkpt lat="45.72032" lon="3.33516">
        <ele>375.4</ele>
        <time>2025-09-14T06:24:47Z</time>
      </trkpt>
      <trkpt lat="45.72033" lon="3.3352">
        <ele>375.6</ele>
        <time>2025-09-14T06:24:48Z</time>
      </trkpt>
      <trkpt lat="45.72032" lon="3.33524">
        <ele>375.8</ele>
        <time>2025-09-14T06:24:49Z</time>
      </trkpt>
      <trkpt lat="45.72033" lon="3.33527">
        <ele>376</ele>
        <time>2025-09-14T06:24:50Z</time>
      </trkpt>
      <trkpt lat="45.72033" lon="3.3353">
        <ele>376.2</ele>
        <time>2025-09-14T06:24:51Z</time>
      </trkpt>
      <trkpt lat="45.72032" lon="3.33533">
        <ele>376.2</ele>
        <time>2025-09-14T06:24:52Z</time>
      </trkpt>
      <trkpt lat="45.72031" lon="3.33537">
        <ele>376.4</ele>
        <time>2025-09-14T06:24:53Z</time>
      </trkpt>
      <trkpt lat="45.72028" lon="3.3354">
        <ele>376.6</ele>
        <time>2025-09-14T06:24:54Z</time>
      </trkpt>
      <trkpt lat="45.72024" lon="3.33542">
        <ele>376.6</ele>
        <time>2025-09-14T06:24:55Z</time>
      </trkpt>
      <trkpt lat="45.7202" lon="3.33542">
        <ele>376.6</ele>
        <time>2025-09-14T06:24:56Z</time>
      </trkpt>
      <trkpt lat="45.72015" lon="3.33542">
        <ele>376.8</ele>
        <time>2025-09-14T06:24:57Z</time>
      </trkpt>
      <trkpt lat="45.7201" lon="3.3354">
        <ele>376.8</ele>
        <time>2025-09-14T06:24:58Z</time>
      </trkpt>
      <trkpt lat="45.72005" lon="3.33538">
        <ele>376.8</ele>
        <time>2025-09-14T06:24:59Z</time>
      </trkpt>
      <trkpt lat="45.72002" lon="3.33537">
        <ele>376.8</ele>
        <time>2025-09-14T06:25:00Z</time>
      </trkpt>
      <trkpt lat="45.71998" lon="3.33536">
        <ele>376.6</ele>
        <time>2025-09-14T06:25:01Z</time>
      </trkpt>
      <trkpt lat="45.71995" lon="3.33535">
        <ele>376.6</ele>
        <time>2025-09-14T06:25:02Z</time>
      </trkpt>
      <trkpt lat="45.7199" lon="3.33534">
        <ele>376.8</ele>
        <time>2025-09-14T06:25:03Z</time>
      </trkpt>
      <trkpt lat="45.71985" lon="3.33532">
        <ele>376.8</ele>
        <time>2025-09-14T06:25:04Z</time>
      </trkpt>
      <trkpt lat="45.71981" lon="3.33531">
        <ele>376.8</ele>
        <time>2025-09-14T06:25:05Z</time>
      </trkpt>
      <trkpt lat="45.71977" lon="3.33531">
        <ele>376.8</ele>
        <time>2025-09-14T06:25:06Z</time>
      </trkpt>
      <trkpt lat="45.71972" lon="3.3353">
        <ele>376.8</ele>
        <time>2025-09-14T06:25:07Z</time>
      </trkpt>
      <trkpt lat="45.71968" lon="3.33529">
        <ele>377</ele>
        <time>2025-09-14T06:25:08Z</time>
      </trkpt>
      <trkpt lat="45.71964" lon="3.33527">
        <ele>377</ele>
        <time>2025-09-14T06:25:09Z</time>
      </trkpt>
      <trkpt lat="45.71959" lon="3.33525">
        <ele>377</ele>
        <time>2025-09-14T06:25:10Z</time>
      </trkpt>
      <trkpt lat="45.71955" lon="3.33524">
        <ele>377</ele>
        <time>2025-09-14T06:25:11Z</time>
      </trkpt>
      <trkpt lat="45.7195" lon="3.33522">
        <ele>377</ele>
        <time>2025-09-14T06:25:12Z</time>
      </trkpt>
      <trkpt lat="45.71946" lon="3.3352">
        <ele>377.2</ele>
        <time>2025-09-14T06:25:13Z</time>
      </trkpt>
      <trkpt lat="45.71942" lon="3.33518">
        <ele>377.2</ele>
        <time>2025-09-14T06:25:14Z</time>
      </trkpt>
      <trkpt lat="45.71937" lon="3.33517">
        <ele>377.2</ele>
        <time>2025-09-14T06:25:15Z</time>
      </trkpt>
      <trkpt lat="45.71932" lon="3.33515">
        <ele>377.2</ele>
        <time>2025-09-14T06:25:16Z</time>
      </trkpt>
      <trkpt lat="45.71929" lon="3.33514">
        <ele>377.4</ele>
        <time>2025-09-14T06:25:17Z</time>
      </trkpt>
      <trkpt lat="45.71924" lon="3.33513">
        <ele>377.4</ele>
        <time>2025-09-14T06:25:18Z</time>
      </trkpt>
      <trkpt lat="45.71919" lon="3.33511">
        <ele>377.4</ele>
        <time>2025-09-14T06:25:19Z</time>
      </trkpt>
      <trkpt lat="45.71915" lon="3.3351">
        <ele>377.4</ele>
        <time>2025-09-14T06:25:20Z</time>
      </trkpt>
      <trkpt lat="45.71911" lon="3.33508">
        <ele>377.4</ele>
        <time>2025-09-14T06:25:21Z</time>
      </trkpt>
      <trkpt lat="45.71906" lon="3.33506">
        <ele>377.4</ele>
        <time>2025-09-14T06:25:22Z</time>
      </trkpt>
      <trkpt lat="45.71901" lon="3.33505">
        <ele>377.6</ele>
        <time>2025-09-14T06:25:23Z</time>
      </trkpt>
      <trkpt lat="45.71897" lon="3.33503">
        <ele>377.6</ele>
        <time>2025-09-14T06:25:24Z</time>
      </trkpt>
      <trkpt lat="45.71892" lon="3.33502">
        <ele>377.6</ele>
        <time>2025-09-14T06:25:25Z</time>
      </trkpt>
      <trkpt lat="45.71888" lon="3.33501">
        <ele>377.6</ele>
        <time>2025-09-14T06:25:26Z</time>
      </trkpt>
      <trkpt lat="45.71884" lon="3.335">
        <ele>377.6</ele>
        <time>2025-09-14T06:25:27Z</time>
      </trkpt>
      <trkpt lat="45.7188" lon="3.33499">
        <ele>377.6</ele>
        <time>2025-09-14T06:25:28Z</time>
      </trkpt>
      <trkpt lat="45.71876" lon="3.33497">
        <ele>377.8</ele>
        <time>2025-09-14T06:25:29Z</time>
      </trkpt>
      <trkpt lat="45.71871" lon="3.33495">
        <ele>377.8</ele>
        <time>2025-09-14T06:25:30Z</time>
      </trkpt>
      <trkpt lat="45.71866" lon="3.33493">
        <ele>377.8</ele>
        <time>2025-09-14T06:25:31Z</time>
      </trkpt>
      <trkpt lat="45.71862" lon="3.33491">
        <ele>377.8</ele>
        <time>2025-09-14T06:25:32Z</time>
      </trkpt>
      <trkpt lat="45.71858" lon="3.33489">
        <ele>378</ele>
        <time>2025-09-14T06:25:33Z</time>
      </trkpt>
      <trkpt lat="45.71853" lon="3.33487">
        <ele>378</ele>
        <time>2025-09-14T06:25:34Z</time>
      </trkpt>
      <trkpt lat="45.71848" lon="3.33485">
        <ele>378</ele>
        <time>2025-09-14T06:25:35Z</time>
      </trkpt>
      <trkpt lat="45.71844" lon="3.33484">
        <ele>378</ele>
        <time>2025-09-14T06:25:36Z</time>
      </trkpt>
      <trkpt lat="45.71839" lon="3.33483">
        <ele>378</ele>
        <time>2025-09-14T06:25:37Z</time>
      </trkpt>
      <trkpt lat="45.71835" lon="3.33483">
        <ele>378</ele>
        <time>2025-09-14T06:25:38Z</time>
      </trkpt>
      <trkpt lat="45.71831" lon="3.33485">
        <ele>378.2</ele>
        <time>2025-09-14T06:25:39Z</time>
      </trkpt>
      <trkpt lat="45.71827" lon="3.33488">
        <ele>378.2</ele>
        <time>2025-09-14T06:25:40Z</time>
      </trkpt>
      <trkpt lat="45.71824" lon="3.33493">
        <ele>378.4</ele>
        <time>2025-09-14T06:25:41Z</time>
      </trkpt>
      <trkpt lat="45.7182" lon="3.33497">
        <ele>378.6</ele>
        <time>2025-09-14T06:25:42Z</time>
      </trkpt>
      <trkpt lat="45.71818" lon="3.33502">
        <ele>378.6</ele>
        <time>2025-09-14T06:25:43Z</time>
      </trkpt>
      <trkpt lat="45.71816" lon="3.33506">
        <ele>378.8</ele>
        <time>2025-09-14T06:25:44Z</time>
      </trkpt>
      <trkpt lat="45.71815" lon="3.33511">
        <ele>379</ele>
        <time>2025-09-14T06:25:45Z</time>
      </trkpt>
      <trkpt lat="45.71813" lon="3.33516">
        <ele>379.2</ele>
        <time>2025-09-14T06:25:46Z</time>
      </trkpt>
      <trkpt lat="45.71811" lon="3.3352">
        <ele>379.2</ele>
        <time>2025-09-14T06:25:47Z</time>
      </trkpt>
      <trkpt lat="45.71809" lon="3.33525">
        <ele>379.2</ele>
        <time>2025-09-14T06:25:48Z</time>
      </trkpt>
      <trkpt lat="45.71806" lon="3.33529">
        <ele>379.4</ele>
        <time>2025-09-14T06:25:49Z</time>
      </trkpt>
      <trkpt lat="45.71803" lon="3.33534">
        <ele>379.4</ele>
        <time>2025-09-14T06:25:50Z</time>
      </trkpt>
      <trkpt lat="45.71799" lon="3.33538">
        <ele>379.4</ele>
        <time>2025-09-14T06:25:51Z</time>
      </trkpt>
      <trkpt lat="45.71794" lon="3.33541">
        <ele>379.2</ele>
        <time>2025-09-14T06:25:52Z</time>
      </trkpt>
      <trkpt lat="45.71789" lon="3.33545">
        <ele>379.2</ele>
        <time>2025-09-14T06:25:53Z</time>
      </trkpt>
      <trkpt lat="45.71784" lon="3.33548">
        <ele>379.2</ele>
        <time>2025-09-14T06:25:54Z</time>
      </trkpt>
      <trkpt lat="45.71779" lon="3.33552">
        <ele>379.2</ele>
        <time>2025-09-14T06:25:55Z</time>
      </trkpt>
      <trkpt lat="45.71774" lon="3.33555">
        <ele>379</ele>
        <time>2025-09-14T06:25:56Z</time>
      </trkpt>
      <trkpt lat="45.7177" lon="3.33559">
        <ele>379</ele>
        <time>2025-09-14T06:25:57Z</time>
      </trkpt>
      <trkpt lat="45.71765" lon="3.33562">
        <ele>378.8</ele>
        <time>2025-09-14T06:25:58Z</time>
      </trkpt>
      <trkpt lat="45.7176" lon="3.33566">
        <ele>378.6</ele>
        <time>2025-09-14T06:25:59Z</time>
      </trkpt>
      <trkpt lat="45.71755" lon="3.3357">
        <ele>378.4</ele>
        <time>2025-09-14T06:26:00Z</time>
      </trkpt>
      <trkpt lat="45.7175" lon="3.33573">
        <ele>378.2</ele>
        <time>2025-09-14T06:26:01Z</time>
      </trkpt>
      <trkpt lat="45.71745" lon="3.33576">
        <ele>378</ele>
        <time>2025-09-14T06:26:02Z</time>
      </trkpt>
      <trkpt lat="45.71739" lon="3.3358">
        <ele>377.8</ele>
        <time>2025-09-14T06:26:03Z</time>
      </trkpt>
      <trkpt lat="45.71733" lon="3.33585">
        <ele>377.4</ele>
        <time>2025-09-14T06:26:04Z</time>
      </trkpt>
      <trkpt lat="45.71726" lon="3.33589">
        <ele>377.2</ele>
        <time>2025-09-14T06:26:05Z</time>
      </trkpt>
      <trkpt lat="45.7172" lon="3.33594">
        <ele>377</ele>
        <time>2025-09-14T06:26:06Z</time>
      </trkpt>
      <trkpt lat="45.71714" lon="3.33598">
        <ele>376.6</ele>
        <time>2025-09-14T06:26:07Z</time>
      </trkpt>
      <trkpt lat="45.71707" lon="3.33602">
        <ele>376.4</ele>
        <time>2025-09-14T06:26:08Z</time>
      </trkpt>
      <trkpt lat="45.71701" lon="3.33605">
        <ele>376</ele>
        <time>2025-09-14T06:26:09Z</time>
      </trkpt>
      <trkpt lat="45.71696" lon="3.33608">
        <ele>375.8</ele>
        <time>2025-09-14T06:26:10Z</time>
      </trkpt>
      <trkpt lat="45.71689" lon="3.33612">
        <ele>375.6</ele>
        <time>2025-09-14T06:26:11Z</time>
      </trkpt>
      <trkpt lat="45.71682" lon="3.33617">
        <ele>375.4</ele>
        <time>2025-09-14T06:26:12Z</time>
      </trkpt>
      <trkpt lat="45.71675" lon="3.33622">
        <ele>375.2</ele>
        <time>2025-09-14T06:26:13Z</time>
      </trkpt>
      <trkpt lat="45.71668" lon="3.33627">
        <ele>375</ele>
        <time>2025-09-14T06:26:14Z</time>
      </trkpt>
      <trkpt lat="45.71661" lon="3.33631">
        <ele>374.8</ele>
        <time>2025-09-14T06:26:15Z</time>
      </trkpt>
      <trkpt lat="45.71654" lon="3.33634">
        <ele>374.6</ele>
        <time>2025-09-14T06:26:16Z</time>
      </trkpt>
      <trkpt lat="45.71648" lon="3.33637">
        <ele>374.6</ele>
        <time>2025-09-14T06:26:17Z</time>
      </trkpt>
      <trkpt lat="45.71641" lon="3.33639">
        <ele>374.4</ele>
        <time>2025-09-14T06:26:18Z</time>
      </trkpt>
      <trkpt lat="45.71634" lon="3.33641">
        <ele>374.2</ele>
        <time>2025-09-14T06:26:19Z</time>
      </trkpt>
      <trkpt lat="45.71628" lon="3.33643">
        <ele>374</ele>
        <time>2025-09-14T06:26:20Z</time>
      </trkpt>
      <trkpt lat="45.71621" lon="3.33644">
        <ele>373.8</ele>
        <time>2025-09-14T06:26:21Z</time>
      </trkpt>
      <trkpt lat="45.71615" lon="3.33646">
        <ele>373.8</ele>
        <time>2025-09-14T06:26:22Z</time>
      </trkpt>
      <trkpt lat="45.71609" lon="3.33647">
        <ele>373.6</ele>
        <time>2025-09-14T06:26:23Z</time>
      </trkpt>
      <trkpt lat="45.71602" lon="3.33647">
        <ele>373.4</ele>
        <time>2025-09-14T06:26:24Z</time>
      </trkpt>
      <trkpt lat="45.71596" lon="3.33648">
        <ele>373.4</ele>
        <time>2025-09-14T06:26:25Z</time>
      </trkpt>
      <trkpt lat="45.7159" lon="3.33648">
        <ele>373.6</ele>
        <time>2025-09-14T06:26:26Z</time>
      </trkpt>
      <trkpt lat="45.71584" lon="3.33649">
        <ele>373.4</ele>
        <time>2025-09-14T06:26:27Z</time>
      </trkpt>
      <trkpt lat="45.71578" lon="3.33649">
        <ele>373.4</ele>
        <time>2025-09-14T06:26:28Z</time>
      </trkpt>
      <trkpt lat="45.71573" lon="3.3365">
        <ele>373.4</ele>
        <time>2025-09-14T06:26:29Z</time>
      </trkpt>
      <trkpt lat="45.71568" lon="3.33651">
        <ele>373.4</ele>
        <time>2025-09-14T06:26:30Z</time>
      </trkpt>
      <trkpt lat="45.71562" lon="3.33652">
        <ele>373.4</ele>
        <time>2025-09-14T06:26:31Z</time>
      </trkpt>
      <trkpt lat="45.71557" lon="3.33652">
        <ele>373.4</ele>
        <time>2025-09-14T06:26:32Z</time>
      </trkpt>
      <trkpt lat="45.71551" lon="3.33652">
        <ele>373.2</ele>
        <time>2025-09-14T06:26:33Z</time>
      </trkpt>
      <trkpt lat="45.71547" lon="3.33652">
        <ele>373.2</ele>
        <time>2025-09-14T06:26:34Z</time>
      </trkpt>
      <trkpt lat="45.71542" lon="3.33652">
        <ele>373.2</ele>
        <time>2025-09-14T06:26:35Z</time>
      </trkpt>
      <trkpt lat="45.71538" lon="3.33652">
        <ele>373.2</ele>
        <time>2025-09-14T06:26:36Z</time>
      </trkpt>
      <trkpt lat="45.71533" lon="3.33651">
        <ele>373.2</ele>
        <time>2025-09-14T06:26:37Z</time>
      </trkpt>
      <trkpt lat="45.71529" lon="3.3365">
        <ele>373.2</ele>
        <time>2025-09-14T06:26:38Z</time>
      </trkpt>
      <trkpt lat="45.71524" lon="3.33649">
        <ele>373</ele>
        <time>2025-09-14T06:26:39Z</time>
      </trkpt>
      <trkpt lat="45.7152" lon="3.33647">
        <ele>373</ele>
        <time>2025-09-14T06:26:40Z</time>
      </trkpt>
      <trkpt lat="45.71516" lon="3.33645">
        <ele>372.8</ele>
        <time>2025-09-14T06:26:41Z</time>
      </trkpt>
      <trkpt lat="45.71512" lon="3.33643">
        <ele>372.8</ele>
        <time>2025-09-14T06:26:42Z</time>
      </trkpt>
      <trkpt lat="45.71507" lon="3.3364">
        <ele>372.6</ele>
        <time>2025-09-14T06:26:43Z</time>
      </trkpt>
      <trkpt lat="45.71503" lon="3.33637">
        <ele>372.6</ele>
        <time>2025-09-14T06:26:44Z</time>
      </trkpt>
      <trkpt lat="45.715" lon="3.33634">
        <ele>372.6</ele>
        <time>2025-09-14T06:26:45Z</time>
      </trkpt>
      <trkpt lat="45.71497" lon="3.33631">
        <ele>372.6</ele>
        <time>2025-09-14T06:26:46Z</time>
      </trkpt>
      <trkpt lat="45.71494" lon="3.33628">
        <ele>372.6</ele>
        <time>2025-09-14T06:26:47Z</time>
      </trkpt>
      <trkpt lat="45.7149" lon="3.33625">
        <ele>372.4</ele>
        <time>2025-09-14T06:26:48Z</time>
      </trkpt>
      <trkpt lat="45.71487" lon="3.33622">
        <ele>372.4</ele>
        <time>2025-09-14T06:26:49Z</time>
      </trkpt>
      <trkpt lat="45.71483" lon="3.33618">
        <ele>372.2</ele>
        <time>2025-09-14T06:26:50Z</time>
      </trkpt>
      <trkpt lat="45.71479" lon="3.33614">
        <ele>372.2</ele>
        <time>2025-09-14T06:26:51Z</time>
      </trkpt>
      <trkpt lat="45.71474" lon="3.3361">
        <ele>372.2</ele>
        <time>2025-09-14T06:26:52Z</time>
      </trkpt>
      <trkpt lat="45.71469" lon="3.33606">
        <ele>372.2</ele>
        <time>2025-09-14T06:26:53Z</time>
      </trkpt>
      <trkpt lat="45.71464" lon="3.33603">
        <ele>372</ele>
        <time>2025-09-14T06:26:54Z</time>
      </trkpt>
      <trkpt lat="45.7146" lon="3.33599">
        <ele>372</ele>
        <time>2025-09-14T06:26:55Z</time>
      </trkpt>
      <trkpt lat="45.71455" lon="3.33595">
        <ele>372</ele>
        <time>2025-09-14T06:26:56Z</time>
      </trkpt>
      <trkpt lat="45.7145" lon="3.33591">
        <ele>371.8</ele>
        <time>2025-09-14T06:26:57Z</time>
      </trkpt>
      <trkpt lat="45.71444" lon="3.33588">
        <ele>371.8</ele>
        <time>2025-09-14T06:26:58Z</time>
      </trkpt>
      <trkpt lat="45.71439" lon="3.33584">
        <ele>371.8</ele>
        <time>2025-09-14T06:26:59Z</time>
      </trkpt>
      <trkpt lat="45.71434" lon="3.3358">
        <ele>371.8</ele>
        <time>2025-09-14T06:27:00Z</time>
      </trkpt>
      <trkpt lat="45.7143" lon="3.33577">
        <ele>371.8</ele>
        <time>2025-09-14T06:27:01Z</time>
      </trkpt>
      <trkpt lat="45.71425" lon="3.33574">
        <ele>371.8</ele>
        <time>2025-09-14T06:27:02Z</time>
      </trkpt>
      <trkpt lat="45.7142" lon="3.3357">
        <ele>372</ele>
        <time>2025-09-14T06:27:03Z</time>
      </trkpt>
      <trkpt lat="45.71416" lon="3.33567">
        <ele>372.2</ele>
        <time>2025-09-14T06:27:04Z</time>
      </trkpt>
      <trkpt lat="45.71412" lon="3.33564">
        <ele>372.2</ele>
        <time>2025-09-14T06:27:05Z</time>
      </trkpt>
      <trkpt lat="45.71409" lon="3.33562">
        <ele>372.4</ele>
        <time>2025-09-14T06:27:06Z</time>
      </trkpt>
      <trkpt lat="45.71405" lon="3.33559">
        <ele>372.4</ele>
        <time>2025-09-14T06:27:07Z</time>
      </trkpt>
      <trkpt lat="45.71401" lon="3.33555">
        <ele>372.6</ele>
        <time>2025-09-14T06:27:08Z</time>
      </trkpt>
      <trkpt lat="45.71396" lon="3.33551">
        <ele>372.8</ele>
        <time>2025-09-14T06:27:09Z</time>
      </trkpt>
      <trkpt lat="45.71392" lon="3.33546">
        <ele>373</ele>
        <time>2025-09-14T06:27:10Z</time>
      </trkpt>
      <trkpt lat="45.71388" lon="3.33541">
        <ele>373</ele>
        <time>2025-09-14T06:27:11Z</time>
      </trkpt>
      <trkpt lat="45.71384" lon="3.33536">
        <ele>373.2</ele>
        <time>2025-09-14T06:27:12Z</time>
      </trkpt>
      <trkpt lat="45.7138" lon="3.33531">
        <ele>373.2</ele>
        <time>2025-09-14T06:27:13Z</time>
      </trkpt>
      <trkpt lat="45.71376" lon="3.33526">
        <ele>373.4</ele>
        <time>2025-09-14T06:27:14Z</time>
      </trkpt>
      <trkpt lat="45.71371" lon="3.33521">
        <ele>373.6</ele>
        <time>2025-09-14T06:27:15Z</time>
      </trkpt>
      <trkpt lat="45.71367" lon="3.33516">
        <ele>373.6</ele>
        <time>2025-09-14T06:27:16Z</time>
      </trkpt>
      <trkpt lat="45.71363" lon="3.33512">
        <ele>373.8</ele>
        <time>2025-09-14T06:27:17Z</time>
      </trkpt>
      <trkpt lat="45.71359" lon="3.33508">
        <ele>373.8</ele>
        <time>2025-09-14T06:27:18Z</time>
      </trkpt>
      <trkpt lat="45.71355" lon="3.33504">
        <ele>374</ele>
        <time>2025-09-14T06:27:19Z</time>
      </trkpt>
      <trkpt lat="45.7135" lon="3.33499">
        <ele>374</ele>
        <time>2025-09-14T06:27:20Z</time>
      </trkpt>
      <trkpt lat="45.71346" lon="3.33495">
        <ele>374.2</ele>
        <time>2025-09-14T06:27:21Z</time>
      </trkpt>
      <trkpt lat="45.71342" lon="3.3349">
        <ele>374.2</ele>
        <time>2025-09-14T06:27:22Z</time>
      </trkpt>
      <trkpt lat="45.71338" lon="3.33486">
        <ele>374.4</ele>
        <time>2025-09-14T06:27:23Z</time>
      </trkpt>
      <trkpt lat="45.71333" lon="3.33482">
        <ele>374.4</ele>
        <time>2025-09-14T06:27:24Z</time>
      </trkpt>
      <trkpt lat="45.71329" lon="3.33478">
        <ele>374.4</ele>
        <time>2025-09-14T06:27:25Z</time>
      </trkpt>
      <trkpt lat="45.71325" lon="3.33474">
        <ele>374.6</ele>
        <time>2025-09-14T06:27:26Z</time>
      </trkpt>
      <trkpt lat="45.71321" lon="3.3347">
        <ele>374.6</ele>
        <time>2025-09-14T06:27:27Z</time>
      </trkpt>
      <trkpt lat="45.71316" lon="3.33465">
        <ele>374.6</ele>
        <time>2025-09-14T06:27:28Z</time>
      </trkpt>
      <trkpt lat="45.71312" lon="3.33461">
        <ele>374.6</ele>
        <time>2025-09-14T06:27:29Z</time>
      </trkpt>
      <trkpt lat="45.71308" lon="3.33457">
        <ele>374.6</ele>
        <time>2025-09-14T06:27:30Z</time>
      </trkpt>
      <trkpt lat="45.71304" lon="3.33454">
        <ele>374.8</ele>
        <time>2025-09-14T06:27:31Z</time>
      </trkpt>
      <trkpt lat="45.71299" lon="3.3345">
        <ele>374.8</ele>
        <time>2025-09-14T06:27:32Z</time>
      </trkpt>
      <trkpt lat="45.71295" lon="3.33446">
        <ele>374.8</ele>
        <time>2025-09-14T06:27:33Z</time>
      </trkpt>
      <trkpt lat="45.71291" lon="3.33442">
        <ele>374.8</ele>
        <time>2025-09-14T06:27:34Z</time>
      </trkpt>
      <trkpt lat="45.71286" lon="3.33438">
        <ele>374.8</ele>
        <time>2025-09-14T06:27:35Z</time>
      </trkpt>
      <trkpt lat="45.71282" lon="3.33435">
        <ele>374.8</ele>
        <time>2025-09-14T06:27:36Z</time>
      </trkpt>
      <trkpt lat="45.71277" lon="3.33431">
        <ele>374.8</ele>
        <time>2025-09-14T06:27:37Z</time>
      </trkpt>
      <trkpt lat="45.71272" lon="3.33428">
        <ele>374.8</ele>
        <time>2025-09-14T06:27:38Z</time>
      </trkpt>
      <trkpt lat="45.71268" lon="3.33424">
        <ele>375</ele>
        <time>2025-09-14T06:27:39Z</time>
      </trkpt>
      <trkpt lat="45.71263" lon="3.3342">
        <ele>375</ele>
        <time>2025-09-14T06:27:40Z</time>
      </trkpt>
      <trkpt lat="45.71259" lon="3.33415">
        <ele>375</ele>
        <time>2025-09-14T06:27:41Z</time>
      </trkpt>
      <trkpt lat="45.71256" lon="3.33411">
        <ele>375</ele>
        <time>2025-09-14T06:27:42Z</time>
      </trkpt>
      <trkpt lat="45.71252" lon="3.33405">
        <ele>375</ele>
        <time>2025-09-14T06:27:43Z</time>
      </trkpt>
      <trkpt lat="45.71248" lon="3.334">
        <ele>375</ele>
        <time>2025-09-14T06:27:44Z</time>
      </trkpt>
      <trkpt lat="45.71244" lon="3.33394">
        <ele>375</ele>
        <time>2025-09-14T06:27:45Z</time>
      </trkpt>
      <trkpt lat="45.71241" lon="3.33389">
        <ele>375.2</ele>
        <time>2025-09-14T06:27:46Z</time>
      </trkpt>
      <trkpt lat="45.71237" lon="3.33383">
        <ele>375.2</ele>
        <time>2025-09-14T06:27:47Z</time>
      </trkpt>
      <trkpt lat="45.71233" lon="3.33378">
        <ele>375.4</ele>
        <time>2025-09-14T06:27:48Z</time>
      </trkpt>
      <trkpt lat="45.71228" lon="3.33374">
        <ele>375.4</ele>
        <time>2025-09-14T06:27:49Z</time>
      </trkpt>
      <trkpt lat="45.71224" lon="3.3337">
        <ele>375.2</ele>
        <time>2025-09-14T06:27:50Z</time>
      </trkpt>
      <trkpt lat="45.71218" lon="3.33368">
        <ele>375.2</ele>
        <time>2025-09-14T06:27:51Z</time>
      </trkpt>
      <trkpt lat="45.71213" lon="3.33368">
        <ele>375.2</ele>
        <time>2025-09-14T06:27:52Z</time>
      </trkpt>
      <trkpt lat="45.71207" lon="3.33368">
        <ele>375</ele>
        <time>2025-09-14T06:27:53Z</time>
      </trkpt>
      <trkpt lat="45.71202" lon="3.33368">
        <ele>375</ele>
        <time>2025-09-14T06:27:54Z</time>
      </trkpt>
      <trkpt lat="45.71196" lon="3.33367">
        <ele>375</ele>
        <time>2025-09-14T06:27:55Z</time>
      </trkpt>
      <trkpt lat="45.71191" lon="3.33367">
        <ele>375</ele>
        <time>2025-09-14T06:27:56Z</time>
      </trkpt>
      <trkpt lat="45.71185" lon="3.33367">
        <ele>374.8</ele>
        <time>2025-09-14T06:27:57Z</time>
      </trkpt>
      <trkpt lat="45.7118" lon="3.33367">
        <ele>374.8</ele>
        <time>2025-09-14T06:27:58Z</time>
      </trkpt>
      <trkpt lat="45.71175" lon="3.33368">
        <ele>374.8</ele>
        <time>2025-09-14T06:27:59Z</time>
      </trkpt>
      <trkpt lat="45.71169" lon="3.33368">
        <ele>375</ele>
        <time>2025-09-14T06:28:00Z</time>
      </trkpt>
      <trkpt lat="45.71164" lon="3.33368">
        <ele>375</ele>
        <time>2025-09-14T06:28:01Z</time>
      </trkpt>
      <trkpt lat="45.7116" lon="3.33367">
        <ele>375</ele>
        <time>2025-09-14T06:28:02Z</time>
      </trkpt>
      <trkpt lat="45.71155" lon="3.33367">
        <ele>375</ele>
        <time>2025-09-14T06:28:03Z</time>
      </trkpt>
      <trkpt lat="45.71151" lon="3.33367">
        <ele>375</ele>
        <time>2025-09-14T06:28:04Z</time>
      </trkpt>
      <trkpt lat="45.71147" lon="3.33367">
        <ele>375</ele>
        <time>2025-09-14T06:28:05Z</time>
      </trkpt>
      <trkpt lat="45.71144" lon="3.33366">
        <ele>375</ele>
        <time>2025-09-14T06:28:06Z</time>
      </trkpt>
      <trkpt lat="45.71142" lon="3.33366">
        <ele>375</ele>
        <time>2025-09-14T06:28:07Z</time>
      </trkpt>
      <trkpt lat="45.71139" lon="3.33366">
        <ele>375.2</ele>
        <time>2025-09-14T06:28:08Z</time>
      </trkpt>
      <trkpt lat="45.71136" lon="3.33367">
        <ele>375.2</ele>
        <time>2025-09-14T06:28:09Z</time>
      </trkpt>
      <trkpt lat="45.71134" lon="3.3337">
        <ele>375.4</ele>
        <time>2025-09-14T06:28:10Z</time>
      </trkpt>
      <trkpt lat="45.71133" lon="3.33373">
        <ele>375.6</ele>
        <time>2025-09-14T06:28:11Z</time>
      </trkpt>
      <trkpt lat="45.71131" lon="3.33377">
        <ele>375.6</ele>
        <time>2025-09-14T06:28:12Z</time>
      </trkpt>
      <trkpt lat="45.7113" lon="3.33382">
        <ele>375.8</ele>
        <time>2025-09-14T06:28:13Z</time>
      </trkpt>
      <trkpt lat="45.71131" lon="3.33387">
        <ele>375.8</ele>
        <time>2025-09-14T06:28:14Z</time>
      </trkpt>
      <trkpt lat="45.71132" lon="3.33393">
        <ele>376</ele>
        <time>2025-09-14T06:28:15Z</time>
      </trkpt>
      <trkpt lat="45.71133" lon="3.33398">
        <ele>376</ele>
        <time>2025-09-14T06:28:16Z</time>
      </trkpt>
      <trkpt lat="45.71134" lon="3.33404">
        <ele>376.2</ele>
        <time>2025-09-14T06:28:17Z</time>
      </trkpt>
      <trkpt lat="45.71135" lon="3.3341">
        <ele>376.2</ele>
        <time>2025-09-14T06:28:18Z</time>
      </trkpt>
      <trkpt lat="45.71137" lon="3.33417">
        <ele>376.4</ele>
        <time>2025-09-14T06:28:19Z</time>
      </trkpt>
      <trkpt lat="45.71139" lon="3.33424">
        <ele>376.4</ele>
        <time>2025-09-14T06:28:20Z</time>
      </trkpt>
      <trkpt lat="45.71141" lon="3.33431">
        <ele>376.6</ele>
        <time>2025-09-14T06:28:21Z</time>
      </trkpt>
      <trkpt lat="45.71143" lon="3.33438">
        <ele>376.8</ele>
        <time>2025-09-14T06:28:22Z</time>
      </trkpt>
      <trkpt lat="45.71145" lon="3.33445">
        <ele>376.8</ele>
        <time>2025-09-14T06:28:23Z</time>
      </trkpt>
      <trkpt lat="45.71146" lon="3.33451">
        <ele>377.2</ele>
        <time>2025-09-14T06:28:24Z</time>
      </trkpt>
      <trkpt lat="45.71148" lon="3.33457">
        <ele>377.4</ele>
        <time>2025-09-14T06:28:25Z</time>
      </trkpt>
      <trkpt lat="45.71151" lon="3.33463">
        <ele>377.6</ele>
        <time>2025-09-14T06:28:26Z</time>
      </trkpt>
      <trkpt lat="45.71153" lon="3.33469">
        <ele>377.8</ele>
        <time>2025-09-14T06:28:27Z</time>
      </trkpt>
      <trkpt lat="45.71156" lon="3.33474">
        <ele>378</ele>
        <time>2025-09-14T06:28:28Z</time>
      </trkpt>
      <trkpt lat="45.71159" lon="3.3348">
        <ele>378.4</ele>
        <time>2025-09-14T06:28:29Z</time>
      </trkpt>
      <trkpt lat="45.71162" lon="3.33485">
        <ele>378.6</ele>
        <time>2025-09-14T06:28:30Z</time>
      </trkpt>
      <trkpt lat="45.71165" lon="3.33491">
        <ele>378.8</ele>
        <time>2025-09-14T06:28:31Z</time>
      </trkpt>
      <trkpt lat="45.71168" lon="3.33496">
        <ele>379</ele>
        <time>2025-09-14T06:28:32Z</time>
      </trkpt>
      <trkpt lat="45.7117" lon="3.33502">
        <ele>379.2</ele>
        <time>2025-09-14T06:28:33Z</time>
      </trkpt>
      <trkpt lat="45.71173" lon="3.33508">
        <ele>379.4</ele>
        <time>2025-09-14T06:28:34Z</time>
      </trkpt>
      <trkpt lat="45.71175" lon="3.33513">
        <ele>379.6</ele>
        <time>2025-09-14T06:28:35Z</time>
      </trkpt>
      <trkpt lat="45.71178" lon="3.33519">
        <ele>379.6</ele>
        <time>2025-09-14T06:28:36Z</time>
      </trkpt>
      <trkpt lat="45.71179" lon="3.33524">
        <ele>379.8</ele>
        <time>2025-09-14T06:28:37Z</time>
      </trkpt>
      <trkpt lat="45.71181" lon="3.33529">
        <ele>379.8</ele>
        <time>2025-09-14T06:28:38Z</time>
      </trkpt>
      <trkpt lat="45.71183" lon="3.33535">
        <ele>380</ele>
        <time>2025-09-14T06:28:39Z</time>
      </trkpt>
      <trkpt lat="45.71185" lon="3.33541">
        <ele>380.2</ele>
        <time>2025-09-14T06:28:40Z</time>
      </trkpt>
      <trkpt lat="45.71188" lon="3.33547">
        <ele>380.2</ele>
        <time>2025-09-14T06:28:41Z</time>
      </trkpt>
      <trkpt lat="45.71191" lon="3.33552">
        <ele>380.4</ele>
        <time>2025-09-14T06:28:42Z</time>
      </trkpt>
      <trkpt lat="45.71193" lon="3.33558">
        <ele>380.6</ele>
        <time>2025-09-14T06:28:43Z</time>
      </trkpt>
      <trkpt lat="45.71195" lon="3.33564">
        <ele>380.6</ele>
        <time>2025-09-14T06:28:44Z</time>
      </trkpt>
      <trkpt lat="45.71198" lon="3.33569">
        <ele>380.6</ele>
        <time>2025-09-14T06:28:45Z</time>
      </trkpt>
      <trkpt lat="45.71201" lon="3.33575">
        <ele>380.8</ele>
        <time>2025-09-14T06:28:46Z</time>
      </trkpt>
      <trkpt lat="45.71204" lon="3.3358">
        <ele>380.8</ele>
        <time>2025-09-14T06:28:47Z</time>
      </trkpt>
      <trkpt lat="45.71208" lon="3.33585">
        <ele>380.8</ele>
        <time>2025-09-14T06:28:48Z</time>
      </trkpt>
      <trkpt lat="45.71211" lon="3.33591">
        <ele>380.8</ele>
        <time>2025-09-14T06:28:49Z</time>
      </trkpt>
      <trkpt lat="45.71215" lon="3.33596">
        <ele>380.8</ele>
        <time>2025-09-14T06:28:50Z</time>
      </trkpt>
      <trkpt lat="45.71218" lon="3.33601">
        <ele>380.8</ele>
        <time>2025-09-14T06:28:51Z</time>
      </trkpt>
      <trkpt lat="45.71222" lon="3.33607">
        <ele>380.6</ele>
        <time>2025-09-14T06:28:52Z</time>
      </trkpt>
      <trkpt lat="45.71227" lon="3.33613">
        <ele>380.6</ele>
        <time>2025-09-14T06:28:53Z</time>
      </trkpt>
      <trkpt lat="45.7123" lon="3.3362">
        <ele>380.6</ele>
        <time>2025-09-14T06:28:54Z</time>
      </trkpt>
      <trkpt lat="45.71233" lon="3.33626">
        <ele>380.4</ele>
        <time>2025-09-14T06:28:55Z</time>
      </trkpt>
      <trkpt lat="45.71235" lon="3.33634">
        <ele>380.4</ele>
        <time>2025-09-14T06:28:56Z</time>
      </trkpt>
      <trkpt lat="45.71237" lon="3.33641">
        <ele>380.4</ele>
        <time>2025-09-14T06:28:57Z</time>
      </trkpt>
      <trkpt lat="45.7124" lon="3.33648">
        <ele>380.4</ele>
        <time>2025-09-14T06:28:58Z</time>
      </trkpt>
      <trkpt lat="45.71241" lon="3.33655">
        <ele>380.2</ele>
        <time>2025-09-14T06:28:59Z</time>
      </trkpt>
      <trkpt lat="45.71243" lon="3.33663">
        <ele>380.2</ele>
        <time>2025-09-14T06:29:00Z</time>
      </trkpt>
      <trkpt lat="45.71245" lon="3.33671">
        <ele>380</ele>
        <time>2025-09-14T06:29:01Z</time>
      </trkpt>
      <trkpt lat="45.71248" lon="3.33678">
        <ele>379.8</ele>
        <time>2025-09-14T06:29:02Z</time>
      </trkpt>
      <trkpt lat="45.71254" lon="3.33683">
        <ele>379.4</ele>
        <time>2025-09-14T06:29:03Z</time>
      </trkpt>
      <trkpt lat="45.71259" lon="3.33688">
        <ele>379</ele>
        <time>2025-09-14T06:29:04Z</time>
      </trkpt>
      <trkpt lat="45.71265" lon="3.33693">
        <ele>378.6</ele>
        <time>2025-09-14T06:29:05Z</time>
      </trkpt>
      <trkpt lat="45.71272" lon="3.33698">
        <ele>378.2</ele>
        <time>2025-09-14T06:29:06Z</time>
      </trkpt>
      <trkpt lat="45.71279" lon="3.33702">
        <ele>378</ele>
        <time>2025-09-14T06:29:07Z</time>
      </trkpt>
      <trkpt lat="45.71286" lon="3.33706">
        <ele>377.6</ele>
        <time>2025-09-14T06:29:08Z</time>
      </trkpt>
      <trkpt lat="45.71294" lon="3.33709">
        <ele>377.2</ele>
        <time>2025-09-14T06:29:09Z</time>
      </trkpt>
      <trkpt lat="45.71301" lon="3.33711">
        <ele>376.6</ele>
        <time>2025-09-14T06:29:10Z</time>
      </trkpt>
      <trkpt lat="45.71309" lon="3.33712">
        <ele>376.2</ele>
        <time>2025-09-14T06:29:11Z</time>
      </trkpt>
      <trkpt lat="45.71318" lon="3.33714">
        <ele>375.8</ele>
        <time>2025-09-14T06:29:12Z</time>
      </trkpt>
      <trkpt lat="45.71326" lon="3.33715">
        <ele>375.4</ele>
        <time>2025-09-14T06:29:13Z</time>
      </trkpt>
      <trkpt lat="45.71335" lon="3.33717">
        <ele>375</ele>
        <time>2025-09-14T06:29:14Z</time>
      </trkpt>
      <trkpt lat="45.71344" lon="3.33719">
        <ele>374.6</ele>
        <time>2025-09-14T06:29:15Z</time>
      </trkpt>
      <trkpt lat="45.71352" lon="3.33721">
        <ele>374.2</ele>
        <time>2025-09-14T06:29:16Z</time>
      </trkpt>
      <trkpt lat="45.7136" lon="3.33725">
        <ele>374</ele>
        <time>2025-09-14T06:29:17Z</time>
      </trkpt>
      <trkpt lat="45.71368" lon="3.33728">
        <ele>373.6</ele>
        <time>2025-09-14T06:29:18Z</time>
      </trkpt>
      <trkpt lat="45.71375" lon="3.33733">
        <ele>373.4</ele>
        <time>2025-09-14T06:29:19Z</time>
      </trkpt>
      <trkpt lat="45.71382" lon="3.33739">
        <ele>373</ele>
        <time>2025-09-14T06:29:20Z</time>
      </trkpt>
      <trkpt lat="45.7139" lon="3.33745">
        <ele>372.8</ele>
        <time>2025-09-14T06:29:21Z</time>
      </trkpt>
      <trkpt lat="45.71396" lon="3.33752">
        <ele>372.4</ele>
        <time>2025-09-14T06:29:22Z</time>
      </trkpt>
      <trkpt lat="45.71403" lon="3.33758">
        <ele>372.2</ele>
        <time>2025-09-14T06:29:23Z</time>
      </trkpt>
      <trkpt lat="45.71409" lon="3.33766">
        <ele>371.8</ele>
        <time>2025-09-14T06:29:24Z</time>
      </trkpt>
      <trkpt lat="45.71415" lon="3.33773">
        <ele>371.6</ele>
        <time>2025-09-14T06:29:25Z</time>
      </trkpt>
      <trkpt lat="45.71421" lon="3.33781">
        <ele>371.4</ele>
        <time>2025-09-14T06:29:26Z</time>
      </trkpt>
      <trkpt lat="45.71426" lon="3.33787">
        <ele>371.2</ele>
        <time>2025-09-14T06:29:27Z</time>
      </trkpt>
      <trkpt lat="45.71431" lon="3.33794">
        <ele>371.2</ele>
        <time>2025-09-14T06:29:28Z</time>
      </trkpt>
      <trkpt lat="45.71436" lon="3.33801">
        <ele>371.2</ele>
        <time>2025-09-14T06:29:29Z</time>
      </trkpt>
      <trkpt lat="45.71438" lon="3.33808">
        <ele>371.2</ele>
        <time>2025-09-14T06:29:30Z</time>
      </trkpt>
      <trkpt lat="45.7144" lon="3.33816">
        <ele>371.2</ele>
        <time>2025-09-14T06:29:31Z</time>
      </trkpt>
      <trkpt lat="45.7144" lon="3.33824">
        <ele>371.4</ele>
        <time>2025-09-14T06:29:32Z</time>
      </trkpt>
      <trkpt lat="45.7144" lon="3.33831">
        <ele>371.6</ele>
        <time>2025-09-14T06:29:33Z</time>
      </trkpt>
      <trkpt lat="45.71439" lon="3.33839">
        <ele>372</ele>
        <time>2025-09-14T06:29:34Z</time>
      </trkpt>
      <trkpt lat="45.71439" lon="3.33847">
        <ele>372.2</ele>
        <time>2025-09-14T06:29:35Z</time>
      </trkpt>
      <trkpt lat="45.71438" lon="3.33854">
        <ele>372.6</ele>
        <time>2025-09-14T06:29:36Z</time>
      </trkpt>
      <trkpt lat="45.71438" lon="3.33861">
        <ele>372.8</ele>
        <time>2025-09-14T06:29:37Z</time>
      </trkpt>
      <trkpt lat="45.71437" lon="3.33867">
        <ele>373.2</ele>
        <time>2025-09-14T06:29:38Z</time>
      </trkpt>
      <trkpt lat="45.71437" lon="3.33874">
        <ele>373.4</ele>
        <time>2025-09-14T06:29:39Z</time>
      </trkpt>
      <trkpt lat="45.71437" lon="3.33879">
        <ele>373.8</ele>
        <time>2025-09-14T06:29:40Z</time>
      </trkpt>
      <trkpt lat="45.71437" lon="3.33885">
        <ele>374</ele>
        <time>2025-09-14T06:29:41Z</time>
      </trkpt>
      <trkpt lat="45.71437" lon="3.3389">
        <ele>374.4</ele>
        <time>2025-09-14T06:29:42Z</time>
      </trkpt>
      <trkpt lat="45.71437" lon="3.33895">
        <ele>374.6</ele>
        <time>2025-09-14T06:29:43Z</time>
      </trkpt>
      <trkpt lat="45.71437" lon="3.339">
        <ele>375</ele>
        <time>2025-09-14T06:29:44Z</time>
      </trkpt>
      <trkpt lat="45.71436" lon="3.33905">
        <ele>375.4</ele>
        <time>2025-09-14T06:29:45Z</time>
      </trkpt>
      <trkpt lat="45.71436" lon="3.3391">
        <ele>375.6</ele>
        <time>2025-09-14T06:29:46Z</time>
      </trkpt>
      <trkpt lat="45.71436" lon="3.33915">
        <ele>376</ele>
        <time>2025-09-14T06:29:47Z</time>
      </trkpt>
      <trkpt lat="45.71435" lon="3.3392">
        <ele>376.4</ele>
        <time>2025-09-14T06:29:48Z</time>
      </trkpt>
      <trkpt lat="45.71435" lon="3.33925">
        <ele>376.8</ele>
        <time>2025-09-14T06:29:49Z</time>
      </trkpt>
      <trkpt lat="45.71433" lon="3.33929">
        <ele>377.2</ele>
        <time>2025-09-14T06:29:50Z</time>
      </trkpt>
      <trkpt lat="45.71432" lon="3.33934">
        <ele>377.4</ele>
        <time>2025-09-14T06:29:51Z</time>
      </trkpt>
      <trkpt lat="45.7143" lon="3.33937">
        <ele>377.8</ele>
        <time>2025-09-14T06:29:52Z</time>
      </trkpt>
      <trkpt lat="45.71427" lon="3.33941">
        <ele>378.2</ele>
        <time>2025-09-14T06:29:53Z</time>
      </trkpt>
      <trkpt lat="45.71425" lon="3.33944">
        <ele>378.4</ele>
        <time>2025-09-14T06:29:54Z</time>
      </trkpt>
      <trkpt lat="45.71422" lon="3.33947">
        <ele>378.6</ele>
        <time>2025-09-14T06:29:55Z</time>
      </trkpt>
      <trkpt lat="45.7142" lon="3.33949">
        <ele>378.8</ele>
        <time>2025-09-14T06:29:56Z</time>
      </trkpt>
      <trkpt lat="45.71417" lon="3.33952">
        <ele>379.2</ele>
        <time>2025-09-14T06:29:57Z</time>
      </trkpt>
      <trkpt lat="45.71414" lon="3.33955">
        <ele>379.4</ele>
        <time>2025-09-14T06:29:58Z</time>
      </trkpt>
      <trkpt lat="45.71411" lon="3.33957">
        <ele>379.6</ele>
        <time>2025-09-14T06:29:59Z</time>
      </trkpt>
      <trkpt lat="45.71408" lon="3.3396">
        <ele>379.8</ele>
        <time>2025-09-14T06:30:00Z</time>
      </trkpt>
      <trkpt lat="45.71406" lon="3.33963">
        <ele>380</ele>
        <time>2025-09-14T06:30:01Z</time>
      </trkpt>
      <trkpt lat="45.71403" lon="3.33966">
        <ele>380.2</ele>
        <time>2025-09-14T06:30:02Z</time>
      </trkpt>
      <trkpt lat="45.714" lon="3.33969">
        <ele>380.4</ele>
        <time>2025-09-14T06:30:03Z</time>
      </trkpt>
      <trkpt lat="45.71398" lon="3.33973">
        <ele>380.6</ele>
        <time>2025-09-14T06:30:04Z</time>
      </trkpt>
      <trkpt lat="45.71396" lon="3.33976">
        <ele>380.6</ele>
        <time>2025-09-14T06:30:05Z</time>
      </trkpt>
      <trkpt lat="45.71395" lon="3.3398">
        <ele>380.8</ele>
        <time>2025-09-14T06:30:06Z</time>
      </trkpt>
      <trkpt lat="45.71394" lon="3.33984">
        <ele>380.8</ele>
        <time>2025-09-14T06:30:07Z</time>
      </trkpt>
      <trkpt lat="45.71393" lon="3.33989">
        <ele>380.8</ele>
        <time>2025-09-14T06:30:08Z</time>
      </trkpt>
      <trkpt lat="45.71393" lon="3.33994">
        <ele>380.8</ele>
        <time>2025-09-14T06:30:09Z</time>
      </trkpt>
      <trkpt lat="45.71393" lon="3.34">
        <ele>381</ele>
        <time>2025-09-14T06:30:10Z</time>
      </trkpt>
      <trkpt lat="45.71393" lon="3.34005">
        <ele>381</ele>
        <time>2025-09-14T06:30:11Z</time>
      </trkpt>
      <trkpt lat="45.71393" lon="3.34011">
        <ele>381.2</ele>
        <time>2025-09-14T06:30:12Z</time>
      </trkpt>
      <trkpt lat="45.71393" lon="3.34016">
        <ele>381.2</ele>
        <time>2025-09-14T06:30:13Z</time>
      </trkpt>
      <trkpt lat="45.71394" lon="3.34021">
        <ele>381.2</ele>
        <time>2025-09-14T06:30:14Z</time>
      </trkpt>
      <trkpt lat="45.71394" lon="3.34027">
        <ele>381.4</ele>
        <time>2025-09-14T06:30:15Z</time>
      </trkpt>
      <trkpt lat="45.71393" lon="3.34032">
        <ele>381.4</ele>
        <time>2025-09-14T06:30:16Z</time>
      </trkpt>
      <trkpt lat="45.71393" lon="3.34037">
        <ele>381.6</ele>
        <time>2025-09-14T06:30:17Z</time>
      </trkpt>
      <trkpt lat="45.71392" lon="3.34042">
        <ele>381.6</ele>
        <time>2025-09-14T06:30:18Z</time>
      </trkpt>
      <trkpt lat="45.71392" lon="3.34047">
        <ele>381.8</ele>
        <time>2025-09-14T06:30:19Z</time>
      </trkpt>
      <trkpt lat="45.71392" lon="3.34052">
        <ele>382</ele>
        <time>2025-09-14T06:30:20Z</time>
      </trkpt>
      <trkpt lat="45.71392" lon="3.34057">
        <ele>382</ele>
        <time>2025-09-14T06:30:21Z</time>
      </trkpt>
      <trkpt lat="45.71391" lon="3.34062">
        <ele>382</ele>
        <time>2025-09-14T06:30:22Z</time>
      </trkpt>
      <trkpt lat="45.71391" lon="3.34067">
        <ele>382.2</ele>
        <time>2025-09-14T06:30:23Z</time>
      </trkpt>
      <trkpt lat="45.71391" lon="3.34072">
        <ele>382.2</ele>
        <time>2025-09-14T06:30:24Z</time>
      </trkpt>
      <trkpt lat="45.7139" lon="3.34077">
        <ele>382.4</ele>
        <time>2025-09-14T06:30:25Z</time>
      </trkpt>
      <trkpt lat="45.7139" lon="3.34081">
        <ele>382.6</ele>
        <time>2025-09-14T06:30:26Z</time>
      </trkpt>
      <trkpt lat="45.7139" lon="3.34086">
        <ele>382.8</ele>
        <time>2025-09-14T06:30:27Z</time>
      </trkpt>
      <trkpt lat="45.71388" lon="3.3409">
        <ele>383.2</ele>
        <time>2025-09-14T06:30:28Z</time>
      </trkpt>
      <trkpt lat="45.71387" lon="3.34095">
        <ele>383.2</ele>
        <time>2025-09-14T06:30:29Z</time>
      </trkpt>
      <trkpt lat="45.71387" lon="3.34099">
        <ele>383.4</ele>
        <time>2025-09-14T06:30:30Z</time>
      </trkpt>
      <trkpt lat="45.71386" lon="3.34104">
        <ele>383.6</ele>
        <time>2025-09-14T06:30:31Z</time>
      </trkpt>
      <trkpt lat="45.71385" lon="3.34109">
        <ele>384</ele>
        <time>2025-09-14T06:30:32Z</time>
      </trkpt>
      <trkpt lat="45.71385" lon="3.34114">
        <ele>384.2</ele>
        <time>2025-09-14T06:30:33Z</time>
      </trkpt>
      <trkpt lat="45.71384" lon="3.34119">
        <ele>384.4</ele>
        <time>2025-09-14T06:30:34Z</time>
      </trkpt>
      <trkpt lat="45.71383" lon="3.34124">
        <ele>384.8</ele>
        <time>2025-09-14T06:30:35Z</time>
      </trkpt>
      <trkpt lat="45.71382" lon="3.34129">
        <ele>385</ele>
        <time>2025-09-14T06:30:36Z</time>
      </trkpt>
      <trkpt lat="45.71382" lon="3.34134">
        <ele>385.4</ele>
        <time>2025-09-14T06:30:37Z</time>
      </trkpt>
      <trkpt lat="45.71382" lon="3.34138">
        <ele>385.6</ele>
        <time>2025-09-14T06:30:38Z</time>
      </trkpt>
      <trkpt lat="45.71381" lon="3.34143">
        <ele>386</ele>
        <time>2025-09-14T06:30:39Z</time>
      </trkpt>
      <trkpt lat="45.71381" lon="3.34148">
        <ele>386.2</ele>
        <time>2025-09-14T06:30:40Z</time>
      </trkpt>
      <trkpt lat="45.71381" lon="3.34152">
        <ele>386.4</ele>
        <time>2025-09-14T06:30:41Z</time>
      </trkpt>
      <trkpt lat="45.71382" lon="3.34157">
        <ele>386.6</ele>
        <time>2025-09-14T06:30:42Z</time>
      </trkpt>
      <trkpt lat="45.71382" lon="3.34162">
        <ele>386.8</ele>
        <time>2025-09-14T06:30:43Z</time>
      </trkpt>
      <trkpt lat="45.71382" lon="3.34167">
        <ele>387.2</ele>
        <time>2025-09-14T06:30:44Z</time>
      </trkpt>
      <trkpt lat="45.71383" lon="3.34172">
        <ele>387.4</ele>
        <time>2025-09-14T06:30:45Z</time>
      </trkpt>
      <trkpt lat="45.71383" lon="3.34177">
        <ele>387.6</ele>
        <time>2025-09-14T06:30:46Z</time>
      </trkpt>
      <trkpt lat="45.71382" lon="3.34181">
        <ele>387.8</ele>
        <time>2025-09-14T06:30:47Z</time>
      </trkpt>
      <trkpt lat="45.71382" lon="3.34186">
        <ele>388</ele>
        <time>2025-09-14T06:30:48Z</time>
      </trkpt>
      <trkpt lat="45.71382" lon="3.3419">
        <ele>388.2</ele>
        <time>2025-09-14T06:30:49Z</time>
      </trkpt>
      <trkpt lat="45.71381" lon="3.34195">
        <ele>388.4</ele>
        <time>2025-09-14T06:30:50Z</time>
      </trkpt>
      <trkpt lat="45.71381" lon="3.342">
        <ele>388.6</ele>
        <time>2025-09-14T06:30:51Z</time>
      </trkpt>
      <trkpt lat="45.71382" lon="3.34206">
        <ele>388.8</ele>
        <time>2025-09-14T06:30:52Z</time>
      </trkpt>
      <trkpt lat="45.71382" lon="3.34211">
        <ele>388.8</ele>
        <time>2025-09-14T06:30:53Z</time>
      </trkpt>
      <trkpt lat="45.71381" lon="3.34217">
        <ele>388.8</ele>
        <time>2025-09-14T06:30:54Z</time>
      </trkpt>
      <trkpt lat="45.71381" lon="3.34223">
        <ele>388.8</ele>
        <time>2025-09-14T06:30:55Z</time>
      </trkpt>
      <trkpt lat="45.71381" lon="3.3423">
        <ele>388.6</ele>
        <time>2025-09-14T06:30:56Z</time>
      </trkpt>
      <trkpt lat="45.71381" lon="3.34237">
        <ele>388.6</ele>
        <time>2025-09-14T06:30:57Z</time>
      </trkpt>
      <trkpt lat="45.71381" lon="3.34245">
        <ele>388.4</ele>
        <time>2025-09-14T06:30:58Z</time>
      </trkpt>
      <trkpt lat="45.71381" lon="3.34253">
        <ele>388.2</ele>
        <time>2025-09-14T06:30:59Z</time>
      </trkpt>
      <trkpt lat="45.7138" lon="3.3426">
        <ele>388</ele>
        <time>2025-09-14T06:31:00Z</time>
      </trkpt>
      <trkpt lat="45.7138" lon="3.34268">
        <ele>387.8</ele>
        <time>2025-09-14T06:31:01Z</time>
      </trkpt>
      <trkpt lat="45.7138" lon="3.34276">
        <ele>387.6</ele>
        <time>2025-09-14T06:31:02Z</time>
      </trkpt>
      <trkpt lat="45.7138" lon="3.34284">
        <ele>387.4</ele>
        <time>2025-09-14T06:31:03Z</time>
      </trkpt>
      <trkpt lat="45.7138" lon="3.34291">
        <ele>387.2</ele>
        <time>2025-09-14T06:31:04Z</time>
      </trkpt>
      <trkpt lat="45.7138" lon="3.34299">
        <ele>387</ele>
        <time>2025-09-14T06:31:05Z</time>
      </trkpt>
      <trkpt lat="45.71379" lon="3.34306">
        <ele>386.8</ele>
        <time>2025-09-14T06:31:06Z</time>
      </trkpt>
      <trkpt lat="45.71379" lon="3.34314">
        <ele>386.8</ele>
        <time>2025-09-14T06:31:07Z</time>
      </trkpt>
      <trkpt lat="45.71379" lon="3.34321">
        <ele>386.6</ele>
        <time>2025-09-14T06:31:08Z</time>
      </trkpt>
      <trkpt lat="45.71378" lon="3.34328">
        <ele>386.6</ele>
        <time>2025-09-14T06:31:09Z</time>
      </trkpt>
      <trkpt lat="45.71378" lon="3.34335">
        <ele>386.6</ele>
        <time>2025-09-14T06:31:10Z</time>
      </trkpt>
      <trkpt lat="45.71378" lon="3.34342">
        <ele>386.4</ele>
        <time>2025-09-14T06:31:11Z</time>
      </trkpt>
      <trkpt lat="45.71378" lon="3.34348">
        <ele>386.6</ele>
        <time>2025-09-14T06:31:12Z</time>
      </trkpt>
      <trkpt lat="45.71378" lon="3.34354">
        <ele>386.6</ele>
        <time>2025-09-14T06:31:13Z</time>
      </trkpt>
      <trkpt lat="45.71377" lon="3.3436">
        <ele>386.6</ele>
        <time>2025-09-14T06:31:14Z</time>
      </trkpt>
      <trkpt lat="45.71375" lon="3.34365">
        <ele>386.6</ele>
        <time>2025-09-14T06:31:15Z</time>
      </trkpt>
      <trkpt lat="45.71372" lon="3.34369">
        <ele>386.8</ele>
        <time>2025-09-14T06:31:16Z</time>
      </trkpt>
      <trkpt lat="45.71368" lon="3.34372">
        <ele>386.8</ele>
        <time>2025-09-14T06:31:17Z</time>
      </trkpt>
      <trkpt lat="45.71364" lon="3.34374">
        <ele>386.8</ele>
        <time>2025-09-14T06:31:18Z</time>
      </trkpt>
      <trkpt lat="45.71359" lon="3.34375">
        <ele>387</ele>
        <time>2025-09-14T06:31:19Z</time>
      </trkpt>
      <trkpt lat="45.71355" lon="3.34376">
        <ele>387</ele>
        <time>2025-09-14T06:31:20Z</time>
      </trkpt>
      <trkpt lat="45.71351" lon="3.34377">
        <ele>387</ele>
        <time>2025-09-14T06:31:21Z</time>
      </trkpt>
      <trkpt lat="45.71346" lon="3.34379">
        <ele>387</ele>
        <time>2025-09-14T06:31:22Z</time>
      </trkpt>
      <trkpt lat="45.71342" lon="3.3438">
        <ele>387</ele>
        <time>2025-09-14T06:31:23Z</time>
      </trkpt>
      <trkpt lat="45.71338" lon="3.34381">
        <ele>387.2</ele>
        <time>2025-09-14T06:31:24Z</time>
      </trkpt>
      <trkpt lat="45.71334" lon="3.34383">
        <ele>387.2</ele>
        <time>2025-09-14T06:31:25Z</time>
      </trkpt>
      <trkpt lat="45.7133" lon="3.34384">
        <ele>387.2</ele>
        <time>2025-09-14T06:31:26Z</time>
      </trkpt>
      <trkpt lat="45.71325" lon="3.34385">
        <ele>387.2</ele>
        <time>2025-09-14T06:31:27Z</time>
      </trkpt>
      <trkpt lat="45.71321" lon="3.34387">
        <ele>387.4</ele>
        <time>2025-09-14T06:31:28Z</time>
      </trkpt>
      <trkpt lat="45.71317" lon="3.34388">
        <ele>387.6</ele>
        <time>2025-09-14T06:31:29Z</time>
      </trkpt>
      <trkpt lat="45.71313" lon="3.34389">
        <ele>387.6</ele>
        <time>2025-09-14T06:31:30Z</time>
      </trkpt>
      <trkpt lat="45.71309" lon="3.3439">
        <ele>387.8</ele>
        <time>2025-09-14T06:31:31Z</time>
      </trkpt>
      <trkpt lat="45.71305" lon="3.34392">
        <ele>388</ele>
        <time>2025-09-14T06:31:32Z</time>
      </trkpt>
      <trkpt lat="45.71301" lon="3.34393">
        <ele>388.2</ele>
        <time>2025-09-14T06:31:33Z</time>
      </trkpt>
      <trkpt lat="45.71297" lon="3.34394">
        <ele>388.2</ele>
        <time>2025-09-14T06:31:34Z</time>
      </trkpt>
      <trkpt lat="45.71293" lon="3.34396">
        <ele>388.4</ele>
        <time>2025-09-14T06:31:35Z</time>
      </trkpt>
      <trkpt lat="45.71289" lon="3.34397">
        <ele>388.4</ele>
        <time>2025-09-14T06:31:36Z</time>
      </trkpt>
      <trkpt lat="45.71286" lon="3.34398">
        <ele>388.6</ele>
        <time>2025-09-14T06:31:37Z</time>
      </trkpt>
      <trkpt lat="45.71282" lon="3.34399">
        <ele>388.8</ele>
        <time>2025-09-14T06:31:38Z</time>
      </trkpt>
      <trkpt lat="45.71278" lon="3.34401">
        <ele>388.8</ele>
        <time>2025-09-14T06:31:39Z</time>
      </trkpt>
      <trkpt lat="45.71275" lon="3.34402">
        <ele>389</ele>
        <time>2025-09-14T06:31:40Z</time>
      </trkpt>
      <trkpt lat="45.71271" lon="3.34403">
        <ele>389.2</ele>
        <time>2025-09-14T06:31:41Z</time>
      </trkpt>
      <trkpt lat="45.71268" lon="3.34404">
        <ele>389.2</ele>
        <time>2025-09-14T06:31:42Z</time>
      </trkpt>
      <trkpt lat="45.71265" lon="3.34406">
        <ele>389.4</ele>
        <time>2025-09-14T06:31:43Z</time>
      </trkpt>
      <trkpt lat="45.71262" lon="3.34407">
        <ele>389.6</ele>
        <time>2025-09-14T06:31:44Z</time>
      </trkpt>
      <trkpt lat="45.71259" lon="3.34408">
        <ele>389.8</ele>
        <time>2025-09-14T06:31:45Z</time>
      </trkpt>
      <trkpt lat="45.71255" lon="3.34409">
        <ele>390</ele>
        <time>2025-09-14T06:31:46Z</time>
      </trkpt>
      <trkpt lat="45.71252" lon="3.3441">
        <ele>390.2</ele>
        <time>2025-09-14T06:31:47Z</time>
      </trkpt>
      <trkpt lat="45.71249" lon="3.34412">
        <ele>390.2</ele>
        <time>2025-09-14T06:31:48Z</time>
      </trkpt>
      <trkpt lat="45.71246" lon="3.34413">
        <ele>390.4</ele>
        <time>2025-09-14T06:31:49Z</time>
      </trkpt>
      <trkpt lat="45.71244" lon="3.34414">
        <ele>390.6</ele>
        <time>2025-09-14T06:31:50Z</time>
      </trkpt>
      <trkpt lat="45.71241" lon="3.34414">
        <ele>390.8</ele>
        <time>2025-09-14T06:31:51Z</time>
      </trkpt>
      <trkpt lat="45.71239" lon="3.34416">
        <ele>391</ele>
        <time>2025-09-14T06:31:52Z</time>
      </trkpt>
      <trkpt lat="45.71236" lon="3.34417">
        <ele>391.2</ele>
        <time>2025-09-14T06:31:53Z</time>
      </trkpt>
      <trkpt lat="45.71234" lon="3.34418">
        <ele>391.4</ele>
        <time>2025-09-14T06:31:54Z</time>
      </trkpt>
      <trkpt lat="45.71231" lon="3.34419">
        <ele>391.6</ele>
        <time>2025-09-14T06:31:55Z</time>
      </trkpt>
      <trkpt lat="45.71228" lon="3.3442">
        <ele>391.8</ele>
        <time>2025-09-14T06:31:56Z</time>
      </trkpt>
      <trkpt lat="45.71225" lon="3.34421">
        <ele>392</ele>
        <time>2025-09-14T06:31:57Z</time>
      </trkpt>
      <trkpt lat="45.71223" lon="3.34422">
        <ele>392.2</ele>
        <time>2025-09-14T06:31:58Z</time>
      </trkpt>
      <trkpt lat="45.7122" lon="3.34423">
        <ele>392.2</ele>
        <time>2025-09-14T06:31:59Z</time>
      </trkpt>
      <trkpt lat="45.71217" lon="3.34424">
        <ele>392.4</ele>
        <time>2025-09-14T06:32:00Z</time>
      </trkpt>
      <trkpt lat="45.71215" lon="3.34426">
        <ele>392.6</ele>
        <time>2025-09-14T06:32:01Z</time>
      </trkpt>
      <trkpt lat="45.71212" lon="3.34427">
        <ele>392.8</ele>
        <time>2025-09-14T06:32:02Z</time>
      </trkpt>
      <trkpt lat="45.7121" lon="3.34428">
        <ele>393</ele>
        <time>2025-09-14T06:32:03Z</time>
      </trkpt>
      <trkpt lat="45.71208" lon="3.3443">
        <ele>393</ele>
        <time>2025-09-14T06:32:04Z</time>
      </trkpt>
      <trkpt lat="45.71205" lon="3.34431">
        <ele>393.2</ele>
        <time>2025-09-14T06:32:05Z</time>
      </trkpt>
      <trkpt lat="45.71202" lon="3.34432">
        <ele>393.4</ele>
        <time>2025-09-14T06:32:06Z</time>
      </trkpt>
      <trkpt lat="45.712" lon="3.34434">
        <ele>393.6</ele>
        <time>2025-09-14T06:32:07Z</time>
      </trkpt>
      <trkpt lat="45.71197" lon="3.34435">
        <ele>393.8</ele>
        <time>2025-09-14T06:32:08Z</time>
      </trkpt>
      <trkpt lat="45.71194" lon="3.34436">
        <ele>394</ele>
        <time>2025-09-14T06:32:09Z</time>
      </trkpt>
      <trkpt lat="45.71192" lon="3.34438">
        <ele>394.2</ele>
        <time>2025-09-14T06:32:10Z</time>
      </trkpt>
      <trkpt lat="45.71189" lon="3.34439">
        <ele>394.2</ele>
        <time>2025-09-14T06:32:11Z</time>
      </trkpt>
      <trkpt lat="45.71187" lon="3.3444">
        <ele>394.4</ele>
        <time>2025-09-14T06:32:12Z</time>
      </trkpt>
      <trkpt lat="45.71184" lon="3.34441">
        <ele>394.6</ele>
        <time>2025-09-14T06:32:13Z</time>
      </trkpt>
      <trkpt lat="45.71182" lon="3.34442">
        <ele>394.8</ele>
        <time>2025-09-14T06:32:14Z</time>
      </trkpt>
      <trkpt lat="45.71179" lon="3.34444">
        <ele>395</ele>
        <time>2025-09-14T06:32:15Z</time>
      </trkpt>
      <trkpt lat="45.71177" lon="3.34445">
        <ele>395.2</ele>
        <time>2025-09-14T06:32:16Z</time>
      </trkpt>
      <trkpt lat="45.71174" lon="3.34447">
        <ele>395.4</ele>
        <time>2025-09-14T06:32:17Z</time>
      </trkpt>
      <trkpt lat="45.71172" lon="3.34448">
        <ele>395.6</ele>
        <time>2025-09-14T06:32:18Z</time>
      </trkpt>
      <trkpt lat="45.71169" lon="3.3445">
        <ele>395.6</ele>
        <time>2025-09-14T06:32:19Z</time>
      </trkpt>
      <trkpt lat="45.71167" lon="3.34451">
        <ele>395.8</ele>
        <time>2025-09-14T06:32:20Z</time>
      </trkpt>
      <trkpt lat="45.71164" lon="3.34453">
        <ele>396</ele>
        <time>2025-09-14T06:32:21Z</time>
      </trkpt>
      <trkpt lat="45.71162" lon="3.34455">
        <ele>396.2</ele>
        <time>2025-09-14T06:32:22Z</time>
      </trkpt>
      <trkpt lat="45.71159" lon="3.34456">
        <ele>396.2</ele>
        <time>2025-09-14T06:32:23Z</time>
      </trkpt>
      <trkpt lat="45.71156" lon="3.34458">
        <ele>396.4</ele>
        <time>2025-09-14T06:32:24Z</time>
      </trkpt>
      <trkpt lat="45.71153" lon="3.34459">
        <ele>396.6</ele>
        <time>2025-09-14T06:32:25Z</time>
      </trkpt>
      <trkpt lat="45.71151" lon="3.34461">
        <ele>396.8</ele>
        <time>2025-09-14T06:32:26Z</time>
      </trkpt>
      <trkpt lat="45.71148" lon="3.34462">
        <ele>397</ele>
        <time>2025-09-14T06:32:27Z</time>
      </trkpt>
      <trkpt lat="45.71145" lon="3.34464">
        <ele>397</ele>
        <time>2025-09-14T06:32:28Z</time>
      </trkpt>
      <trkpt lat="45.71142" lon="3.34466">
        <ele>397.2</ele>
        <time>2025-09-14T06:32:29Z</time>
      </trkpt>
      <trkpt lat="45.7114" lon="3.34467">
        <ele>397.6</ele>
        <time>2025-09-14T06:32:30Z</time>
      </trkpt>
      <trkpt lat="45.71137" lon="3.34469">
        <ele>397.6</ele>
        <time>2025-09-14T06:32:31Z</time>
      </trkpt>
      <trkpt lat="45.71135" lon="3.3447">
        <ele>397.6</ele>
        <time>2025-09-14T06:32:32Z</time>
      </trkpt>
      <trkpt lat="45.71132" lon="3.34472">
        <ele>397.8</ele>
        <time>2025-09-14T06:32:33Z</time>
      </trkpt>
      <trkpt lat="45.7113" lon="3.34473">
        <ele>397.8</ele>
        <time>2025-09-14T06:32:34Z</time>
      </trkpt>
      <trkpt lat="45.71127" lon="3.34474">
        <ele>398</ele>
        <time>2025-09-14T06:32:35Z</time>
      </trkpt>
      <trkpt lat="45.71124" lon="3.34475">
        <ele>398.2</ele>
        <time>2025-09-14T06:32:36Z</time>
      </trkpt>
      <trkpt lat="45.71121" lon="3.34476">
        <ele>398.4</ele>
        <time>2025-09-14T06:32:37Z</time>
      </trkpt>
      <trkpt lat="45.71119" lon="3.34477">
        <ele>398.6</ele>
        <time>2025-09-14T06:32:38Z</time>
      </trkpt>
      <trkpt lat="45.71116" lon="3.34477">
        <ele>398.6</ele>
        <time>2025-09-14T06:32:39Z</time>
      </trkpt>
      <trkpt lat="45.71113" lon="3.34478">
        <ele>398.8</ele>
        <time>2025-09-14T06:32:40Z</time>
      </trkpt>
      <trkpt lat="45.71111" lon="3.34479">
        <ele>398.8</ele>
        <time>2025-09-14T06:32:41Z</time>
      </trkpt>
      <trkpt lat="45.71107" lon="3.34479">
        <ele>398.8</ele>
        <time>2025-09-14T06:32:42Z</time>
      </trkpt>
      <trkpt lat="45.71105" lon="3.34479">
        <ele>399</ele>
        <time>2025-09-14T06:32:43Z</time>
      </trkpt>
      <trkpt lat="45.71102" lon="3.3448">
        <ele>399.2</ele>
        <time>2025-09-14T06:32:44Z</time>
      </trkpt>
      <trkpt lat="45.71099" lon="3.3448">
        <ele>399.4</ele>
        <time>2025-09-14T06:32:45Z</time>
      </trkpt>
      <trkpt lat="45.71097" lon="3.3448">
        <ele>399.4</ele>
        <time>2025-09-14T06:32:46Z</time>
      </trkpt>
      <trkpt lat="45.71094" lon="3.3448">
        <ele>399.6</ele>
        <time>2025-09-14T06:32:47Z</time>
      </trkpt>
      <trkpt lat="45.71092" lon="3.34481">
        <ele>399.6</ele>
        <time>2025-09-14T06:32:48Z</time>
      </trkpt>
      <trkpt lat="45.7109" lon="3.34483">
        <ele>399.8</ele>
        <time>2025-09-14T06:32:49Z</time>
      </trkpt>
      <trkpt lat="45.71089" lon="3.34486">
        <ele>400</ele>
        <time>2025-09-14T06:32:50Z</time>
      </trkpt>
      <trkpt lat="45.71088" lon="3.34489">
        <ele>400.2</ele>
        <time>2025-09-14T06:32:51Z</time>
      </trkpt>
      <trkpt lat="45.71088" lon="3.34492">
        <ele>400.2</ele>
        <time>2025-09-14T06:32:52Z</time>
      </trkpt>
      <trkpt lat="45.71088" lon="3.34496">
        <ele>400.2</ele>
        <time>2025-09-14T06:32:53Z</time>
      </trkpt>
      <trkpt lat="45.71089" lon="3.345">
        <ele>400.2</ele>
        <time>2025-09-14T06:32:54Z</time>
      </trkpt>
      <trkpt lat="45.7109" lon="3.34504">
        <ele>400.4</ele>
        <time>2025-09-14T06:32:55Z</time>
      </trkpt>
      <trkpt lat="45.7109" lon="3.34508">
        <ele>400.4</ele>
        <time>2025-09-14T06:32:56Z</time>
      </trkpt>
      <trkpt lat="45.71091" lon="3.34512">
        <ele>400.6</ele>
        <time>2025-09-14T06:32:57Z</time>
      </trkpt>
      <trkpt lat="45.71092" lon="3.34517">
        <ele>400.8</ele>
        <time>2025-09-14T06:32:58Z</time>
      </trkpt>
      <trkpt lat="45.71092" lon="3.34521">
        <ele>400.8</ele>
        <time>2025-09-14T06:32:59Z</time>
      </trkpt>
      <trkpt lat="45.71093" lon="3.34525">
        <ele>401</ele>
        <time>2025-09-14T06:33:00Z</time>
      </trkpt>
      <trkpt lat="45.71093" lon="3.34529">
        <ele>401.2</ele>
        <time>2025-09-14T06:33:01Z</time>
      </trkpt>
      <trkpt lat="45.71094" lon="3.34533">
        <ele>401.4</ele>
        <time>2025-09-14T06:33:02Z</time>
      </trkpt>
      <trkpt lat="45.71095" lon="3.34537">
        <ele>401.8</ele>
        <time>2025-09-14T06:33:03Z</time>
      </trkpt>
      <trkpt lat="45.71095" lon="3.34541">
        <ele>402</ele>
        <time>2025-09-14T06:33:04Z</time>
      </trkpt>
      <trkpt lat="45.71096" lon="3.34545">
        <ele>402.2</ele>
        <time>2025-09-14T06:33:05Z</time>
      </trkpt>
      <trkpt lat="45.71096" lon="3.34549">
        <ele>402.4</ele>
        <time>2025-09-14T06:33:06Z</time>
      </trkpt>
      <trkpt lat="45.71097" lon="3.34553">
        <ele>402.6</ele>
        <time>2025-09-14T06:33:07Z</time>
      </trkpt>
      <trkpt lat="45.71098" lon="3.34556">
        <ele>402.6</ele>
        <time>2025-09-14T06:33:08Z</time>
      </trkpt>
      <trkpt lat="45.71098" lon="3.3456">
        <ele>402.8</ele>
        <time>2025-09-14T06:33:09Z</time>
      </trkpt>
      <trkpt lat="45.71099" lon="3.34564">
        <ele>403</ele>
        <time>2025-09-14T06:33:10Z</time>
      </trkpt>
      <trkpt lat="45.71099" lon="3.34567">
        <ele>403</ele>
        <time>2025-09-14T06:33:11Z</time>
      </trkpt>
      <trkpt lat="45.711" lon="3.34571">
        <ele>403.2</ele>
        <time>2025-09-14T06:33:12Z</time>
      </trkpt>
      <trkpt lat="45.71101" lon="3.34574">
        <ele>403.4</ele>
        <time>2025-09-14T06:33:13Z</time>
      </trkpt>
      <trkpt lat="45.71101" lon="3.34578">
        <ele>403.6</ele>
        <time>2025-09-14T06:33:14Z</time>
      </trkpt>
      <trkpt lat="45.71102" lon="3.34582">
        <ele>403.6</ele>
        <time>2025-09-14T06:33:15Z</time>
      </trkpt>
      <trkpt lat="45.71103" lon="3.34586">
        <ele>403.8</ele>
        <time>2025-09-14T06:33:16Z</time>
      </trkpt>
      <trkpt lat="45.71103" lon="3.34589">
        <ele>403.8</ele>
        <time>2025-09-14T06:33:17Z</time>
      </trkpt>
      <trkpt lat="45.71104" lon="3.34593">
        <ele>404</ele>
        <time>2025-09-14T06:33:18Z</time>
      </trkpt>
      <trkpt lat="45.71104" lon="3.34596">
        <ele>404.2</ele>
        <time>2025-09-14T06:33:19Z</time>
      </trkpt>
      <trkpt lat="45.71104" lon="3.346">
        <ele>404.2</ele>
        <time>2025-09-14T06:33:20Z</time>
      </trkpt>
      <trkpt lat="45.71105" lon="3.34604">
        <ele>404.4</ele>
        <time>2025-09-14T06:33:21Z</time>
      </trkpt>
      <trkpt lat="45.71106" lon="3.34607">
        <ele>404.6</ele>
        <time>2025-09-14T06:33:22Z</time>
      </trkpt>
      <trkpt lat="45.71106" lon="3.34611">
        <ele>404.6</ele>
        <time>2025-09-14T06:33:23Z</time>
      </trkpt>
      <trkpt lat="45.71106" lon="3.34614">
        <ele>404.8</ele>
        <time>2025-09-14T06:33:24Z</time>
      </trkpt>
      <trkpt lat="45.71107" lon="3.34617">
        <ele>404.8</ele>
        <time>2025-09-14T06:33:25Z</time>
      </trkpt>
      <trkpt lat="45.71107" lon="3.34621">
        <ele>405</ele>
        <time>2025-09-14T06:33:26Z</time>
      </trkpt>
      <trkpt lat="45.71108" lon="3.34625">
        <ele>405</ele>
        <time>2025-09-14T06:33:27Z</time>
      </trkpt>
      <trkpt lat="45.71109" lon="3.34628">
        <ele>405.2</ele>
        <time>2025-09-14T06:33:28Z</time>
      </trkpt>
      <trkpt lat="45.71109" lon="3.34632">
        <ele>405.2</ele>
        <time>2025-09-14T06:33:29Z</time>
      </trkpt>
      <trkpt lat="45.7111" lon="3.34636">
        <ele>405.4</ele>
        <time>2025-09-14T06:33:30Z</time>
      </trkpt>
      <trkpt lat="45.7111" lon="3.3464">
        <ele>405.4</ele>
        <time>2025-09-14T06:33:31Z</time>
      </trkpt>
      <trkpt lat="45.71111" lon="3.34644">
        <ele>405.6</ele>
        <time>2025-09-14T06:33:32Z</time>
      </trkpt>
      <trkpt lat="45.71112" lon="3.34648">
        <ele>405.8</ele>
        <time>2025-09-14T06:33:33Z</time>
      </trkpt>
      <trkpt lat="45.71112" lon="3.34651">
        <ele>405.8</ele>
        <time>2025-09-14T06:33:34Z</time>
      </trkpt>
      <trkpt lat="45.71112" lon="3.34655">
        <ele>406</ele>
        <time>2025-09-14T06:33:35Z</time>
      </trkpt>
      <trkpt lat="45.71113" lon="3.34659">
        <ele>406</ele>
        <time>2025-09-14T06:33:36Z</time>
      </trkpt>
      <trkpt lat="45.71114" lon="3.34662">
        <ele>406.2</ele>
        <time>2025-09-14T06:33:37Z</time>
      </trkpt>
      <trkpt lat="45.71114" lon="3.34666">
        <ele>406.4</ele>
        <time>2025-09-14T06:33:38Z</time>
      </trkpt>
      <trkpt lat="45.71115" lon="3.34669">
        <ele>406.6</ele>
        <time>2025-09-14T06:33:39Z</time>
      </trkpt>
      <trkpt lat="45.71116" lon="3.34672">
        <ele>406.8</ele>
        <time>2025-09-14T06:33:40Z</time>
      </trkpt>
      <trkpt lat="45.71116" lon="3.34676">
        <ele>407</ele>
        <time>2025-09-14T06:33:41Z</time>
      </trkpt>
      <trkpt lat="45.71117" lon="3.34679">
        <ele>407.2</ele>
        <time>2025-09-14T06:33:42Z</time>
      </trkpt>
      <trkpt lat="45.71118" lon="3.34683">
        <ele>407.2</ele>
        <time>2025-09-14T06:33:43Z</time>
      </trkpt>
      <trkpt lat="45.71118" lon="3.34687">
        <ele>407.4</ele>
        <time>2025-09-14T06:33:44Z</time>
      </trkpt>
      <trkpt lat="45.71119" lon="3.34691">
        <ele>407.4</ele>
        <time>2025-09-14T06:33:45Z</time>
      </trkpt>
      <trkpt lat="45.71119" lon="3.34694">
        <ele>407.6</ele>
        <time>2025-09-14T06:33:46Z</time>
      </trkpt>
      <trkpt lat="45.7112" lon="3.34698">
        <ele>407.8</ele>
        <time>2025-09-14T06:33:47Z</time>
      </trkpt>
      <trkpt lat="45.7112" lon="3.34702">
        <ele>407.8</ele>
        <time>2025-09-14T06:33:48Z</time>
      </trkpt>
      <trkpt lat="45.71121" lon="3.34706">
        <ele>408</ele>
        <time>2025-09-14T06:33:49Z</time>
      </trkpt>
      <trkpt lat="45.71121" lon="3.3471">
        <ele>408.2</ele>
        <time>2025-09-14T06:33:50Z</time>
      </trkpt>
      <trkpt lat="45.71121" lon="3.34714">
        <ele>408.4</ele>
        <time>2025-09-14T06:33:51Z</time>
      </trkpt>
      <trkpt lat="45.71121" lon="3.34717">
        <ele>408.6</ele>
        <time>2025-09-14T06:33:52Z</time>
      </trkpt>
      <trkpt lat="45.71121" lon="3.3472">
        <ele>408.8</ele>
        <time>2025-09-14T06:33:53Z</time>
      </trkpt>
      <trkpt lat="45.71122" lon="3.34724">
        <ele>409</ele>
        <time>2025-09-14T06:33:54Z</time>
      </trkpt>
      <trkpt lat="45.71122" lon="3.34728">
        <ele>409.2</ele>
        <time>2025-09-14T06:33:55Z</time>
      </trkpt>
      <trkpt lat="45.71122" lon="3.34731">
        <ele>409.2</ele>
        <time>2025-09-14T06:33:56Z</time>
      </trkpt>
      <trkpt lat="45.71122" lon="3.34734">
        <ele>409.4</ele>
        <time>2025-09-14T06:33:57Z</time>
      </trkpt>
      <trkpt lat="45.71123" lon="3.34738">
        <ele>409.6</ele>
        <time>2025-09-14T06:33:58Z</time>
      </trkpt>
      <trkpt lat="45.71123" lon="3.34742">
        <ele>409.6</ele>
        <time>2025-09-14T06:33:59Z</time>
      </trkpt>
      <trkpt lat="45.71123" lon="3.34745">
        <ele>409.8</ele>
        <time>2025-09-14T06:34:00Z</time>
      </trkpt>
      <trkpt lat="45.71123" lon="3.34748">
        <ele>409.8</ele>
        <time>2025-09-14T06:34:01Z</time>
      </trkpt>
      <trkpt lat="45.71123" lon="3.34752">
        <ele>410</ele>
        <time>2025-09-14T06:34:02Z</time>
      </trkpt>
      <trkpt lat="45.71124" lon="3.34755">
        <ele>410</ele>
        <time>2025-09-14T06:34:03Z</time>
      </trkpt>
      <trkpt lat="45.71124" lon="3.34759">
        <ele>410.2</ele>
        <time>2025-09-14T06:34:04Z</time>
      </trkpt>
      <trkpt lat="45.71124" lon="3.34762">
        <ele>410.4</ele>
        <time>2025-09-14T06:34:05Z</time>
      </trkpt>
      <trkpt lat="45.71124" lon="3.34766">
        <ele>410.4</ele>
        <time>2025-09-14T06:34:06Z</time>
      </trkpt>
      <trkpt lat="45.71125" lon="3.34769">
        <ele>410.6</ele>
        <time>2025-09-14T06:34:07Z</time>
      </trkpt>
      <trkpt lat="45.71125" lon="3.34773">
        <ele>410.6</ele>
        <time>2025-09-14T06:34:08Z</time>
      </trkpt>
      <trkpt lat="45.71126" lon="3.34777">
        <ele>410.8</ele>
        <time>2025-09-14T06:34:09Z</time>
      </trkpt>
      <trkpt lat="45.71126" lon="3.34781">
        <ele>410.8</ele>
        <time>2025-09-14T06:34:10Z</time>
      </trkpt>
      <trkpt lat="45.71126" lon="3.34784">
        <ele>411</ele>
        <time>2025-09-14T06:34:11Z</time>
      </trkpt>
      <trkpt lat="45.71126" lon="3.34788">
        <ele>411.2</ele>
        <time>2025-09-14T06:34:12Z</time>
      </trkpt>
      <trkpt lat="45.71126" lon="3.34792">
        <ele>411.2</ele>
        <time>2025-09-14T06:34:13Z</time>
      </trkpt>
      <trkpt lat="45.71127" lon="3.34795">
        <ele>411.4</ele>
        <time>2025-09-14T06:34:14Z</time>
      </trkpt>
      <trkpt lat="45.71127" lon="3.34799">
        <ele>411.4</ele>
        <time>2025-09-14T06:34:15Z</time>
      </trkpt>
      <trkpt lat="45.71127" lon="3.34803">
        <ele>411.4</ele>
        <time>2025-09-14T06:34:16Z</time>
      </trkpt>
      <trkpt lat="45.71128" lon="3.34807">
        <ele>411.6</ele>
        <time>2025-09-14T06:34:17Z</time>
      </trkpt>
      <trkpt lat="45.71128" lon="3.34811">
        <ele>411.6</ele>
        <time>2025-09-14T06:34:18Z</time>
      </trkpt>
      <trkpt lat="45.71128" lon="3.34815">
        <ele>411.6</ele>
        <time>2025-09-14T06:34:19Z</time>
      </trkpt>
      <trkpt lat="45.71128" lon="3.34819">
        <ele>411.8</ele>
        <time>2025-09-14T06:34:20Z</time>
      </trkpt>
      <trkpt lat="45.71128" lon="3.34823">
        <ele>411.8</ele>
        <time>2025-09-14T06:34:21Z</time>
      </trkpt>
      <trkpt lat="45.71128" lon="3.34827">
        <ele>412</ele>
        <time>2025-09-14T06:34:22Z</time>
      </trkpt>
      <trkpt lat="45.71129" lon="3.3483">
        <ele>412</ele>
        <time>2025-09-14T06:34:23Z</time>
      </trkpt>
      <trkpt lat="45.71129" lon="3.34834">
        <ele>412</ele>
        <time>2025-09-14T06:34:24Z</time>
      </trkpt>
      <trkpt lat="45.71129" lon="3.34838">
        <ele>412</ele>
        <time>2025-09-14T06:34:25Z</time>
      </trkpt>
      <trkpt lat="45.71129" lon="3.34842">
        <ele>412</ele>
        <time>2025-09-14T06:34:26Z</time>
      </trkpt>
      <trkpt lat="45.71129" lon="3.34846">
        <ele>412</ele>
        <time>2025-09-14T06:34:27Z</time>
      </trkpt>
      <trkpt lat="45.71129" lon="3.3485">
        <ele>412</ele>
        <time>2025-09-14T06:34:28Z</time>
      </trkpt>
      <trkpt lat="45.7113" lon="3.34855">
        <ele>412</ele>
        <time>2025-09-14T06:34:29Z</time>
      </trkpt>
      <trkpt lat="45.7113" lon="3.34859">
        <ele>411.8</ele>
        <time>2025-09-14T06:34:30Z</time>
      </trkpt>
      <trkpt lat="45.7113" lon="3.34864">
        <ele>411.8</ele>
        <time>2025-09-14T06:34:31Z</time>
      </trkpt>
      <trkpt lat="45.7113" lon="3.34868">
        <ele>411.8</ele>
        <time>2025-09-14T06:34:32Z</time>
      </trkpt>
      <trkpt lat="45.7113" lon="3.34873">
        <ele>411.8</ele>
        <time>2025-09-14T06:34:33Z</time>
      </trkpt>
      <trkpt lat="45.7113" lon="3.34877">
        <ele>411.8</ele>
        <time>2025-09-14T06:34:34Z</time>
      </trkpt>
      <trkpt lat="45.71129" lon="3.34882">
        <ele>411.8</ele>
        <time>2025-09-14T06:34:35Z</time>
      </trkpt>
      <trkpt lat="45.71127" lon="3.34886">
        <ele>411.8</ele>
        <time>2025-09-14T06:34:36Z</time>
      </trkpt>
      <trkpt lat="45.71125" lon="3.34889">
        <ele>411.8</ele>
        <time>2025-09-14T06:34:37Z</time>
      </trkpt>
      <trkpt lat="45.71123" lon="3.34893">
        <ele>412</ele>
        <time>2025-09-14T06:34:38Z</time>
      </trkpt>
      <trkpt lat="45.71121" lon="3.34896">
        <ele>412</ele>
        <time>2025-09-14T06:34:39Z</time>
      </trkpt>
      <trkpt lat="45.71119" lon="3.34899">
        <ele>412</ele>
        <time>2025-09-14T06:34:40Z</time>
      </trkpt>
      <trkpt lat="45.71117" lon="3.34902">
        <ele>412.2</ele>
        <time>2025-09-14T06:34:41Z</time>
      </trkpt>
      <trkpt lat="45.71115" lon="3.34905">
        <ele>412.2</ele>
        <time>2025-09-14T06:34:42Z</time>
      </trkpt>
      <trkpt lat="45.71113" lon="3.34908">
        <ele>412.4</ele>
        <time>2025-09-14T06:34:43Z</time>
      </trkpt>
      <trkpt lat="45.71111" lon="3.3491">
        <ele>412.6</ele>
        <time>2025-09-14T06:34:44Z</time>
      </trkpt>
      <trkpt lat="45.7111" lon="3.34913">
        <ele>412.6</ele>
        <time>2025-09-14T06:34:45Z</time>
      </trkpt>
      <trkpt lat="45.71108" lon="3.34916">
        <ele>412.8</ele>
        <time>2025-09-14T06:34:46Z</time>
      </trkpt>
      <trkpt lat="45.71106" lon="3.34919">
        <ele>413</ele>
        <time>2025-09-14T06:34:47Z</time>
      </trkpt>
      <trkpt lat="45.71104" lon="3.34922">
        <ele>413</ele>
        <time>2025-09-14T06:34:48Z</time>
      </trkpt>
      <trkpt lat="45.71102" lon="3.34925">
        <ele>413.2</ele>
        <time>2025-09-14T06:34:49Z</time>
      </trkpt>
      <trkpt lat="45.71101" lon="3.34929">
        <ele>413.2</ele>
        <time>2025-09-14T06:34:50Z</time>
      </trkpt>
      <trkpt lat="45.711" lon="3.34933">
        <ele>413.4</ele>
        <time>2025-09-14T06:34:51Z</time>
      </trkpt>
      <trkpt lat="45.71098" lon="3.34936">
        <ele>413.6</ele>
        <time>2025-09-14T06:34:52Z</time>
      </trkpt>
      <trkpt lat="45.71096" lon="3.34939">
        <ele>413.8</ele>
        <time>2025-09-14T06:34:53Z</time>
      </trkpt>
      <trkpt lat="45.71094" lon="3.34942">
        <ele>413.8</ele>
        <time>2025-09-14T06:34:54Z</time>
      </trkpt>
      <trkpt lat="45.71093" lon="3.34945">
        <ele>414</ele>
        <time>2025-09-14T06:34:55Z</time>
      </trkpt>
      <trkpt lat="45.71092" lon="3.34949">
        <ele>414.2</ele>
        <time>2025-09-14T06:34:56Z</time>
      </trkpt>
      <trkpt lat="45.7109" lon="3.34952">
        <ele>414.2</ele>
        <time>2025-09-14T06:34:57Z</time>
      </trkpt>
      <trkpt lat="45.71089" lon="3.34955">
        <ele>414.4</ele>
        <time>2025-09-14T06:34:58Z</time>
      </trkpt>
      <trkpt lat="45.71087" lon="3.34959">
        <ele>414.6</ele>
        <time>2025-09-14T06:34:59Z</time>
      </trkpt>
      <trkpt lat="45.71086" lon="3.34962">
        <ele>414.8</ele>
        <time>2025-09-14T06:35:00Z</time>
      </trkpt>
      <trkpt lat="45.71085" lon="3.34965">
        <ele>414.8</ele>
        <time>2025-09-14T06:35:01Z</time>
      </trkpt>
      <trkpt lat="45.71084" lon="3.34969">
        <ele>415</ele>
        <time>2025-09-14T06:35:02Z</time>
      </trkpt>
      <trkpt lat="45.71083" lon="3.34972">
        <ele>415.2</ele>
        <time>2025-09-14T06:35:03Z</time>
      </trkpt>
      <trkpt lat="45.71082" lon="3.34976">
        <ele>415.4</ele>
        <time>2025-09-14T06:35:04Z</time>
      </trkpt>
      <trkpt lat="45.71081" lon="3.3498">
        <ele>415.4</ele>
        <time>2025-09-14T06:35:05Z</time>
      </trkpt>
      <trkpt lat="45.7108" lon="3.34983">
        <ele>415.6</ele>
        <time>2025-09-14T06:35:06Z</time>
      </trkpt>
      <trkpt lat="45.7108" lon="3.34987">
        <ele>415.8</ele>
        <time>2025-09-14T06:35:07Z</time>
      </trkpt>
      <trkpt lat="45.71079" lon="3.34991">
        <ele>415.8</ele>
        <time>2025-09-14T06:35:08Z</time>
      </trkpt>
      <trkpt lat="45.71078" lon="3.34994">
        <ele>416</ele>
        <time>2025-09-14T06:35:09Z</time>
      </trkpt>
      <trkpt lat="45.71077" lon="3.34998">
        <ele>416.2</ele>
        <time>2025-09-14T06:35:10Z</time>
      </trkpt>
      <trkpt lat="45.71076" lon="3.35001">
        <ele>416.4</ele>
        <time>2025-09-14T06:35:11Z</time>
      </trkpt>
      <trkpt lat="45.71075" lon="3.35005">
        <ele>416.6</ele>
        <time>2025-09-14T06:35:12Z</time>
      </trkpt>
      <trkpt lat="45.71075" lon="3.35009">
        <ele>416.6</ele>
        <time>2025-09-14T06:35:13Z</time>
      </trkpt>
      <trkpt lat="45.71074" lon="3.35013">
        <ele>416.8</ele>
        <time>2025-09-14T06:35:14Z</time>
      </trkpt>
      <trkpt lat="45.71073" lon="3.35017">
        <ele>417</ele>
        <time>2025-09-14T06:35:15Z</time>
      </trkpt>
      <trkpt lat="45.71073" lon="3.3502">
        <ele>417.2</ele>
        <time>2025-09-14T06:35:16Z</time>
      </trkpt>
      <trkpt lat="45.71072" lon="3.35024">
        <ele>417.2</ele>
        <time>2025-09-14T06:35:17Z</time>
      </trkpt>
      <trkpt lat="45.71071" lon="3.35028">
        <ele>417.4</ele>
        <time>2025-09-14T06:35:18Z</time>
      </trkpt>
      <trkpt lat="45.71071" lon="3.35032">
        <ele>417.4</ele>
        <time>2025-09-14T06:35:19Z</time>
      </trkpt>
      <trkpt lat="45.7107" lon="3.35036">
        <ele>417.6</ele>
        <time>2025-09-14T06:35:20Z</time>
      </trkpt>
      <trkpt lat="45.71069" lon="3.3504">
        <ele>417.6</ele>
        <time>2025-09-14T06:35:21Z</time>
      </trkpt>
      <trkpt lat="45.71069" lon="3.35043">
        <ele>417.8</ele>
        <time>2025-09-14T06:35:22Z</time>
      </trkpt>
      <trkpt lat="45.71068" lon="3.35047">
        <ele>418</ele>
        <time>2025-09-14T06:35:23Z</time>
      </trkpt>
      <trkpt lat="45.71067" lon="3.35051">
        <ele>418.2</ele>
        <time>2025-09-14T06:35:24Z</time>
      </trkpt>
      <trkpt lat="45.71067" lon="3.35055">
        <ele>418.4</ele>
        <time>2025-09-14T06:35:25Z</time>
      </trkpt>
      <trkpt lat="45.71066" lon="3.35059">
        <ele>418.4</ele>
        <time>2025-09-14T06:35:26Z</time>
      </trkpt>
      <trkpt lat="45.71065" lon="3.35063">
        <ele>418.6</ele>
        <time>2025-09-14T06:35:27Z</time>
      </trkpt>
      <trkpt lat="45.71064" lon="3.35066">
        <ele>418.8</ele>
        <time>2025-09-14T06:35:28Z</time>
      </trkpt>
      <trkpt lat="45.71064" lon="3.3507">
        <ele>419</ele>
        <time>2025-09-14T06:35:29Z</time>
      </trkpt>
      <trkpt lat="45.71063" lon="3.35074">
        <ele>419.2</ele>
        <time>2025-09-14T06:35:30Z</time>
      </trkpt>
      <trkpt lat="45.71062" lon="3.35078">
        <ele>419.4</ele>
        <time>2025-09-14T06:35:31Z</time>
      </trkpt>
      <trkpt lat="45.71061" lon="3.35082">
        <ele>419.6</ele>
        <time>2025-09-14T06:35:32Z</time>
      </trkpt>
      <trkpt lat="45.71061" lon="3.35085">
        <ele>419.6</ele>
        <time>2025-09-14T06:35:33Z</time>
      </trkpt>
      <trkpt lat="45.7106" lon="3.35089">
        <ele>419.6</ele>
        <time>2025-09-14T06:35:34Z</time>
      </trkpt>
      <trkpt lat="45.71059" lon="3.35093">
        <ele>419.8</ele>
        <time>2025-09-14T06:35:35Z</time>
      </trkpt>
      <trkpt lat="45.71059" lon="3.35098">
        <ele>420</ele>
        <time>2025-09-14T06:35:36Z</time>
      </trkpt>
      <trkpt lat="45.71058" lon="3.35101">
        <ele>420</ele>
        <time>2025-09-14T06:35:37Z</time>
      </trkpt>
      <trkpt lat="45.71057" lon="3.35105">
        <ele>420.2</ele>
        <time>2025-09-14T06:35:38Z</time>
      </trkpt>
      <trkpt lat="45.71057" lon="3.35109">
        <ele>420.2</ele>
        <time>2025-09-14T06:35:39Z</time>
      </trkpt>
      <trkpt lat="45.71056" lon="3.35112">
        <ele>420.4</ele>
        <time>2025-09-14T06:35:40Z</time>
      </trkpt>
      <trkpt lat="45.71055" lon="3.35115">
        <ele>420.4</ele>
        <time>2025-09-14T06:35:41Z</time>
      </trkpt>
      <trkpt lat="45.71054" lon="3.35119">
        <ele>420.6</ele>
        <time>2025-09-14T06:35:42Z</time>
      </trkpt>
      <trkpt lat="45.71053" lon="3.35122">
        <ele>420.8</ele>
        <time>2025-09-14T06:35:43Z</time>
      </trkpt>
      <trkpt lat="45.71052" lon="3.35126">
        <ele>420.8</ele>
        <time>2025-09-14T06:35:44Z</time>
      </trkpt>
      <trkpt lat="45.71052" lon="3.3513">
        <ele>421</ele>
        <time>2025-09-14T06:35:45Z</time>
      </trkpt>
      <trkpt lat="45.71052" lon="3.35135">
        <ele>421.2</ele>
        <time>2025-09-14T06:35:46Z</time>
      </trkpt>
      <trkpt lat="45.71051" lon="3.35139">
        <ele>421.2</ele>
        <time>2025-09-14T06:35:47Z</time>
      </trkpt>
      <trkpt lat="45.7105" lon="3.35142">
        <ele>421.4</ele>
        <time>2025-09-14T06:35:48Z</time>
      </trkpt>
      <trkpt lat="45.71049" lon="3.35146">
        <ele>421.4</ele>
        <time>2025-09-14T06:35:49Z</time>
      </trkpt>
      <trkpt lat="45.71048" lon="3.35149">
        <ele>421.6</ele>
        <time>2025-09-14T06:35:50Z</time>
      </trkpt>
      <trkpt lat="45.71047" lon="3.35153">
        <ele>421.8</ele>
        <time>2025-09-14T06:35:51Z</time>
      </trkpt>
      <trkpt lat="45.71046" lon="3.35157">
        <ele>421.8</ele>
        <time>2025-09-14T06:35:52Z</time>
      </trkpt>
      <trkpt lat="45.71045" lon="3.35161">
        <ele>422</ele>
        <time>2025-09-14T06:35:53Z</time>
      </trkpt>
      <trkpt lat="45.71043" lon="3.35164">
        <ele>422</ele>
        <time>2025-09-14T06:35:54Z</time>
      </trkpt>
      <trkpt lat="45.71042" lon="3.35167">
        <ele>422.2</ele>
        <time>2025-09-14T06:35:55Z</time>
      </trkpt>
      <trkpt lat="45.7104" lon="3.35171">
        <ele>422.4</ele>
        <time>2025-09-14T06:35:56Z</time>
      </trkpt>
      <trkpt lat="45.71038" lon="3.35173">
        <ele>422.6</ele>
        <time>2025-09-14T06:35:57Z</time>
      </trkpt>
      <trkpt lat="45.71036" lon="3.35176">
        <ele>422.8</ele>
        <time>2025-09-14T06:35:58Z</time>
      </trkpt>
      <trkpt lat="45.71034" lon="3.35179">
        <ele>423</ele>
        <time>2025-09-14T06:35:59Z</time>
      </trkpt>
      <trkpt lat="45.71033" lon="3.35182">
        <ele>423.2</ele>
        <time>2025-09-14T06:36:00Z</time>
      </trkpt>
      <trkpt lat="45.71031" lon="3.35185">
        <ele>423.4</ele>
        <time>2025-09-14T06:36:01Z</time>
      </trkpt>
      <trkpt lat="45.71029" lon="3.35188">
        <ele>423.8</ele>
        <time>2025-09-14T06:36:02Z</time>
      </trkpt>
      <trkpt lat="45.71027" lon="3.35191">
        <ele>424</ele>
        <time>2025-09-14T06:36:03Z</time>
      </trkpt>
      <trkpt lat="45.71025" lon="3.35194">
        <ele>424</ele>
        <time>2025-09-14T06:36:04Z</time>
      </trkpt>
      <trkpt lat="45.71023" lon="3.35197">
        <ele>424.2</ele>
        <time>2025-09-14T06:36:05Z</time>
      </trkpt>
      <trkpt lat="45.71022" lon="3.352">
        <ele>424.4</ele>
        <time>2025-09-14T06:36:06Z</time>
      </trkpt>
      <trkpt lat="45.7102" lon="3.35203">
        <ele>424.6</ele>
        <time>2025-09-14T06:36:07Z</time>
      </trkpt>
      <trkpt lat="45.71019" lon="3.35206">
        <ele>424.8</ele>
        <time>2025-09-14T06:36:08Z</time>
      </trkpt>
      <trkpt lat="45.71018" lon="3.35209">
        <ele>424.8</ele>
        <time>2025-09-14T06:36:09Z</time>
      </trkpt>
      <trkpt lat="45.71016" lon="3.35213">
        <ele>425</ele>
        <time>2025-09-14T06:36:10Z</time>
      </trkpt>
      <trkpt lat="45.71015" lon="3.35217">
        <ele>424.8</ele>
        <time>2025-09-14T06:36:11Z</time>
      </trkpt>
      <trkpt lat="45.71013" lon="3.35221">
        <ele>424.6</ele>
        <time>2025-09-14T06:36:12Z</time>
      </trkpt>
      <trkpt lat="45.71012" lon="3.35225">
        <ele>424.4</ele>
        <time>2025-09-14T06:36:13Z</time>
      </trkpt>
      <trkpt lat="45.71009" lon="3.3523">
        <ele>424.2</ele>
        <time>2025-09-14T06:36:14Z</time>
      </trkpt>
      <trkpt lat="45.71007" lon="3.35235">
        <ele>424</ele>
        <time>2025-09-14T06:36:15Z</time>
      </trkpt>
      <trkpt lat="45.71004" lon="3.3524">
        <ele>423.8</ele>
        <time>2025-09-14T06:36:16Z</time>
      </trkpt>
      <trkpt lat="45.71001" lon="3.35245">
        <ele>423.8</ele>
        <time>2025-09-14T06:36:17Z</time>
      </trkpt>
      <trkpt lat="45.70999" lon="3.3525">
        <ele>423.8</ele>
        <time>2025-09-14T06:36:18Z</time>
      </trkpt>
      <trkpt lat="45.70996" lon="3.35255">
        <ele>423.8</ele>
        <time>2025-09-14T06:36:19Z</time>
      </trkpt>
      <trkpt lat="45.70994" lon="3.35261">
        <ele>423.6</ele>
        <time>2025-09-14T06:36:20Z</time>
      </trkpt>
      <trkpt lat="45.70992" lon="3.35266">
        <ele>423.4</ele>
        <time>2025-09-14T06:36:21Z</time>
      </trkpt>
      <trkpt lat="45.70989" lon="3.35271">
        <ele>423.4</ele>
        <time>2025-09-14T06:36:22Z</time>
      </trkpt>
      <trkpt lat="45.70987" lon="3.35276">
        <ele>423.2</ele>
        <time>2025-09-14T06:36:23Z</time>
      </trkpt>
      <trkpt lat="45.70984" lon="3.35281">
        <ele>423</ele>
        <time>2025-09-14T06:36:24Z</time>
      </trkpt>
      <trkpt lat="45.70982" lon="3.35286">
        <ele>422.8</ele>
        <time>2025-09-14T06:36:25Z</time>
      </trkpt>
      <trkpt lat="45.7098" lon="3.35292">
        <ele>422.6</ele>
        <time>2025-09-14T06:36:26Z</time>
      </trkpt>
      <trkpt lat="45.70977" lon="3.35297">
        <ele>422.4</ele>
        <time>2025-09-14T06:36:27Z</time>
      </trkpt>
      <trkpt lat="45.70975" lon="3.35303">
        <ele>422.2</ele>
        <time>2025-09-14T06:36:28Z</time>
      </trkpt>
      <trkpt lat="45.70973" lon="3.35309">
        <ele>422</ele>
        <time>2025-09-14T06:36:29Z</time>
      </trkpt>
      <trkpt lat="45.70971" lon="3.35314">
        <ele>421.8</ele>
        <time>2025-09-14T06:36:30Z</time>
      </trkpt>
      <trkpt lat="45.70968" lon="3.3532">
        <ele>421.6</ele>
        <time>2025-09-14T06:36:31Z</time>
      </trkpt>
      <trkpt lat="45.70966" lon="3.35325">
        <ele>421.6</ele>
        <time>2025-09-14T06:36:32Z</time>
      </trkpt>
      <trkpt lat="45.70963" lon="3.3533">
        <ele>421.4</ele>
        <time>2025-09-14T06:36:33Z</time>
      </trkpt>
      <trkpt lat="45.70961" lon="3.35335">
        <ele>421.4</ele>
        <time>2025-09-14T06:36:34Z</time>
      </trkpt>
      <trkpt lat="45.70958" lon="3.3534">
        <ele>421.2</ele>
        <time>2025-09-14T06:36:35Z</time>
      </trkpt>
      <trkpt lat="45.70956" lon="3.35345">
        <ele>421.2</ele>
        <time>2025-09-14T06:36:36Z</time>
      </trkpt>
      <trkpt lat="45.70954" lon="3.3535">
        <ele>421</ele>
        <time>2025-09-14T06:36:37Z</time>
      </trkpt>
      <trkpt lat="45.70953" lon="3.35355">
        <ele>421</ele>
        <time>2025-09-14T06:36:38Z</time>
      </trkpt>
      <trkpt lat="45.70951" lon="3.35361">
        <ele>420.8</ele>
        <time>2025-09-14T06:36:39Z</time>
      </trkpt>
      <trkpt lat="45.7095" lon="3.35366">
        <ele>420.6</ele>
        <time>2025-09-14T06:36:40Z</time>
      </trkpt>
      <trkpt lat="45.70948" lon="3.35372">
        <ele>420.4</ele>
        <time>2025-09-14T06:36:41Z</time>
      </trkpt>
      <trkpt lat="45.70947" lon="3.35378">
        <ele>420.2</ele>
        <time>2025-09-14T06:36:42Z</time>
      </trkpt>
      <trkpt lat="45.70945" lon="3.35384">
        <ele>420</ele>
        <time>2025-09-14T06:36:43Z</time>
      </trkpt>
      <trkpt lat="45.70944" lon="3.3539">
        <ele>419.8</ele>
        <time>2025-09-14T06:36:44Z</time>
      </trkpt>
      <trkpt lat="45.70942" lon="3.35396">
        <ele>419.6</ele>
        <time>2025-09-14T06:36:45Z</time>
      </trkpt>
      <trkpt lat="45.7094" lon="3.35403">
        <ele>419.4</ele>
        <time>2025-09-14T06:36:46Z</time>
      </trkpt>
      <trkpt lat="45.70938" lon="3.35409">
        <ele>419.2</ele>
        <time>2025-09-14T06:36:47Z</time>
      </trkpt>
      <trkpt lat="45.70936" lon="3.35414">
        <ele>419</ele>
        <time>2025-09-14T06:36:48Z</time>
      </trkpt>
      <trkpt lat="45.70934" lon="3.35419">
        <ele>418.8</ele>
        <time>2025-09-14T06:36:49Z</time>
      </trkpt>
      <trkpt lat="45.70931" lon="3.35424">
        <ele>418.8</ele>
        <time>2025-09-14T06:36:50Z</time>
      </trkpt>
      <trkpt lat="45.70928" lon="3.35427">
        <ele>418.8</ele>
        <time>2025-09-14T06:36:51Z</time>
      </trkpt>
      <trkpt lat="45.70925" lon="3.3543">
        <ele>418.8</ele>
        <time>2025-09-14T06:36:52Z</time>
      </trkpt>
      <trkpt lat="45.70921" lon="3.35433">
        <ele>418.8</ele>
        <time>2025-09-14T06:36:53Z</time>
      </trkpt>
      <trkpt lat="45.70918" lon="3.35436">
        <ele>418.6</ele>
        <time>2025-09-14T06:36:54Z</time>
      </trkpt>
      <trkpt lat="45.70914" lon="3.35439">
        <ele>418.8</ele>
        <time>2025-09-14T06:36:55Z</time>
      </trkpt>
      <trkpt lat="45.70912" lon="3.35442">
        <ele>418.8</ele>
        <time>2025-09-14T06:36:56Z</time>
      </trkpt>
      <trkpt lat="45.70909" lon="3.35445">
        <ele>418.8</ele>
        <time>2025-09-14T06:36:57Z</time>
      </trkpt>
      <trkpt lat="45.70905" lon="3.35448">
        <ele>418.8</ele>
        <time>2025-09-14T06:36:58Z</time>
      </trkpt>
      <trkpt lat="45.70902" lon="3.35451">
        <ele>418.8</ele>
        <time>2025-09-14T06:36:59Z</time>
      </trkpt>
      <trkpt lat="45.70898" lon="3.35454">
        <ele>418.8</ele>
        <time>2025-09-14T06:37:00Z</time>
      </trkpt>
      <trkpt lat="45.70895" lon="3.35458">
        <ele>418.6</ele>
        <time>2025-09-14T06:37:01Z</time>
      </trkpt>
      <trkpt lat="45.70891" lon="3.35461">
        <ele>418.6</ele>
        <time>2025-09-14T06:37:02Z</time>
      </trkpt>
      <trkpt lat="45.70888" lon="3.35465">
        <ele>418.6</ele>
        <time>2025-09-14T06:37:03Z</time>
      </trkpt>
      <trkpt lat="45.70885" lon="3.35469">
        <ele>418.6</ele>
        <time>2025-09-14T06:37:04Z</time>
      </trkpt>
      <trkpt lat="45.70882" lon="3.35473">
        <ele>418.6</ele>
        <time>2025-09-14T06:37:05Z</time>
      </trkpt>
      <trkpt lat="45.70879" lon="3.35477">
        <ele>418.6</ele>
        <time>2025-09-14T06:37:06Z</time>
      </trkpt>
      <trkpt lat="45.70876" lon="3.35481">
        <ele>418.6</ele>
        <time>2025-09-14T06:37:07Z</time>
      </trkpt>
      <trkpt lat="45.70873" lon="3.35485">
        <ele>418.6</ele>
        <time>2025-09-14T06:37:08Z</time>
      </trkpt>
      <trkpt lat="45.7087" lon="3.35489">
        <ele>418.6</ele>
        <time>2025-09-14T06:37:09Z</time>
      </trkpt>
      <trkpt lat="45.70868" lon="3.35493">
        <ele>418.4</ele>
        <time>2025-09-14T06:37:10Z</time>
      </trkpt>
      <trkpt lat="45.70866" lon="3.35497">
        <ele>418.4</ele>
        <time>2025-09-14T06:37:11Z</time>
      </trkpt>
      <trkpt lat="45.70864" lon="3.35501">
        <ele>418</ele>
        <time>2025-09-14T06:37:12Z</time>
      </trkpt>
      <trkpt lat="45.70861" lon="3.35506">
        <ele>417.8</ele>
        <time>2025-09-14T06:37:13Z</time>
      </trkpt>
      <trkpt lat="45.70858" lon="3.35509">
        <ele>417.6</ele>
        <time>2025-09-14T06:37:14Z</time>
      </trkpt>
      <trkpt lat="45.70855" lon="3.35513">
        <ele>417.2</ele>
        <time>2025-09-14T06:37:15Z</time>
      </trkpt>
      <trkpt lat="45.70852" lon="3.35516">
        <ele>417</ele>
        <time>2025-09-14T06:37:16Z</time>
      </trkpt>
      <trkpt lat="45.70849" lon="3.3552">
        <ele>416.6</ele>
        <time>2025-09-14T06:37:17Z</time>
      </trkpt>
      <trkpt lat="45.70846" lon="3.35524">
        <ele>416.4</ele>
        <time>2025-09-14T06:37:18Z</time>
      </trkpt>
      <trkpt lat="45.70842" lon="3.35528">
        <ele>416</ele>
        <time>2025-09-14T06:37:19Z</time>
      </trkpt>
      <trkpt lat="45.70838" lon="3.35532">
        <ele>415.6</ele>
        <time>2025-09-14T06:37:20Z</time>
      </trkpt>
      <trkpt lat="45.70834" lon="3.35537">
        <ele>415.2</ele>
        <time>2025-09-14T06:37:21Z</time>
      </trkpt>
      <trkpt lat="45.7083" lon="3.35541">
        <ele>415</ele>
        <time>2025-09-14T06:37:22Z</time>
      </trkpt>
      <trkpt lat="45.70825" lon="3.35546">
        <ele>414.6</ele>
        <time>2025-09-14T06:37:23Z</time>
      </trkpt>
      <trkpt lat="45.7082" lon="3.35551">
        <ele>414.2</ele>
        <time>2025-09-14T06:37:24Z</time>
      </trkpt>
      <trkpt lat="45.70816" lon="3.35555">
        <ele>414</ele>
        <time>2025-09-14T06:37:25Z</time>
      </trkpt>
      <trkpt lat="45.70812" lon="3.3556">
        <ele>413.8</ele>
        <time>2025-09-14T06:37:26Z</time>
      </trkpt>
      <trkpt lat="45.70809" lon="3.35564">
        <ele>413.4</ele>
        <time>2025-09-14T06:37:27Z</time>
      </trkpt>
      <trkpt lat="45.70807" lon="3.35568">
        <ele>413.2</ele>
        <time>2025-09-14T06:37:28Z</time>
      </trkpt>
      <trkpt lat="45.70806" lon="3.35572">
        <ele>413.2</ele>
        <time>2025-09-14T06:37:29Z</time>
      </trkpt>
      <trkpt lat="45.70805" lon="3.35575">
        <ele>413.2</ele>
        <time>2025-09-14T06:37:30Z</time>
      </trkpt>
      <trkpt lat="45.70804" lon="3.35579">
        <ele>413.2</ele>
        <time>2025-09-14T06:37:31Z</time>
      </trkpt>
      <trkpt lat="45.70803" lon="3.35582">
        <ele>413.2</ele>
        <time>2025-09-14T06:37:32Z</time>
      </trkpt>
      <trkpt lat="45.70802" lon="3.35585">
        <ele>413.4</ele>
        <time>2025-09-14T06:37:33Z</time>
      </trkpt>
      <trkpt lat="45.70799" lon="3.35588">
        <ele>413.6</ele>
        <time>2025-09-14T06:37:34Z</time>
      </trkpt>
      <trkpt lat="45.70796" lon="3.35592">
        <ele>413.8</ele>
        <time>2025-09-14T06:37:35Z</time>
      </trkpt>
      <trkpt lat="45.70794" lon="3.35595">
        <ele>414</ele>
        <time>2025-09-14T06:37:36Z</time>
      </trkpt>
      <trkpt lat="45.70791" lon="3.35598">
        <ele>414.2</ele>
        <time>2025-09-14T06:37:37Z</time>
      </trkpt>
      <trkpt lat="45.70789" lon="3.356">
        <ele>414.4</ele>
        <time>2025-09-14T06:37:38Z</time>
      </trkpt>
      <trkpt lat="45.70786" lon="3.35604">
        <ele>414.8</ele>
        <time>2025-09-14T06:37:39Z</time>
      </trkpt>
      <trkpt lat="45.70785" lon="3.35607">
        <ele>415</ele>
        <time>2025-09-14T06:37:40Z</time>
      </trkpt>
      <trkpt lat="45.70783" lon="3.35609">
        <ele>415.4</ele>
        <time>2025-09-14T06:37:41Z</time>
      </trkpt>
      <trkpt lat="45.7078" lon="3.35611">
        <ele>415.6</ele>
        <time>2025-09-14T06:37:42Z</time>
      </trkpt>
      <trkpt lat="45.70779" lon="3.35613">
        <ele>416</ele>
        <time>2025-09-14T06:37:43Z</time>
      </trkpt>
      <trkpt lat="45.70777" lon="3.35616">
        <ele>416.2</ele>
        <time>2025-09-14T06:37:44Z</time>
      </trkpt>
      <trkpt lat="45.70775" lon="3.35618">
        <ele>416.4</ele>
        <time>2025-09-14T06:37:45Z</time>
      </trkpt>
      <trkpt lat="45.70773" lon="3.3562">
        <ele>416.6</ele>
        <time>2025-09-14T06:37:46Z</time>
      </trkpt>
      <trkpt lat="45.70771" lon="3.35623">
        <ele>417</ele>
        <time>2025-09-14T06:37:47Z</time>
      </trkpt>
      <trkpt lat="45.70769" lon="3.35626">
        <ele>417.2</ele>
        <time>2025-09-14T06:37:48Z</time>
      </trkpt>
      <trkpt lat="45.70767" lon="3.35628">
        <ele>417.6</ele>
        <time>2025-09-14T06:37:49Z</time>
      </trkpt>
      <trkpt lat="45.70764" lon="3.35631">
        <ele>418</ele>
        <time>2025-09-14T06:37:50Z</time>
      </trkpt>
      <trkpt lat="45.70762" lon="3.35634">
        <ele>418.4</ele>
        <time>2025-09-14T06:37:51Z</time>
      </trkpt>
      <trkpt lat="45.7076" lon="3.35637">
        <ele>418.8</ele>
        <time>2025-09-14T06:37:52Z</time>
      </trkpt>
      <trkpt lat="45.70758" lon="3.3564">
        <ele>419.2</ele>
        <time>2025-09-14T06:37:53Z</time>
      </trkpt>
      <trkpt lat="45.70756" lon="3.35643">
        <ele>419.4</ele>
        <time>2025-09-14T06:37:54Z</time>
      </trkpt>
      <trkpt lat="45.70755" lon="3.35647">
        <ele>419.8</ele>
        <time>2025-09-14T06:37:55Z</time>
      </trkpt>
      <trkpt lat="45.70753" lon="3.3565">
        <ele>420</ele>
        <time>2025-09-14T06:37:56Z</time>
      </trkpt>
      <trkpt lat="45.70752" lon="3.35654">
        <ele>420.4</ele>
        <time>2025-09-14T06:37:57Z</time>
      </trkpt>
      <trkpt lat="45.70751" lon="3.35658">
        <ele>420.6</ele>
        <time>2025-09-14T06:37:58Z</time>
      </trkpt>
      <trkpt lat="45.70751" lon="3.35662">
        <ele>421</ele>
        <time>2025-09-14T06:37:59Z</time>
      </trkpt>
      <trkpt lat="45.7075" lon="3.35665">
        <ele>421.2</ele>
        <time>2025-09-14T06:38:00Z</time>
      </trkpt>
      <trkpt lat="45.7075" lon="3.35669">
        <ele>421.6</ele>
        <time>2025-09-14T06:38:01Z</time>
      </trkpt>
      <trkpt lat="45.70749" lon="3.35672">
        <ele>421.8</ele>
        <time>2025-09-14T06:38:02Z</time>
      </trkpt>
      <trkpt lat="45.70749" lon="3.35675">
        <ele>422.2</ele>
        <time>2025-09-14T06:38:03Z</time>
      </trkpt>
      <trkpt lat="45.70748" lon="3.35679">
        <ele>422.6</ele>
        <time>2025-09-14T06:38:04Z</time>
      </trkpt>
      <trkpt lat="45.70747" lon="3.35683">
        <ele>422.8</ele>
        <time>2025-09-14T06:38:05Z</time>
      </trkpt>
      <trkpt lat="45.70746" lon="3.35687">
        <ele>423.2</ele>
        <time>2025-09-14T06:38:06Z</time>
      </trkpt>
      <trkpt lat="45.70745" lon="3.3569">
        <ele>423.6</ele>
        <time>2025-09-14T06:38:07Z</time>
      </trkpt>
      <trkpt lat="45.70745" lon="3.35694">
        <ele>423.8</ele>
        <time>2025-09-14T06:38:08Z</time>
      </trkpt>
      <trkpt lat="45.70744" lon="3.35698">
        <ele>424.2</ele>
        <time>2025-09-14T06:38:09Z</time>
      </trkpt>
      <trkpt lat="45.70744" lon="3.35702">
        <ele>424.6</ele>
        <time>2025-09-14T06:38:10Z</time>
      </trkpt>
      <trkpt lat="45.70743" lon="3.35705">
        <ele>425</ele>
        <time>2025-09-14T06:38:11Z</time>
      </trkpt>
      <trkpt lat="45.70743" lon="3.35709">
        <ele>425.4</ele>
        <time>2025-09-14T06:38:12Z</time>
      </trkpt>
      <trkpt lat="45.70743" lon="3.35713">
        <ele>425.8</ele>
        <time>2025-09-14T06:38:13Z</time>
      </trkpt>
      <trkpt lat="45.70742" lon="3.35716">
        <ele>426.2</ele>
        <time>2025-09-14T06:38:14Z</time>
      </trkpt>
      <trkpt lat="45.70742" lon="3.35719">
        <ele>426.6</ele>
        <time>2025-09-14T06:38:15Z</time>
      </trkpt>
      <trkpt lat="45.7074" lon="3.35723">
        <ele>427</ele>
        <time>2025-09-14T06:38:16Z</time>
      </trkpt>
      <trkpt lat="45.7074" lon="3.35726">
        <ele>427.4</ele>
        <time>2025-09-14T06:38:17Z</time>
      </trkpt>
      <trkpt lat="45.70739" lon="3.35729">
        <ele>427.8</ele>
        <time>2025-09-14T06:38:18Z</time>
      </trkpt>
      <trkpt lat="45.70738" lon="3.35733">
        <ele>428.2</ele>
        <time>2025-09-14T06:38:19Z</time>
      </trkpt>
      <trkpt lat="45.70738" lon="3.35736">
        <ele>428.6</ele>
        <time>2025-09-14T06:38:20Z</time>
      </trkpt>
      <trkpt lat="45.70737" lon="3.3574">
        <ele>429</ele>
        <time>2025-09-14T06:38:21Z</time>
      </trkpt>
      <trkpt lat="45.70736" lon="3.35743">
        <ele>429.2</ele>
        <time>2025-09-14T06:38:22Z</time>
      </trkpt>
      <trkpt lat="45.70736" lon="3.35747">
        <ele>429.6</ele>
        <time>2025-09-14T06:38:23Z</time>
      </trkpt>
      <trkpt lat="45.70735" lon="3.35749">
        <ele>430</ele>
        <time>2025-09-14T06:38:24Z</time>
      </trkpt>
      <trkpt lat="45.70733" lon="3.35752">
        <ele>430.2</ele>
        <time>2025-09-14T06:38:25Z</time>
      </trkpt>
      <trkpt lat="45.70732" lon="3.35755">
        <ele>430.6</ele>
        <time>2025-09-14T06:38:26Z</time>
      </trkpt>
      <trkpt lat="45.70731" lon="3.35758">
        <ele>430.8</ele>
        <time>2025-09-14T06:38:27Z</time>
      </trkpt>
      <trkpt lat="45.7073" lon="3.3576">
        <ele>431.2</ele>
        <time>2025-09-14T06:38:28Z</time>
      </trkpt>
      <trkpt lat="45.70728" lon="3.35763">
        <ele>431.4</ele>
        <time>2025-09-14T06:38:29Z</time>
      </trkpt>
      <trkpt lat="45.70727" lon="3.35766">
        <ele>431.8</ele>
        <time>2025-09-14T06:38:30Z</time>
      </trkpt>
      <trkpt lat="45.70726" lon="3.3577">
        <ele>432</ele>
        <time>2025-09-14T06:38:31Z</time>
      </trkpt>
      <trkpt lat="45.70725" lon="3.35774">
        <ele>432.2</ele>
        <time>2025-09-14T06:38:32Z</time>
      </trkpt>
      <trkpt lat="45.70724" lon="3.35777">
        <ele>432.4</ele>
        <time>2025-09-14T06:38:33Z</time>
      </trkpt>
      <trkpt lat="45.70723" lon="3.35779">
        <ele>432.6</ele>
        <time>2025-09-14T06:38:34Z</time>
      </trkpt>
      <trkpt lat="45.70721" lon="3.35783">
        <ele>433</ele>
        <time>2025-09-14T06:38:35Z</time>
      </trkpt>
      <trkpt lat="45.7072" lon="3.35785">
        <ele>433.2</ele>
        <time>2025-09-14T06:38:36Z</time>
      </trkpt>
      <trkpt lat="45.70718" lon="3.35788">
        <ele>433.4</ele>
        <time>2025-09-14T06:38:37Z</time>
      </trkpt>
      <trkpt lat="45.70717" lon="3.35791">
        <ele>433.6</ele>
        <time>2025-09-14T06:38:38Z</time>
      </trkpt>
      <trkpt lat="45.70715" lon="3.35794">
        <ele>433.8</ele>
        <time>2025-09-14T06:38:39Z</time>
      </trkpt>
      <trkpt lat="45.70712" lon="3.35798">
        <ele>434.2</ele>
        <time>2025-09-14T06:38:40Z</time>
      </trkpt>
      <trkpt lat="45.70711" lon="3.35801">
        <ele>434.4</ele>
        <time>2025-09-14T06:38:41Z</time>
      </trkpt>
      <trkpt lat="45.70709" lon="3.35804">
        <ele>434.6</ele>
        <time>2025-09-14T06:38:42Z</time>
      </trkpt>
      <trkpt lat="45.70707" lon="3.35809">
        <ele>435</ele>
        <time>2025-09-14T06:38:43Z</time>
      </trkpt>
      <trkpt lat="45.70706" lon="3.35812">
        <ele>435.4</ele>
        <time>2025-09-14T06:38:44Z</time>
      </trkpt>
      <trkpt lat="45.70704" lon="3.35816">
        <ele>435.6</ele>
        <time>2025-09-14T06:38:45Z</time>
      </trkpt>
      <trkpt lat="45.70703" lon="3.35819">
        <ele>435.8</ele>
        <time>2025-09-14T06:38:46Z</time>
      </trkpt>
      <trkpt lat="45.70702" lon="3.35823">
        <ele>436.2</ele>
        <time>2025-09-14T06:38:47Z</time>
      </trkpt>
      <trkpt lat="45.70701" lon="3.35826">
        <ele>436.6</ele>
        <time>2025-09-14T06:38:48Z</time>
      </trkpt>
      <trkpt lat="45.707" lon="3.3583">
        <ele>436.8</ele>
        <time>2025-09-14T06:38:49Z</time>
      </trkpt>
      <trkpt lat="45.70699" lon="3.35833">
        <ele>437.2</ele>
        <time>2025-09-14T06:38:50Z</time>
      </trkpt>
      <trkpt lat="45.70698" lon="3.35837">
        <ele>437.4</ele>
        <time>2025-09-14T06:38:51Z</time>
      </trkpt>
      <trkpt lat="45.70698" lon="3.3584">
        <ele>437.6</ele>
        <time>2025-09-14T06:38:52Z</time>
      </trkpt>
      <trkpt lat="45.70697" lon="3.35843">
        <ele>438</ele>
        <time>2025-09-14T06:38:53Z</time>
      </trkpt>
      <trkpt lat="45.70697" lon="3.35846">
        <ele>438.4</ele>
        <time>2025-09-14T06:38:54Z</time>
      </trkpt>
      <trkpt lat="45.70696" lon="3.35849">
        <ele>438.6</ele>
        <time>2025-09-14T06:38:55Z</time>
      </trkpt>
      <trkpt lat="45.70695" lon="3.35853">
        <ele>439</ele>
        <time>2025-09-14T06:38:56Z</time>
      </trkpt>
      <trkpt lat="45.70695" lon="3.35856">
        <ele>439.4</ele>
        <time>2025-09-14T06:38:57Z</time>
      </trkpt>
      <trkpt lat="45.70695" lon="3.3586">
        <ele>439.8</ele>
        <time>2025-09-14T06:38:58Z</time>
      </trkpt>
      <trkpt lat="45.70694" lon="3.35863">
        <ele>440.2</ele>
        <time>2025-09-14T06:38:59Z</time>
      </trkpt>
      <trkpt lat="45.70693" lon="3.35866">
        <ele>440.6</ele>
        <time>2025-09-14T06:39:00Z</time>
      </trkpt>
      <trkpt lat="45.70691" lon="3.35869">
        <ele>441</ele>
        <time>2025-09-14T06:39:01Z</time>
      </trkpt>
      <trkpt lat="45.7069" lon="3.35872">
        <ele>441.4</ele>
        <time>2025-09-14T06:39:02Z</time>
      </trkpt>
      <trkpt lat="45.70688" lon="3.35875">
        <ele>441.8</ele>
        <time>2025-09-14T06:39:03Z</time>
      </trkpt>
      <trkpt lat="45.70687" lon="3.35879">
        <ele>442.2</ele>
        <time>2025-09-14T06:39:04Z</time>
      </trkpt>
      <trkpt lat="45.70685" lon="3.35883">
        <ele>442.8</ele>
        <time>2025-09-14T06:39:05Z</time>
      </trkpt>
      <trkpt lat="45.70685" lon="3.35887">
        <ele>443.2</ele>
        <time>2025-09-14T06:39:06Z</time>
      </trkpt>
      <trkpt lat="45.70684" lon="3.35892">
        <ele>443.6</ele>
        <time>2025-09-14T06:39:07Z</time>
      </trkpt>
      <trkpt lat="45.70683" lon="3.35895">
        <ele>444</ele>
        <time>2025-09-14T06:39:08Z</time>
      </trkpt>
      <trkpt lat="45.70682" lon="3.35898">
        <ele>444.4</ele>
        <time>2025-09-14T06:39:09Z</time>
      </trkpt>
      <trkpt lat="45.70681" lon="3.35902">
        <ele>444.8</ele>
        <time>2025-09-14T06:39:10Z</time>
      </trkpt>
      <trkpt lat="45.70681" lon="3.35905">
        <ele>445.2</ele>
        <time>2025-09-14T06:39:11Z</time>
      </trkpt>
      <trkpt lat="45.7068" lon="3.35908">
        <ele>445.6</ele>
        <time>2025-09-14T06:39:12Z</time>
      </trkpt>
      <trkpt lat="45.70678" lon="3.35911">
        <ele>446</ele>
        <time>2025-09-14T06:39:13Z</time>
      </trkpt>
      <trkpt lat="45.70677" lon="3.35914">
        <ele>446.4</ele>
        <time>2025-09-14T06:39:14Z</time>
      </trkpt>
      <trkpt lat="45.70675" lon="3.35918">
        <ele>446.8</ele>
        <time>2025-09-14T06:39:15Z</time>
      </trkpt>
      <trkpt lat="45.70673" lon="3.35923">
        <ele>447.2</ele>
        <time>2025-09-14T06:39:16Z</time>
      </trkpt>
      <trkpt lat="45.70672" lon="3.35927">
        <ele>447.6</ele>
        <time>2025-09-14T06:39:17Z</time>
      </trkpt>
      <trkpt lat="45.7067" lon="3.3593">
        <ele>447.8</ele>
        <time>2025-09-14T06:39:18Z</time>
      </trkpt>
      <trkpt lat="45.70668" lon="3.35934">
        <ele>448.2</ele>
        <time>2025-09-14T06:39:19Z</time>
      </trkpt>
      <trkpt lat="45.70666" lon="3.35939">
        <ele>448.6</ele>
        <time>2025-09-14T06:39:20Z</time>
      </trkpt>
      <trkpt lat="45.70665" lon="3.35944">
        <ele>449</ele>
        <time>2025-09-14T06:39:21Z</time>
      </trkpt>
      <trkpt lat="45.70664" lon="3.35948">
        <ele>449.4</ele>
        <time>2025-09-14T06:39:22Z</time>
      </trkpt>
      <trkpt lat="45.70662" lon="3.35951">
        <ele>449.8</ele>
        <time>2025-09-14T06:39:23Z</time>
      </trkpt>
      <trkpt lat="45.7066" lon="3.35956">
        <ele>450.2</ele>
        <time>2025-09-14T06:39:24Z</time>
      </trkpt>
      <trkpt lat="45.70658" lon="3.35961">
        <ele>450.6</ele>
        <time>2025-09-14T06:39:25Z</time>
      </trkpt>
      <trkpt lat="45.70657" lon="3.35967">
        <ele>451</ele>
        <time>2025-09-14T06:39:26Z</time>
      </trkpt>
      <trkpt lat="45.70655" lon="3.35971">
        <ele>451.4</ele>
        <time>2025-09-14T06:39:27Z</time>
      </trkpt>
      <trkpt lat="45.70653" lon="3.35976">
        <ele>451.8</ele>
        <time>2025-09-14T06:39:28Z</time>
      </trkpt>
      <trkpt lat="45.70652" lon="3.35979">
        <ele>452.2</ele>
        <time>2025-09-14T06:39:29Z</time>
      </trkpt>
      <trkpt lat="45.7065" lon="3.35984">
        <ele>452.6</ele>
        <time>2025-09-14T06:39:30Z</time>
      </trkpt>
      <trkpt lat="45.70649" lon="3.35988">
        <ele>453</ele>
        <time>2025-09-14T06:39:31Z</time>
      </trkpt>
      <trkpt lat="45.70647" lon="3.35992">
        <ele>453.4</ele>
        <time>2025-09-14T06:39:32Z</time>
      </trkpt>
      <trkpt lat="45.70645" lon="3.35996">
        <ele>453.8</ele>
        <time>2025-09-14T06:39:33Z</time>
      </trkpt>
      <trkpt lat="45.70644" lon="3.36">
        <ele>454.2</ele>
        <time>2025-09-14T06:39:34Z</time>
      </trkpt>
      <trkpt lat="45.70643" lon="3.36004">
        <ele>454.6</ele>
        <time>2025-09-14T06:39:35Z</time>
      </trkpt>
      <trkpt lat="45.70642" lon="3.36009">
        <ele>455</ele>
        <time>2025-09-14T06:39:36Z</time>
      </trkpt>
      <trkpt lat="45.70641" lon="3.36014">
        <ele>455.4</ele>
        <time>2025-09-14T06:39:37Z</time>
      </trkpt>
      <trkpt lat="45.7064" lon="3.36019">
        <ele>455.8</ele>
        <time>2025-09-14T06:39:38Z</time>
      </trkpt>
      <trkpt lat="45.70639" lon="3.36024">
        <ele>456.2</ele>
        <time>2025-09-14T06:39:39Z</time>
      </trkpt>
      <trkpt lat="45.70639" lon="3.36029">
        <ele>456.6</ele>
        <time>2025-09-14T06:39:40Z</time>
      </trkpt>
      <trkpt lat="45.70637" lon="3.36035">
        <ele>456.8</ele>
        <time>2025-09-14T06:39:41Z</time>
      </trkpt>
      <trkpt lat="45.70636" lon="3.3604">
        <ele>457.2</ele>
        <time>2025-09-14T06:39:42Z</time>
      </trkpt>
      <trkpt lat="45.70636" lon="3.36044">
        <ele>457.4</ele>
        <time>2025-09-14T06:39:43Z</time>
      </trkpt>
      <trkpt lat="45.70635" lon="3.36049">
        <ele>457.8</ele>
        <time>2025-09-14T06:39:44Z</time>
      </trkpt>
      <trkpt lat="45.70634" lon="3.36054">
        <ele>458.2</ele>
        <time>2025-09-14T06:39:45Z</time>
      </trkpt>
      <trkpt lat="45.70633" lon="3.36058">
        <ele>458.6</ele>
        <time>2025-09-14T06:39:46Z</time>
      </trkpt>
      <trkpt lat="45.70632" lon="3.36063">
        <ele>459</ele>
        <time>2025-09-14T06:39:47Z</time>
      </trkpt>
      <trkpt lat="45.70631" lon="3.36067">
        <ele>459.2</ele>
        <time>2025-09-14T06:39:48Z</time>
      </trkpt>
      <trkpt lat="45.70629" lon="3.36072">
        <ele>459.6</ele>
        <time>2025-09-14T06:39:49Z</time>
      </trkpt>
      <trkpt lat="45.70628" lon="3.36075">
        <ele>459.8</ele>
        <time>2025-09-14T06:39:50Z</time>
      </trkpt>
      <trkpt lat="45.70627" lon="3.36079">
        <ele>460</ele>
        <time>2025-09-14T06:39:51Z</time>
      </trkpt>
      <trkpt lat="45.70625" lon="3.36083">
        <ele>460.2</ele>
        <time>2025-09-14T06:39:52Z</time>
      </trkpt>
      <trkpt lat="45.70624" lon="3.36088">
        <ele>460.4</ele>
        <time>2025-09-14T06:39:53Z</time>
      </trkpt>
      <trkpt lat="45.70622" lon="3.36093">
        <ele>460.6</ele>
        <time>2025-09-14T06:39:54Z</time>
      </trkpt>
      <trkpt lat="45.7062" lon="3.36098">
        <ele>460.8</ele>
        <time>2025-09-14T06:39:55Z</time>
      </trkpt>
      <trkpt lat="45.70617" lon="3.36102">
        <ele>461.2</ele>
        <time>2025-09-14T06:39:56Z</time>
      </trkpt>
      <trkpt lat="45.70615" lon="3.36106">
        <ele>461.4</ele>
        <time>2025-09-14T06:39:57Z</time>
      </trkpt>
      <trkpt lat="45.70612" lon="3.3611">
        <ele>461.6</ele>
        <time>2025-09-14T06:39:58Z</time>
      </trkpt>
      <trkpt lat="45.7061" lon="3.36114">
        <ele>462</ele>
        <time>2025-09-14T06:39:59Z</time>
      </trkpt>
      <trkpt lat="45.70608" lon="3.36118">
        <ele>462.2</ele>
        <time>2025-09-14T06:40:00Z</time>
      </trkpt>
      <trkpt lat="45.70606" lon="3.36123">
        <ele>462.4</ele>
        <time>2025-09-14T06:40:01Z</time>
      </trkpt>
      <trkpt lat="45.70603" lon="3.36127">
        <ele>462.6</ele>
        <time>2025-09-14T06:40:02Z</time>
      </trkpt>
      <trkpt lat="45.70601" lon="3.36132">
        <ele>462.8</ele>
        <time>2025-09-14T06:40:03Z</time>
      </trkpt>
      <trkpt lat="45.70599" lon="3.36137">
        <ele>463</ele>
        <time>2025-09-14T06:40:04Z</time>
      </trkpt>
      <trkpt lat="45.70598" lon="3.36141">
        <ele>463.2</ele>
        <time>2025-09-14T06:40:05Z</time>
      </trkpt>
      <trkpt lat="45.70596" lon="3.36146">
        <ele>463.4</ele>
        <time>2025-09-14T06:40:06Z</time>
      </trkpt>
      <trkpt lat="45.70594" lon="3.36151">
        <ele>463.6</ele>
        <time>2025-09-14T06:40:07Z</time>
      </trkpt>
      <trkpt lat="45.70592" lon="3.36155">
        <ele>463.8</ele>
        <time>2025-09-14T06:40:08Z</time>
      </trkpt>
      <trkpt lat="45.70591" lon="3.36159">
        <ele>463.8</ele>
        <time>2025-09-14T06:40:09Z</time>
      </trkpt>
      <trkpt lat="45.7059" lon="3.36162">
        <ele>464</ele>
        <time>2025-09-14T06:40:10Z</time>
      </trkpt>
      <trkpt lat="45.70589" lon="3.36166">
        <ele>464.2</ele>
        <time>2025-09-14T06:40:11Z</time>
      </trkpt>
      <trkpt lat="45.70589" lon="3.36169">
        <ele>464.4</ele>
        <time>2025-09-14T06:40:12Z</time>
      </trkpt>
      <trkpt lat="45.70589" lon="3.36173">
        <ele>464.6</ele>
        <time>2025-09-14T06:40:13Z</time>
      </trkpt>
      <trkpt lat="45.70588" lon="3.36177">
        <ele>464.8</ele>
        <time>2025-09-14T06:40:14Z</time>
      </trkpt>
      <trkpt lat="45.70587" lon="3.36181">
        <ele>465</ele>
        <time>2025-09-14T06:40:15Z</time>
      </trkpt>
      <trkpt lat="45.70587" lon="3.36185">
        <ele>465.4</ele>
        <time>2025-09-14T06:40:16Z</time>
      </trkpt>
      <trkpt lat="45.70586" lon="3.36189">
        <ele>465.6</ele>
        <time>2025-09-14T06:40:17Z</time>
      </trkpt>
      <trkpt lat="45.70585" lon="3.36192">
        <ele>465.8</ele>
        <time>2025-09-14T06:40:18Z</time>
      </trkpt>
      <trkpt lat="45.70584" lon="3.36196">
        <ele>466</ele>
        <time>2025-09-14T06:40:19Z</time>
      </trkpt>
      <trkpt lat="45.70583" lon="3.362">
        <ele>466.2</ele>
        <time>2025-09-14T06:40:20Z</time>
      </trkpt>
      <trkpt lat="45.70583" lon="3.36204">
        <ele>466.4</ele>
        <time>2025-09-14T06:40:21Z</time>
      </trkpt>
      <trkpt lat="45.70584" lon="3.36208">
        <ele>466.8</ele>
        <time>2025-09-14T06:40:22Z</time>
      </trkpt>
      <trkpt lat="45.70583" lon="3.36212">
        <ele>467</ele>
        <time>2025-09-14T06:40:23Z</time>
      </trkpt>
      <trkpt lat="45.70581" lon="3.36215">
        <ele>467.2</ele>
        <time>2025-09-14T06:40:24Z</time>
      </trkpt>
      <trkpt lat="45.70579" lon="3.36219">
        <ele>467.6</ele>
        <time>2025-09-14T06:40:25Z</time>
      </trkpt>
      <trkpt lat="45.70578" lon="3.36222">
        <ele>467.8</ele>
        <time>2025-09-14T06:40:26Z</time>
      </trkpt>
      <trkpt lat="45.70576" lon="3.36226">
        <ele>468.2</ele>
        <time>2025-09-14T06:40:27Z</time>
      </trkpt>
      <trkpt lat="45.70575" lon="3.3623">
        <ele>468.4</ele>
        <time>2025-09-14T06:40:28Z</time>
      </trkpt>
      <trkpt lat="45.70574" lon="3.36234">
        <ele>468.8</ele>
        <time>2025-09-14T06:40:29Z</time>
      </trkpt>
      <trkpt lat="45.70572" lon="3.36238">
        <ele>469</ele>
        <time>2025-09-14T06:40:30Z</time>
      </trkpt>
      <trkpt lat="45.7057" lon="3.36242">
        <ele>469.2</ele>
        <time>2025-09-14T06:40:31Z</time>
      </trkpt>
      <trkpt lat="45.70569" lon="3.36246">
        <ele>469.6</ele>
        <time>2025-09-14T06:40:32Z</time>
      </trkpt>
      <trkpt lat="45.70568" lon="3.3625">
        <ele>469.8</ele>
        <time>2025-09-14T06:40:33Z</time>
      </trkpt>
      <trkpt lat="45.70567" lon="3.36254">
        <ele>470</ele>
        <time>2025-09-14T06:40:34Z</time>
      </trkpt>
      <trkpt lat="45.70565" lon="3.36258">
        <ele>470.2</ele>
        <time>2025-09-14T06:40:35Z</time>
      </trkpt>
      <trkpt lat="45.70563" lon="3.36262">
        <ele>470.4</ele>
        <time>2025-09-14T06:40:36Z</time>
      </trkpt>
      <trkpt lat="45.7056" lon="3.36266">
        <ele>470.6</ele>
        <time>2025-09-14T06:40:37Z</time>
      </trkpt>
      <trkpt lat="45.70559" lon="3.36271">
        <ele>471</ele>
        <time>2025-09-14T06:40:38Z</time>
      </trkpt>
      <trkpt lat="45.70559" lon="3.36277">
        <ele>471.2</ele>
        <time>2025-09-14T06:40:39Z</time>
      </trkpt>
      <trkpt lat="45.70558" lon="3.36281">
        <ele>471.4</ele>
        <time>2025-09-14T06:40:40Z</time>
      </trkpt>
      <trkpt lat="45.70557" lon="3.36285">
        <ele>471.6</ele>
        <time>2025-09-14T06:40:41Z</time>
      </trkpt>
      <trkpt lat="45.70555" lon="3.36288">
        <ele>471.8</ele>
        <time>2025-09-14T06:40:42Z</time>
      </trkpt>
      <trkpt lat="45.70552" lon="3.36292">
        <ele>472</ele>
        <time>2025-09-14T06:40:43Z</time>
      </trkpt>
      <trkpt lat="45.7055" lon="3.36298">
        <ele>472.4</ele>
        <time>2025-09-14T06:40:44Z</time>
      </trkpt>
      <trkpt lat="45.70549" lon="3.36301">
        <ele>472.6</ele>
        <time>2025-09-14T06:40:45Z</time>
      </trkpt>
      <trkpt lat="45.70547" lon="3.36305">
        <ele>472.8</ele>
        <time>2025-09-14T06:40:46Z</time>
      </trkpt>
      <trkpt lat="45.70547" lon="3.36308">
        <ele>473</ele>
        <time>2025-09-14T06:40:47Z</time>
      </trkpt>
      <trkpt lat="45.70546" lon="3.36312">
        <ele>473.2</ele>
        <time>2025-09-14T06:40:48Z</time>
      </trkpt>
      <trkpt lat="45.70545" lon="3.36315">
        <ele>473.6</ele>
        <time>2025-09-14T06:40:49Z</time>
      </trkpt>
      <trkpt lat="45.70545" lon="3.36319">
        <ele>473.8</ele>
        <time>2025-09-14T06:40:50Z</time>
      </trkpt>
      <trkpt lat="45.70544" lon="3.36322">
        <ele>474</ele>
        <time>2025-09-14T06:40:51Z</time>
      </trkpt>
      <trkpt lat="45.70544" lon="3.36326">
        <ele>474.2</ele>
        <time>2025-09-14T06:40:52Z</time>
      </trkpt>
      <trkpt lat="45.70543" lon="3.36329">
        <ele>474.4</ele>
        <time>2025-09-14T06:40:53Z</time>
      </trkpt>
      <trkpt lat="45.70542" lon="3.36333">
        <ele>474.8</ele>
        <time>2025-09-14T06:40:54Z</time>
      </trkpt>
      <trkpt lat="45.70542" lon="3.36336">
        <ele>475</ele>
        <time>2025-09-14T06:40:55Z</time>
      </trkpt>
      <trkpt lat="45.7054" lon="3.36339">
        <ele>475.2</ele>
        <time>2025-09-14T06:40:56Z</time>
      </trkpt>
      <trkpt lat="45.70539" lon="3.36342">
        <ele>475.4</ele>
        <time>2025-09-14T06:40:57Z</time>
      </trkpt>
      <trkpt lat="45.70538" lon="3.36345">
        <ele>475.6</ele>
        <time>2025-09-14T06:40:58Z</time>
      </trkpt>
      <trkpt lat="45.70537" lon="3.36349">
        <ele>475.8</ele>
        <time>2025-09-14T06:40:59Z</time>
      </trkpt>
      <trkpt lat="45.70536" lon="3.36352">
        <ele>476</ele>
        <time>2025-09-14T06:41:00Z</time>
      </trkpt>
      <trkpt lat="45.70535" lon="3.36356">
        <ele>476.2</ele>
        <time>2025-09-14T06:41:01Z</time>
      </trkpt>
      <trkpt lat="45.70532" lon="3.3636">
        <ele>476.4</ele>
        <time>2025-09-14T06:41:02Z</time>
      </trkpt>
      <trkpt lat="45.7053" lon="3.36364">
        <ele>476.6</ele>
        <time>2025-09-14T06:41:03Z</time>
      </trkpt>
      <trkpt lat="45.70529" lon="3.36369">
        <ele>476.8</ele>
        <time>2025-09-14T06:41:04Z</time>
      </trkpt>
      <trkpt lat="45.70528" lon="3.36372">
        <ele>477</ele>
        <time>2025-09-14T06:41:05Z</time>
      </trkpt>
      <trkpt lat="45.70527" lon="3.36375">
        <ele>477.2</ele>
        <time>2025-09-14T06:41:06Z</time>
      </trkpt>
      <trkpt lat="45.70526" lon="3.36378">
        <ele>477.4</ele>
        <time>2025-09-14T06:41:07Z</time>
      </trkpt>
      <trkpt lat="45.70524" lon="3.36381">
        <ele>477.4</ele>
        <time>2025-09-14T06:41:08Z</time>
      </trkpt>
      <trkpt lat="45.70523" lon="3.36383">
        <ele>477.6</ele>
        <time>2025-09-14T06:41:09Z</time>
      </trkpt>
      <trkpt lat="45.70521" lon="3.36386">
        <ele>477.8</ele>
        <time>2025-09-14T06:41:10Z</time>
      </trkpt>
      <trkpt lat="45.70519" lon="3.3639">
        <ele>478</ele>
        <time>2025-09-14T06:41:11Z</time>
      </trkpt>
      <trkpt lat="45.70517" lon="3.36393">
        <ele>478.2</ele>
        <time>2025-09-14T06:41:12Z</time>
      </trkpt>
      <trkpt lat="45.70514" lon="3.36397">
        <ele>478.2</ele>
        <time>2025-09-14T06:41:13Z</time>
      </trkpt>
      <trkpt lat="45.70513" lon="3.364">
        <ele>478.4</ele>
        <time>2025-09-14T06:41:14Z</time>
      </trkpt>
      <trkpt lat="45.70511" lon="3.36403">
        <ele>478.6</ele>
        <time>2025-09-14T06:41:15Z</time>
      </trkpt>
      <trkpt lat="45.70509" lon="3.36406">
        <ele>478.6</ele>
        <time>2025-09-14T06:41:16Z</time>
      </trkpt>
      <trkpt lat="45.70507" lon="3.36409">
        <ele>478.8</ele>
        <time>2025-09-14T06:41:17Z</time>
      </trkpt>
      <trkpt lat="45.70505" lon="3.36412">
        <ele>479</ele>
        <time>2025-09-14T06:41:18Z</time>
      </trkpt>
      <trkpt lat="45.70503" lon="3.36415">
        <ele>479.2</ele>
        <time>2025-09-14T06:41:19Z</time>
      </trkpt>
      <trkpt lat="45.705" lon="3.36417">
        <ele>479.4</ele>
        <time>2025-09-14T06:41:20Z</time>
      </trkpt>
      <trkpt lat="45.70498" lon="3.3642">
        <ele>479.4</ele>
        <time>2025-09-14T06:41:21Z</time>
      </trkpt>
      <trkpt lat="45.70496" lon="3.36424">
        <ele>479.6</ele>
        <time>2025-09-14T06:41:22Z</time>
      </trkpt>
      <trkpt lat="45.70493" lon="3.36427">
        <ele>479.8</ele>
        <time>2025-09-14T06:41:23Z</time>
      </trkpt>
      <trkpt lat="45.70492" lon="3.36429">
        <ele>480</ele>
        <time>2025-09-14T06:41:24Z</time>
      </trkpt>
      <trkpt lat="45.7049" lon="3.36432">
        <ele>480.2</ele>
        <time>2025-09-14T06:41:25Z</time>
      </trkpt>
      <trkpt lat="45.70488" lon="3.36434">
        <ele>480.4</ele>
        <time>2025-09-14T06:41:26Z</time>
      </trkpt>
      <trkpt lat="45.70486" lon="3.36436">
        <ele>480.6</ele>
        <time>2025-09-14T06:41:27Z</time>
      </trkpt>
      <trkpt lat="45.70484" lon="3.3644">
        <ele>480.8</ele>
        <time>2025-09-14T06:41:28Z</time>
      </trkpt>
      <trkpt lat="45.70483" lon="3.36443">
        <ele>481</ele>
        <time>2025-09-14T06:41:29Z</time>
      </trkpt>
      <trkpt lat="45.70481" lon="3.36448">
        <ele>481.2</ele>
        <time>2025-09-14T06:41:30Z</time>
      </trkpt>
      <trkpt lat="45.70479" lon="3.36452">
        <ele>481.4</ele>
        <time>2025-09-14T06:41:31Z</time>
      </trkpt>
      <trkpt lat="45.70477" lon="3.36455">
        <ele>481.8</ele>
        <time>2025-09-14T06:41:32Z</time>
      </trkpt>
      <trkpt lat="45.70474" lon="3.36457">
        <ele>482</ele>
        <time>2025-09-14T06:41:33Z</time>
      </trkpt>
      <trkpt lat="45.70471" lon="3.36459">
        <ele>482.4</ele>
        <time>2025-09-14T06:41:34Z</time>
      </trkpt>
      <trkpt lat="45.70469" lon="3.36462">
        <ele>482.6</ele>
        <time>2025-09-14T06:41:35Z</time>
      </trkpt>
      <trkpt lat="45.70466" lon="3.36467">
        <ele>483</ele>
        <time>2025-09-14T06:41:36Z</time>
      </trkpt>
      <trkpt lat="45.70464" lon="3.36469">
        <ele>483.4</ele>
        <time>2025-09-14T06:41:37Z</time>
      </trkpt>
      <trkpt lat="45.70463" lon="3.36473">
        <ele>483.6</ele>
        <time>2025-09-14T06:41:38Z</time>
      </trkpt>
      <trkpt lat="45.70461" lon="3.36476">
        <ele>483.8</ele>
        <time>2025-09-14T06:41:39Z</time>
      </trkpt>
      <trkpt lat="45.70459" lon="3.36478">
        <ele>484</ele>
        <time>2025-09-14T06:41:40Z</time>
      </trkpt>
      <trkpt lat="45.70458" lon="3.3648">
        <ele>484.4</ele>
        <time>2025-09-14T06:41:41Z</time>
      </trkpt>
      <trkpt lat="45.70457" lon="3.36482">
        <ele>484.6</ele>
        <time>2025-09-14T06:41:42Z</time>
      </trkpt>
      <trkpt lat="45.70455" lon="3.36483">
        <ele>484.8</ele>
        <time>2025-09-14T06:41:43Z</time>
      </trkpt>
      <trkpt lat="45.70453" lon="3.36485">
        <ele>485</ele>
        <time>2025-09-14T06:41:44Z</time>
      </trkpt>
      <trkpt lat="45.70451" lon="3.36487">
        <ele>485.2</ele>
        <time>2025-09-14T06:41:45Z</time>
      </trkpt>
      <trkpt lat="45.70448" lon="3.36489">
        <ele>485.6</ele>
        <time>2025-09-14T06:41:46Z</time>
      </trkpt>
      <trkpt lat="45.70446" lon="3.36491">
        <ele>485.8</ele>
        <time>2025-09-14T06:41:47Z</time>
      </trkpt>
      <trkpt lat="45.70444" lon="3.36493">
        <ele>486</ele>
        <time>2025-09-14T06:41:48Z</time>
      </trkpt>
      <trkpt lat="45.70441" lon="3.36494">
        <ele>486.2</ele>
        <time>2025-09-14T06:41:49Z</time>
      </trkpt>
      <trkpt lat="45.70439" lon="3.36496">
        <ele>486.4</ele>
        <time>2025-09-14T06:41:50Z</time>
      </trkpt>
      <trkpt lat="45.70437" lon="3.36498">
        <ele>486.8</ele>
        <time>2025-09-14T06:41:51Z</time>
      </trkpt>
      <trkpt lat="45.70434" lon="3.365">
        <ele>487</ele>
        <time>2025-09-14T06:41:52Z</time>
      </trkpt>
      <trkpt lat="45.70432" lon="3.36502">
        <ele>487.2</ele>
        <time>2025-09-14T06:41:53Z</time>
      </trkpt>
      <trkpt lat="45.7043" lon="3.36504">
        <ele>487.4</ele>
        <time>2025-09-14T06:41:54Z</time>
      </trkpt>
      <trkpt lat="45.70428" lon="3.36506">
        <ele>487.6</ele>
        <time>2025-09-14T06:41:55Z</time>
      </trkpt>
      <trkpt lat="45.70426" lon="3.36508">
        <ele>487.8</ele>
        <time>2025-09-14T06:41:56Z</time>
      </trkpt>
      <trkpt lat="45.70424" lon="3.3651">
        <ele>488</ele>
        <time>2025-09-14T06:41:57Z</time>
      </trkpt>
      <trkpt lat="45.70421" lon="3.36512">
        <ele>488.2</ele>
        <time>2025-09-14T06:41:58Z</time>
      </trkpt>
      <trkpt lat="45.70419" lon="3.36514">
        <ele>488.4</ele>
        <time>2025-09-14T06:41:59Z</time>
      </trkpt>
      <trkpt lat="45.70418" lon="3.36517">
        <ele>488.8</ele>
        <time>2025-09-14T06:42:00Z</time>
      </trkpt>
      <trkpt lat="45.70416" lon="3.3652">
        <ele>489</ele>
        <time>2025-09-14T06:42:01Z</time>
      </trkpt>
      <trkpt lat="45.70414" lon="3.36522">
        <ele>489.2</ele>
        <time>2025-09-14T06:42:02Z</time>
      </trkpt>
      <trkpt lat="45.70412" lon="3.36525">
        <ele>489.4</ele>
        <time>2025-09-14T06:42:03Z</time>
      </trkpt>
      <trkpt lat="45.7041" lon="3.36527">
        <ele>489.6</ele>
        <time>2025-09-14T06:42:04Z</time>
      </trkpt>
      <trkpt lat="45.70408" lon="3.36529">
        <ele>489.8</ele>
        <time>2025-09-14T06:42:05Z</time>
      </trkpt>
      <trkpt lat="45.70406" lon="3.36531">
        <ele>490.2</ele>
        <time>2025-09-14T06:42:06Z</time>
      </trkpt>
      <trkpt lat="45.70405" lon="3.36533">
        <ele>490.4</ele>
        <time>2025-09-14T06:42:07Z</time>
      </trkpt>
      <trkpt lat="45.70403" lon="3.36534">
        <ele>490.6</ele>
        <time>2025-09-14T06:42:08Z</time>
      </trkpt>
      <trkpt lat="45.70402" lon="3.36535">
        <ele>491</ele>
        <time>2025-09-14T06:42:09Z</time>
      </trkpt>
      <trkpt lat="45.70401" lon="3.36535">
        <ele>491.2</ele>
        <time>2025-09-14T06:42:10Z</time>
      </trkpt>
      <trkpt lat="45.70398" lon="3.36534">
        <ele>491.4</ele>
        <time>2025-09-14T06:42:11Z</time>
      </trkpt>
      <trkpt lat="45.70396" lon="3.36533">
        <ele>491.8</ele>
        <time>2025-09-14T06:42:12Z</time>
      </trkpt>
      <trkpt lat="45.70393" lon="3.36532">
        <ele>492.2</ele>
        <time>2025-09-14T06:42:13Z</time>
      </trkpt>
      <trkpt lat="45.70391" lon="3.36531">
        <ele>492.4</ele>
        <time>2025-09-14T06:42:14Z</time>
      </trkpt>
      <trkpt lat="45.70389" lon="3.36529">
        <ele>492.8</ele>
        <time>2025-09-14T06:42:15Z</time>
      </trkpt>
      <trkpt lat="45.70386" lon="3.36528">
        <ele>493</ele>
        <time>2025-09-14T06:42:16Z</time>
      </trkpt>
      <trkpt lat="45.70383" lon="3.36527">
        <ele>493.4</ele>
        <time>2025-09-14T06:42:17Z</time>
      </trkpt>
      <trkpt lat="45.7038" lon="3.36525">
        <ele>493.6</ele>
        <time>2025-09-14T06:42:18Z</time>
      </trkpt>
      <trkpt lat="45.70377" lon="3.36523">
        <ele>494</ele>
        <time>2025-09-14T06:42:19Z</time>
      </trkpt>
      <trkpt lat="45.70375" lon="3.36521">
        <ele>494.2</ele>
        <time>2025-09-14T06:42:20Z</time>
      </trkpt>
      <trkpt lat="45.70373" lon="3.36519">
        <ele>494.4</ele>
        <time>2025-09-14T06:42:21Z</time>
      </trkpt>
      <trkpt lat="45.70371" lon="3.36516">
        <ele>494.6</ele>
        <time>2025-09-14T06:42:22Z</time>
      </trkpt>
      <trkpt lat="45.70369" lon="3.36514">
        <ele>494.8</ele>
        <time>2025-09-14T06:42:23Z</time>
      </trkpt>
      <trkpt lat="45.70366" lon="3.36511">
        <ele>495</ele>
        <time>2025-09-14T06:42:24Z</time>
      </trkpt>
      <trkpt lat="45.70365" lon="3.36509">
        <ele>495</ele>
        <time>2025-09-14T06:42:25Z</time>
      </trkpt>
      <trkpt lat="45.70363" lon="3.36506">
        <ele>495.2</ele>
        <time>2025-09-14T06:42:26Z</time>
      </trkpt>
      <trkpt lat="45.70361" lon="3.36503">
        <ele>495.4</ele>
        <time>2025-09-14T06:42:27Z</time>
      </trkpt>
      <trkpt lat="45.70359" lon="3.36501">
        <ele>495.4</ele>
        <time>2025-09-14T06:42:28Z</time>
      </trkpt>
      <trkpt lat="45.70357" lon="3.36498">
        <ele>495.4</ele>
        <time>2025-09-14T06:42:29Z</time>
      </trkpt>
      <trkpt lat="45.70354" lon="3.36495">
        <ele>495.4</ele>
        <time>2025-09-14T06:42:30Z</time>
      </trkpt>
      <trkpt lat="45.70351" lon="3.36492">
        <ele>495.4</ele>
        <time>2025-09-14T06:42:31Z</time>
      </trkpt>
      <trkpt lat="45.70348" lon="3.3649">
        <ele>495.4</ele>
        <time>2025-09-14T06:42:32Z</time>
      </trkpt>
      <trkpt lat="45.70345" lon="3.36489">
        <ele>495.6</ele>
        <time>2025-09-14T06:42:33Z</time>
      </trkpt>
      <trkpt lat="45.70342" lon="3.36488">
        <ele>495.6</ele>
        <time>2025-09-14T06:42:34Z</time>
      </trkpt>
      <trkpt lat="45.70338" lon="3.36487">
        <ele>495.8</ele>
        <time>2025-09-14T06:42:35Z</time>
      </trkpt>
      <trkpt lat="45.70335" lon="3.36487">
        <ele>496</ele>
        <time>2025-09-14T06:42:36Z</time>
      </trkpt>
      <trkpt lat="45.70332" lon="3.36488">
        <ele>496.4</ele>
        <time>2025-09-14T06:42:37Z</time>
      </trkpt>
      <trkpt lat="45.70329" lon="3.36489">
        <ele>496.6</ele>
        <time>2025-09-14T06:42:38Z</time>
      </trkpt>
      <trkpt lat="45.70327" lon="3.36491">
        <ele>496.8</ele>
        <time>2025-09-14T06:42:39Z</time>
      </trkpt>
      <trkpt lat="45.70324" lon="3.36492">
        <ele>497</ele>
        <time>2025-09-14T06:42:40Z</time>
      </trkpt>
      <trkpt lat="45.70321" lon="3.36493">
        <ele>497.2</ele>
        <time>2025-09-14T06:42:41Z</time>
      </trkpt>
      <trkpt lat="45.70319" lon="3.36494">
        <ele>497.6</ele>
        <time>2025-09-14T06:42:42Z</time>
      </trkpt>
      <trkpt lat="45.70317" lon="3.36496">
        <ele>497.8</ele>
        <time>2025-09-14T06:42:43Z</time>
      </trkpt>
      <trkpt lat="45.70315" lon="3.36497">
        <ele>498</ele>
        <time>2025-09-14T06:42:44Z</time>
      </trkpt>
      <trkpt lat="45.70313" lon="3.36499">
        <ele>498.2</ele>
        <time>2025-09-14T06:42:45Z</time>
      </trkpt>
      <trkpt lat="45.70311" lon="3.36501">
        <ele>498.6</ele>
        <time>2025-09-14T06:42:46Z</time>
      </trkpt>
      <trkpt lat="45.70308" lon="3.36503">
        <ele>498.8</ele>
        <time>2025-09-14T06:42:47Z</time>
      </trkpt>
      <trkpt lat="45.70306" lon="3.36504">
        <ele>499.2</ele>
        <time>2025-09-14T06:42:48Z</time>
      </trkpt>
      <trkpt lat="45.70303" lon="3.36505">
        <ele>499.4</ele>
        <time>2025-09-14T06:42:49Z</time>
      </trkpt>
      <trkpt lat="45.703" lon="3.36507">
        <ele>499.8</ele>
        <time>2025-09-14T06:42:50Z</time>
      </trkpt>
      <trkpt lat="45.70298" lon="3.36508">
        <ele>500</ele>
        <time>2025-09-14T06:42:51Z</time>
      </trkpt>
      <trkpt lat="45.70295" lon="3.36509">
        <ele>500.4</ele>
        <time>2025-09-14T06:42:52Z</time>
      </trkpt>
      <trkpt lat="45.70292" lon="3.3651">
        <ele>500.6</ele>
        <time>2025-09-14T06:42:53Z</time>
      </trkpt>
      <trkpt lat="45.7029" lon="3.36511">
        <ele>501</ele>
        <time>2025-09-14T06:42:54Z</time>
      </trkpt>
      <trkpt lat="45.70287" lon="3.36512">
        <ele>501.2</ele>
        <time>2025-09-14T06:42:55Z</time>
      </trkpt>
      <trkpt lat="45.70284" lon="3.36513">
        <ele>501.6</ele>
        <time>2025-09-14T06:42:56Z</time>
      </trkpt>
      <trkpt lat="45.70282" lon="3.36514">
        <ele>501.8</ele>
        <time>2025-09-14T06:42:57Z</time>
      </trkpt>
      <trkpt lat="45.70279" lon="3.36514">
        <ele>502</ele>
        <time>2025-09-14T06:42:58Z</time>
      </trkpt>
      <trkpt lat="45.70277" lon="3.36515">
        <ele>502.2</ele>
        <time>2025-09-14T06:42:59Z</time>
      </trkpt>
      <trkpt lat="45.70275" lon="3.36516">
        <ele>502.4</ele>
        <time>2025-09-14T06:43:00Z</time>
      </trkpt>
      <trkpt lat="45.70273" lon="3.36517">
        <ele>502.6</ele>
        <time>2025-09-14T06:43:01Z</time>
      </trkpt>
      <trkpt lat="45.70271" lon="3.36518">
        <ele>502.8</ele>
        <time>2025-09-14T06:43:02Z</time>
      </trkpt>
      <trkpt lat="45.7027" lon="3.36519">
        <ele>503</ele>
        <time>2025-09-14T06:43:03Z</time>
      </trkpt>
      <trkpt lat="45.70267" lon="3.3652">
        <ele>503.2</ele>
        <time>2025-09-14T06:43:04Z</time>
      </trkpt>
      <trkpt lat="45.70265" lon="3.36521">
        <ele>503.4</ele>
        <time>2025-09-14T06:43:05Z</time>
      </trkpt>
      <trkpt lat="45.70263" lon="3.36522">
        <ele>503.8</ele>
        <time>2025-09-14T06:43:06Z</time>
      </trkpt>
      <trkpt lat="45.70261" lon="3.36524">
        <ele>504</ele>
        <time>2025-09-14T06:43:07Z</time>
      </trkpt>
      <trkpt lat="45.70259" lon="3.36525">
        <ele>504</ele>
        <time>2025-09-14T06:43:08Z</time>
      </trkpt>
      <trkpt lat="45.70256" lon="3.36527">
        <ele>504.2</ele>
        <time>2025-09-14T06:43:09Z</time>
      </trkpt>
      <trkpt lat="45.70254" lon="3.36528">
        <ele>504.6</ele>
        <time>2025-09-14T06:43:10Z</time>
      </trkpt>
      <trkpt lat="45.70252" lon="3.36528">
        <ele>504.8</ele>
        <time>2025-09-14T06:43:11Z</time>
      </trkpt>
      <trkpt lat="45.7025" lon="3.36529">
        <ele>505</ele>
        <time>2025-09-14T06:43:12Z</time>
      </trkpt>
      <trkpt lat="45.70248" lon="3.3653">
        <ele>505.2</ele>
        <time>2025-09-14T06:43:13Z</time>
      </trkpt>
      <trkpt lat="45.70246" lon="3.36532">
        <ele>505.4</ele>
        <time>2025-09-14T06:43:14Z</time>
      </trkpt>
      <trkpt lat="45.70244" lon="3.36533">
        <ele>505.6</ele>
        <time>2025-09-14T06:43:15Z</time>
      </trkpt>
      <trkpt lat="45.70242" lon="3.36534">
        <ele>505.8</ele>
        <time>2025-09-14T06:43:16Z</time>
      </trkpt>
      <trkpt lat="45.70239" lon="3.36535">
        <ele>506</ele>
        <time>2025-09-14T06:43:17Z</time>
      </trkpt>
      <trkpt lat="45.70237" lon="3.36536">
        <ele>506.2</ele>
        <time>2025-09-14T06:43:18Z</time>
      </trkpt>
      <trkpt lat="45.70235" lon="3.36538">
        <ele>506.6</ele>
        <time>2025-09-14T06:43:19Z</time>
      </trkpt>
      <trkpt lat="45.70233" lon="3.36538">
        <ele>506.8</ele>
        <time>2025-09-14T06:43:20Z</time>
      </trkpt>
      <trkpt lat="45.70231" lon="3.36539">
        <ele>507.2</ele>
        <time>2025-09-14T06:43:21Z</time>
      </trkpt>
      <trkpt lat="45.70229" lon="3.36541">
        <ele>507.6</ele>
        <time>2025-09-14T06:43:22Z</time>
      </trkpt>
      <trkpt lat="45.70227" lon="3.36542">
        <ele>507.8</ele>
        <time>2025-09-14T06:43:23Z</time>
      </trkpt>
      <trkpt lat="45.70226" lon="3.36543">
        <ele>508.2</ele>
        <time>2025-09-14T06:43:24Z</time>
      </trkpt>
      <trkpt lat="45.70224" lon="3.36544">
        <ele>508.4</ele>
        <time>2025-09-14T06:43:25Z</time>
      </trkpt>
      <trkpt lat="45.70221" lon="3.36544">
        <ele>508.6</ele>
        <time>2025-09-14T06:43:26Z</time>
      </trkpt>
      <trkpt lat="45.70219" lon="3.36545">
        <ele>508.6</ele>
        <time>2025-09-14T06:43:27Z</time>
      </trkpt>
      <trkpt lat="45.70216" lon="3.36545">
        <ele>508.8</ele>
        <time>2025-09-14T06:43:28Z</time>
      </trkpt>
      <trkpt lat="45.70213" lon="3.36546">
        <ele>509</ele>
        <time>2025-09-14T06:43:29Z</time>
      </trkpt>
      <trkpt lat="45.70211" lon="3.36547">
        <ele>509.2</ele>
        <time>2025-09-14T06:43:30Z</time>
      </trkpt>
      <trkpt lat="45.70209" lon="3.36548">
        <ele>509.4</ele>
        <time>2025-09-14T06:43:31Z</time>
      </trkpt>
      <trkpt lat="45.70206" lon="3.36549">
        <ele>509.4</ele>
        <time>2025-09-14T06:43:32Z</time>
      </trkpt>
      <trkpt lat="45.70203" lon="3.36551">
        <ele>509.6</ele>
        <time>2025-09-14T06:43:33Z</time>
      </trkpt>
      <trkpt lat="45.70201" lon="3.36552">
        <ele>509.8</ele>
        <time>2025-09-14T06:43:34Z</time>
      </trkpt>
      <trkpt lat="45.70199" lon="3.36553">
        <ele>510</ele>
        <time>2025-09-14T06:43:35Z</time>
      </trkpt>
      <trkpt lat="45.70197" lon="3.36554">
        <ele>510</ele>
        <time>2025-09-14T06:43:36Z</time>
      </trkpt>
      <trkpt lat="45.70195" lon="3.36556">
        <ele>510.2</ele>
        <time>2025-09-14T06:43:37Z</time>
      </trkpt>
      <trkpt lat="45.70192" lon="3.36557">
        <ele>510.4</ele>
        <time>2025-09-14T06:43:38Z</time>
      </trkpt>
      <trkpt lat="45.7019" lon="3.36559">
        <ele>510.6</ele>
        <time>2025-09-14T06:43:39Z</time>
      </trkpt>
      <trkpt lat="45.70188" lon="3.3656">
        <ele>510.6</ele>
        <time>2025-09-14T06:43:40Z</time>
      </trkpt>
      <trkpt lat="45.70186" lon="3.36562">
        <ele>510.8</ele>
        <time>2025-09-14T06:43:41Z</time>
      </trkpt>
      <trkpt lat="45.70183" lon="3.36563">
        <ele>511</ele>
        <time>2025-09-14T06:43:42Z</time>
      </trkpt>
      <trkpt lat="45.70181" lon="3.36565">
        <ele>511.2</ele>
        <time>2025-09-14T06:43:43Z</time>
      </trkpt>
      <trkpt lat="45.70179" lon="3.36566">
        <ele>511.2</ele>
        <time>2025-09-14T06:43:44Z</time>
      </trkpt>
      <trkpt lat="45.70176" lon="3.36567">
        <ele>511.4</ele>
        <time>2025-09-14T06:43:45Z</time>
      </trkpt>
      <trkpt lat="45.70174" lon="3.36569">
        <ele>511.6</ele>
        <time>2025-09-14T06:43:46Z</time>
      </trkpt>
      <trkpt lat="45.70172" lon="3.3657">
        <ele>511.8</ele>
        <time>2025-09-14T06:43:47Z</time>
      </trkpt>
      <trkpt lat="45.70169" lon="3.36571">
        <ele>511.8</ele>
        <time>2025-09-14T06:43:48Z</time>
      </trkpt>
      <trkpt lat="45.70167" lon="3.36573">
        <ele>512</ele>
        <time>2025-09-14T06:43:49Z</time>
      </trkpt>
      <trkpt lat="45.70165" lon="3.36574">
        <ele>512.2</ele>
        <time>2025-09-14T06:43:50Z</time>
      </trkpt>
      <trkpt lat="45.70163" lon="3.36576">
        <ele>512.4</ele>
        <time>2025-09-14T06:43:51Z</time>
      </trkpt>
      <trkpt lat="45.7016" lon="3.36577">
        <ele>512.6</ele>
        <time>2025-09-14T06:43:52Z</time>
      </trkpt>
      <trkpt lat="45.70158" lon="3.36579">
        <ele>512.8</ele>
        <time>2025-09-14T06:43:53Z</time>
      </trkpt>
      <trkpt lat="45.70156" lon="3.3658">
        <ele>513</ele>
        <time>2025-09-14T06:43:54Z</time>
      </trkpt>
      <trkpt lat="45.70154" lon="3.36582">
        <ele>513.2</ele>
        <time>2025-09-14T06:43:55Z</time>
      </trkpt>
      <trkpt lat="45.70152" lon="3.36583">
        <ele>513.4</ele>
        <time>2025-09-14T06:43:56Z</time>
      </trkpt>
      <trkpt lat="45.7015" lon="3.36584">
        <ele>513.6</ele>
        <time>2025-09-14T06:43:57Z</time>
      </trkpt>
      <trkpt lat="45.70147" lon="3.36586">
        <ele>513.8</ele>
        <time>2025-09-14T06:43:58Z</time>
      </trkpt>
      <trkpt lat="45.70145" lon="3.36587">
        <ele>514</ele>
        <time>2025-09-14T06:43:59Z</time>
      </trkpt>
      <trkpt lat="45.70143" lon="3.36588">
        <ele>514.2</ele>
        <time>2025-09-14T06:44:00Z</time>
      </trkpt>
      <trkpt lat="45.70141" lon="3.3659">
        <ele>514.4</ele>
        <time>2025-09-14T06:44:01Z</time>
      </trkpt>
      <trkpt lat="45.70139" lon="3.36591">
        <ele>514.6</ele>
        <time>2025-09-14T06:44:02Z</time>
      </trkpt>
      <trkpt lat="45.70137" lon="3.36593">
        <ele>515</ele>
        <time>2025-09-14T06:44:03Z</time>
      </trkpt>
      <trkpt lat="45.70135" lon="3.36594">
        <ele>515.2</ele>
        <time>2025-09-14T06:44:04Z</time>
      </trkpt>
      <trkpt lat="45.70133" lon="3.36595">
        <ele>515.4</ele>
        <time>2025-09-14T06:44:05Z</time>
      </trkpt>
      <trkpt lat="45.70131" lon="3.36596">
        <ele>515.6</ele>
        <time>2025-09-14T06:44:06Z</time>
      </trkpt>
      <trkpt lat="45.70129" lon="3.36597">
        <ele>515.8</ele>
        <time>2025-09-14T06:44:07Z</time>
      </trkpt>
      <trkpt lat="45.70126" lon="3.36599">
        <ele>516</ele>
        <time>2025-09-14T06:44:08Z</time>
      </trkpt>
      <trkpt lat="45.70124" lon="3.366">
        <ele>516.2</ele>
        <time>2025-09-14T06:44:09Z</time>
      </trkpt>
      <trkpt lat="45.70122" lon="3.36602">
        <ele>516.4</ele>
        <time>2025-09-14T06:44:10Z</time>
      </trkpt>
      <trkpt lat="45.7012" lon="3.36603">
        <ele>516.6</ele>
        <time>2025-09-14T06:44:11Z</time>
      </trkpt>
      <trkpt lat="45.70118" lon="3.36605">
        <ele>516.8</ele>
        <time>2025-09-14T06:44:12Z</time>
      </trkpt>
      <trkpt lat="45.70115" lon="3.36606">
        <ele>517</ele>
        <time>2025-09-14T06:44:13Z</time>
      </trkpt>
      <trkpt lat="45.70113" lon="3.36607">
        <ele>517.2</ele>
        <time>2025-09-14T06:44:14Z</time>
      </trkpt>
      <trkpt lat="45.70111" lon="3.36608">
        <ele>517.4</ele>
        <time>2025-09-14T06:44:15Z</time>
      </trkpt>
      <trkpt lat="45.70108" lon="3.36609">
        <ele>517.6</ele>
        <time>2025-09-14T06:44:16Z</time>
      </trkpt>
      <trkpt lat="45.70106" lon="3.3661">
        <ele>517.8</ele>
        <time>2025-09-14T06:44:17Z</time>
      </trkpt>
      <trkpt lat="45.70104" lon="3.36611">
        <ele>518</ele>
        <time>2025-09-14T06:44:18Z</time>
      </trkpt>
      <trkpt lat="45.70102" lon="3.36613">
        <ele>518.2</ele>
        <time>2025-09-14T06:44:19Z</time>
      </trkpt>
      <trkpt lat="45.70101" lon="3.36614">
        <ele>518.4</ele>
        <time>2025-09-14T06:44:20Z</time>
      </trkpt>
      <trkpt lat="45.70099" lon="3.36616">
        <ele>518.6</ele>
        <time>2025-09-14T06:44:21Z</time>
      </trkpt>
      <trkpt lat="45.70097" lon="3.36618">
        <ele>519</ele>
        <time>2025-09-14T06:44:22Z</time>
      </trkpt>
      <trkpt lat="45.70094" lon="3.36619">
        <ele>519.2</ele>
        <time>2025-09-14T06:44:23Z</time>
      </trkpt>
      <trkpt lat="45.70092" lon="3.36621">
        <ele>519.4</ele>
        <time>2025-09-14T06:44:24Z</time>
      </trkpt>
      <trkpt lat="45.70089" lon="3.36622">
        <ele>519.8</ele>
        <time>2025-09-14T06:44:25Z</time>
      </trkpt>
      <trkpt lat="45.70087" lon="3.36624">
        <ele>520</ele>
        <time>2025-09-14T06:44:26Z</time>
      </trkpt>
      <trkpt lat="45.70085" lon="3.36626">
        <ele>520.2</ele>
        <time>2025-09-14T06:44:27Z</time>
      </trkpt>
      <trkpt lat="45.70082" lon="3.36627">
        <ele>520.6</ele>
        <time>2025-09-14T06:44:28Z</time>
      </trkpt>
      <trkpt lat="45.70079" lon="3.36629">
        <ele>520.8</ele>
        <time>2025-09-14T06:44:29Z</time>
      </trkpt>
      <trkpt lat="45.70077" lon="3.3663">
        <ele>521.2</ele>
        <time>2025-09-14T06:44:30Z</time>
      </trkpt>
      <trkpt lat="45.70074" lon="3.36631">
        <ele>521.4</ele>
        <time>2025-09-14T06:44:31Z</time>
      </trkpt>
      <trkpt lat="45.70071" lon="3.36631">
        <ele>521.6</ele>
        <time>2025-09-14T06:44:32Z</time>
      </trkpt>
      <trkpt lat="45.70069" lon="3.36632">
        <ele>522</ele>
        <time>2025-09-14T06:44:33Z</time>
      </trkpt>
      <trkpt lat="45.70066" lon="3.36632">
        <ele>522.2</ele>
        <time>2025-09-14T06:44:34Z</time>
      </trkpt>
      <trkpt lat="45.70063" lon="3.36631">
        <ele>522.4</ele>
        <time>2025-09-14T06:44:35Z</time>
      </trkpt>
      <trkpt lat="45.7006" lon="3.3663">
        <ele>522.6</ele>
        <time>2025-09-14T06:44:36Z</time>
      </trkpt>
      <trkpt lat="45.70057" lon="3.36629">
        <ele>522.6</ele>
        <time>2025-09-14T06:44:37Z</time>
      </trkpt>
      <trkpt lat="45.70053" lon="3.36627">
        <ele>522.8</ele>
        <time>2025-09-14T06:44:38Z</time>
      </trkpt>
      <trkpt lat="45.7005" lon="3.36626">
        <ele>523</ele>
        <time>2025-09-14T06:44:39Z</time>
      </trkpt>
      <trkpt lat="45.70047" lon="3.36625">
        <ele>523.2</ele>
        <time>2025-09-14T06:44:40Z</time>
      </trkpt>
      <trkpt lat="45.70044" lon="3.36625">
        <ele>523.4</ele>
        <time>2025-09-14T06:44:41Z</time>
      </trkpt>
      <trkpt lat="45.7004" lon="3.36624">
        <ele>523.6</ele>
        <time>2025-09-14T06:44:42Z</time>
      </trkpt>
      <trkpt lat="45.70037" lon="3.36624">
        <ele>523.6</ele>
        <time>2025-09-14T06:44:43Z</time>
      </trkpt>
      <trkpt lat="45.70033" lon="3.36624">
        <ele>523.8</ele>
        <time>2025-09-14T06:44:44Z</time>
      </trkpt>
      <trkpt lat="45.7003" lon="3.36624">
        <ele>524</ele>
        <time>2025-09-14T06:44:45Z</time>
      </trkpt>
      <trkpt lat="45.70027" lon="3.36624">
        <ele>524.2</ele>
        <time>2025-09-14T06:44:46Z</time>
      </trkpt>
      <trkpt lat="45.70024" lon="3.36625">
        <ele>524.2</ele>
        <time>2025-09-14T06:44:47Z</time>
      </trkpt>
      <trkpt lat="45.70022" lon="3.36625">
        <ele>524.4</ele>
        <time>2025-09-14T06:44:48Z</time>
      </trkpt>
      <trkpt lat="45.7002" lon="3.36626">
        <ele>524.6</ele>
        <time>2025-09-14T06:44:49Z</time>
      </trkpt>
      <trkpt lat="45.70019" lon="3.36626">
        <ele>524.8</ele>
        <time>2025-09-14T06:44:50Z</time>
      </trkpt>
      <trkpt lat="45.70016" lon="3.36627">
        <ele>525</ele>
        <time>2025-09-14T06:44:51Z</time>
      </trkpt>
      <trkpt lat="45.70014" lon="3.36627">
        <ele>525.2</ele>
        <time>2025-09-14T06:44:52Z</time>
      </trkpt>
      <trkpt lat="45.70011" lon="3.36628">
        <ele>525.6</ele>
        <time>2025-09-14T06:44:53Z</time>
      </trkpt>
      <trkpt lat="45.70009" lon="3.3663">
        <ele>525.8</ele>
        <time>2025-09-14T06:44:54Z</time>
      </trkpt>
      <trkpt lat="45.70007" lon="3.36631">
        <ele>526</ele>
        <time>2025-09-14T06:44:55Z</time>
      </trkpt>
      <trkpt lat="45.70004" lon="3.36632">
        <ele>526.2</ele>
        <time>2025-09-14T06:44:56Z</time>
      </trkpt>
      <trkpt lat="45.70001" lon="3.36633">
        <ele>526.6</ele>
        <time>2025-09-14T06:44:57Z</time>
      </trkpt>
      <trkpt lat="45.69998" lon="3.36634">
        <ele>526.8</ele>
        <time>2025-09-14T06:44:58Z</time>
      </trkpt>
      <trkpt lat="45.69995" lon="3.36635">
        <ele>527</ele>
        <time>2025-09-14T06:44:59Z</time>
      </trkpt>
      <trkpt lat="45.69992" lon="3.36635">
        <ele>527.4</ele>
        <time>2025-09-14T06:45:00Z</time>
      </trkpt>
      <trkpt lat="45.69989" lon="3.36635">
        <ele>527.6</ele>
        <time>2025-09-14T06:45:01Z</time>
      </trkpt>
      <trkpt lat="45.69985" lon="3.36635">
        <ele>528</ele>
        <time>2025-09-14T06:45:02Z</time>
      </trkpt>
      <trkpt lat="45.69981" lon="3.36634">
        <ele>528.2</ele>
        <time>2025-09-14T06:45:03Z</time>
      </trkpt>
      <trkpt lat="45.69977" lon="3.36632">
        <ele>528.6</ele>
        <time>2025-09-14T06:45:04Z</time>
      </trkpt>
      <trkpt lat="45.69973" lon="3.36631">
        <ele>528.8</ele>
        <time>2025-09-14T06:45:05Z</time>
      </trkpt>
      <trkpt lat="45.69968" lon="3.36631">
        <ele>529</ele>
        <time>2025-09-14T06:45:06Z</time>
      </trkpt>
      <trkpt lat="45.69964" lon="3.36632">
        <ele>529.2</ele>
        <time>2025-09-14T06:45:07Z</time>
      </trkpt>
      <trkpt lat="45.6996" lon="3.36633">
        <ele>529.4</ele>
        <time>2025-09-14T06:45:08Z</time>
      </trkpt>
      <trkpt lat="45.69957" lon="3.36632">
        <ele>529.6</ele>
        <time>2025-09-14T06:45:09Z</time>
      </trkpt>
      <trkpt lat="45.69954" lon="3.36631">
        <ele>529.8</ele>
        <time>2025-09-14T06:45:10Z</time>
      </trkpt>
      <trkpt lat="45.6995" lon="3.36629">
        <ele>530</ele>
        <time>2025-09-14T06:45:11Z</time>
      </trkpt>
      <trkpt lat="45.69946" lon="3.36628">
        <ele>530.2</ele>
        <time>2025-09-14T06:45:12Z</time>
      </trkpt>
      <trkpt lat="45.69941" lon="3.36626">
        <ele>530.6</ele>
        <time>2025-09-14T06:45:13Z</time>
      </trkpt>
      <trkpt lat="45.69937" lon="3.36625">
        <ele>530.6</ele>
        <time>2025-09-14T06:45:14Z</time>
      </trkpt>
      <trkpt lat="45.69934" lon="3.36624">
        <ele>530.8</ele>
        <time>2025-09-14T06:45:15Z</time>
      </trkpt>
      <trkpt lat="45.69931" lon="3.36624">
        <ele>531</ele>
        <time>2025-09-14T06:45:16Z</time>
      </trkpt>
      <trkpt lat="45.69927" lon="3.36623">
        <ele>531.2</ele>
        <time>2025-09-14T06:45:17Z</time>
      </trkpt>
      <trkpt lat="45.69924" lon="3.3662">
        <ele>531.2</ele>
        <time>2025-09-14T06:45:18Z</time>
      </trkpt>
      <trkpt lat="45.69921" lon="3.36617">
        <ele>531.4</ele>
        <time>2025-09-14T06:45:19Z</time>
      </trkpt>
      <trkpt lat="45.69917" lon="3.36616">
        <ele>531.6</ele>
        <time>2025-09-14T06:45:20Z</time>
      </trkpt>
      <trkpt lat="45.69914" lon="3.36616">
        <ele>531.6</ele>
        <time>2025-09-14T06:45:21Z</time>
      </trkpt>
      <trkpt lat="45.69911" lon="3.36614">
        <ele>531.8</ele>
        <time>2025-09-14T06:45:22Z</time>
      </trkpt>
      <trkpt lat="45.69908" lon="3.36613">
        <ele>531.8</ele>
        <time>2025-09-14T06:45:23Z</time>
      </trkpt>
      <trkpt lat="45.69905" lon="3.36612">
        <ele>532</ele>
        <time>2025-09-14T06:45:24Z</time>
      </trkpt>
      <trkpt lat="45.69902" lon="3.36611">
        <ele>532</ele>
        <time>2025-09-14T06:45:25Z</time>
      </trkpt>
      <trkpt lat="45.69897" lon="3.3661">
        <ele>532.2</ele>
        <time>2025-09-14T06:45:26Z</time>
      </trkpt>
      <trkpt lat="45.69894" lon="3.3661">
        <ele>532.4</ele>
        <time>2025-09-14T06:45:27Z</time>
      </trkpt>
      <trkpt lat="45.69891" lon="3.36609">
        <ele>532.6</ele>
        <time>2025-09-14T06:45:28Z</time>
      </trkpt>
      <trkpt lat="45.69888" lon="3.36607">
        <ele>532.6</ele>
        <time>2025-09-14T06:45:29Z</time>
      </trkpt>
      <trkpt lat="45.69885" lon="3.36606">
        <ele>532.8</ele>
        <time>2025-09-14T06:45:30Z</time>
      </trkpt>
      <trkpt lat="45.69883" lon="3.36605">
        <ele>533</ele>
        <time>2025-09-14T06:45:31Z</time>
      </trkpt>
      <trkpt lat="45.69881" lon="3.36604">
        <ele>533.2</ele>
        <time>2025-09-14T06:45:32Z</time>
      </trkpt>
      <trkpt lat="45.6988" lon="3.36604">
        <ele>533.4</ele>
        <time>2025-09-14T06:45:33Z</time>
      </trkpt>
      <trkpt lat="45.69878" lon="3.36602">
        <ele>533.6</ele>
        <time>2025-09-14T06:45:34Z</time>
      </trkpt>
      <trkpt lat="45.69875" lon="3.36601">
        <ele>533.8</ele>
        <time>2025-09-14T06:45:35Z</time>
      </trkpt>
      <trkpt lat="45.69872" lon="3.366">
        <ele>534</ele>
        <time>2025-09-14T06:45:36Z</time>
      </trkpt>
      <trkpt lat="45.6987" lon="3.36599">
        <ele>534.2</ele>
        <time>2025-09-14T06:45:37Z</time>
      </trkpt>
      <trkpt lat="45.69867" lon="3.36598">
        <ele>534.4</ele>
        <time>2025-09-14T06:45:38Z</time>
      </trkpt>
      <trkpt lat="45.69865" lon="3.36598">
        <ele>534.6</ele>
        <time>2025-09-14T06:45:39Z</time>
      </trkpt>
      <trkpt lat="45.69863" lon="3.36597">
        <ele>534.8</ele>
        <time>2025-09-14T06:45:40Z</time>
      </trkpt>
      <trkpt lat="45.69861" lon="3.36597">
        <ele>535.2</ele>
        <time>2025-09-14T06:45:41Z</time>
      </trkpt>
      <trkpt lat="45.69859" lon="3.36596">
        <ele>535.4</ele>
        <time>2025-09-14T06:45:42Z</time>
      </trkpt>
      <trkpt lat="45.69857" lon="3.36595">
        <ele>535.6</ele>
        <time>2025-09-14T06:45:43Z</time>
      </trkpt>
      <trkpt lat="45.69855" lon="3.36594">
        <ele>536</ele>
        <time>2025-09-14T06:45:44Z</time>
      </trkpt>
      <trkpt lat="45.69852" lon="3.36593">
        <ele>536.2</ele>
        <time>2025-09-14T06:45:45Z</time>
      </trkpt>
      <trkpt lat="45.69848" lon="3.36592">
        <ele>536.6</ele>
        <time>2025-09-14T06:45:46Z</time>
      </trkpt>
      <trkpt lat="45.69843" lon="3.36589">
        <ele>536.8</ele>
        <time>2025-09-14T06:45:47Z</time>
      </trkpt>
      <trkpt lat="45.69839" lon="3.36588">
        <ele>537.2</ele>
        <time>2025-09-14T06:45:48Z</time>
      </trkpt>
      <trkpt lat="45.69836" lon="3.36588">
        <ele>537.6</ele>
        <time>2025-09-14T06:45:49Z</time>
      </trkpt>
      <trkpt lat="45.69832" lon="3.36587">
        <ele>538</ele>
        <time>2025-09-14T06:45:50Z</time>
      </trkpt>
      <trkpt lat="45.69828" lon="3.36584">
        <ele>538.2</ele>
        <time>2025-09-14T06:45:51Z</time>
      </trkpt>
      <trkpt lat="45.69824" lon="3.3658">
        <ele>538.6</ele>
        <time>2025-09-14T06:45:52Z</time>
      </trkpt>
      <trkpt lat="45.6982" lon="3.36578">
        <ele>539</ele>
        <time>2025-09-14T06:45:53Z</time>
      </trkpt>
      <trkpt lat="45.69817" lon="3.36578">
        <ele>539.4</ele>
        <time>2025-09-14T06:45:54Z</time>
      </trkpt>
      <trkpt lat="45.69813" lon="3.36578">
        <ele>539.8</ele>
        <time>2025-09-14T06:45:55Z</time>
      </trkpt>
      <trkpt lat="45.69811" lon="3.36578">
        <ele>540.2</ele>
        <time>2025-09-14T06:45:56Z</time>
      </trkpt>
      <trkpt lat="45.69808" lon="3.36577">
        <ele>540.6</ele>
        <time>2025-09-14T06:45:57Z</time>
      </trkpt>
      <trkpt lat="45.69805" lon="3.36575">
        <ele>541</ele>
        <time>2025-09-14T06:45:58Z</time>
      </trkpt>
      <trkpt lat="45.69802" lon="3.36573">
        <ele>541.2</ele>
        <time>2025-09-14T06:45:59Z</time>
      </trkpt>
      <trkpt lat="45.69798" lon="3.36572">
        <ele>541.6</ele>
        <time>2025-09-14T06:46:00Z</time>
      </trkpt>
      <trkpt lat="45.69793" lon="3.36572">
        <ele>541.8</ele>
        <time>2025-09-14T06:46:01Z</time>
      </trkpt>
      <trkpt lat="45.69789" lon="3.36571">
        <ele>542.2</ele>
        <time>2025-09-14T06:46:02Z</time>
      </trkpt>
      <trkpt lat="45.69785" lon="3.3657">
        <ele>542.4</ele>
        <time>2025-09-14T06:46:03Z</time>
      </trkpt>
      <trkpt lat="45.69782" lon="3.3657">
        <ele>542.8</ele>
        <time>2025-09-14T06:46:04Z</time>
      </trkpt>
      <trkpt lat="45.6978" lon="3.3657">
        <ele>543.2</ele>
        <time>2025-09-14T06:46:05Z</time>
      </trkpt>
      <trkpt lat="45.69778" lon="3.36569">
        <ele>543.4</ele>
        <time>2025-09-14T06:46:06Z</time>
      </trkpt>
      <trkpt lat="45.69776" lon="3.36571">
        <ele>543.8</ele>
        <time>2025-09-14T06:46:07Z</time>
      </trkpt>
      <trkpt lat="45.69774" lon="3.36572">
        <ele>544</ele>
        <time>2025-09-14T06:46:08Z</time>
      </trkpt>
      <trkpt lat="45.69772" lon="3.36573">
        <ele>544.4</ele>
        <time>2025-09-14T06:46:09Z</time>
      </trkpt>
      <trkpt lat="45.6977" lon="3.36573">
        <ele>544.6</ele>
        <time>2025-09-14T06:46:10Z</time>
      </trkpt>
      <trkpt lat="45.69767" lon="3.36574">
        <ele>545</ele>
        <time>2025-09-14T06:46:11Z</time>
      </trkpt>
      <trkpt lat="45.69765" lon="3.36574">
        <ele>545.2</ele>
        <time>2025-09-14T06:46:12Z</time>
      </trkpt>
      <trkpt lat="45.69763" lon="3.36575">
        <ele>545.4</ele>
        <time>2025-09-14T06:46:13Z</time>
      </trkpt>
      <trkpt lat="45.6976" lon="3.36575">
        <ele>545.6</ele>
        <time>2025-09-14T06:46:14Z</time>
      </trkpt>
      <trkpt lat="45.69757" lon="3.36575">
        <ele>546</ele>
        <time>2025-09-14T06:46:15Z</time>
      </trkpt>
      <trkpt lat="45.69755" lon="3.36575">
        <ele>546.2</ele>
        <time>2025-09-14T06:46:16Z</time>
      </trkpt>
      <trkpt lat="45.69753" lon="3.36575">
        <ele>546.4</ele>
        <time>2025-09-14T06:46:17Z</time>
      </trkpt>
      <trkpt lat="45.69751" lon="3.36575">
        <ele>546.8</ele>
        <time>2025-09-14T06:46:18Z</time>
      </trkpt>
      <trkpt lat="45.69749" lon="3.36576">
        <ele>547</ele>
        <time>2025-09-14T06:46:19Z</time>
      </trkpt>
      <trkpt lat="45.69746" lon="3.36576">
        <ele>547.2</ele>
        <time>2025-09-14T06:46:20Z</time>
      </trkpt>
      <trkpt lat="45.69744" lon="3.36577">
        <ele>547.4</ele>
        <time>2025-09-14T06:46:21Z</time>
      </trkpt>
      <trkpt lat="45.69741" lon="3.36577">
        <ele>547.6</ele>
        <time>2025-09-14T06:46:22Z</time>
      </trkpt>
      <trkpt lat="45.69738" lon="3.36577">
        <ele>547.8</ele>
        <time>2025-09-14T06:46:23Z</time>
      </trkpt>
      <trkpt lat="45.69736" lon="3.36578">
        <ele>548.2</ele>
        <time>2025-09-14T06:46:24Z</time>
      </trkpt>
      <trkpt lat="45.69732" lon="3.36578">
        <ele>548.4</ele>
        <time>2025-09-14T06:46:25Z</time>
      </trkpt>
      <trkpt lat="45.69728" lon="3.36578">
        <ele>548.6</ele>
        <time>2025-09-14T06:46:26Z</time>
      </trkpt>
      <trkpt lat="45.69725" lon="3.36578">
        <ele>548.8</ele>
        <time>2025-09-14T06:46:27Z</time>
      </trkpt>
      <trkpt lat="45.69721" lon="3.36577">
        <ele>549.2</ele>
        <time>2025-09-14T06:46:28Z</time>
      </trkpt>
      <trkpt lat="45.69718" lon="3.36576">
        <ele>549.4</ele>
        <time>2025-09-14T06:46:29Z</time>
      </trkpt>
      <trkpt lat="45.69716" lon="3.36575">
        <ele>549.6</ele>
        <time>2025-09-14T06:46:30Z</time>
      </trkpt>
      <trkpt lat="45.69714" lon="3.36573">
        <ele>549.8</ele>
        <time>2025-09-14T06:46:31Z</time>
      </trkpt>
      <trkpt lat="45.69711" lon="3.36572">
        <ele>550</ele>
        <time>2025-09-14T06:46:32Z</time>
      </trkpt>
      <trkpt lat="45.69708" lon="3.36571">
        <ele>550.4</ele>
        <time>2025-09-14T06:46:33Z</time>
      </trkpt>
      <trkpt lat="45.69706" lon="3.36569">
        <ele>550.6</ele>
        <time>2025-09-14T06:46:34Z</time>
      </trkpt>
      <trkpt lat="45.69703" lon="3.36567">
        <ele>551</ele>
        <time>2025-09-14T06:46:35Z</time>
      </trkpt>
      <trkpt lat="45.697" lon="3.36565">
        <ele>551.2</ele>
        <time>2025-09-14T06:46:36Z</time>
      </trkpt>
      <trkpt lat="45.69697" lon="3.36563">
        <ele>551.6</ele>
        <time>2025-09-14T06:46:37Z</time>
      </trkpt>
      <trkpt lat="45.69695" lon="3.36561">
        <ele>552</ele>
        <time>2025-09-14T06:46:38Z</time>
      </trkpt>
      <trkpt lat="45.69692" lon="3.3656">
        <ele>552.2</ele>
        <time>2025-09-14T06:46:39Z</time>
      </trkpt>
      <trkpt lat="45.69691" lon="3.36559">
        <ele>552.6</ele>
        <time>2025-09-14T06:46:40Z</time>
      </trkpt>
      <trkpt lat="45.69689" lon="3.36557">
        <ele>552.8</ele>
        <time>2025-09-14T06:46:41Z</time>
      </trkpt>
      <trkpt lat="45.69687" lon="3.36556">
        <ele>553.2</ele>
        <time>2025-09-14T06:46:42Z</time>
      </trkpt>
      <trkpt lat="45.69685" lon="3.36555">
        <ele>553.6</ele>
        <time>2025-09-14T06:46:43Z</time>
      </trkpt>
      <trkpt lat="45.69683" lon="3.36553">
        <ele>553.8</ele>
        <time>2025-09-14T06:46:44Z</time>
      </trkpt>
      <trkpt lat="45.69681" lon="3.36552">
        <ele>554.2</ele>
        <time>2025-09-14T06:46:45Z</time>
      </trkpt>
      <trkpt lat="45.69679" lon="3.3655">
        <ele>554.6</ele>
        <time>2025-09-14T06:46:46Z</time>
      </trkpt>
      <trkpt lat="45.69677" lon="3.36548">
        <ele>554.8</ele>
        <time>2025-09-14T06:46:47Z</time>
      </trkpt>
      <trkpt lat="45.69675" lon="3.36547">
        <ele>555</ele>
        <time>2025-09-14T06:46:48Z</time>
      </trkpt>
      <trkpt lat="45.69673" lon="3.36546">
        <ele>555.2</ele>
        <time>2025-09-14T06:46:49Z</time>
      </trkpt>
      <trkpt lat="45.69671" lon="3.36544">
        <ele>555.6</ele>
        <time>2025-09-14T06:46:50Z</time>
      </trkpt>
      <trkpt lat="45.69669" lon="3.36543">
        <ele>556</ele>
        <time>2025-09-14T06:46:51Z</time>
      </trkpt>
      <trkpt lat="45.69667" lon="3.36542">
        <ele>556.2</ele>
        <time>2025-09-14T06:46:52Z</time>
      </trkpt>
      <trkpt lat="45.69665" lon="3.36541">
        <ele>556.6</ele>
        <time>2025-09-14T06:46:53Z</time>
      </trkpt>
      <trkpt lat="45.69663" lon="3.3654">
        <ele>556.8</ele>
        <time>2025-09-14T06:46:54Z</time>
      </trkpt>
      <trkpt lat="45.6966" lon="3.36538">
        <ele>557.2</ele>
        <time>2025-09-14T06:46:55Z</time>
      </trkpt>
      <trkpt lat="45.69658" lon="3.36536">
        <ele>557.4</ele>
        <time>2025-09-14T06:46:56Z</time>
      </trkpt>
      <trkpt lat="45.69656" lon="3.36534">
        <ele>557.8</ele>
        <time>2025-09-14T06:46:57Z</time>
      </trkpt>
      <trkpt lat="45.69654" lon="3.36533">
        <ele>558</ele>
        <time>2025-09-14T06:46:58Z</time>
      </trkpt>
      <trkpt lat="45.69652" lon="3.36531">
        <ele>558.4</ele>
        <time>2025-09-14T06:46:59Z</time>
      </trkpt>
      <trkpt lat="45.6965" lon="3.36529">
        <ele>558.6</ele>
        <time>2025-09-14T06:47:00Z</time>
      </trkpt>
      <trkpt lat="45.69648" lon="3.36527">
        <ele>558.8</ele>
        <time>2025-09-14T06:47:01Z</time>
      </trkpt>
      <trkpt lat="45.69647" lon="3.36525">
        <ele>559</ele>
        <time>2025-09-14T06:47:02Z</time>
      </trkpt>
      <trkpt lat="45.69645" lon="3.36524">
        <ele>559.4</ele>
        <time>2025-09-14T06:47:03Z</time>
      </trkpt>
      <trkpt lat="45.69643" lon="3.36521">
        <ele>559.6</ele>
        <time>2025-09-14T06:47:04Z</time>
      </trkpt>
      <trkpt lat="45.69641" lon="3.3652">
        <ele>560</ele>
        <time>2025-09-14T06:47:05Z</time>
      </trkpt>
      <trkpt lat="45.69639" lon="3.36518">
        <ele>560.2</ele>
        <time>2025-09-14T06:47:06Z</time>
      </trkpt>
      <trkpt lat="45.69637" lon="3.36516">
        <ele>560.4</ele>
        <time>2025-09-14T06:47:07Z</time>
      </trkpt>
      <trkpt lat="45.69636" lon="3.36514">
        <ele>560.8</ele>
        <time>2025-09-14T06:47:08Z</time>
      </trkpt>
      <trkpt lat="45.69634" lon="3.36511">
        <ele>561</ele>
        <time>2025-09-14T06:47:09Z</time>
      </trkpt>
      <trkpt lat="45.69633" lon="3.36509">
        <ele>561.4</ele>
        <time>2025-09-14T06:47:10Z</time>
      </trkpt>
      <trkpt lat="45.69631" lon="3.36507">
        <ele>561.6</ele>
        <time>2025-09-14T06:47:11Z</time>
      </trkpt>
      <trkpt lat="45.6963" lon="3.36506">
        <ele>561.8</ele>
        <time>2025-09-14T06:47:12Z</time>
      </trkpt>
      <trkpt lat="45.69628" lon="3.36503">
        <ele>562.2</ele>
        <time>2025-09-14T06:47:13Z</time>
      </trkpt>
      <trkpt lat="45.69627" lon="3.36501">
        <ele>562.6</ele>
        <time>2025-09-14T06:47:14Z</time>
      </trkpt>
      <trkpt lat="45.69625" lon="3.36498">
        <ele>562.8</ele>
        <time>2025-09-14T06:47:15Z</time>
      </trkpt>
      <trkpt lat="45.69623" lon="3.36496">
        <ele>563</ele>
        <time>2025-09-14T06:47:16Z</time>
      </trkpt>
      <trkpt lat="45.69621" lon="3.36494">
        <ele>563.2</ele>
        <time>2025-09-14T06:47:17Z</time>
      </trkpt>
      <trkpt lat="45.6962" lon="3.36492">
        <ele>563.4</ele>
        <time>2025-09-14T06:47:18Z</time>
      </trkpt>
      <trkpt lat="45.69618" lon="3.3649">
        <ele>563.6</ele>
        <time>2025-09-14T06:47:19Z</time>
      </trkpt>
      <trkpt lat="45.69616" lon="3.36488">
        <ele>563.8</ele>
        <time>2025-09-14T06:47:20Z</time>
      </trkpt>
      <trkpt lat="45.69614" lon="3.36486">
        <ele>564</ele>
        <time>2025-09-14T06:47:21Z</time>
      </trkpt>
      <trkpt lat="45.69612" lon="3.36483">
        <ele>564.2</ele>
        <time>2025-09-14T06:47:22Z</time>
      </trkpt>
      <trkpt lat="45.69611" lon="3.36481">
        <ele>564.6</ele>
        <time>2025-09-14T06:47:23Z</time>
      </trkpt>
      <trkpt lat="45.69609" lon="3.36479">
        <ele>564.8</ele>
        <time>2025-09-14T06:47:24Z</time>
      </trkpt>
      <trkpt lat="45.69607" lon="3.36477">
        <ele>565</ele>
        <time>2025-09-14T06:47:25Z</time>
      </trkpt>
      <trkpt lat="45.69605" lon="3.36475">
        <ele>565.2</ele>
        <time>2025-09-14T06:47:26Z</time>
      </trkpt>
      <trkpt lat="45.69604" lon="3.36472">
        <ele>565.6</ele>
        <time>2025-09-14T06:47:27Z</time>
      </trkpt>
      <trkpt lat="45.69602" lon="3.3647">
        <ele>565.8</ele>
        <time>2025-09-14T06:47:28Z</time>
      </trkpt>
      <trkpt lat="45.696" lon="3.36468">
        <ele>566</ele>
        <time>2025-09-14T06:47:29Z</time>
      </trkpt>
      <trkpt lat="45.69599" lon="3.36466">
        <ele>566.2</ele>
        <time>2025-09-14T06:47:30Z</time>
      </trkpt>
      <trkpt lat="45.69597" lon="3.36464">
        <ele>566.4</ele>
        <time>2025-09-14T06:47:31Z</time>
      </trkpt>
      <trkpt lat="45.69596" lon="3.36462">
        <ele>566.6</ele>
        <time>2025-09-14T06:47:32Z</time>
      </trkpt>
      <trkpt lat="45.69594" lon="3.3646">
        <ele>566.8</ele>
        <time>2025-09-14T06:47:33Z</time>
      </trkpt>
      <trkpt lat="45.69592" lon="3.36457">
        <ele>567</ele>
        <time>2025-09-14T06:47:34Z</time>
      </trkpt>
      <trkpt lat="45.69591" lon="3.36455">
        <ele>567.2</ele>
        <time>2025-09-14T06:47:35Z</time>
      </trkpt>
      <trkpt lat="45.6959" lon="3.36453">
        <ele>567.4</ele>
        <time>2025-09-14T06:47:36Z</time>
      </trkpt>
      <trkpt lat="45.69588" lon="3.36451">
        <ele>567.8</ele>
        <time>2025-09-14T06:47:37Z</time>
      </trkpt>
      <trkpt lat="45.69586" lon="3.36448">
        <ele>568</ele>
        <time>2025-09-14T06:47:38Z</time>
      </trkpt>
      <trkpt lat="45.69585" lon="3.36446">
        <ele>568.2</ele>
        <time>2025-09-14T06:47:39Z</time>
      </trkpt>
      <trkpt lat="45.69583" lon="3.36444">
        <ele>568.4</ele>
        <time>2025-09-14T06:47:40Z</time>
      </trkpt>
      <trkpt lat="45.69582" lon="3.36443">
        <ele>568.6</ele>
        <time>2025-09-14T06:47:41Z</time>
      </trkpt>
      <trkpt lat="45.6958" lon="3.36441">
        <ele>568.8</ele>
        <time>2025-09-14T06:47:42Z</time>
      </trkpt>
      <trkpt lat="45.69578" lon="3.36439">
        <ele>569.2</ele>
        <time>2025-09-14T06:47:43Z</time>
      </trkpt>
      <trkpt lat="45.69576" lon="3.36437">
        <ele>569.4</ele>
        <time>2025-09-14T06:47:44Z</time>
      </trkpt>
      <trkpt lat="45.69574" lon="3.36435">
        <ele>569.6</ele>
        <time>2025-09-14T06:47:45Z</time>
      </trkpt>
      <trkpt lat="45.69573" lon="3.36433">
        <ele>569.8</ele>
        <time>2025-09-14T06:47:46Z</time>
      </trkpt>
      <trkpt lat="45.69571" lon="3.36431">
        <ele>570.2</ele>
        <time>2025-09-14T06:47:47Z</time>
      </trkpt>
      <trkpt lat="45.69569" lon="3.36429">
        <ele>570.4</ele>
        <time>2025-09-14T06:47:48Z</time>
      </trkpt>
      <trkpt lat="45.69567" lon="3.36427">
        <ele>570.6</ele>
        <time>2025-09-14T06:47:49Z</time>
      </trkpt>
      <trkpt lat="45.69566" lon="3.36425">
        <ele>570.8</ele>
        <time>2025-09-14T06:47:50Z</time>
      </trkpt>
      <trkpt lat="45.69564" lon="3.36423">
        <ele>571.2</ele>
        <time>2025-09-14T06:47:51Z</time>
      </trkpt>
      <trkpt lat="45.69562" lon="3.3642">
        <ele>571.4</ele>
        <time>2025-09-14T06:47:52Z</time>
      </trkpt>
      <trkpt lat="45.69561" lon="3.36418">
        <ele>571.8</ele>
        <time>2025-09-14T06:47:53Z</time>
      </trkpt>
      <trkpt lat="45.6956" lon="3.36416">
        <ele>572</ele>
        <time>2025-09-14T06:47:54Z</time>
      </trkpt>
      <trkpt lat="45.69558" lon="3.36414">
        <ele>572.2</ele>
        <time>2025-09-14T06:47:55Z</time>
      </trkpt>
      <trkpt lat="45.69557" lon="3.36412">
        <ele>572.6</ele>
        <time>2025-09-14T06:47:56Z</time>
      </trkpt>
      <trkpt lat="45.69555" lon="3.36409">
        <ele>572.8</ele>
        <time>2025-09-14T06:47:57Z</time>
      </trkpt>
      <trkpt lat="45.69554" lon="3.36407">
        <ele>573.2</ele>
        <time>2025-09-14T06:47:58Z</time>
      </trkpt>
      <trkpt lat="45.69552" lon="3.36405">
        <ele>573.4</ele>
        <time>2025-09-14T06:47:59Z</time>
      </trkpt>
      <trkpt lat="45.6955" lon="3.36402">
        <ele>573.8</ele>
        <time>2025-09-14T06:48:00Z</time>
      </trkpt>
      <trkpt lat="45.69549" lon="3.364">
        <ele>574</ele>
        <time>2025-09-14T06:48:01Z</time>
      </trkpt>
      <trkpt lat="45.69547" lon="3.36397">
        <ele>574.4</ele>
        <time>2025-09-14T06:48:02Z</time>
      </trkpt>
      <trkpt lat="45.69546" lon="3.36394">
        <ele>574.8</ele>
        <time>2025-09-14T06:48:03Z</time>
      </trkpt>
      <trkpt lat="45.69544" lon="3.36392">
        <ele>575</ele>
        <time>2025-09-14T06:48:04Z</time>
      </trkpt>
      <trkpt lat="45.69542" lon="3.3639">
        <ele>575.4</ele>
        <time>2025-09-14T06:48:05Z</time>
      </trkpt>
      <trkpt lat="45.6954" lon="3.36388">
        <ele>575.6</ele>
        <time>2025-09-14T06:48:06Z</time>
      </trkpt>
      <trkpt lat="45.69538" lon="3.36386">
        <ele>576</ele>
        <time>2025-09-14T06:48:07Z</time>
      </trkpt>
      <trkpt lat="45.69536" lon="3.36385">
        <ele>576.4</ele>
        <time>2025-09-14T06:48:08Z</time>
      </trkpt>
      <trkpt lat="45.69534" lon="3.36383">
        <ele>576.6</ele>
        <time>2025-09-14T06:48:09Z</time>
      </trkpt>
      <trkpt lat="45.69532" lon="3.36381">
        <ele>577</ele>
        <time>2025-09-14T06:48:10Z</time>
      </trkpt>
      <trkpt lat="45.69531" lon="3.36379">
        <ele>577.2</ele>
        <time>2025-09-14T06:48:11Z</time>
      </trkpt>
      <trkpt lat="45.69529" lon="3.36377">
        <ele>577.6</ele>
        <time>2025-09-14T06:48:12Z</time>
      </trkpt>
      <trkpt lat="45.69528" lon="3.36375">
        <ele>577.8</ele>
        <time>2025-09-14T06:48:13Z</time>
      </trkpt>
      <trkpt lat="45.69526" lon="3.36373">
        <ele>578.2</ele>
        <time>2025-09-14T06:48:14Z</time>
      </trkpt>
      <trkpt lat="45.69524" lon="3.36371">
        <ele>578.4</ele>
        <time>2025-09-14T06:48:15Z</time>
      </trkpt>
      <trkpt lat="45.69522" lon="3.36369">
        <ele>578.8</ele>
        <time>2025-09-14T06:48:16Z</time>
      </trkpt>
      <trkpt lat="45.6952" lon="3.36367">
        <ele>579.2</ele>
        <time>2025-09-14T06:48:17Z</time>
      </trkpt>
      <trkpt lat="45.69518" lon="3.36365">
        <ele>579.4</ele>
        <time>2025-09-14T06:48:18Z</time>
      </trkpt>
      <trkpt lat="45.69517" lon="3.36363">
        <ele>579.8</ele>
        <time>2025-09-14T06:48:19Z</time>
      </trkpt>
      <trkpt lat="45.69515" lon="3.36361">
        <ele>580</ele>
        <time>2025-09-14T06:48:20Z</time>
      </trkpt>
      <trkpt lat="45.69513" lon="3.36359">
        <ele>580.2</ele>
        <time>2025-09-14T06:48:21Z</time>
      </trkpt>
      <trkpt lat="45.69512" lon="3.36356">
        <ele>580.6</ele>
        <time>2025-09-14T06:48:22Z</time>
      </trkpt>
      <trkpt lat="45.69511" lon="3.36354">
        <ele>580.8</ele>
        <time>2025-09-14T06:48:23Z</time>
      </trkpt>
      <trkpt lat="45.69509" lon="3.36352">
        <ele>581</ele>
        <time>2025-09-14T06:48:24Z</time>
      </trkpt>
      <trkpt lat="45.69508" lon="3.36349">
        <ele>581.4</ele>
        <time>2025-09-14T06:48:25Z</time>
      </trkpt>
      <trkpt lat="45.69506" lon="3.36347">
        <ele>581.6</ele>
        <time>2025-09-14T06:48:26Z</time>
      </trkpt>
      <trkpt lat="45.69504" lon="3.36345">
        <ele>582</ele>
        <time>2025-09-14T06:48:27Z</time>
      </trkpt>
      <trkpt lat="45.69502" lon="3.36343">
        <ele>582.2</ele>
        <time>2025-09-14T06:48:28Z</time>
      </trkpt>
      <trkpt lat="45.695" lon="3.36341">
        <ele>582.6</ele>
        <time>2025-09-14T06:48:29Z</time>
      </trkpt>
      <trkpt lat="45.69498" lon="3.36339">
        <ele>582.8</ele>
        <time>2025-09-14T06:48:30Z</time>
      </trkpt>
      <trkpt lat="45.69496" lon="3.36337">
        <ele>583</ele>
        <time>2025-09-14T06:48:31Z</time>
      </trkpt>
      <trkpt lat="45.69494" lon="3.36335">
        <ele>583.4</ele>
        <time>2025-09-14T06:48:32Z</time>
      </trkpt>
      <trkpt lat="45.69492" lon="3.36333">
        <ele>583.8</ele>
        <time>2025-09-14T06:48:33Z</time>
      </trkpt>
      <trkpt lat="45.69491" lon="3.36331">
        <ele>584</ele>
        <time>2025-09-14T06:48:34Z</time>
      </trkpt>
      <trkpt lat="45.69489" lon="3.36329">
        <ele>584.4</ele>
        <time>2025-09-14T06:48:35Z</time>
      </trkpt>
      <trkpt lat="45.69487" lon="3.36327">
        <ele>584.6</ele>
        <time>2025-09-14T06:48:36Z</time>
      </trkpt>
      <trkpt lat="45.69485" lon="3.36325">
        <ele>585</ele>
        <time>2025-09-14T06:48:37Z</time>
      </trkpt>
      <trkpt lat="45.69484" lon="3.36322">
        <ele>585.2</ele>
        <time>2025-09-14T06:48:38Z</time>
      </trkpt>
      <trkpt lat="45.69482" lon="3.3632">
        <ele>585.6</ele>
        <time>2025-09-14T06:48:39Z</time>
      </trkpt>
      <trkpt lat="45.6948" lon="3.36318">
        <ele>585.8</ele>
        <time>2025-09-14T06:48:40Z</time>
      </trkpt>
      <trkpt lat="45.69479" lon="3.36316">
        <ele>586</ele>
        <time>2025-09-14T06:48:41Z</time>
      </trkpt>
      <trkpt lat="45.69477" lon="3.36314">
        <ele>586.2</ele>
        <time>2025-09-14T06:48:42Z</time>
      </trkpt>
      <trkpt lat="45.69476" lon="3.36312">
        <ele>586.4</ele>
        <time>2025-09-14T06:48:43Z</time>
      </trkpt>
      <trkpt lat="45.69474" lon="3.3631">
        <ele>586.8</ele>
        <time>2025-09-14T06:48:44Z</time>
      </trkpt>
      <trkpt lat="45.69472" lon="3.36308">
        <ele>587</ele>
        <time>2025-09-14T06:48:45Z</time>
      </trkpt>
      <trkpt lat="45.6947" lon="3.36305">
        <ele>587.2</ele>
        <time>2025-09-14T06:48:46Z</time>
      </trkpt>
      <trkpt lat="45.69468" lon="3.36303">
        <ele>587.4</ele>
        <time>2025-09-14T06:48:47Z</time>
      </trkpt>
      <trkpt lat="45.69466" lon="3.36301">
        <ele>587.6</ele>
        <time>2025-09-14T06:48:48Z</time>
      </trkpt>
      <trkpt lat="45.69465" lon="3.36298">
        <ele>587.6</ele>
        <time>2025-09-14T06:48:49Z</time>
      </trkpt>
      <trkpt lat="45.69463" lon="3.36296">
        <ele>587.8</ele>
        <time>2025-09-14T06:48:50Z</time>
      </trkpt>
      <trkpt lat="45.69461" lon="3.36294">
        <ele>588</ele>
        <time>2025-09-14T06:48:51Z</time>
      </trkpt>
      <trkpt lat="45.69459" lon="3.36291">
        <ele>588.2</ele>
        <time>2025-09-14T06:48:52Z</time>
      </trkpt>
      <trkpt lat="45.69458" lon="3.36289">
        <ele>588.6</ele>
        <time>2025-09-14T06:48:53Z</time>
      </trkpt>
      <trkpt lat="45.69455" lon="3.36287">
        <ele>588.8</ele>
        <time>2025-09-14T06:48:54Z</time>
      </trkpt>
      <trkpt lat="45.69453" lon="3.36284">
        <ele>588.8</ele>
        <time>2025-09-14T06:48:55Z</time>
      </trkpt>
      <trkpt lat="45.69451" lon="3.36281">
        <ele>589</ele>
        <time>2025-09-14T06:48:56Z</time>
      </trkpt>
      <trkpt lat="45.69449" lon="3.36278">
        <ele>589.2</ele>
        <time>2025-09-14T06:48:57Z</time>
      </trkpt>
      <trkpt lat="45.69447" lon="3.36276">
        <ele>589.2</ele>
        <time>2025-09-14T06:48:58Z</time>
      </trkpt>
      <trkpt lat="45.69445" lon="3.36273">
        <ele>589.2</ele>
        <time>2025-09-14T06:48:59Z</time>
      </trkpt>
      <trkpt lat="45.69443" lon="3.3627">
        <ele>589.4</ele>
        <time>2025-09-14T06:49:00Z</time>
      </trkpt>
      <trkpt lat="45.69441" lon="3.36267">
        <ele>589.4</ele>
        <time>2025-09-14T06:49:01Z</time>
      </trkpt>
      <trkpt lat="45.69438" lon="3.36264">
        <ele>589.4</ele>
        <time>2025-09-14T06:49:02Z</time>
      </trkpt>
      <trkpt lat="45.69436" lon="3.36262">
        <ele>589.4</ele>
        <time>2025-09-14T06:49:03Z</time>
      </trkpt>
      <trkpt lat="45.69433" lon="3.36259">
        <ele>589.4</ele>
        <time>2025-09-14T06:49:04Z</time>
      </trkpt>
      <trkpt lat="45.6943" lon="3.36256">
        <ele>589.4</ele>
        <time>2025-09-14T06:49:05Z</time>
      </trkpt>
      <trkpt lat="45.69428" lon="3.36254">
        <ele>589.4</ele>
        <time>2025-09-14T06:49:06Z</time>
      </trkpt>
      <trkpt lat="45.69426" lon="3.3625">
        <ele>589.4</ele>
        <time>2025-09-14T06:49:07Z</time>
      </trkpt>
      <trkpt lat="45.69424" lon="3.36246">
        <ele>589.4</ele>
        <time>2025-09-14T06:49:08Z</time>
      </trkpt>
      <trkpt lat="45.69424" lon="3.36241">
        <ele>589.4</ele>
        <time>2025-09-14T06:49:09Z</time>
      </trkpt>
      <trkpt lat="45.69424" lon="3.36236">
        <ele>589.6</ele>
        <time>2025-09-14T06:49:10Z</time>
      </trkpt>
      <trkpt lat="45.69425" lon="3.36232">
        <ele>589.8</ele>
        <time>2025-09-14T06:49:11Z</time>
      </trkpt>
      <trkpt lat="45.69425" lon="3.36229">
        <ele>590</ele>
        <time>2025-09-14T06:49:12Z</time>
      </trkpt>
      <trkpt lat="45.69426" lon="3.36226">
        <ele>590.2</ele>
        <time>2025-09-14T06:49:13Z</time>
      </trkpt>
      <trkpt lat="45.69428" lon="3.36223">
        <ele>590.4</ele>
        <time>2025-09-14T06:49:14Z</time>
      </trkpt>
      <trkpt lat="45.69429" lon="3.3622">
        <ele>590.6</ele>
        <time>2025-09-14T06:49:15Z</time>
      </trkpt>
      <trkpt lat="45.6943" lon="3.36217">
        <ele>590.8</ele>
        <time>2025-09-14T06:49:16Z</time>
      </trkpt>
      <trkpt lat="45.69431" lon="3.36215">
        <ele>591.2</ele>
        <time>2025-09-14T06:49:17Z</time>
      </trkpt>
      <trkpt lat="45.69433" lon="3.36212">
        <ele>591.6</ele>
        <time>2025-09-14T06:49:18Z</time>
      </trkpt>
      <trkpt lat="45.69434" lon="3.36209">
        <ele>591.8</ele>
        <time>2025-09-14T06:49:19Z</time>
      </trkpt>
      <trkpt lat="45.69435" lon="3.36205">
        <ele>592.2</ele>
        <time>2025-09-14T06:49:20Z</time>
      </trkpt>
      <trkpt lat="45.69436" lon="3.36202">
        <ele>592.4</ele>
        <time>2025-09-14T06:49:21Z</time>
      </trkpt>
      <trkpt lat="45.69437" lon="3.36198">
        <ele>592.8</ele>
        <time>2025-09-14T06:49:22Z</time>
      </trkpt>
      <trkpt lat="45.69438" lon="3.36196">
        <ele>593</ele>
        <time>2025-09-14T06:49:23Z</time>
      </trkpt>
      <trkpt lat="45.69438" lon="3.36193">
        <ele>593.4</ele>
        <time>2025-09-14T06:49:24Z</time>
      </trkpt>
      <trkpt lat="45.69439" lon="3.3619">
        <ele>593.6</ele>
        <time>2025-09-14T06:49:25Z</time>
      </trkpt>
      <trkpt lat="45.6944" lon="3.36188">
        <ele>594</ele>
        <time>2025-09-14T06:49:26Z</time>
      </trkpt>
      <trkpt lat="45.69441" lon="3.36185">
        <ele>594.4</ele>
        <time>2025-09-14T06:49:27Z</time>
      </trkpt>
      <trkpt lat="45.69443" lon="3.36182">
        <ele>594.6</ele>
        <time>2025-09-14T06:49:28Z</time>
      </trkpt>
      <trkpt lat="45.69444" lon="3.3618">
        <ele>595</ele>
        <time>2025-09-14T06:49:29Z</time>
      </trkpt>
      <trkpt lat="45.69446" lon="3.36177">
        <ele>595.4</ele>
        <time>2025-09-14T06:49:30Z</time>
      </trkpt>
      <trkpt lat="45.69447" lon="3.36174">
        <ele>595.8</ele>
        <time>2025-09-14T06:49:31Z</time>
      </trkpt>
      <trkpt lat="45.69448" lon="3.36171">
        <ele>596.2</ele>
        <time>2025-09-14T06:49:32Z</time>
      </trkpt>
      <trkpt lat="45.69449" lon="3.36167">
        <ele>596.8</ele>
        <time>2025-09-14T06:49:33Z</time>
      </trkpt>
      <trkpt lat="45.6945" lon="3.36164">
        <ele>597.2</ele>
        <time>2025-09-14T06:49:34Z</time>
      </trkpt>
      <trkpt lat="45.69452" lon="3.36161">
        <ele>597.6</ele>
        <time>2025-09-14T06:49:35Z</time>
      </trkpt>
      <trkpt lat="45.69453" lon="3.36158">
        <ele>598.2</ele>
        <time>2025-09-14T06:49:36Z</time>
      </trkpt>
      <trkpt lat="45.69454" lon="3.36155">
        <ele>598.6</ele>
        <time>2025-09-14T06:49:37Z</time>
      </trkpt>
      <trkpt lat="45.69456" lon="3.36151">
        <ele>599.2</ele>
        <time>2025-09-14T06:49:38Z</time>
      </trkpt>
      <trkpt lat="45.69457" lon="3.36149">
        <ele>599.6</ele>
        <time>2025-09-14T06:49:39Z</time>
      </trkpt>
      <trkpt lat="45.69458" lon="3.36146">
        <ele>600.2</ele>
        <time>2025-09-14T06:49:40Z</time>
      </trkpt>
      <trkpt lat="45.69459" lon="3.36143">
        <ele>600.6</ele>
        <time>2025-09-14T06:49:41Z</time>
      </trkpt>
      <trkpt lat="45.6946" lon="3.36139">
        <ele>601.2</ele>
        <time>2025-09-14T06:49:42Z</time>
      </trkpt>
      <trkpt lat="45.69462" lon="3.36137">
        <ele>601.6</ele>
        <time>2025-09-14T06:49:43Z</time>
      </trkpt>
      <trkpt lat="45.69463" lon="3.36135">
        <ele>602.2</ele>
        <time>2025-09-14T06:49:44Z</time>
      </trkpt>
      <trkpt lat="45.69465" lon="3.36132">
        <ele>602.6</ele>
        <time>2025-09-14T06:49:45Z</time>
      </trkpt>
      <trkpt lat="45.69467" lon="3.3613">
        <ele>603</ele>
        <time>2025-09-14T06:49:46Z</time>
      </trkpt>
      <trkpt lat="45.69468" lon="3.36128">
        <ele>603.4</ele>
        <time>2025-09-14T06:49:47Z</time>
      </trkpt>
      <trkpt lat="45.6947" lon="3.36127">
        <ele>603.8</ele>
        <time>2025-09-14T06:49:48Z</time>
      </trkpt>
      <trkpt lat="45.69472" lon="3.36127">
        <ele>604.2</ele>
        <time>2025-09-14T06:49:49Z</time>
      </trkpt>
      <trkpt lat="45.69474" lon="3.36129">
        <ele>604.6</ele>
        <time>2025-09-14T06:49:50Z</time>
      </trkpt>
      <trkpt lat="45.69476" lon="3.3613">
        <ele>605</ele>
        <time>2025-09-14T06:49:51Z</time>
      </trkpt>
      <trkpt lat="45.69479" lon="3.36132">
        <ele>605.2</ele>
        <time>2025-09-14T06:49:52Z</time>
      </trkpt>
      <trkpt lat="45.6948" lon="3.36134">
        <ele>605.4</ele>
        <time>2025-09-14T06:49:53Z</time>
      </trkpt>
      <trkpt lat="45.69482" lon="3.36135">
        <ele>605.6</ele>
        <time>2025-09-14T06:49:54Z</time>
      </trkpt>
      <trkpt lat="45.69485" lon="3.36137">
        <ele>605.8</ele>
        <time>2025-09-14T06:49:55Z</time>
      </trkpt>
      <trkpt lat="45.69487" lon="3.36138">
        <ele>606</ele>
        <time>2025-09-14T06:49:56Z</time>
      </trkpt>
      <trkpt lat="45.6949" lon="3.3614">
        <ele>606.2</ele>
        <time>2025-09-14T06:49:57Z</time>
      </trkpt>
      <trkpt lat="45.69493" lon="3.36142">
        <ele>606.2</ele>
        <time>2025-09-14T06:49:58Z</time>
      </trkpt>
      <trkpt lat="45.69494" lon="3.36143">
        <ele>606.4</ele>
        <time>2025-09-14T06:49:59Z</time>
      </trkpt>
      <trkpt lat="45.69496" lon="3.36144">
        <ele>606.6</ele>
        <time>2025-09-14T06:50:00Z</time>
      </trkpt>
      <trkpt lat="45.69494" lon="3.36143">
        <ele>607</ele>
        <time>2025-09-14T06:51:21Z</time>
      </trkpt>
      <trkpt lat="45.69495" lon="3.36143">
        <ele>607</ele>
        <time>2025-09-14T06:51:22Z</time>
      </trkpt>
      <trkpt lat="45.69496" lon="3.36143">
        <ele>607</ele>
        <time>2025-09-14T06:51:23Z</time>
      </trkpt>
      <trkpt lat="45.69498" lon="3.36143">
        <ele>607</ele>
        <time>2025-09-14T06:51:24Z</time>
      </trkpt>
      <trkpt lat="45.695" lon="3.36143">
        <ele>607</ele>
        <time>2025-09-14T06:51:25Z</time>
      </trkpt>
      <trkpt lat="45.69503" lon="3.36143">
        <ele>607.2</ele>
        <time>2025-09-14T06:51:26Z</time>
      </trkpt>
      <trkpt lat="45.69505" lon="3.36142">
        <ele>607.2</ele>
        <time>2025-09-14T06:51:27Z</time>
      </trkpt>
      <trkpt lat="45.69508" lon="3.3614">
        <ele>607.4</ele>
        <time>2025-09-14T06:51:28Z</time>
      </trkpt>
      <trkpt lat="45.6951" lon="3.36139">
        <ele>607.6</ele>
        <time>2025-09-14T06:51:29Z</time>
      </trkpt>
      <trkpt lat="45.69511" lon="3.36137">
        <ele>607.6</ele>
        <time>2025-09-14T06:51:30Z</time>
      </trkpt>
      <trkpt lat="45.69513" lon="3.36135">
        <ele>607.8</ele>
        <time>2025-09-14T06:51:31Z</time>
      </trkpt>
      <trkpt lat="45.69514" lon="3.36133">
        <ele>608</ele>
        <time>2025-09-14T06:51:32Z</time>
      </trkpt>
      <trkpt lat="45.69515" lon="3.3613">
        <ele>608</ele>
        <time>2025-09-14T06:51:33Z</time>
      </trkpt>
      <trkpt lat="45.69517" lon="3.36128">
        <ele>608.2</ele>
        <time>2025-09-14T06:51:34Z</time>
      </trkpt>
      <trkpt lat="45.69518" lon="3.36124">
        <ele>608.2</ele>
        <time>2025-09-14T06:51:35Z</time>
      </trkpt>
      <trkpt lat="45.69518" lon="3.3612">
        <ele>608.4</ele>
        <time>2025-09-14T06:51:36Z</time>
      </trkpt>
      <trkpt lat="45.69518" lon="3.36116">
        <ele>608.4</ele>
        <time>2025-09-14T06:51:37Z</time>
      </trkpt>
      <trkpt lat="45.69519" lon="3.36113">
        <ele>608.6</ele>
        <time>2025-09-14T06:51:38Z</time>
      </trkpt>
      <trkpt lat="45.6952" lon="3.36109">
        <ele>608.6</ele>
        <time>2025-09-14T06:51:39Z</time>
      </trkpt>
      <trkpt lat="45.69521" lon="3.36104">
        <ele>608.8</ele>
        <time>2025-09-14T06:51:40Z</time>
      </trkpt>
      <trkpt lat="45.69522" lon="3.361">
        <ele>609</ele>
        <time>2025-09-14T06:51:41Z</time>
      </trkpt>
      <trkpt lat="45.69523" lon="3.36097">
        <ele>609.2</ele>
        <time>2025-09-14T06:51:42Z</time>
      </trkpt>
      <trkpt lat="45.69523" lon="3.36093">
        <ele>609.4</ele>
        <time>2025-09-14T06:51:43Z</time>
      </trkpt>
      <trkpt lat="45.69524" lon="3.3609">
        <ele>609.6</ele>
        <time>2025-09-14T06:51:44Z</time>
      </trkpt>
      <trkpt lat="45.69525" lon="3.36087">
        <ele>609.8</ele>
        <time>2025-09-14T06:51:45Z</time>
      </trkpt>
      <trkpt lat="45.69527" lon="3.36083">
        <ele>610</ele>
        <time>2025-09-14T06:51:46Z</time>
      </trkpt>
      <trkpt lat="45.69527" lon="3.36079">
        <ele>610</ele>
        <time>2025-09-14T06:51:47Z</time>
      </trkpt>
      <trkpt lat="45.69527" lon="3.36076">
        <ele>610.2</ele>
        <time>2025-09-14T06:51:48Z</time>
      </trkpt>
      <trkpt lat="45.69527" lon="3.36072">
        <ele>610.2</ele>
        <time>2025-09-14T06:51:49Z</time>
      </trkpt>
      <trkpt lat="45.69527" lon="3.36068">
        <ele>610.4</ele>
        <time>2025-09-14T06:51:50Z</time>
      </trkpt>
      <trkpt lat="45.69527" lon="3.36064">
        <ele>610.4</ele>
        <time>2025-09-14T06:51:51Z</time>
      </trkpt>
      <trkpt lat="45.69527" lon="3.3606">
        <ele>610.4</ele>
        <time>2025-09-14T06:51:52Z</time>
      </trkpt>
      <trkpt lat="45.69527" lon="3.36056">
        <ele>610.6</ele>
        <time>2025-09-14T06:51:53Z</time>
      </trkpt>
      <trkpt lat="45.69526" lon="3.36052">
        <ele>610.6</ele>
        <time>2025-09-14T06:51:54Z</time>
      </trkpt>
      <trkpt lat="45.69526" lon="3.36048">
        <ele>610.6</ele>
        <time>2025-09-14T06:51:55Z</time>
      </trkpt>
      <trkpt lat="45.69526" lon="3.36045">
        <ele>610.8</ele>
        <time>2025-09-14T06:51:56Z</time>
      </trkpt>
      <trkpt lat="45.69526" lon="3.36043">
        <ele>610.8</ele>
        <time>2025-09-14T06:51:57Z</time>
      </trkpt>
      <trkpt lat="45.69526" lon="3.36041">
        <ele>611</ele>
        <time>2025-09-14T06:51:58Z</time>
      </trkpt>
      <trkpt lat="45.69525" lon="3.36039">
        <ele>611</ele>
        <time>2025-09-14T06:51:59Z</time>
      </trkpt>
      <trkpt lat="45.69525" lon="3.36036">
        <ele>611</ele>
        <time>2025-09-14T06:52:00Z</time>
      </trkpt>
      <trkpt lat="45.69525" lon="3.36034">
        <ele>611.2</ele>
        <time>2025-09-14T06:52:01Z</time>
      </trkpt>
      <trkpt lat="45.69524" lon="3.36032">
        <ele>611.2</ele>
        <time>2025-09-14T06:52:02Z</time>
      </trkpt>
      <trkpt lat="45.69524" lon="3.36029">
        <ele>611</ele>
        <time>2025-09-14T06:52:03Z</time>
      </trkpt>
      <trkpt lat="45.69523" lon="3.36026">
        <ele>611</ele>
        <time>2025-09-14T06:52:04Z</time>
      </trkpt>
      <trkpt lat="45.69521" lon="3.36023">
        <ele>610.8</ele>
        <time>2025-09-14T06:52:05Z</time>
      </trkpt>
      <trkpt lat="45.6952" lon="3.36019">
        <ele>610.4</ele>
        <time>2025-09-14T06:52:06Z</time>
      </trkpt>
      <trkpt lat="45.69519" lon="3.36015">
        <ele>610.2</ele>
        <time>2025-09-14T06:52:07Z</time>
      </trkpt>
      <trkpt lat="45.69519" lon="3.36011">
        <ele>609.6</ele>
        <time>2025-09-14T06:52:08Z</time>
      </trkpt>
      <trkpt lat="45.69519" lon="3.36008">
        <ele>609.2</ele>
        <time>2025-09-14T06:52:09Z</time>
      </trkpt>
      <trkpt lat="45.6952" lon="3.36006">
        <ele>608.8</ele>
        <time>2025-09-14T06:52:10Z</time>
      </trkpt>
      <trkpt lat="45.69521" lon="3.36004">
        <ele>608.4</ele>
        <time>2025-09-14T06:52:11Z</time>
      </trkpt>
      <trkpt lat="45.69523" lon="3.36003">
        <ele>607.8</ele>
        <time>2025-09-14T06:52:12Z</time>
      </trkpt>
      <trkpt lat="45.69525" lon="3.36003">
        <ele>607.4</ele>
        <time>2025-09-14T06:52:13Z</time>
      </trkpt>
      <trkpt lat="45.69526" lon="3.36002">
        <ele>606.8</ele>
        <time>2025-09-14T06:52:14Z</time>
      </trkpt>
      <trkpt lat="45.69527" lon="3.36001">
        <ele>606.4</ele>
        <time>2025-09-14T06:52:15Z</time>
      </trkpt>
      <trkpt lat="45.69528" lon="3.36">
        <ele>606.2</ele>
        <time>2025-09-14T06:52:16Z</time>
      </trkpt>
      <trkpt lat="45.69526" lon="3.35997">
        <ele>605</ele>
        <time>2025-09-14T06:52:23Z</time>
      </trkpt>
      <trkpt lat="45.69524" lon="3.35995">
        <ele>605</ele>
        <time>2025-09-14T06:52:24Z</time>
      </trkpt>
      <trkpt lat="45.69523" lon="3.35993">
        <ele>604.8</ele>
        <time>2025-09-14T06:52:25Z</time>
      </trkpt>
      <trkpt lat="45.69521" lon="3.3599">
        <ele>604.6</ele>
        <time>2025-09-14T06:52:26Z</time>
      </trkpt>
      <trkpt lat="45.69519" lon="3.35987">
        <ele>604.2</ele>
        <time>2025-09-14T06:52:27Z</time>
      </trkpt>
      <trkpt lat="45.69517" lon="3.35983">
        <ele>604</ele>
        <time>2025-09-14T06:52:28Z</time>
      </trkpt>
      <trkpt lat="45.69515" lon="3.3598">
        <ele>603.8</ele>
        <time>2025-09-14T06:52:29Z</time>
      </trkpt>
      <trkpt lat="45.69513" lon="3.35978">
        <ele>603.4</ele>
        <time>2025-09-14T06:52:30Z</time>
      </trkpt>
      <trkpt lat="45.69511" lon="3.35975">
        <ele>603.2</ele>
        <time>2025-09-14T06:52:31Z</time>
      </trkpt>
      <trkpt lat="45.69508" lon="3.35973">
        <ele>603</ele>
        <time>2025-09-14T06:52:32Z</time>
      </trkpt>
      <trkpt lat="45.69507" lon="3.35974">
        <ele>602.6</ele>
        <time>2025-09-14T06:52:33Z</time>
      </trkpt>
      <trkpt lat="45.69504" lon="3.35975">
        <ele>602.4</ele>
        <time>2025-09-14T06:52:34Z</time>
      </trkpt>
      <trkpt lat="45.69503" lon="3.35978">
        <ele>602.2</ele>
        <time>2025-09-14T06:52:35Z</time>
      </trkpt>
      <trkpt lat="45.69502" lon="3.35981">
        <ele>602</ele>
        <time>2025-09-14T06:52:36Z</time>
      </trkpt>
      <trkpt lat="45.69501" lon="3.35984">
        <ele>602</ele>
        <time>2025-09-14T06:52:37Z</time>
      </trkpt>
      <trkpt lat="45.69499" lon="3.35988">
        <ele>601.8</ele>
        <time>2025-09-14T06:52:38Z</time>
      </trkpt>
      <trkpt lat="45.69497" lon="3.35991">
        <ele>601.6</ele>
        <time>2025-09-14T06:52:39Z</time>
      </trkpt>
      <trkpt lat="45.69494" lon="3.35995">
        <ele>601.2</ele>
        <time>2025-09-14T06:52:40Z</time>
      </trkpt>
      <trkpt lat="45.69492" lon="3.35999">
        <ele>601</ele>
        <time>2025-09-14T06:52:41Z</time>
      </trkpt>
      <trkpt lat="45.69489" lon="3.36002">
        <ele>600.8</ele>
        <time>2025-09-14T06:52:42Z</time>
      </trkpt>
      <trkpt lat="45.69485" lon="3.36006">
        <ele>600.4</ele>
        <time>2025-09-14T06:52:43Z</time>
      </trkpt>
      <trkpt lat="45.69482" lon="3.36011">
        <ele>600.2</ele>
        <time>2025-09-14T06:52:44Z</time>
      </trkpt>
      <trkpt lat="45.69479" lon="3.36016">
        <ele>600.2</ele>
        <time>2025-09-14T06:52:45Z</time>
      </trkpt>
      <trkpt lat="45.69477" lon="3.36023">
        <ele>600</ele>
        <time>2025-09-14T06:52:46Z</time>
      </trkpt>
      <trkpt lat="45.69477" lon="3.36029">
        <ele>599.8</ele>
        <time>2025-09-14T06:52:47Z</time>
      </trkpt>
      <trkpt lat="45.69475" lon="3.36034">
        <ele>599.8</ele>
        <time>2025-09-14T06:52:48Z</time>
      </trkpt>
      <trkpt lat="45.69473" lon="3.36035">
        <ele>599.6</ele>
        <time>2025-09-14T06:52:49Z</time>
      </trkpt>
      <trkpt lat="45.69472" lon="3.36034">
        <ele>599.4</ele>
        <time>2025-09-14T06:52:50Z</time>
      </trkpt>
      <trkpt lat="45.6947" lon="3.36031">
        <ele>599</ele>
        <time>2025-09-14T06:52:51Z</time>
      </trkpt>
      <trkpt lat="45.6947" lon="3.36027">
        <ele>598.4</ele>
        <time>2025-09-14T06:52:52Z</time>
      </trkpt>
      <trkpt lat="45.6947" lon="3.3602">
        <ele>597.8</ele>
        <time>2025-09-14T06:52:53Z</time>
      </trkpt>
      <trkpt lat="45.69471" lon="3.36012">
        <ele>597</ele>
        <time>2025-09-14T06:52:54Z</time>
      </trkpt>
      <trkpt lat="45.69473" lon="3.36004">
        <ele>596.2</ele>
        <time>2025-09-14T06:52:55Z</time>
      </trkpt>
      <trkpt lat="45.69476" lon="3.35996">
        <ele>595.2</ele>
        <time>2025-09-14T06:52:56Z</time>
      </trkpt>
      <trkpt lat="45.6948" lon="3.35986">
        <ele>594.2</ele>
        <time>2025-09-14T06:52:57Z</time>
      </trkpt>
      <trkpt lat="45.69484" lon="3.35973">
        <ele>592.8</ele>
        <time>2025-09-14T06:52:58Z</time>
      </trkpt>
      <trkpt lat="45.69486" lon="3.35963">
        <ele>591.4</ele>
        <time>2025-09-14T06:52:59Z</time>
      </trkpt>
      <trkpt lat="45.69489" lon="3.35951">
        <ele>589.8</ele>
        <time>2025-09-14T06:53:00Z</time>
      </trkpt>
      <trkpt lat="45.69492" lon="3.35941">
        <ele>588</ele>
        <time>2025-09-14T06:53:01Z</time>
      </trkpt>
      <trkpt lat="45.69496" lon="3.35932">
        <ele>586.4</ele>
        <time>2025-09-14T06:53:02Z</time>
      </trkpt>
      <trkpt lat="45.69502" lon="3.35923">
        <ele>584.6</ele>
        <time>2025-09-14T06:53:03Z</time>
      </trkpt>
      <trkpt lat="45.69507" lon="3.35919">
        <ele>583.2</ele>
        <time>2025-09-14T06:53:04Z</time>
      </trkpt>
      <trkpt lat="45.69513" lon="3.35915">
        <ele>581.6</ele>
        <time>2025-09-14T06:53:05Z</time>
      </trkpt>
      <trkpt lat="45.69519" lon="3.35912">
        <ele>580.2</ele>
        <time>2025-09-14T06:53:06Z</time>
      </trkpt>
      <trkpt lat="45.69524" lon="3.35911">
        <ele>579</ele>
        <time>2025-09-14T06:53:07Z</time>
      </trkpt>
      <trkpt lat="45.69527" lon="3.3591">
        <ele>578</ele>
        <time>2025-09-14T06:53:08Z</time>
      </trkpt>
      <trkpt lat="45.69529" lon="3.35908">
        <ele>577.4</ele>
        <time>2025-09-14T06:53:09Z</time>
      </trkpt>
      <trkpt lat="45.6953" lon="3.35906">
        <ele>576.8</ele>
        <time>2025-09-14T06:53:10Z</time>
      </trkpt>
      <trkpt lat="45.69529" lon="3.35905">
        <ele>576.4</ele>
        <time>2025-09-14T06:53:11Z</time>
      </trkpt>
      <trkpt lat="45.69529" lon="3.35905">
        <ele>576</ele>
        <time>2025-09-14T06:53:12Z</time>
      </trkpt>
      <trkpt lat="45.69528" lon="3.35904">
        <ele>575.8</ele>
        <time>2025-09-14T06:53:13Z</time>
      </trkpt>
      <trkpt lat="45.69526" lon="3.35902">
        <ele>575.6</ele>
        <time>2025-09-14T06:53:14Z</time>
      </trkpt>
      <trkpt lat="45.69525" lon="3.359">
        <ele>575.2</ele>
        <time>2025-09-14T06:53:15Z</time>
      </trkpt>
      <trkpt lat="45.69522" lon="3.35898">
        <ele>575</ele>
        <time>2025-09-14T06:53:16Z</time>
      </trkpt>
      <trkpt lat="45.6952" lon="3.35895">
        <ele>574.6</ele>
        <time>2025-09-14T06:53:17Z</time>
      </trkpt>
      <trkpt lat="45.69519" lon="3.35894">
        <ele>574.4</ele>
        <time>2025-09-14T06:53:18Z</time>
      </trkpt>
      <trkpt lat="45.69518" lon="3.35894">
        <ele>574.2</ele>
        <time>2025-09-14T06:53:19Z</time>
      </trkpt>
      <trkpt lat="45.69518" lon="3.35894">
        <ele>574</ele>
        <time>2025-09-14T06:53:20Z</time>
      </trkpt>
      <trkpt lat="45.69518" lon="3.35894">
        <ele>573.8</ele>
        <time>2025-09-14T06:53:21Z</time>
      </trkpt>
      <trkpt lat="45.69518" lon="3.35894">
        <ele>573.8</ele>
        <time>2025-09-14T06:53:22Z</time>
      </trkpt>
      <trkpt lat="45.69518" lon="3.35894">
        <ele>573.8</ele>
        <time>2025-09-14T06:53:23Z</time>
      </trkpt>
      <trkpt lat="45.69517" lon="3.35894">
        <ele>573.6</ele>
        <time>2025-09-14T06:53:45Z</time>
      </trkpt>
      <trkpt lat="45.69515" lon="3.35894">
        <ele>573.6</ele>
        <time>2025-09-14T06:53:46Z</time>
      </trkpt>
      <trkpt lat="45.69512" lon="3.35894">
        <ele>573.6</ele>
        <time>2025-09-14T06:53:47Z</time>
      </trkpt>
      <trkpt lat="45.69507" lon="3.35893">
        <ele>573.4</ele>
        <time>2025-09-14T06:53:48Z</time>
      </trkpt>
      <trkpt lat="45.69503" lon="3.35891">
        <ele>573</ele>
        <time>2025-09-14T06:53:49Z</time>
      </trkpt>
      <trkpt lat="45.69497" lon="3.35889">
        <ele>572.6</ele>
        <time>2025-09-14T06:53:50Z</time>
      </trkpt>
      <trkpt lat="45.69492" lon="3.35888">
        <ele>572.2</ele>
        <time>2025-09-14T06:53:51Z</time>
      </trkpt>
      <trkpt lat="45.69486" lon="3.35886">
        <ele>571.8</ele>
        <time>2025-09-14T06:53:52Z</time>
      </trkpt>
      <trkpt lat="45.69481" lon="3.35886">
        <ele>571</ele>
        <time>2025-09-14T06:53:53Z</time>
      </trkpt>
      <trkpt lat="45.69475" lon="3.35887">
        <ele>570.4</ele>
        <time>2025-09-14T06:53:54Z</time>
      </trkpt>
      <trkpt lat="45.6947" lon="3.35888">
        <ele>569.8</ele>
        <time>2025-09-14T06:53:55Z</time>
      </trkpt>
      <trkpt lat="45.69466" lon="3.35889">
        <ele>569.4</ele>
        <time>2025-09-14T06:53:56Z</time>
      </trkpt>
      <trkpt lat="45.69463" lon="3.35891">
        <ele>569.2</ele>
        <time>2025-09-14T06:53:57Z</time>
      </trkpt>
      <trkpt lat="45.69462" lon="3.35894">
        <ele>569.2</ele>
        <time>2025-09-14T06:53:58Z</time>
      </trkpt>
      <trkpt lat="45.69461" lon="3.35896">
        <ele>569.2</ele>
        <time>2025-09-14T06:53:59Z</time>
      </trkpt>
      <trkpt lat="45.6946" lon="3.35899">
        <ele>569.2</ele>
        <time>2025-09-14T06:54:00Z</time>
      </trkpt>
      <trkpt lat="45.69458" lon="3.35903">
        <ele>569.4</ele>
        <time>2025-09-14T06:54:01Z</time>
      </trkpt>
      <trkpt lat="45.69456" lon="3.35907">
        <ele>569.8</ele>
        <time>2025-09-14T06:54:02Z</time>
      </trkpt>
      <trkpt lat="45.69455" lon="3.3591">
        <ele>570</ele>
        <time>2025-09-14T06:54:03Z</time>
      </trkpt>
      <trkpt lat="45.69453" lon="3.35915">
        <ele>570.2</ele>
        <time>2025-09-14T06:54:04Z</time>
      </trkpt>
      <trkpt lat="45.69452" lon="3.35917">
        <ele>570.6</ele>
        <time>2025-09-14T06:54:05Z</time>
      </trkpt>
      <trkpt lat="45.69451" lon="3.35921">
        <ele>570.8</ele>
        <time>2025-09-14T06:54:06Z</time>
      </trkpt>
      <trkpt lat="45.6945" lon="3.35924">
        <ele>571</ele>
        <time>2025-09-14T06:54:07Z</time>
      </trkpt>
      <trkpt lat="45.69449" lon="3.35928">
        <ele>571</ele>
        <time>2025-09-14T06:54:08Z</time>
      </trkpt>
      <trkpt lat="45.69448" lon="3.35931">
        <ele>571.2</ele>
        <time>2025-09-14T06:54:09Z</time>
      </trkpt>
      <trkpt lat="45.69447" lon="3.35934">
        <ele>571.2</ele>
        <time>2025-09-14T06:54:10Z</time>
      </trkpt>
      <trkpt lat="45.69446" lon="3.35938">
        <ele>571</ele>
        <time>2025-09-14T06:54:11Z</time>
      </trkpt>
      <trkpt lat="45.69444" lon="3.3594">
        <ele>570.8</ele>
        <time>2025-09-14T06:54:12Z</time>
      </trkpt>
      <trkpt lat="45.69442" lon="3.35944">
        <ele>570.6</ele>
        <time>2025-09-14T06:54:13Z</time>
      </trkpt>
      <trkpt lat="45.6944" lon="3.35948">
        <ele>570.4</ele>
        <time>2025-09-14T06:54:14Z</time>
      </trkpt>
      <trkpt lat="45.69436" lon="3.35953">
        <ele>570</ele>
        <time>2025-09-14T06:54:15Z</time>
      </trkpt>
      <trkpt lat="45.69434" lon="3.35959">
        <ele>569.6</ele>
        <time>2025-09-14T06:54:16Z</time>
      </trkpt>
      <trkpt lat="45.69431" lon="3.35966">
        <ele>569</ele>
        <time>2025-09-14T06:54:17Z</time>
      </trkpt>
      <trkpt lat="45.69429" lon="3.35975">
        <ele>568.6</ele>
        <time>2025-09-14T06:54:18Z</time>
      </trkpt>
      <trkpt lat="45.69426" lon="3.35985">
        <ele>568.2</ele>
        <time>2025-09-14T06:54:19Z</time>
      </trkpt>
      <trkpt lat="45.69425" lon="3.35993">
        <ele>568</ele>
        <time>2025-09-14T06:54:20Z</time>
      </trkpt>
      <trkpt lat="45.69425" lon="3.36">
        <ele>567.6</ele>
        <time>2025-09-14T06:54:21Z</time>
      </trkpt>
      <trkpt lat="45.69423" lon="3.36009">
        <ele>567.4</ele>
        <time>2025-09-14T06:54:22Z</time>
      </trkpt>
      <trkpt lat="45.69421" lon="3.36017">
        <ele>567.4</ele>
        <time>2025-09-14T06:54:23Z</time>
      </trkpt>
      <trkpt lat="45.6942" lon="3.36022">
        <ele>567.4</ele>
        <time>2025-09-14T06:54:24Z</time>
      </trkpt>
      <trkpt lat="45.69417" lon="3.36028">
        <ele>567.4</ele>
        <time>2025-09-14T06:54:25Z</time>
      </trkpt>
      <trkpt lat="45.69414" lon="3.36032">
        <ele>567.6</ele>
        <time>2025-09-14T06:54:26Z</time>
      </trkpt>
      <trkpt lat="45.69411" lon="3.36036">
        <ele>567.6</ele>
        <time>2025-09-14T06:54:27Z</time>
      </trkpt>
      <trkpt lat="45.69408" lon="3.36041">
        <ele>567.8</ele>
        <time>2025-09-14T06:54:28Z</time>
      </trkpt>
      <trkpt lat="45.69406" lon="3.36046">
        <ele>567.8</ele>
        <time>2025-09-14T06:54:29Z</time>
      </trkpt>
      <trkpt lat="45.69405" lon="3.3605">
        <ele>568</ele>
        <time>2025-09-14T06:54:30Z</time>
      </trkpt>
      <trkpt lat="45.69403" lon="3.36057">
        <ele>568.2</ele>
        <time>2025-09-14T06:54:31Z</time>
      </trkpt>
      <trkpt lat="45.69401" lon="3.36062">
        <ele>568.2</ele>
        <time>2025-09-14T06:54:32Z</time>
      </trkpt>
      <trkpt lat="45.69399" lon="3.36066">
        <ele>568.4</ele>
        <time>2025-09-14T06:54:33Z</time>
      </trkpt>
      <trkpt lat="45.69397" lon="3.3607">
        <ele>568.6</ele>
        <time>2025-09-14T06:54:34Z</time>
      </trkpt>
      <trkpt lat="45.69394" lon="3.36074">
        <ele>568.8</ele>
        <time>2025-09-14T06:54:35Z</time>
      </trkpt>
      <trkpt lat="45.69393" lon="3.36078">
        <ele>569</ele>
        <time>2025-09-14T06:54:36Z</time>
      </trkpt>
      <trkpt lat="45.69391" lon="3.36082">
        <ele>569.2</ele>
        <time>2025-09-14T06:54:37Z</time>
      </trkpt>
      <trkpt lat="45.6939" lon="3.36087">
        <ele>569.4</ele>
        <time>2025-09-14T06:54:38Z</time>
      </trkpt>
      <trkpt lat="45.69389" lon="3.3609">
        <ele>569.6</ele>
        <time>2025-09-14T06:54:39Z</time>
      </trkpt>
      <trkpt lat="45.69387" lon="3.36094">
        <ele>570</ele>
        <time>2025-09-14T06:54:40Z</time>
      </trkpt>
      <trkpt lat="45.69386" lon="3.36098">
        <ele>570.2</ele>
        <time>2025-09-14T06:54:41Z</time>
      </trkpt>
      <trkpt lat="45.69385" lon="3.36102">
        <ele>570.4</ele>
        <time>2025-09-14T06:54:42Z</time>
      </trkpt>
      <trkpt lat="45.69385" lon="3.36106">
        <ele>570.8</ele>
        <time>2025-09-14T06:54:43Z</time>
      </trkpt>
      <trkpt lat="45.69385" lon="3.3611">
        <ele>571</ele>
        <time>2025-09-14T06:54:44Z</time>
      </trkpt>
      <trkpt lat="45.69384" lon="3.36114">
        <ele>571.2</ele>
        <time>2025-09-14T06:54:45Z</time>
      </trkpt>
      <trkpt lat="45.69382" lon="3.36117">
        <ele>571.4</ele>
        <time>2025-09-14T06:54:46Z</time>
      </trkpt>
      <trkpt lat="45.6938" lon="3.36121">
        <ele>571.8</ele>
        <time>2025-09-14T06:54:47Z</time>
      </trkpt>
      <trkpt lat="45.6938" lon="3.36124">
        <ele>572</ele>
        <time>2025-09-14T06:54:48Z</time>
      </trkpt>
      <trkpt lat="45.69379" lon="3.36128">
        <ele>572.2</ele>
        <time>2025-09-14T06:54:49Z</time>
      </trkpt>
      <trkpt lat="45.69377" lon="3.36132">
        <ele>572.4</ele>
        <time>2025-09-14T06:54:50Z</time>
      </trkpt>
      <trkpt lat="45.69376" lon="3.36135">
        <ele>572.6</ele>
        <time>2025-09-14T06:54:51Z</time>
      </trkpt>
      <trkpt lat="45.69375" lon="3.36139">
        <ele>572.8</ele>
        <time>2025-09-14T06:54:52Z</time>
      </trkpt>
      <trkpt lat="45.69373" lon="3.36142">
        <ele>573</ele>
        <time>2025-09-14T06:54:53Z</time>
      </trkpt>
      <trkpt lat="45.69372" lon="3.36146">
        <ele>573.2</ele>
        <time>2025-09-14T06:54:54Z</time>
      </trkpt>
      <trkpt lat="45.69371" lon="3.3615">
        <ele>573.4</ele>
        <time>2025-09-14T06:54:55Z</time>
      </trkpt>
      <trkpt lat="45.69369" lon="3.36153">
        <ele>573.6</ele>
        <time>2025-09-14T06:54:56Z</time>
      </trkpt>
      <trkpt lat="45.69368" lon="3.36157">
        <ele>573.8</ele>
        <time>2025-09-14T06:54:57Z</time>
      </trkpt>
      <trkpt lat="45.69365" lon="3.3616">
        <ele>574.2</ele>
        <time>2025-09-14T06:54:58Z</time>
      </trkpt>
      <trkpt lat="45.69364" lon="3.36162">
        <ele>574.4</ele>
        <time>2025-09-14T06:54:59Z</time>
      </trkpt>
      <trkpt lat="45.69362" lon="3.36164">
        <ele>574.6</ele>
        <time>2025-09-14T06:55:00Z</time>
      </trkpt>
      <trkpt lat="45.69361" lon="3.36167">
        <ele>575</ele>
        <time>2025-09-14T06:55:01Z</time>
      </trkpt>
      <trkpt lat="45.69361" lon="3.36169">
        <ele>575.2</ele>
        <time>2025-09-14T06:55:02Z</time>
      </trkpt>
      <trkpt lat="45.6936" lon="3.36172">
        <ele>575.4</ele>
        <time>2025-09-14T06:55:03Z</time>
      </trkpt>
      <trkpt lat="45.69359" lon="3.36176">
        <ele>575.8</ele>
        <time>2025-09-14T06:55:04Z</time>
      </trkpt>
      <trkpt lat="45.69357" lon="3.36178">
        <ele>576.2</ele>
        <time>2025-09-14T06:55:05Z</time>
      </trkpt>
      <trkpt lat="45.69354" lon="3.36179">
        <ele>576.4</ele>
        <time>2025-09-14T06:55:06Z</time>
      </trkpt>
      <trkpt lat="45.69351" lon="3.36181">
        <ele>576.8</ele>
        <time>2025-09-14T06:55:07Z</time>
      </trkpt>
      <trkpt lat="45.69348" lon="3.36183">
        <ele>577.2</ele>
        <time>2025-09-14T06:55:08Z</time>
      </trkpt>
      <trkpt lat="45.69347" lon="3.36187">
        <ele>577.4</ele>
        <time>2025-09-14T06:55:09Z</time>
      </trkpt>
      <trkpt lat="45.69346" lon="3.3619">
        <ele>577.8</ele>
        <time>2025-09-14T06:55:10Z</time>
      </trkpt>
      <trkpt lat="45.69346" lon="3.36194">
        <ele>578</ele>
        <time>2025-09-14T06:55:11Z</time>
      </trkpt>
      <trkpt lat="45.69345" lon="3.36197">
        <ele>578.4</ele>
        <time>2025-09-14T06:55:12Z</time>
      </trkpt>
      <trkpt lat="45.69344" lon="3.362">
        <ele>578.8</ele>
        <time>2025-09-14T06:55:13Z</time>
      </trkpt>
      <trkpt lat="45.69343" lon="3.36202">
        <ele>579</ele>
        <time>2025-09-14T06:55:14Z</time>
      </trkpt>
      <trkpt lat="45.69342" lon="3.36204">
        <ele>579.4</ele>
        <time>2025-09-14T06:55:15Z</time>
      </trkpt>
      <trkpt lat="45.6934" lon="3.36206">
        <ele>579.8</ele>
        <time>2025-09-14T06:55:16Z</time>
      </trkpt>
      <trkpt lat="45.6934" lon="3.36209">
        <ele>580</ele>
        <time>2025-09-14T06:55:17Z</time>
      </trkpt>
      <trkpt lat="45.69339" lon="3.36211">
        <ele>580.4</ele>
        <time>2025-09-14T06:55:18Z</time>
      </trkpt>
      <trkpt lat="45.69339" lon="3.36213">
        <ele>580.8</ele>
        <time>2025-09-14T06:55:19Z</time>
      </trkpt>
      <trkpt lat="45.69338" lon="3.36216">
        <ele>581</ele>
        <time>2025-09-14T06:55:20Z</time>
      </trkpt>
      <trkpt lat="45.69337" lon="3.36218">
        <ele>581.2</ele>
        <time>2025-09-14T06:55:21Z</time>
      </trkpt>
      <trkpt lat="45.69337" lon="3.3622">
        <ele>581.6</ele>
        <time>2025-09-14T06:55:22Z</time>
      </trkpt>
      <trkpt lat="45.69335" lon="3.36222">
        <ele>581.8</ele>
        <time>2025-09-14T06:55:23Z</time>
      </trkpt>
      <trkpt lat="45.69333" lon="3.36222">
        <ele>581.8</ele>
        <time>2025-09-14T06:55:24Z</time>
      </trkpt>
      <trkpt lat="45.6933" lon="3.36223">
        <ele>582</ele>
        <time>2025-09-14T06:55:25Z</time>
      </trkpt>
      <trkpt lat="45.69327" lon="3.36223">
        <ele>582</ele>
        <time>2025-09-14T06:55:26Z</time>
      </trkpt>
      <trkpt lat="45.69325" lon="3.36223">
        <ele>582</ele>
        <time>2025-09-14T06:55:27Z</time>
      </trkpt>
      <trkpt lat="45.69323" lon="3.36222">
        <ele>582</ele>
        <time>2025-09-14T06:55:28Z</time>
      </trkpt>
      <trkpt lat="45.69321" lon="3.36222">
        <ele>581.8</ele>
        <time>2025-09-14T06:55:29Z</time>
      </trkpt>
      <trkpt lat="45.69318" lon="3.36221">
        <ele>581.4</ele>
        <time>2025-09-14T06:55:30Z</time>
      </trkpt>
      <trkpt lat="45.69316" lon="3.36221">
        <ele>581.2</ele>
        <time>2025-09-14T06:55:31Z</time>
      </trkpt>
      <trkpt lat="45.69314" lon="3.36222">
        <ele>581</ele>
        <time>2025-09-14T06:55:32Z</time>
      </trkpt>
      <trkpt lat="45.69312" lon="3.36223">
        <ele>580.8</ele>
        <time>2025-09-14T06:55:33Z</time>
      </trkpt>
      <trkpt lat="45.69311" lon="3.36224">
        <ele>580.6</ele>
        <time>2025-09-14T06:55:34Z</time>
      </trkpt>
      <trkpt lat="45.69308" lon="3.36224">
        <ele>580.4</ele>
        <time>2025-09-14T06:55:35Z</time>
      </trkpt>
      <trkpt lat="45.69306" lon="3.36225">
        <ele>580.2</ele>
        <time>2025-09-14T06:55:36Z</time>
      </trkpt>
      <trkpt lat="45.69303" lon="3.36225">
        <ele>580</ele>
        <time>2025-09-14T06:55:37Z</time>
      </trkpt>
      <trkpt lat="45.69301" lon="3.36225">
        <ele>579.8</ele>
        <time>2025-09-14T06:55:38Z</time>
      </trkpt>
      <trkpt lat="45.693" lon="3.36226">
        <ele>579.4</ele>
        <time>2025-09-14T06:55:39Z</time>
      </trkpt>
      <trkpt lat="45.69298" lon="3.36227">
        <ele>579.2</ele>
        <time>2025-09-14T06:55:40Z</time>
      </trkpt>
      <trkpt lat="45.69298" lon="3.36227">
        <ele>579</ele>
        <time>2025-09-14T06:55:41Z</time>
      </trkpt>
      <trkpt lat="45.69296" lon="3.36228">
        <ele>578.8</ele>
        <time>2025-09-14T06:55:42Z</time>
      </trkpt>
      <trkpt lat="45.69293" lon="3.36228">
        <ele>578.6</ele>
        <time>2025-09-14T06:55:43Z</time>
      </trkpt>
      <trkpt lat="45.69292" lon="3.36229">
        <ele>578.6</ele>
        <time>2025-09-14T06:55:44Z</time>
      </trkpt>
      <trkpt lat="45.6929" lon="3.36229">
        <ele>578.6</ele>
        <time>2025-09-14T06:55:45Z</time>
      </trkpt>
      <trkpt lat="45.6929" lon="3.36229">
        <ele>578.4</ele>
        <time>2025-09-14T06:55:46Z</time>
      </trkpt>
      <trkpt lat="45.69289" lon="3.3623">
        <ele>578.4</ele>
        <time>2025-09-14T06:55:47Z</time>
      </trkpt>
      <trkpt lat="45.69287" lon="3.36232">
        <ele>578.2</ele>
        <time>2025-09-14T06:55:48Z</time>
      </trkpt>
      <trkpt lat="45.69286" lon="3.36233">
        <ele>578.2</ele>
        <time>2025-09-14T06:55:49Z</time>
      </trkpt>
      <trkpt lat="45.69285" lon="3.36234">
        <ele>578</ele>
        <time>2025-09-14T06:55:50Z</time>
      </trkpt>
      <trkpt lat="45.69284" lon="3.36234">
        <ele>577.8</ele>
        <time>2025-09-14T06:55:51Z</time>
      </trkpt>
      <trkpt lat="45.69283" lon="3.36234">
        <ele>577.8</ele>
        <time>2025-09-14T06:55:52Z</time>
      </trkpt>
      <trkpt lat="45.69282" lon="3.36233">
        <ele>577.8</ele>
        <time>2025-09-14T06:55:53Z</time>
      </trkpt>
      <trkpt lat="45.69281" lon="3.36232">
        <ele>577.8</ele>
        <time>2025-09-14T06:55:54Z</time>
      </trkpt>
      <trkpt lat="45.69279" lon="3.36232">
        <ele>577.8</ele>
        <time>2025-09-14T06:55:55Z</time>
      </trkpt>
      <trkpt lat="45.69278" lon="3.36231">
        <ele>577.8</ele>
        <time>2025-09-14T06:55:56Z</time>
      </trkpt>
      <trkpt lat="45.69275" lon="3.36232">
        <ele>577.6</ele>
        <time>2025-09-14T06:55:57Z</time>
      </trkpt>
      <trkpt lat="45.69273" lon="3.36232">
        <ele>577.6</ele>
        <time>2025-09-14T06:55:58Z</time>
      </trkpt>
      <trkpt lat="45.69271" lon="3.36234">
        <ele>577.6</ele>
        <time>2025-09-14T06:55:59Z</time>
      </trkpt>
      <trkpt lat="45.69268" lon="3.36235">
        <ele>577.4</ele>
        <time>2025-09-14T06:56:00Z</time>
      </trkpt>
      <trkpt lat="45.69265" lon="3.36237">
        <ele>577.2</ele>
        <time>2025-09-14T06:56:01Z</time>
      </trkpt>
      <trkpt lat="45.69261" lon="3.36239">
        <ele>577</ele>
        <time>2025-09-14T06:56:02Z</time>
      </trkpt>
      <trkpt lat="45.69259" lon="3.3624">
        <ele>576.6</ele>
        <time>2025-09-14T06:56:03Z</time>
      </trkpt>
      <trkpt lat="45.69256" lon="3.36241">
        <ele>576.4</ele>
        <time>2025-09-14T06:56:04Z</time>
      </trkpt>
      <trkpt lat="45.69254" lon="3.36242">
        <ele>576</ele>
        <time>2025-09-14T06:56:05Z</time>
      </trkpt>
      <trkpt lat="45.69253" lon="3.36242">
        <ele>575.8</ele>
        <time>2025-09-14T06:56:06Z</time>
      </trkpt>
      <trkpt lat="45.69252" lon="3.36243">
        <ele>575.6</ele>
        <time>2025-09-14T06:56:07Z</time>
      </trkpt>
      <trkpt lat="45.69251" lon="3.36244">
        <ele>575.4</ele>
        <time>2025-09-14T06:56:08Z</time>
      </trkpt>
      <trkpt lat="45.69251" lon="3.36244">
        <ele>575.4</ele>
        <time>2025-09-14T06:56:09Z</time>
      </trkpt>
      <trkpt lat="45.69251" lon="3.36244">
        <ele>575.2</ele>
        <time>2025-09-14T06:56:10Z</time>
      </trkpt>
      <trkpt lat="45.69251" lon="3.36244">
        <ele>575.2</ele>
        <time>2025-09-14T06:56:11Z</time>
      </trkpt>
      <trkpt lat="45.69251" lon="3.36244">
        <ele>575.2</ele>
        <time>2025-09-14T06:56:12Z</time>
      </trkpt>
      <trkpt lat="45.69251" lon="3.36244">
        <ele>575</ele>
        <time>2025-09-14T06:56:13Z</time>
      </trkpt>
      <trkpt lat="45.69246" lon="3.36247">
        <ele>575</ele>
        <time>2025-09-14T06:57:03Z</time>
      </trkpt>
      <trkpt lat="45.69243" lon="3.36249">
        <ele>574.8</ele>
        <time>2025-09-14T06:57:04Z</time>
      </trkpt>
      <trkpt lat="45.6924" lon="3.36251">
        <ele>574.8</ele>
        <time>2025-09-14T06:57:05Z</time>
      </trkpt>
      <trkpt lat="45.69236" lon="3.36253">
        <ele>574.6</ele>
        <time>2025-09-14T06:57:06Z</time>
      </trkpt>
      <trkpt lat="45.69232" lon="3.36256">
        <ele>574.4</ele>
        <time>2025-09-14T06:57:07Z</time>
      </trkpt>
      <trkpt lat="45.69228" lon="3.36259">
        <ele>574</ele>
        <time>2025-09-14T06:57:08Z</time>
      </trkpt>
      <trkpt lat="45.69223" lon="3.36262">
        <ele>573.6</ele>
        <time>2025-09-14T06:57:09Z</time>
      </trkpt>
      <trkpt lat="45.69217" lon="3.36266">
        <ele>573.4</ele>
        <time>2025-09-14T06:57:10Z</time>
      </trkpt>
      <trkpt lat="45.69212" lon="3.3627">
        <ele>573</ele>
        <time>2025-09-14T06:57:11Z</time>
      </trkpt>
      <trkpt lat="45.69206" lon="3.36275">
        <ele>572.4</ele>
        <time>2025-09-14T06:57:12Z</time>
      </trkpt>
      <trkpt lat="45.692" lon="3.3628">
        <ele>571.8</ele>
        <time>2025-09-14T06:57:13Z</time>
      </trkpt>
      <trkpt lat="45.69194" lon="3.36286">
        <ele>571</ele>
        <time>2025-09-14T06:57:14Z</time>
      </trkpt>
      <trkpt lat="45.69189" lon="3.36294">
        <ele>570.4</ele>
        <time>2025-09-14T06:57:15Z</time>
      </trkpt>
      <trkpt lat="45.69183" lon="3.36302">
        <ele>569.6</ele>
        <time>2025-09-14T06:57:16Z</time>
      </trkpt>
      <trkpt lat="45.69178" lon="3.36311">
        <ele>568.8</ele>
        <time>2025-09-14T06:57:17Z</time>
      </trkpt>
      <trkpt lat="45.69172" lon="3.36321">
        <ele>568</ele>
        <time>2025-09-14T06:57:18Z</time>
      </trkpt>
      <trkpt lat="45.69167" lon="3.36331">
        <ele>567.2</ele>
        <time>2025-09-14T06:57:19Z</time>
      </trkpt>
      <trkpt lat="45.69161" lon="3.36341">
        <ele>566.6</ele>
        <time>2025-09-14T06:57:20Z</time>
      </trkpt>
      <trkpt lat="45.69155" lon="3.3635">
        <ele>566</ele>
        <time>2025-09-14T06:57:21Z</time>
      </trkpt>
      <trkpt lat="45.69148" lon="3.36358">
        <ele>565.2</ele>
        <time>2025-09-14T06:57:22Z</time>
      </trkpt>
      <trkpt lat="45.69142" lon="3.36367">
        <ele>564.4</ele>
        <time>2025-09-14T06:57:23Z</time>
      </trkpt>
      <trkpt lat="45.69135" lon="3.36376">
        <ele>563.4</ele>
        <time>2025-09-14T06:57:24Z</time>
      </trkpt>
      <trkpt lat="45.69127" lon="3.36386">
        <ele>562.6</ele>
        <time>2025-09-14T06:57:25Z</time>
      </trkpt>
      <trkpt lat="45.6912" lon="3.36395">
        <ele>561.6</ele>
        <time>2025-09-14T06:57:26Z</time>
      </trkpt>
      <trkpt lat="45.69112" lon="3.36405">
        <ele>560.4</ele>
        <time>2025-09-14T06:57:27Z</time>
      </trkpt>
      <trkpt lat="45.69105" lon="3.36415">
        <ele>559.2</ele>
        <time>2025-09-14T06:57:28Z</time>
      </trkpt>
      <trkpt lat="45.69097" lon="3.36426">
        <ele>558</ele>
        <time>2025-09-14T06:57:29Z</time>
      </trkpt>
      <trkpt lat="45.69089" lon="3.36437">
        <ele>556.6</ele>
        <time>2025-09-14T06:57:30Z</time>
      </trkpt>
      <trkpt lat="45.69082" lon="3.36449">
        <ele>555.2</ele>
        <time>2025-09-14T06:57:31Z</time>
      </trkpt>
      <trkpt lat="45.69074" lon="3.3646">
        <ele>553.8</ele>
        <time>2025-09-14T06:57:32Z</time>
      </trkpt>
      <trkpt lat="45.69066" lon="3.36472">
        <ele>552.4</ele>
        <time>2025-09-14T06:57:33Z</time>
      </trkpt>
      <trkpt lat="45.69058" lon="3.36483">
        <ele>551</ele>
        <time>2025-09-14T06:57:34Z</time>
      </trkpt>
      <trkpt lat="45.6905" lon="3.36494">
        <ele>549.8</ele>
        <time>2025-09-14T06:57:35Z</time>
      </trkpt>
      <trkpt lat="45.69044" lon="3.36503">
        <ele>549</ele>
        <time>2025-09-14T06:57:36Z</time>
      </trkpt>
      <trkpt lat="45.69038" lon="3.36512">
        <ele>548.2</ele>
        <time>2025-09-14T06:57:37Z</time>
      </trkpt>
      <trkpt lat="45.69032" lon="3.3652">
        <ele>547.4</ele>
        <time>2025-09-14T06:57:38Z</time>
      </trkpt>
      <trkpt lat="45.69027" lon="3.36526">
        <ele>546.8</ele>
        <time>2025-09-14T06:57:39Z</time>
      </trkpt>
      <trkpt lat="45.69022" lon="3.3653">
        <ele>546.4</ele>
        <time>2025-09-14T06:57:40Z</time>
      </trkpt>
      <trkpt lat="45.69018" lon="3.36533">
        <ele>546</ele>
        <time>2025-09-14T06:57:41Z</time>
      </trkpt>
      <trkpt lat="45.69013" lon="3.36536">
        <ele>545.8</ele>
        <time>2025-09-14T06:57:42Z</time>
      </trkpt>
      <trkpt lat="45.6901" lon="3.36539">
        <ele>545.6</ele>
        <time>2025-09-14T06:57:43Z</time>
      </trkpt>
      <trkpt lat="45.69008" lon="3.36543">
        <ele>545.6</ele>
        <time>2025-09-14T06:57:44Z</time>
      </trkpt>
      <trkpt lat="45.69006" lon="3.36549">
        <ele>545.4</ele>
        <time>2025-09-14T06:57:45Z</time>
      </trkpt>
      <trkpt lat="45.69003" lon="3.36554">
        <ele>545.4</ele>
        <time>2025-09-14T06:57:46Z</time>
      </trkpt>
      <trkpt lat="45.69001" lon="3.3656">
        <ele>545.4</ele>
        <time>2025-09-14T06:57:47Z</time>
      </trkpt>
      <trkpt lat="45.68998" lon="3.36566">
        <ele>545.4</ele>
        <time>2025-09-14T06:57:48Z</time>
      </trkpt>
      <trkpt lat="45.68995" lon="3.36572">
        <ele>545.4</ele>
        <time>2025-09-14T06:57:49Z</time>
      </trkpt>
      <trkpt lat="45.68992" lon="3.36577">
        <ele>545.4</ele>
        <time>2025-09-14T06:57:50Z</time>
      </trkpt>
      <trkpt lat="45.68989" lon="3.36583">
        <ele>545.4</ele>
        <time>2025-09-14T06:57:51Z</time>
      </trkpt>
      <trkpt lat="45.68986" lon="3.36588">
        <ele>545.6</ele>
        <time>2025-09-14T06:57:52Z</time>
      </trkpt>
      <trkpt lat="45.68983" lon="3.36593">
        <ele>545.6</ele>
        <time>2025-09-14T06:57:53Z</time>
      </trkpt>
      <trkpt lat="45.6898" lon="3.36598">
        <ele>545.6</ele>
        <time>2025-09-14T06:57:54Z</time>
      </trkpt>
      <trkpt lat="45.68977" lon="3.36604">
        <ele>545.6</ele>
        <time>2025-09-14T06:57:55Z</time>
      </trkpt>
      <trkpt lat="45.68974" lon="3.36609">
        <ele>545.6</ele>
        <time>2025-09-14T06:57:56Z</time>
      </trkpt>
      <trkpt lat="45.68971" lon="3.36614">
        <ele>545.8</ele>
        <time>2025-09-14T06:57:57Z</time>
      </trkpt>
      <trkpt lat="45.68968" lon="3.36618">
        <ele>545.8</ele>
        <time>2025-09-14T06:57:58Z</time>
      </trkpt>
      <trkpt lat="45.68965" lon="3.36622">
        <ele>546</ele>
        <time>2025-09-14T06:57:59Z</time>
      </trkpt>
      <trkpt lat="45.68961" lon="3.36626">
        <ele>546</ele>
        <time>2025-09-14T06:58:00Z</time>
      </trkpt>
      <trkpt lat="45.68958" lon="3.36629">
        <ele>546.2</ele>
        <time>2025-09-14T06:58:01Z</time>
      </trkpt>
      <trkpt lat="45.68955" lon="3.36634">
        <ele>546.4</ele>
        <time>2025-09-14T06:58:02Z</time>
      </trkpt>
      <trkpt lat="45.68952" lon="3.36638">
        <ele>546.6</ele>
        <time>2025-09-14T06:58:03Z</time>
      </trkpt>
      <trkpt lat="45.68949" lon="3.36643">
        <ele>546.8</ele>
        <time>2025-09-14T06:58:04Z</time>
      </trkpt>
      <trkpt lat="45.68946" lon="3.36647">
        <ele>547</ele>
        <time>2025-09-14T06:58:05Z</time>
      </trkpt>
      <trkpt lat="45.68942" lon="3.36651">
        <ele>547.2</ele>
        <time>2025-09-14T06:58:06Z</time>
      </trkpt>
      <trkpt lat="45.68939" lon="3.36655">
        <ele>547.4</ele>
        <time>2025-09-14T06:58:07Z</time>
      </trkpt>
      <trkpt lat="45.68936" lon="3.36658">
        <ele>547.6</ele>
        <time>2025-09-14T06:58:08Z</time>
      </trkpt>
      <trkpt lat="45.68932" lon="3.36662">
        <ele>547.8</ele>
        <time>2025-09-14T06:58:09Z</time>
      </trkpt>
      <trkpt lat="45.68929" lon="3.36665">
        <ele>548.2</ele>
        <time>2025-09-14T06:58:10Z</time>
      </trkpt>
      <trkpt lat="45.68926" lon="3.36669">
        <ele>548.4</ele>
        <time>2025-09-14T06:58:11Z</time>
      </trkpt>
      <trkpt lat="45.68923" lon="3.36672">
        <ele>548.6</ele>
        <time>2025-09-14T06:58:12Z</time>
      </trkpt>
      <trkpt lat="45.6892" lon="3.36676">
        <ele>548.8</ele>
        <time>2025-09-14T06:58:13Z</time>
      </trkpt>
      <trkpt lat="45.68917" lon="3.36679">
        <ele>549.2</ele>
        <time>2025-09-14T06:58:14Z</time>
      </trkpt>
      <trkpt lat="45.68914" lon="3.36683">
        <ele>549.4</ele>
        <time>2025-09-14T06:58:15Z</time>
      </trkpt>
      <trkpt lat="45.68911" lon="3.36686">
        <ele>549.8</ele>
        <time>2025-09-14T06:58:16Z</time>
      </trkpt>
      <trkpt lat="45.68908" lon="3.3669">
        <ele>550</ele>
        <time>2025-09-14T06:58:17Z</time>
      </trkpt>
      <trkpt lat="45.68905" lon="3.36694">
        <ele>550.4</ele>
        <time>2025-09-14T06:58:18Z</time>
      </trkpt>
      <trkpt lat="45.68903" lon="3.36698">
        <ele>550.8</ele>
        <time>2025-09-14T06:58:19Z</time>
      </trkpt>
      <trkpt lat="45.68901" lon="3.36702">
        <ele>551</ele>
        <time>2025-09-14T06:58:20Z</time>
      </trkpt>
      <trkpt lat="45.68899" lon="3.36707">
        <ele>551.2</ele>
        <time>2025-09-14T06:58:21Z</time>
      </trkpt>
      <trkpt lat="45.68897" lon="3.36712">
        <ele>551.6</ele>
        <time>2025-09-14T06:58:22Z</time>
      </trkpt>
      <trkpt lat="45.68895" lon="3.36716">
        <ele>551.8</ele>
        <time>2025-09-14T06:58:23Z</time>
      </trkpt>
      <trkpt lat="45.68893" lon="3.36721">
        <ele>552</ele>
        <time>2025-09-14T06:58:24Z</time>
      </trkpt>
      <trkpt lat="45.6889" lon="3.36725">
        <ele>552.4</ele>
        <time>2025-09-14T06:58:25Z</time>
      </trkpt>
      <trkpt lat="45.68888" lon="3.3673">
        <ele>552.8</ele>
        <time>2025-09-14T06:58:26Z</time>
      </trkpt>
      <trkpt lat="45.68886" lon="3.36735">
        <ele>553</ele>
        <time>2025-09-14T06:58:27Z</time>
      </trkpt>
      <trkpt lat="45.68884" lon="3.36739">
        <ele>553.4</ele>
        <time>2025-09-14T06:58:28Z</time>
      </trkpt>
      <trkpt lat="45.68881" lon="3.36743">
        <ele>553.6</ele>
        <time>2025-09-14T06:58:29Z</time>
      </trkpt>
      <trkpt lat="45.68879" lon="3.36748">
        <ele>554</ele>
        <time>2025-09-14T06:58:30Z</time>
      </trkpt>
      <trkpt lat="45.68877" lon="3.36752">
        <ele>554.2</ele>
        <time>2025-09-14T06:58:31Z</time>
      </trkpt>
      <trkpt lat="45.68875" lon="3.36757">
        <ele>554.6</ele>
        <time>2025-09-14T06:58:32Z</time>
      </trkpt>
      <trkpt lat="45.68873" lon="3.36762">
        <ele>555</ele>
        <time>2025-09-14T06:58:33Z</time>
      </trkpt>
      <trkpt lat="45.68871" lon="3.36767">
        <ele>555.2</ele>
        <time>2025-09-14T06:58:34Z</time>
      </trkpt>
      <trkpt lat="45.68869" lon="3.36772">
        <ele>555.6</ele>
        <time>2025-09-14T06:58:35Z</time>
      </trkpt>
      <trkpt lat="45.68867" lon="3.36776">
        <ele>555.8</ele>
        <time>2025-09-14T06:58:36Z</time>
      </trkpt>
      <trkpt lat="45.68866" lon="3.36781">
        <ele>556.2</ele>
        <time>2025-09-14T06:58:37Z</time>
      </trkpt>
      <trkpt lat="45.68864" lon="3.36785">
        <ele>556.4</ele>
        <time>2025-09-14T06:58:38Z</time>
      </trkpt>
      <trkpt lat="45.68862" lon="3.3679">
        <ele>556.8</ele>
        <time>2025-09-14T06:58:39Z</time>
      </trkpt>
      <trkpt lat="45.6886" lon="3.36795">
        <ele>557</ele>
        <time>2025-09-14T06:58:40Z</time>
      </trkpt>
      <trkpt lat="45.68858" lon="3.368">
        <ele>557.4</ele>
        <time>2025-09-14T06:58:41Z</time>
      </trkpt>
      <trkpt lat="45.68857" lon="3.36805">
        <ele>557.6</ele>
        <time>2025-09-14T06:58:42Z</time>
      </trkpt>
      <trkpt lat="45.68855" lon="3.3681">
        <ele>557.8</ele>
        <time>2025-09-14T06:58:43Z</time>
      </trkpt>
      <trkpt lat="45.68853" lon="3.36815">
        <ele>558.2</ele>
        <time>2025-09-14T06:58:44Z</time>
      </trkpt>
      <trkpt lat="45.68851" lon="3.3682">
        <ele>558.4</ele>
        <time>2025-09-14T06:58:45Z</time>
      </trkpt>
      <trkpt lat="45.68849" lon="3.36824">
        <ele>558.6</ele>
        <time>2025-09-14T06:58:46Z</time>
      </trkpt>
      <trkpt lat="45.68847" lon="3.36829">
        <ele>558.8</ele>
        <time>2025-09-14T06:58:47Z</time>
      </trkpt>
      <trkpt lat="45.68846" lon="3.36834">
        <ele>559</ele>
        <time>2025-09-14T06:58:48Z</time>
      </trkpt>
      <trkpt lat="45.68844" lon="3.36838">
        <ele>559</ele>
        <time>2025-09-14T06:58:49Z</time>
      </trkpt>
      <trkpt lat="45.68843" lon="3.36842">
        <ele>559.2</ele>
        <time>2025-09-14T06:58:50Z</time>
      </trkpt>
      <trkpt lat="45.68841" lon="3.36845">
        <ele>559.2</ele>
        <time>2025-09-14T06:58:51Z</time>
      </trkpt>
      <trkpt lat="45.6884" lon="3.36848">
        <ele>559.2</ele>
        <time>2025-09-14T06:58:52Z</time>
      </trkpt>
      <trkpt lat="45.68839" lon="3.3685">
        <ele>559.4</ele>
        <time>2025-09-14T06:58:53Z</time>
      </trkpt>
      <trkpt lat="45.68838" lon="3.36852">
        <ele>559.4</ele>
        <time>2025-09-14T06:58:54Z</time>
      </trkpt>
      <trkpt lat="45.68836" lon="3.36854">
        <ele>559.6</ele>
        <time>2025-09-14T06:58:55Z</time>
      </trkpt>
      <trkpt lat="45.68832" lon="3.36855">
        <ele>559.6</ele>
        <time>2025-09-14T06:58:56Z</time>
      </trkpt>
      <trkpt lat="45.68828" lon="3.36855">
        <ele>559.8</ele>
        <time>2025-09-14T06:58:57Z</time>
      </trkpt>
      <trkpt lat="45.68825" lon="3.36855">
        <ele>559.8</ele>
        <time>2025-09-14T06:58:58Z</time>
      </trkpt>
      <trkpt lat="45.68821" lon="3.36855">
        <ele>560</ele>
        <time>2025-09-14T06:58:59Z</time>
      </trkpt>
      <trkpt lat="45.68818" lon="3.36855">
        <ele>560</ele>
        <time>2025-09-14T06:59:00Z</time>
      </trkpt>
      <trkpt lat="45.68814" lon="3.36855">
        <ele>560.2</ele>
        <time>2025-09-14T06:59:01Z</time>
      </trkpt>
      <trkpt lat="45.6881" lon="3.36855">
        <ele>560.2</ele>
        <time>2025-09-14T06:59:02Z</time>
      </trkpt>
      <trkpt lat="45.68806" lon="3.36854">
        <ele>560.4</ele>
        <time>2025-09-14T06:59:03Z</time>
      </trkpt>
      <trkpt lat="45.68802" lon="3.36854">
        <ele>560.6</ele>
        <time>2025-09-14T06:59:04Z</time>
      </trkpt>
      <trkpt lat="45.68799" lon="3.36856">
        <ele>560.6</ele>
        <time>2025-09-14T06:59:05Z</time>
      </trkpt>
      <trkpt lat="45.68795" lon="3.36859">
        <ele>560.6</ele>
        <time>2025-09-14T06:59:06Z</time>
      </trkpt>
      <trkpt lat="45.68792" lon="3.36864">
        <ele>560.6</ele>
        <time>2025-09-14T06:59:07Z</time>
      </trkpt>
      <trkpt lat="45.6879" lon="3.3687">
        <ele>560.6</ele>
        <time>2025-09-14T06:59:08Z</time>
      </trkpt>
      <trkpt lat="45.68787" lon="3.36876">
        <ele>560.6</ele>
        <time>2025-09-14T06:59:09Z</time>
      </trkpt>
      <trkpt lat="45.68785" lon="3.36882">
        <ele>560.4</ele>
        <time>2025-09-14T06:59:10Z</time>
      </trkpt>
      <trkpt lat="45.68782" lon="3.36889">
        <ele>560.4</ele>
        <time>2025-09-14T06:59:11Z</time>
      </trkpt>
      <trkpt lat="45.68779" lon="3.36896">
        <ele>560.2</ele>
        <time>2025-09-14T06:59:12Z</time>
      </trkpt>
      <trkpt lat="45.68777" lon="3.36903">
        <ele>560.2</ele>
        <time>2025-09-14T06:59:13Z</time>
      </trkpt>
      <trkpt lat="45.68774" lon="3.3691">
        <ele>560</ele>
        <time>2025-09-14T06:59:14Z</time>
      </trkpt>
      <trkpt lat="45.68772" lon="3.36916">
        <ele>560</ele>
        <time>2025-09-14T06:59:15Z</time>
      </trkpt>
      <trkpt lat="45.68769" lon="3.36923">
        <ele>559.8</ele>
        <time>2025-09-14T06:59:16Z</time>
      </trkpt>
      <trkpt lat="45.68766" lon="3.3693">
        <ele>559.8</ele>
        <time>2025-09-14T06:59:17Z</time>
      </trkpt>
      <trkpt lat="45.68763" lon="3.36937">
        <ele>559.6</ele>
        <time>2025-09-14T06:59:18Z</time>
      </trkpt>
      <trkpt lat="45.6876" lon="3.36943">
        <ele>559.6</ele>
        <time>2025-09-14T06:59:19Z</time>
      </trkpt>
      <trkpt lat="45.68758" lon="3.36949">
        <ele>559.4</ele>
        <time>2025-09-14T06:59:20Z</time>
      </trkpt>
      <trkpt lat="45.68757" lon="3.36955">
        <ele>559.4</ele>
        <time>2025-09-14T06:59:21Z</time>
      </trkpt>
      <trkpt lat="45.68755" lon="3.36962">
        <ele>559.2</ele>
        <time>2025-09-14T06:59:22Z</time>
      </trkpt>
      <trkpt lat="45.68753" lon="3.36968">
        <ele>559.2</ele>
        <time>2025-09-14T06:59:23Z</time>
      </trkpt>
      <trkpt lat="45.6875" lon="3.36975">
        <ele>559</ele>
        <time>2025-09-14T06:59:24Z</time>
      </trkpt>
      <trkpt lat="45.68747" lon="3.36982">
        <ele>559</ele>
        <time>2025-09-14T06:59:25Z</time>
      </trkpt>
      <trkpt lat="45.68744" lon="3.36989">
        <ele>559</ele>
        <time>2025-09-14T06:59:26Z</time>
      </trkpt>
      <trkpt lat="45.68741" lon="3.36995">
        <ele>559</ele>
        <time>2025-09-14T06:59:27Z</time>
      </trkpt>
      <trkpt lat="45.68738" lon="3.37001">
        <ele>559</ele>
        <time>2025-09-14T06:59:28Z</time>
      </trkpt>
      <trkpt lat="45.68735" lon="3.37007">
        <ele>559.2</ele>
        <time>2025-09-14T06:59:29Z</time>
      </trkpt>
      <trkpt lat="45.68732" lon="3.37013">
        <ele>559.2</ele>
        <time>2025-09-14T06:59:30Z</time>
      </trkpt>
      <trkpt lat="45.6873" lon="3.37019">
        <ele>559.4</ele>
        <time>2025-09-14T06:59:31Z</time>
      </trkpt>
      <trkpt lat="45.68728" lon="3.37025">
        <ele>559.4</ele>
        <time>2025-09-14T06:59:32Z</time>
      </trkpt>
      <trkpt lat="45.68728" lon="3.37032">
        <ele>559.6</ele>
        <time>2025-09-14T06:59:33Z</time>
      </trkpt>
      <trkpt lat="45.68729" lon="3.37038">
        <ele>559.8</ele>
        <time>2025-09-14T06:59:34Z</time>
      </trkpt>
      <trkpt lat="45.6873" lon="3.37045">
        <ele>560</ele>
        <time>2025-09-14T06:59:35Z</time>
      </trkpt>
      <trkpt lat="45.68732" lon="3.37052">
        <ele>560.4</ele>
        <time>2025-09-14T06:59:36Z</time>
      </trkpt>
      <trkpt lat="45.68733" lon="3.37058">
        <ele>560.6</ele>
        <time>2025-09-14T06:59:37Z</time>
      </trkpt>
      <trkpt lat="45.68735" lon="3.37064">
        <ele>560.8</ele>
        <time>2025-09-14T06:59:38Z</time>
      </trkpt>
      <trkpt lat="45.68736" lon="3.37069">
        <ele>561</ele>
        <time>2025-09-14T06:59:39Z</time>
      </trkpt>
      <trkpt lat="45.68738" lon="3.37074">
        <ele>561.2</ele>
        <time>2025-09-14T06:59:40Z</time>
      </trkpt>
      <trkpt lat="45.68739" lon="3.37079">
        <ele>561.6</ele>
        <time>2025-09-14T06:59:41Z</time>
      </trkpt>
      <trkpt lat="45.6874" lon="3.37085">
        <ele>561.8</ele>
        <time>2025-09-14T06:59:42Z</time>
      </trkpt>
      <trkpt lat="45.6874" lon="3.37091">
        <ele>562</ele>
        <time>2025-09-14T06:59:43Z</time>
      </trkpt>
      <trkpt lat="45.68739" lon="3.37097">
        <ele>562.4</ele>
        <time>2025-09-14T06:59:44Z</time>
      </trkpt>
      <trkpt lat="45.68738" lon="3.37102">
        <ele>562.6</ele>
        <time>2025-09-14T06:59:45Z</time>
      </trkpt>
      <trkpt lat="45.68737" lon="3.37107">
        <ele>563</ele>
        <time>2025-09-14T06:59:46Z</time>
      </trkpt>
      <trkpt lat="45.68736" lon="3.37112">
        <ele>563.2</ele>
        <time>2025-09-14T06:59:47Z</time>
      </trkpt>
      <trkpt lat="45.68735" lon="3.37117">
        <ele>563.4</ele>
        <time>2025-09-14T06:59:48Z</time>
      </trkpt>
      <trkpt lat="45.68733" lon="3.37121">
        <ele>563.8</ele>
        <time>2025-09-14T06:59:49Z</time>
      </trkpt>
      <trkpt lat="45.68732" lon="3.37126">
        <ele>564</ele>
        <time>2025-09-14T06:59:50Z</time>
      </trkpt>
      <trkpt lat="45.68731" lon="3.37131">
        <ele>564.2</ele>
        <time>2025-09-14T06:59:51Z</time>
      </trkpt>
      <trkpt lat="45.6873" lon="3.37136">
        <ele>564.4</ele>
        <time>2025-09-14T06:59:52Z</time>
      </trkpt>
      <trkpt lat="45.68729" lon="3.3714">
        <ele>564.6</ele>
        <time>2025-09-14T06:59:53Z</time>
      </trkpt>
      <trkpt lat="45.68729" lon="3.37145">
        <ele>564.8</ele>
        <time>2025-09-14T06:59:54Z</time>
      </trkpt>
      <trkpt lat="45.68728" lon="3.3715">
        <ele>565</ele>
        <time>2025-09-14T06:59:55Z</time>
      </trkpt>
      <trkpt lat="45.68727" lon="3.37154">
        <ele>565.2</ele>
        <time>2025-09-14T06:59:56Z</time>
      </trkpt>
      <trkpt lat="45.68727" lon="3.37158">
        <ele>565.6</ele>
        <time>2025-09-14T06:59:57Z</time>
      </trkpt>
      <trkpt lat="45.68727" lon="3.37163">
        <ele>565.8</ele>
        <time>2025-09-14T06:59:58Z</time>
      </trkpt>
      <trkpt lat="45.68728" lon="3.37167">
        <ele>566</ele>
        <time>2025-09-14T06:59:59Z</time>
      </trkpt>
      <trkpt lat="45.68728" lon="3.37172">
        <ele>566.4</ele>
        <time>2025-09-14T07:00:00Z</time>
      </trkpt>
      <trkpt lat="45.68729" lon="3.37176">
        <ele>566.6</ele>
        <time>2025-09-14T07:00:01Z</time>
      </trkpt>
      <trkpt lat="45.68729" lon="3.37182">
        <ele>566.8</ele>
        <time>2025-09-14T07:00:02Z</time>
      </trkpt>
      <trkpt lat="45.68729" lon="3.37187">
        <ele>567</ele>
        <time>2025-09-14T07:00:03Z</time>
      </trkpt>
      <trkpt lat="45.68728" lon="3.37192">
        <ele>567.2</ele>
        <time>2025-09-14T07:00:04Z</time>
      </trkpt>
      <trkpt lat="45.68728" lon="3.37196">
        <ele>567.6</ele>
        <time>2025-09-14T07:00:05Z</time>
      </trkpt>
      <trkpt lat="45.68727" lon="3.37201">
        <ele>567.8</ele>
        <time>2025-09-14T07:00:06Z</time>
      </trkpt>
      <trkpt lat="45.68726" lon="3.37206">
        <ele>568</ele>
        <time>2025-09-14T07:00:07Z</time>
      </trkpt>
      <trkpt lat="45.68725" lon="3.37211">
        <ele>568.4</ele>
        <time>2025-09-14T07:00:08Z</time>
      </trkpt>
      <trkpt lat="45.68723" lon="3.37215">
        <ele>568.6</ele>
        <time>2025-09-14T07:00:09Z</time>
      </trkpt>
      <trkpt lat="45.68722" lon="3.37219">
        <ele>569</ele>
        <time>2025-09-14T07:00:10Z</time>
      </trkpt>
      <trkpt lat="45.6872" lon="3.37222">
        <ele>569.2</ele>
        <time>2025-09-14T07:00:11Z</time>
      </trkpt>
      <trkpt lat="45.68718" lon="3.37225">
        <ele>569.4</ele>
        <time>2025-09-14T07:00:12Z</time>
      </trkpt>
      <trkpt lat="45.68715" lon="3.37228">
        <ele>569.8</ele>
        <time>2025-09-14T07:00:13Z</time>
      </trkpt>
      <trkpt lat="45.68713" lon="3.37231">
        <ele>570</ele>
        <time>2025-09-14T07:00:14Z</time>
      </trkpt>
      <trkpt lat="45.6871" lon="3.37234">
        <ele>570.2</ele>
        <time>2025-09-14T07:00:15Z</time>
      </trkpt>
      <trkpt lat="45.68708" lon="3.37236">
        <ele>570.4</ele>
        <time>2025-09-14T07:00:16Z</time>
      </trkpt>
      <trkpt lat="45.68706" lon="3.37239">
        <ele>570.6</ele>
        <time>2025-09-14T07:00:17Z</time>
      </trkpt>
      <trkpt lat="45.68703" lon="3.37242">
        <ele>570.8</ele>
        <time>2025-09-14T07:00:18Z</time>
      </trkpt>
      <trkpt lat="45.68701" lon="3.37245">
        <ele>571</ele>
        <time>2025-09-14T07:00:19Z</time>
      </trkpt>
      <trkpt lat="45.68698" lon="3.37246">
        <ele>571.4</ele>
        <time>2025-09-14T07:00:20Z</time>
      </trkpt>
      <trkpt lat="45.68695" lon="3.37246">
        <ele>571.6</ele>
        <time>2025-09-14T07:00:21Z</time>
      </trkpt>
      <trkpt lat="45.68692" lon="3.37246">
        <ele>571.8</ele>
        <time>2025-09-14T07:00:22Z</time>
      </trkpt>
      <trkpt lat="45.68689" lon="3.37244">
        <ele>572.2</ele>
        <time>2025-09-14T07:00:23Z</time>
      </trkpt>
      <trkpt lat="45.68687" lon="3.37241">
        <ele>572.4</ele>
        <time>2025-09-14T07:00:24Z</time>
      </trkpt>
      <trkpt lat="45.68685" lon="3.37239">
        <ele>572.6</ele>
        <time>2025-09-14T07:00:25Z</time>
      </trkpt>
      <trkpt lat="45.68683" lon="3.37236">
        <ele>573</ele>
        <time>2025-09-14T07:00:26Z</time>
      </trkpt>
      <trkpt lat="45.68681" lon="3.37234">
        <ele>573.2</ele>
        <time>2025-09-14T07:00:27Z</time>
      </trkpt>
      <trkpt lat="45.68678" lon="3.37231">
        <ele>573.4</ele>
        <time>2025-09-14T07:00:28Z</time>
      </trkpt>
      <trkpt lat="45.68676" lon="3.37229">
        <ele>573.4</ele>
        <time>2025-09-14T07:00:29Z</time>
      </trkpt>
      <trkpt lat="45.68674" lon="3.37225">
        <ele>573.6</ele>
        <time>2025-09-14T07:00:30Z</time>
      </trkpt>
      <trkpt lat="45.68671" lon="3.37222">
        <ele>573.8</ele>
        <time>2025-09-14T07:00:31Z</time>
      </trkpt>
      <trkpt lat="45.68668" lon="3.37219">
        <ele>574</ele>
        <time>2025-09-14T07:00:32Z</time>
      </trkpt>
      <trkpt lat="45.68665" lon="3.37216">
        <ele>574.2</ele>
        <time>2025-09-14T07:00:33Z</time>
      </trkpt>
      <trkpt lat="45.68663" lon="3.37214">
        <ele>574.4</ele>
        <time>2025-09-14T07:00:34Z</time>
      </trkpt>
      <trkpt lat="45.6866" lon="3.37212">
        <ele>574.6</ele>
        <time>2025-09-14T07:00:35Z</time>
      </trkpt>
      <trkpt lat="45.68659" lon="3.3721">
        <ele>574.6</ele>
        <time>2025-09-14T07:00:36Z</time>
      </trkpt>
      <trkpt lat="45.68657" lon="3.37207">
        <ele>574.8</ele>
        <time>2025-09-14T07:00:37Z</time>
      </trkpt>
      <trkpt lat="45.68655" lon="3.37204">
        <ele>575</ele>
        <time>2025-09-14T07:00:38Z</time>
      </trkpt>
      <trkpt lat="45.68653" lon="3.37202">
        <ele>575.2</ele>
        <time>2025-09-14T07:00:39Z</time>
      </trkpt>
      <trkpt lat="45.68651" lon="3.37199">
        <ele>575.4</ele>
        <time>2025-09-14T07:00:40Z</time>
      </trkpt>
      <trkpt lat="45.68648" lon="3.37196">
        <ele>575.6</ele>
        <time>2025-09-14T07:00:41Z</time>
      </trkpt>
      <trkpt lat="45.68645" lon="3.37193">
        <ele>575.8</ele>
        <time>2025-09-14T07:00:42Z</time>
      </trkpt>
      <trkpt lat="45.68643" lon="3.37191">
        <ele>576</ele>
        <time>2025-09-14T07:00:43Z</time>
      </trkpt>
      <trkpt lat="45.68641" lon="3.37189">
        <ele>576.2</ele>
        <time>2025-09-14T07:00:44Z</time>
      </trkpt>
      <trkpt lat="45.68638" lon="3.37187">
        <ele>576.4</ele>
        <time>2025-09-14T07:00:45Z</time>
      </trkpt>
      <trkpt lat="45.68635" lon="3.37186">
        <ele>576.4</ele>
        <time>2025-09-14T07:00:46Z</time>
      </trkpt>
      <trkpt lat="45.68632" lon="3.37185">
        <ele>576.6</ele>
        <time>2025-09-14T07:00:47Z</time>
      </trkpt>
      <trkpt lat="45.68628" lon="3.37185">
        <ele>576.8</ele>
        <time>2025-09-14T07:00:48Z</time>
      </trkpt>
      <trkpt lat="45.68625" lon="3.37186">
        <ele>577</ele>
        <time>2025-09-14T07:00:49Z</time>
      </trkpt>
      <trkpt lat="45.68622" lon="3.37188">
        <ele>577.2</ele>
        <time>2025-09-14T07:00:50Z</time>
      </trkpt>
      <trkpt lat="45.68619" lon="3.3719">
        <ele>577.4</ele>
        <time>2025-09-14T07:00:51Z</time>
      </trkpt>
      <trkpt lat="45.68616" lon="3.37192">
        <ele>577.6</ele>
        <time>2025-09-14T07:00:52Z</time>
      </trkpt>
      <trkpt lat="45.68614" lon="3.37195">
        <ele>577.8</ele>
        <time>2025-09-14T07:00:53Z</time>
      </trkpt>
      <trkpt lat="45.68611" lon="3.37197">
        <ele>578</ele>
        <time>2025-09-14T07:00:54Z</time>
      </trkpt>
      <trkpt lat="45.68609" lon="3.37199">
        <ele>578.2</ele>
        <time>2025-09-14T07:00:55Z</time>
      </trkpt>
      <trkpt lat="45.68607" lon="3.37201">
        <ele>578.4</ele>
        <time>2025-09-14T07:00:56Z</time>
      </trkpt>
      <trkpt lat="45.68604" lon="3.37204">
        <ele>578.6</ele>
        <time>2025-09-14T07:00:57Z</time>
      </trkpt>
      <trkpt lat="45.68602" lon="3.37206">
        <ele>578.8</ele>
        <time>2025-09-14T07:00:58Z</time>
      </trkpt>
      <trkpt lat="45.686" lon="3.37209">
        <ele>579</ele>
        <time>2025-09-14T07:00:59Z</time>
      </trkpt>
      <trkpt lat="45.68597" lon="3.37212">
        <ele>579.4</ele>
        <time>2025-09-14T07:01:00Z</time>
      </trkpt>
      <trkpt lat="45.68595" lon="3.37215">
        <ele>579.6</ele>
        <time>2025-09-14T07:01:01Z</time>
      </trkpt>
      <trkpt lat="45.68592" lon="3.37218">
        <ele>579.8</ele>
        <time>2025-09-14T07:01:02Z</time>
      </trkpt>
      <trkpt lat="45.6859" lon="3.37221">
        <ele>580</ele>
        <time>2025-09-14T07:01:03Z</time>
      </trkpt>
      <trkpt lat="45.68588" lon="3.37224">
        <ele>580.2</ele>
        <time>2025-09-14T07:01:04Z</time>
      </trkpt>
      <trkpt lat="45.68586" lon="3.37227">
        <ele>580.4</ele>
        <time>2025-09-14T07:01:05Z</time>
      </trkpt>
      <trkpt lat="45.68584" lon="3.3723">
        <ele>580.4</ele>
        <time>2025-09-14T07:01:06Z</time>
      </trkpt>
      <trkpt lat="45.68581" lon="3.37233">
        <ele>580.6</ele>
        <time>2025-09-14T07:01:07Z</time>
      </trkpt>
      <trkpt lat="45.68579" lon="3.37236">
        <ele>580.8</ele>
        <time>2025-09-14T07:01:08Z</time>
      </trkpt>
      <trkpt lat="45.68577" lon="3.37239">
        <ele>581</ele>
        <time>2025-09-14T07:01:09Z</time>
      </trkpt>
      <trkpt lat="45.68575" lon="3.37241">
        <ele>581.2</ele>
        <time>2025-09-14T07:01:10Z</time>
      </trkpt>
      <trkpt lat="45.68573" lon="3.37244">
        <ele>581.2</ele>
        <time>2025-09-14T07:01:11Z</time>
      </trkpt>
      <trkpt lat="45.6857" lon="3.37247">
        <ele>581.4</ele>
        <time>2025-09-14T07:01:12Z</time>
      </trkpt>
      <trkpt lat="45.68568" lon="3.37251">
        <ele>581.6</ele>
        <time>2025-09-14T07:01:13Z</time>
      </trkpt>
      <trkpt lat="45.68566" lon="3.37254">
        <ele>581.6</ele>
        <time>2025-09-14T07:01:14Z</time>
      </trkpt>
      <trkpt lat="45.68564" lon="3.37257">
        <ele>581.8</ele>
        <time>2025-09-14T07:01:15Z</time>
      </trkpt>
      <trkpt lat="45.68562" lon="3.3726">
        <ele>582</ele>
        <time>2025-09-14T07:01:16Z</time>
      </trkpt>
      <trkpt lat="45.6856" lon="3.37263">
        <ele>582</ele>
        <time>2025-09-14T07:01:17Z</time>
      </trkpt>
      <trkpt lat="45.68558" lon="3.37266">
        <ele>582.2</ele>
        <time>2025-09-14T07:01:18Z</time>
      </trkpt>
      <trkpt lat="45.68556" lon="3.37269">
        <ele>582.4</ele>
        <time>2025-09-14T07:01:19Z</time>
      </trkpt>
      <trkpt lat="45.68554" lon="3.37272">
        <ele>582.6</ele>
        <time>2025-09-14T07:01:20Z</time>
      </trkpt>
      <trkpt lat="45.68552" lon="3.37275">
        <ele>582.6</ele>
        <time>2025-09-14T07:01:21Z</time>
      </trkpt>
      <trkpt lat="45.68551" lon="3.37278">
        <ele>582.8</ele>
        <time>2025-09-14T07:01:22Z</time>
      </trkpt>
      <trkpt lat="45.68549" lon="3.37282">
        <ele>583.2</ele>
        <time>2025-09-14T07:01:23Z</time>
      </trkpt>
      <trkpt lat="45.68547" lon="3.37285">
        <ele>583.2</ele>
        <time>2025-09-14T07:01:24Z</time>
      </trkpt>
      <trkpt lat="45.68545" lon="3.37288">
        <ele>583.4</ele>
        <time>2025-09-14T07:01:25Z</time>
      </trkpt>
      <trkpt lat="45.68543" lon="3.37291">
        <ele>583.6</ele>
        <time>2025-09-14T07:01:26Z</time>
      </trkpt>
      <trkpt lat="45.68541" lon="3.37294">
        <ele>584</ele>
        <time>2025-09-14T07:01:27Z</time>
      </trkpt>
      <trkpt lat="45.68539" lon="3.37297">
        <ele>584.2</ele>
        <time>2025-09-14T07:01:28Z</time>
      </trkpt>
      <trkpt lat="45.68537" lon="3.373">
        <ele>584.4</ele>
        <time>2025-09-14T07:01:29Z</time>
      </trkpt>
      <trkpt lat="45.68535" lon="3.37303">
        <ele>584.6</ele>
        <time>2025-09-14T07:01:30Z</time>
      </trkpt>
      <trkpt lat="45.68533" lon="3.37306">
        <ele>584.8</ele>
        <time>2025-09-14T07:01:31Z</time>
      </trkpt>
      <trkpt lat="45.68531" lon="3.37309">
        <ele>585</ele>
        <time>2025-09-14T07:01:32Z</time>
      </trkpt>
      <trkpt lat="45.68529" lon="3.37313">
        <ele>585.4</ele>
        <time>2025-09-14T07:01:33Z</time>
      </trkpt>
      <trkpt lat="45.68527" lon="3.37316">
        <ele>585.6</ele>
        <time>2025-09-14T07:01:34Z</time>
      </trkpt>
      <trkpt lat="45.68525" lon="3.37319">
        <ele>585.8</ele>
        <time>2025-09-14T07:01:35Z</time>
      </trkpt>
      <trkpt lat="45.68523" lon="3.37322">
        <ele>586</ele>
        <time>2025-09-14T07:01:36Z</time>
      </trkpt>
      <trkpt lat="45.68521" lon="3.37325">
        <ele>586.4</ele>
        <time>2025-09-14T07:01:37Z</time>
      </trkpt>
      <trkpt lat="45.6852" lon="3.37328">
        <ele>586.6</ele>
        <time>2025-09-14T07:01:38Z</time>
      </trkpt>
      <trkpt lat="45.68517" lon="3.37331">
        <ele>586.8</ele>
        <time>2025-09-14T07:01:39Z</time>
      </trkpt>
      <trkpt lat="45.68516" lon="3.37334">
        <ele>587.2</ele>
        <time>2025-09-14T07:01:40Z</time>
      </trkpt>
      <trkpt lat="45.68514" lon="3.37338">
        <ele>587.4</ele>
        <time>2025-09-14T07:01:41Z</time>
      </trkpt>
      <trkpt lat="45.68512" lon="3.37341">
        <ele>587.6</ele>
        <time>2025-09-14T07:01:42Z</time>
      </trkpt>
      <trkpt lat="45.68511" lon="3.37344">
        <ele>587.8</ele>
        <time>2025-09-14T07:01:43Z</time>
      </trkpt>
      <trkpt lat="45.68509" lon="3.37347">
        <ele>588.2</ele>
        <time>2025-09-14T07:01:44Z</time>
      </trkpt>
      <trkpt lat="45.68507" lon="3.3735">
        <ele>588.4</ele>
        <time>2025-09-14T07:01:45Z</time>
      </trkpt>
      <trkpt lat="45.68506" lon="3.37353">
        <ele>588.6</ele>
        <time>2025-09-14T07:01:46Z</time>
      </trkpt>
      <trkpt lat="45.68504" lon="3.37355">
        <ele>588.8</ele>
        <time>2025-09-14T07:01:47Z</time>
      </trkpt>
      <trkpt lat="45.68503" lon="3.37358">
        <ele>589.2</ele>
        <time>2025-09-14T07:01:48Z</time>
      </trkpt>
      <trkpt lat="45.68501" lon="3.37361">
        <ele>589.4</ele>
        <time>2025-09-14T07:01:49Z</time>
      </trkpt>
      <trkpt lat="45.68499" lon="3.37363">
        <ele>589.6</ele>
        <time>2025-09-14T07:01:50Z</time>
      </trkpt>
      <trkpt lat="45.68498" lon="3.37366">
        <ele>589.8</ele>
        <time>2025-09-14T07:01:51Z</time>
      </trkpt>
      <trkpt lat="45.68496" lon="3.37369">
        <ele>590.2</ele>
        <time>2025-09-14T07:01:52Z</time>
      </trkpt>
      <trkpt lat="45.68493" lon="3.37372">
        <ele>590.4</ele>
        <time>2025-09-14T07:01:53Z</time>
      </trkpt>
      <trkpt lat="45.68492" lon="3.37374">
        <ele>590.6</ele>
        <time>2025-09-14T07:01:54Z</time>
      </trkpt>
      <trkpt lat="45.6849" lon="3.37377">
        <ele>590.8</ele>
        <time>2025-09-14T07:01:55Z</time>
      </trkpt>
      <trkpt lat="45.68488" lon="3.3738">
        <ele>591.2</ele>
        <time>2025-09-14T07:01:56Z</time>
      </trkpt>
      <trkpt lat="45.68487" lon="3.37383">
        <ele>591.4</ele>
        <time>2025-09-14T07:01:57Z</time>
      </trkpt>
      <trkpt lat="45.68485" lon="3.37385">
        <ele>591.6</ele>
        <time>2025-09-14T07:01:58Z</time>
      </trkpt>
      <trkpt lat="45.68483" lon="3.37389">
        <ele>591.8</ele>
        <time>2025-09-14T07:01:59Z</time>
      </trkpt>
      <trkpt lat="45.68482" lon="3.37391">
        <ele>592</ele>
        <time>2025-09-14T07:02:00Z</time>
      </trkpt>
      <trkpt lat="45.6848" lon="3.37394">
        <ele>592.2</ele>
        <time>2025-09-14T07:02:01Z</time>
      </trkpt>
      <trkpt lat="45.68478" lon="3.37396">
        <ele>592.4</ele>
        <time>2025-09-14T07:02:02Z</time>
      </trkpt>
      <trkpt lat="45.68475" lon="3.37398">
        <ele>592.6</ele>
        <time>2025-09-14T07:02:03Z</time>
      </trkpt>
      <trkpt lat="45.68473" lon="3.374">
        <ele>592.8</ele>
        <time>2025-09-14T07:02:04Z</time>
      </trkpt>
      <trkpt lat="45.68471" lon="3.37402">
        <ele>593</ele>
        <time>2025-09-14T07:02:05Z</time>
      </trkpt>
      <trkpt lat="45.68469" lon="3.37403">
        <ele>593</ele>
        <time>2025-09-14T07:02:06Z</time>
      </trkpt>
      <trkpt lat="45.68467" lon="3.37405">
        <ele>593.2</ele>
        <time>2025-09-14T07:02:07Z</time>
      </trkpt>
      <trkpt lat="45.68464" lon="3.37407">
        <ele>593.4</ele>
        <time>2025-09-14T07:02:08Z</time>
      </trkpt>
      <trkpt lat="45.68462" lon="3.3741">
        <ele>593.4</ele>
        <time>2025-09-14T07:02:09Z</time>
      </trkpt>
      <trkpt lat="45.68459" lon="3.37412">
        <ele>593.6</ele>
        <time>2025-09-14T07:02:10Z</time>
      </trkpt>
      <trkpt lat="45.68457" lon="3.37414">
        <ele>593.6</ele>
        <time>2025-09-14T07:02:11Z</time>
      </trkpt>
      <trkpt lat="45.68454" lon="3.37415">
        <ele>593.8</ele>
        <time>2025-09-14T07:02:12Z</time>
      </trkpt>
      <trkpt lat="45.68451" lon="3.37417">
        <ele>593.8</ele>
        <time>2025-09-14T07:02:13Z</time>
      </trkpt>
      <trkpt lat="45.68448" lon="3.37418">
        <ele>594</ele>
        <time>2025-09-14T07:02:14Z</time>
      </trkpt>
      <trkpt lat="45.68445" lon="3.37419">
        <ele>594</ele>
        <time>2025-09-14T07:02:15Z</time>
      </trkpt>
      <trkpt lat="45.68442" lon="3.37421">
        <ele>594.2</ele>
        <time>2025-09-14T07:02:16Z</time>
      </trkpt>
      <trkpt lat="45.68439" lon="3.37423">
        <ele>594.2</ele>
        <time>2025-09-14T07:02:17Z</time>
      </trkpt>
      <trkpt lat="45.68437" lon="3.37425">
        <ele>594.4</ele>
        <time>2025-09-14T07:02:18Z</time>
      </trkpt>
      <trkpt lat="45.68434" lon="3.37427">
        <ele>594.6</ele>
        <time>2025-09-14T07:02:19Z</time>
      </trkpt>
      <trkpt lat="45.68431" lon="3.37428">
        <ele>594.6</ele>
        <time>2025-09-14T07:02:20Z</time>
      </trkpt>
      <trkpt lat="45.68428" lon="3.3743">
        <ele>594.8</ele>
        <time>2025-09-14T07:02:21Z</time>
      </trkpt>
      <trkpt lat="45.68426" lon="3.37431">
        <ele>594.8</ele>
        <time>2025-09-14T07:02:22Z</time>
      </trkpt>
      <trkpt lat="45.68423" lon="3.37433">
        <ele>595</ele>
        <time>2025-09-14T07:02:23Z</time>
      </trkpt>
      <trkpt lat="45.6842" lon="3.37436">
        <ele>595.2</ele>
        <time>2025-09-14T07:02:24Z</time>
      </trkpt>
      <trkpt lat="45.68417" lon="3.37437">
        <ele>595.2</ele>
        <time>2025-09-14T07:02:25Z</time>
      </trkpt>
      <trkpt lat="45.68414" lon="3.37439">
        <ele>595.4</ele>
        <time>2025-09-14T07:02:26Z</time>
      </trkpt>
      <trkpt lat="45.68412" lon="3.37441">
        <ele>595.6</ele>
        <time>2025-09-14T07:02:27Z</time>
      </trkpt>
      <trkpt lat="45.68409" lon="3.37442">
        <ele>595.8</ele>
        <time>2025-09-14T07:02:28Z</time>
      </trkpt>
      <trkpt lat="45.68406" lon="3.37444">
        <ele>595.8</ele>
        <time>2025-09-14T07:02:29Z</time>
      </trkpt>
      <trkpt lat="45.68404" lon="3.37446">
        <ele>596</ele>
        <time>2025-09-14T07:02:30Z</time>
      </trkpt>
      <trkpt lat="45.68401" lon="3.37448">
        <ele>596.2</ele>
        <time>2025-09-14T07:02:31Z</time>
      </trkpt>
      <trkpt lat="45.68398" lon="3.3745">
        <ele>596.2</ele>
        <time>2025-09-14T07:02:32Z</time>
      </trkpt>
      <trkpt lat="45.68396" lon="3.37452">
        <ele>596.4</ele>
        <time>2025-09-14T07:02:33Z</time>
      </trkpt>
      <trkpt lat="45.68393" lon="3.37454">
        <ele>596.6</ele>
        <time>2025-09-14T07:02:34Z</time>
      </trkpt>
      <trkpt lat="45.6839" lon="3.37455">
        <ele>596.8</ele>
        <time>2025-09-14T07:02:35Z</time>
      </trkpt>
      <trkpt lat="45.68387" lon="3.37457">
        <ele>597</ele>
        <time>2025-09-14T07:02:36Z</time>
      </trkpt>
      <trkpt lat="45.68385" lon="3.37459">
        <ele>597.2</ele>
        <time>2025-09-14T07:02:37Z</time>
      </trkpt>
      <trkpt lat="45.68382" lon="3.3746">
        <ele>597.4</ele>
        <time>2025-09-14T07:02:38Z</time>
      </trkpt>
      <trkpt lat="45.6838" lon="3.37462">
        <ele>597.6</ele>
        <time>2025-09-14T07:02:39Z</time>
      </trkpt>
      <trkpt lat="45.68377" lon="3.37463">
        <ele>597.8</ele>
        <time>2025-09-14T07:02:40Z</time>
      </trkpt>
      <trkpt lat="45.68374" lon="3.37465">
        <ele>598</ele>
        <time>2025-09-14T07:02:41Z</time>
      </trkpt>
      <trkpt lat="45.68372" lon="3.37467">
        <ele>598.2</ele>
        <time>2025-09-14T07:02:42Z</time>
      </trkpt>
      <trkpt lat="45.68369" lon="3.37469">
        <ele>598.2</ele>
        <time>2025-09-14T07:02:43Z</time>
      </trkpt>
      <trkpt lat="45.68367" lon="3.3747">
        <ele>598.4</ele>
        <time>2025-09-14T07:02:44Z</time>
      </trkpt>
      <trkpt lat="45.68364" lon="3.37471">
        <ele>598.6</ele>
        <time>2025-09-14T07:02:45Z</time>
      </trkpt>
      <trkpt lat="45.68362" lon="3.37473">
        <ele>598.8</ele>
        <time>2025-09-14T07:02:46Z</time>
      </trkpt>
      <trkpt lat="45.6836" lon="3.37475">
        <ele>599</ele>
        <time>2025-09-14T07:02:47Z</time>
      </trkpt>
      <trkpt lat="45.68357" lon="3.37476">
        <ele>599.2</ele>
        <time>2025-09-14T07:02:48Z</time>
      </trkpt>
      <trkpt lat="45.68355" lon="3.37478">
        <ele>599.4</ele>
        <time>2025-09-14T07:02:49Z</time>
      </trkpt>
      <trkpt lat="45.68353" lon="3.37479">
        <ele>599.6</ele>
        <time>2025-09-14T07:02:50Z</time>
      </trkpt>
      <trkpt lat="45.68351" lon="3.37481">
        <ele>599.8</ele>
        <time>2025-09-14T07:02:51Z</time>
      </trkpt>
      <trkpt lat="45.68348" lon="3.37482">
        <ele>600</ele>
        <time>2025-09-14T07:02:52Z</time>
      </trkpt>
      <trkpt lat="45.68345" lon="3.37483">
        <ele>600.2</ele>
        <time>2025-09-14T07:02:53Z</time>
      </trkpt>
      <trkpt lat="45.68343" lon="3.37484">
        <ele>600.4</ele>
        <time>2025-09-14T07:02:54Z</time>
      </trkpt>
      <trkpt lat="45.6834" lon="3.37486">
        <ele>600.8</ele>
        <time>2025-09-14T07:02:55Z</time>
      </trkpt>
      <trkpt lat="45.68337" lon="3.37486">
        <ele>601</ele>
        <time>2025-09-14T07:02:56Z</time>
      </trkpt>
      <trkpt lat="45.68334" lon="3.37487">
        <ele>601.2</ele>
        <time>2025-09-14T07:02:57Z</time>
      </trkpt>
      <trkpt lat="45.68332" lon="3.37488">
        <ele>601.4</ele>
        <time>2025-09-14T07:02:58Z</time>
      </trkpt>
      <trkpt lat="45.68329" lon="3.37489">
        <ele>601.6</ele>
        <time>2025-09-14T07:02:59Z</time>
      </trkpt>
      <trkpt lat="45.68326" lon="3.3749">
        <ele>601.8</ele>
        <time>2025-09-14T07:03:00Z</time>
      </trkpt>
      <trkpt lat="45.68323" lon="3.37491">
        <ele>602</ele>
        <time>2025-09-14T07:03:01Z</time>
      </trkpt>
      <trkpt lat="45.68321" lon="3.37492">
        <ele>602.2</ele>
        <time>2025-09-14T07:03:02Z</time>
      </trkpt>
      <trkpt lat="45.68318" lon="3.37492">
        <ele>602.6</ele>
        <time>2025-09-14T07:03:03Z</time>
      </trkpt>
      <trkpt lat="45.68316" lon="3.37494">
        <ele>602.8</ele>
        <time>2025-09-14T07:03:04Z</time>
      </trkpt>
      <trkpt lat="45.68314" lon="3.37496">
        <ele>603</ele>
        <time>2025-09-14T07:03:05Z</time>
      </trkpt>
      <trkpt lat="45.68311" lon="3.37498">
        <ele>603.2</ele>
        <time>2025-09-14T07:03:06Z</time>
      </trkpt>
      <trkpt lat="45.68309" lon="3.37499">
        <ele>603.4</ele>
        <time>2025-09-14T07:03:07Z</time>
      </trkpt>
      <trkpt lat="45.68307" lon="3.37501">
        <ele>603.6</ele>
        <time>2025-09-14T07:03:08Z</time>
      </trkpt>
      <trkpt lat="45.68305" lon="3.37502">
        <ele>603.8</ele>
        <time>2025-09-14T07:03:09Z</time>
      </trkpt>
      <trkpt lat="45.68302" lon="3.37503">
        <ele>604</ele>
        <time>2025-09-14T07:03:10Z</time>
      </trkpt>
      <trkpt lat="45.683" lon="3.37504">
        <ele>604.2</ele>
        <time>2025-09-14T07:03:11Z</time>
      </trkpt>
      <trkpt lat="45.68297" lon="3.37506">
        <ele>604.4</ele>
        <time>2025-09-14T07:03:12Z</time>
      </trkpt>
      <trkpt lat="45.68295" lon="3.37507">
        <ele>604.6</ele>
        <time>2025-09-14T07:03:13Z</time>
      </trkpt>
      <trkpt lat="45.68293" lon="3.37509">
        <ele>604.8</ele>
        <time>2025-09-14T07:03:14Z</time>
      </trkpt>
      <trkpt lat="45.68291" lon="3.37511">
        <ele>605</ele>
        <time>2025-09-14T07:03:15Z</time>
      </trkpt>
      <trkpt lat="45.68288" lon="3.37512">
        <ele>605.2</ele>
        <time>2025-09-14T07:03:16Z</time>
      </trkpt>
      <trkpt lat="45.68286" lon="3.37514">
        <ele>605.4</ele>
        <time>2025-09-14T07:03:17Z</time>
      </trkpt>
      <trkpt lat="45.68284" lon="3.37516">
        <ele>605.6</ele>
        <time>2025-09-14T07:03:18Z</time>
      </trkpt>
      <trkpt lat="45.68282" lon="3.37518">
        <ele>606</ele>
        <time>2025-09-14T07:03:19Z</time>
      </trkpt>
      <trkpt lat="45.68279" lon="3.3752">
        <ele>606.2</ele>
        <time>2025-09-14T07:03:20Z</time>
      </trkpt>
      <trkpt lat="45.68277" lon="3.37522">
        <ele>606.4</ele>
        <time>2025-09-14T07:03:21Z</time>
      </trkpt>
      <trkpt lat="45.68275" lon="3.37524">
        <ele>606.6</ele>
        <time>2025-09-14T07:03:22Z</time>
      </trkpt>
      <trkpt lat="45.68272" lon="3.37526">
        <ele>606.8</ele>
        <time>2025-09-14T07:03:23Z</time>
      </trkpt>
      <trkpt lat="45.6827" lon="3.37528">
        <ele>607.2</ele>
        <time>2025-09-14T07:03:24Z</time>
      </trkpt>
      <trkpt lat="45.68267" lon="3.3753">
        <ele>607.4</ele>
        <time>2025-09-14T07:03:25Z</time>
      </trkpt>
      <trkpt lat="45.68265" lon="3.37532">
        <ele>607.6</ele>
        <time>2025-09-14T07:03:26Z</time>
      </trkpt>
      <trkpt lat="45.68263" lon="3.37534">
        <ele>607.8</ele>
        <time>2025-09-14T07:03:27Z</time>
      </trkpt>
      <trkpt lat="45.68261" lon="3.37535">
        <ele>608</ele>
        <time>2025-09-14T07:03:28Z</time>
      </trkpt>
      <trkpt lat="45.68259" lon="3.37537">
        <ele>608.2</ele>
        <time>2025-09-14T07:03:29Z</time>
      </trkpt>
      <trkpt lat="45.68257" lon="3.37539">
        <ele>608.4</ele>
        <time>2025-09-14T07:03:30Z</time>
      </trkpt>
      <trkpt lat="45.68254" lon="3.3754">
        <ele>608.6</ele>
        <time>2025-09-14T07:03:31Z</time>
      </trkpt>
      <trkpt lat="45.68252" lon="3.37541">
        <ele>608.8</ele>
        <time>2025-09-14T07:03:32Z</time>
      </trkpt>
      <trkpt lat="45.6825" lon="3.37543">
        <ele>609</ele>
        <time>2025-09-14T07:03:33Z</time>
      </trkpt>
      <trkpt lat="45.68248" lon="3.37544">
        <ele>609.2</ele>
        <time>2025-09-14T07:03:34Z</time>
      </trkpt>
      <trkpt lat="45.68245" lon="3.37546">
        <ele>609.4</ele>
        <time>2025-09-14T07:03:35Z</time>
      </trkpt>
      <trkpt lat="45.68243" lon="3.37548">
        <ele>609.6</ele>
        <time>2025-09-14T07:03:36Z</time>
      </trkpt>
      <trkpt lat="45.68241" lon="3.37549">
        <ele>609.8</ele>
        <time>2025-09-14T07:03:37Z</time>
      </trkpt>
      <trkpt lat="45.68238" lon="3.3755">
        <ele>610</ele>
        <time>2025-09-14T07:03:38Z</time>
      </trkpt>
      <trkpt lat="45.68236" lon="3.37551">
        <ele>610.2</ele>
        <time>2025-09-14T07:03:39Z</time>
      </trkpt>
      <trkpt lat="45.68233" lon="3.37552">
        <ele>610.4</ele>
        <time>2025-09-14T07:03:40Z</time>
      </trkpt>
      <trkpt lat="45.68232" lon="3.37553">
        <ele>610.6</ele>
        <time>2025-09-14T07:03:41Z</time>
      </trkpt>
      <trkpt lat="45.68229" lon="3.37554">
        <ele>610.8</ele>
        <time>2025-09-14T07:03:42Z</time>
      </trkpt>
      <trkpt lat="45.68227" lon="3.37555">
        <ele>611</ele>
        <time>2025-09-14T07:03:43Z</time>
      </trkpt>
      <trkpt lat="45.68225" lon="3.37556">
        <ele>611.4</ele>
        <time>2025-09-14T07:03:44Z</time>
      </trkpt>
      <trkpt lat="45.68222" lon="3.37557">
        <ele>611.6</ele>
        <time>2025-09-14T07:03:45Z</time>
      </trkpt>
      <trkpt lat="45.6822" lon="3.37558">
        <ele>611.8</ele>
        <time>2025-09-14T07:03:46Z</time>
      </trkpt>
      <trkpt lat="45.68218" lon="3.37558">
        <ele>612.2</ele>
        <time>2025-09-14T07:03:47Z</time>
      </trkpt>
      <trkpt lat="45.68216" lon="3.37558">
        <ele>612.4</ele>
        <time>2025-09-14T07:03:48Z</time>
      </trkpt>
      <trkpt lat="45.68214" lon="3.37559">
        <ele>612.6</ele>
        <time>2025-09-14T07:03:49Z</time>
      </trkpt>
      <trkpt lat="45.68211" lon="3.37559">
        <ele>613</ele>
        <time>2025-09-14T07:03:50Z</time>
      </trkpt>
      <trkpt lat="45.6821" lon="3.3756">
        <ele>613.2</ele>
        <time>2025-09-14T07:03:51Z</time>
      </trkpt>
      <trkpt lat="45.68207" lon="3.37561">
        <ele>613.6</ele>
        <time>2025-09-14T07:03:52Z</time>
      </trkpt>
      <trkpt lat="45.68205" lon="3.37561">
        <ele>613.8</ele>
        <time>2025-09-14T07:03:53Z</time>
      </trkpt>
      <trkpt lat="45.68203" lon="3.37562">
        <ele>614</ele>
        <time>2025-09-14T07:03:54Z</time>
      </trkpt>
      <trkpt lat="45.68201" lon="3.37563">
        <ele>614.4</ele>
        <time>2025-09-14T07:03:55Z</time>
      </trkpt>
      <trkpt lat="45.68199" lon="3.37564">
        <ele>614.6</ele>
        <time>2025-09-14T07:03:56Z</time>
      </trkpt>
      <trkpt lat="45.68197" lon="3.37565">
        <ele>615</ele>
        <time>2025-09-14T07:03:57Z</time>
      </trkpt>
      <trkpt lat="45.68195" lon="3.37566">
        <ele>615.2</ele>
        <time>2025-09-14T07:03:58Z</time>
      </trkpt>
      <trkpt lat="45.68193" lon="3.37567">
        <ele>615.6</ele>
        <time>2025-09-14T07:03:59Z</time>
      </trkpt>
      <trkpt lat="45.68191" lon="3.37568">
        <ele>615.8</ele>
        <time>2025-09-14T07:04:00Z</time>
      </trkpt>
      <trkpt lat="45.68189" lon="3.37568">
        <ele>616.2</ele>
        <time>2025-09-14T07:04:01Z</time>
      </trkpt>
      <trkpt lat="45.68187" lon="3.37568">
        <ele>616.4</ele>
        <time>2025-09-14T07:04:02Z</time>
      </trkpt>
      <trkpt lat="45.68184" lon="3.37569">
        <ele>616.6</ele>
        <time>2025-09-14T07:04:03Z</time>
      </trkpt>
      <trkpt lat="45.68182" lon="3.3757">
        <ele>617</ele>
        <time>2025-09-14T07:04:04Z</time>
      </trkpt>
      <trkpt lat="45.6818" lon="3.37571">
        <ele>617.2</ele>
        <time>2025-09-14T07:04:05Z</time>
      </trkpt>
      <trkpt lat="45.68179" lon="3.37572">
        <ele>617.4</ele>
        <time>2025-09-14T07:04:06Z</time>
      </trkpt>
      <trkpt lat="45.68177" lon="3.37573">
        <ele>617.6</ele>
        <time>2025-09-14T07:04:07Z</time>
      </trkpt>
      <trkpt lat="45.68177" lon="3.37574">
        <ele>618</ele>
        <time>2025-09-14T07:04:08Z</time>
      </trkpt>
      <trkpt lat="45.68176" lon="3.37575">
        <ele>618.2</ele>
        <time>2025-09-14T07:04:09Z</time>
      </trkpt>
      <trkpt lat="45.68176" lon="3.37577">
        <ele>618.4</ele>
        <time>2025-09-14T07:04:10Z</time>
      </trkpt>
      <trkpt lat="45.68176" lon="3.37579">
        <ele>618.4</ele>
        <time>2025-09-14T07:04:11Z</time>
      </trkpt>
      <trkpt lat="45.68176" lon="3.37581">
        <ele>618.6</ele>
        <time>2025-09-14T07:04:12Z</time>
      </trkpt>
      <trkpt lat="45.68176" lon="3.37583">
        <ele>618.8</ele>
        <time>2025-09-14T07:04:13Z</time>
      </trkpt>
      <trkpt lat="45.68178" lon="3.37586">
        <ele>619</ele>
        <time>2025-09-14T07:04:14Z</time>
      </trkpt>
      <trkpt lat="45.68179" lon="3.3759">
        <ele>619.2</ele>
        <time>2025-09-14T07:04:15Z</time>
      </trkpt>
      <trkpt lat="45.6818" lon="3.37594">
        <ele>619.2</ele>
        <time>2025-09-14T07:04:16Z</time>
      </trkpt>
      <trkpt lat="45.68181" lon="3.37598">
        <ele>619.4</ele>
        <time>2025-09-14T07:04:17Z</time>
      </trkpt>
      <trkpt lat="45.68182" lon="3.37602">
        <ele>619.4</ele>
        <time>2025-09-14T07:04:18Z</time>
      </trkpt>
      <trkpt lat="45.68182" lon="3.37607">
        <ele>619.4</ele>
        <time>2025-09-14T07:04:19Z</time>
      </trkpt>
      <trkpt lat="45.68183" lon="3.37611">
        <ele>619.4</ele>
        <time>2025-09-14T07:04:20Z</time>
      </trkpt>
      <trkpt lat="45.68183" lon="3.37616">
        <ele>619.6</ele>
        <time>2025-09-14T07:04:21Z</time>
      </trkpt>
      <trkpt lat="45.68183" lon="3.37621">
        <ele>619.6</ele>
        <time>2025-09-14T07:04:22Z</time>
      </trkpt>
      <trkpt lat="45.68184" lon="3.37626">
        <ele>619.6</ele>
        <time>2025-09-14T07:04:23Z</time>
      </trkpt>
      <trkpt lat="45.68184" lon="3.37632">
        <ele>619.6</ele>
        <time>2025-09-14T07:04:24Z</time>
      </trkpt>
      <trkpt lat="45.68183" lon="3.37636">
        <ele>619.4</ele>
        <time>2025-09-14T07:04:25Z</time>
      </trkpt>
      <trkpt lat="45.68183" lon="3.37641">
        <ele>619.4</ele>
        <time>2025-09-14T07:04:26Z</time>
      </trkpt>
      <trkpt lat="45.68181" lon="3.37645">
        <ele>619.2</ele>
        <time>2025-09-14T07:04:27Z</time>
      </trkpt>
      <trkpt lat="45.6818" lon="3.37649">
        <ele>618.8</ele>
        <time>2025-09-14T07:04:28Z</time>
      </trkpt>
      <trkpt lat="45.68178" lon="3.37653">
        <ele>618.6</ele>
        <time>2025-09-14T07:04:29Z</time>
      </trkpt>
      <trkpt lat="45.68177" lon="3.37658">
        <ele>618.2</ele>
        <time>2025-09-14T07:04:30Z</time>
      </trkpt>
      <trkpt lat="45.68176" lon="3.37664">
        <ele>617.8</ele>
        <time>2025-09-14T07:04:31Z</time>
      </trkpt>
      <trkpt lat="45.68174" lon="3.37669">
        <ele>617.6</ele>
        <time>2025-09-14T07:04:32Z</time>
      </trkpt>
      <trkpt lat="45.68173" lon="3.37673">
        <ele>617.2</ele>
        <time>2025-09-14T07:04:33Z</time>
      </trkpt>
      <trkpt lat="45.68172" lon="3.37678">
        <ele>616.8</ele>
        <time>2025-09-14T07:04:34Z</time>
      </trkpt>
      <trkpt lat="45.68171" lon="3.37683">
        <ele>616.6</ele>
        <time>2025-09-14T07:04:35Z</time>
      </trkpt>
      <trkpt lat="45.68169" lon="3.37688">
        <ele>616.2</ele>
        <time>2025-09-14T07:04:36Z</time>
      </trkpt>
      <trkpt lat="45.68166" lon="3.37694">
        <ele>615.8</ele>
        <time>2025-09-14T07:04:37Z</time>
      </trkpt>
      <trkpt lat="45.68163" lon="3.37698">
        <ele>615.4</ele>
        <time>2025-09-14T07:04:38Z</time>
      </trkpt>
      <trkpt lat="45.68162" lon="3.37702">
        <ele>614.8</ele>
        <time>2025-09-14T07:04:39Z</time>
      </trkpt>
      <trkpt lat="45.68159" lon="3.37707">
        <ele>614.2</ele>
        <time>2025-09-14T07:04:40Z</time>
      </trkpt>
      <trkpt lat="45.68157" lon="3.37714">
        <ele>613.4</ele>
        <time>2025-09-14T07:04:41Z</time>
      </trkpt>
      <trkpt lat="45.68157" lon="3.37722">
        <ele>613</ele>
        <time>2025-09-14T07:04:42Z</time>
      </trkpt>
      <trkpt lat="45.68159" lon="3.37729">
        <ele>612.4</ele>
        <time>2025-09-14T07:04:43Z</time>
      </trkpt>
      <trkpt lat="45.68159" lon="3.37737">
        <ele>612</ele>
        <time>2025-09-14T07:04:44Z</time>
      </trkpt>
      <trkpt lat="45.68159" lon="3.37744">
        <ele>611.6</ele>
        <time>2025-09-14T07:04:45Z</time>
      </trkpt>
      <trkpt lat="45.68158" lon="3.3775">
        <ele>611.2</ele>
        <time>2025-09-14T07:04:46Z</time>
      </trkpt>
      <trkpt lat="45.68158" lon="3.37756">
        <ele>610.8</ele>
        <time>2025-09-14T07:04:47Z</time>
      </trkpt>
      <trkpt lat="45.68157" lon="3.37763">
        <ele>610.4</ele>
        <time>2025-09-14T07:04:48Z</time>
      </trkpt>
      <trkpt lat="45.68155" lon="3.37769">
        <ele>610.2</ele>
        <time>2025-09-14T07:04:49Z</time>
      </trkpt>
      <trkpt lat="45.68154" lon="3.37774">
        <ele>609.8</ele>
        <time>2025-09-14T07:04:50Z</time>
      </trkpt>
      <trkpt lat="45.68154" lon="3.3778">
        <ele>609.4</ele>
        <time>2025-09-14T07:04:51Z</time>
      </trkpt>
      <trkpt lat="45.68154" lon="3.37786">
        <ele>609.2</ele>
        <time>2025-09-14T07:04:52Z</time>
      </trkpt>
      <trkpt lat="45.68154" lon="3.37792">
        <ele>609</ele>
        <time>2025-09-14T07:04:53Z</time>
      </trkpt>
      <trkpt lat="45.68153" lon="3.37799">
        <ele>608.8</ele>
        <time>2025-09-14T07:04:54Z</time>
      </trkpt>
      <trkpt lat="45.68153" lon="3.378">
        <ele>608.6</ele>
        <time>2025-09-14T07:04:55Z</time>
      </trkpt>
      <trkpt lat="45.68153" lon="3.378">
        <ele>608.4</ele>
        <time>2025-09-14T07:04:56Z</time>
      </trkpt>
      <trkpt lat="45.68155" lon="3.37803">
        <ele>608.4</ele>
        <time>2025-09-14T07:04:57Z</time>
      </trkpt>
      <trkpt lat="45.68157" lon="3.37805">
        <ele>608.4</ele>
        <time>2025-09-14T07:04:58Z</time>
      </trkpt>
      <trkpt lat="45.68159" lon="3.37807">
        <ele>608.4</ele>
        <time>2025-09-14T07:04:59Z</time>
      </trkpt>
      <trkpt lat="45.6816" lon="3.37806">
        <ele>608.4</ele>
        <time>2025-09-14T07:05:00Z</time>
      </trkpt>
      <trkpt lat="45.68161" lon="3.37805">
        <ele>608.6</ele>
        <time>2025-09-14T07:05:01Z</time>
      </trkpt>
      <trkpt lat="45.68163" lon="3.37805">
        <ele>608.8</ele>
        <time>2025-09-14T07:05:02Z</time>
      </trkpt>
      <trkpt lat="45.68165" lon="3.37804">
        <ele>608.8</ele>
        <time>2025-09-14T07:05:03Z</time>
      </trkpt>
      <trkpt lat="45.68166" lon="3.37803">
        <ele>609</ele>
        <time>2025-09-14T07:05:04Z</time>
      </trkpt>
      <trkpt lat="45.68167" lon="3.37802">
        <ele>609.2</ele>
        <time>2025-09-14T07:05:05Z</time>
      </trkpt>
      <trkpt lat="45.68168" lon="3.37801">
        <ele>609.4</ele>
        <time>2025-09-14T07:05:06Z</time>
      </trkpt>
      <trkpt lat="45.68171" lon="3.37801">
        <ele>609.6</ele>
        <time>2025-09-14T07:05:07Z</time>
      </trkpt>
      <trkpt lat="45.68173" lon="3.37802">
        <ele>609.6</ele>
        <time>2025-09-14T07:05:08Z</time>
      </trkpt>
      <trkpt lat="45.68176" lon="3.37802">
        <ele>610</ele>
        <time>2025-09-14T07:05:09Z</time>
      </trkpt>
      <trkpt lat="45.68178" lon="3.37802">
        <ele>610.2</ele>
        <time>2025-09-14T07:05:10Z</time>
      </trkpt>
      <trkpt lat="45.6818" lon="3.37801">
        <ele>610.4</ele>
        <time>2025-09-14T07:05:11Z</time>
      </trkpt>
      <trkpt lat="45.68182" lon="3.378">
        <ele>610.8</ele>
        <time>2025-09-14T07:05:12Z</time>
      </trkpt>
      <trkpt lat="45.68185" lon="3.378">
        <ele>611.2</ele>
        <time>2025-09-14T07:05:13Z</time>
      </trkpt>
      <trkpt lat="45.68188" lon="3.37799">
        <ele>611.4</ele>
        <time>2025-09-14T07:05:14Z</time>
      </trkpt>
      <trkpt lat="45.6819" lon="3.37799">
        <ele>611.8</ele>
        <time>2025-09-14T07:05:15Z</time>
      </trkpt>
      <trkpt lat="45.68193" lon="3.37799">
        <ele>612.2</ele>
        <time>2025-09-14T07:05:16Z</time>
      </trkpt>
      <trkpt lat="45.68195" lon="3.37799">
        <ele>612.6</ele>
        <time>2025-09-14T07:05:17Z</time>
      </trkpt>
      <trkpt lat="45.68199" lon="3.37799">
        <ele>613</ele>
        <time>2025-09-14T07:05:18Z</time>
      </trkpt>
      <trkpt lat="45.68203" lon="3.378">
        <ele>613.4</ele>
        <time>2025-09-14T07:05:19Z</time>
      </trkpt>
      <trkpt lat="45.68208" lon="3.37801">
        <ele>613.8</ele>
        <time>2025-09-14T07:05:20Z</time>
      </trkpt>
      <trkpt lat="45.68212" lon="3.37802">
        <ele>614</ele>
        <time>2025-09-14T07:05:21Z</time>
      </trkpt>
      <trkpt lat="45.68217" lon="3.37801">
        <ele>614.4</ele>
        <time>2025-09-14T07:05:22Z</time>
      </trkpt>
      <trkpt lat="45.6822" lon="3.37801">
        <ele>614.8</ele>
        <time>2025-09-14T07:05:23Z</time>
      </trkpt>
      <trkpt lat="45.68223" lon="3.378">
        <ele>615</ele>
        <time>2025-09-14T07:05:24Z</time>
      </trkpt>
      <trkpt lat="45.68226" lon="3.37799">
        <ele>615.4</ele>
        <time>2025-09-14T07:05:25Z</time>
      </trkpt>
      <trkpt lat="45.68228" lon="3.37794">
        <ele>615.8</ele>
        <time>2025-09-14T07:05:26Z</time>
      </trkpt>
      <trkpt lat="45.68232" lon="3.37794">
        <ele>616.2</ele>
        <time>2025-09-14T07:05:27Z</time>
      </trkpt>
      <trkpt lat="45.68235" lon="3.37794">
        <ele>616.6</ele>
        <time>2025-09-14T07:05:28Z</time>
      </trkpt>
      <trkpt lat="45.68238" lon="3.37794">
        <ele>617</ele>
        <time>2025-09-14T07:05:29Z</time>
      </trkpt>
      <trkpt lat="45.68241" lon="3.37794">
        <ele>617.2</ele>
        <time>2025-09-14T07:05:30Z</time>
      </trkpt>
      <trkpt lat="45.68244" lon="3.37795">
        <ele>617.6</ele>
        <time>2025-09-14T07:05:31Z</time>
      </trkpt>
      <trkpt lat="45.68247" lon="3.37796">
        <ele>618</ele>
        <time>2025-09-14T07:05:32Z</time>
      </trkpt>
      <trkpt lat="45.6825" lon="3.37795">
        <ele>618.2</ele>
        <time>2025-09-14T07:05:33Z</time>
      </trkpt>
      <trkpt lat="45.68253" lon="3.37794">
        <ele>618.6</ele>
        <time>2025-09-14T07:05:34Z</time>
      </trkpt>
      <trkpt lat="45.68255" lon="3.37793">
        <ele>618.8</ele>
        <time>2025-09-14T07:05:35Z</time>
      </trkpt>
      <trkpt lat="45.68258" lon="3.37793">
        <ele>619</ele>
        <time>2025-09-14T07:05:36Z</time>
      </trkpt>
      <trkpt lat="45.68262" lon="3.37794">
        <ele>619.2</ele>
        <time>2025-09-14T07:05:37Z</time>
      </trkpt>
      <trkpt lat="45.68266" lon="3.37795">
        <ele>619.2</ele>
        <time>2025-09-14T07:05:38Z</time>
      </trkpt>
      <trkpt lat="45.68272" lon="3.37795">
        <ele>619.4</ele>
        <time>2025-09-14T07:05:39Z</time>
      </trkpt>
      <trkpt lat="45.68278" lon="3.37796">
        <ele>619.4</ele>
        <time>2025-09-14T07:05:40Z</time>
      </trkpt>
      <trkpt lat="45.68282" lon="3.37795">
        <ele>619.4</ele>
        <time>2025-09-14T07:05:41Z</time>
      </trkpt>
      <trkpt lat="45.68285" lon="3.37793">
        <ele>619.6</ele>
        <time>2025-09-14T07:05:42Z</time>
      </trkpt>
      <trkpt lat="45.68286" lon="3.37792">
        <ele>619.6</ele>
        <time>2025-09-14T07:05:43Z</time>
      </trkpt>
      <trkpt lat="45.68288" lon="3.37791">
        <ele>619.6</ele>
        <time>2025-09-14T07:05:44Z</time>
      </trkpt>
      <trkpt lat="45.68291" lon="3.37792">
        <ele>619.6</ele>
        <time>2025-09-14T07:05:45Z</time>
      </trkpt>
      <trkpt lat="45.68295" lon="3.37792">
        <ele>619.6</ele>
        <time>2025-09-14T07:05:46Z</time>
      </trkpt>
      <trkpt lat="45.68299" lon="3.37792">
        <ele>619.8</ele>
        <time>2025-09-14T07:05:47Z</time>
      </trkpt>
      <trkpt lat="45.68304" lon="3.37793">
        <ele>619.8</ele>
        <time>2025-09-14T07:05:48Z</time>
      </trkpt>
      <trkpt lat="45.68307" lon="3.37794">
        <ele>620</ele>
        <time>2025-09-14T07:05:49Z</time>
      </trkpt>
      <trkpt lat="45.68311" lon="3.37797">
        <ele>620.2</ele>
        <time>2025-09-14T07:05:50Z</time>
      </trkpt>
      <trkpt lat="45.68314" lon="3.378">
        <ele>620.4</ele>
        <time>2025-09-14T07:05:51Z</time>
      </trkpt>
      <trkpt lat="45.68315" lon="3.37802">
        <ele>620.8</ele>
        <time>2025-09-14T07:05:52Z</time>
      </trkpt>
      <trkpt lat="45.68318" lon="3.37805">
        <ele>621</ele>
        <time>2025-09-14T07:05:53Z</time>
      </trkpt>
      <trkpt lat="45.6832" lon="3.37805">
        <ele>621.2</ele>
        <time>2025-09-14T07:05:54Z</time>
      </trkpt>
      <trkpt lat="45.68322" lon="3.37804">
        <ele>621.6</ele>
        <time>2025-09-14T07:05:55Z</time>
      </trkpt>
      <trkpt lat="45.68323" lon="3.37804">
        <ele>621.8</ele>
        <time>2025-09-14T07:05:56Z</time>
      </trkpt>
      <trkpt lat="45.68323" lon="3.37805">
        <ele>622</ele>
        <time>2025-09-14T07:05:57Z</time>
      </trkpt>
      <trkpt lat="45.68324" lon="3.37805">
        <ele>622.4</ele>
        <time>2025-09-14T07:05:58Z</time>
      </trkpt>
      <trkpt lat="45.68324" lon="3.37805">
        <ele>622.6</ele>
        <time>2025-09-14T07:05:59Z</time>
      </trkpt>
      <trkpt lat="45.68324" lon="3.37806">
        <ele>623</ele>
        <time>2025-09-14T07:06:00Z</time>
      </trkpt>
      <trkpt lat="45.68326" lon="3.37807">
        <ele>623.2</ele>
        <time>2025-09-14T07:06:01Z</time>
      </trkpt>
      <trkpt lat="45.68327" lon="3.37807">
        <ele>623.6</ele>
        <time>2025-09-14T07:06:02Z</time>
      </trkpt>
      <trkpt lat="45.68332" lon="3.37811">
        <ele>625</ele>
        <time>2025-09-14T07:06:13Z</time>
      </trkpt>
      <trkpt lat="45.68334" lon="3.37812">
        <ele>625</ele>
        <time>2025-09-14T07:06:14Z</time>
      </trkpt>
      <trkpt lat="45.68334" lon="3.37812">
        <ele>625</ele>
        <time>2025-09-14T07:06:15Z</time>
      </trkpt>
      <trkpt lat="45.68336" lon="3.37813">
        <ele>625</ele>
        <time>2025-09-14T07:06:16Z</time>
      </trkpt>
      <trkpt lat="45.68338" lon="3.37814">
        <ele>625</ele>
        <time>2025-09-14T07:06:17Z</time>
      </trkpt>
      <trkpt lat="45.68339" lon="3.37815">
        <ele>625</ele>
        <time>2025-09-14T07:06:18Z</time>
      </trkpt>
      <trkpt lat="45.68341" lon="3.37815">
        <ele>625.2</ele>
        <time>2025-09-14T07:06:19Z</time>
      </trkpt>
      <trkpt lat="45.68342" lon="3.37816">
        <ele>625.2</ele>
        <time>2025-09-14T07:06:20Z</time>
      </trkpt>
      <trkpt lat="45.68342" lon="3.37816">
        <ele>625.2</ele>
        <time>2025-09-14T07:06:21Z</time>
      </trkpt>
      <trkpt lat="45.68342" lon="3.37816">
        <ele>625.2</ele>
        <time>2025-09-14T07:06:22Z</time>
      </trkpt>
      <trkpt lat="45.68344" lon="3.37816">
        <ele>625.4</ele>
        <time>2025-09-14T07:06:23Z</time>
      </trkpt>
      <trkpt lat="45.68345" lon="3.37816">
        <ele>625.4</ele>
        <time>2025-09-14T07:06:24Z</time>
      </trkpt>
      <trkpt lat="45.68346" lon="3.37815">
        <ele>625.4</ele>
        <time>2025-09-14T07:06:25Z</time>
      </trkpt>
      <trkpt lat="45.68346" lon="3.37815">
        <ele>625.4</ele>
        <time>2025-09-14T07:06:26Z</time>
      </trkpt>
      <trkpt lat="45.68346" lon="3.37815">
        <ele>625.6</ele>
        <time>2025-09-14T07:06:27Z</time>
      </trkpt>
      <trkpt lat="45.68347" lon="3.37816">
        <ele>625.6</ele>
        <time>2025-09-14T07:06:28Z</time>
      </trkpt>
      <trkpt lat="45.6835" lon="3.37816">
        <ele>625.6</ele>
        <time>2025-09-14T07:06:29Z</time>
      </trkpt>
      <trkpt lat="45.68355" lon="3.37818">
        <ele>625.8</ele>
        <time>2025-09-14T07:06:30Z</time>
      </trkpt>
      <trkpt lat="45.68359" lon="3.37819">
        <ele>625.8</ele>
        <time>2025-09-14T07:06:31Z</time>
      </trkpt>
      <trkpt lat="45.68362" lon="3.37821">
        <ele>625.8</ele>
        <time>2025-09-14T07:06:32Z</time>
      </trkpt>
      <trkpt lat="45.68366" lon="3.37823">
        <ele>625.8</ele>
        <time>2025-09-14T07:06:33Z</time>
      </trkpt>
      <trkpt lat="45.68371" lon="3.37824">
        <ele>626</ele>
        <time>2025-09-14T07:06:34Z</time>
      </trkpt>
      <trkpt lat="45.68378" lon="3.37826">
        <ele>626</ele>
        <time>2025-09-14T07:06:35Z</time>
      </trkpt>
      <trkpt lat="45.68382" lon="3.37827">
        <ele>625.8</ele>
        <time>2025-09-14T07:06:36Z</time>
      </trkpt>
      <trkpt lat="45.68387" lon="3.37827">
        <ele>625.8</ele>
        <time>2025-09-14T07:06:37Z</time>
      </trkpt>
      <trkpt lat="45.68393" lon="3.37828">
        <ele>625.6</ele>
        <time>2025-09-14T07:06:38Z</time>
      </trkpt>
      <trkpt lat="45.68398" lon="3.37829">
        <ele>625.4</ele>
        <time>2025-09-14T07:06:39Z</time>
      </trkpt>
      <trkpt lat="45.68404" lon="3.3783">
        <ele>625.2</ele>
        <time>2025-09-14T07:06:40Z</time>
      </trkpt>
      <trkpt lat="45.6841" lon="3.37831">
        <ele>625</ele>
        <time>2025-09-14T07:06:41Z</time>
      </trkpt>
      <trkpt lat="45.68416" lon="3.37832">
        <ele>624.6</ele>
        <time>2025-09-14T07:06:42Z</time>
      </trkpt>
      <trkpt lat="45.68423" lon="3.37834">
        <ele>624.2</ele>
        <time>2025-09-14T07:06:43Z</time>
      </trkpt>
      <trkpt lat="45.68431" lon="3.37835">
        <ele>623.8</ele>
        <time>2025-09-14T07:06:44Z</time>
      </trkpt>
      <trkpt lat="45.68437" lon="3.37836">
        <ele>623.4</ele>
        <time>2025-09-14T07:06:45Z</time>
      </trkpt>
      <trkpt lat="45.68442" lon="3.37837">
        <ele>623</ele>
        <time>2025-09-14T07:06:46Z</time>
      </trkpt>
      <trkpt lat="45.68445" lon="3.37839">
        <ele>622.8</ele>
        <time>2025-09-14T07:06:47Z</time>
      </trkpt>
      <trkpt lat="45.68448" lon="3.37841">
        <ele>622.4</ele>
        <time>2025-09-14T07:06:48Z</time>
      </trkpt>
      <trkpt lat="45.68449" lon="3.37842">
        <ele>622.2</ele>
        <time>2025-09-14T07:06:49Z</time>
      </trkpt>
      <trkpt lat="45.6845" lon="3.37844">
        <ele>622</ele>
        <time>2025-09-14T07:06:50Z</time>
      </trkpt>
      <trkpt lat="45.68451" lon="3.37847">
        <ele>622</ele>
        <time>2025-09-14T07:06:51Z</time>
      </trkpt>
      <trkpt lat="45.68451" lon="3.37849">
        <ele>621.8</ele>
        <time>2025-09-14T07:06:52Z</time>
      </trkpt>
      <trkpt lat="45.6845" lon="3.37851">
        <ele>621.8</ele>
        <time>2025-09-14T07:06:53Z</time>
      </trkpt>
      <trkpt lat="45.68449" lon="3.3785">
        <ele>621.8</ele>
        <time>2025-09-14T07:06:54Z</time>
      </trkpt>
      <trkpt lat="45.68448" lon="3.3785">
        <ele>622</ele>
        <time>2025-09-14T07:06:55Z</time>
      </trkpt>
      <trkpt lat="45.68446" lon="3.3785">
        <ele>622.2</ele>
        <time>2025-09-14T07:06:56Z</time>
      </trkpt>
      <trkpt lat="45.68445" lon="3.37852">
        <ele>622.4</ele>
        <time>2025-09-14T07:06:57Z</time>
      </trkpt>
      <trkpt lat="45.68444" lon="3.37854">
        <ele>622.6</ele>
        <time>2025-09-14T07:06:58Z</time>
      </trkpt>
      <trkpt lat="45.68443" lon="3.37856">
        <ele>622.8</ele>
        <time>2025-09-14T07:06:59Z</time>
      </trkpt>
      <trkpt lat="45.68442" lon="3.37858">
        <ele>623.2</ele>
        <time>2025-09-14T07:07:00Z</time>
      </trkpt>
      <trkpt lat="45.68441" lon="3.3786">
        <ele>623.4</ele>
        <time>2025-09-14T07:07:01Z</time>
      </trkpt>
      <trkpt lat="45.68439" lon="3.37861">
        <ele>623.6</ele>
        <time>2025-09-14T07:07:02Z</time>
      </trkpt>
      <trkpt lat="45.68437" lon="3.37863">
        <ele>624</ele>
        <time>2025-09-14T07:07:03Z</time>
      </trkpt>
      <trkpt lat="45.68435" lon="3.37865">
        <ele>624.2</ele>
        <time>2025-09-14T07:07:04Z</time>
      </trkpt>
      <trkpt lat="45.68434" lon="3.37867">
        <ele>624.6</ele>
        <time>2025-09-14T07:07:05Z</time>
      </trkpt>
      <trkpt lat="45.68432" lon="3.37869">
        <ele>624.8</ele>
        <time>2025-09-14T07:07:06Z</time>
      </trkpt>
      <trkpt lat="45.6843" lon="3.3787">
        <ele>625.2</ele>
        <time>2025-09-14T07:07:07Z</time>
      </trkpt>
      <trkpt lat="45.68429" lon="3.37871">
        <ele>625.4</ele>
        <time>2025-09-14T07:07:08Z</time>
      </trkpt>
      <trkpt lat="45.68427" lon="3.37872">
        <ele>625.6</ele>
        <time>2025-09-14T07:07:09Z</time>
      </trkpt>
      <trkpt lat="45.68425" lon="3.37874">
        <ele>626</ele>
        <time>2025-09-14T07:07:10Z</time>
      </trkpt>
      <trkpt lat="45.68423" lon="3.37876">
        <ele>626.2</ele>
        <time>2025-09-14T07:07:11Z</time>
      </trkpt>
      <trkpt lat="45.68422" lon="3.37879">
        <ele>626.4</ele>
        <time>2025-09-14T07:07:12Z</time>
      </trkpt>
      <trkpt lat="45.68421" lon="3.37881">
        <ele>626.6</ele>
        <time>2025-09-14T07:07:13Z</time>
      </trkpt>
      <trkpt lat="45.68419" lon="3.37883">
        <ele>627</ele>
        <time>2025-09-14T07:07:14Z</time>
      </trkpt>
      <trkpt lat="45.68416" lon="3.37884">
        <ele>627.2</ele>
        <time>2025-09-14T07:07:15Z</time>
      </trkpt>
      <trkpt lat="45.68414" lon="3.37886">
        <ele>627.4</ele>
        <time>2025-09-14T07:07:16Z</time>
      </trkpt>
      <trkpt lat="45.68413" lon="3.37889">
        <ele>627.8</ele>
        <time>2025-09-14T07:07:17Z</time>
      </trkpt>
      <trkpt lat="45.68411" lon="3.37891">
        <ele>628</ele>
        <time>2025-09-14T07:07:18Z</time>
      </trkpt>
      <trkpt lat="45.6841" lon="3.37893">
        <ele>628.2</ele>
        <time>2025-09-14T07:07:19Z</time>
      </trkpt>
      <trkpt lat="45.68409" lon="3.37894">
        <ele>628.4</ele>
        <time>2025-09-14T07:07:20Z</time>
      </trkpt>
      <trkpt lat="45.68406" lon="3.37895">
        <ele>628.6</ele>
        <time>2025-09-14T07:07:21Z</time>
      </trkpt>
      <trkpt lat="45.68404" lon="3.37897">
        <ele>629</ele>
        <time>2025-09-14T07:07:22Z</time>
      </trkpt>
      <trkpt lat="45.68402" lon="3.37898">
        <ele>629.2</ele>
        <time>2025-09-14T07:07:23Z</time>
      </trkpt>
      <trkpt lat="45.68401" lon="3.379">
        <ele>629.4</ele>
        <time>2025-09-14T07:07:24Z</time>
      </trkpt>
      <trkpt lat="45.68399" lon="3.37901">
        <ele>629.6</ele>
        <time>2025-09-14T07:07:25Z</time>
      </trkpt>
      <trkpt lat="45.68397" lon="3.37902">
        <ele>629.8</ele>
        <time>2025-09-14T07:07:26Z</time>
      </trkpt>
      <trkpt lat="45.68396" lon="3.37903">
        <ele>630</ele>
        <time>2025-09-14T07:07:27Z</time>
      </trkpt>
      <trkpt lat="45.68394" lon="3.37904">
        <ele>630.2</ele>
        <time>2025-09-14T07:07:28Z</time>
      </trkpt>
      <trkpt lat="45.68393" lon="3.37905">
        <ele>630.4</ele>
        <time>2025-09-14T07:07:29Z</time>
      </trkpt>
      <trkpt lat="45.68392" lon="3.37906">
        <ele>630.6</ele>
        <time>2025-09-14T07:07:30Z</time>
      </trkpt>
      <trkpt lat="45.68391" lon="3.37908">
        <ele>630.8</ele>
        <time>2025-09-14T07:07:31Z</time>
      </trkpt>
      <trkpt lat="45.68391" lon="3.37909">
        <ele>631</ele>
        <time>2025-09-14T07:07:32Z</time>
      </trkpt>
      <trkpt lat="45.6839" lon="3.37911">
        <ele>631.2</ele>
        <time>2025-09-14T07:07:33Z</time>
      </trkpt>
      <trkpt lat="45.68388" lon="3.37913">
        <ele>631.4</ele>
        <time>2025-09-14T07:07:34Z</time>
      </trkpt>
      <trkpt lat="45.68387" lon="3.37914">
        <ele>631.6</ele>
        <time>2025-09-14T07:07:35Z</time>
      </trkpt>
      <trkpt lat="45.68386" lon="3.37916">
        <ele>631.8</ele>
        <time>2025-09-14T07:07:36Z</time>
      </trkpt>
      <trkpt lat="45.68384" lon="3.37918">
        <ele>632</ele>
        <time>2025-09-14T07:07:37Z</time>
      </trkpt>
      <trkpt lat="45.68382" lon="3.37919">
        <ele>632.2</ele>
        <time>2025-09-14T07:07:38Z</time>
      </trkpt>
      <trkpt lat="45.68378" lon="3.3792">
        <ele>632.4</ele>
        <time>2025-09-14T07:07:39Z</time>
      </trkpt>
      <trkpt lat="45.68375" lon="3.37921">
        <ele>632.6</ele>
        <time>2025-09-14T07:07:40Z</time>
      </trkpt>
      <trkpt lat="45.68372" lon="3.37921">
        <ele>632.8</ele>
        <time>2025-09-14T07:07:41Z</time>
      </trkpt>
      <trkpt lat="45.68369" lon="3.37922">
        <ele>633.2</ele>
        <time>2025-09-14T07:07:42Z</time>
      </trkpt>
      <trkpt lat="45.68367" lon="3.37922">
        <ele>633.4</ele>
        <time>2025-09-14T07:07:43Z</time>
      </trkpt>
      <trkpt lat="45.68364" lon="3.37923">
        <ele>633.6</ele>
        <time>2025-09-14T07:07:44Z</time>
      </trkpt>
      <trkpt lat="45.68361" lon="3.37924">
        <ele>633.8</ele>
        <time>2025-09-14T07:07:45Z</time>
      </trkpt>
      <trkpt lat="45.68359" lon="3.37924">
        <ele>634.2</ele>
        <time>2025-09-14T07:07:46Z</time>
      </trkpt>
      <trkpt lat="45.68357" lon="3.37923">
        <ele>634.4</ele>
        <time>2025-09-14T07:07:47Z</time>
      </trkpt>
      <trkpt lat="45.68355" lon="3.37924">
        <ele>634.6</ele>
        <time>2025-09-14T07:07:48Z</time>
      </trkpt>
      <trkpt lat="45.68353" lon="3.37924">
        <ele>634.8</ele>
        <time>2025-09-14T07:07:49Z</time>
      </trkpt>
      <trkpt lat="45.6835" lon="3.37924">
        <ele>635</ele>
        <time>2025-09-14T07:07:50Z</time>
      </trkpt>
      <trkpt lat="45.68348" lon="3.37924">
        <ele>635.2</ele>
        <time>2025-09-14T07:07:51Z</time>
      </trkpt>
      <trkpt lat="45.68346" lon="3.37925">
        <ele>635.4</ele>
        <time>2025-09-14T07:07:52Z</time>
      </trkpt>
      <trkpt lat="45.68343" lon="3.37926">
        <ele>635.4</ele>
        <time>2025-09-14T07:07:53Z</time>
      </trkpt>
      <trkpt lat="45.6834" lon="3.37927">
        <ele>635.6</ele>
        <time>2025-09-14T07:07:54Z</time>
      </trkpt>
      <trkpt lat="45.68338" lon="3.37926">
        <ele>635.8</ele>
        <time>2025-09-14T07:07:55Z</time>
      </trkpt>
      <trkpt lat="45.68335" lon="3.37926">
        <ele>636</ele>
        <time>2025-09-14T07:07:56Z</time>
      </trkpt>
      <trkpt lat="45.68333" lon="3.37927">
        <ele>636.2</ele>
        <time>2025-09-14T07:07:57Z</time>
      </trkpt>
      <trkpt lat="45.68331" lon="3.37927">
        <ele>636.4</ele>
        <time>2025-09-14T07:07:58Z</time>
      </trkpt>
      <trkpt lat="45.68328" lon="3.37928">
        <ele>636.6</ele>
        <time>2025-09-14T07:07:59Z</time>
      </trkpt>
      <trkpt lat="45.68326" lon="3.37928">
        <ele>636.8</ele>
        <time>2025-09-14T07:08:00Z</time>
      </trkpt>
      <trkpt lat="45.68324" lon="3.37929">
        <ele>637</ele>
        <time>2025-09-14T07:08:01Z</time>
      </trkpt>
      <trkpt lat="45.68322" lon="3.3793">
        <ele>637.4</ele>
        <time>2025-09-14T07:08:02Z</time>
      </trkpt>
      <trkpt lat="45.6832" lon="3.37932">
        <ele>637.6</ele>
        <time>2025-09-14T07:08:03Z</time>
      </trkpt>
      <trkpt lat="45.68318" lon="3.37933">
        <ele>637.8</ele>
        <time>2025-09-14T07:08:04Z</time>
      </trkpt>
      <trkpt lat="45.68316" lon="3.37934">
        <ele>638</ele>
        <time>2025-09-14T07:08:05Z</time>
      </trkpt>
      <trkpt lat="45.68314" lon="3.37934">
        <ele>638.2</ele>
        <time>2025-09-14T07:08:06Z</time>
      </trkpt>
      <trkpt lat="45.68312" lon="3.37934">
        <ele>638.2</ele>
        <time>2025-09-14T07:08:07Z</time>
      </trkpt>
      <trkpt lat="45.68309" lon="3.37934">
        <ele>638.4</ele>
        <time>2025-09-14T07:08:08Z</time>
      </trkpt>
      <trkpt lat="45.68307" lon="3.37934">
        <ele>638.6</ele>
        <time>2025-09-14T07:08:09Z</time>
      </trkpt>
      <trkpt lat="45.68305" lon="3.37934">
        <ele>638.8</ele>
        <time>2025-09-14T07:08:10Z</time>
      </trkpt>
      <trkpt lat="45.68303" lon="3.37935">
        <ele>638.8</ele>
        <time>2025-09-14T07:08:11Z</time>
      </trkpt>
      <trkpt lat="45.683" lon="3.37936">
        <ele>639</ele>
        <time>2025-09-14T07:08:12Z</time>
      </trkpt>
      <trkpt lat="45.68298" lon="3.37937">
        <ele>639.2</ele>
        <time>2025-09-14T07:08:13Z</time>
      </trkpt>
      <trkpt lat="45.68295" lon="3.37937">
        <ele>639.2</ele>
        <time>2025-09-14T07:08:14Z</time>
      </trkpt>
      <trkpt lat="45.68293" lon="3.37937">
        <ele>639.4</ele>
        <time>2025-09-14T07:08:15Z</time>
      </trkpt>
      <trkpt lat="45.6829" lon="3.37937">
        <ele>639.6</ele>
        <time>2025-09-14T07:08:16Z</time>
      </trkpt>
      <trkpt lat="45.68287" lon="3.37938">
        <ele>639.8</ele>
        <time>2025-09-14T07:08:17Z</time>
      </trkpt>
      <trkpt lat="45.68284" lon="3.37938">
        <ele>640</ele>
        <time>2025-09-14T07:08:18Z</time>
      </trkpt>
      <trkpt lat="45.68281" lon="3.37938">
        <ele>640</ele>
        <time>2025-09-14T07:08:19Z</time>
      </trkpt>
      <trkpt lat="45.68278" lon="3.37938">
        <ele>640.2</ele>
        <time>2025-09-14T07:08:20Z</time>
      </trkpt>
      <trkpt lat="45.68275" lon="3.37939">
        <ele>640.4</ele>
        <time>2025-09-14T07:08:21Z</time>
      </trkpt>
      <trkpt lat="45.68273" lon="3.3794">
        <ele>640.4</ele>
        <time>2025-09-14T07:08:22Z</time>
      </trkpt>
      <trkpt lat="45.6827" lon="3.37942">
        <ele>640.4</ele>
        <time>2025-09-14T07:08:23Z</time>
      </trkpt>
      <trkpt lat="45.68268" lon="3.37944">
        <ele>640.4</ele>
        <time>2025-09-14T07:08:24Z</time>
      </trkpt>
      <trkpt lat="45.68265" lon="3.37946">
        <ele>640.4</ele>
        <time>2025-09-14T07:08:25Z</time>
      </trkpt>
      <trkpt lat="45.68261" lon="3.37947">
        <ele>640.4</ele>
        <time>2025-09-14T07:08:26Z</time>
      </trkpt>
      <trkpt lat="45.68258" lon="3.37949">
        <ele>640.4</ele>
        <time>2025-09-14T07:08:27Z</time>
      </trkpt>
      <trkpt lat="45.68254" lon="3.3795">
        <ele>640.4</ele>
        <time>2025-09-14T07:08:28Z</time>
      </trkpt>
      <trkpt lat="45.68251" lon="3.37952">
        <ele>640.4</ele>
        <time>2025-09-14T07:08:29Z</time>
      </trkpt>
      <trkpt lat="45.68248" lon="3.37953">
        <ele>640.4</ele>
        <time>2025-09-14T07:08:30Z</time>
      </trkpt>
      <trkpt lat="45.68245" lon="3.37954">
        <ele>640.4</ele>
        <time>2025-09-14T07:08:31Z</time>
      </trkpt>
      <trkpt lat="45.68242" lon="3.37956">
        <ele>640.2</ele>
        <time>2025-09-14T07:08:32Z</time>
      </trkpt>
      <trkpt lat="45.68238" lon="3.37959">
        <ele>640.2</ele>
        <time>2025-09-14T07:08:33Z</time>
      </trkpt>
      <trkpt lat="45.68235" lon="3.37962">
        <ele>640.2</ele>
        <time>2025-09-14T07:08:34Z</time>
      </trkpt>
      <trkpt lat="45.68232" lon="3.37966">
        <ele>640.2</ele>
        <time>2025-09-14T07:08:35Z</time>
      </trkpt>
      <trkpt lat="45.68229" lon="3.3797">
        <ele>640.2</ele>
        <time>2025-09-14T07:08:36Z</time>
      </trkpt>
      <trkpt lat="45.68226" lon="3.37973">
        <ele>640.2</ele>
        <time>2025-09-14T07:08:37Z</time>
      </trkpt>
      <trkpt lat="45.68224" lon="3.37977">
        <ele>640.2</ele>
        <time>2025-09-14T07:08:38Z</time>
      </trkpt>
      <trkpt lat="45.6822" lon="3.3798">
        <ele>640.2</ele>
        <time>2025-09-14T07:08:39Z</time>
      </trkpt>
      <trkpt lat="45.68217" lon="3.37984">
        <ele>640.2</ele>
        <time>2025-09-14T07:08:40Z</time>
      </trkpt>
      <trkpt lat="45.68215" lon="3.37989">
        <ele>640.2</ele>
        <time>2025-09-14T07:08:41Z</time>
      </trkpt>
      <trkpt lat="45.68212" lon="3.37993">
        <ele>640.2</ele>
        <time>2025-09-14T07:08:42Z</time>
      </trkpt>
      <trkpt lat="45.6821" lon="3.37998">
        <ele>640.2</ele>
        <time>2025-09-14T07:08:43Z</time>
      </trkpt>
      <trkpt lat="45.68209" lon="3.38002">
        <ele>640.2</ele>
        <time>2025-09-14T07:08:44Z</time>
      </trkpt>
      <trkpt lat="45.68207" lon="3.38007">
        <ele>640.2</ele>
        <time>2025-09-14T07:08:45Z</time>
      </trkpt>
      <trkpt lat="45.68205" lon="3.38012">
        <ele>640.4</ele>
        <time>2025-09-14T07:08:46Z</time>
      </trkpt>
      <trkpt lat="45.68204" lon="3.38017">
        <ele>640.4</ele>
        <time>2025-09-14T07:08:47Z</time>
      </trkpt>
      <trkpt lat="45.68203" lon="3.38022">
        <ele>640.4</ele>
        <time>2025-09-14T07:08:48Z</time>
      </trkpt>
      <trkpt lat="45.68202" lon="3.38027">
        <ele>640.6</ele>
        <time>2025-09-14T07:08:49Z</time>
      </trkpt>
      <trkpt lat="45.68201" lon="3.38033">
        <ele>640.6</ele>
        <time>2025-09-14T07:08:50Z</time>
      </trkpt>
      <trkpt lat="45.682" lon="3.38038">
        <ele>640.6</ele>
        <time>2025-09-14T07:08:51Z</time>
      </trkpt>
      <trkpt lat="45.68199" lon="3.38043">
        <ele>640.6</ele>
        <time>2025-09-14T07:08:52Z</time>
      </trkpt>
      <trkpt lat="45.68197" lon="3.38047">
        <ele>640.8</ele>
        <time>2025-09-14T07:08:53Z</time>
      </trkpt>
      <trkpt lat="45.68195" lon="3.38051">
        <ele>641</ele>
        <time>2025-09-14T07:08:54Z</time>
      </trkpt>
      <trkpt lat="45.68193" lon="3.38055">
        <ele>641</ele>
        <time>2025-09-14T07:08:55Z</time>
      </trkpt>
      <trkpt lat="45.68191" lon="3.38058">
        <ele>641.2</ele>
        <time>2025-09-14T07:08:56Z</time>
      </trkpt>
      <trkpt lat="45.68188" lon="3.3806">
        <ele>641.4</ele>
        <time>2025-09-14T07:08:57Z</time>
      </trkpt>
      <trkpt lat="45.68185" lon="3.38062">
        <ele>641.6</ele>
        <time>2025-09-14T07:08:58Z</time>
      </trkpt>
      <trkpt lat="45.68182" lon="3.38065">
        <ele>641.6</ele>
        <time>2025-09-14T07:08:59Z</time>
      </trkpt>
      <trkpt lat="45.6818" lon="3.38068">
        <ele>641.8</ele>
        <time>2025-09-14T07:09:00Z</time>
      </trkpt>
      <trkpt lat="45.68178" lon="3.38071">
        <ele>641.8</ele>
        <time>2025-09-14T07:09:01Z</time>
      </trkpt>
      <trkpt lat="45.68175" lon="3.38073">
        <ele>642</ele>
        <time>2025-09-14T07:09:02Z</time>
      </trkpt>
      <trkpt lat="45.68172" lon="3.38075">
        <ele>642</ele>
        <time>2025-09-14T07:09:03Z</time>
      </trkpt>
      <trkpt lat="45.68169" lon="3.38077">
        <ele>642.2</ele>
        <time>2025-09-14T07:09:04Z</time>
      </trkpt>
      <trkpt lat="45.68166" lon="3.38078">
        <ele>642.2</ele>
        <time>2025-09-14T07:09:05Z</time>
      </trkpt>
      <trkpt lat="45.68164" lon="3.3808">
        <ele>642.4</ele>
        <time>2025-09-14T07:09:06Z</time>
      </trkpt>
      <trkpt lat="45.68162" lon="3.38082">
        <ele>642.6</ele>
        <time>2025-09-14T07:09:07Z</time>
      </trkpt>
      <trkpt lat="45.68161" lon="3.38084">
        <ele>642.6</ele>
        <time>2025-09-14T07:09:08Z</time>
      </trkpt>
      <trkpt lat="45.68158" lon="3.38087">
        <ele>642.8</ele>
        <time>2025-09-14T07:09:09Z</time>
      </trkpt>
      <trkpt lat="45.68155" lon="3.38088">
        <ele>643</ele>
        <time>2025-09-14T07:09:10Z</time>
      </trkpt>
      <trkpt lat="45.68152" lon="3.38089">
        <ele>643.2</ele>
        <time>2025-09-14T07:09:11Z</time>
      </trkpt>
      <trkpt lat="45.6815" lon="3.38091">
        <ele>643.4</ele>
        <time>2025-09-14T07:09:12Z</time>
      </trkpt>
      <trkpt lat="45.68147" lon="3.38092">
        <ele>643.6</ele>
        <time>2025-09-14T07:09:13Z</time>
      </trkpt>
      <trkpt lat="45.68144" lon="3.38093">
        <ele>643.6</ele>
        <time>2025-09-14T07:09:14Z</time>
      </trkpt>
      <trkpt lat="45.68141" lon="3.38094">
        <ele>643.8</ele>
        <time>2025-09-14T07:09:15Z</time>
      </trkpt>
      <trkpt lat="45.68139" lon="3.38096">
        <ele>644</ele>
        <time>2025-09-14T07:09:16Z</time>
      </trkpt>
      <trkpt lat="45.68136" lon="3.38097">
        <ele>644.2</ele>
        <time>2025-09-14T07:09:17Z</time>
      </trkpt>
      <trkpt lat="45.68134" lon="3.38098">
        <ele>644.4</ele>
        <time>2025-09-14T07:09:18Z</time>
      </trkpt>
      <trkpt lat="45.68131" lon="3.38099">
        <ele>644.4</ele>
        <time>2025-09-14T07:09:19Z</time>
      </trkpt>
      <trkpt lat="45.68128" lon="3.38101">
        <ele>644.6</ele>
        <time>2025-09-14T07:09:20Z</time>
      </trkpt>
      <trkpt lat="45.68126" lon="3.38103">
        <ele>645</ele>
        <time>2025-09-14T07:09:21Z</time>
      </trkpt>
      <trkpt lat="45.68123" lon="3.38105">
        <ele>645.2</ele>
        <time>2025-09-14T07:09:22Z</time>
      </trkpt>
      <trkpt lat="45.68121" lon="3.38106">
        <ele>645.4</ele>
        <time>2025-09-14T07:09:23Z</time>
      </trkpt>
      <trkpt lat="45.6812" lon="3.38108">
        <ele>645.8</ele>
        <time>2025-09-14T07:09:24Z</time>
      </trkpt>
      <trkpt lat="45.68118" lon="3.38109">
        <ele>646</ele>
        <time>2025-09-14T07:09:25Z</time>
      </trkpt>
      <trkpt lat="45.68117" lon="3.38111">
        <ele>646.2</ele>
        <time>2025-09-14T07:09:26Z</time>
      </trkpt>
      <trkpt lat="45.68115" lon="3.38112">
        <ele>646.6</ele>
        <time>2025-09-14T07:09:27Z</time>
      </trkpt>
      <trkpt lat="45.68113" lon="3.38113">
        <ele>646.8</ele>
        <time>2025-09-14T07:09:28Z</time>
      </trkpt>
      <trkpt lat="45.68111" lon="3.38114">
        <ele>647</ele>
        <time>2025-09-14T07:09:29Z</time>
      </trkpt>
      <trkpt lat="45.68108" lon="3.38115">
        <ele>647.2</ele>
        <time>2025-09-14T07:09:30Z</time>
      </trkpt>
      <trkpt lat="45.68107" lon="3.38117">
        <ele>647.4</ele>
        <time>2025-09-14T07:09:31Z</time>
      </trkpt>
      <trkpt lat="45.68104" lon="3.38119">
        <ele>647.6</ele>
        <time>2025-09-14T07:09:32Z</time>
      </trkpt>
      <trkpt lat="45.68103" lon="3.3812">
        <ele>647.8</ele>
        <time>2025-09-14T07:09:33Z</time>
      </trkpt>
      <trkpt lat="45.68101" lon="3.38121">
        <ele>648</ele>
        <time>2025-09-14T07:09:34Z</time>
      </trkpt>
      <trkpt lat="45.68099" lon="3.38122">
        <ele>648</ele>
        <time>2025-09-14T07:09:35Z</time>
      </trkpt>
      <trkpt lat="45.68097" lon="3.38123">
        <ele>648.2</ele>
        <time>2025-09-14T07:09:36Z</time>
      </trkpt>
      <trkpt lat="45.68095" lon="3.38125">
        <ele>648.4</ele>
        <time>2025-09-14T07:09:37Z</time>
      </trkpt>
      <trkpt lat="45.68093" lon="3.38126">
        <ele>648.6</ele>
        <time>2025-09-14T07:09:38Z</time>
      </trkpt>
      <trkpt lat="45.68091" lon="3.38127">
        <ele>649</ele>
        <time>2025-09-14T07:09:39Z</time>
      </trkpt>
      <trkpt lat="45.68089" lon="3.38127">
        <ele>649.2</ele>
        <time>2025-09-14T07:09:40Z</time>
      </trkpt>
      <trkpt lat="45.68087" lon="3.38128">
        <ele>649.4</ele>
        <time>2025-09-14T07:09:41Z</time>
      </trkpt>
      <trkpt lat="45.68085" lon="3.38129">
        <ele>649.6</ele>
        <time>2025-09-14T07:09:42Z</time>
      </trkpt>
      <trkpt lat="45.68083" lon="3.3813">
        <ele>649.8</ele>
        <time>2025-09-14T07:09:43Z</time>
      </trkpt>
      <trkpt lat="45.68082" lon="3.38132">
        <ele>650</ele>
        <time>2025-09-14T07:09:44Z</time>
      </trkpt>
      <trkpt lat="45.6808" lon="3.38134">
        <ele>650.2</ele>
        <time>2025-09-14T07:09:45Z</time>
      </trkpt>
      <trkpt lat="45.68078" lon="3.38135">
        <ele>650.4</ele>
        <time>2025-09-14T07:09:46Z</time>
      </trkpt>
      <trkpt lat="45.68076" lon="3.38137">
        <ele>650.6</ele>
        <time>2025-09-14T07:09:47Z</time>
      </trkpt>
      <trkpt lat="45.68074" lon="3.38139">
        <ele>650.8</ele>
        <time>2025-09-14T07:09:48Z</time>
      </trkpt>
      <trkpt lat="45.68072" lon="3.38141">
        <ele>651</ele>
        <time>2025-09-14T07:09:49Z</time>
      </trkpt>
      <trkpt lat="45.6807" lon="3.38143">
        <ele>651.2</ele>
        <time>2025-09-14T07:09:50Z</time>
      </trkpt>
      <trkpt lat="45.68068" lon="3.38145">
        <ele>651.4</ele>
        <time>2025-09-14T07:09:51Z</time>
      </trkpt>
      <trkpt lat="45.68067" lon="3.38145">
        <ele>651.6</ele>
        <time>2025-09-14T07:09:52Z</time>
      </trkpt>
      <trkpt lat="45.68067" lon="3.38146">
        <ele>651.6</ele>
        <time>2025-09-14T07:09:53Z</time>
      </trkpt>
      <trkpt lat="45.68066" lon="3.38148">
        <ele>651.8</ele>
        <time>2025-09-14T07:09:54Z</time>
      </trkpt>
      <trkpt lat="45.68064" lon="3.38149">
        <ele>651.8</ele>
        <time>2025-09-14T07:09:55Z</time>
      </trkpt>
      <trkpt lat="45.68061" lon="3.38151">
        <ele>652</ele>
        <time>2025-09-14T07:09:56Z</time>
      </trkpt>
      <trkpt lat="45.68059" lon="3.38154">
        <ele>652.2</ele>
        <time>2025-09-14T07:09:57Z</time>
      </trkpt>
      <trkpt lat="45.68057" lon="3.38158">
        <ele>652.2</ele>
        <time>2025-09-14T07:09:58Z</time>
      </trkpt>
      <trkpt lat="45.68056" lon="3.38162">
        <ele>652.4</ele>
        <time>2025-09-14T07:09:59Z</time>
      </trkpt>
      <trkpt lat="45.68055" lon="3.38165">
        <ele>652.6</ele>
        <time>2025-09-14T07:10:00Z</time>
      </trkpt>
      <trkpt lat="45.68054" lon="3.38168">
        <ele>652.8</ele>
        <time>2025-09-14T07:10:01Z</time>
      </trkpt>
      <trkpt lat="45.68053" lon="3.38171">
        <ele>653</ele>
        <time>2025-09-14T07:10:02Z</time>
      </trkpt>
      <trkpt lat="45.68051" lon="3.38174">
        <ele>653.2</ele>
        <time>2025-09-14T07:10:03Z</time>
      </trkpt>
      <trkpt lat="45.68047" lon="3.38176">
        <ele>653.4</ele>
        <time>2025-09-14T07:10:04Z</time>
      </trkpt>
      <trkpt lat="45.68045" lon="3.38178">
        <ele>653.6</ele>
        <time>2025-09-14T07:10:05Z</time>
      </trkpt>
      <trkpt lat="45.68043" lon="3.38181">
        <ele>654</ele>
        <time>2025-09-14T07:10:06Z</time>
      </trkpt>
      <trkpt lat="45.68042" lon="3.38184">
        <ele>654.2</ele>
        <time>2025-09-14T07:10:07Z</time>
      </trkpt>
      <trkpt lat="45.68039" lon="3.38186">
        <ele>654.4</ele>
        <time>2025-09-14T07:10:08Z</time>
      </trkpt>
      <trkpt lat="45.68037" lon="3.38188">
        <ele>654.6</ele>
        <time>2025-09-14T07:10:09Z</time>
      </trkpt>
      <trkpt lat="45.68035" lon="3.38191">
        <ele>654.8</ele>
        <time>2025-09-14T07:10:10Z</time>
      </trkpt>
      <trkpt lat="45.68031" lon="3.38192">
        <ele>655</ele>
        <time>2025-09-14T07:10:11Z</time>
      </trkpt>
      <trkpt lat="45.6803" lon="3.38194">
        <ele>655.2</ele>
        <time>2025-09-14T07:10:12Z</time>
      </trkpt>
      <trkpt lat="45.68028" lon="3.38196">
        <ele>655.4</ele>
        <time>2025-09-14T07:10:13Z</time>
      </trkpt>
      <trkpt lat="45.68026" lon="3.38199">
        <ele>655.8</ele>
        <time>2025-09-14T07:10:14Z</time>
      </trkpt>
      <trkpt lat="45.68024" lon="3.38201">
        <ele>656</ele>
        <time>2025-09-14T07:10:15Z</time>
      </trkpt>
      <trkpt lat="45.68022" lon="3.38204">
        <ele>656.2</ele>
        <time>2025-09-14T07:10:16Z</time>
      </trkpt>
      <trkpt lat="45.68019" lon="3.38208">
        <ele>656.4</ele>
        <time>2025-09-14T07:10:17Z</time>
      </trkpt>
      <trkpt lat="45.68017" lon="3.38211">
        <ele>656.6</ele>
        <time>2025-09-14T07:10:18Z</time>
      </trkpt>
      <trkpt lat="45.68016" lon="3.38214">
        <ele>656.8</ele>
        <time>2025-09-14T07:10:19Z</time>
      </trkpt>
      <trkpt lat="45.68013" lon="3.38217">
        <ele>657</ele>
        <time>2025-09-14T07:10:20Z</time>
      </trkpt>
      <trkpt lat="45.68011" lon="3.38218">
        <ele>657.2</ele>
        <time>2025-09-14T07:10:21Z</time>
      </trkpt>
      <trkpt lat="45.6801" lon="3.38221">
        <ele>657.4</ele>
        <time>2025-09-14T07:10:22Z</time>
      </trkpt>
      <trkpt lat="45.68009" lon="3.38224">
        <ele>657.8</ele>
        <time>2025-09-14T07:10:23Z</time>
      </trkpt>
      <trkpt lat="45.68008" lon="3.38227">
        <ele>658</ele>
        <time>2025-09-14T07:10:24Z</time>
      </trkpt>
      <trkpt lat="45.68007" lon="3.3823">
        <ele>658.2</ele>
        <time>2025-09-14T07:10:25Z</time>
      </trkpt>
      <trkpt lat="45.68005" lon="3.38232">
        <ele>658.4</ele>
        <time>2025-09-14T07:10:26Z</time>
      </trkpt>
      <trkpt lat="45.68004" lon="3.38235">
        <ele>658.6</ele>
        <time>2025-09-14T07:10:27Z</time>
      </trkpt>
      <trkpt lat="45.68002" lon="3.38236">
        <ele>658.8</ele>
        <time>2025-09-14T07:10:28Z</time>
      </trkpt>
      <trkpt lat="45.68" lon="3.38238">
        <ele>659</ele>
        <time>2025-09-14T07:10:29Z</time>
      </trkpt>
      <trkpt lat="45.67998" lon="3.3824">
        <ele>659.2</ele>
        <time>2025-09-14T07:10:30Z</time>
      </trkpt>
      <trkpt lat="45.67997" lon="3.38242">
        <ele>659.4</ele>
        <time>2025-09-14T07:10:31Z</time>
      </trkpt>
      <trkpt lat="45.67995" lon="3.38244">
        <ele>659.6</ele>
        <time>2025-09-14T07:10:32Z</time>
      </trkpt>
      <trkpt lat="45.67993" lon="3.38246">
        <ele>660</ele>
        <time>2025-09-14T07:10:33Z</time>
      </trkpt>
      <trkpt lat="45.67992" lon="3.38248">
        <ele>660.2</ele>
        <time>2025-09-14T07:10:34Z</time>
      </trkpt>
      <trkpt lat="45.6799" lon="3.38251">
        <ele>660.4</ele>
        <time>2025-09-14T07:10:35Z</time>
      </trkpt>
      <trkpt lat="45.67989" lon="3.38254">
        <ele>660.8</ele>
        <time>2025-09-14T07:10:36Z</time>
      </trkpt>
      <trkpt lat="45.67988" lon="3.38256">
        <ele>661</ele>
        <time>2025-09-14T07:10:37Z</time>
      </trkpt>
      <trkpt lat="45.67986" lon="3.38258">
        <ele>661.2</ele>
        <time>2025-09-14T07:10:38Z</time>
      </trkpt>
      <trkpt lat="45.67985" lon="3.38259">
        <ele>661.4</ele>
        <time>2025-09-14T07:10:39Z</time>
      </trkpt>
      <trkpt lat="45.67983" lon="3.38262">
        <ele>661.6</ele>
        <time>2025-09-14T07:10:40Z</time>
      </trkpt>
      <trkpt lat="45.67981" lon="3.38263">
        <ele>661.8</ele>
        <time>2025-09-14T07:10:41Z</time>
      </trkpt>
      <trkpt lat="45.67979" lon="3.38266">
        <ele>662</ele>
        <time>2025-09-14T07:10:42Z</time>
      </trkpt>
      <trkpt lat="45.67977" lon="3.38268">
        <ele>662.2</ele>
        <time>2025-09-14T07:10:43Z</time>
      </trkpt>
      <trkpt lat="45.67976" lon="3.3827">
        <ele>662.2</ele>
        <time>2025-09-14T07:10:44Z</time>
      </trkpt>
      <trkpt lat="45.67974" lon="3.38272">
        <ele>662.4</ele>
        <time>2025-09-14T07:10:45Z</time>
      </trkpt>
      <trkpt lat="45.67973" lon="3.38274">
        <ele>662.6</ele>
        <time>2025-09-14T07:10:46Z</time>
      </trkpt>
      <trkpt lat="45.67972" lon="3.38276">
        <ele>662.8</ele>
        <time>2025-09-14T07:10:47Z</time>
      </trkpt>
      <trkpt lat="45.67971" lon="3.38279">
        <ele>663</ele>
        <time>2025-09-14T07:10:48Z</time>
      </trkpt>
      <trkpt lat="45.67971" lon="3.38282">
        <ele>663.2</ele>
        <time>2025-09-14T07:10:49Z</time>
      </trkpt>
      <trkpt lat="45.67971" lon="3.38284">
        <ele>663.4</ele>
        <time>2025-09-14T07:10:50Z</time>
      </trkpt>
      <trkpt lat="45.6797" lon="3.38286">
        <ele>663.6</ele>
        <time>2025-09-14T07:10:51Z</time>
      </trkpt>
      <trkpt lat="45.67969" lon="3.38288">
        <ele>663.8</ele>
        <time>2025-09-14T07:10:52Z</time>
      </trkpt>
      <trkpt lat="45.67968" lon="3.38289">
        <ele>664.2</ele>
        <time>2025-09-14T07:10:53Z</time>
      </trkpt>
      <trkpt lat="45.67966" lon="3.3829">
        <ele>664.4</ele>
        <time>2025-09-14T07:10:54Z</time>
      </trkpt>
      <trkpt lat="45.67964" lon="3.38291">
        <ele>664.6</ele>
        <time>2025-09-14T07:10:55Z</time>
      </trkpt>
      <trkpt lat="45.67962" lon="3.38292">
        <ele>665</ele>
        <time>2025-09-14T07:10:56Z</time>
      </trkpt>
      <trkpt lat="45.67961" lon="3.38294">
        <ele>665.2</ele>
        <time>2025-09-14T07:10:57Z</time>
      </trkpt>
      <trkpt lat="45.67959" lon="3.38296">
        <ele>665.4</ele>
        <time>2025-09-14T07:10:58Z</time>
      </trkpt>
      <trkpt lat="45.67958" lon="3.38298">
        <ele>665.6</ele>
        <time>2025-09-14T07:10:59Z</time>
      </trkpt>
      <trkpt lat="45.67957" lon="3.38301">
        <ele>666</ele>
        <time>2025-09-14T07:11:00Z</time>
      </trkpt>
      <trkpt lat="45.67957" lon="3.38303">
        <ele>666.2</ele>
        <time>2025-09-14T07:11:01Z</time>
      </trkpt>
      <trkpt lat="45.67956" lon="3.38305">
        <ele>666.4</ele>
        <time>2025-09-14T07:11:02Z</time>
      </trkpt>
      <trkpt lat="45.67954" lon="3.38306">
        <ele>666.6</ele>
        <time>2025-09-14T07:11:03Z</time>
      </trkpt>
      <trkpt lat="45.67953" lon="3.38307">
        <ele>667</ele>
        <time>2025-09-14T07:11:04Z</time>
      </trkpt>
      <trkpt lat="45.67951" lon="3.38308">
        <ele>667.2</ele>
        <time>2025-09-14T07:11:05Z</time>
      </trkpt>
      <trkpt lat="45.6795" lon="3.3831">
        <ele>667.4</ele>
        <time>2025-09-14T07:11:06Z</time>
      </trkpt>
      <trkpt lat="45.67948" lon="3.38312">
        <ele>667.8</ele>
        <time>2025-09-14T07:11:07Z</time>
      </trkpt>
      <trkpt lat="45.67946" lon="3.38314">
        <ele>668</ele>
        <time>2025-09-14T07:11:08Z</time>
      </trkpt>
      <trkpt lat="45.67945" lon="3.38316">
        <ele>668.2</ele>
        <time>2025-09-14T07:11:09Z</time>
      </trkpt>
      <trkpt lat="45.67943" lon="3.38318">
        <ele>668.4</ele>
        <time>2025-09-14T07:11:10Z</time>
      </trkpt>
      <trkpt lat="45.67941" lon="3.3832">
        <ele>668.8</ele>
        <time>2025-09-14T07:11:11Z</time>
      </trkpt>
      <trkpt lat="45.6794" lon="3.38322">
        <ele>669</ele>
        <time>2025-09-14T07:11:12Z</time>
      </trkpt>
      <trkpt lat="45.67938" lon="3.38324">
        <ele>669.2</ele>
        <time>2025-09-14T07:11:13Z</time>
      </trkpt>
      <trkpt lat="45.67937" lon="3.38326">
        <ele>669.4</ele>
        <time>2025-09-14T07:11:14Z</time>
      </trkpt>
      <trkpt lat="45.67935" lon="3.38327">
        <ele>669.6</ele>
        <time>2025-09-14T07:11:15Z</time>
      </trkpt>
      <trkpt lat="45.67933" lon="3.38329">
        <ele>669.8</ele>
        <time>2025-09-14T07:11:16Z</time>
      </trkpt>
      <trkpt lat="45.67931" lon="3.3833">
        <ele>670.2</ele>
        <time>2025-09-14T07:11:17Z</time>
      </trkpt>
      <trkpt lat="45.67929" lon="3.38331">
        <ele>670.4</ele>
        <time>2025-09-14T07:11:18Z</time>
      </trkpt>
      <trkpt lat="45.67927" lon="3.38333">
        <ele>670.6</ele>
        <time>2025-09-14T07:11:19Z</time>
      </trkpt>
      <trkpt lat="45.67927" lon="3.38336">
        <ele>671</ele>
        <time>2025-09-14T07:11:20Z</time>
      </trkpt>
      <trkpt lat="45.67925" lon="3.38337">
        <ele>671.4</ele>
        <time>2025-09-14T07:11:21Z</time>
      </trkpt>
      <trkpt lat="45.67924" lon="3.38338">
        <ele>671.6</ele>
        <time>2025-09-14T07:11:22Z</time>
      </trkpt>
      <trkpt lat="45.67922" lon="3.38339">
        <ele>672</ele>
        <time>2025-09-14T07:11:23Z</time>
      </trkpt>
      <trkpt lat="45.67921" lon="3.3834">
        <ele>672.2</ele>
        <time>2025-09-14T07:11:24Z</time>
      </trkpt>
      <trkpt lat="45.6792" lon="3.38341">
        <ele>672.4</ele>
        <time>2025-09-14T07:11:25Z</time>
      </trkpt>
      <trkpt lat="45.67919" lon="3.38343">
        <ele>672.8</ele>
        <time>2025-09-14T07:11:26Z</time>
      </trkpt>
      <trkpt lat="45.67917" lon="3.38345">
        <ele>673</ele>
        <time>2025-09-14T07:11:27Z</time>
      </trkpt>
      <trkpt lat="45.67916" lon="3.38346">
        <ele>673.2</ele>
        <time>2025-09-14T07:11:28Z</time>
      </trkpt>
      <trkpt lat="45.67915" lon="3.38348">
        <ele>673.4</ele>
        <time>2025-09-14T07:11:29Z</time>
      </trkpt>
      <trkpt lat="45.67914" lon="3.38349">
        <ele>673.6</ele>
        <time>2025-09-14T07:11:30Z</time>
      </trkpt>
      <trkpt lat="45.67913" lon="3.38351">
        <ele>673.8</ele>
        <time>2025-09-14T07:11:31Z</time>
      </trkpt>
      <trkpt lat="45.67912" lon="3.38354">
        <ele>674.2</ele>
        <time>2025-09-14T07:11:32Z</time>
      </trkpt>
      <trkpt lat="45.67911" lon="3.38356">
        <ele>674.4</ele>
        <time>2025-09-14T07:11:33Z</time>
      </trkpt>
      <trkpt lat="45.6791" lon="3.38358">
        <ele>674.6</ele>
        <time>2025-09-14T07:11:34Z</time>
      </trkpt>
      <trkpt lat="45.67909" lon="3.3836">
        <ele>674.8</ele>
        <time>2025-09-14T07:11:35Z</time>
      </trkpt>
      <trkpt lat="45.67908" lon="3.38361">
        <ele>675.2</ele>
        <time>2025-09-14T07:11:36Z</time>
      </trkpt>
      <trkpt lat="45.67907" lon="3.38363">
        <ele>675.4</ele>
        <time>2025-09-14T07:11:37Z</time>
      </trkpt>
      <trkpt lat="45.67906" lon="3.38365">
        <ele>675.6</ele>
        <time>2025-09-14T07:11:38Z</time>
      </trkpt>
      <trkpt lat="45.67904" lon="3.38367">
        <ele>675.8</ele>
        <time>2025-09-14T07:11:39Z</time>
      </trkpt>
      <trkpt lat="45.67903" lon="3.38368">
        <ele>676.2</ele>
        <time>2025-09-14T07:11:40Z</time>
      </trkpt>
      <trkpt lat="45.67902" lon="3.38371">
        <ele>676.4</ele>
        <time>2025-09-14T07:11:41Z</time>
      </trkpt>
      <trkpt lat="45.67901" lon="3.38373">
        <ele>676.6</ele>
        <time>2025-09-14T07:11:42Z</time>
      </trkpt>
      <trkpt lat="45.67899" lon="3.38375">
        <ele>676.8</ele>
        <time>2025-09-14T07:11:43Z</time>
      </trkpt>
      <trkpt lat="45.67898" lon="3.38377">
        <ele>677</ele>
        <time>2025-09-14T07:11:44Z</time>
      </trkpt>
      <trkpt lat="45.67897" lon="3.38379">
        <ele>677</ele>
        <time>2025-09-14T07:11:45Z</time>
      </trkpt>
      <trkpt lat="45.67897" lon="3.38382">
        <ele>677.2</ele>
        <time>2025-09-14T07:11:46Z</time>
      </trkpt>
      <trkpt lat="45.67896" lon="3.38385">
        <ele>677.4</ele>
        <time>2025-09-14T07:11:47Z</time>
      </trkpt>
      <trkpt lat="45.67895" lon="3.38388">
        <ele>677.4</ele>
        <time>2025-09-14T07:11:48Z</time>
      </trkpt>
      <trkpt lat="45.67894" lon="3.3839">
        <ele>677.6</ele>
        <time>2025-09-14T07:11:49Z</time>
      </trkpt>
      <trkpt lat="45.67894" lon="3.38393">
        <ele>677.6</ele>
        <time>2025-09-14T07:11:50Z</time>
      </trkpt>
      <trkpt lat="45.67893" lon="3.38396">
        <ele>677.8</ele>
        <time>2025-09-14T07:11:51Z</time>
      </trkpt>
      <trkpt lat="45.67892" lon="3.38398">
        <ele>678</ele>
        <time>2025-09-14T07:11:52Z</time>
      </trkpt>
      <trkpt lat="45.67892" lon="3.384">
        <ele>678.2</ele>
        <time>2025-09-14T07:11:53Z</time>
      </trkpt>
      <trkpt lat="45.67891" lon="3.38402">
        <ele>678.4</ele>
        <time>2025-09-14T07:11:54Z</time>
      </trkpt>
      <trkpt lat="45.6789" lon="3.38405">
        <ele>678.6</ele>
        <time>2025-09-14T07:11:55Z</time>
      </trkpt>
      <trkpt lat="45.67889" lon="3.38407">
        <ele>678.8</ele>
        <time>2025-09-14T07:11:56Z</time>
      </trkpt>
      <trkpt lat="45.67889" lon="3.3841">
        <ele>679</ele>
        <time>2025-09-14T07:11:57Z</time>
      </trkpt>
      <trkpt lat="45.67889" lon="3.38414">
        <ele>679.2</ele>
        <time>2025-09-14T07:11:58Z</time>
      </trkpt>
      <trkpt lat="45.67889" lon="3.38417">
        <ele>679.4</ele>
        <time>2025-09-14T07:11:59Z</time>
      </trkpt>
      <trkpt lat="45.67889" lon="3.3842">
        <ele>679.6</ele>
        <time>2025-09-14T07:12:00Z</time>
      </trkpt>
      <trkpt lat="45.67888" lon="3.38423">
        <ele>679.8</ele>
        <time>2025-09-14T07:12:01Z</time>
      </trkpt>
      <trkpt lat="45.67888" lon="3.38425">
        <ele>680</ele>
        <time>2025-09-14T07:12:02Z</time>
      </trkpt>
      <trkpt lat="45.67887" lon="3.38428">
        <ele>680</ele>
        <time>2025-09-14T07:12:03Z</time>
      </trkpt>
      <trkpt lat="45.67886" lon="3.3843">
        <ele>680.2</ele>
        <time>2025-09-14T07:12:04Z</time>
      </trkpt>
      <trkpt lat="45.67885" lon="3.38433">
        <ele>680.4</ele>
        <time>2025-09-14T07:12:05Z</time>
      </trkpt>
      <trkpt lat="45.67884" lon="3.38436">
        <ele>680.4</ele>
        <time>2025-09-14T07:12:06Z</time>
      </trkpt>
      <trkpt lat="45.67884" lon="3.38439">
        <ele>680.4</ele>
        <time>2025-09-14T07:12:07Z</time>
      </trkpt>
      <trkpt lat="45.67883" lon="3.38443">
        <ele>680.6</ele>
        <time>2025-09-14T07:12:08Z</time>
      </trkpt>
      <trkpt lat="45.67882" lon="3.38447">
        <ele>680.6</ele>
        <time>2025-09-14T07:12:09Z</time>
      </trkpt>
      <trkpt lat="45.67882" lon="3.38451">
        <ele>680.6</ele>
        <time>2025-09-14T07:12:10Z</time>
      </trkpt>
      <trkpt lat="45.67882" lon="3.38455">
        <ele>680.8</ele>
        <time>2025-09-14T07:12:11Z</time>
      </trkpt>
      <trkpt lat="45.67881" lon="3.38459">
        <ele>680.8</ele>
        <time>2025-09-14T07:12:12Z</time>
      </trkpt>
      <trkpt lat="45.67881" lon="3.38463">
        <ele>680.8</ele>
        <time>2025-09-14T07:12:13Z</time>
      </trkpt>
      <trkpt lat="45.6788" lon="3.38468">
        <ele>680.8</ele>
        <time>2025-09-14T07:12:14Z</time>
      </trkpt>
      <trkpt lat="45.67879" lon="3.38472">
        <ele>681</ele>
        <time>2025-09-14T07:12:15Z</time>
      </trkpt>
      <trkpt lat="45.67879" lon="3.38476">
        <ele>681</ele>
        <time>2025-09-14T07:12:16Z</time>
      </trkpt>
      <trkpt lat="45.67877" lon="3.38479">
        <ele>681</ele>
        <time>2025-09-14T07:12:17Z</time>
      </trkpt>
      <trkpt lat="45.67876" lon="3.38481">
        <ele>681.2</ele>
        <time>2025-09-14T07:12:18Z</time>
      </trkpt>
      <trkpt lat="45.67876" lon="3.38484">
        <ele>681.2</ele>
        <time>2025-09-14T07:12:19Z</time>
      </trkpt>
      <trkpt lat="45.67875" lon="3.38488">
        <ele>681.2</ele>
        <time>2025-09-14T07:12:20Z</time>
      </trkpt>
      <trkpt lat="45.67875" lon="3.38493">
        <ele>681.4</ele>
        <time>2025-09-14T07:12:21Z</time>
      </trkpt>
      <trkpt lat="45.67874" lon="3.38497">
        <ele>681.6</ele>
        <time>2025-09-14T07:12:22Z</time>
      </trkpt>
      <trkpt lat="45.67874" lon="3.38501">
        <ele>681.6</ele>
        <time>2025-09-14T07:12:23Z</time>
      </trkpt>
      <trkpt lat="45.67874" lon="3.38504">
        <ele>681.8</ele>
        <time>2025-09-14T07:12:24Z</time>
      </trkpt>
      <trkpt lat="45.67873" lon="3.38507">
        <ele>682</ele>
        <time>2025-09-14T07:12:25Z</time>
      </trkpt>
      <trkpt lat="45.67872" lon="3.3851">
        <ele>682.2</ele>
        <time>2025-09-14T07:12:26Z</time>
      </trkpt>
      <trkpt lat="45.67871" lon="3.38513">
        <ele>682.4</ele>
        <time>2025-09-14T07:12:27Z</time>
      </trkpt>
      <trkpt lat="45.67871" lon="3.38517">
        <ele>682.6</ele>
        <time>2025-09-14T07:12:28Z</time>
      </trkpt>
      <trkpt lat="45.6787" lon="3.3852">
        <ele>682.8</ele>
        <time>2025-09-14T07:12:29Z</time>
      </trkpt>
      <trkpt lat="45.67869" lon="3.38523">
        <ele>683</ele>
        <time>2025-09-14T07:12:30Z</time>
      </trkpt>
      <trkpt lat="45.67868" lon="3.38526">
        <ele>683.2</ele>
        <time>2025-09-14T07:12:31Z</time>
      </trkpt>
      <trkpt lat="45.67867" lon="3.38528">
        <ele>683.4</ele>
        <time>2025-09-14T07:12:32Z</time>
      </trkpt>
      <trkpt lat="45.67866" lon="3.38531">
        <ele>683.6</ele>
        <time>2025-09-14T07:12:33Z</time>
      </trkpt>
      <trkpt lat="45.67865" lon="3.38533">
        <ele>684</ele>
        <time>2025-09-14T07:12:34Z</time>
      </trkpt>
      <trkpt lat="45.67864" lon="3.38535">
        <ele>684.2</ele>
        <time>2025-09-14T07:12:35Z</time>
      </trkpt>
      <trkpt lat="45.67864" lon="3.38537">
        <ele>684.6</ele>
        <time>2025-09-14T07:12:36Z</time>
      </trkpt>
      <trkpt lat="45.67863" lon="3.38539">
        <ele>684.8</ele>
        <time>2025-09-14T07:12:37Z</time>
      </trkpt>
      <trkpt lat="45.67863" lon="3.38542">
        <ele>685</ele>
        <time>2025-09-14T07:12:38Z</time>
      </trkpt>
      <trkpt lat="45.67863" lon="3.38546">
        <ele>685.2</ele>
        <time>2025-09-14T07:12:39Z</time>
      </trkpt>
      <trkpt lat="45.67862" lon="3.38549">
        <ele>685.4</ele>
        <time>2025-09-14T07:12:40Z</time>
      </trkpt>
      <trkpt lat="45.67861" lon="3.38552">
        <ele>685.6</ele>
        <time>2025-09-14T07:12:41Z</time>
      </trkpt>
      <trkpt lat="45.67861" lon="3.38555">
        <ele>685.8</ele>
        <time>2025-09-14T07:12:42Z</time>
      </trkpt>
      <trkpt lat="45.6786" lon="3.38558">
        <ele>686</ele>
        <time>2025-09-14T07:12:43Z</time>
      </trkpt>
      <trkpt lat="45.67859" lon="3.3856">
        <ele>686.2</ele>
        <time>2025-09-14T07:12:44Z</time>
      </trkpt>
      <trkpt lat="45.67859" lon="3.38562">
        <ele>686.6</ele>
        <time>2025-09-14T07:12:45Z</time>
      </trkpt>
      <trkpt lat="45.67859" lon="3.38563">
        <ele>686.8</ele>
        <time>2025-09-14T07:12:46Z</time>
      </trkpt>
      <trkpt lat="45.67858" lon="3.38563">
        <ele>686.8</ele>
        <time>2025-09-14T07:12:47Z</time>
      </trkpt>
      <trkpt lat="45.67857" lon="3.38564">
        <ele>687</ele>
        <time>2025-09-14T07:12:48Z</time>
      </trkpt>
      <trkpt lat="45.67855" lon="3.38565">
        <ele>687.2</ele>
        <time>2025-09-14T07:12:49Z</time>
      </trkpt>
      <trkpt lat="45.67853" lon="3.38567">
        <ele>687.4</ele>
        <time>2025-09-14T07:12:50Z</time>
      </trkpt>
      <trkpt lat="45.67852" lon="3.38569">
        <ele>687.4</ele>
        <time>2025-09-14T07:12:51Z</time>
      </trkpt>
      <trkpt lat="45.67852" lon="3.38571">
        <ele>687.6</ele>
        <time>2025-09-14T07:12:52Z</time>
      </trkpt>
      <trkpt lat="45.67851" lon="3.38574">
        <ele>687.8</ele>
        <time>2025-09-14T07:12:53Z</time>
      </trkpt>
      <trkpt lat="45.6785" lon="3.38576">
        <ele>688</ele>
        <time>2025-09-14T07:12:54Z</time>
      </trkpt>
      <trkpt lat="45.67849" lon="3.38577">
        <ele>688.2</ele>
        <time>2025-09-14T07:12:55Z</time>
      </trkpt>
      <trkpt lat="45.67847" lon="3.3858">
        <ele>688.4</ele>
        <time>2025-09-14T07:12:56Z</time>
      </trkpt>
      <trkpt lat="45.67846" lon="3.38582">
        <ele>688.6</ele>
        <time>2025-09-14T07:12:57Z</time>
      </trkpt>
      <trkpt lat="45.67845" lon="3.38583">
        <ele>688.8</ele>
        <time>2025-09-14T07:12:58Z</time>
      </trkpt>
      <trkpt lat="45.67844" lon="3.38585">
        <ele>689</ele>
        <time>2025-09-14T07:12:59Z</time>
      </trkpt>
      <trkpt lat="45.67843" lon="3.38587">
        <ele>689.2</ele>
        <time>2025-09-14T07:13:00Z</time>
      </trkpt>
      <trkpt lat="45.67842" lon="3.38589">
        <ele>689.4</ele>
        <time>2025-09-14T07:13:01Z</time>
      </trkpt>
      <trkpt lat="45.67841" lon="3.38591">
        <ele>689.6</ele>
        <time>2025-09-14T07:13:02Z</time>
      </trkpt>
      <trkpt lat="45.6784" lon="3.38593">
        <ele>689.8</ele>
        <time>2025-09-14T07:13:03Z</time>
      </trkpt>
      <trkpt lat="45.67839" lon="3.38594">
        <ele>690</ele>
        <time>2025-09-14T07:13:04Z</time>
      </trkpt>
      <trkpt lat="45.67838" lon="3.38595">
        <ele>690.2</ele>
        <time>2025-09-14T07:13:05Z</time>
      </trkpt>
      <trkpt lat="45.67837" lon="3.38597">
        <ele>690.4</ele>
        <time>2025-09-14T07:13:06Z</time>
      </trkpt>
      <trkpt lat="45.67837" lon="3.38597">
        <ele>690.8</ele>
        <time>2025-09-14T07:13:07Z</time>
      </trkpt>
      <trkpt lat="45.67836" lon="3.38599">
        <ele>691</ele>
        <time>2025-09-14T07:13:08Z</time>
      </trkpt>
      <trkpt lat="45.67836" lon="3.386">
        <ele>691.2</ele>
        <time>2025-09-14T07:13:09Z</time>
      </trkpt>
      <trkpt lat="45.67835" lon="3.38602">
        <ele>691.4</ele>
        <time>2025-09-14T07:13:10Z</time>
      </trkpt>
      <trkpt lat="45.67834" lon="3.38602">
        <ele>691.8</ele>
        <time>2025-09-14T07:13:11Z</time>
      </trkpt>
      <trkpt lat="45.67833" lon="3.38603">
        <ele>692</ele>
        <time>2025-09-14T07:13:12Z</time>
      </trkpt>
      <trkpt lat="45.67832" lon="3.38605">
        <ele>692.4</ele>
        <time>2025-09-14T07:13:13Z</time>
      </trkpt>
      <trkpt lat="45.67832" lon="3.38607">
        <ele>692.8</ele>
        <time>2025-09-14T07:13:14Z</time>
      </trkpt>
      <trkpt lat="45.67832" lon="3.38611">
        <ele>693.2</ele>
        <time>2025-09-14T07:13:15Z</time>
      </trkpt>
      <trkpt lat="45.67831" lon="3.38613">
        <ele>693.6</ele>
        <time>2025-09-14T07:13:16Z</time>
      </trkpt>
      <trkpt lat="45.6783" lon="3.38615">
        <ele>693.8</ele>
        <time>2025-09-14T07:13:17Z</time>
      </trkpt>
      <trkpt lat="45.67829" lon="3.38617">
        <ele>694.2</ele>
        <time>2025-09-14T07:13:18Z</time>
      </trkpt>
      <trkpt lat="45.67828" lon="3.3862">
        <ele>694.6</ele>
        <time>2025-09-14T07:13:19Z</time>
      </trkpt>
      <trkpt lat="45.67827" lon="3.38622">
        <ele>695</ele>
        <time>2025-09-14T07:13:20Z</time>
      </trkpt>
      <trkpt lat="45.67828" lon="3.38625">
        <ele>695.4</ele>
        <time>2025-09-14T07:13:21Z</time>
      </trkpt>
      <trkpt lat="45.67828" lon="3.38628">
        <ele>695.8</ele>
        <time>2025-09-14T07:13:22Z</time>
      </trkpt>
      <trkpt lat="45.67828" lon="3.38631">
        <ele>696.2</ele>
        <time>2025-09-14T07:13:23Z</time>
      </trkpt>
      <trkpt lat="45.67828" lon="3.38634">
        <ele>696.6</ele>
        <time>2025-09-14T07:13:24Z</time>
      </trkpt>
      <trkpt lat="45.67828" lon="3.38637">
        <ele>697</ele>
        <time>2025-09-14T07:13:25Z</time>
      </trkpt>
      <trkpt lat="45.67828" lon="3.38639">
        <ele>697.2</ele>
        <time>2025-09-14T07:13:26Z</time>
      </trkpt>
      <trkpt lat="45.67827" lon="3.38642">
        <ele>697.6</ele>
        <time>2025-09-14T07:13:27Z</time>
      </trkpt>
      <trkpt lat="45.67827" lon="3.38644">
        <ele>698</ele>
        <time>2025-09-14T07:13:28Z</time>
      </trkpt>
      <trkpt lat="45.67827" lon="3.38646">
        <ele>698.2</ele>
        <time>2025-09-14T07:13:29Z</time>
      </trkpt>
      <trkpt lat="45.67827" lon="3.38649">
        <ele>698.6</ele>
        <time>2025-09-14T07:13:30Z</time>
      </trkpt>
      <trkpt lat="45.67827" lon="3.38651">
        <ele>699</ele>
        <time>2025-09-14T07:13:31Z</time>
      </trkpt>
      <trkpt lat="45.67827" lon="3.38654">
        <ele>699.2</ele>
        <time>2025-09-14T07:13:32Z</time>
      </trkpt>
      <trkpt lat="45.67826" lon="3.38657">
        <ele>699.4</ele>
        <time>2025-09-14T07:13:33Z</time>
      </trkpt>
      <trkpt lat="45.67825" lon="3.3866">
        <ele>699.8</ele>
        <time>2025-09-14T07:13:34Z</time>
      </trkpt>
      <trkpt lat="45.67824" lon="3.38662">
        <ele>700</ele>
        <time>2025-09-14T07:13:35Z</time>
      </trkpt>
      <trkpt lat="45.67822" lon="3.38665">
        <ele>700.2</ele>
        <time>2025-09-14T07:13:36Z</time>
      </trkpt>
      <trkpt lat="45.6782" lon="3.38667">
        <ele>700.6</ele>
        <time>2025-09-14T07:13:37Z</time>
      </trkpt>
      <trkpt lat="45.67818" lon="3.38668">
        <ele>700.8</ele>
        <time>2025-09-14T07:13:38Z</time>
      </trkpt>
      <trkpt lat="45.67817" lon="3.38669">
        <ele>701.2</ele>
        <time>2025-09-14T07:13:39Z</time>
      </trkpt>
      <trkpt lat="45.67817" lon="3.38671">
        <ele>701.4</ele>
        <time>2025-09-14T07:13:40Z</time>
      </trkpt>
      <trkpt lat="45.67817" lon="3.38674">
        <ele>701.6</ele>
        <time>2025-09-14T07:13:41Z</time>
      </trkpt>
      <trkpt lat="45.67817" lon="3.38676">
        <ele>701.8</ele>
        <time>2025-09-14T07:13:42Z</time>
      </trkpt>
      <trkpt lat="45.67816" lon="3.38679">
        <ele>702</ele>
        <time>2025-09-14T07:13:43Z</time>
      </trkpt>
      <trkpt lat="45.67816" lon="3.38681">
        <ele>702.2</ele>
        <time>2025-09-14T07:13:44Z</time>
      </trkpt>
      <trkpt lat="45.67816" lon="3.38683">
        <ele>702.4</ele>
        <time>2025-09-14T07:13:45Z</time>
      </trkpt>
      <trkpt lat="45.67815" lon="3.38686">
        <ele>702.6</ele>
        <time>2025-09-14T07:13:46Z</time>
      </trkpt>
      <trkpt lat="45.67816" lon="3.38688">
        <ele>702.6</ele>
        <time>2025-09-14T07:13:47Z</time>
      </trkpt>
      <trkpt lat="45.67816" lon="3.38691">
        <ele>702.8</ele>
        <time>2025-09-14T07:13:48Z</time>
      </trkpt>
      <trkpt lat="45.67816" lon="3.38693">
        <ele>702.8</ele>
        <time>2025-09-14T07:13:49Z</time>
      </trkpt>
      <trkpt lat="45.67818" lon="3.38694">
        <ele>702.8</ele>
        <time>2025-09-14T07:13:50Z</time>
      </trkpt>
      <trkpt lat="45.67819" lon="3.38696">
        <ele>702.8</ele>
        <time>2025-09-14T07:13:51Z</time>
      </trkpt>
      <trkpt lat="45.67821" lon="3.38696">
        <ele>702.8</ele>
        <time>2025-09-14T07:13:52Z</time>
      </trkpt>
      <trkpt lat="45.67823" lon="3.38696">
        <ele>702.8</ele>
        <time>2025-09-14T07:13:53Z</time>
      </trkpt>
      <trkpt lat="45.67824" lon="3.38697">
        <ele>702.6</ele>
        <time>2025-09-14T07:13:54Z</time>
      </trkpt>
      <trkpt lat="45.67826" lon="3.38697">
        <ele>702.6</ele>
        <time>2025-09-14T07:13:55Z</time>
      </trkpt>
      <trkpt lat="45.67827" lon="3.38698">
        <ele>702.6</ele>
        <time>2025-09-14T07:13:56Z</time>
      </trkpt>
      <trkpt lat="45.67828" lon="3.38698">
        <ele>702.4</ele>
        <time>2025-09-14T07:13:57Z</time>
      </trkpt>
      <trkpt lat="45.67827" lon="3.38699">
        <ele>702.4</ele>
        <time>2025-09-14T07:13:58Z</time>
      </trkpt>
      <trkpt lat="45.67826" lon="3.38701">
        <ele>702.2</ele>
        <time>2025-09-14T07:13:59Z</time>
      </trkpt>
      <trkpt lat="45.67824" lon="3.38704">
        <ele>702.2</ele>
        <time>2025-09-14T07:14:00Z</time>
      </trkpt>
      <trkpt lat="45.67822" lon="3.38708">
        <ele>702</ele>
        <time>2025-09-14T07:14:01Z</time>
      </trkpt>
      <trkpt lat="45.6782" lon="3.38711">
        <ele>702</ele>
        <time>2025-09-14T07:14:02Z</time>
      </trkpt>
      <trkpt lat="45.67818" lon="3.38714">
        <ele>701.8</ele>
        <time>2025-09-14T07:14:03Z</time>
      </trkpt>
      <trkpt lat="45.67816" lon="3.38717">
        <ele>701.6</ele>
        <time>2025-09-14T07:14:04Z</time>
      </trkpt>
      <trkpt lat="45.67813" lon="3.3872">
        <ele>701.4</ele>
        <time>2025-09-14T07:14:05Z</time>
      </trkpt>
      <trkpt lat="45.67811" lon="3.38722">
        <ele>701.2</ele>
        <time>2025-09-14T07:14:06Z</time>
      </trkpt>
      <trkpt lat="45.67809" lon="3.38727">
        <ele>701</ele>
        <time>2025-09-14T07:14:07Z</time>
      </trkpt>
      <trkpt lat="45.67808" lon="3.38731">
        <ele>700.8</ele>
        <time>2025-09-14T07:14:08Z</time>
      </trkpt>
      <trkpt lat="45.67806" lon="3.38737">
        <ele>700.6</ele>
        <time>2025-09-14T07:14:09Z</time>
      </trkpt>
      <trkpt lat="45.67803" lon="3.38741">
        <ele>700.2</ele>
        <time>2025-09-14T07:14:10Z</time>
      </trkpt>
      <trkpt lat="45.67801" lon="3.38745">
        <ele>700</ele>
        <time>2025-09-14T07:14:11Z</time>
      </trkpt>
      <trkpt lat="45.67799" lon="3.38748">
        <ele>699.8</ele>
        <time>2025-09-14T07:14:12Z</time>
      </trkpt>
      <trkpt lat="45.67796" lon="3.38752">
        <ele>699.4</ele>
        <time>2025-09-14T07:14:13Z</time>
      </trkpt>
      <trkpt lat="45.67795" lon="3.38757">
        <ele>699.2</ele>
        <time>2025-09-14T07:14:14Z</time>
      </trkpt>
      <trkpt lat="45.67794" lon="3.38761">
        <ele>699.2</ele>
        <time>2025-09-14T07:14:15Z</time>
      </trkpt>
      <trkpt lat="45.67793" lon="3.38766">
        <ele>698.8</ele>
        <time>2025-09-14T07:14:16Z</time>
      </trkpt>
      <trkpt lat="45.6779" lon="3.3877">
        <ele>698.6</ele>
        <time>2025-09-14T07:14:17Z</time>
      </trkpt>
      <trkpt lat="45.67788" lon="3.38774">
        <ele>698.2</ele>
        <time>2025-09-14T07:14:18Z</time>
      </trkpt>
      <trkpt lat="45.67785" lon="3.38778">
        <ele>698</ele>
        <time>2025-09-14T07:14:19Z</time>
      </trkpt>
      <trkpt lat="45.67782" lon="3.38783">
        <ele>697.6</ele>
        <time>2025-09-14T07:14:20Z</time>
      </trkpt>
      <trkpt lat="45.67779" lon="3.38789">
        <ele>697.4</ele>
        <time>2025-09-14T07:14:21Z</time>
      </trkpt>
      <trkpt lat="45.67776" lon="3.38795">
        <ele>697</ele>
        <time>2025-09-14T07:14:22Z</time>
      </trkpt>
      <trkpt lat="45.67774" lon="3.38802">
        <ele>696.8</ele>
        <time>2025-09-14T07:14:23Z</time>
      </trkpt>
      <trkpt lat="45.67771" lon="3.38808">
        <ele>696.6</ele>
        <time>2025-09-14T07:14:24Z</time>
      </trkpt>
      <trkpt lat="45.67769" lon="3.38814">
        <ele>696.4</ele>
        <time>2025-09-14T07:14:25Z</time>
      </trkpt>
      <trkpt lat="45.67766" lon="3.3882">
        <ele>696.2</ele>
        <time>2025-09-14T07:14:26Z</time>
      </trkpt>
      <trkpt lat="45.67763" lon="3.38826">
        <ele>696.2</ele>
        <time>2025-09-14T07:14:27Z</time>
      </trkpt>
      <trkpt lat="45.67761" lon="3.38831">
        <ele>696</ele>
        <time>2025-09-14T07:14:28Z</time>
      </trkpt>
      <trkpt lat="45.67759" lon="3.38836">
        <ele>695.8</ele>
        <time>2025-09-14T07:14:29Z</time>
      </trkpt>
      <trkpt lat="45.67757" lon="3.38841">
        <ele>695.8</ele>
        <time>2025-09-14T07:14:30Z</time>
      </trkpt>
      <trkpt lat="45.67755" lon="3.38846">
        <ele>695.6</ele>
        <time>2025-09-14T07:14:31Z</time>
      </trkpt>
      <trkpt lat="45.67752" lon="3.38852">
        <ele>695.6</ele>
        <time>2025-09-14T07:14:32Z</time>
      </trkpt>
      <trkpt lat="45.6775" lon="3.38857">
        <ele>695.4</ele>
        <time>2025-09-14T07:14:33Z</time>
      </trkpt>
      <trkpt lat="45.67748" lon="3.38863">
        <ele>695.4</ele>
        <time>2025-09-14T07:14:34Z</time>
      </trkpt>
      <trkpt lat="45.67746" lon="3.38869">
        <ele>695.4</ele>
        <time>2025-09-14T07:14:35Z</time>
      </trkpt>
      <trkpt lat="45.67743" lon="3.38875">
        <ele>695.4</ele>
        <time>2025-09-14T07:14:36Z</time>
      </trkpt>
      <trkpt lat="45.67741" lon="3.38881">
        <ele>695.4</ele>
        <time>2025-09-14T07:14:37Z</time>
      </trkpt>
      <trkpt lat="45.67739" lon="3.38887">
        <ele>695.4</ele>
        <time>2025-09-14T07:14:38Z</time>
      </trkpt>
      <trkpt lat="45.67736" lon="3.38893">
        <ele>695.2</ele>
        <time>2025-09-14T07:14:39Z</time>
      </trkpt>
      <trkpt lat="45.67734" lon="3.38898">
        <ele>695.2</ele>
        <time>2025-09-14T07:14:40Z</time>
      </trkpt>
      <trkpt lat="45.67732" lon="3.38905">
        <ele>695</ele>
        <time>2025-09-14T07:14:41Z</time>
      </trkpt>
      <trkpt lat="45.6773" lon="3.38911">
        <ele>694.8</ele>
        <time>2025-09-14T07:14:42Z</time>
      </trkpt>
      <trkpt lat="45.67728" lon="3.38917">
        <ele>694.6</ele>
        <time>2025-09-14T07:14:43Z</time>
      </trkpt>
      <trkpt lat="45.67727" lon="3.38924">
        <ele>694.4</ele>
        <time>2025-09-14T07:14:44Z</time>
      </trkpt>
      <trkpt lat="45.67725" lon="3.3893">
        <ele>694</ele>
        <time>2025-09-14T07:14:45Z</time>
      </trkpt>
      <trkpt lat="45.67724" lon="3.38937">
        <ele>693.8</ele>
        <time>2025-09-14T07:14:46Z</time>
      </trkpt>
      <trkpt lat="45.67722" lon="3.38944">
        <ele>693.6</ele>
        <time>2025-09-14T07:14:47Z</time>
      </trkpt>
      <trkpt lat="45.6772" lon="3.3895">
        <ele>693.4</ele>
        <time>2025-09-14T07:14:48Z</time>
      </trkpt>
      <trkpt lat="45.67717" lon="3.38958">
        <ele>693.4</ele>
        <time>2025-09-14T07:14:49Z</time>
      </trkpt>
      <trkpt lat="45.67714" lon="3.38964">
        <ele>693.2</ele>
        <time>2025-09-14T07:14:50Z</time>
      </trkpt>
      <trkpt lat="45.67711" lon="3.38971">
        <ele>693</ele>
        <time>2025-09-14T07:14:51Z</time>
      </trkpt>
      <trkpt lat="45.67708" lon="3.38977">
        <ele>693</ele>
        <time>2025-09-14T07:14:52Z</time>
      </trkpt>
      <trkpt lat="45.67706" lon="3.38983">
        <ele>692.8</ele>
        <time>2025-09-14T07:14:53Z</time>
      </trkpt>
      <trkpt lat="45.67704" lon="3.3899">
        <ele>692.6</ele>
        <time>2025-09-14T07:14:54Z</time>
      </trkpt>
      <trkpt lat="45.67701" lon="3.38997">
        <ele>692.6</ele>
        <time>2025-09-14T07:14:55Z</time>
      </trkpt>
      <trkpt lat="45.67698" lon="3.39004">
        <ele>692.4</ele>
        <time>2025-09-14T07:14:56Z</time>
      </trkpt>
      <trkpt lat="45.67694" lon="3.39011">
        <ele>692.4</ele>
        <time>2025-09-14T07:14:57Z</time>
      </trkpt>
      <trkpt lat="45.67692" lon="3.39019">
        <ele>692.2</ele>
        <time>2025-09-14T07:14:58Z</time>
      </trkpt>
      <trkpt lat="45.67688" lon="3.39026">
        <ele>692.2</ele>
        <time>2025-09-14T07:14:59Z</time>
      </trkpt>
      <trkpt lat="45.67686" lon="3.39034">
        <ele>692.2</ele>
        <time>2025-09-14T07:15:00Z</time>
      </trkpt>
      <trkpt lat="45.67683" lon="3.39041">
        <ele>692</ele>
        <time>2025-09-14T07:15:01Z</time>
      </trkpt>
      <trkpt lat="45.67681" lon="3.39048">
        <ele>692</ele>
        <time>2025-09-14T07:15:02Z</time>
      </trkpt>
      <trkpt lat="45.67679" lon="3.39056">
        <ele>692</ele>
        <time>2025-09-14T07:15:03Z</time>
      </trkpt>
      <trkpt lat="45.67677" lon="3.39063">
        <ele>692</ele>
        <time>2025-09-14T07:15:04Z</time>
      </trkpt>
      <trkpt lat="45.67676" lon="3.3907">
        <ele>691.8</ele>
        <time>2025-09-14T07:15:05Z</time>
      </trkpt>
      <trkpt lat="45.67674" lon="3.39077">
        <ele>691.6</ele>
        <time>2025-09-14T07:15:06Z</time>
      </trkpt>
      <trkpt lat="45.67672" lon="3.39084">
        <ele>691.6</ele>
        <time>2025-09-14T07:15:07Z</time>
      </trkpt>
      <trkpt lat="45.6767" lon="3.39091">
        <ele>691.4</ele>
        <time>2025-09-14T07:15:08Z</time>
      </trkpt>
      <trkpt lat="45.67668" lon="3.39097">
        <ele>691.4</ele>
        <time>2025-09-14T07:15:09Z</time>
      </trkpt>
      <trkpt lat="45.67665" lon="3.39103">
        <ele>691.4</ele>
        <time>2025-09-14T07:15:10Z</time>
      </trkpt>
      <trkpt lat="45.67663" lon="3.39108">
        <ele>691.2</ele>
        <time>2025-09-14T07:15:11Z</time>
      </trkpt>
      <trkpt lat="45.67661" lon="3.39114">
        <ele>691.2</ele>
        <time>2025-09-14T07:15:12Z</time>
      </trkpt>
      <trkpt lat="45.67659" lon="3.3912">
        <ele>691.2</ele>
        <time>2025-09-14T07:15:13Z</time>
      </trkpt>
      <trkpt lat="45.67657" lon="3.39126">
        <ele>691</ele>
        <time>2025-09-14T07:15:14Z</time>
      </trkpt>
      <trkpt lat="45.67656" lon="3.39132">
        <ele>691</ele>
        <time>2025-09-14T07:15:15Z</time>
      </trkpt>
      <trkpt lat="45.67654" lon="3.39137">
        <ele>690.8</ele>
        <time>2025-09-14T07:15:16Z</time>
      </trkpt>
      <trkpt lat="45.67652" lon="3.39143">
        <ele>690.8</ele>
        <time>2025-09-14T07:15:17Z</time>
      </trkpt>
      <trkpt lat="45.67651" lon="3.39149">
        <ele>690.8</ele>
        <time>2025-09-14T07:15:18Z</time>
      </trkpt>
      <trkpt lat="45.67649" lon="3.39155">
        <ele>690.8</ele>
        <time>2025-09-14T07:15:19Z</time>
      </trkpt>
      <trkpt lat="45.67648" lon="3.3916">
        <ele>690.8</ele>
        <time>2025-09-14T07:15:20Z</time>
      </trkpt>
      <trkpt lat="45.67646" lon="3.39165">
        <ele>690.8</ele>
        <time>2025-09-14T07:15:21Z</time>
      </trkpt>
      <trkpt lat="45.67644" lon="3.3917">
        <ele>690.8</ele>
        <time>2025-09-14T07:15:22Z</time>
      </trkpt>
      <trkpt lat="45.67643" lon="3.39176">
        <ele>690.8</ele>
        <time>2025-09-14T07:15:23Z</time>
      </trkpt>
      <trkpt lat="45.67641" lon="3.39181">
        <ele>690.8</ele>
        <time>2025-09-14T07:15:24Z</time>
      </trkpt>
      <trkpt lat="45.67639" lon="3.39187">
        <ele>691</ele>
        <time>2025-09-14T07:15:25Z</time>
      </trkpt>
      <trkpt lat="45.67637" lon="3.39192">
        <ele>691.2</ele>
        <time>2025-09-14T07:15:26Z</time>
      </trkpt>
      <trkpt lat="45.67635" lon="3.39198">
        <ele>691.2</ele>
        <time>2025-09-14T07:15:27Z</time>
      </trkpt>
      <trkpt lat="45.67634" lon="3.39203">
        <ele>691.4</ele>
        <time>2025-09-14T07:15:28Z</time>
      </trkpt>
      <trkpt lat="45.67632" lon="3.39208">
        <ele>691.6</ele>
        <time>2025-09-14T07:15:29Z</time>
      </trkpt>
      <trkpt lat="45.6763" lon="3.39214">
        <ele>691.6</ele>
        <time>2025-09-14T07:15:30Z</time>
      </trkpt>
      <trkpt lat="45.67629" lon="3.39219">
        <ele>691.8</ele>
        <time>2025-09-14T07:15:31Z</time>
      </trkpt>
      <trkpt lat="45.67627" lon="3.39223">
        <ele>692</ele>
        <time>2025-09-14T07:15:32Z</time>
      </trkpt>
      <trkpt lat="45.67626" lon="3.39228">
        <ele>692</ele>
        <time>2025-09-14T07:15:33Z</time>
      </trkpt>
      <trkpt lat="45.67625" lon="3.39233">
        <ele>692</ele>
        <time>2025-09-14T07:15:34Z</time>
      </trkpt>
      <trkpt lat="45.67623" lon="3.39238">
        <ele>692.2</ele>
        <time>2025-09-14T07:15:35Z</time>
      </trkpt>
      <trkpt lat="45.67622" lon="3.39242">
        <ele>692.2</ele>
        <time>2025-09-14T07:15:36Z</time>
      </trkpt>
      <trkpt lat="45.67621" lon="3.39247">
        <ele>692</ele>
        <time>2025-09-14T07:15:37Z</time>
      </trkpt>
      <trkpt lat="45.6762" lon="3.39252">
        <ele>691.2</ele>
        <time>2025-09-14T07:15:38Z</time>
      </trkpt>
      <trkpt lat="45.6762" lon="3.39257">
        <ele>690.4</ele>
        <time>2025-09-14T07:15:39Z</time>
      </trkpt>
      <trkpt lat="45.67618" lon="3.39262">
        <ele>689.8</ele>
        <time>2025-09-14T07:15:40Z</time>
      </trkpt>
      <trkpt lat="45.67617" lon="3.39267">
        <ele>689.4</ele>
        <time>2025-09-14T07:15:41Z</time>
      </trkpt>
      <trkpt lat="45.67615" lon="3.39273">
        <ele>689</ele>
        <time>2025-09-14T07:15:42Z</time>
      </trkpt>
      <trkpt lat="45.67613" lon="3.39278">
        <ele>688.6</ele>
        <time>2025-09-14T07:15:43Z</time>
      </trkpt>
      <trkpt lat="45.67611" lon="3.39284">
        <ele>688.2</ele>
        <time>2025-09-14T07:15:44Z</time>
      </trkpt>
      <trkpt lat="45.6761" lon="3.39289">
        <ele>688</ele>
        <time>2025-09-14T07:15:45Z</time>
      </trkpt>
      <trkpt lat="45.67608" lon="3.39295">
        <ele>687.8</ele>
        <time>2025-09-14T07:15:46Z</time>
      </trkpt>
      <trkpt lat="45.67606" lon="3.39301">
        <ele>687.6</ele>
        <time>2025-09-14T07:15:47Z</time>
      </trkpt>
      <trkpt lat="45.67604" lon="3.39306">
        <ele>687.4</ele>
        <time>2025-09-14T07:15:48Z</time>
      </trkpt>
      <trkpt lat="45.67603" lon="3.39312">
        <ele>687.2</ele>
        <time>2025-09-14T07:15:49Z</time>
      </trkpt>
      <trkpt lat="45.67601" lon="3.39317">
        <ele>687</ele>
        <time>2025-09-14T07:15:50Z</time>
      </trkpt>
      <trkpt lat="45.67599" lon="3.39321">
        <ele>687.2</ele>
        <time>2025-09-14T07:15:51Z</time>
      </trkpt>
      <trkpt lat="45.67597" lon="3.39327">
        <ele>687.2</ele>
        <time>2025-09-14T07:15:52Z</time>
      </trkpt>
      <trkpt lat="45.67595" lon="3.39332">
        <ele>687</ele>
        <time>2025-09-14T07:15:53Z</time>
      </trkpt>
      <trkpt lat="45.67593" lon="3.39337">
        <ele>687</ele>
        <time>2025-09-14T07:15:54Z</time>
      </trkpt>
      <trkpt lat="45.67592" lon="3.39343">
        <ele>687</ele>
        <time>2025-09-14T07:15:55Z</time>
      </trkpt>
      <trkpt lat="45.67591" lon="3.39348">
        <ele>687.2</ele>
        <time>2025-09-14T07:15:56Z</time>
      </trkpt>
      <trkpt lat="45.67589" lon="3.39354">
        <ele>687.2</ele>
        <time>2025-09-14T07:15:57Z</time>
      </trkpt>
      <trkpt lat="45.67588" lon="3.39358">
        <ele>687.2</ele>
        <time>2025-09-14T07:15:58Z</time>
      </trkpt>
      <trkpt lat="45.67586" lon="3.39363">
        <ele>687.2</ele>
        <time>2025-09-14T07:15:59Z</time>
      </trkpt>
      <trkpt lat="45.67585" lon="3.39367">
        <ele>687.4</ele>
        <time>2025-09-14T07:16:00Z</time>
      </trkpt>
      <trkpt lat="45.67583" lon="3.39371">
        <ele>687.4</ele>
        <time>2025-09-14T07:16:01Z</time>
      </trkpt>
      <trkpt lat="45.67581" lon="3.39376">
        <ele>687.4</ele>
        <time>2025-09-14T07:16:02Z</time>
      </trkpt>
      <trkpt lat="45.67579" lon="3.3938">
        <ele>687.6</ele>
        <time>2025-09-14T07:16:03Z</time>
      </trkpt>
      <trkpt lat="45.67578" lon="3.39384">
        <ele>687.6</ele>
        <time>2025-09-14T07:16:04Z</time>
      </trkpt>
      <trkpt lat="45.67577" lon="3.39388">
        <ele>687.6</ele>
        <time>2025-09-14T07:16:05Z</time>
      </trkpt>
      <trkpt lat="45.67576" lon="3.39393">
        <ele>687.8</ele>
        <time>2025-09-14T07:16:06Z</time>
      </trkpt>
      <trkpt lat="45.67576" lon="3.39398">
        <ele>688</ele>
        <time>2025-09-14T07:16:07Z</time>
      </trkpt>
      <trkpt lat="45.67575" lon="3.39402">
        <ele>688.2</ele>
        <time>2025-09-14T07:16:08Z</time>
      </trkpt>
      <trkpt lat="45.67574" lon="3.39406">
        <ele>688.4</ele>
        <time>2025-09-14T07:16:09Z</time>
      </trkpt>
      <trkpt lat="45.67573" lon="3.39409">
        <ele>688.6</ele>
        <time>2025-09-14T07:16:10Z</time>
      </trkpt>
      <trkpt lat="45.67572" lon="3.39414">
        <ele>688.8</ele>
        <time>2025-09-14T07:16:11Z</time>
      </trkpt>
      <trkpt lat="45.6757" lon="3.39418">
        <ele>689</ele>
        <time>2025-09-14T07:16:12Z</time>
      </trkpt>
      <trkpt lat="45.67569" lon="3.39422">
        <ele>689.2</ele>
        <time>2025-09-14T07:16:13Z</time>
      </trkpt>
      <trkpt lat="45.67568" lon="3.39426">
        <ele>689.4</ele>
        <time>2025-09-14T07:16:14Z</time>
      </trkpt>
      <trkpt lat="45.67567" lon="3.39429">
        <ele>689.6</ele>
        <time>2025-09-14T07:16:15Z</time>
      </trkpt>
      <trkpt lat="45.67566" lon="3.39433">
        <ele>689.8</ele>
        <time>2025-09-14T07:16:16Z</time>
      </trkpt>
      <trkpt lat="45.67565" lon="3.39436">
        <ele>689.8</ele>
        <time>2025-09-14T07:16:17Z</time>
      </trkpt>
      <trkpt lat="45.67563" lon="3.3944">
        <ele>690.2</ele>
        <time>2025-09-14T07:16:18Z</time>
      </trkpt>
      <trkpt lat="45.67562" lon="3.39443">
        <ele>690.4</ele>
        <time>2025-09-14T07:16:19Z</time>
      </trkpt>
      <trkpt lat="45.6756" lon="3.39447">
        <ele>690.4</ele>
        <time>2025-09-14T07:16:20Z</time>
      </trkpt>
      <trkpt lat="45.67559" lon="3.39451">
        <ele>690.4</ele>
        <time>2025-09-14T07:16:21Z</time>
      </trkpt>
      <trkpt lat="45.67558" lon="3.39454">
        <ele>690.6</ele>
        <time>2025-09-14T07:16:22Z</time>
      </trkpt>
      <trkpt lat="45.67557" lon="3.39458">
        <ele>690.8</ele>
        <time>2025-09-14T07:16:23Z</time>
      </trkpt>
      <trkpt lat="45.67555" lon="3.39462">
        <ele>691</ele>
        <time>2025-09-14T07:16:24Z</time>
      </trkpt>
      <trkpt lat="45.67554" lon="3.39466">
        <ele>691</ele>
        <time>2025-09-14T07:16:25Z</time>
      </trkpt>
      <trkpt lat="45.67553" lon="3.3947">
        <ele>691.2</ele>
        <time>2025-09-14T07:16:26Z</time>
      </trkpt>
      <trkpt lat="45.67552" lon="3.39473">
        <ele>691.4</ele>
        <time>2025-09-14T07:16:27Z</time>
      </trkpt>
      <trkpt lat="45.6755" lon="3.39477">
        <ele>691.4</ele>
        <time>2025-09-14T07:16:28Z</time>
      </trkpt>
      <trkpt lat="45.67548" lon="3.39481">
        <ele>691.4</ele>
        <time>2025-09-14T07:16:29Z</time>
      </trkpt>
      <trkpt lat="45.67547" lon="3.39484">
        <ele>691.2</ele>
        <time>2025-09-14T07:16:30Z</time>
      </trkpt>
      <trkpt lat="45.67545" lon="3.39488">
        <ele>691.2</ele>
        <time>2025-09-14T07:16:31Z</time>
      </trkpt>
      <trkpt lat="45.67543" lon="3.39492">
        <ele>691</ele>
        <time>2025-09-14T07:16:32Z</time>
      </trkpt>
      <trkpt lat="45.67541" lon="3.39496">
        <ele>691</ele>
        <time>2025-09-14T07:16:33Z</time>
      </trkpt>
      <trkpt lat="45.67539" lon="3.39501">
        <ele>690.8</ele>
        <time>2025-09-14T07:16:34Z</time>
      </trkpt>
      <trkpt lat="45.67537" lon="3.39506">
        <ele>690.6</ele>
        <time>2025-09-14T07:16:35Z</time>
      </trkpt>
      <trkpt lat="45.67534" lon="3.3951">
        <ele>690.6</ele>
        <time>2025-09-14T07:16:36Z</time>
      </trkpt>
      <trkpt lat="45.67532" lon="3.39516">
        <ele>690.4</ele>
        <time>2025-09-14T07:16:37Z</time>
      </trkpt>
      <trkpt lat="45.6753" lon="3.39522">
        <ele>690.4</ele>
        <time>2025-09-14T07:16:38Z</time>
      </trkpt>
      <trkpt lat="45.67529" lon="3.39527">
        <ele>690.4</ele>
        <time>2025-09-14T07:16:39Z</time>
      </trkpt>
      <trkpt lat="45.67528" lon="3.39532">
        <ele>690.4</ele>
        <time>2025-09-14T07:16:40Z</time>
      </trkpt>
      <trkpt lat="45.67526" lon="3.39536">
        <ele>690.2</ele>
        <time>2025-09-14T07:16:41Z</time>
      </trkpt>
      <trkpt lat="45.67525" lon="3.39539">
        <ele>690</ele>
        <time>2025-09-14T07:16:42Z</time>
      </trkpt>
      <trkpt lat="45.67523" lon="3.39542">
        <ele>689.8</ele>
        <time>2025-09-14T07:16:43Z</time>
      </trkpt>
      <trkpt lat="45.67521" lon="3.39546">
        <ele>689.8</ele>
        <time>2025-09-14T07:16:44Z</time>
      </trkpt>
      <trkpt lat="45.6752" lon="3.39549">
        <ele>689.8</ele>
        <time>2025-09-14T07:16:45Z</time>
      </trkpt>
      <trkpt lat="45.67518" lon="3.39552">
        <ele>690</ele>
        <time>2025-09-14T07:16:46Z</time>
      </trkpt>
      <trkpt lat="45.67516" lon="3.39555">
        <ele>690</ele>
        <time>2025-09-14T07:16:47Z</time>
      </trkpt>
      <trkpt lat="45.67514" lon="3.39558">
        <ele>690.2</ele>
        <time>2025-09-14T07:16:48Z</time>
      </trkpt>
      <trkpt lat="45.67513" lon="3.39561">
        <ele>690.4</ele>
        <time>2025-09-14T07:16:49Z</time>
      </trkpt>
      <trkpt lat="45.67511" lon="3.39565">
        <ele>690.6</ele>
        <time>2025-09-14T07:16:50Z</time>
      </trkpt>
      <trkpt lat="45.67509" lon="3.39568">
        <ele>690.8</ele>
        <time>2025-09-14T07:16:51Z</time>
      </trkpt>
      <trkpt lat="45.67508" lon="3.39571">
        <ele>691</ele>
        <time>2025-09-14T07:16:52Z</time>
      </trkpt>
      <trkpt lat="45.67506" lon="3.39574">
        <ele>691.2</ele>
        <time>2025-09-14T07:16:53Z</time>
      </trkpt>
      <trkpt lat="45.67505" lon="3.39577">
        <ele>691.4</ele>
        <time>2025-09-14T07:16:54Z</time>
      </trkpt>
      <trkpt lat="45.67503" lon="3.3958">
        <ele>691.6</ele>
        <time>2025-09-14T07:16:55Z</time>
      </trkpt>
      <trkpt lat="45.67502" lon="3.39583">
        <ele>692</ele>
        <time>2025-09-14T07:16:56Z</time>
      </trkpt>
      <trkpt lat="45.675" lon="3.39586">
        <ele>692</ele>
        <time>2025-09-14T07:16:57Z</time>
      </trkpt>
      <trkpt lat="45.67499" lon="3.39588">
        <ele>692.2</ele>
        <time>2025-09-14T07:16:58Z</time>
      </trkpt>
      <trkpt lat="45.67497" lon="3.39591">
        <ele>692.4</ele>
        <time>2025-09-14T07:16:59Z</time>
      </trkpt>
      <trkpt lat="45.67496" lon="3.39595">
        <ele>692.6</ele>
        <time>2025-09-14T07:17:00Z</time>
      </trkpt>
      <trkpt lat="45.67494" lon="3.39598">
        <ele>692.6</ele>
        <time>2025-09-14T07:17:01Z</time>
      </trkpt>
      <trkpt lat="45.67493" lon="3.39601">
        <ele>692.8</ele>
        <time>2025-09-14T07:17:02Z</time>
      </trkpt>
      <trkpt lat="45.67492" lon="3.39604">
        <ele>693</ele>
        <time>2025-09-14T07:17:03Z</time>
      </trkpt>
      <trkpt lat="45.6749" lon="3.39607">
        <ele>693.2</ele>
        <time>2025-09-14T07:17:04Z</time>
      </trkpt>
      <trkpt lat="45.67488" lon="3.3961">
        <ele>693.4</ele>
        <time>2025-09-14T07:17:05Z</time>
      </trkpt>
      <trkpt lat="45.67486" lon="3.39613">
        <ele>693.6</ele>
        <time>2025-09-14T07:17:06Z</time>
      </trkpt>
      <trkpt lat="45.67485" lon="3.39616">
        <ele>693.6</ele>
        <time>2025-09-14T07:17:07Z</time>
      </trkpt>
      <trkpt lat="45.67483" lon="3.39619">
        <ele>693.6</ele>
        <time>2025-09-14T07:17:08Z</time>
      </trkpt>
      <trkpt lat="45.67481" lon="3.39622">
        <ele>693.8</ele>
        <time>2025-09-14T07:17:09Z</time>
      </trkpt>
      <trkpt lat="45.6748" lon="3.39625">
        <ele>693.8</ele>
        <time>2025-09-14T07:17:10Z</time>
      </trkpt>
      <trkpt lat="45.67479" lon="3.39629">
        <ele>693.8</ele>
        <time>2025-09-14T07:17:11Z</time>
      </trkpt>
      <trkpt lat="45.67477" lon="3.39632">
        <ele>694</ele>
        <time>2025-09-14T07:17:12Z</time>
      </trkpt>
      <trkpt lat="45.67476" lon="3.39636">
        <ele>693.8</ele>
        <time>2025-09-14T07:17:13Z</time>
      </trkpt>
      <trkpt lat="45.67474" lon="3.3964">
        <ele>693.8</ele>
        <time>2025-09-14T07:17:14Z</time>
      </trkpt>
      <trkpt lat="45.67472" lon="3.39645">
        <ele>693.6</ele>
        <time>2025-09-14T07:17:15Z</time>
      </trkpt>
      <trkpt lat="45.6747" lon="3.39649">
        <ele>693.4</ele>
        <time>2025-09-14T07:17:16Z</time>
      </trkpt>
      <trkpt lat="45.67468" lon="3.39655">
        <ele>693.4</ele>
        <time>2025-09-14T07:17:17Z</time>
      </trkpt>
      <trkpt lat="45.67467" lon="3.39661">
        <ele>693.2</ele>
        <time>2025-09-14T07:17:18Z</time>
      </trkpt>
      <trkpt lat="45.67466" lon="3.39667">
        <ele>693</ele>
        <time>2025-09-14T07:17:19Z</time>
      </trkpt>
      <trkpt lat="45.67465" lon="3.39672">
        <ele>692.8</ele>
        <time>2025-09-14T07:17:20Z</time>
      </trkpt>
      <trkpt lat="45.67464" lon="3.39678">
        <ele>692.4</ele>
        <time>2025-09-14T07:17:21Z</time>
      </trkpt>
      <trkpt lat="45.67464" lon="3.39683">
        <ele>692.2</ele>
        <time>2025-09-14T07:17:22Z</time>
      </trkpt>
      <trkpt lat="45.67464" lon="3.39687">
        <ele>691.6</ele>
        <time>2025-09-14T07:17:23Z</time>
      </trkpt>
      <trkpt lat="45.67464" lon="3.39692">
        <ele>691.2</ele>
        <time>2025-09-14T07:17:24Z</time>
      </trkpt>
      <trkpt lat="45.67463" lon="3.39696">
        <ele>691</ele>
        <time>2025-09-14T07:17:25Z</time>
      </trkpt>
      <trkpt lat="45.67463" lon="3.39701">
        <ele>690.6</ele>
        <time>2025-09-14T07:17:26Z</time>
      </trkpt>
      <trkpt lat="45.67463" lon="3.39705">
        <ele>690.2</ele>
        <time>2025-09-14T07:17:27Z</time>
      </trkpt>
      <trkpt lat="45.67464" lon="3.39708">
        <ele>689.8</ele>
        <time>2025-09-14T07:17:28Z</time>
      </trkpt>
      <trkpt lat="45.67464" lon="3.39711">
        <ele>689.2</ele>
        <time>2025-09-14T07:17:29Z</time>
      </trkpt>
      <trkpt lat="45.67463" lon="3.39714">
        <ele>688.6</ele>
        <time>2025-09-14T07:17:30Z</time>
      </trkpt>
      <trkpt lat="45.67463" lon="3.39718">
        <ele>688.2</ele>
        <time>2025-09-14T07:17:31Z</time>
      </trkpt>
      <trkpt lat="45.67464" lon="3.39721">
        <ele>687.8</ele>
        <time>2025-09-14T07:17:32Z</time>
      </trkpt>
      <trkpt lat="45.67466" lon="3.39725">
        <ele>687.4</ele>
        <time>2025-09-14T07:17:33Z</time>
      </trkpt>
      <trkpt lat="45.67469" lon="3.39729">
        <ele>687.2</ele>
        <time>2025-09-14T07:17:34Z</time>
      </trkpt>
      <trkpt lat="45.67472" lon="3.39733">
        <ele>686.8</ele>
        <time>2025-09-14T07:17:35Z</time>
      </trkpt>
      <trkpt lat="45.67474" lon="3.39738">
        <ele>686.4</ele>
        <time>2025-09-14T07:17:36Z</time>
      </trkpt>
      <trkpt lat="45.67478" lon="3.39744">
        <ele>686</ele>
        <time>2025-09-14T07:17:37Z</time>
      </trkpt>
      <trkpt lat="45.67482" lon="3.39751">
        <ele>685.6</ele>
        <time>2025-09-14T07:17:38Z</time>
      </trkpt>
      <trkpt lat="45.67485" lon="3.39758">
        <ele>685.2</ele>
        <time>2025-09-14T07:17:39Z</time>
      </trkpt>
      <trkpt lat="45.67488" lon="3.39765">
        <ele>684.8</ele>
        <time>2025-09-14T07:17:40Z</time>
      </trkpt>
      <trkpt lat="45.67491" lon="3.39773">
        <ele>684.6</ele>
        <time>2025-09-14T07:17:41Z</time>
      </trkpt>
      <trkpt lat="45.67493" lon="3.3978">
        <ele>684.2</ele>
        <time>2025-09-14T07:17:42Z</time>
      </trkpt>
      <trkpt lat="45.67495" lon="3.39786">
        <ele>683.8</ele>
        <time>2025-09-14T07:17:43Z</time>
      </trkpt>
      <trkpt lat="45.67498" lon="3.39792">
        <ele>683.4</ele>
        <time>2025-09-14T07:17:44Z</time>
      </trkpt>
      <trkpt lat="45.67501" lon="3.39798">
        <ele>683.2</ele>
        <time>2025-09-14T07:17:45Z</time>
      </trkpt>
      <trkpt lat="45.67504" lon="3.39803">
        <ele>683</ele>
        <time>2025-09-14T07:17:46Z</time>
      </trkpt>
      <trkpt lat="45.67507" lon="3.39809">
        <ele>682.8</ele>
        <time>2025-09-14T07:17:47Z</time>
      </trkpt>
      <trkpt lat="45.67509" lon="3.39814">
        <ele>682.6</ele>
        <time>2025-09-14T07:17:48Z</time>
      </trkpt>
      <trkpt lat="45.67512" lon="3.39818">
        <ele>682.4</ele>
        <time>2025-09-14T07:17:49Z</time>
      </trkpt>
      <trkpt lat="45.67514" lon="3.39823">
        <ele>682</ele>
        <time>2025-09-14T07:17:50Z</time>
      </trkpt>
      <trkpt lat="45.67516" lon="3.39827">
        <ele>681.8</ele>
        <time>2025-09-14T07:17:51Z</time>
      </trkpt>
      <trkpt lat="45.67518" lon="3.39832">
        <ele>681.6</ele>
        <time>2025-09-14T07:17:52Z</time>
      </trkpt>
      <trkpt lat="45.67521" lon="3.39836">
        <ele>681</ele>
        <time>2025-09-14T07:17:53Z</time>
      </trkpt>
      <trkpt lat="45.67524" lon="3.39841">
        <ele>680.8</ele>
        <time>2025-09-14T07:17:54Z</time>
      </trkpt>
      <trkpt lat="45.67526" lon="3.39847">
        <ele>680.4</ele>
        <time>2025-09-14T07:17:55Z</time>
      </trkpt>
      <trkpt lat="45.6753" lon="3.39852">
        <ele>680</ele>
        <time>2025-09-14T07:17:56Z</time>
      </trkpt>
      <trkpt lat="45.67535" lon="3.39857">
        <ele>679.8</ele>
        <time>2025-09-14T07:17:57Z</time>
      </trkpt>
      <trkpt lat="45.67539" lon="3.39861">
        <ele>679.4</ele>
        <time>2025-09-14T07:17:58Z</time>
      </trkpt>
      <trkpt lat="45.67543" lon="3.39865">
        <ele>679.2</ele>
        <time>2025-09-14T07:17:59Z</time>
      </trkpt>
      <trkpt lat="45.67547" lon="3.39869">
        <ele>678.8</ele>
        <time>2025-09-14T07:18:00Z</time>
      </trkpt>
      <trkpt lat="45.67552" lon="3.39873">
        <ele>678.4</ele>
        <time>2025-09-14T07:18:01Z</time>
      </trkpt>
      <trkpt lat="45.67557" lon="3.39877">
        <ele>678</ele>
        <time>2025-09-14T07:18:02Z</time>
      </trkpt>
      <trkpt lat="45.6756" lon="3.3988">
        <ele>677.8</ele>
        <time>2025-09-14T07:18:03Z</time>
      </trkpt>
      <trkpt lat="45.67563" lon="3.39883">
        <ele>677.4</ele>
        <time>2025-09-14T07:18:04Z</time>
      </trkpt>
      <trkpt lat="45.67566" lon="3.39886">
        <ele>677.2</ele>
        <time>2025-09-14T07:18:05Z</time>
      </trkpt>
      <trkpt lat="45.67569" lon="3.39889">
        <ele>677.2</ele>
        <time>2025-09-14T07:18:06Z</time>
      </trkpt>
      <trkpt lat="45.67572" lon="3.39892">
        <ele>677</ele>
        <time>2025-09-14T07:18:07Z</time>
      </trkpt>
      <trkpt lat="45.67575" lon="3.39895">
        <ele>677</ele>
        <time>2025-09-14T07:18:08Z</time>
      </trkpt>
      <trkpt lat="45.67577" lon="3.39898">
        <ele>676.8</ele>
        <time>2025-09-14T07:18:09Z</time>
      </trkpt>
      <trkpt lat="45.6758" lon="3.39902">
        <ele>676.8</ele>
        <time>2025-09-14T07:18:10Z</time>
      </trkpt>
      <trkpt lat="45.67581" lon="3.39907">
        <ele>677</ele>
        <time>2025-09-14T07:18:11Z</time>
      </trkpt>
      <trkpt lat="45.67582" lon="3.39913">
        <ele>677</ele>
        <time>2025-09-14T07:18:12Z</time>
      </trkpt>
      <trkpt lat="45.67582" lon="3.39918">
        <ele>677</ele>
        <time>2025-09-14T07:18:13Z</time>
      </trkpt>
      <trkpt lat="45.67582" lon="3.39922">
        <ele>677</ele>
        <time>2025-09-14T07:18:14Z</time>
      </trkpt>
      <trkpt lat="45.67582" lon="3.39925">
        <ele>677</ele>
        <time>2025-09-14T07:18:15Z</time>
      </trkpt>
      <trkpt lat="45.67583" lon="3.39929">
        <ele>677.2</ele>
        <time>2025-09-14T07:18:16Z</time>
      </trkpt>
      <trkpt lat="45.67583" lon="3.39934">
        <ele>677.2</ele>
        <time>2025-09-14T07:18:17Z</time>
      </trkpt>
      <trkpt lat="45.67584" lon="3.39939">
        <ele>677.4</ele>
        <time>2025-09-14T07:18:18Z</time>
      </trkpt>
      <trkpt lat="45.67585" lon="3.39944">
        <ele>677.4</ele>
        <time>2025-09-14T07:18:19Z</time>
      </trkpt>
      <trkpt lat="45.67585" lon="3.39948">
        <ele>677.4</ele>
        <time>2025-09-14T07:18:20Z</time>
      </trkpt>
      <trkpt lat="45.67585" lon="3.39951">
        <ele>677.4</ele>
        <time>2025-09-14T07:18:21Z</time>
      </trkpt>
      <trkpt lat="45.67584" lon="3.39954">
        <ele>677.4</ele>
        <time>2025-09-14T07:18:22Z</time>
      </trkpt>
      <trkpt lat="45.67582" lon="3.39957">
        <ele>677.6</ele>
        <time>2025-09-14T07:18:23Z</time>
      </trkpt>
      <trkpt lat="45.67579" lon="3.39961">
        <ele>678</ele>
        <time>2025-09-14T07:18:24Z</time>
      </trkpt>
      <trkpt lat="45.67577" lon="3.39967">
        <ele>678.2</ele>
        <time>2025-09-14T07:18:25Z</time>
      </trkpt>
      <trkpt lat="45.67575" lon="3.39971">
        <ele>678.6</ele>
        <time>2025-09-14T07:18:26Z</time>
      </trkpt>
      <trkpt lat="45.67574" lon="3.39976">
        <ele>678.8</ele>
        <time>2025-09-14T07:18:27Z</time>
      </trkpt>
      <trkpt lat="45.67573" lon="3.39981">
        <ele>678.8</ele>
        <time>2025-09-14T07:18:28Z</time>
      </trkpt>
      <trkpt lat="45.67573" lon="3.39984">
        <ele>679</ele>
        <time>2025-09-14T07:18:29Z</time>
      </trkpt>
      <trkpt lat="45.67573" lon="3.39988">
        <ele>679.4</ele>
        <time>2025-09-14T07:18:30Z</time>
      </trkpt>
      <trkpt lat="45.67573" lon="3.39991">
        <ele>679.4</ele>
        <time>2025-09-14T07:18:31Z</time>
      </trkpt>
      <trkpt lat="45.67572" lon="3.39993">
        <ele>679.6</ele>
        <time>2025-09-14T07:18:32Z</time>
      </trkpt>
      <trkpt lat="45.67572" lon="3.39995">
        <ele>679.8</ele>
        <time>2025-09-14T07:18:33Z</time>
      </trkpt>
      <trkpt lat="45.67573" lon="3.39998">
        <ele>680</ele>
        <time>2025-09-14T07:18:34Z</time>
      </trkpt>
      <trkpt lat="45.67572" lon="3.40001">
        <ele>680.2</ele>
        <time>2025-09-14T07:18:35Z</time>
      </trkpt>
      <trkpt lat="45.67572" lon="3.40004">
        <ele>680.4</ele>
        <time>2025-09-14T07:18:36Z</time>
      </trkpt>
      <trkpt lat="45.67572" lon="3.40007">
        <ele>680.6</ele>
        <time>2025-09-14T07:18:37Z</time>
      </trkpt>
      <trkpt lat="45.67572" lon="3.4001">
        <ele>681</ele>
        <time>2025-09-14T07:18:38Z</time>
      </trkpt>
      <trkpt lat="45.67571" lon="3.40013">
        <ele>681.4</ele>
        <time>2025-09-14T07:18:39Z</time>
      </trkpt>
      <trkpt lat="45.6757" lon="3.40017">
        <ele>681.8</ele>
        <time>2025-09-14T07:18:40Z</time>
      </trkpt>
      <trkpt lat="45.67569" lon="3.4002">
        <ele>682</ele>
        <time>2025-09-14T07:18:41Z</time>
      </trkpt>
      <trkpt lat="45.67569" lon="3.40024">
        <ele>682.2</ele>
        <time>2025-09-14T07:18:42Z</time>
      </trkpt>
      <trkpt lat="45.67568" lon="3.40027">
        <ele>682.6</ele>
        <time>2025-09-14T07:18:43Z</time>
      </trkpt>
      <trkpt lat="45.67567" lon="3.40031">
        <ele>682.8</ele>
        <time>2025-09-14T07:18:44Z</time>
      </trkpt>
      <trkpt lat="45.67567" lon="3.40034">
        <ele>683.2</ele>
        <time>2025-09-14T07:18:45Z</time>
      </trkpt>
      <trkpt lat="45.67567" lon="3.40037">
        <ele>683.6</ele>
        <time>2025-09-14T07:18:46Z</time>
      </trkpt>
      <trkpt lat="45.67567" lon="3.40041">
        <ele>683.8</ele>
        <time>2025-09-14T07:18:47Z</time>
      </trkpt>
      <trkpt lat="45.67566" lon="3.40043">
        <ele>683.8</ele>
        <time>2025-09-14T07:18:48Z</time>
      </trkpt>
      <trkpt lat="45.67565" lon="3.40046">
        <ele>684</ele>
        <time>2025-09-14T07:18:49Z</time>
      </trkpt>
      <trkpt lat="45.67564" lon="3.40049">
        <ele>684.2</ele>
        <time>2025-09-14T07:18:50Z</time>
      </trkpt>
      <trkpt lat="45.67562" lon="3.40052">
        <ele>684.2</ele>
        <time>2025-09-14T07:18:51Z</time>
      </trkpt>
      <trkpt lat="45.67561" lon="3.40055">
        <ele>684.4</ele>
        <time>2025-09-14T07:18:52Z</time>
      </trkpt>
      <trkpt lat="45.67559" lon="3.40058">
        <ele>684.6</ele>
        <time>2025-09-14T07:18:53Z</time>
      </trkpt>
      <trkpt lat="45.67557" lon="3.40062">
        <ele>684.6</ele>
        <time>2025-09-14T07:18:54Z</time>
      </trkpt>
      <trkpt lat="45.67555" lon="3.40066">
        <ele>684.8</ele>
        <time>2025-09-14T07:18:55Z</time>
      </trkpt>
      <trkpt lat="45.67553" lon="3.4007">
        <ele>684.8</ele>
        <time>2025-09-14T07:18:56Z</time>
      </trkpt>
      <trkpt lat="45.6755" lon="3.40073">
        <ele>684.8</ele>
        <time>2025-09-14T07:18:57Z</time>
      </trkpt>
      <trkpt lat="45.67547" lon="3.40077">
        <ele>685</ele>
        <time>2025-09-14T07:18:58Z</time>
      </trkpt>
      <trkpt lat="45.67544" lon="3.40081">
        <ele>685</ele>
        <time>2025-09-14T07:18:59Z</time>
      </trkpt>
      <trkpt lat="45.67541" lon="3.40086">
        <ele>685</ele>
        <time>2025-09-14T07:19:00Z</time>
      </trkpt>
      <trkpt lat="45.67539" lon="3.40089">
        <ele>685.2</ele>
        <time>2025-09-14T07:19:01Z</time>
      </trkpt>
      <trkpt lat="45.67536" lon="3.40093">
        <ele>685.2</ele>
        <time>2025-09-14T07:19:02Z</time>
      </trkpt>
      <trkpt lat="45.67533" lon="3.40098">
        <ele>685.2</ele>
        <time>2025-09-14T07:19:03Z</time>
      </trkpt>
      <trkpt lat="45.6753" lon="3.40102">
        <ele>685.4</ele>
        <time>2025-09-14T07:19:04Z</time>
      </trkpt>
      <trkpt lat="45.67528" lon="3.40106">
        <ele>685.4</ele>
        <time>2025-09-14T07:19:05Z</time>
      </trkpt>
      <trkpt lat="45.67526" lon="3.40111">
        <ele>685.4</ele>
        <time>2025-09-14T07:19:06Z</time>
      </trkpt>
      <trkpt lat="45.67525" lon="3.40116">
        <ele>685.4</ele>
        <time>2025-09-14T07:19:07Z</time>
      </trkpt>
      <trkpt lat="45.67525" lon="3.40123">
        <ele>685.4</ele>
        <time>2025-09-14T07:19:08Z</time>
      </trkpt>
      <trkpt lat="45.67525" lon="3.4013">
        <ele>685.2</ele>
        <time>2025-09-14T07:19:09Z</time>
      </trkpt>
      <trkpt lat="45.67527" lon="3.40138">
        <ele>685.2</ele>
        <time>2025-09-14T07:19:10Z</time>
      </trkpt>
      <trkpt lat="45.67529" lon="3.40145">
        <ele>685</ele>
        <time>2025-09-14T07:19:11Z</time>
      </trkpt>
      <trkpt lat="45.67533" lon="3.40151">
        <ele>684.6</ele>
        <time>2025-09-14T07:19:12Z</time>
      </trkpt>
      <trkpt lat="45.67538" lon="3.40158">
        <ele>684.4</ele>
        <time>2025-09-14T07:19:13Z</time>
      </trkpt>
      <trkpt lat="45.67542" lon="3.40164">
        <ele>684.2</ele>
        <time>2025-09-14T07:19:14Z</time>
      </trkpt>
      <trkpt lat="45.67546" lon="3.40172">
        <ele>684</ele>
        <time>2025-09-14T07:19:15Z</time>
      </trkpt>
      <trkpt lat="45.6755" lon="3.40179">
        <ele>683.8</ele>
        <time>2025-09-14T07:19:16Z</time>
      </trkpt>
      <trkpt lat="45.67552" lon="3.40187">
        <ele>683.4</ele>
        <time>2025-09-14T07:19:17Z</time>
      </trkpt>
      <trkpt lat="45.67553" lon="3.40197">
        <ele>683</ele>
        <time>2025-09-14T07:19:18Z</time>
      </trkpt>
      <trkpt lat="45.67552" lon="3.40207">
        <ele>682.6</ele>
        <time>2025-09-14T07:19:19Z</time>
      </trkpt>
      <trkpt lat="45.67549" lon="3.40217">
        <ele>682.2</ele>
        <time>2025-09-14T07:19:20Z</time>
      </trkpt>
      <trkpt lat="45.67545" lon="3.40227">
        <ele>681.8</ele>
        <time>2025-09-14T07:19:21Z</time>
      </trkpt>
      <trkpt lat="45.67541" lon="3.40236">
        <ele>681.6</ele>
        <time>2025-09-14T07:19:22Z</time>
      </trkpt>
      <trkpt lat="45.67538" lon="3.40246">
        <ele>681.4</ele>
        <time>2025-09-14T07:19:23Z</time>
      </trkpt>
      <trkpt lat="45.67536" lon="3.40255">
        <ele>681</ele>
        <time>2025-09-14T07:19:24Z</time>
      </trkpt>
      <trkpt lat="45.67534" lon="3.40265">
        <ele>680.8</ele>
        <time>2025-09-14T07:19:25Z</time>
      </trkpt>
      <trkpt lat="45.67533" lon="3.40275">
        <ele>680.4</ele>
        <time>2025-09-14T07:19:26Z</time>
      </trkpt>
      <trkpt lat="45.67532" lon="3.40285">
        <ele>680</ele>
        <time>2025-09-14T07:19:27Z</time>
      </trkpt>
      <trkpt lat="45.67531" lon="3.40296">
        <ele>679.6</ele>
        <time>2025-09-14T07:19:28Z</time>
      </trkpt>
      <trkpt lat="45.67531" lon="3.40306">
        <ele>679.4</ele>
        <time>2025-09-14T07:19:29Z</time>
      </trkpt>
      <trkpt lat="45.6753" lon="3.40317">
        <ele>679.2</ele>
        <time>2025-09-14T07:19:30Z</time>
      </trkpt>
      <trkpt lat="45.6753" lon="3.40327">
        <ele>678.8</ele>
        <time>2025-09-14T07:19:31Z</time>
      </trkpt>
      <trkpt lat="45.6753" lon="3.40337">
        <ele>678.4</ele>
        <time>2025-09-14T07:19:32Z</time>
      </trkpt>
      <trkpt lat="45.6753" lon="3.40348">
        <ele>678.2</ele>
        <time>2025-09-14T07:19:33Z</time>
      </trkpt>
      <trkpt lat="45.6753" lon="3.40359">
        <ele>677.8</ele>
        <time>2025-09-14T07:19:34Z</time>
      </trkpt>
      <trkpt lat="45.67532" lon="3.4037">
        <ele>677.6</ele>
        <time>2025-09-14T07:19:35Z</time>
      </trkpt>
      <trkpt lat="45.67534" lon="3.4038">
        <ele>677.2</ele>
        <time>2025-09-14T07:19:36Z</time>
      </trkpt>
      <trkpt lat="45.67537" lon="3.40391">
        <ele>676.8</ele>
        <time>2025-09-14T07:19:37Z</time>
      </trkpt>
      <trkpt lat="45.6754" lon="3.40402">
        <ele>676.4</ele>
        <time>2025-09-14T07:19:38Z</time>
      </trkpt>
      <trkpt lat="45.67542" lon="3.40414">
        <ele>676</ele>
        <time>2025-09-14T07:19:39Z</time>
      </trkpt>
      <trkpt lat="45.67542" lon="3.40425">
        <ele>675.8</ele>
        <time>2025-09-14T07:19:40Z</time>
      </trkpt>
      <trkpt lat="45.67541" lon="3.40435">
        <ele>675.6</ele>
        <time>2025-09-14T07:19:41Z</time>
      </trkpt>
      <trkpt lat="45.67539" lon="3.40444">
        <ele>675.6</ele>
        <time>2025-09-14T07:19:42Z</time>
      </trkpt>
      <trkpt lat="45.67538" lon="3.40453">
        <ele>675.4</ele>
        <time>2025-09-14T07:19:43Z</time>
      </trkpt>
      <trkpt lat="45.67537" lon="3.40462">
        <ele>675.4</ele>
        <time>2025-09-14T07:19:44Z</time>
      </trkpt>
      <trkpt lat="45.67536" lon="3.40471">
        <ele>675.4</ele>
        <time>2025-09-14T07:19:45Z</time>
      </trkpt>
      <trkpt lat="45.67534" lon="3.40479">
        <ele>675.2</ele>
        <time>2025-09-14T07:19:46Z</time>
      </trkpt>
      <trkpt lat="45.67533" lon="3.40488">
        <ele>675</ele>
        <time>2025-09-14T07:19:47Z</time>
      </trkpt>
      <trkpt lat="45.67532" lon="3.40497">
        <ele>675</ele>
        <time>2025-09-14T07:19:48Z</time>
      </trkpt>
      <trkpt lat="45.6753" lon="3.40507">
        <ele>674.8</ele>
        <time>2025-09-14T07:19:49Z</time>
      </trkpt>
      <trkpt lat="45.67528" lon="3.40516">
        <ele>674.6</ele>
        <time>2025-09-14T07:19:50Z</time>
      </trkpt>
      <trkpt lat="45.67527" lon="3.40526">
        <ele>674.6</ele>
        <time>2025-09-14T07:19:51Z</time>
      </trkpt>
      <trkpt lat="45.67526" lon="3.40536">
        <ele>674.4</ele>
        <time>2025-09-14T07:19:52Z</time>
      </trkpt>
      <trkpt lat="45.67525" lon="3.40546">
        <ele>674.2</ele>
        <time>2025-09-14T07:19:53Z</time>
      </trkpt>
      <trkpt lat="45.67524" lon="3.40556">
        <ele>674</ele>
        <time>2025-09-14T07:19:54Z</time>
      </trkpt>
      <trkpt lat="45.67523" lon="3.40566">
        <ele>673.8</ele>
        <time>2025-09-14T07:19:55Z</time>
      </trkpt>
      <trkpt lat="45.67522" lon="3.40576">
        <ele>673.6</ele>
        <time>2025-09-14T07:19:56Z</time>
      </trkpt>
      <trkpt lat="45.67521" lon="3.40587">
        <ele>673.2</ele>
        <time>2025-09-14T07:19:57Z</time>
      </trkpt>
      <trkpt lat="45.67521" lon="3.40597">
        <ele>673</ele>
        <time>2025-09-14T07:19:58Z</time>
      </trkpt>
      <trkpt lat="45.67522" lon="3.40607">
        <ele>672.8</ele>
        <time>2025-09-14T07:19:59Z</time>
      </trkpt>
      <trkpt lat="45.67524" lon="3.40617">
        <ele>672.4</ele>
        <time>2025-09-14T07:20:00Z</time>
      </trkpt>
      <trkpt lat="45.67527" lon="3.40627">
        <ele>672.2</ele>
        <time>2025-09-14T07:20:01Z</time>
      </trkpt>
      <trkpt lat="45.6753" lon="3.40636">
        <ele>671.8</ele>
        <time>2025-09-14T07:20:02Z</time>
      </trkpt>
      <trkpt lat="45.67534" lon="3.40644">
        <ele>671.6</ele>
        <time>2025-09-14T07:20:03Z</time>
      </trkpt>
      <trkpt lat="45.67538" lon="3.40653">
        <ele>671.2</ele>
        <time>2025-09-14T07:20:04Z</time>
      </trkpt>
      <trkpt lat="45.67542" lon="3.40662">
        <ele>671</ele>
        <time>2025-09-14T07:20:05Z</time>
      </trkpt>
      <trkpt lat="45.67546" lon="3.4067">
        <ele>670.8</ele>
        <time>2025-09-14T07:20:06Z</time>
      </trkpt>
      <trkpt lat="45.6755" lon="3.40679">
        <ele>670.6</ele>
        <time>2025-09-14T07:20:07Z</time>
      </trkpt>
      <trkpt lat="45.67553" lon="3.40687">
        <ele>670.4</ele>
        <time>2025-09-14T07:20:08Z</time>
      </trkpt>
      <trkpt lat="45.67555" lon="3.40697">
        <ele>670.2</ele>
        <time>2025-09-14T07:20:09Z</time>
      </trkpt>
      <trkpt lat="45.67557" lon="3.40707">
        <ele>670</ele>
        <time>2025-09-14T07:20:10Z</time>
      </trkpt>
      <trkpt lat="45.67559" lon="3.40715">
        <ele>669.8</ele>
        <time>2025-09-14T07:20:11Z</time>
      </trkpt>
      <trkpt lat="45.67559" lon="3.40724">
        <ele>669.6</ele>
        <time>2025-09-14T07:20:12Z</time>
      </trkpt>
      <trkpt lat="45.67558" lon="3.40733">
        <ele>669.4</ele>
        <time>2025-09-14T07:20:13Z</time>
      </trkpt>
      <trkpt lat="45.67556" lon="3.40742">
        <ele>669.4</ele>
        <time>2025-09-14T07:20:14Z</time>
      </trkpt>
      <trkpt lat="45.67553" lon="3.4075">
        <ele>669.2</ele>
        <time>2025-09-14T07:20:15Z</time>
      </trkpt>
      <trkpt lat="45.67552" lon="3.40755">
        <ele>669</ele>
        <time>2025-09-14T07:20:16Z</time>
      </trkpt>
      <trkpt lat="45.67551" lon="3.40759">
        <ele>668.8</ele>
        <time>2025-09-14T07:20:17Z</time>
      </trkpt>
      <trkpt lat="45.67551" lon="3.40761">
        <ele>668.6</ele>
        <time>2025-09-14T07:20:18Z</time>
      </trkpt>
      <trkpt lat="45.67551" lon="3.40765">
        <ele>668.4</ele>
        <time>2025-09-14T07:20:19Z</time>
      </trkpt>
      <trkpt lat="45.67551" lon="3.40768">
        <ele>668.4</ele>
        <time>2025-09-14T07:20:20Z</time>
      </trkpt>
      <trkpt lat="45.6755" lon="3.40771">
        <ele>668.2</ele>
        <time>2025-09-14T07:20:21Z</time>
      </trkpt>
      <trkpt lat="45.67549" lon="3.40773">
        <ele>668.2</ele>
        <time>2025-09-14T07:20:22Z</time>
      </trkpt>
      <trkpt lat="45.67549" lon="3.40775">
        <ele>668</ele>
        <time>2025-09-14T07:20:23Z</time>
      </trkpt>
      <trkpt lat="45.67548" lon="3.40778">
        <ele>667.8</ele>
        <time>2025-09-14T07:20:24Z</time>
      </trkpt>
      <trkpt lat="45.67547" lon="3.4078">
        <ele>667.6</ele>
        <time>2025-09-14T07:20:25Z</time>
      </trkpt>
      <trkpt lat="45.67545" lon="3.40782">
        <ele>667.6</ele>
        <time>2025-09-14T07:20:26Z</time>
      </trkpt>
      <trkpt lat="45.67545" lon="3.40785">
        <ele>667.4</ele>
        <time>2025-09-14T07:20:27Z</time>
      </trkpt>
      <trkpt lat="45.67544" lon="3.40789">
        <ele>667.2</ele>
        <time>2025-09-14T07:20:28Z</time>
      </trkpt>
      <trkpt lat="45.67543" lon="3.40793">
        <ele>667</ele>
        <time>2025-09-14T07:20:29Z</time>
      </trkpt>
      <trkpt lat="45.67543" lon="3.40797">
        <ele>666.6</ele>
        <time>2025-09-14T07:20:30Z</time>
      </trkpt>
      <trkpt lat="45.67543" lon="3.40801">
        <ele>666.2</ele>
        <time>2025-09-14T07:20:31Z</time>
      </trkpt>
      <trkpt lat="45.67543" lon="3.40803">
        <ele>666.2</ele>
        <time>2025-09-14T07:20:32Z</time>
      </trkpt>
      <trkpt lat="45.67542" lon="3.40805">
        <ele>666.2</ele>
        <time>2025-09-14T07:20:33Z</time>
      </trkpt>
      <trkpt lat="45.67541" lon="3.40807">
        <ele>666</ele>
        <time>2025-09-14T07:20:34Z</time>
      </trkpt>
      <trkpt lat="45.6754" lon="3.40809">
        <ele>665.6</ele>
        <time>2025-09-14T07:20:35Z</time>
      </trkpt>
      <trkpt lat="45.6754" lon="3.40812">
        <ele>665.4</ele>
        <time>2025-09-14T07:20:36Z</time>
      </trkpt>
      <trkpt lat="45.67541" lon="3.40816">
        <ele>665.4</ele>
        <time>2025-09-14T07:20:37Z</time>
      </trkpt>
      <trkpt lat="45.67542" lon="3.4082">
        <ele>665.4</ele>
        <time>2025-09-14T07:20:38Z</time>
      </trkpt>
      <trkpt lat="45.67543" lon="3.40825">
        <ele>665.4</ele>
        <time>2025-09-14T07:20:39Z</time>
      </trkpt>
      <trkpt lat="45.67545" lon="3.40828">
        <ele>665</ele>
        <time>2025-09-14T07:20:40Z</time>
      </trkpt>
      <trkpt lat="45.67547" lon="3.40834">
        <ele>664.8</ele>
        <time>2025-09-14T07:20:41Z</time>
      </trkpt>
      <trkpt lat="45.67548" lon="3.4084">
        <ele>664.6</ele>
        <time>2025-09-14T07:20:42Z</time>
      </trkpt>
      <trkpt lat="45.67548" lon="3.40847">
        <ele>664.2</ele>
        <time>2025-09-14T07:20:43Z</time>
      </trkpt>
      <trkpt lat="45.67548" lon="3.40854">
        <ele>663.8</ele>
        <time>2025-09-14T07:20:44Z</time>
      </trkpt>
      <trkpt lat="45.67547" lon="3.40861">
        <ele>663.2</ele>
        <time>2025-09-14T07:20:45Z</time>
      </trkpt>
      <trkpt lat="45.67547" lon="3.40867">
        <ele>662.8</ele>
        <time>2025-09-14T07:20:46Z</time>
      </trkpt>
      <trkpt lat="45.67549" lon="3.40871">
        <ele>662.4</ele>
        <time>2025-09-14T07:20:47Z</time>
      </trkpt>
      <trkpt lat="45.67552" lon="3.40875">
        <ele>662.2</ele>
        <time>2025-09-14T07:20:48Z</time>
      </trkpt>
      <trkpt lat="45.67555" lon="3.40878">
        <ele>662</ele>
        <time>2025-09-14T07:20:49Z</time>
      </trkpt>
      <trkpt lat="45.67556" lon="3.40883">
        <ele>661.6</ele>
        <time>2025-09-14T07:20:50Z</time>
      </trkpt>
      <trkpt lat="45.67554" lon="3.40892">
        <ele>661</ele>
        <time>2025-09-14T07:20:51Z</time>
      </trkpt>
      <trkpt lat="45.67552" lon="3.40901">
        <ele>660.6</ele>
        <time>2025-09-14T07:20:52Z</time>
      </trkpt>
      <trkpt lat="45.67552" lon="3.4091">
        <ele>660.2</ele>
        <time>2025-09-14T07:20:53Z</time>
      </trkpt>
      <trkpt lat="45.67553" lon="3.40916">
        <ele>660</ele>
        <time>2025-09-14T07:20:54Z</time>
      </trkpt>
      <trkpt lat="45.67554" lon="3.40921">
        <ele>659.6</ele>
        <time>2025-09-14T07:20:55Z</time>
      </trkpt>
      <trkpt lat="45.67555" lon="3.40925">
        <ele>659.6</ele>
        <time>2025-09-14T07:20:56Z</time>
      </trkpt>
      <trkpt lat="45.67557" lon="3.40929">
        <ele>659.2</ele>
        <time>2025-09-14T07:20:57Z</time>
      </trkpt>
      <trkpt lat="45.67558" lon="3.40933">
        <ele>659</ele>
        <time>2025-09-14T07:20:58Z</time>
      </trkpt>
      <trkpt lat="45.67558" lon="3.40938">
        <ele>658.6</ele>
        <time>2025-09-14T07:20:59Z</time>
      </trkpt>
      <trkpt lat="45.67558" lon="3.40943">
        <ele>658.4</ele>
        <time>2025-09-14T07:21:00Z</time>
      </trkpt>
      <trkpt lat="45.67559" lon="3.40948">
        <ele>658.2</ele>
        <time>2025-09-14T07:21:01Z</time>
      </trkpt>
      <trkpt lat="45.6756" lon="3.40953">
        <ele>658</ele>
        <time>2025-09-14T07:21:02Z</time>
      </trkpt>
      <trkpt lat="45.67562" lon="3.40958">
        <ele>657.6</ele>
        <time>2025-09-14T07:21:03Z</time>
      </trkpt>
      <trkpt lat="45.67563" lon="3.40963">
        <ele>657.4</ele>
        <time>2025-09-14T07:21:04Z</time>
      </trkpt>
      <trkpt lat="45.67565" lon="3.40967">
        <ele>657.2</ele>
        <time>2025-09-14T07:21:05Z</time>
      </trkpt>
      <trkpt lat="45.67566" lon="3.40972">
        <ele>657</ele>
        <time>2025-09-14T07:21:06Z</time>
      </trkpt>
      <trkpt lat="45.67566" lon="3.40976">
        <ele>657</ele>
        <time>2025-09-14T07:21:07Z</time>
      </trkpt>
      <trkpt lat="45.67566" lon="3.4098">
        <ele>656.8</ele>
        <time>2025-09-14T07:21:08Z</time>
      </trkpt>
      <trkpt lat="45.67566" lon="3.40985">
        <ele>656.8</ele>
        <time>2025-09-14T07:21:09Z</time>
      </trkpt>
      <trkpt lat="45.67567" lon="3.40991">
        <ele>656.6</ele>
        <time>2025-09-14T07:21:10Z</time>
      </trkpt>
      <trkpt lat="45.67568" lon="3.40996">
        <ele>656.6</ele>
        <time>2025-09-14T07:21:11Z</time>
      </trkpt>
      <trkpt lat="45.67571" lon="3.41003">
        <ele>656.6</ele>
        <time>2025-09-14T07:21:12Z</time>
      </trkpt>
      <trkpt lat="45.67574" lon="3.4101">
        <ele>656.4</ele>
        <time>2025-09-14T07:21:13Z</time>
      </trkpt>
      <trkpt lat="45.67577" lon="3.41018">
        <ele>656.4</ele>
        <time>2025-09-14T07:21:14Z</time>
      </trkpt>
      <trkpt lat="45.6758" lon="3.41023">
        <ele>656.4</ele>
        <time>2025-09-14T07:21:15Z</time>
      </trkpt>
      <trkpt lat="45.67583" lon="3.41028">
        <ele>656</ele>
        <time>2025-09-14T07:21:16Z</time>
      </trkpt>
      <trkpt lat="45.67584" lon="3.41031">
        <ele>656</ele>
        <time>2025-09-14T07:21:17Z</time>
      </trkpt>
      <trkpt lat="45.67586" lon="3.41035">
        <ele>655.8</ele>
        <time>2025-09-14T07:21:18Z</time>
      </trkpt>
      <trkpt lat="45.67587" lon="3.41039">
        <ele>655.8</ele>
        <time>2025-09-14T07:21:19Z</time>
      </trkpt>
      <trkpt lat="45.67589" lon="3.41045">
        <ele>655.6</ele>
        <time>2025-09-14T07:21:20Z</time>
      </trkpt>
      <trkpt lat="45.67593" lon="3.41051">
        <ele>655.6</ele>
        <time>2025-09-14T07:21:21Z</time>
      </trkpt>
      <trkpt lat="45.67596" lon="3.41057">
        <ele>655.6</ele>
        <time>2025-09-14T07:21:22Z</time>
      </trkpt>
      <trkpt lat="45.676" lon="3.41062">
        <ele>655.4</ele>
        <time>2025-09-14T07:21:23Z</time>
      </trkpt>
      <trkpt lat="45.67604" lon="3.41066">
        <ele>655.2</ele>
        <time>2025-09-14T07:21:24Z</time>
      </trkpt>
      <trkpt lat="45.67608" lon="3.41071">
        <ele>655</ele>
        <time>2025-09-14T07:21:25Z</time>
      </trkpt>
      <trkpt lat="45.6761" lon="3.41075">
        <ele>654.8</ele>
        <time>2025-09-14T07:21:26Z</time>
      </trkpt>
      <trkpt lat="45.67613" lon="3.41079">
        <ele>654.6</ele>
        <time>2025-09-14T07:21:27Z</time>
      </trkpt>
      <trkpt lat="45.67614" lon="3.41083">
        <ele>654.2</ele>
        <time>2025-09-14T07:21:28Z</time>
      </trkpt>
      <trkpt lat="45.67616" lon="3.41087">
        <ele>654</ele>
        <time>2025-09-14T07:21:29Z</time>
      </trkpt>
      <trkpt lat="45.67617" lon="3.41091">
        <ele>653.6</ele>
        <time>2025-09-14T07:21:30Z</time>
      </trkpt>
      <trkpt lat="45.6762" lon="3.41095">
        <ele>653.2</ele>
        <time>2025-09-14T07:21:31Z</time>
      </trkpt>
      <trkpt lat="45.67623" lon="3.41099">
        <ele>653.4</ele>
        <time>2025-09-14T07:21:32Z</time>
      </trkpt>
      <trkpt lat="45.67627" lon="3.41103">
        <ele>653.4</ele>
        <time>2025-09-14T07:21:33Z</time>
      </trkpt>
      <trkpt lat="45.6763" lon="3.41108">
        <ele>653.2</ele>
        <time>2025-09-14T07:21:34Z</time>
      </trkpt>
      <trkpt lat="45.67633" lon="3.41112">
        <ele>653.2</ele>
        <time>2025-09-14T07:21:35Z</time>
      </trkpt>
      <trkpt lat="45.67637" lon="3.41117">
        <ele>653</ele>
        <time>2025-09-14T07:21:36Z</time>
      </trkpt>
      <trkpt lat="45.6764" lon="3.41122">
        <ele>652.8</ele>
        <time>2025-09-14T07:21:37Z</time>
      </trkpt>
      <trkpt lat="45.67643" lon="3.4113">
        <ele>652.4</ele>
        <time>2025-09-14T07:21:38Z</time>
      </trkpt>
      <trkpt lat="45.67645" lon="3.41137">
        <ele>652.2</ele>
        <time>2025-09-14T07:21:39Z</time>
      </trkpt>
      <trkpt lat="45.67647" lon="3.41145">
        <ele>651.8</ele>
        <time>2025-09-14T07:21:40Z</time>
      </trkpt>
      <trkpt lat="45.67649" lon="3.41153">
        <ele>651.6</ele>
        <time>2025-09-14T07:21:41Z</time>
      </trkpt>
      <trkpt lat="45.67651" lon="3.41161">
        <ele>651.2</ele>
        <time>2025-09-14T07:21:42Z</time>
      </trkpt>
      <trkpt lat="45.67653" lon="3.41167">
        <ele>650.8</ele>
        <time>2025-09-14T07:21:43Z</time>
      </trkpt>
      <trkpt lat="45.67654" lon="3.41172">
        <ele>650.4</ele>
        <time>2025-09-14T07:21:44Z</time>
      </trkpt>
      <trkpt lat="45.67657" lon="3.41176">
        <ele>650</ele>
        <time>2025-09-14T07:21:45Z</time>
      </trkpt>
      <trkpt lat="45.67658" lon="3.41181">
        <ele>649.6</ele>
        <time>2025-09-14T07:21:46Z</time>
      </trkpt>
      <trkpt lat="45.67661" lon="3.41185">
        <ele>649.2</ele>
        <time>2025-09-14T07:21:47Z</time>
      </trkpt>
      <trkpt lat="45.67663" lon="3.4119">
        <ele>648.8</ele>
        <time>2025-09-14T07:21:48Z</time>
      </trkpt>
      <trkpt lat="45.67666" lon="3.41196">
        <ele>648.2</ele>
        <time>2025-09-14T07:21:49Z</time>
      </trkpt>
      <trkpt lat="45.6767" lon="3.41203">
        <ele>647.8</ele>
        <time>2025-09-14T07:21:50Z</time>
      </trkpt>
      <trkpt lat="45.67673" lon="3.4121">
        <ele>647.4</ele>
        <time>2025-09-14T07:21:51Z</time>
      </trkpt>
      <trkpt lat="45.67676" lon="3.41217">
        <ele>646.8</ele>
        <time>2025-09-14T07:21:52Z</time>
      </trkpt>
      <trkpt lat="45.67679" lon="3.41224">
        <ele>646.2</ele>
        <time>2025-09-14T07:21:53Z</time>
      </trkpt>
      <trkpt lat="45.67684" lon="3.41233">
        <ele>645.4</ele>
        <time>2025-09-14T07:21:54Z</time>
      </trkpt>
      <trkpt lat="45.67689" lon="3.41242">
        <ele>644.8</ele>
        <time>2025-09-14T07:21:55Z</time>
      </trkpt>
      <trkpt lat="45.67696" lon="3.4125">
        <ele>644.4</ele>
        <time>2025-09-14T07:21:56Z</time>
      </trkpt>
      <trkpt lat="45.67702" lon="3.41258">
        <ele>644</ele>
        <time>2025-09-14T07:21:57Z</time>
      </trkpt>
      <trkpt lat="45.67706" lon="3.41265">
        <ele>643.2</ele>
        <time>2025-09-14T07:21:58Z</time>
      </trkpt>
      <trkpt lat="45.67711" lon="3.41272">
        <ele>642.6</ele>
        <time>2025-09-14T07:21:59Z</time>
      </trkpt>
      <trkpt lat="45.67715" lon="3.41278">
        <ele>641.8</ele>
        <time>2025-09-14T07:22:00Z</time>
      </trkpt>
      <trkpt lat="45.6772" lon="3.41283">
        <ele>641</ele>
        <time>2025-09-14T07:22:01Z</time>
      </trkpt>
      <trkpt lat="45.67726" lon="3.41288">
        <ele>640.4</ele>
        <time>2025-09-14T07:22:02Z</time>
      </trkpt>
      <trkpt lat="45.67734" lon="3.41293">
        <ele>639.6</ele>
        <time>2025-09-14T07:22:03Z</time>
      </trkpt>
      <trkpt lat="45.6774" lon="3.41297">
        <ele>638.8</ele>
        <time>2025-09-14T07:22:04Z</time>
      </trkpt>
      <trkpt lat="45.67746" lon="3.41302">
        <ele>638.2</ele>
        <time>2025-09-14T07:22:05Z</time>
      </trkpt>
      <trkpt lat="45.67751" lon="3.41306">
        <ele>637.4</ele>
        <time>2025-09-14T07:22:06Z</time>
      </trkpt>
      <trkpt lat="45.67755" lon="3.4131">
        <ele>636.6</ele>
        <time>2025-09-14T07:22:07Z</time>
      </trkpt>
      <trkpt lat="45.67758" lon="3.41313">
        <ele>635.8</ele>
        <time>2025-09-14T07:22:08Z</time>
      </trkpt>
      <trkpt lat="45.67762" lon="3.41316">
        <ele>635.2</ele>
        <time>2025-09-14T07:22:09Z</time>
      </trkpt>
      <trkpt lat="45.67765" lon="3.4132">
        <ele>634.4</ele>
        <time>2025-09-14T07:22:10Z</time>
      </trkpt>
      <trkpt lat="45.67768" lon="3.41324">
        <ele>633.8</ele>
        <time>2025-09-14T07:22:11Z</time>
      </trkpt>
      <trkpt lat="45.67771" lon="3.41328">
        <ele>633.2</ele>
        <time>2025-09-14T07:22:12Z</time>
      </trkpt>
      <trkpt lat="45.67775" lon="3.41329">
        <ele>632.6</ele>
        <time>2025-09-14T07:22:13Z</time>
      </trkpt>
      <trkpt lat="45.67778" lon="3.41329">
        <ele>632.2</ele>
        <time>2025-09-14T07:22:14Z</time>
      </trkpt>
      <trkpt lat="45.67781" lon="3.41329">
        <ele>632</ele>
        <time>2025-09-14T07:22:15Z</time>
      </trkpt>
      <trkpt lat="45.67784" lon="3.41327">
        <ele>632</ele>
        <time>2025-09-14T07:22:16Z</time>
      </trkpt>
      <trkpt lat="45.67787" lon="3.41326">
        <ele>632</ele>
        <time>2025-09-14T07:22:17Z</time>
      </trkpt>
      <trkpt lat="45.6779" lon="3.41324">
        <ele>632.2</ele>
        <time>2025-09-14T07:22:18Z</time>
      </trkpt>
      <trkpt lat="45.67793" lon="3.41323">
        <ele>632.4</ele>
        <time>2025-09-14T07:22:19Z</time>
      </trkpt>
      <trkpt lat="45.67796" lon="3.4132">
        <ele>632.4</ele>
        <time>2025-09-14T07:22:20Z</time>
      </trkpt>
      <trkpt lat="45.67799" lon="3.41318">
        <ele>632.6</ele>
        <time>2025-09-14T07:22:21Z</time>
      </trkpt>
      <trkpt lat="45.67802" lon="3.41315">
        <ele>633</ele>
        <time>2025-09-14T07:22:22Z</time>
      </trkpt>
      <trkpt lat="45.67804" lon="3.41312">
        <ele>633.2</ele>
        <time>2025-09-14T07:22:23Z</time>
      </trkpt>
      <trkpt lat="45.67807" lon="3.41309">
        <ele>633.4</ele>
        <time>2025-09-14T07:22:24Z</time>
      </trkpt>
      <trkpt lat="45.67809" lon="3.41305">
        <ele>633.6</ele>
        <time>2025-09-14T07:22:25Z</time>
      </trkpt>
      <trkpt lat="45.67811" lon="3.41301">
        <ele>634</ele>
        <time>2025-09-14T07:22:26Z</time>
      </trkpt>
      <trkpt lat="45.67813" lon="3.41297">
        <ele>634.4</ele>
        <time>2025-09-14T07:22:27Z</time>
      </trkpt>
      <trkpt lat="45.67814" lon="3.41293">
        <ele>634.8</ele>
        <time>2025-09-14T07:22:28Z</time>
      </trkpt>
      <trkpt lat="45.67815" lon="3.41288">
        <ele>635.2</ele>
        <time>2025-09-14T07:22:29Z</time>
      </trkpt>
      <trkpt lat="45.67815" lon="3.41284">
        <ele>635.4</ele>
        <time>2025-09-14T07:22:30Z</time>
      </trkpt>
      <trkpt lat="45.67815" lon="3.4128">
        <ele>635.8</ele>
        <time>2025-09-14T07:22:31Z</time>
      </trkpt>
      <trkpt lat="45.67815" lon="3.41276">
        <ele>636.2</ele>
        <time>2025-09-14T07:22:32Z</time>
      </trkpt>
      <trkpt lat="45.67814" lon="3.41272">
        <ele>636.4</ele>
        <time>2025-09-14T07:22:33Z</time>
      </trkpt>
      <trkpt lat="45.67812" lon="3.41268">
        <ele>636.8</ele>
        <time>2025-09-14T07:22:34Z</time>
      </trkpt>
      <trkpt lat="45.6781" lon="3.41264">
        <ele>637.2</ele>
        <time>2025-09-14T07:22:35Z</time>
      </trkpt>
      <trkpt lat="45.67807" lon="3.4126">
        <ele>637.6</ele>
        <time>2025-09-14T07:22:36Z</time>
      </trkpt>
      <trkpt lat="45.67805" lon="3.41257">
        <ele>637.8</ele>
        <time>2025-09-14T07:22:37Z</time>
      </trkpt>
      <trkpt lat="45.67803" lon="3.41253">
        <ele>638.2</ele>
        <time>2025-09-14T07:22:38Z</time>
      </trkpt>
      <trkpt lat="45.67801" lon="3.4125">
        <ele>638.6</ele>
        <time>2025-09-14T07:22:39Z</time>
      </trkpt>
      <trkpt lat="45.67799" lon="3.41247">
        <ele>638.8</ele>
        <time>2025-09-14T07:22:40Z</time>
      </trkpt>
      <trkpt lat="45.67798" lon="3.41244">
        <ele>639.2</ele>
        <time>2025-09-14T07:22:41Z</time>
      </trkpt>
      <trkpt lat="45.67797" lon="3.4124">
        <ele>639.6</ele>
        <time>2025-09-14T07:22:42Z</time>
      </trkpt>
      <trkpt lat="45.67795" lon="3.41236">
        <ele>639.8</ele>
        <time>2025-09-14T07:22:43Z</time>
      </trkpt>
      <trkpt lat="45.67794" lon="3.41233">
        <ele>640.2</ele>
        <time>2025-09-14T07:22:44Z</time>
      </trkpt>
      <trkpt lat="45.67793" lon="3.41229">
        <ele>640.6</ele>
        <time>2025-09-14T07:22:45Z</time>
      </trkpt>
      <trkpt lat="45.67792" lon="3.41225">
        <ele>640.8</ele>
        <time>2025-09-14T07:22:46Z</time>
      </trkpt>
      <trkpt lat="45.67791" lon="3.41221">
        <ele>641.2</ele>
        <time>2025-09-14T07:22:47Z</time>
      </trkpt>
      <trkpt lat="45.67791" lon="3.41216">
        <ele>641.6</ele>
        <time>2025-09-14T07:22:48Z</time>
      </trkpt>
      <trkpt lat="45.67791" lon="3.41212">
        <ele>642</ele>
        <time>2025-09-14T07:22:49Z</time>
      </trkpt>
      <trkpt lat="45.67792" lon="3.41207">
        <ele>642.2</ele>
        <time>2025-09-14T07:22:50Z</time>
      </trkpt>
      <trkpt lat="45.67793" lon="3.41203">
        <ele>642.4</ele>
        <time>2025-09-14T07:22:51Z</time>
      </trkpt>
      <trkpt lat="45.67794" lon="3.41199">
        <ele>642.8</ele>
        <time>2025-09-14T07:22:52Z</time>
      </trkpt>
      <trkpt lat="45.67796" lon="3.41196">
        <ele>643</ele>
        <time>2025-09-14T07:22:53Z</time>
      </trkpt>
      <trkpt lat="45.67799" lon="3.41194">
        <ele>643.2</ele>
        <time>2025-09-14T07:22:54Z</time>
      </trkpt>
      <trkpt lat="45.67801" lon="3.41191">
        <ele>643.6</ele>
        <time>2025-09-14T07:22:55Z</time>
      </trkpt>
      <trkpt lat="45.67803" lon="3.41187">
        <ele>643.8</ele>
        <time>2025-09-14T07:22:56Z</time>
      </trkpt>
      <trkpt lat="45.67805" lon="3.41183">
        <ele>644.2</ele>
        <time>2025-09-14T07:22:57Z</time>
      </trkpt>
      <trkpt lat="45.67806" lon="3.41179">
        <ele>644.4</ele>
        <time>2025-09-14T07:22:58Z</time>
      </trkpt>
      <trkpt lat="45.67808" lon="3.41175">
        <ele>644.6</ele>
        <time>2025-09-14T07:22:59Z</time>
      </trkpt>
      <trkpt lat="45.6781" lon="3.41171">
        <ele>644.8</ele>
        <time>2025-09-14T07:23:00Z</time>
      </trkpt>
      <trkpt lat="45.67811" lon="3.41167">
        <ele>645</ele>
        <time>2025-09-14T07:23:01Z</time>
      </trkpt>
      <trkpt lat="45.67813" lon="3.41164">
        <ele>645.2</ele>
        <time>2025-09-14T07:23:02Z</time>
      </trkpt>
      <trkpt lat="45.67814" lon="3.4116">
        <ele>645.4</ele>
        <time>2025-09-14T07:23:03Z</time>
      </trkpt>
      <trkpt lat="45.67815" lon="3.41157">
        <ele>645.6</ele>
        <time>2025-09-14T07:23:04Z</time>
      </trkpt>
      <trkpt lat="45.67817" lon="3.41155">
        <ele>645.6</ele>
        <time>2025-09-14T07:23:05Z</time>
      </trkpt>
      <trkpt lat="45.67819" lon="3.41154">
        <ele>645.8</ele>
        <time>2025-09-14T07:23:06Z</time>
      </trkpt>
      <trkpt lat="45.67821" lon="3.41154">
        <ele>646</ele>
        <time>2025-09-14T07:23:07Z</time>
      </trkpt>
      <trkpt lat="45.67823" lon="3.41156">
        <ele>646.2</ele>
        <time>2025-09-14T07:23:08Z</time>
      </trkpt>
      <trkpt lat="45.67825" lon="3.41157">
        <ele>646.4</ele>
        <time>2025-09-14T07:23:09Z</time>
      </trkpt>
      <trkpt lat="45.67828" lon="3.41158">
        <ele>646.6</ele>
        <time>2025-09-14T07:23:10Z</time>
      </trkpt>
      <trkpt lat="45.6783" lon="3.41159">
        <ele>646.6</ele>
        <time>2025-09-14T07:23:11Z</time>
      </trkpt>
      <trkpt lat="45.6783" lon="3.4116">
        <ele>646.8</ele>
        <time>2025-09-14T07:23:12Z</time>
      </trkpt>
      <trkpt lat="45.6783" lon="3.41159">
        <ele>647</ele>
        <time>2025-09-14T07:23:13Z</time>
      </trkpt>
      <trkpt lat="45.67831" lon="3.41157">
        <ele>647.2</ele>
        <time>2025-09-14T07:23:14Z</time>
      </trkpt>
      <trkpt lat="45.67832" lon="3.41154">
        <ele>647.2</ele>
        <time>2025-09-14T07:23:15Z</time>
      </trkpt>
      <trkpt lat="45.67834" lon="3.41151">
        <ele>647.4</ele>
        <time>2025-09-14T07:23:16Z</time>
      </trkpt>
      <trkpt lat="45.67837" lon="3.4115">
        <ele>647.4</ele>
        <time>2025-09-14T07:23:17Z</time>
      </trkpt>
      <trkpt lat="45.67841" lon="3.41149">
        <ele>647.4</ele>
        <time>2025-09-14T07:23:18Z</time>
      </trkpt>
      <trkpt lat="45.67845" lon="3.41147">
        <ele>647.4</ele>
        <time>2025-09-14T07:23:19Z</time>
      </trkpt>
      <trkpt lat="45.67849" lon="3.41144">
        <ele>647.2</ele>
        <time>2025-09-14T07:23:20Z</time>
      </trkpt>
      <trkpt lat="45.67853" lon="3.41145">
        <ele>647</ele>
        <time>2025-09-14T07:23:21Z</time>
      </trkpt>
      <trkpt lat="45.67858" lon="3.41147">
        <ele>646.8</ele>
        <time>2025-09-14T07:23:22Z</time>
      </trkpt>
      <trkpt lat="45.67862" lon="3.41149">
        <ele>646.6</ele>
        <time>2025-09-14T07:23:23Z</time>
      </trkpt>
      <trkpt lat="45.67866" lon="3.41153">
        <ele>646.6</ele>
        <time>2025-09-14T07:23:24Z</time>
      </trkpt>
      <trkpt lat="45.67869" lon="3.41158">
        <ele>646.4</ele>
        <time>2025-09-14T07:23:25Z</time>
      </trkpt>
      <trkpt lat="45.67874" lon="3.41163">
        <ele>646.4</ele>
        <time>2025-09-14T07:23:26Z</time>
      </trkpt>
      <trkpt lat="45.67879" lon="3.41166">
        <ele>646.4</ele>
        <time>2025-09-14T07:23:27Z</time>
      </trkpt>
      <trkpt lat="45.67885" lon="3.41168">
        <ele>646.4</ele>
        <time>2025-09-14T07:23:28Z</time>
      </trkpt>
      <trkpt lat="45.6789" lon="3.41169">
        <ele>646.6</ele>
        <time>2025-09-14T07:23:29Z</time>
      </trkpt>
      <trkpt lat="45.67895" lon="3.41167">
        <ele>646.6</ele>
        <time>2025-09-14T07:23:30Z</time>
      </trkpt>
      <trkpt lat="45.679" lon="3.41165">
        <ele>646.4</ele>
        <time>2025-09-14T07:23:31Z</time>
      </trkpt>
      <trkpt lat="45.67906" lon="3.41164">
        <ele>646.4</ele>
        <time>2025-09-14T07:23:32Z</time>
      </trkpt>
      <trkpt lat="45.67911" lon="3.41163">
        <ele>646.4</ele>
        <time>2025-09-14T07:23:33Z</time>
      </trkpt>
      <trkpt lat="45.67916" lon="3.41163">
        <ele>646.4</ele>
        <time>2025-09-14T07:23:34Z</time>
      </trkpt>
      <trkpt lat="45.67921" lon="3.41163">
        <ele>646.2</ele>
        <time>2025-09-14T07:23:35Z</time>
      </trkpt>
      <trkpt lat="45.67926" lon="3.41163">
        <ele>646.2</ele>
        <time>2025-09-14T07:23:36Z</time>
      </trkpt>
      <trkpt lat="45.67931" lon="3.41163">
        <ele>646.2</ele>
        <time>2025-09-14T07:23:37Z</time>
      </trkpt>
      <trkpt lat="45.67936" lon="3.41164">
        <ele>646.2</ele>
        <time>2025-09-14T07:23:38Z</time>
      </trkpt>
      <trkpt lat="45.67942" lon="3.41165">
        <ele>646.2</ele>
        <time>2025-09-14T07:23:39Z</time>
      </trkpt>
      <trkpt lat="45.67948" lon="3.41166">
        <ele>646.4</ele>
        <time>2025-09-14T07:23:40Z</time>
      </trkpt>
      <trkpt lat="45.67953" lon="3.41166">
        <ele>646.4</ele>
        <time>2025-09-14T07:23:41Z</time>
      </trkpt>
      <trkpt lat="45.67959" lon="3.41166">
        <ele>646.4</ele>
        <time>2025-09-14T07:23:42Z</time>
      </trkpt>
      <trkpt lat="45.67964" lon="3.41165">
        <ele>646.6</ele>
        <time>2025-09-14T07:23:43Z</time>
      </trkpt>
      <trkpt lat="45.6797" lon="3.41164">
        <ele>646.8</ele>
        <time>2025-09-14T07:23:44Z</time>
      </trkpt>
      <trkpt lat="45.67976" lon="3.41163">
        <ele>646.8</ele>
        <time>2025-09-14T07:23:45Z</time>
      </trkpt>
      <trkpt lat="45.67981" lon="3.41162">
        <ele>647</ele>
        <time>2025-09-14T07:23:46Z</time>
      </trkpt>
      <trkpt lat="45.67986" lon="3.4116">
        <ele>647</ele>
        <time>2025-09-14T07:23:47Z</time>
      </trkpt>
      <trkpt lat="45.6799" lon="3.41157">
        <ele>647</ele>
        <time>2025-09-14T07:23:48Z</time>
      </trkpt>
      <trkpt lat="45.67995" lon="3.41155">
        <ele>647.2</ele>
        <time>2025-09-14T07:23:49Z</time>
      </trkpt>
      <trkpt lat="45.68" lon="3.41152">
        <ele>647.4</ele>
        <time>2025-09-14T07:23:50Z</time>
      </trkpt>
      <trkpt lat="45.68004" lon="3.41151">
        <ele>647.6</ele>
        <time>2025-09-14T07:23:51Z</time>
      </trkpt>
      <trkpt lat="45.68007" lon="3.4115">
        <ele>647.6</ele>
        <time>2025-09-14T07:23:52Z</time>
      </trkpt>
      <trkpt lat="45.68011" lon="3.41151">
        <ele>647.8</ele>
        <time>2025-09-14T07:23:53Z</time>
      </trkpt>
      <trkpt lat="45.68015" lon="3.41153">
        <ele>647.8</ele>
        <time>2025-09-14T07:23:54Z</time>
      </trkpt>
      <trkpt lat="45.68019" lon="3.41155">
        <ele>647.8</ele>
        <time>2025-09-14T07:23:55Z</time>
      </trkpt>
      <trkpt lat="45.68023" lon="3.41158">
        <ele>647.8</ele>
        <time>2025-09-14T07:23:56Z</time>
      </trkpt>
      <trkpt lat="45.68028" lon="3.41161">
        <ele>647.8</ele>
        <time>2025-09-14T07:23:57Z</time>
      </trkpt>
      <trkpt lat="45.68032" lon="3.41164">
        <ele>647.8</ele>
        <time>2025-09-14T07:23:58Z</time>
      </trkpt>
      <trkpt lat="45.68036" lon="3.41167">
        <ele>647.8</ele>
        <time>2025-09-14T07:23:59Z</time>
      </trkpt>
      <trkpt lat="45.6804" lon="3.41169">
        <ele>647.8</ele>
        <time>2025-09-14T07:24:00Z</time>
      </trkpt>
      <trkpt lat="45.68043" lon="3.41172">
        <ele>647.8</ele>
        <time>2025-09-14T07:24:01Z</time>
      </trkpt>
      <trkpt lat="45.68046" lon="3.41174">
        <ele>647.8</ele>
        <time>2025-09-14T07:24:02Z</time>
      </trkpt>
      <trkpt lat="45.68049" lon="3.41177">
        <ele>647.8</ele>
        <time>2025-09-14T07:24:03Z</time>
      </trkpt>
      <trkpt lat="45.68052" lon="3.4118">
        <ele>647.8</ele>
        <time>2025-09-14T07:24:04Z</time>
      </trkpt>
      <trkpt lat="45.68055" lon="3.41183">
        <ele>647.8</ele>
        <time>2025-09-14T07:24:05Z</time>
      </trkpt>
      <trkpt lat="45.68059" lon="3.41186">
        <ele>647.6</ele>
        <time>2025-09-14T07:24:06Z</time>
      </trkpt>
      <trkpt lat="45.68063" lon="3.41188">
        <ele>647.2</ele>
        <time>2025-09-14T07:24:07Z</time>
      </trkpt>
      <trkpt lat="45.68066" lon="3.41191">
        <ele>647.2</ele>
        <time>2025-09-14T07:24:08Z</time>
      </trkpt>
      <trkpt lat="45.6807" lon="3.41193">
        <ele>647</ele>
        <time>2025-09-14T07:24:09Z</time>
      </trkpt>
      <trkpt lat="45.68074" lon="3.41196">
        <ele>647</ele>
        <time>2025-09-14T07:24:10Z</time>
      </trkpt>
      <trkpt lat="45.68077" lon="3.41199">
        <ele>646.8</ele>
        <time>2025-09-14T07:24:11Z</time>
      </trkpt>
      <trkpt lat="45.68081" lon="3.41202">
        <ele>646.4</ele>
        <time>2025-09-14T07:24:12Z</time>
      </trkpt>
      <trkpt lat="45.68086" lon="3.41207">
        <ele>645.8</ele>
        <time>2025-09-14T07:24:13Z</time>
      </trkpt>
      <trkpt lat="45.68092" lon="3.41211">
        <ele>645.4</ele>
        <time>2025-09-14T07:24:14Z</time>
      </trkpt>
      <trkpt lat="45.68097" lon="3.41214">
        <ele>645</ele>
        <time>2025-09-14T07:24:15Z</time>
      </trkpt>
      <trkpt lat="45.68103" lon="3.41218">
        <ele>644.4</ele>
        <time>2025-09-14T07:24:16Z</time>
      </trkpt>
      <trkpt lat="45.68108" lon="3.4122">
        <ele>643.8</ele>
        <time>2025-09-14T07:24:17Z</time>
      </trkpt>
      <trkpt lat="45.68112" lon="3.41222">
        <ele>643.2</ele>
        <time>2025-09-14T07:24:18Z</time>
      </trkpt>
      <trkpt lat="45.68117" lon="3.41224">
        <ele>642.8</ele>
        <time>2025-09-14T07:24:19Z</time>
      </trkpt>
      <trkpt lat="45.6812" lon="3.41225">
        <ele>642.6</ele>
        <time>2025-09-14T07:24:20Z</time>
      </trkpt>
      <trkpt lat="45.68123" lon="3.41225">
        <ele>642.4</ele>
        <time>2025-09-14T07:24:21Z</time>
      </trkpt>
      <trkpt lat="45.68127" lon="3.41223">
        <ele>642</ele>
        <time>2025-09-14T07:24:22Z</time>
      </trkpt>
      <trkpt lat="45.68131" lon="3.41222">
        <ele>642</ele>
        <time>2025-09-14T07:24:23Z</time>
      </trkpt>
      <trkpt lat="45.68135" lon="3.4122">
        <ele>641.6</ele>
        <time>2025-09-14T07:24:24Z</time>
      </trkpt>
      <trkpt lat="45.68139" lon="3.41219">
        <ele>641.2</ele>
        <time>2025-09-14T07:24:25Z</time>
      </trkpt>
      <trkpt lat="45.68143" lon="3.41219">
        <ele>640.6</ele>
        <time>2025-09-14T07:24:26Z</time>
      </trkpt>
      <trkpt lat="45.68147" lon="3.41219">
        <ele>640.2</ele>
        <time>2025-09-14T07:24:27Z</time>
      </trkpt>
      <trkpt lat="45.68151" lon="3.41218">
        <ele>639.8</ele>
        <time>2025-09-14T07:24:28Z</time>
      </trkpt>
      <trkpt lat="45.68156" lon="3.41218">
        <ele>639.2</ele>
        <time>2025-09-14T07:24:29Z</time>
      </trkpt>
      <trkpt lat="45.68161" lon="3.41217">
        <ele>638.8</ele>
        <time>2025-09-14T07:24:30Z</time>
      </trkpt>
      <trkpt lat="45.68166" lon="3.41215">
        <ele>638.2</ele>
        <time>2025-09-14T07:24:31Z</time>
      </trkpt>
      <trkpt lat="45.6817" lon="3.41213">
        <ele>637.4</ele>
        <time>2025-09-14T07:24:32Z</time>
      </trkpt>
      <trkpt lat="45.68173" lon="3.41212">
        <ele>636.8</ele>
        <time>2025-09-14T07:24:33Z</time>
      </trkpt>
      <trkpt lat="45.68176" lon="3.4121">
        <ele>636.2</ele>
        <time>2025-09-14T07:24:34Z</time>
      </trkpt>
      <trkpt lat="45.68179" lon="3.41209">
        <ele>635.6</ele>
        <time>2025-09-14T07:24:35Z</time>
      </trkpt>
      <trkpt lat="45.68181" lon="3.4121">
        <ele>634.8</ele>
        <time>2025-09-14T07:24:36Z</time>
      </trkpt>
      <trkpt lat="45.68184" lon="3.41211">
        <ele>634</ele>
        <time>2025-09-14T07:24:37Z</time>
      </trkpt>
      <trkpt lat="45.68188" lon="3.41213">
        <ele>633.2</ele>
        <time>2025-09-14T07:24:38Z</time>
      </trkpt>
      <trkpt lat="45.68194" lon="3.41215">
        <ele>632.6</ele>
        <time>2025-09-14T07:24:39Z</time>
      </trkpt>
      <trkpt lat="45.68201" lon="3.41217">
        <ele>632</ele>
        <time>2025-09-14T07:24:40Z</time>
      </trkpt>
      <trkpt lat="45.68206" lon="3.41218">
        <ele>631.6</ele>
        <time>2025-09-14T07:24:41Z</time>
      </trkpt>
      <trkpt lat="45.68212" lon="3.41221">
        <ele>631</ele>
        <time>2025-09-14T07:24:42Z</time>
      </trkpt>
      <trkpt lat="45.68216" lon="3.41223">
        <ele>630.4</ele>
        <time>2025-09-14T07:24:43Z</time>
      </trkpt>
      <trkpt lat="45.6822" lon="3.41225">
        <ele>629.8</ele>
        <time>2025-09-14T07:24:44Z</time>
      </trkpt>
      <trkpt lat="45.68223" lon="3.41226">
        <ele>629</ele>
        <time>2025-09-14T07:24:45Z</time>
      </trkpt>
      <trkpt lat="45.68226" lon="3.41228">
        <ele>628</ele>
        <time>2025-09-14T07:24:46Z</time>
      </trkpt>
      <trkpt lat="45.6823" lon="3.41229">
        <ele>627.2</ele>
        <time>2025-09-14T07:24:47Z</time>
      </trkpt>
      <trkpt lat="45.68234" lon="3.41231">
        <ele>626.6</ele>
        <time>2025-09-14T07:24:48Z</time>
      </trkpt>
      <trkpt lat="45.68237" lon="3.41232">
        <ele>626</ele>
        <time>2025-09-14T07:24:49Z</time>
      </trkpt>
      <trkpt lat="45.68241" lon="3.41234">
        <ele>625.6</ele>
        <time>2025-09-14T07:24:50Z</time>
      </trkpt>
      <trkpt lat="45.68245" lon="3.41236">
        <ele>625</ele>
        <time>2025-09-14T07:24:51Z</time>
      </trkpt>
      <trkpt lat="45.68249" lon="3.41239">
        <ele>624.6</ele>
        <time>2025-09-14T07:24:52Z</time>
      </trkpt>
      <trkpt lat="45.68254" lon="3.41242">
        <ele>624.2</ele>
        <time>2025-09-14T07:24:53Z</time>
      </trkpt>
      <trkpt lat="45.68258" lon="3.41246">
        <ele>623.6</ele>
        <time>2025-09-14T07:24:54Z</time>
      </trkpt>
      <trkpt lat="45.68262" lon="3.4125">
        <ele>623</ele>
        <time>2025-09-14T07:24:55Z</time>
      </trkpt>
      <trkpt lat="45.68267" lon="3.41255">
        <ele>622.6</ele>
        <time>2025-09-14T07:24:56Z</time>
      </trkpt>
      <trkpt lat="45.68271" lon="3.4126">
        <ele>622</ele>
        <time>2025-09-14T07:24:57Z</time>
      </trkpt>
      <trkpt lat="45.68275" lon="3.41262">
        <ele>620.8</ele>
        <time>2025-09-14T07:24:59Z</time>
      </trkpt>
      <trkpt lat="45.68276" lon="3.41263">
        <ele>620.2</ele>
        <time>2025-09-14T07:25:00Z</time>
      </trkpt>
      <trkpt lat="45.68277" lon="3.41265">
        <ele>619.6</ele>
        <time>2025-09-14T07:25:01Z</time>
      </trkpt>
      <trkpt lat="45.68278" lon="3.41267">
        <ele>619</ele>
        <time>2025-09-14T07:25:02Z</time>
      </trkpt>
      <trkpt lat="45.6828" lon="3.4127">
        <ele>618.2</ele>
        <time>2025-09-14T07:25:03Z</time>
      </trkpt>
      <trkpt lat="45.68282" lon="3.41273">
        <ele>617.6</ele>
        <time>2025-09-14T07:25:04Z</time>
      </trkpt>
      <trkpt lat="45.68284" lon="3.41275">
        <ele>617</ele>
        <time>2025-09-14T07:25:05Z</time>
      </trkpt>
      <trkpt lat="45.68288" lon="3.41278">
        <ele>616.6</ele>
        <time>2025-09-14T07:25:06Z</time>
      </trkpt>
      <trkpt lat="45.68291" lon="3.41281">
        <ele>616.2</ele>
        <time>2025-09-14T07:25:07Z</time>
      </trkpt>
      <trkpt lat="45.68293" lon="3.41284">
        <ele>615.6</ele>
        <time>2025-09-14T07:25:08Z</time>
      </trkpt>
      <trkpt lat="45.68296" lon="3.41287">
        <ele>615</ele>
        <time>2025-09-14T07:25:09Z</time>
      </trkpt>
      <trkpt lat="45.68297" lon="3.4129">
        <ele>614.6</ele>
        <time>2025-09-14T07:25:10Z</time>
      </trkpt>
      <trkpt lat="45.68299" lon="3.41293">
        <ele>614</ele>
        <time>2025-09-14T07:25:11Z</time>
      </trkpt>
      <trkpt lat="45.68301" lon="3.41295">
        <ele>613.6</ele>
        <time>2025-09-14T07:25:12Z</time>
      </trkpt>
      <trkpt lat="45.68303" lon="3.41296">
        <ele>613.2</ele>
        <time>2025-09-14T07:25:13Z</time>
      </trkpt>
      <trkpt lat="45.68305" lon="3.41297">
        <ele>612.8</ele>
        <time>2025-09-14T07:25:14Z</time>
      </trkpt>
      <trkpt lat="45.68309" lon="3.41298">
        <ele>612.4</ele>
        <time>2025-09-14T07:25:15Z</time>
      </trkpt>
      <trkpt lat="45.68316" lon="3.413">
        <ele>612.2</ele>
        <time>2025-09-14T07:25:16Z</time>
      </trkpt>
      <trkpt lat="45.68323" lon="3.41302">
        <ele>611.8</ele>
        <time>2025-09-14T07:25:17Z</time>
      </trkpt>
      <trkpt lat="45.68329" lon="3.41301">
        <ele>611.2</ele>
        <time>2025-09-14T07:25:18Z</time>
      </trkpt>
      <trkpt lat="45.68334" lon="3.41298">
        <ele>610.8</ele>
        <time>2025-09-14T07:25:19Z</time>
      </trkpt>
      <trkpt lat="45.68338" lon="3.41296">
        <ele>610.6</ele>
        <time>2025-09-14T07:25:20Z</time>
      </trkpt>
      <trkpt lat="45.68342" lon="3.41293">
        <ele>610.2</ele>
        <time>2025-09-14T07:25:21Z</time>
      </trkpt>
      <trkpt lat="45.68346" lon="3.41291">
        <ele>609.8</ele>
        <time>2025-09-14T07:25:22Z</time>
      </trkpt>
      <trkpt lat="45.68349" lon="3.41288">
        <ele>609.4</ele>
        <time>2025-09-14T07:25:23Z</time>
      </trkpt>
      <trkpt lat="45.68351" lon="3.41284">
        <ele>609.2</ele>
        <time>2025-09-14T07:25:24Z</time>
      </trkpt>
      <trkpt lat="45.68351" lon="3.41278">
        <ele>608.8</ele>
        <time>2025-09-14T07:25:25Z</time>
      </trkpt>
      <trkpt lat="45.68351" lon="3.41273">
        <ele>608.4</ele>
        <time>2025-09-14T07:25:26Z</time>
      </trkpt>
      <trkpt lat="45.68351" lon="3.41269">
        <ele>608</ele>
        <time>2025-09-14T07:25:27Z</time>
      </trkpt>
      <trkpt lat="45.68351" lon="3.41264">
        <ele>607.4</ele>
        <time>2025-09-14T07:25:28Z</time>
      </trkpt>
      <trkpt lat="45.68352" lon="3.41261">
        <ele>607</ele>
        <time>2025-09-14T07:25:29Z</time>
      </trkpt>
      <trkpt lat="45.68352" lon="3.41258">
        <ele>606.6</ele>
        <time>2025-09-14T07:25:30Z</time>
      </trkpt>
      <trkpt lat="45.68353" lon="3.41256">
        <ele>606.4</ele>
        <time>2025-09-14T07:25:31Z</time>
      </trkpt>
      <trkpt lat="45.68354" lon="3.41256">
        <ele>606.2</ele>
        <time>2025-09-14T07:25:32Z</time>
      </trkpt>
      <trkpt lat="45.68357" lon="3.41257">
        <ele>606</ele>
        <time>2025-09-14T07:25:33Z</time>
      </trkpt>
      <trkpt lat="45.68361" lon="3.41257">
        <ele>605.8</ele>
        <time>2025-09-14T07:25:34Z</time>
      </trkpt>
      <trkpt lat="45.68363" lon="3.41259">
        <ele>605.6</ele>
        <time>2025-09-14T07:25:35Z</time>
      </trkpt>
      <trkpt lat="45.68367" lon="3.41259">
        <ele>605.4</ele>
        <time>2025-09-14T07:25:36Z</time>
      </trkpt>
      <trkpt lat="45.68371" lon="3.41261">
        <ele>605</ele>
        <time>2025-09-14T07:25:37Z</time>
      </trkpt>
      <trkpt lat="45.68376" lon="3.41263">
        <ele>604.8</ele>
        <time>2025-09-14T07:25:38Z</time>
      </trkpt>
      <trkpt lat="45.68381" lon="3.41265">
        <ele>604.8</ele>
        <time>2025-09-14T07:25:39Z</time>
      </trkpt>
      <trkpt lat="45.68386" lon="3.41267">
        <ele>604.6</ele>
        <time>2025-09-14T07:25:40Z</time>
      </trkpt>
      <trkpt lat="45.68391" lon="3.41269">
        <ele>604.6</ele>
        <time>2025-09-14T07:25:41Z</time>
      </trkpt>
      <trkpt lat="45.68396" lon="3.4127">
        <ele>604.4</ele>
        <time>2025-09-14T07:25:42Z</time>
      </trkpt>
      <trkpt lat="45.68401" lon="3.41271">
        <ele>604</ele>
        <time>2025-09-14T07:25:43Z</time>
      </trkpt>
      <trkpt lat="45.68406" lon="3.41271">
        <ele>603.4</ele>
        <time>2025-09-14T07:25:44Z</time>
      </trkpt>
      <trkpt lat="45.6841" lon="3.4127">
        <ele>603</ele>
        <time>2025-09-14T07:25:45Z</time>
      </trkpt>
      <trkpt lat="45.68412" lon="3.41268">
        <ele>602.6</ele>
        <time>2025-09-14T07:25:46Z</time>
      </trkpt>
      <trkpt lat="45.68416" lon="3.41268">
        <ele>602.2</ele>
        <time>2025-09-14T07:25:47Z</time>
      </trkpt>
      <trkpt lat="45.68422" lon="3.41269">
        <ele>601.8</ele>
        <time>2025-09-14T07:25:48Z</time>
      </trkpt>
      <trkpt lat="45.68428" lon="3.41271">
        <ele>601.4</ele>
        <time>2025-09-14T07:25:49Z</time>
      </trkpt>
      <trkpt lat="45.68433" lon="3.41273">
        <ele>601.2</ele>
        <time>2025-09-14T07:25:50Z</time>
      </trkpt>
      <trkpt lat="45.68437" lon="3.41275">
        <ele>600.8</ele>
        <time>2025-09-14T07:25:51Z</time>
      </trkpt>
      <trkpt lat="45.68442" lon="3.41277">
        <ele>600.4</ele>
        <time>2025-09-14T07:25:52Z</time>
      </trkpt>
      <trkpt lat="45.68446" lon="3.41278">
        <ele>600</ele>
        <time>2025-09-14T07:25:53Z</time>
      </trkpt>
      <trkpt lat="45.68448" lon="3.41279">
        <ele>599.6</ele>
        <time>2025-09-14T07:25:54Z</time>
      </trkpt>
      <trkpt lat="45.6845" lon="3.4128">
        <ele>599.4</ele>
        <time>2025-09-14T07:25:55Z</time>
      </trkpt>
      <trkpt lat="45.68453" lon="3.41285">
        <ele>599</ele>
        <time>2025-09-14T07:25:56Z</time>
      </trkpt>
      <trkpt lat="45.68454" lon="3.4129">
        <ele>598.8</ele>
        <time>2025-09-14T07:25:57Z</time>
      </trkpt>
      <trkpt lat="45.68457" lon="3.41296">
        <ele>598.6</ele>
        <time>2025-09-14T07:25:58Z</time>
      </trkpt>
      <trkpt lat="45.68459" lon="3.41301">
        <ele>598.4</ele>
        <time>2025-09-14T07:25:59Z</time>
      </trkpt>
      <trkpt lat="45.68461" lon="3.41306">
        <ele>598.2</ele>
        <time>2025-09-14T07:26:00Z</time>
      </trkpt>
      <trkpt lat="45.68462" lon="3.41313">
        <ele>598</ele>
        <time>2025-09-14T07:26:01Z</time>
      </trkpt>
      <trkpt lat="45.68463" lon="3.4132">
        <ele>597.8</ele>
        <time>2025-09-14T07:26:02Z</time>
      </trkpt>
      <trkpt lat="45.68465" lon="3.41327">
        <ele>598.2</ele>
        <time>2025-09-14T07:26:03Z</time>
      </trkpt>
      <trkpt lat="45.68467" lon="3.41334">
        <ele>599</ele>
        <time>2025-09-14T07:26:04Z</time>
      </trkpt>
      <trkpt lat="45.68468" lon="3.41341">
        <ele>599.8</ele>
        <time>2025-09-14T07:26:05Z</time>
      </trkpt>
      <trkpt lat="45.6847" lon="3.41348">
        <ele>600.2</ele>
        <time>2025-09-14T07:26:06Z</time>
      </trkpt>
      <trkpt lat="45.68471" lon="3.41355">
        <ele>600.6</ele>
        <time>2025-09-14T07:26:07Z</time>
      </trkpt>
      <trkpt lat="45.68472" lon="3.41363">
        <ele>601</ele>
        <time>2025-09-14T07:26:08Z</time>
      </trkpt>
      <trkpt lat="45.68474" lon="3.41371">
        <ele>601.2</ele>
        <time>2025-09-14T07:26:09Z</time>
      </trkpt>
      <trkpt lat="45.68475" lon="3.41378">
        <ele>601.4</ele>
        <time>2025-09-14T07:26:10Z</time>
      </trkpt>
      <trkpt lat="45.68476" lon="3.41384">
        <ele>601.4</ele>
        <time>2025-09-14T07:26:11Z</time>
      </trkpt>
      <trkpt lat="45.68477" lon="3.41391">
        <ele>601.6</ele>
        <time>2025-09-14T07:26:12Z</time>
      </trkpt>
      <trkpt lat="45.68478" lon="3.41398">
        <ele>601.8</ele>
        <time>2025-09-14T07:26:13Z</time>
      </trkpt>
      <trkpt lat="45.6848" lon="3.41405">
        <ele>601.8</ele>
        <time>2025-09-14T07:26:14Z</time>
      </trkpt>
      <trkpt lat="45.68482" lon="3.41411">
        <ele>601.8</ele>
        <time>2025-09-14T07:26:15Z</time>
      </trkpt>
      <trkpt lat="45.68484" lon="3.41416">
        <ele>601.8</ele>
        <time>2025-09-14T07:26:16Z</time>
      </trkpt>
      <trkpt lat="45.68486" lon="3.41421">
        <ele>601.8</ele>
        <time>2025-09-14T07:26:17Z</time>
      </trkpt>
      <trkpt lat="45.68489" lon="3.41427">
        <ele>601.6</ele>
        <time>2025-09-14T07:26:18Z</time>
      </trkpt>
      <trkpt lat="45.68492" lon="3.41431">
        <ele>601.8</ele>
        <time>2025-09-14T07:26:19Z</time>
      </trkpt>
      <trkpt lat="45.68494" lon="3.41434">
        <ele>601.8</ele>
        <time>2025-09-14T07:26:20Z</time>
      </trkpt>
      <trkpt lat="45.68498" lon="3.41437">
        <ele>602</ele>
        <time>2025-09-14T07:26:21Z</time>
      </trkpt>
      <trkpt lat="45.68501" lon="3.4144">
        <ele>602.2</ele>
        <time>2025-09-14T07:26:22Z</time>
      </trkpt>
      <trkpt lat="45.68505" lon="3.41442">
        <ele>602.4</ele>
        <time>2025-09-14T07:26:23Z</time>
      </trkpt>
      <trkpt lat="45.68508" lon="3.41443">
        <ele>602.6</ele>
        <time>2025-09-14T07:26:24Z</time>
      </trkpt>
      <trkpt lat="45.68511" lon="3.41444">
        <ele>602.8</ele>
        <time>2025-09-14T07:26:25Z</time>
      </trkpt>
      <trkpt lat="45.68512" lon="3.41444">
        <ele>603</ele>
        <time>2025-09-14T07:26:26Z</time>
      </trkpt>
      <trkpt lat="45.68514" lon="3.41445">
        <ele>603.2</ele>
        <time>2025-09-14T07:26:27Z</time>
      </trkpt>
      <trkpt lat="45.68516" lon="3.41446">
        <ele>603.6</ele>
        <time>2025-09-14T07:26:28Z</time>
      </trkpt>
      <trkpt lat="45.68518" lon="3.41447">
        <ele>603.8</ele>
        <time>2025-09-14T07:26:29Z</time>
      </trkpt>
      <trkpt lat="45.6852" lon="3.41448">
        <ele>604</ele>
        <time>2025-09-14T07:26:30Z</time>
      </trkpt>
      <trkpt lat="45.68521" lon="3.4145">
        <ele>604.4</ele>
        <time>2025-09-14T07:26:31Z</time>
      </trkpt>
      <trkpt lat="45.68522" lon="3.41452">
        <ele>604.8</ele>
        <time>2025-09-14T07:26:32Z</time>
      </trkpt>
      <trkpt lat="45.68523" lon="3.41455">
        <ele>605</ele>
        <time>2025-09-14T07:26:33Z</time>
      </trkpt>
      <trkpt lat="45.68522" lon="3.41457">
        <ele>605.2</ele>
        <time>2025-09-14T07:26:34Z</time>
      </trkpt>
      <trkpt lat="45.68521" lon="3.41458">
        <ele>605.4</ele>
        <time>2025-09-14T07:26:35Z</time>
      </trkpt>
      <trkpt lat="45.68519" lon="3.41459">
        <ele>605.6</ele>
        <time>2025-09-14T07:26:36Z</time>
      </trkpt>
      <trkpt lat="45.68517" lon="3.4146">
        <ele>605.8</ele>
        <time>2025-09-14T07:26:37Z</time>
      </trkpt>
      <trkpt lat="45.68515" lon="3.41461">
        <ele>605.8</ele>
        <time>2025-09-14T07:26:38Z</time>
      </trkpt>
      <trkpt lat="45.68513" lon="3.41462">
        <ele>606</ele>
        <time>2025-09-14T07:26:39Z</time>
      </trkpt>
      <trkpt lat="45.68511" lon="3.41463">
        <ele>606</ele>
        <time>2025-09-14T07:26:40Z</time>
      </trkpt>
      <trkpt lat="45.6851" lon="3.41465">
        <ele>606.2</ele>
        <time>2025-09-14T07:26:41Z</time>
      </trkpt>
      <trkpt lat="45.6851" lon="3.41468">
        <ele>606.6</ele>
        <time>2025-09-14T07:26:42Z</time>
      </trkpt>
      <trkpt lat="45.68511" lon="3.41471">
        <ele>606.8</ele>
        <time>2025-09-14T07:26:43Z</time>
      </trkpt>
      <trkpt lat="45.68512" lon="3.41473">
        <ele>607.2</ele>
        <time>2025-09-14T07:26:44Z</time>
      </trkpt>
      <trkpt lat="45.68513" lon="3.41476">
        <ele>607.4</ele>
        <time>2025-09-14T07:26:45Z</time>
      </trkpt>
      <trkpt lat="45.68514" lon="3.41478">
        <ele>607.4</ele>
        <time>2025-09-14T07:26:46Z</time>
      </trkpt>
      <trkpt lat="45.68515" lon="3.41481">
        <ele>606.8</ele>
        <time>2025-09-14T07:26:47Z</time>
      </trkpt>
      <trkpt lat="45.68516" lon="3.41483">
        <ele>606.2</ele>
        <time>2025-09-14T07:26:48Z</time>
      </trkpt>
      <trkpt lat="45.68517" lon="3.41485">
        <ele>606</ele>
        <time>2025-09-14T07:26:49Z</time>
      </trkpt>
      <trkpt lat="45.68519" lon="3.41488">
        <ele>605.8</ele>
        <time>2025-09-14T07:26:50Z</time>
      </trkpt>
      <trkpt lat="45.68522" lon="3.41492">
        <ele>605.8</ele>
        <time>2025-09-14T07:26:51Z</time>
      </trkpt>
      <trkpt lat="45.68526" lon="3.41496">
        <ele>606</ele>
        <time>2025-09-14T07:26:52Z</time>
      </trkpt>
      <trkpt lat="45.68528" lon="3.41499">
        <ele>606.4</ele>
        <time>2025-09-14T07:26:53Z</time>
      </trkpt>
      <trkpt lat="45.6853" lon="3.41501">
        <ele>606.4</ele>
        <time>2025-09-14T07:26:54Z</time>
      </trkpt>
      <trkpt lat="45.68532" lon="3.41503">
        <ele>606.6</ele>
        <time>2025-09-14T07:26:55Z</time>
      </trkpt>
      <trkpt lat="45.68534" lon="3.41506">
        <ele>606.8</ele>
        <time>2025-09-14T07:26:56Z</time>
      </trkpt>
      <trkpt lat="45.68535" lon="3.41508">
        <ele>607.2</ele>
        <time>2025-09-14T07:26:57Z</time>
      </trkpt>
      <trkpt lat="45.68536" lon="3.4151">
        <ele>607.4</ele>
        <time>2025-09-14T07:26:58Z</time>
      </trkpt>
      <trkpt lat="45.68539" lon="3.41512">
        <ele>607.8</ele>
        <time>2025-09-14T07:26:59Z</time>
      </trkpt>
      <trkpt lat="45.6854" lon="3.41514">
        <ele>608.2</ele>
        <time>2025-09-14T07:27:00Z</time>
      </trkpt>
      <trkpt lat="45.68542" lon="3.41516">
        <ele>608.6</ele>
        <time>2025-09-14T07:27:01Z</time>
      </trkpt>
      <trkpt lat="45.68544" lon="3.41518">
        <ele>609.2</ele>
        <time>2025-09-14T07:27:02Z</time>
      </trkpt>
      <trkpt lat="45.68546" lon="3.4152">
        <ele>609.6</ele>
        <time>2025-09-14T07:27:03Z</time>
      </trkpt>
      <trkpt lat="45.68548" lon="3.41522">
        <ele>610.2</ele>
        <time>2025-09-14T07:27:04Z</time>
      </trkpt>
      <trkpt lat="45.68551" lon="3.41526">
        <ele>610.8</ele>
        <time>2025-09-14T07:27:05Z</time>
      </trkpt>
      <trkpt lat="45.68554" lon="3.41528">
        <ele>611.2</ele>
        <time>2025-09-14T07:27:06Z</time>
      </trkpt>
      <trkpt lat="45.68557" lon="3.41531">
        <ele>611.6</ele>
        <time>2025-09-14T07:27:07Z</time>
      </trkpt>
      <trkpt lat="45.6856" lon="3.41534">
        <ele>612.2</ele>
        <time>2025-09-14T07:27:08Z</time>
      </trkpt>
      <trkpt lat="45.68563" lon="3.41537">
        <ele>613</ele>
        <time>2025-09-14T07:27:09Z</time>
      </trkpt>
      <trkpt lat="45.68565" lon="3.41541">
        <ele>613.6</ele>
        <time>2025-09-14T07:27:10Z</time>
      </trkpt>
      <trkpt lat="45.68569" lon="3.41545">
        <ele>614</ele>
        <time>2025-09-14T07:27:11Z</time>
      </trkpt>
      <trkpt lat="45.68571" lon="3.41547">
        <ele>614.4</ele>
        <time>2025-09-14T07:27:12Z</time>
      </trkpt>
      <trkpt lat="45.68573" lon="3.4155">
        <ele>614.8</ele>
        <time>2025-09-14T07:27:13Z</time>
      </trkpt>
      <trkpt lat="45.68576" lon="3.41552">
        <ele>615.2</ele>
        <time>2025-09-14T07:27:14Z</time>
      </trkpt>
      <trkpt lat="45.6858" lon="3.41555">
        <ele>615.6</ele>
        <time>2025-09-14T07:27:15Z</time>
      </trkpt>
      <trkpt lat="45.68582" lon="3.41558">
        <ele>616.2</ele>
        <time>2025-09-14T07:27:16Z</time>
      </trkpt>
      <trkpt lat="45.68585" lon="3.41561">
        <ele>616.8</ele>
        <time>2025-09-14T07:27:17Z</time>
      </trkpt>
      <trkpt lat="45.68587" lon="3.41564">
        <ele>617.2</ele>
        <time>2025-09-14T07:27:18Z</time>
      </trkpt>
      <trkpt lat="45.68588" lon="3.41567">
        <ele>617.8</ele>
        <time>2025-09-14T07:27:19Z</time>
      </trkpt>
      <trkpt lat="45.6859" lon="3.41571">
        <ele>618.2</ele>
        <time>2025-09-14T07:27:20Z</time>
      </trkpt>
      <trkpt lat="45.68592" lon="3.41576">
        <ele>618.6</ele>
        <time>2025-09-14T07:27:21Z</time>
      </trkpt>
      <trkpt lat="45.68593" lon="3.41582">
        <ele>619</ele>
        <time>2025-09-14T07:27:22Z</time>
      </trkpt>
      <trkpt lat="45.68595" lon="3.41587">
        <ele>619.4</ele>
        <time>2025-09-14T07:27:23Z</time>
      </trkpt>
      <trkpt lat="45.68597" lon="3.41592">
        <ele>619.8</ele>
        <time>2025-09-14T07:27:24Z</time>
      </trkpt>
      <trkpt lat="45.68598" lon="3.41596">
        <ele>620.2</ele>
        <time>2025-09-14T07:27:25Z</time>
      </trkpt>
      <trkpt lat="45.68599" lon="3.41601">
        <ele>620.6</ele>
        <time>2025-09-14T07:27:26Z</time>
      </trkpt>
      <trkpt lat="45.686" lon="3.41605">
        <ele>621.2</ele>
        <time>2025-09-14T07:27:27Z</time>
      </trkpt>
      <trkpt lat="45.68601" lon="3.4161">
        <ele>621.8</ele>
        <time>2025-09-14T07:27:28Z</time>
      </trkpt>
      <trkpt lat="45.68603" lon="3.41615">
        <ele>622.8</ele>
        <time>2025-09-14T07:27:29Z</time>
      </trkpt>
      <trkpt lat="45.68604" lon="3.41619">
        <ele>623.2</ele>
        <time>2025-09-14T07:27:30Z</time>
      </trkpt>
      <trkpt lat="45.68605" lon="3.41622">
        <ele>623.6</ele>
        <time>2025-09-14T07:27:31Z</time>
      </trkpt>
      <trkpt lat="45.68605" lon="3.41626">
        <ele>624</ele>
        <time>2025-09-14T07:27:32Z</time>
      </trkpt>
      <trkpt lat="45.68606" lon="3.4163">
        <ele>624.4</ele>
        <time>2025-09-14T07:27:33Z</time>
      </trkpt>
      <trkpt lat="45.68606" lon="3.41634">
        <ele>624.8</ele>
        <time>2025-09-14T07:27:34Z</time>
      </trkpt>
      <trkpt lat="45.68607" lon="3.41639">
        <ele>625.2</ele>
        <time>2025-09-14T07:27:35Z</time>
      </trkpt>
      <trkpt lat="45.68607" lon="3.41643">
        <ele>625.6</ele>
        <time>2025-09-14T07:27:36Z</time>
      </trkpt>
      <trkpt lat="45.68607" lon="3.41646">
        <ele>626</ele>
        <time>2025-09-14T07:27:37Z</time>
      </trkpt>
      <trkpt lat="45.68606" lon="3.41651">
        <ele>626.4</ele>
        <time>2025-09-14T07:27:38Z</time>
      </trkpt>
      <trkpt lat="45.68605" lon="3.41655">
        <ele>626.8</ele>
        <time>2025-09-14T07:27:39Z</time>
      </trkpt>
      <trkpt lat="45.68604" lon="3.41659">
        <ele>627</ele>
        <time>2025-09-14T07:27:40Z</time>
      </trkpt>
      <trkpt lat="45.68602" lon="3.41662">
        <ele>627.4</ele>
        <time>2025-09-14T07:27:41Z</time>
      </trkpt>
      <trkpt lat="45.68601" lon="3.41665">
        <ele>627.6</ele>
        <time>2025-09-14T07:27:42Z</time>
      </trkpt>
      <trkpt lat="45.68599" lon="3.41668">
        <ele>628</ele>
        <time>2025-09-14T07:27:43Z</time>
      </trkpt>
      <trkpt lat="45.68598" lon="3.41672">
        <ele>628.4</ele>
        <time>2025-09-14T07:27:44Z</time>
      </trkpt>
      <trkpt lat="45.68596" lon="3.41675">
        <ele>628.6</ele>
        <time>2025-09-14T07:27:45Z</time>
      </trkpt>
      <trkpt lat="45.68595" lon="3.41679">
        <ele>629</ele>
        <time>2025-09-14T07:27:46Z</time>
      </trkpt>
      <trkpt lat="45.68595" lon="3.41684">
        <ele>629.2</ele>
        <time>2025-09-14T07:27:47Z</time>
      </trkpt>
      <trkpt lat="45.68594" lon="3.41688">
        <ele>629.6</ele>
        <time>2025-09-14T07:27:48Z</time>
      </trkpt>
      <trkpt lat="45.68593" lon="3.41692">
        <ele>629.8</ele>
        <time>2025-09-14T07:27:49Z</time>
      </trkpt>
      <trkpt lat="45.68591" lon="3.41695">
        <ele>630</ele>
        <time>2025-09-14T07:27:50Z</time>
      </trkpt>
      <trkpt lat="45.6859" lon="3.41699">
        <ele>630.2</ele>
        <time>2025-09-14T07:27:51Z</time>
      </trkpt>
      <trkpt lat="45.6859" lon="3.41702">
        <ele>630.6</ele>
        <time>2025-09-14T07:27:52Z</time>
      </trkpt>
      <trkpt lat="45.68589" lon="3.41706">
        <ele>630.8</ele>
        <time>2025-09-14T07:27:53Z</time>
      </trkpt>
      <trkpt lat="45.68588" lon="3.41709">
        <ele>631</ele>
        <time>2025-09-14T07:27:54Z</time>
      </trkpt>
      <trkpt lat="45.68588" lon="3.41713">
        <ele>631.2</ele>
        <time>2025-09-14T07:27:55Z</time>
      </trkpt>
      <trkpt lat="45.68588" lon="3.41717">
        <ele>631.4</ele>
        <time>2025-09-14T07:27:56Z</time>
      </trkpt>
      <trkpt lat="45.68588" lon="3.4172">
        <ele>631.4</ele>
        <time>2025-09-14T07:27:57Z</time>
      </trkpt>
      <trkpt lat="45.68588" lon="3.41723">
        <ele>631.6</ele>
        <time>2025-09-14T07:27:58Z</time>
      </trkpt>
      <trkpt lat="45.68588" lon="3.41726">
        <ele>631.6</ele>
        <time>2025-09-14T07:27:59Z</time>
      </trkpt>
      <trkpt lat="45.68587" lon="3.41729">
        <ele>631.8</ele>
        <time>2025-09-14T07:28:00Z</time>
      </trkpt>
      <trkpt lat="45.68587" lon="3.41733">
        <ele>632.2</ele>
        <time>2025-09-14T07:28:01Z</time>
      </trkpt>
      <trkpt lat="45.68586" lon="3.41736">
        <ele>632.2</ele>
        <time>2025-09-14T07:28:02Z</time>
      </trkpt>
      <trkpt lat="45.68587" lon="3.41739">
        <ele>632.4</ele>
        <time>2025-09-14T07:28:03Z</time>
      </trkpt>
      <trkpt lat="45.68587" lon="3.41742">
        <ele>632.4</ele>
        <time>2025-09-14T07:28:04Z</time>
      </trkpt>
      <trkpt lat="45.68588" lon="3.41745">
        <ele>632.4</ele>
        <time>2025-09-14T07:28:05Z</time>
      </trkpt>
      <trkpt lat="45.68588" lon="3.41748">
        <ele>632.4</ele>
        <time>2025-09-14T07:28:06Z</time>
      </trkpt>
      <trkpt lat="45.68588" lon="3.41751">
        <ele>632.6</ele>
        <time>2025-09-14T07:28:07Z</time>
      </trkpt>
      <trkpt lat="45.68589" lon="3.41755">
        <ele>632.6</ele>
        <time>2025-09-14T07:28:08Z</time>
      </trkpt>
      <trkpt lat="45.68589" lon="3.41759">
        <ele>632.6</ele>
        <time>2025-09-14T07:28:09Z</time>
      </trkpt>
      <trkpt lat="45.6859" lon="3.41763">
        <ele>632.6</ele>
        <time>2025-09-14T07:28:10Z</time>
      </trkpt>
      <trkpt lat="45.68591" lon="3.41767">
        <ele>632.6</ele>
        <time>2025-09-14T07:28:11Z</time>
      </trkpt>
      <trkpt lat="45.68592" lon="3.41771">
        <ele>632.6</ele>
        <time>2025-09-14T07:28:12Z</time>
      </trkpt>
      <trkpt lat="45.68593" lon="3.41775">
        <ele>632.4</ele>
        <time>2025-09-14T07:28:13Z</time>
      </trkpt>
      <trkpt lat="45.68594" lon="3.41778">
        <ele>632.4</ele>
        <time>2025-09-14T07:28:14Z</time>
      </trkpt>
      <trkpt lat="45.68595" lon="3.41781">
        <ele>632.2</ele>
        <time>2025-09-14T07:28:15Z</time>
      </trkpt>
      <trkpt lat="45.68596" lon="3.41785">
        <ele>632.2</ele>
        <time>2025-09-14T07:28:16Z</time>
      </trkpt>
      <trkpt lat="45.68596" lon="3.41788">
        <ele>632</ele>
        <time>2025-09-14T07:28:17Z</time>
      </trkpt>
      <trkpt lat="45.68597" lon="3.41792">
        <ele>631.8</ele>
        <time>2025-09-14T07:28:18Z</time>
      </trkpt>
      <trkpt lat="45.68598" lon="3.41796">
        <ele>631.8</ele>
        <time>2025-09-14T07:28:19Z</time>
      </trkpt>
      <trkpt lat="45.68598" lon="3.41801">
        <ele>631.6</ele>
        <time>2025-09-14T07:28:20Z</time>
      </trkpt>
      <trkpt lat="45.68599" lon="3.41806">
        <ele>631.6</ele>
        <time>2025-09-14T07:28:21Z</time>
      </trkpt>
      <trkpt lat="45.68599" lon="3.41812">
        <ele>631.4</ele>
        <time>2025-09-14T07:28:22Z</time>
      </trkpt>
      <trkpt lat="45.68599" lon="3.41818">
        <ele>631.2</ele>
        <time>2025-09-14T07:28:23Z</time>
      </trkpt>
      <trkpt lat="45.68599" lon="3.41824">
        <ele>631.4</ele>
        <time>2025-09-14T07:28:24Z</time>
      </trkpt>
      <trkpt lat="45.68601" lon="3.4183">
        <ele>631.6</ele>
        <time>2025-09-14T07:28:25Z</time>
      </trkpt>
      <trkpt lat="45.68601" lon="3.41836">
        <ele>631.6</ele>
        <time>2025-09-14T07:28:26Z</time>
      </trkpt>
      <trkpt lat="45.68602" lon="3.41842">
        <ele>631.4</ele>
        <time>2025-09-14T07:28:27Z</time>
      </trkpt>
      <trkpt lat="45.68602" lon="3.41848">
        <ele>631.2</ele>
        <time>2025-09-14T07:28:28Z</time>
      </trkpt>
      <trkpt lat="45.68603" lon="3.41855">
        <ele>631.2</ele>
        <time>2025-09-14T07:28:29Z</time>
      </trkpt>
      <trkpt lat="45.68604" lon="3.41862">
        <ele>631</ele>
        <time>2025-09-14T07:28:30Z</time>
      </trkpt>
      <trkpt lat="45.68605" lon="3.41868">
        <ele>630.6</ele>
        <time>2025-09-14T07:28:31Z</time>
      </trkpt>
      <trkpt lat="45.68606" lon="3.41874">
        <ele>630.2</ele>
        <time>2025-09-14T07:28:32Z</time>
      </trkpt>
      <trkpt lat="45.68608" lon="3.4188">
        <ele>629.8</ele>
        <time>2025-09-14T07:28:33Z</time>
      </trkpt>
      <trkpt lat="45.6861" lon="3.41886">
        <ele>629.4</ele>
        <time>2025-09-14T07:28:34Z</time>
      </trkpt>
      <trkpt lat="45.68612" lon="3.41893">
        <ele>629</ele>
        <time>2025-09-14T07:28:35Z</time>
      </trkpt>
      <trkpt lat="45.68615" lon="3.419">
        <ele>628.6</ele>
        <time>2025-09-14T07:28:36Z</time>
      </trkpt>
      <trkpt lat="45.68618" lon="3.41908">
        <ele>628.2</ele>
        <time>2025-09-14T07:28:37Z</time>
      </trkpt>
      <trkpt lat="45.6862" lon="3.41915">
        <ele>628</ele>
        <time>2025-09-14T07:28:38Z</time>
      </trkpt>
      <trkpt lat="45.68623" lon="3.41921">
        <ele>627.8</ele>
        <time>2025-09-14T07:28:39Z</time>
      </trkpt>
      <trkpt lat="45.68627" lon="3.41928">
        <ele>627.6</ele>
        <time>2025-09-14T07:28:40Z</time>
      </trkpt>
      <trkpt lat="45.68631" lon="3.41934">
        <ele>627.4</ele>
        <time>2025-09-14T07:28:41Z</time>
      </trkpt>
      <trkpt lat="45.68634" lon="3.4194">
        <ele>627.2</ele>
        <time>2025-09-14T07:28:42Z</time>
      </trkpt>
      <trkpt lat="45.68638" lon="3.41945">
        <ele>627.2</ele>
        <time>2025-09-14T07:28:43Z</time>
      </trkpt>
      <trkpt lat="45.68643" lon="3.4195">
        <ele>627.2</ele>
        <time>2025-09-14T07:28:44Z</time>
      </trkpt>
      <trkpt lat="45.68647" lon="3.41954">
        <ele>627</ele>
        <time>2025-09-14T07:28:45Z</time>
      </trkpt>
      <trkpt lat="45.68652" lon="3.41958">
        <ele>626.8</ele>
        <time>2025-09-14T07:28:46Z</time>
      </trkpt>
      <trkpt lat="45.68657" lon="3.41962">
        <ele>626.8</ele>
        <time>2025-09-14T07:28:47Z</time>
      </trkpt>
      <trkpt lat="45.68662" lon="3.41966">
        <ele>626.4</ele>
        <time>2025-09-14T07:28:48Z</time>
      </trkpt>
      <trkpt lat="45.68667" lon="3.41971">
        <ele>626</ele>
        <time>2025-09-14T07:28:49Z</time>
      </trkpt>
      <trkpt lat="45.68672" lon="3.41977">
        <ele>625.4</ele>
        <time>2025-09-14T07:28:50Z</time>
      </trkpt>
      <trkpt lat="45.68677" lon="3.41983">
        <ele>624.6</ele>
        <time>2025-09-14T07:28:51Z</time>
      </trkpt>
      <trkpt lat="45.68682" lon="3.4199">
        <ele>624</ele>
        <time>2025-09-14T07:28:52Z</time>
      </trkpt>
      <trkpt lat="45.68687" lon="3.41997">
        <ele>623.4</ele>
        <time>2025-09-14T07:28:53Z</time>
      </trkpt>
      <trkpt lat="45.68693" lon="3.42004">
        <ele>622.8</ele>
        <time>2025-09-14T07:28:54Z</time>
      </trkpt>
      <trkpt lat="45.68699" lon="3.42011">
        <ele>622</ele>
        <time>2025-09-14T07:28:55Z</time>
      </trkpt>
      <trkpt lat="45.68705" lon="3.42017">
        <ele>621.2</ele>
        <time>2025-09-14T07:28:56Z</time>
      </trkpt>
      <trkpt lat="45.6871" lon="3.42024">
        <ele>620.2</ele>
        <time>2025-09-14T07:28:57Z</time>
      </trkpt>
      <trkpt lat="45.68716" lon="3.42031">
        <ele>619.2</ele>
        <time>2025-09-14T07:28:58Z</time>
      </trkpt>
      <trkpt lat="45.68721" lon="3.42038">
        <ele>618.2</ele>
        <time>2025-09-14T07:28:59Z</time>
      </trkpt>
      <trkpt lat="45.68727" lon="3.42044">
        <ele>617.2</ele>
        <time>2025-09-14T07:29:00Z</time>
      </trkpt>
      <trkpt lat="45.68734" lon="3.42049">
        <ele>616.4</ele>
        <time>2025-09-14T07:29:01Z</time>
      </trkpt>
      <trkpt lat="45.68741" lon="3.42052">
        <ele>615.6</ele>
        <time>2025-09-14T07:29:02Z</time>
      </trkpt>
      <trkpt lat="45.68749" lon="3.42053">
        <ele>615</ele>
        <time>2025-09-14T07:29:03Z</time>
      </trkpt>
      <trkpt lat="45.68756" lon="3.42053">
        <ele>614.6</ele>
        <time>2025-09-14T07:29:04Z</time>
      </trkpt>
      <trkpt lat="45.68764" lon="3.42052">
        <ele>614.2</ele>
        <time>2025-09-14T07:29:05Z</time>
      </trkpt>
      <trkpt lat="45.68771" lon="3.42051">
        <ele>613.8</ele>
        <time>2025-09-14T07:29:06Z</time>
      </trkpt>
      <trkpt lat="45.68777" lon="3.42049">
        <ele>613.2</ele>
        <time>2025-09-14T07:29:07Z</time>
      </trkpt>
      <trkpt lat="45.68784" lon="3.42046">
        <ele>613</ele>
        <time>2025-09-14T07:29:08Z</time>
      </trkpt>
      <trkpt lat="45.68791" lon="3.42044">
        <ele>612.8</ele>
        <time>2025-09-14T07:29:09Z</time>
      </trkpt>
      <trkpt lat="45.68798" lon="3.42041">
        <ele>612.2</ele>
        <time>2025-09-14T07:29:10Z</time>
      </trkpt>
      <trkpt lat="45.68804" lon="3.42039">
        <ele>611.6</ele>
        <time>2025-09-14T07:29:11Z</time>
      </trkpt>
      <trkpt lat="45.68811" lon="3.42038">
        <ele>611</ele>
        <time>2025-09-14T07:29:12Z</time>
      </trkpt>
      <trkpt lat="45.68817" lon="3.42039">
        <ele>610.2</ele>
        <time>2025-09-14T07:29:13Z</time>
      </trkpt>
      <trkpt lat="45.68824" lon="3.42042">
        <ele>609.6</ele>
        <time>2025-09-14T07:29:14Z</time>
      </trkpt>
      <trkpt lat="45.68831" lon="3.42046">
        <ele>609</ele>
        <time>2025-09-14T07:29:15Z</time>
      </trkpt>
      <trkpt lat="45.68839" lon="3.4205">
        <ele>608.2</ele>
        <time>2025-09-14T07:29:16Z</time>
      </trkpt>
      <trkpt lat="45.68847" lon="3.42054">
        <ele>607.4</ele>
        <time>2025-09-14T07:29:17Z</time>
      </trkpt>
      <trkpt lat="45.68855" lon="3.42057">
        <ele>606.4</ele>
        <time>2025-09-14T07:29:18Z</time>
      </trkpt>
      <trkpt lat="45.68863" lon="3.4206">
        <ele>605.6</ele>
        <time>2025-09-14T07:29:19Z</time>
      </trkpt>
      <trkpt lat="45.68869" lon="3.42061">
        <ele>604.8</ele>
        <time>2025-09-14T07:29:20Z</time>
      </trkpt>
      <trkpt lat="45.68875" lon="3.42062">
        <ele>604</ele>
        <time>2025-09-14T07:29:21Z</time>
      </trkpt>
      <trkpt lat="45.68881" lon="3.42065">
        <ele>603.4</ele>
        <time>2025-09-14T07:29:22Z</time>
      </trkpt>
      <trkpt lat="45.68888" lon="3.42067">
        <ele>602.8</ele>
        <time>2025-09-14T07:29:23Z</time>
      </trkpt>
      <trkpt lat="45.68895" lon="3.4207">
        <ele>602.2</ele>
        <time>2025-09-14T07:29:24Z</time>
      </trkpt>
      <trkpt lat="45.68902" lon="3.42072">
        <ele>601.6</ele>
        <time>2025-09-14T07:29:25Z</time>
      </trkpt>
      <trkpt lat="45.68908" lon="3.42075">
        <ele>601</ele>
        <time>2025-09-14T07:29:26Z</time>
      </trkpt>
      <trkpt lat="45.68913" lon="3.42077">
        <ele>600.4</ele>
        <time>2025-09-14T07:29:27Z</time>
      </trkpt>
      <trkpt lat="45.68919" lon="3.4208">
        <ele>600</ele>
        <time>2025-09-14T07:29:28Z</time>
      </trkpt>
      <trkpt lat="45.68924" lon="3.42083">
        <ele>599.6</ele>
        <time>2025-09-14T07:29:29Z</time>
      </trkpt>
      <trkpt lat="45.68929" lon="3.42086">
        <ele>599.2</ele>
        <time>2025-09-14T07:29:30Z</time>
      </trkpt>
      <trkpt lat="45.68935" lon="3.42088">
        <ele>599</ele>
        <time>2025-09-14T07:29:31Z</time>
      </trkpt>
      <trkpt lat="45.6894" lon="3.4209">
        <ele>598.8</ele>
        <time>2025-09-14T07:29:32Z</time>
      </trkpt>
      <trkpt lat="45.68945" lon="3.42092">
        <ele>598.6</ele>
        <time>2025-09-14T07:29:33Z</time>
      </trkpt>
      <trkpt lat="45.6895" lon="3.42093">
        <ele>598.2</ele>
        <time>2025-09-14T07:29:34Z</time>
      </trkpt>
      <trkpt lat="45.68953" lon="3.42093">
        <ele>597.8</ele>
        <time>2025-09-14T07:29:35Z</time>
      </trkpt>
      <trkpt lat="45.68955" lon="3.42094">
        <ele>597.4</ele>
        <time>2025-09-14T07:29:36Z</time>
      </trkpt>
      <trkpt lat="45.68957" lon="3.42097">
        <ele>597</ele>
        <time>2025-09-14T07:29:37Z</time>
      </trkpt>
      <trkpt lat="45.68958" lon="3.421">
        <ele>596.4</ele>
        <time>2025-09-14T07:29:38Z</time>
      </trkpt>
      <trkpt lat="45.68957" lon="3.42105">
        <ele>596</ele>
        <time>2025-09-14T07:29:39Z</time>
      </trkpt>
      <trkpt lat="45.68957" lon="3.42112">
        <ele>595.4</ele>
        <time>2025-09-14T07:29:40Z</time>
      </trkpt>
      <trkpt lat="45.68955" lon="3.4212">
        <ele>595</ele>
        <time>2025-09-14T07:29:41Z</time>
      </trkpt>
      <trkpt lat="45.68953" lon="3.42129">
        <ele>594.4</ele>
        <time>2025-09-14T07:29:42Z</time>
      </trkpt>
      <trkpt lat="45.6895" lon="3.4214">
        <ele>593.8</ele>
        <time>2025-09-14T07:29:43Z</time>
      </trkpt>
      <trkpt lat="45.68946" lon="3.42152">
        <ele>593.4</ele>
        <time>2025-09-14T07:29:44Z</time>
      </trkpt>
      <trkpt lat="45.68941" lon="3.42163">
        <ele>592.8</ele>
        <time>2025-09-14T07:29:45Z</time>
      </trkpt>
      <trkpt lat="45.68935" lon="3.42174">
        <ele>592.4</ele>
        <time>2025-09-14T07:29:46Z</time>
      </trkpt>
      <trkpt lat="45.6893" lon="3.42184">
        <ele>592</ele>
        <time>2025-09-14T07:29:47Z</time>
      </trkpt>
      <trkpt lat="45.68925" lon="3.42194">
        <ele>591.4</ele>
        <time>2025-09-14T07:29:48Z</time>
      </trkpt>
      <trkpt lat="45.6892" lon="3.42205">
        <ele>590.4</ele>
        <time>2025-09-14T07:29:49Z</time>
      </trkpt>
      <trkpt lat="45.68915" lon="3.42216">
        <ele>589.6</ele>
        <time>2025-09-14T07:29:50Z</time>
      </trkpt>
      <trkpt lat="45.68912" lon="3.42229">
        <ele>589</ele>
        <time>2025-09-14T07:29:51Z</time>
      </trkpt>
      <trkpt lat="45.6891" lon="3.42242">
        <ele>588.6</ele>
        <time>2025-09-14T07:29:52Z</time>
      </trkpt>
      <trkpt lat="45.68909" lon="3.42257">
        <ele>587.6</ele>
        <time>2025-09-14T07:29:53Z</time>
      </trkpt>
      <trkpt lat="45.68909" lon="3.42271">
        <ele>587</ele>
        <time>2025-09-14T07:29:54Z</time>
      </trkpt>
      <trkpt lat="45.68908" lon="3.42284">
        <ele>586.6</ele>
        <time>2025-09-14T07:29:55Z</time>
      </trkpt>
      <trkpt lat="45.68908" lon="3.42298">
        <ele>586.4</ele>
        <time>2025-09-14T07:29:56Z</time>
      </trkpt>
      <trkpt lat="45.68907" lon="3.42311">
        <ele>586</ele>
        <time>2025-09-14T07:29:57Z</time>
      </trkpt>
      <trkpt lat="45.68906" lon="3.42324">
        <ele>585.4</ele>
        <time>2025-09-14T07:29:58Z</time>
      </trkpt>
      <trkpt lat="45.68904" lon="3.42337">
        <ele>584.6</ele>
        <time>2025-09-14T07:29:59Z</time>
      </trkpt>
      <trkpt lat="45.68903" lon="3.42352">
        <ele>583.8</ele>
        <time>2025-09-14T07:30:00Z</time>
      </trkpt>
      <trkpt lat="45.68901" lon="3.42366">
        <ele>583.4</ele>
        <time>2025-09-14T07:30:01Z</time>
      </trkpt>
      <trkpt lat="45.68899" lon="3.4238">
        <ele>583</ele>
        <time>2025-09-14T07:30:02Z</time>
      </trkpt>
      <trkpt lat="45.68899" lon="3.42393">
        <ele>582.6</ele>
        <time>2025-09-14T07:30:03Z</time>
      </trkpt>
      <trkpt lat="45.68898" lon="3.42405">
        <ele>581.8</ele>
        <time>2025-09-14T07:30:04Z</time>
      </trkpt>
      <trkpt lat="45.68898" lon="3.42417">
        <ele>581.2</ele>
        <time>2025-09-14T07:30:05Z</time>
      </trkpt>
      <trkpt lat="45.689" lon="3.42429">
        <ele>580.4</ele>
        <time>2025-09-14T07:30:06Z</time>
      </trkpt>
      <trkpt lat="45.68903" lon="3.42438">
        <ele>579.8</ele>
        <time>2025-09-14T07:30:07Z</time>
      </trkpt>
      <trkpt lat="45.68908" lon="3.42447">
        <ele>579.2</ele>
        <time>2025-09-14T07:30:08Z</time>
      </trkpt>
      <trkpt lat="45.68915" lon="3.42454">
        <ele>578.8</ele>
        <time>2025-09-14T07:30:09Z</time>
      </trkpt>
      <trkpt lat="45.68921" lon="3.42459">
        <ele>578.4</ele>
        <time>2025-09-14T07:30:10Z</time>
      </trkpt>
      <trkpt lat="45.68927" lon="3.42464">
        <ele>578</ele>
        <time>2025-09-14T07:30:11Z</time>
      </trkpt>
      <trkpt lat="45.68933" lon="3.42471">
        <ele>577.6</ele>
        <time>2025-09-14T07:30:12Z</time>
      </trkpt>
      <trkpt lat="45.68938" lon="3.42478">
        <ele>577.4</ele>
        <time>2025-09-14T07:30:13Z</time>
      </trkpt>
      <trkpt lat="45.68943" lon="3.42484">
        <ele>577.2</ele>
        <time>2025-09-14T07:30:14Z</time>
      </trkpt>
      <trkpt lat="45.68947" lon="3.42491">
        <ele>577.2</ele>
        <time>2025-09-14T07:30:15Z</time>
      </trkpt>
      <trkpt lat="45.68951" lon="3.42498">
        <ele>577</ele>
        <time>2025-09-14T07:30:16Z</time>
      </trkpt>
      <trkpt lat="45.68954" lon="3.42506">
        <ele>576.8</ele>
        <time>2025-09-14T07:30:17Z</time>
      </trkpt>
      <trkpt lat="45.68957" lon="3.42513">
        <ele>576.8</ele>
        <time>2025-09-14T07:30:18Z</time>
      </trkpt>
      <trkpt lat="45.68959" lon="3.42522">
        <ele>576.6</ele>
        <time>2025-09-14T07:30:19Z</time>
      </trkpt>
      <trkpt lat="45.6896" lon="3.42531">
        <ele>576.6</ele>
        <time>2025-09-14T07:30:20Z</time>
      </trkpt>
      <trkpt lat="45.68962" lon="3.42539">
        <ele>576.6</ele>
        <time>2025-09-14T07:30:21Z</time>
      </trkpt>
      <trkpt lat="45.68963" lon="3.42548">
        <ele>576.6</ele>
        <time>2025-09-14T07:30:22Z</time>
      </trkpt>
      <trkpt lat="45.68965" lon="3.42556">
        <ele>576.6</ele>
        <time>2025-09-14T07:30:23Z</time>
      </trkpt>
      <trkpt lat="45.68968" lon="3.42563">
        <ele>576.6</ele>
        <time>2025-09-14T07:30:24Z</time>
      </trkpt>
      <trkpt lat="45.68972" lon="3.4257">
        <ele>576.6</ele>
        <time>2025-09-14T07:30:25Z</time>
      </trkpt>
      <trkpt lat="45.68977" lon="3.42576">
        <ele>576.6</ele>
        <time>2025-09-14T07:30:26Z</time>
      </trkpt>
      <trkpt lat="45.68982" lon="3.4258">
        <ele>576.8</ele>
        <time>2025-09-14T07:30:27Z</time>
      </trkpt>
      <trkpt lat="45.68987" lon="3.42584">
        <ele>576.8</ele>
        <time>2025-09-14T07:30:28Z</time>
      </trkpt>
      <trkpt lat="45.68992" lon="3.42586">
        <ele>577</ele>
        <time>2025-09-14T07:30:29Z</time>
      </trkpt>
      <trkpt lat="45.68997" lon="3.42588">
        <ele>577</ele>
        <time>2025-09-14T07:30:30Z</time>
      </trkpt>
      <trkpt lat="45.69002" lon="3.42589">
        <ele>577.2</ele>
        <time>2025-09-14T07:30:31Z</time>
      </trkpt>
      <trkpt lat="45.69007" lon="3.42589">
        <ele>577.2</ele>
        <time>2025-09-14T07:30:32Z</time>
      </trkpt>
      <trkpt lat="45.69011" lon="3.4259">
        <ele>577.4</ele>
        <time>2025-09-14T07:30:33Z</time>
      </trkpt>
      <trkpt lat="45.69015" lon="3.42591">
        <ele>577.4</ele>
        <time>2025-09-14T07:30:34Z</time>
      </trkpt>
      <trkpt lat="45.69019" lon="3.42592">
        <ele>577.6</ele>
        <time>2025-09-14T07:30:35Z</time>
      </trkpt>
      <trkpt lat="45.69023" lon="3.42593">
        <ele>577.6</ele>
        <time>2025-09-14T07:30:36Z</time>
      </trkpt>
      <trkpt lat="45.69028" lon="3.42593">
        <ele>577.8</ele>
        <time>2025-09-14T07:30:37Z</time>
      </trkpt>
      <trkpt lat="45.69032" lon="3.42594">
        <ele>578</ele>
        <time>2025-09-14T07:30:38Z</time>
      </trkpt>
      <trkpt lat="45.69036" lon="3.42594">
        <ele>578</ele>
        <time>2025-09-14T07:30:39Z</time>
      </trkpt>
      <trkpt lat="45.6904" lon="3.42594">
        <ele>578.2</ele>
        <time>2025-09-14T07:30:40Z</time>
      </trkpt>
      <trkpt lat="45.69044" lon="3.42595">
        <ele>578.4</ele>
        <time>2025-09-14T07:30:41Z</time>
      </trkpt>
      <trkpt lat="45.69047" lon="3.42595">
        <ele>578.6</ele>
        <time>2025-09-14T07:30:42Z</time>
      </trkpt>
      <trkpt lat="45.69052" lon="3.42595">
        <ele>578.8</ele>
        <time>2025-09-14T07:30:43Z</time>
      </trkpt>
      <trkpt lat="45.69055" lon="3.42595">
        <ele>579</ele>
        <time>2025-09-14T07:30:44Z</time>
      </trkpt>
      <trkpt lat="45.69059" lon="3.42596">
        <ele>579.2</ele>
        <time>2025-09-14T07:30:45Z</time>
      </trkpt>
      <trkpt lat="45.69062" lon="3.42596">
        <ele>579.4</ele>
        <time>2025-09-14T07:30:46Z</time>
      </trkpt>
      <trkpt lat="45.69065" lon="3.42597">
        <ele>579.6</ele>
        <time>2025-09-14T07:30:47Z</time>
      </trkpt>
      <trkpt lat="45.69067" lon="3.42599">
        <ele>579.8</ele>
        <time>2025-09-14T07:30:48Z</time>
      </trkpt>
      <trkpt lat="45.69068" lon="3.42602">
        <ele>579.8</ele>
        <time>2025-09-14T07:30:49Z</time>
      </trkpt>
      <trkpt lat="45.69068" lon="3.42605">
        <ele>579.8</ele>
        <time>2025-09-14T07:30:50Z</time>
      </trkpt>
      <trkpt lat="45.69068" lon="3.42608">
        <ele>580</ele>
        <time>2025-09-14T07:30:51Z</time>
      </trkpt>
      <trkpt lat="45.69067" lon="3.42611">
        <ele>580.2</ele>
        <time>2025-09-14T07:30:52Z</time>
      </trkpt>
      <trkpt lat="45.69066" lon="3.42615">
        <ele>580.2</ele>
        <time>2025-09-14T07:30:53Z</time>
      </trkpt>
      <trkpt lat="45.69065" lon="3.42619">
        <ele>580.2</ele>
        <time>2025-09-14T07:30:54Z</time>
      </trkpt>
      <trkpt lat="45.69065" lon="3.42622">
        <ele>580.2</ele>
        <time>2025-09-14T07:30:55Z</time>
      </trkpt>
      <trkpt lat="45.69064" lon="3.42626">
        <ele>580.2</ele>
        <time>2025-09-14T07:30:56Z</time>
      </trkpt>
      <trkpt lat="45.69063" lon="3.4263">
        <ele>580.4</ele>
        <time>2025-09-14T07:30:57Z</time>
      </trkpt>
      <trkpt lat="45.69063" lon="3.42634">
        <ele>580.4</ele>
        <time>2025-09-14T07:30:58Z</time>
      </trkpt>
      <trkpt lat="45.69062" lon="3.42638">
        <ele>580.4</ele>
        <time>2025-09-14T07:30:59Z</time>
      </trkpt>
      <trkpt lat="45.69062" lon="3.42642">
        <ele>580.4</ele>
        <time>2025-09-14T07:31:00Z</time>
      </trkpt>
      <trkpt lat="45.69061" lon="3.42646">
        <ele>580.4</ele>
        <time>2025-09-14T07:31:01Z</time>
      </trkpt>
      <trkpt lat="45.69061" lon="3.4265">
        <ele>580.4</ele>
        <time>2025-09-14T07:31:02Z</time>
      </trkpt>
      <trkpt lat="45.6906" lon="3.42653">
        <ele>580.2</ele>
        <time>2025-09-14T07:31:03Z</time>
      </trkpt>
      <trkpt lat="45.6906" lon="3.42658">
        <ele>580.2</ele>
        <time>2025-09-14T07:31:04Z</time>
      </trkpt>
      <trkpt lat="45.69059" lon="3.42663">
        <ele>580.4</ele>
        <time>2025-09-14T07:31:05Z</time>
      </trkpt>
      <trkpt lat="45.69058" lon="3.42668">
        <ele>580.6</ele>
        <time>2025-09-14T07:31:06Z</time>
      </trkpt>
      <trkpt lat="45.69057" lon="3.42674">
        <ele>580.6</ele>
        <time>2025-09-14T07:31:07Z</time>
      </trkpt>
      <trkpt lat="45.69057" lon="3.42679">
        <ele>580.8</ele>
        <time>2025-09-14T07:31:08Z</time>
      </trkpt>
      <trkpt lat="45.69056" lon="3.42684">
        <ele>580.6</ele>
        <time>2025-09-14T07:31:09Z</time>
      </trkpt>
      <trkpt lat="45.69056" lon="3.42689">
        <ele>580.6</ele>
        <time>2025-09-14T07:31:10Z</time>
      </trkpt>
      <trkpt lat="45.69056" lon="3.42694">
        <ele>580.6</ele>
        <time>2025-09-14T07:31:11Z</time>
      </trkpt>
      <trkpt lat="45.69055" lon="3.42699">
        <ele>580.4</ele>
        <time>2025-09-14T07:31:12Z</time>
      </trkpt>
      <trkpt lat="45.69055" lon="3.42704">
        <ele>580.4</ele>
        <time>2025-09-14T07:31:13Z</time>
      </trkpt>
      <trkpt lat="45.69053" lon="3.4271">
        <ele>580</ele>
        <time>2025-09-14T07:31:14Z</time>
      </trkpt>
      <trkpt lat="45.69052" lon="3.42716">
        <ele>580</ele>
        <time>2025-09-14T07:31:15Z</time>
      </trkpt>
      <trkpt lat="45.69051" lon="3.42722">
        <ele>580.2</ele>
        <time>2025-09-14T07:31:16Z</time>
      </trkpt>
      <trkpt lat="45.6905" lon="3.42728">
        <ele>580.2</ele>
        <time>2025-09-14T07:31:17Z</time>
      </trkpt>
      <trkpt lat="45.69049" lon="3.42733">
        <ele>580.2</ele>
        <time>2025-09-14T07:31:18Z</time>
      </trkpt>
      <trkpt lat="45.69047" lon="3.42739">
        <ele>580</ele>
        <time>2025-09-14T07:31:19Z</time>
      </trkpt>
      <trkpt lat="45.69045" lon="3.42744">
        <ele>580</ele>
        <time>2025-09-14T07:31:20Z</time>
      </trkpt>
      <trkpt lat="45.69043" lon="3.4275">
        <ele>580</ele>
        <time>2025-09-14T07:31:21Z</time>
      </trkpt>
      <trkpt lat="45.69041" lon="3.42755">
        <ele>580.2</ele>
        <time>2025-09-14T07:31:22Z</time>
      </trkpt>
      <trkpt lat="45.6904" lon="3.42759">
        <ele>580.2</ele>
        <time>2025-09-14T07:31:23Z</time>
      </trkpt>
      <trkpt lat="45.69038" lon="3.42764">
        <ele>580.4</ele>
        <time>2025-09-14T07:31:24Z</time>
      </trkpt>
      <trkpt lat="45.69036" lon="3.42769">
        <ele>580.6</ele>
        <time>2025-09-14T07:31:25Z</time>
      </trkpt>
      <trkpt lat="45.69034" lon="3.42774">
        <ele>580.8</ele>
        <time>2025-09-14T07:31:26Z</time>
      </trkpt>
      <trkpt lat="45.69033" lon="3.42778">
        <ele>580.8</ele>
        <time>2025-09-14T07:31:27Z</time>
      </trkpt>
      <trkpt lat="45.69032" lon="3.42782">
        <ele>581</ele>
        <time>2025-09-14T07:31:28Z</time>
      </trkpt>
      <trkpt lat="45.69031" lon="3.42787">
        <ele>581.2</ele>
        <time>2025-09-14T07:31:29Z</time>
      </trkpt>
      <trkpt lat="45.69029" lon="3.42791">
        <ele>581.4</ele>
        <time>2025-09-14T07:31:30Z</time>
      </trkpt>
      <trkpt lat="45.69028" lon="3.42796">
        <ele>581.6</ele>
        <time>2025-09-14T07:31:31Z</time>
      </trkpt>
      <trkpt lat="45.69026" lon="3.428">
        <ele>582</ele>
        <time>2025-09-14T07:31:32Z</time>
      </trkpt>
      <trkpt lat="45.69025" lon="3.42804">
        <ele>582</ele>
        <time>2025-09-14T07:31:33Z</time>
      </trkpt>
      <trkpt lat="45.69024" lon="3.42808">
        <ele>582.2</ele>
        <time>2025-09-14T07:31:34Z</time>
      </trkpt>
      <trkpt lat="45.69023" lon="3.42812">
        <ele>582.4</ele>
        <time>2025-09-14T07:31:35Z</time>
      </trkpt>
      <trkpt lat="45.69023" lon="3.42816">
        <ele>582.6</ele>
        <time>2025-09-14T07:31:36Z</time>
      </trkpt>
      <trkpt lat="45.69022" lon="3.42819">
        <ele>582.8</ele>
        <time>2025-09-14T07:31:37Z</time>
      </trkpt>
      <trkpt lat="45.69021" lon="3.42822">
        <ele>583</ele>
        <time>2025-09-14T07:31:38Z</time>
      </trkpt>
      <trkpt lat="45.69019" lon="3.42826">
        <ele>583.4</ele>
        <time>2025-09-14T07:31:39Z</time>
      </trkpt>
      <trkpt lat="45.69018" lon="3.42829">
        <ele>583.6</ele>
        <time>2025-09-14T07:31:40Z</time>
      </trkpt>
      <trkpt lat="45.69017" lon="3.42832">
        <ele>583.8</ele>
        <time>2025-09-14T07:31:41Z</time>
      </trkpt>
      <trkpt lat="45.69015" lon="3.42835">
        <ele>584</ele>
        <time>2025-09-14T07:31:42Z</time>
      </trkpt>
      <trkpt lat="45.69014" lon="3.42838">
        <ele>584.4</ele>
        <time>2025-09-14T07:31:43Z</time>
      </trkpt>
      <trkpt lat="45.69013" lon="3.42841">
        <ele>584.8</ele>
        <time>2025-09-14T07:31:44Z</time>
      </trkpt>
      <trkpt lat="45.69012" lon="3.42845">
        <ele>585.2</ele>
        <time>2025-09-14T07:31:45Z</time>
      </trkpt>
      <trkpt lat="45.69011" lon="3.42848">
        <ele>585.4</ele>
        <time>2025-09-14T07:31:46Z</time>
      </trkpt>
      <trkpt lat="45.6901" lon="3.42851">
        <ele>585.8</ele>
        <time>2025-09-14T07:31:47Z</time>
      </trkpt>
      <trkpt lat="45.69009" lon="3.42853">
        <ele>585.8</ele>
        <time>2025-09-14T07:31:48Z</time>
      </trkpt>
      <trkpt lat="45.69008" lon="3.42855">
        <ele>586</ele>
        <time>2025-09-14T07:31:49Z</time>
      </trkpt>
      <trkpt lat="45.69007" lon="3.42857">
        <ele>586.2</ele>
        <time>2025-09-14T07:31:50Z</time>
      </trkpt>
      <trkpt lat="45.69006" lon="3.42859">
        <ele>586.4</ele>
        <time>2025-09-14T07:31:51Z</time>
      </trkpt>
      <trkpt lat="45.69005" lon="3.4286">
        <ele>586.4</ele>
        <time>2025-09-14T07:31:52Z</time>
      </trkpt>
      <trkpt lat="45.69004" lon="3.42862">
        <ele>586.6</ele>
        <time>2025-09-14T07:31:53Z</time>
      </trkpt>
      <trkpt lat="45.69003" lon="3.42865">
        <ele>586.8</ele>
        <time>2025-09-14T07:31:54Z</time>
      </trkpt>
      <trkpt lat="45.69002" lon="3.42867">
        <ele>587</ele>
        <time>2025-09-14T07:31:55Z</time>
      </trkpt>
      <trkpt lat="45.69" lon="3.42869">
        <ele>587</ele>
        <time>2025-09-14T07:31:56Z</time>
      </trkpt>
      <trkpt lat="45.68999" lon="3.42871">
        <ele>587.4</ele>
        <time>2025-09-14T07:31:57Z</time>
      </trkpt>
      <trkpt lat="45.68998" lon="3.42874">
        <ele>587.8</ele>
        <time>2025-09-14T07:31:58Z</time>
      </trkpt>
      <trkpt lat="45.68997" lon="3.42876">
        <ele>588</ele>
        <time>2025-09-14T07:31:59Z</time>
      </trkpt>
      <trkpt lat="45.68996" lon="3.42877">
        <ele>588</ele>
        <time>2025-09-14T07:32:00Z</time>
      </trkpt>
      <trkpt lat="45.68994" lon="3.4288">
        <ele>588.2</ele>
        <time>2025-09-14T07:32:01Z</time>
      </trkpt>
      <trkpt lat="45.68993" lon="3.42882">
        <ele>588.6</ele>
        <time>2025-09-14T07:32:02Z</time>
      </trkpt>
      <trkpt lat="45.68992" lon="3.42885">
        <ele>589</ele>
        <time>2025-09-14T07:32:03Z</time>
      </trkpt>
      <trkpt lat="45.68991" lon="3.42887">
        <ele>589.4</ele>
        <time>2025-09-14T07:32:04Z</time>
      </trkpt>
      <trkpt lat="45.68989" lon="3.42889">
        <ele>589.6</ele>
        <time>2025-09-14T07:32:05Z</time>
      </trkpt>
      <trkpt lat="45.68988" lon="3.42891">
        <ele>589.8</ele>
        <time>2025-09-14T07:32:06Z</time>
      </trkpt>
      <trkpt lat="45.68986" lon="3.42893">
        <ele>590.2</ele>
        <time>2025-09-14T07:32:07Z</time>
      </trkpt>
      <trkpt lat="45.68984" lon="3.42895">
        <ele>590.6</ele>
        <time>2025-09-14T07:32:08Z</time>
      </trkpt>
      <trkpt lat="45.68982" lon="3.42897">
        <ele>590.8</ele>
        <time>2025-09-14T07:32:09Z</time>
      </trkpt>
      <trkpt lat="45.6898" lon="3.42899">
        <ele>591</ele>
        <time>2025-09-14T07:32:10Z</time>
      </trkpt>
      <trkpt lat="45.68978" lon="3.429">
        <ele>591</ele>
        <time>2025-09-14T07:32:11Z</time>
      </trkpt>
      <trkpt lat="45.68976" lon="3.42902">
        <ele>591.2</ele>
        <time>2025-09-14T07:32:12Z</time>
      </trkpt>
      <trkpt lat="45.68974" lon="3.42903">
        <ele>591.4</ele>
        <time>2025-09-14T07:32:13Z</time>
      </trkpt>
      <trkpt lat="45.68973" lon="3.42905">
        <ele>591.4</ele>
        <time>2025-09-14T07:32:14Z</time>
      </trkpt>
      <trkpt lat="45.68971" lon="3.42907">
        <ele>591.6</ele>
        <time>2025-09-14T07:32:15Z</time>
      </trkpt>
      <trkpt lat="45.68969" lon="3.42909">
        <ele>591.6</ele>
        <time>2025-09-14T07:32:16Z</time>
      </trkpt>
      <trkpt lat="45.68968" lon="3.42911">
        <ele>591.8</ele>
        <time>2025-09-14T07:32:17Z</time>
      </trkpt>
      <trkpt lat="45.68966" lon="3.42914">
        <ele>591.8</ele>
        <time>2025-09-14T07:32:18Z</time>
      </trkpt>
      <trkpt lat="45.68965" lon="3.42916">
        <ele>592</ele>
        <time>2025-09-14T07:32:19Z</time>
      </trkpt>
      <trkpt lat="45.68963" lon="3.42919">
        <ele>592</ele>
        <time>2025-09-14T07:32:20Z</time>
      </trkpt>
      <trkpt lat="45.68962" lon="3.42921">
        <ele>592.2</ele>
        <time>2025-09-14T07:32:21Z</time>
      </trkpt>
      <trkpt lat="45.6896" lon="3.42924">
        <ele>592.2</ele>
        <time>2025-09-14T07:32:22Z</time>
      </trkpt>
      <trkpt lat="45.68958" lon="3.42926">
        <ele>592.2</ele>
        <time>2025-09-14T07:32:23Z</time>
      </trkpt>
      <trkpt lat="45.68956" lon="3.42929">
        <ele>592.4</ele>
        <time>2025-09-14T07:32:24Z</time>
      </trkpt>
      <trkpt lat="45.68955" lon="3.42932">
        <ele>592.4</ele>
        <time>2025-09-14T07:32:25Z</time>
      </trkpt>
      <trkpt lat="45.68954" lon="3.42935">
        <ele>592.6</ele>
        <time>2025-09-14T07:32:26Z</time>
      </trkpt>
      <trkpt lat="45.68952" lon="3.42938">
        <ele>592.8</ele>
        <time>2025-09-14T07:32:27Z</time>
      </trkpt>
      <trkpt lat="45.68951" lon="3.42941">
        <ele>592.8</ele>
        <time>2025-09-14T07:32:28Z</time>
      </trkpt>
      <trkpt lat="45.68949" lon="3.42944">
        <ele>592.8</ele>
        <time>2025-09-14T07:32:29Z</time>
      </trkpt>
      <trkpt lat="45.68948" lon="3.42947">
        <ele>592.8</ele>
        <time>2025-09-14T07:32:30Z</time>
      </trkpt>
      <trkpt lat="45.68947" lon="3.4295">
        <ele>592.8</ele>
        <time>2025-09-14T07:32:31Z</time>
      </trkpt>
      <trkpt lat="45.68945" lon="3.42952">
        <ele>593</ele>
        <time>2025-09-14T07:32:32Z</time>
      </trkpt>
      <trkpt lat="45.68944" lon="3.42956">
        <ele>593</ele>
        <time>2025-09-14T07:32:33Z</time>
      </trkpt>
      <trkpt lat="45.68942" lon="3.42959">
        <ele>593</ele>
        <time>2025-09-14T07:32:34Z</time>
      </trkpt>
      <trkpt lat="45.68941" lon="3.42962">
        <ele>593</ele>
        <time>2025-09-14T07:32:35Z</time>
      </trkpt>
      <trkpt lat="45.6894" lon="3.42965">
        <ele>593</ele>
        <time>2025-09-14T07:32:36Z</time>
      </trkpt>
      <trkpt lat="45.68939" lon="3.42968">
        <ele>593</ele>
        <time>2025-09-14T07:32:37Z</time>
      </trkpt>
      <trkpt lat="45.68938" lon="3.42971">
        <ele>593</ele>
        <time>2025-09-14T07:32:38Z</time>
      </trkpt>
      <trkpt lat="45.68936" lon="3.42973">
        <ele>593.2</ele>
        <time>2025-09-14T07:32:39Z</time>
      </trkpt>
      <trkpt lat="45.68935" lon="3.42976">
        <ele>593.2</ele>
        <time>2025-09-14T07:32:40Z</time>
      </trkpt>
      <trkpt lat="45.68934" lon="3.42978">
        <ele>593.4</ele>
        <time>2025-09-14T07:32:41Z</time>
      </trkpt>
      <trkpt lat="45.68933" lon="3.4298">
        <ele>593.4</ele>
        <time>2025-09-14T07:32:42Z</time>
      </trkpt>
      <trkpt lat="45.68933" lon="3.42982">
        <ele>593.6</ele>
        <time>2025-09-14T07:32:43Z</time>
      </trkpt>
      <trkpt lat="45.68934" lon="3.42984">
        <ele>593.6</ele>
        <time>2025-09-14T07:32:44Z</time>
      </trkpt>
      <trkpt lat="45.68935" lon="3.42985">
        <ele>593.6</ele>
        <time>2025-09-14T07:32:45Z</time>
      </trkpt>
      <trkpt lat="45.68936" lon="3.42987">
        <ele>593.6</ele>
        <time>2025-09-14T07:32:46Z</time>
      </trkpt>
      <trkpt lat="45.68936" lon="3.42989">
        <ele>593.6</ele>
        <time>2025-09-14T07:32:47Z</time>
      </trkpt>
      <trkpt lat="45.68938" lon="3.42991">
        <ele>593.8</ele>
        <time>2025-09-14T07:32:48Z</time>
      </trkpt>
      <trkpt lat="45.68939" lon="3.42995">
        <ele>594</ele>
        <time>2025-09-14T07:32:49Z</time>
      </trkpt>
      <trkpt lat="45.68941" lon="3.42998">
        <ele>594</ele>
        <time>2025-09-14T07:32:50Z</time>
      </trkpt>
      <trkpt lat="45.68943" lon="3.43002">
        <ele>594</ele>
        <time>2025-09-14T07:32:51Z</time>
      </trkpt>
      <trkpt lat="45.68945" lon="3.43004">
        <ele>594</ele>
        <time>2025-09-14T07:32:52Z</time>
      </trkpt>
      <trkpt lat="45.68948" lon="3.43007">
        <ele>594</ele>
        <time>2025-09-14T07:32:53Z</time>
      </trkpt>
      <trkpt lat="45.6895" lon="3.43009">
        <ele>594</ele>
        <time>2025-09-14T07:32:54Z</time>
      </trkpt>
      <trkpt lat="45.68953" lon="3.43012">
        <ele>594.2</ele>
        <time>2025-09-14T07:32:55Z</time>
      </trkpt>
      <trkpt lat="45.68955" lon="3.43014">
        <ele>594.2</ele>
        <time>2025-09-14T07:32:56Z</time>
      </trkpt>
      <trkpt lat="45.68957" lon="3.43016">
        <ele>594.2</ele>
        <time>2025-09-14T07:32:57Z</time>
      </trkpt>
      <trkpt lat="45.68959" lon="3.43018">
        <ele>594.2</ele>
        <time>2025-09-14T07:32:58Z</time>
      </trkpt>
      <trkpt lat="45.68962" lon="3.43021">
        <ele>594.4</ele>
        <time>2025-09-14T07:32:59Z</time>
      </trkpt>
      <trkpt lat="45.68964" lon="3.43023">
        <ele>594.4</ele>
        <time>2025-09-14T07:33:00Z</time>
      </trkpt>
      <trkpt lat="45.68966" lon="3.43025">
        <ele>594.2</ele>
        <time>2025-09-14T07:33:01Z</time>
      </trkpt>
      <trkpt lat="45.68968" lon="3.43027">
        <ele>594.2</ele>
        <time>2025-09-14T07:33:02Z</time>
      </trkpt>
      <trkpt lat="45.6897" lon="3.4303">
        <ele>594.4</ele>
        <time>2025-09-14T07:33:03Z</time>
      </trkpt>
      <trkpt lat="45.68972" lon="3.43033">
        <ele>594.4</ele>
        <time>2025-09-14T07:33:04Z</time>
      </trkpt>
      <trkpt lat="45.68971" lon="3.43037">
        <ele>594.4</ele>
        <time>2025-09-14T07:33:05Z</time>
      </trkpt>
      <trkpt lat="45.6897" lon="3.4304">
        <ele>594.2</ele>
        <time>2025-09-14T07:33:06Z</time>
      </trkpt>
      <trkpt lat="45.68967" lon="3.43042">
        <ele>594.2</ele>
        <time>2025-09-14T07:33:07Z</time>
      </trkpt>
      <trkpt lat="45.68963" lon="3.43044">
        <ele>594.2</ele>
        <time>2025-09-14T07:33:08Z</time>
      </trkpt>
      <trkpt lat="45.68959" lon="3.43045">
        <ele>594</ele>
        <time>2025-09-14T07:33:09Z</time>
      </trkpt>
      <trkpt lat="45.68955" lon="3.43047">
        <ele>594</ele>
        <time>2025-09-14T07:33:10Z</time>
      </trkpt>
      <trkpt lat="45.68951" lon="3.4305">
        <ele>593.8</ele>
        <time>2025-09-14T07:33:11Z</time>
      </trkpt>
      <trkpt lat="45.68947" lon="3.43052">
        <ele>593.6</ele>
        <time>2025-09-14T07:33:12Z</time>
      </trkpt>
      <trkpt lat="45.68942" lon="3.43055">
        <ele>593.4</ele>
        <time>2025-09-14T07:33:13Z</time>
      </trkpt>
      <trkpt lat="45.68938" lon="3.43057">
        <ele>593.4</ele>
        <time>2025-09-14T07:33:14Z</time>
      </trkpt>
      <trkpt lat="45.68934" lon="3.4306">
        <ele>593.2</ele>
        <time>2025-09-14T07:33:15Z</time>
      </trkpt>
      <trkpt lat="45.68929" lon="3.43063">
        <ele>593</ele>
        <time>2025-09-14T07:33:16Z</time>
      </trkpt>
      <trkpt lat="45.68924" lon="3.43066">
        <ele>592.6</ele>
        <time>2025-09-14T07:33:17Z</time>
      </trkpt>
      <trkpt lat="45.68919" lon="3.43069">
        <ele>592.4</ele>
        <time>2025-09-14T07:33:18Z</time>
      </trkpt>
      <trkpt lat="45.68914" lon="3.43073">
        <ele>592.2</ele>
        <time>2025-09-14T07:33:19Z</time>
      </trkpt>
      <trkpt lat="45.68909" lon="3.43076">
        <ele>591.8</ele>
        <time>2025-09-14T07:33:20Z</time>
      </trkpt>
      <trkpt lat="45.68904" lon="3.4308">
        <ele>591.6</ele>
        <time>2025-09-14T07:33:21Z</time>
      </trkpt>
      <trkpt lat="45.68898" lon="3.43084">
        <ele>591.2</ele>
        <time>2025-09-14T07:33:22Z</time>
      </trkpt>
      <trkpt lat="45.68893" lon="3.43088">
        <ele>591</ele>
        <time>2025-09-14T07:33:23Z</time>
      </trkpt>
      <trkpt lat="45.68888" lon="3.43092">
        <ele>590.6</ele>
        <time>2025-09-14T07:33:24Z</time>
      </trkpt>
      <trkpt lat="45.68882" lon="3.43096">
        <ele>590.2</ele>
        <time>2025-09-14T07:33:25Z</time>
      </trkpt>
      <trkpt lat="45.68877" lon="3.431">
        <ele>589.8</ele>
        <time>2025-09-14T07:33:26Z</time>
      </trkpt>
      <trkpt lat="45.68871" lon="3.43105">
        <ele>589.4</ele>
        <time>2025-09-14T07:33:27Z</time>
      </trkpt>
      <trkpt lat="45.68866" lon="3.43109">
        <ele>589.2</ele>
        <time>2025-09-14T07:33:28Z</time>
      </trkpt>
      <trkpt lat="45.6886" lon="3.43114">
        <ele>588.6</ele>
        <time>2025-09-14T07:33:29Z</time>
      </trkpt>
      <trkpt lat="45.68854" lon="3.43119">
        <ele>588.2</ele>
        <time>2025-09-14T07:33:30Z</time>
      </trkpt>
      <trkpt lat="45.68848" lon="3.43124">
        <ele>587.4</ele>
        <time>2025-09-14T07:33:31Z</time>
      </trkpt>
      <trkpt lat="45.68843" lon="3.43129">
        <ele>586.8</ele>
        <time>2025-09-14T07:33:32Z</time>
      </trkpt>
      <trkpt lat="45.68836" lon="3.43135">
        <ele>586.2</ele>
        <time>2025-09-14T07:33:33Z</time>
      </trkpt>
      <trkpt lat="45.68831" lon="3.43142">
        <ele>585.4</ele>
        <time>2025-09-14T07:33:34Z</time>
      </trkpt>
      <trkpt lat="45.68826" lon="3.43149">
        <ele>584.6</ele>
        <time>2025-09-14T07:33:35Z</time>
      </trkpt>
      <trkpt lat="45.68822" lon="3.43157">
        <ele>584</ele>
        <time>2025-09-14T07:33:36Z</time>
      </trkpt>
      <trkpt lat="45.68818" lon="3.43166">
        <ele>583.2</ele>
        <time>2025-09-14T07:33:37Z</time>
      </trkpt>
      <trkpt lat="45.68815" lon="3.43175">
        <ele>582.6</ele>
        <time>2025-09-14T07:33:38Z</time>
      </trkpt>
      <trkpt lat="45.68813" lon="3.43183">
        <ele>581.8</ele>
        <time>2025-09-14T07:33:39Z</time>
      </trkpt>
      <trkpt lat="45.6881" lon="3.43191">
        <ele>581.2</ele>
        <time>2025-09-14T07:33:40Z</time>
      </trkpt>
      <trkpt lat="45.68806" lon="3.43198">
        <ele>580.4</ele>
        <time>2025-09-14T07:33:41Z</time>
      </trkpt>
      <trkpt lat="45.68802" lon="3.43203">
        <ele>579.8</ele>
        <time>2025-09-14T07:33:42Z</time>
      </trkpt>
      <trkpt lat="45.68798" lon="3.43208">
        <ele>579.4</ele>
        <time>2025-09-14T07:33:43Z</time>
      </trkpt>
      <trkpt lat="45.68794" lon="3.43212">
        <ele>578.8</ele>
        <time>2025-09-14T07:33:44Z</time>
      </trkpt>
      <trkpt lat="45.6879" lon="3.43216">
        <ele>578.2</ele>
        <time>2025-09-14T07:33:45Z</time>
      </trkpt>
      <trkpt lat="45.68787" lon="3.43222">
        <ele>577.6</ele>
        <time>2025-09-14T07:33:46Z</time>
      </trkpt>
      <trkpt lat="45.68784" lon="3.43226">
        <ele>577</ele>
        <time>2025-09-14T07:33:47Z</time>
      </trkpt>
      <trkpt lat="45.68781" lon="3.4323">
        <ele>576.2</ele>
        <time>2025-09-14T07:33:48Z</time>
      </trkpt>
      <trkpt lat="45.68778" lon="3.43236">
        <ele>575.4</ele>
        <time>2025-09-14T07:33:49Z</time>
      </trkpt>
      <trkpt lat="45.68775" lon="3.43243">
        <ele>574.6</ele>
        <time>2025-09-14T07:33:50Z</time>
      </trkpt>
      <trkpt lat="45.68774" lon="3.43251">
        <ele>573.8</ele>
        <time>2025-09-14T07:33:51Z</time>
      </trkpt>
      <trkpt lat="45.68773" lon="3.4326">
        <ele>573.2</ele>
        <time>2025-09-14T07:33:52Z</time>
      </trkpt>
      <trkpt lat="45.68773" lon="3.4327">
        <ele>572.8</ele>
        <time>2025-09-14T07:33:53Z</time>
      </trkpt>
      <trkpt lat="45.68773" lon="3.4328">
        <ele>572.4</ele>
        <time>2025-09-14T07:33:54Z</time>
      </trkpt>
      <trkpt lat="45.68773" lon="3.4329">
        <ele>572</ele>
        <time>2025-09-14T07:33:55Z</time>
      </trkpt>
      <trkpt lat="45.68773" lon="3.433">
        <ele>571.4</ele>
        <time>2025-09-14T07:33:56Z</time>
      </trkpt>
      <trkpt lat="45.68773" lon="3.4331">
        <ele>570.6</ele>
        <time>2025-09-14T07:33:57Z</time>
      </trkpt>
      <trkpt lat="45.68773" lon="3.43319">
        <ele>569.8</ele>
        <time>2025-09-14T07:33:58Z</time>
      </trkpt>
      <trkpt lat="45.68773" lon="3.43329">
        <ele>569</ele>
        <time>2025-09-14T07:33:59Z</time>
      </trkpt>
      <trkpt lat="45.68773" lon="3.43339">
        <ele>568.4</ele>
        <time>2025-09-14T07:34:00Z</time>
      </trkpt>
      <trkpt lat="45.68773" lon="3.4335">
        <ele>567.8</ele>
        <time>2025-09-14T07:34:01Z</time>
      </trkpt>
      <trkpt lat="45.68773" lon="3.4336">
        <ele>567</ele>
        <time>2025-09-14T07:34:02Z</time>
      </trkpt>
      <trkpt lat="45.68773" lon="3.4337">
        <ele>566.2</ele>
        <time>2025-09-14T07:34:03Z</time>
      </trkpt>
      <trkpt lat="45.68774" lon="3.4338">
        <ele>565.4</ele>
        <time>2025-09-14T07:34:04Z</time>
      </trkpt>
      <trkpt lat="45.68774" lon="3.43391">
        <ele>564.6</ele>
        <time>2025-09-14T07:34:05Z</time>
      </trkpt>
      <trkpt lat="45.68775" lon="3.43401">
        <ele>564</ele>
        <time>2025-09-14T07:34:06Z</time>
      </trkpt>
      <trkpt lat="45.68775" lon="3.43411">
        <ele>563.2</ele>
        <time>2025-09-14T07:34:07Z</time>
      </trkpt>
      <trkpt lat="45.68775" lon="3.43421">
        <ele>562.4</ele>
        <time>2025-09-14T07:34:08Z</time>
      </trkpt>
      <trkpt lat="45.68775" lon="3.4343">
        <ele>561.8</ele>
        <time>2025-09-14T07:34:09Z</time>
      </trkpt>
      <trkpt lat="45.68775" lon="3.43438">
        <ele>561</ele>
        <time>2025-09-14T07:34:10Z</time>
      </trkpt>
      <trkpt lat="45.68774" lon="3.43447">
        <ele>560.4</ele>
        <time>2025-09-14T07:34:11Z</time>
      </trkpt>
      <trkpt lat="45.68773" lon="3.43454">
        <ele>559.6</ele>
        <time>2025-09-14T07:34:12Z</time>
      </trkpt>
      <trkpt lat="45.68771" lon="3.43462">
        <ele>559</ele>
        <time>2025-09-14T07:34:13Z</time>
      </trkpt>
      <trkpt lat="45.6877" lon="3.4347">
        <ele>558.4</ele>
        <time>2025-09-14T07:34:14Z</time>
      </trkpt>
      <trkpt lat="45.68767" lon="3.43478">
        <ele>557.8</ele>
        <time>2025-09-14T07:34:15Z</time>
      </trkpt>
      <trkpt lat="45.68765" lon="3.43486">
        <ele>557.2</ele>
        <time>2025-09-14T07:34:16Z</time>
      </trkpt>
      <trkpt lat="45.68763" lon="3.43494">
        <ele>556.6</ele>
        <time>2025-09-14T07:34:17Z</time>
      </trkpt>
      <trkpt lat="45.68761" lon="3.43502">
        <ele>556</ele>
        <time>2025-09-14T07:34:18Z</time>
      </trkpt>
      <trkpt lat="45.68759" lon="3.4351">
        <ele>555.4</ele>
        <time>2025-09-14T07:34:19Z</time>
      </trkpt>
      <trkpt lat="45.68757" lon="3.43518">
        <ele>554.8</ele>
        <time>2025-09-14T07:34:20Z</time>
      </trkpt>
      <trkpt lat="45.68755" lon="3.43526">
        <ele>554.4</ele>
        <time>2025-09-14T07:34:21Z</time>
      </trkpt>
      <trkpt lat="45.68754" lon="3.43533">
        <ele>553.8</ele>
        <time>2025-09-14T07:34:22Z</time>
      </trkpt>
      <trkpt lat="45.68752" lon="3.43539">
        <ele>553.2</ele>
        <time>2025-09-14T07:34:23Z</time>
      </trkpt>
      <trkpt lat="45.6875" lon="3.43545">
        <ele>552.6</ele>
        <time>2025-09-14T07:34:24Z</time>
      </trkpt>
      <trkpt lat="45.68748" lon="3.4355">
        <ele>552</ele>
        <time>2025-09-14T07:34:25Z</time>
      </trkpt>
      <trkpt lat="45.68748" lon="3.43556">
        <ele>551.4</ele>
        <time>2025-09-14T07:34:26Z</time>
      </trkpt>
      <trkpt lat="45.68747" lon="3.43562">
        <ele>550.8</ele>
        <time>2025-09-14T07:34:27Z</time>
      </trkpt>
      <trkpt lat="45.68746" lon="3.43571">
        <ele>550.4</ele>
        <time>2025-09-14T07:34:28Z</time>
      </trkpt>
      <trkpt lat="45.68745" lon="3.4358">
        <ele>549.8</ele>
        <time>2025-09-14T07:34:29Z</time>
      </trkpt>
      <trkpt lat="45.68742" lon="3.4359">
        <ele>549.2</ele>
        <time>2025-09-14T07:34:30Z</time>
      </trkpt>
      <trkpt lat="45.68739" lon="3.43597">
        <ele>548.8</ele>
        <time>2025-09-14T07:34:31Z</time>
      </trkpt>
      <trkpt lat="45.68736" lon="3.43605">
        <ele>548.6</ele>
        <time>2025-09-14T07:34:32Z</time>
      </trkpt>
      <trkpt lat="45.68733" lon="3.43611">
        <ele>548.4</ele>
        <time>2025-09-14T07:34:33Z</time>
      </trkpt>
      <trkpt lat="45.6873" lon="3.43617">
        <ele>548.2</ele>
        <time>2025-09-14T07:34:34Z</time>
      </trkpt>
      <trkpt lat="45.68727" lon="3.43622">
        <ele>547.8</ele>
        <time>2025-09-14T07:34:35Z</time>
      </trkpt>
      <trkpt lat="45.68724" lon="3.43628">
        <ele>547.4</ele>
        <time>2025-09-14T07:34:36Z</time>
      </trkpt>
      <trkpt lat="45.68721" lon="3.43633">
        <ele>547</ele>
        <time>2025-09-14T07:34:37Z</time>
      </trkpt>
      <trkpt lat="45.68717" lon="3.43637">
        <ele>546.4</ele>
        <time>2025-09-14T07:34:38Z</time>
      </trkpt>
      <trkpt lat="45.68712" lon="3.43641">
        <ele>545.8</ele>
        <time>2025-09-14T07:34:39Z</time>
      </trkpt>
      <trkpt lat="45.68705" lon="3.43644">
        <ele>545.2</ele>
        <time>2025-09-14T07:34:40Z</time>
      </trkpt>
      <trkpt lat="45.68697" lon="3.43645">
        <ele>544.6</ele>
        <time>2025-09-14T07:34:41Z</time>
      </trkpt>
      <trkpt lat="45.68688" lon="3.43647">
        <ele>544</ele>
        <time>2025-09-14T07:34:42Z</time>
      </trkpt>
      <trkpt lat="45.68677" lon="3.43649">
        <ele>543.6</ele>
        <time>2025-09-14T07:34:43Z</time>
      </trkpt>
      <trkpt lat="45.6867" lon="3.43651">
        <ele>543.4</ele>
        <time>2025-09-14T07:34:44Z</time>
      </trkpt>
      <trkpt lat="45.68663" lon="3.43653">
        <ele>543</ele>
        <time>2025-09-14T07:34:45Z</time>
      </trkpt>
      <trkpt lat="45.68657" lon="3.43657">
        <ele>542.6</ele>
        <time>2025-09-14T07:34:46Z</time>
      </trkpt>
      <trkpt lat="45.6865" lon="3.4366">
        <ele>542</ele>
        <time>2025-09-14T07:34:47Z</time>
      </trkpt>
      <trkpt lat="45.68644" lon="3.43663">
        <ele>541.4</ele>
        <time>2025-09-14T07:34:48Z</time>
      </trkpt>
      <trkpt lat="45.68638" lon="3.43667">
        <ele>541</ele>
        <time>2025-09-14T07:34:49Z</time>
      </trkpt>
      <trkpt lat="45.68633" lon="3.43671">
        <ele>540.6</ele>
        <time>2025-09-14T07:34:50Z</time>
      </trkpt>
      <trkpt lat="45.68627" lon="3.43674">
        <ele>540</ele>
        <time>2025-09-14T07:34:51Z</time>
      </trkpt>
      <trkpt lat="45.68621" lon="3.43677">
        <ele>539.4</ele>
        <time>2025-09-14T07:34:52Z</time>
      </trkpt>
      <trkpt lat="45.68616" lon="3.43681">
        <ele>538.8</ele>
        <time>2025-09-14T07:34:53Z</time>
      </trkpt>
      <trkpt lat="45.6861" lon="3.43685">
        <ele>538</ele>
        <time>2025-09-14T07:34:54Z</time>
      </trkpt>
      <trkpt lat="45.68605" lon="3.4369">
        <ele>537.2</ele>
        <time>2025-09-14T07:34:55Z</time>
      </trkpt>
      <trkpt lat="45.68601" lon="3.43695">
        <ele>536.4</ele>
        <time>2025-09-14T07:34:56Z</time>
      </trkpt>
      <trkpt lat="45.68596" lon="3.43701">
        <ele>535.8</ele>
        <time>2025-09-14T07:34:57Z</time>
      </trkpt>
      <trkpt lat="45.6859" lon="3.43706">
        <ele>535</ele>
        <time>2025-09-14T07:34:58Z</time>
      </trkpt>
      <trkpt lat="45.68584" lon="3.43709">
        <ele>534.4</ele>
        <time>2025-09-14T07:34:59Z</time>
      </trkpt>
      <trkpt lat="45.68579" lon="3.4371">
        <ele>533.8</ele>
        <time>2025-09-14T07:35:00Z</time>
      </trkpt>
      <trkpt lat="45.68574" lon="3.4371">
        <ele>533.2</ele>
        <time>2025-09-14T07:35:01Z</time>
      </trkpt>
      <trkpt lat="45.68569" lon="3.43713">
        <ele>532.6</ele>
        <time>2025-09-14T07:35:02Z</time>
      </trkpt>
      <trkpt lat="45.68564" lon="3.43716">
        <ele>532</ele>
        <time>2025-09-14T07:35:03Z</time>
      </trkpt>
      <trkpt lat="45.68557" lon="3.4372">
        <ele>531.4</ele>
        <time>2025-09-14T07:35:04Z</time>
      </trkpt>
      <trkpt lat="45.68551" lon="3.43724">
        <ele>531</ele>
        <time>2025-09-14T07:35:05Z</time>
      </trkpt>
      <trkpt lat="45.68545" lon="3.43728">
        <ele>530.4</ele>
        <time>2025-09-14T07:35:06Z</time>
      </trkpt>
      <trkpt lat="45.68539" lon="3.43732">
        <ele>529.6</ele>
        <time>2025-09-14T07:35:07Z</time>
      </trkpt>
      <trkpt lat="45.68531" lon="3.43736">
        <ele>529</ele>
        <time>2025-09-14T07:35:08Z</time>
      </trkpt>
      <trkpt lat="45.68521" lon="3.43739">
        <ele>528.4</ele>
        <time>2025-09-14T07:35:09Z</time>
      </trkpt>
      <trkpt lat="45.68513" lon="3.43742">
        <ele>528</ele>
        <time>2025-09-14T07:35:10Z</time>
      </trkpt>
      <trkpt lat="45.68506" lon="3.43744">
        <ele>527.6</ele>
        <time>2025-09-14T07:35:11Z</time>
      </trkpt>
      <trkpt lat="45.685" lon="3.43748">
        <ele>527.2</ele>
        <time>2025-09-14T07:35:12Z</time>
      </trkpt>
      <trkpt lat="45.68493" lon="3.43751">
        <ele>526.8</ele>
        <time>2025-09-14T07:35:13Z</time>
      </trkpt>
      <trkpt lat="45.68487" lon="3.43754">
        <ele>526.6</ele>
        <time>2025-09-14T07:35:14Z</time>
      </trkpt>
      <trkpt lat="45.68481" lon="3.43757">
        <ele>526.2</ele>
        <time>2025-09-14T07:35:15Z</time>
      </trkpt>
      <trkpt lat="45.68474" lon="3.4376">
        <ele>526</ele>
        <time>2025-09-14T07:35:16Z</time>
      </trkpt>
      <trkpt lat="45.68468" lon="3.43763">
        <ele>525.6</ele>
        <time>2025-09-14T07:35:17Z</time>
      </trkpt>
      <trkpt lat="45.68462" lon="3.43766">
        <ele>525.4</ele>
        <time>2025-09-14T07:35:18Z</time>
      </trkpt>
      <trkpt lat="45.68456" lon="3.43769">
        <ele>525.2</ele>
        <time>2025-09-14T07:35:19Z</time>
      </trkpt>
      <trkpt lat="45.6845" lon="3.43772">
        <ele>525</ele>
        <time>2025-09-14T07:35:20Z</time>
      </trkpt>
      <trkpt lat="45.68445" lon="3.43774">
        <ele>524.8</ele>
        <time>2025-09-14T07:35:21Z</time>
      </trkpt>
      <trkpt lat="45.68439" lon="3.43775">
        <ele>524.4</ele>
        <time>2025-09-14T07:35:22Z</time>
      </trkpt>
      <trkpt lat="45.68434" lon="3.43777">
        <ele>524</ele>
        <time>2025-09-14T07:35:23Z</time>
      </trkpt>
      <trkpt lat="45.68429" lon="3.43779">
        <ele>523.8</ele>
        <time>2025-09-14T07:35:24Z</time>
      </trkpt>
      <trkpt lat="45.68423" lon="3.43782">
        <ele>523.4</ele>
        <time>2025-09-14T07:35:25Z</time>
      </trkpt>
      <trkpt lat="45.68418" lon="3.43784">
        <ele>523</ele>
        <time>2025-09-14T07:35:26Z</time>
      </trkpt>
      <trkpt lat="45.68412" lon="3.43786">
        <ele>522.6</ele>
        <time>2025-09-14T07:35:27Z</time>
      </trkpt>
      <trkpt lat="45.68405" lon="3.43788">
        <ele>522.2</ele>
        <time>2025-09-14T07:35:28Z</time>
      </trkpt>
      <trkpt lat="45.68399" lon="3.43789">
        <ele>521.8</ele>
        <time>2025-09-14T07:35:29Z</time>
      </trkpt>
      <trkpt lat="45.68393" lon="3.43791">
        <ele>521.4</ele>
        <time>2025-09-14T07:35:30Z</time>
      </trkpt>
      <trkpt lat="45.68387" lon="3.43795">
        <ele>521</ele>
        <time>2025-09-14T07:35:31Z</time>
      </trkpt>
      <trkpt lat="45.68382" lon="3.43798">
        <ele>520.4</ele>
        <time>2025-09-14T07:35:32Z</time>
      </trkpt>
      <trkpt lat="45.68376" lon="3.43802">
        <ele>520</ele>
        <time>2025-09-14T07:35:33Z</time>
      </trkpt>
      <trkpt lat="45.68369" lon="3.43806">
        <ele>519.6</ele>
        <time>2025-09-14T07:35:34Z</time>
      </trkpt>
      <trkpt lat="45.68364" lon="3.43809">
        <ele>519</ele>
        <time>2025-09-14T07:35:35Z</time>
      </trkpt>
      <trkpt lat="45.68359" lon="3.43813">
        <ele>518.6</ele>
        <time>2025-09-14T07:35:36Z</time>
      </trkpt>
      <trkpt lat="45.68354" lon="3.43817">
        <ele>518.2</ele>
        <time>2025-09-14T07:35:37Z</time>
      </trkpt>
      <trkpt lat="45.68352" lon="3.43822">
        <ele>517.8</ele>
        <time>2025-09-14T07:35:38Z</time>
      </trkpt>
      <trkpt lat="45.68349" lon="3.43826">
        <ele>517.6</ele>
        <time>2025-09-14T07:35:39Z</time>
      </trkpt>
      <trkpt lat="45.68345" lon="3.4383">
        <ele>517.2</ele>
        <time>2025-09-14T07:35:40Z</time>
      </trkpt>
      <trkpt lat="45.68339" lon="3.43833">
        <ele>517</ele>
        <time>2025-09-14T07:35:41Z</time>
      </trkpt>
      <trkpt lat="45.68334" lon="3.43837">
        <ele>516.8</ele>
        <time>2025-09-14T07:35:42Z</time>
      </trkpt>
      <trkpt lat="45.68329" lon="3.4384">
        <ele>516.8</ele>
        <time>2025-09-14T07:35:43Z</time>
      </trkpt>
      <trkpt lat="45.68326" lon="3.43842">
        <ele>516.6</ele>
        <time>2025-09-14T07:35:44Z</time>
      </trkpt>
      <trkpt lat="45.68321" lon="3.43845">
        <ele>516.6</ele>
        <time>2025-09-14T07:35:45Z</time>
      </trkpt>
      <trkpt lat="45.68317" lon="3.43848">
        <ele>516.8</ele>
        <time>2025-09-14T07:35:46Z</time>
      </trkpt>
      <trkpt lat="45.68314" lon="3.43851">
        <ele>516.8</ele>
        <time>2025-09-14T07:35:47Z</time>
      </trkpt>
      <trkpt lat="45.68311" lon="3.43855">
        <ele>516.8</ele>
        <time>2025-09-14T07:35:48Z</time>
      </trkpt>
      <trkpt lat="45.68307" lon="3.43859">
        <ele>516.8</ele>
        <time>2025-09-14T07:35:49Z</time>
      </trkpt>
      <trkpt lat="45.68303" lon="3.43862">
        <ele>516.8</ele>
        <time>2025-09-14T07:35:50Z</time>
      </trkpt>
      <trkpt lat="45.68299" lon="3.43865">
        <ele>516.8</ele>
        <time>2025-09-14T07:35:51Z</time>
      </trkpt>
      <trkpt lat="45.68295" lon="3.43866">
        <ele>516.8</ele>
        <time>2025-09-14T07:35:52Z</time>
      </trkpt>
      <trkpt lat="45.68291" lon="3.43868">
        <ele>516.8</ele>
        <time>2025-09-14T07:35:53Z</time>
      </trkpt>
      <trkpt lat="45.68286" lon="3.43868">
        <ele>516.8</ele>
        <time>2025-09-14T07:35:54Z</time>
      </trkpt>
      <trkpt lat="45.68281" lon="3.43868">
        <ele>516.8</ele>
        <time>2025-09-14T07:35:55Z</time>
      </trkpt>
      <trkpt lat="45.68276" lon="3.43869">
        <ele>516.8</ele>
        <time>2025-09-14T07:35:56Z</time>
      </trkpt>
      <trkpt lat="45.68272" lon="3.43873">
        <ele>516.8</ele>
        <time>2025-09-14T07:35:57Z</time>
      </trkpt>
      <trkpt lat="45.68268" lon="3.43876">
        <ele>516.6</ele>
        <time>2025-09-14T07:35:58Z</time>
      </trkpt>
      <trkpt lat="45.68263" lon="3.4388">
        <ele>516.6</ele>
        <time>2025-09-14T07:35:59Z</time>
      </trkpt>
      <trkpt lat="45.68259" lon="3.43882">
        <ele>516.6</ele>
        <time>2025-09-14T07:36:00Z</time>
      </trkpt>
      <trkpt lat="45.68254" lon="3.43885">
        <ele>516.6</ele>
        <time>2025-09-14T07:36:01Z</time>
      </trkpt>
      <trkpt lat="45.68249" lon="3.43889">
        <ele>516.6</ele>
        <time>2025-09-14T07:36:02Z</time>
      </trkpt>
      <trkpt lat="45.68242" lon="3.43894">
        <ele>516.4</ele>
        <time>2025-09-14T07:36:03Z</time>
      </trkpt>
      <trkpt lat="45.68238" lon="3.43898">
        <ele>516.4</ele>
        <time>2025-09-14T07:36:04Z</time>
      </trkpt>
      <trkpt lat="45.68233" lon="3.43901">
        <ele>516.4</ele>
        <time>2025-09-14T07:36:05Z</time>
      </trkpt>
      <trkpt lat="45.68229" lon="3.43904">
        <ele>516.4</ele>
        <time>2025-09-14T07:36:06Z</time>
      </trkpt>
      <trkpt lat="45.68223" lon="3.43907">
        <ele>516.4</ele>
        <time>2025-09-14T07:36:07Z</time>
      </trkpt>
      <trkpt lat="45.68218" lon="3.4391">
        <ele>516.4</ele>
        <time>2025-09-14T07:36:08Z</time>
      </trkpt>
      <trkpt lat="45.6821" lon="3.43913">
        <ele>516.4</ele>
        <time>2025-09-14T07:36:09Z</time>
      </trkpt>
      <trkpt lat="45.68204" lon="3.43915">
        <ele>516.2</ele>
        <time>2025-09-14T07:36:10Z</time>
      </trkpt>
      <trkpt lat="45.68199" lon="3.43918">
        <ele>516.2</ele>
        <time>2025-09-14T07:36:11Z</time>
      </trkpt>
      <trkpt lat="45.68193" lon="3.43922">
        <ele>516.2</ele>
        <time>2025-09-14T07:36:12Z</time>
      </trkpt>
      <trkpt lat="45.68189" lon="3.43926">
        <ele>516</ele>
        <time>2025-09-14T07:36:13Z</time>
      </trkpt>
      <trkpt lat="45.68186" lon="3.43929">
        <ele>516</ele>
        <time>2025-09-14T07:36:14Z</time>
      </trkpt>
      <trkpt lat="45.6818" lon="3.43933">
        <ele>516</ele>
        <time>2025-09-14T07:36:15Z</time>
      </trkpt>
      <trkpt lat="45.68174" lon="3.43938">
        <ele>515.8</ele>
        <time>2025-09-14T07:36:16Z</time>
      </trkpt>
      <trkpt lat="45.6817" lon="3.43942">
        <ele>515.8</ele>
        <time>2025-09-14T07:36:17Z</time>
      </trkpt>
      <trkpt lat="45.68164" lon="3.43947">
        <ele>515.6</ele>
        <time>2025-09-14T07:36:18Z</time>
      </trkpt>
      <trkpt lat="45.68161" lon="3.43951">
        <ele>515.6</ele>
        <time>2025-09-14T07:36:19Z</time>
      </trkpt>
      <trkpt lat="45.68156" lon="3.43956">
        <ele>515.4</ele>
        <time>2025-09-14T07:36:20Z</time>
      </trkpt>
      <trkpt lat="45.68152" lon="3.4396">
        <ele>515.4</ele>
        <time>2025-09-14T07:36:21Z</time>
      </trkpt>
      <trkpt lat="45.68149" lon="3.43963">
        <ele>515.4</ele>
        <time>2025-09-14T07:36:22Z</time>
      </trkpt>
      <trkpt lat="45.68145" lon="3.43966">
        <ele>515.2</ele>
        <time>2025-09-14T07:36:23Z</time>
      </trkpt>
      <trkpt lat="45.68142" lon="3.43969">
        <ele>515.2</ele>
        <time>2025-09-14T07:36:24Z</time>
      </trkpt>
      <trkpt lat="45.68138" lon="3.43973">
        <ele>515</ele>
        <time>2025-09-14T07:36:25Z</time>
      </trkpt>
      <trkpt lat="45.68133" lon="3.43978">
        <ele>515</ele>
        <time>2025-09-14T07:36:26Z</time>
      </trkpt>
      <trkpt lat="45.68128" lon="3.43984">
        <ele>515</ele>
        <time>2025-09-14T07:36:27Z</time>
      </trkpt>
      <trkpt lat="45.68123" lon="3.43989">
        <ele>515</ele>
        <time>2025-09-14T07:36:28Z</time>
      </trkpt>
      <trkpt lat="45.68119" lon="3.43993">
        <ele>515</ele>
        <time>2025-09-14T07:36:29Z</time>
      </trkpt>
      <trkpt lat="45.68115" lon="3.43997">
        <ele>515</ele>
        <time>2025-09-14T07:36:30Z</time>
      </trkpt>
      <trkpt lat="45.68111" lon="3.44001">
        <ele>515</ele>
        <time>2025-09-14T07:36:31Z</time>
      </trkpt>
      <trkpt lat="45.68105" lon="3.44005">
        <ele>515</ele>
        <time>2025-09-14T07:36:32Z</time>
      </trkpt>
      <trkpt lat="45.681" lon="3.44008">
        <ele>515.2</ele>
        <time>2025-09-14T07:36:33Z</time>
      </trkpt>
      <trkpt lat="45.68096" lon="3.44011">
        <ele>515.2</ele>
        <time>2025-09-14T07:36:34Z</time>
      </trkpt>
      <trkpt lat="45.6809" lon="3.44015">
        <ele>515.4</ele>
        <time>2025-09-14T07:36:35Z</time>
      </trkpt>
      <trkpt lat="45.68087" lon="3.44018">
        <ele>515.4</ele>
        <time>2025-09-14T07:36:36Z</time>
      </trkpt>
      <trkpt lat="45.68084" lon="3.44022">
        <ele>515.6</ele>
        <time>2025-09-14T07:36:37Z</time>
      </trkpt>
      <trkpt lat="45.68079" lon="3.44026">
        <ele>515.8</ele>
        <time>2025-09-14T07:36:38Z</time>
      </trkpt>
      <trkpt lat="45.68076" lon="3.44029">
        <ele>515.8</ele>
        <time>2025-09-14T07:36:39Z</time>
      </trkpt>
      <trkpt lat="45.68071" lon="3.44032">
        <ele>516</ele>
        <time>2025-09-14T07:36:40Z</time>
      </trkpt>
      <trkpt lat="45.68068" lon="3.44035">
        <ele>516.2</ele>
        <time>2025-09-14T07:36:41Z</time>
      </trkpt>
      <trkpt lat="45.68063" lon="3.44038">
        <ele>516.4</ele>
        <time>2025-09-14T07:36:42Z</time>
      </trkpt>
      <trkpt lat="45.6806" lon="3.4404">
        <ele>516.8</ele>
        <time>2025-09-14T07:36:43Z</time>
      </trkpt>
      <trkpt lat="45.68056" lon="3.44042">
        <ele>517</ele>
        <time>2025-09-14T07:36:44Z</time>
      </trkpt>
      <trkpt lat="45.68053" lon="3.44044">
        <ele>517.2</ele>
        <time>2025-09-14T07:36:45Z</time>
      </trkpt>
      <trkpt lat="45.68049" lon="3.44046">
        <ele>517.6</ele>
        <time>2025-09-14T07:36:46Z</time>
      </trkpt>
      <trkpt lat="45.68044" lon="3.44047">
        <ele>518</ele>
        <time>2025-09-14T07:36:47Z</time>
      </trkpt>
      <trkpt lat="45.68039" lon="3.4405">
        <ele>518.2</ele>
        <time>2025-09-14T07:36:48Z</time>
      </trkpt>
      <trkpt lat="45.68035" lon="3.44054">
        <ele>518.6</ele>
        <time>2025-09-14T07:36:49Z</time>
      </trkpt>
      <trkpt lat="45.68032" lon="3.44059">
        <ele>519</ele>
        <time>2025-09-14T07:36:50Z</time>
      </trkpt>
      <trkpt lat="45.68029" lon="3.44064">
        <ele>519.4</ele>
        <time>2025-09-14T07:36:51Z</time>
      </trkpt>
      <trkpt lat="45.68027" lon="3.44065">
        <ele>519.6</ele>
        <time>2025-09-14T07:36:52Z</time>
      </trkpt>
      <trkpt lat="45.68023" lon="3.44067">
        <ele>520</ele>
        <time>2025-09-14T07:36:53Z</time>
      </trkpt>
      <trkpt lat="45.6802" lon="3.44069">
        <ele>520.4</ele>
        <time>2025-09-14T07:36:54Z</time>
      </trkpt>
      <trkpt lat="45.68018" lon="3.4407">
        <ele>520.6</ele>
        <time>2025-09-14T07:36:55Z</time>
      </trkpt>
      <trkpt lat="45.68015" lon="3.44071">
        <ele>521</ele>
        <time>2025-09-14T07:36:56Z</time>
      </trkpt>
      <trkpt lat="45.68013" lon="3.44072">
        <ele>521.2</ele>
        <time>2025-09-14T07:36:57Z</time>
      </trkpt>
      <trkpt lat="45.6801" lon="3.44072">
        <ele>521.6</ele>
        <time>2025-09-14T07:36:58Z</time>
      </trkpt>
      <trkpt lat="45.68007" lon="3.44073">
        <ele>521.8</ele>
        <time>2025-09-14T07:36:59Z</time>
      </trkpt>
      <trkpt lat="45.68004" lon="3.44073">
        <ele>522.2</ele>
        <time>2025-09-14T07:37:00Z</time>
      </trkpt>
      <trkpt lat="45.68001" lon="3.44073">
        <ele>522.4</ele>
        <time>2025-09-14T07:37:01Z</time>
      </trkpt>
      <trkpt lat="45.67997" lon="3.44074">
        <ele>522.8</ele>
        <time>2025-09-14T07:37:02Z</time>
      </trkpt>
      <trkpt lat="45.67994" lon="3.44075">
        <ele>523</ele>
        <time>2025-09-14T07:37:03Z</time>
      </trkpt>
      <trkpt lat="45.6799" lon="3.44075">
        <ele>523.4</ele>
        <time>2025-09-14T07:37:04Z</time>
      </trkpt>
      <trkpt lat="45.67986" lon="3.44076">
        <ele>523.6</ele>
        <time>2025-09-14T07:37:05Z</time>
      </trkpt>
      <trkpt lat="45.67982" lon="3.44077">
        <ele>524</ele>
        <time>2025-09-14T07:37:06Z</time>
      </trkpt>
      <trkpt lat="45.67979" lon="3.44078">
        <ele>524.2</ele>
        <time>2025-09-14T07:37:07Z</time>
      </trkpt>
      <trkpt lat="45.67976" lon="3.4408">
        <ele>524.4</ele>
        <time>2025-09-14T07:37:08Z</time>
      </trkpt>
      <trkpt lat="45.67973" lon="3.44082">
        <ele>524.6</ele>
        <time>2025-09-14T07:37:09Z</time>
      </trkpt>
      <trkpt lat="45.67969" lon="3.44085">
        <ele>524.8</ele>
        <time>2025-09-14T07:37:10Z</time>
      </trkpt>
      <trkpt lat="45.67966" lon="3.44088">
        <ele>525</ele>
        <time>2025-09-14T07:37:11Z</time>
      </trkpt>
      <trkpt lat="45.67962" lon="3.4409">
        <ele>525.2</ele>
        <time>2025-09-14T07:37:12Z</time>
      </trkpt>
      <trkpt lat="45.67959" lon="3.44091">
        <ele>525.2</ele>
        <time>2025-09-14T07:37:13Z</time>
      </trkpt>
      <trkpt lat="45.67956" lon="3.44094">
        <ele>525.6</ele>
        <time>2025-09-14T07:37:14Z</time>
      </trkpt>
      <trkpt lat="45.67953" lon="3.44098">
        <ele>525.8</ele>
        <time>2025-09-14T07:37:15Z</time>
      </trkpt>
      <trkpt lat="45.67951" lon="3.44101">
        <ele>526</ele>
        <time>2025-09-14T07:37:16Z</time>
      </trkpt>
      <trkpt lat="45.6795" lon="3.44106">
        <ele>526.2</ele>
        <time>2025-09-14T07:37:17Z</time>
      </trkpt>
      <trkpt lat="45.6795" lon="3.44112">
        <ele>526.4</ele>
        <time>2025-09-14T07:37:18Z</time>
      </trkpt>
      <trkpt lat="45.6795" lon="3.44117">
        <ele>526.6</ele>
        <time>2025-09-14T07:37:19Z</time>
      </trkpt>
      <trkpt lat="45.67951" lon="3.44123">
        <ele>526.8</ele>
        <time>2025-09-14T07:37:20Z</time>
      </trkpt>
      <trkpt lat="45.67951" lon="3.44129">
        <ele>526.8</ele>
        <time>2025-09-14T07:37:21Z</time>
      </trkpt>
      <trkpt lat="45.67952" lon="3.44134">
        <ele>527</ele>
        <time>2025-09-14T07:37:22Z</time>
      </trkpt>
      <trkpt lat="45.67953" lon="3.44141">
        <ele>527.4</ele>
        <time>2025-09-14T07:37:23Z</time>
      </trkpt>
      <trkpt lat="45.67955" lon="3.44145">
        <ele>527.8</ele>
        <time>2025-09-14T07:37:24Z</time>
      </trkpt>
      <trkpt lat="45.67956" lon="3.4415">
        <ele>528</ele>
        <time>2025-09-14T07:37:25Z</time>
      </trkpt>
      <trkpt lat="45.67958" lon="3.44154">
        <ele>528.4</ele>
        <time>2025-09-14T07:37:26Z</time>
      </trkpt>
      <trkpt lat="45.6796" lon="3.44158">
        <ele>528.8</ele>
        <time>2025-09-14T07:37:27Z</time>
      </trkpt>
      <trkpt lat="45.67962" lon="3.44162">
        <ele>529.2</ele>
        <time>2025-09-14T07:37:28Z</time>
      </trkpt>
      <trkpt lat="45.67963" lon="3.44165">
        <ele>529.6</ele>
        <time>2025-09-14T07:37:29Z</time>
      </trkpt>
      <trkpt lat="45.67965" lon="3.44169">
        <ele>529.8</ele>
        <time>2025-09-14T07:37:30Z</time>
      </trkpt>
      <trkpt lat="45.67965" lon="3.44171">
        <ele>530</ele>
        <time>2025-09-14T07:37:31Z</time>
      </trkpt>
      <trkpt lat="45.67965" lon="3.44175">
        <ele>530.2</ele>
        <time>2025-09-14T07:37:32Z</time>
      </trkpt>
      <trkpt lat="45.67965" lon="3.44177">
        <ele>530.2</ele>
        <time>2025-09-14T07:37:33Z</time>
      </trkpt>
      <trkpt lat="45.67965" lon="3.4418">
        <ele>530.4</ele>
        <time>2025-09-14T07:37:34Z</time>
      </trkpt>
      <trkpt lat="45.67965" lon="3.44183">
        <ele>530.4</ele>
        <time>2025-09-14T07:37:35Z</time>
      </trkpt>
      <trkpt lat="45.67966" lon="3.44185">
        <ele>530.4</ele>
        <time>2025-09-14T07:37:36Z</time>
      </trkpt>
      <trkpt lat="45.67966" lon="3.44188">
        <ele>530.6</ele>
        <time>2025-09-14T07:37:37Z</time>
      </trkpt>
      <trkpt lat="45.67967" lon="3.44191">
        <ele>530.6</ele>
        <time>2025-09-14T07:37:38Z</time>
      </trkpt>
      <trkpt lat="45.67967" lon="3.44194">
        <ele>530.6</ele>
        <time>2025-09-14T07:37:39Z</time>
      </trkpt>
      <trkpt lat="45.67968" lon="3.44197">
        <ele>530.6</ele>
        <time>2025-09-14T07:37:40Z</time>
      </trkpt>
      <trkpt lat="45.6797" lon="3.44202">
        <ele>530.6</ele>
        <time>2025-09-14T07:37:41Z</time>
      </trkpt>
      <trkpt lat="45.6797" lon="3.44206">
        <ele>530.6</ele>
        <time>2025-09-14T07:37:42Z</time>
      </trkpt>
      <trkpt lat="45.67971" lon="3.44209">
        <ele>530.8</ele>
        <time>2025-09-14T07:37:43Z</time>
      </trkpt>
      <trkpt lat="45.67972" lon="3.44213">
        <ele>530.8</ele>
        <time>2025-09-14T07:37:44Z</time>
      </trkpt>
      <trkpt lat="45.67971" lon="3.44218">
        <ele>530.8</ele>
        <time>2025-09-14T07:37:45Z</time>
      </trkpt>
      <trkpt lat="45.67971" lon="3.44223">
        <ele>530.8</ele>
        <time>2025-09-14T07:37:46Z</time>
      </trkpt>
      <trkpt lat="45.6797" lon="3.44227">
        <ele>530.8</ele>
        <time>2025-09-14T07:37:47Z</time>
      </trkpt>
      <trkpt lat="45.67968" lon="3.44233">
        <ele>530.8</ele>
        <time>2025-09-14T07:37:48Z</time>
      </trkpt>
      <trkpt lat="45.67965" lon="3.44237">
        <ele>530.8</ele>
        <time>2025-09-14T07:37:49Z</time>
      </trkpt>
      <trkpt lat="45.67962" lon="3.44242">
        <ele>530.8</ele>
        <time>2025-09-14T07:37:50Z</time>
      </trkpt>
      <trkpt lat="45.6796" lon="3.44245">
        <ele>530.8</ele>
        <time>2025-09-14T07:37:51Z</time>
      </trkpt>
      <trkpt lat="45.67958" lon="3.44249">
        <ele>530.8</ele>
        <time>2025-09-14T07:37:52Z</time>
      </trkpt>
      <trkpt lat="45.67954" lon="3.44251">
        <ele>530.8</ele>
        <time>2025-09-14T07:37:53Z</time>
      </trkpt>
      <trkpt lat="45.67949" lon="3.44252">
        <ele>531</ele>
        <time>2025-09-14T07:37:54Z</time>
      </trkpt>
      <trkpt lat="45.67943" lon="3.44253">
        <ele>531</ele>
        <time>2025-09-14T07:37:55Z</time>
      </trkpt>
      <trkpt lat="45.67939" lon="3.44256">
        <ele>531</ele>
        <time>2025-09-14T07:37:56Z</time>
      </trkpt>
      <trkpt lat="45.67936" lon="3.44257">
        <ele>531</ele>
        <time>2025-09-14T07:37:57Z</time>
      </trkpt>
      <trkpt lat="45.67932" lon="3.44259">
        <ele>531.2</ele>
        <time>2025-09-14T07:37:58Z</time>
      </trkpt>
      <trkpt lat="45.67928" lon="3.44261">
        <ele>531.2</ele>
        <time>2025-09-14T07:37:59Z</time>
      </trkpt>
      <trkpt lat="45.67924" lon="3.44263">
        <ele>531.2</ele>
        <time>2025-09-14T07:38:00Z</time>
      </trkpt>
      <trkpt lat="45.67921" lon="3.44266">
        <ele>531.2</ele>
        <time>2025-09-14T07:38:01Z</time>
      </trkpt>
      <trkpt lat="45.67917" lon="3.44269">
        <ele>531.4</ele>
        <time>2025-09-14T07:38:02Z</time>
      </trkpt>
      <trkpt lat="45.67913" lon="3.44272">
        <ele>531.4</ele>
        <time>2025-09-14T07:38:03Z</time>
      </trkpt>
      <trkpt lat="45.6791" lon="3.44275">
        <ele>531.6</ele>
        <time>2025-09-14T07:38:04Z</time>
      </trkpt>
      <trkpt lat="45.67906" lon="3.44278">
        <ele>531.6</ele>
        <time>2025-09-14T07:38:05Z</time>
      </trkpt>
      <trkpt lat="45.67903" lon="3.4428">
        <ele>531.6</ele>
        <time>2025-09-14T07:38:06Z</time>
      </trkpt>
      <trkpt lat="45.67898" lon="3.44283">
        <ele>531.8</ele>
        <time>2025-09-14T07:38:07Z</time>
      </trkpt>
      <trkpt lat="45.67895" lon="3.44285">
        <ele>531.8</ele>
        <time>2025-09-14T07:38:08Z</time>
      </trkpt>
      <trkpt lat="45.67891" lon="3.44287">
        <ele>531.8</ele>
        <time>2025-09-14T07:38:09Z</time>
      </trkpt>
      <trkpt lat="45.67887" lon="3.44289">
        <ele>532</ele>
        <time>2025-09-14T07:38:10Z</time>
      </trkpt>
      <trkpt lat="45.67883" lon="3.44291">
        <ele>532</ele>
        <time>2025-09-14T07:38:11Z</time>
      </trkpt>
      <trkpt lat="45.67878" lon="3.44292">
        <ele>532</ele>
        <time>2025-09-14T07:38:12Z</time>
      </trkpt>
      <trkpt lat="45.67873" lon="3.44294">
        <ele>532.2</ele>
        <time>2025-09-14T07:38:13Z</time>
      </trkpt>
      <trkpt lat="45.6787" lon="3.44296">
        <ele>532.4</ele>
        <time>2025-09-14T07:38:14Z</time>
      </trkpt>
      <trkpt lat="45.67866" lon="3.44297">
        <ele>532.4</ele>
        <time>2025-09-14T07:38:15Z</time>
      </trkpt>
      <trkpt lat="45.67861" lon="3.44298">
        <ele>532.4</ele>
        <time>2025-09-14T07:38:16Z</time>
      </trkpt>
      <trkpt lat="45.67857" lon="3.44299">
        <ele>532.6</ele>
        <time>2025-09-14T07:38:17Z</time>
      </trkpt>
      <trkpt lat="45.67852" lon="3.443">
        <ele>532.6</ele>
        <time>2025-09-14T07:38:18Z</time>
      </trkpt>
      <trkpt lat="45.67849" lon="3.44301">
        <ele>532.6</ele>
        <time>2025-09-14T07:38:19Z</time>
      </trkpt>
      <trkpt lat="45.67844" lon="3.44303">
        <ele>532.6</ele>
        <time>2025-09-14T07:38:20Z</time>
      </trkpt>
      <trkpt lat="45.6784" lon="3.44304">
        <ele>532.8</ele>
        <time>2025-09-14T07:38:21Z</time>
      </trkpt>
      <trkpt lat="45.67837" lon="3.44305">
        <ele>533</ele>
        <time>2025-09-14T07:38:22Z</time>
      </trkpt>
      <trkpt lat="45.67832" lon="3.44306">
        <ele>533</ele>
        <time>2025-09-14T07:38:23Z</time>
      </trkpt>
      <trkpt lat="45.67828" lon="3.44307">
        <ele>533</ele>
        <time>2025-09-14T07:38:24Z</time>
      </trkpt>
      <trkpt lat="45.67823" lon="3.44309">
        <ele>533.2</ele>
        <time>2025-09-14T07:38:25Z</time>
      </trkpt>
      <trkpt lat="45.6782" lon="3.4431">
        <ele>533.2</ele>
        <time>2025-09-14T07:38:26Z</time>
      </trkpt>
      <trkpt lat="45.67815" lon="3.44311">
        <ele>533.4</ele>
        <time>2025-09-14T07:38:27Z</time>
      </trkpt>
      <trkpt lat="45.67811" lon="3.44313">
        <ele>533.4</ele>
        <time>2025-09-14T07:38:28Z</time>
      </trkpt>
      <trkpt lat="45.67807" lon="3.44314">
        <ele>533.4</ele>
        <time>2025-09-14T07:38:29Z</time>
      </trkpt>
      <trkpt lat="45.67802" lon="3.44316">
        <ele>533.6</ele>
        <time>2025-09-14T07:38:30Z</time>
      </trkpt>
      <trkpt lat="45.67798" lon="3.44317">
        <ele>533.8</ele>
        <time>2025-09-14T07:38:31Z</time>
      </trkpt>
      <trkpt lat="45.67794" lon="3.44319">
        <ele>533.8</ele>
        <time>2025-09-14T07:38:32Z</time>
      </trkpt>
      <trkpt lat="45.6779" lon="3.44321">
        <ele>534</ele>
        <time>2025-09-14T07:38:33Z</time>
      </trkpt>
      <trkpt lat="45.67786" lon="3.44323">
        <ele>534.2</ele>
        <time>2025-09-14T07:38:34Z</time>
      </trkpt>
      <trkpt lat="45.67782" lon="3.44325">
        <ele>534.4</ele>
        <time>2025-09-14T07:38:35Z</time>
      </trkpt>
      <trkpt lat="45.67778" lon="3.44328">
        <ele>534.4</ele>
        <time>2025-09-14T07:38:36Z</time>
      </trkpt>
      <trkpt lat="45.67774" lon="3.44331">
        <ele>534.4</ele>
        <time>2025-09-14T07:38:37Z</time>
      </trkpt>
      <trkpt lat="45.6777" lon="3.44333">
        <ele>534.6</ele>
        <time>2025-09-14T07:38:38Z</time>
      </trkpt>
      <trkpt lat="45.67766" lon="3.44336">
        <ele>534.6</ele>
        <time>2025-09-14T07:38:39Z</time>
      </trkpt>
      <trkpt lat="45.67763" lon="3.44338">
        <ele>534.8</ele>
        <time>2025-09-14T07:38:40Z</time>
      </trkpt>
      <trkpt lat="45.67759" lon="3.4434">
        <ele>534.8</ele>
        <time>2025-09-14T07:38:41Z</time>
      </trkpt>
      <trkpt lat="45.67755" lon="3.44342">
        <ele>534.8</ele>
        <time>2025-09-14T07:38:42Z</time>
      </trkpt>
      <trkpt lat="45.67751" lon="3.44345">
        <ele>535</ele>
        <time>2025-09-14T07:38:43Z</time>
      </trkpt>
      <trkpt lat="45.67747" lon="3.44348">
        <ele>535.2</ele>
        <time>2025-09-14T07:38:44Z</time>
      </trkpt>
      <trkpt lat="45.67744" lon="3.44353">
        <ele>535.4</ele>
        <time>2025-09-14T07:38:45Z</time>
      </trkpt>
      <trkpt lat="45.67742" lon="3.44357">
        <ele>535.4</ele>
        <time>2025-09-14T07:38:46Z</time>
      </trkpt>
      <trkpt lat="45.67741" lon="3.44363">
        <ele>535.4</ele>
        <time>2025-09-14T07:38:47Z</time>
      </trkpt>
      <trkpt lat="45.6774" lon="3.44369">
        <ele>535.4</ele>
        <time>2025-09-14T07:38:48Z</time>
      </trkpt>
      <trkpt lat="45.6774" lon="3.44374">
        <ele>535.4</ele>
        <time>2025-09-14T07:38:49Z</time>
      </trkpt>
      <trkpt lat="45.67739" lon="3.4438">
        <ele>535.2</ele>
        <time>2025-09-14T07:38:50Z</time>
      </trkpt>
      <trkpt lat="45.67739" lon="3.44388">
        <ele>535.2</ele>
        <time>2025-09-14T07:38:51Z</time>
      </trkpt>
      <trkpt lat="45.67738" lon="3.44393">
        <ele>535</ele>
        <time>2025-09-14T07:38:52Z</time>
      </trkpt>
      <trkpt lat="45.67737" lon="3.444">
        <ele>535</ele>
        <time>2025-09-14T07:38:53Z</time>
      </trkpt>
      <trkpt lat="45.67736" lon="3.44406">
        <ele>535</ele>
        <time>2025-09-14T07:38:54Z</time>
      </trkpt>
      <trkpt lat="45.67735" lon="3.44413">
        <ele>534.8</ele>
        <time>2025-09-14T07:38:55Z</time>
      </trkpt>
      <trkpt lat="45.67733" lon="3.44421">
        <ele>534.4</ele>
        <time>2025-09-14T07:38:56Z</time>
      </trkpt>
      <trkpt lat="45.67732" lon="3.44428">
        <ele>534.2</ele>
        <time>2025-09-14T07:38:57Z</time>
      </trkpt>
      <trkpt lat="45.67729" lon="3.44436">
        <ele>534</ele>
        <time>2025-09-14T07:38:58Z</time>
      </trkpt>
      <trkpt lat="45.67727" lon="3.44443">
        <ele>533.6</ele>
        <time>2025-09-14T07:38:59Z</time>
      </trkpt>
      <trkpt lat="45.67723" lon="3.44451">
        <ele>533.2</ele>
        <time>2025-09-14T07:39:00Z</time>
      </trkpt>
      <trkpt lat="45.67719" lon="3.4446">
        <ele>533</ele>
        <time>2025-09-14T07:39:01Z</time>
      </trkpt>
      <trkpt lat="45.67716" lon="3.44466">
        <ele>532.6</ele>
        <time>2025-09-14T07:39:02Z</time>
      </trkpt>
      <trkpt lat="45.67713" lon="3.44473">
        <ele>532.2</ele>
        <time>2025-09-14T07:39:03Z</time>
      </trkpt>
      <trkpt lat="45.67708" lon="3.4448">
        <ele>531.8</ele>
        <time>2025-09-14T07:39:04Z</time>
      </trkpt>
      <trkpt lat="45.67705" lon="3.44486">
        <ele>531.4</ele>
        <time>2025-09-14T07:39:05Z</time>
      </trkpt>
      <trkpt lat="45.67702" lon="3.44493">
        <ele>531.2</ele>
        <time>2025-09-14T07:39:06Z</time>
      </trkpt>
      <trkpt lat="45.67699" lon="3.445">
        <ele>531</ele>
        <time>2025-09-14T07:39:07Z</time>
      </trkpt>
      <trkpt lat="45.67698" lon="3.44505">
        <ele>530.6</ele>
        <time>2025-09-14T07:39:08Z</time>
      </trkpt>
      <trkpt lat="45.67698" lon="3.44511">
        <ele>530.4</ele>
        <time>2025-09-14T07:39:09Z</time>
      </trkpt>
      <trkpt lat="45.67699" lon="3.44519">
        <ele>530.2</ele>
        <time>2025-09-14T07:39:10Z</time>
      </trkpt>
      <trkpt lat="45.677" lon="3.44524">
        <ele>530</ele>
        <time>2025-09-14T07:39:11Z</time>
      </trkpt>
      <trkpt lat="45.67702" lon="3.44529">
        <ele>529.8</ele>
        <time>2025-09-14T07:39:12Z</time>
      </trkpt>
      <trkpt lat="45.67704" lon="3.44533">
        <ele>529.6</ele>
        <time>2025-09-14T07:39:13Z</time>
      </trkpt>
      <trkpt lat="45.67707" lon="3.44538">
        <ele>529.4</ele>
        <time>2025-09-14T07:39:14Z</time>
      </trkpt>
      <trkpt lat="45.67709" lon="3.44542">
        <ele>529.2</ele>
        <time>2025-09-14T07:39:15Z</time>
      </trkpt>
      <trkpt lat="45.67711" lon="3.44547">
        <ele>529.2</ele>
        <time>2025-09-14T07:39:16Z</time>
      </trkpt>
      <trkpt lat="45.67712" lon="3.44551">
        <ele>529</ele>
        <time>2025-09-14T07:39:17Z</time>
      </trkpt>
      <trkpt lat="45.67714" lon="3.44555">
        <ele>529</ele>
        <time>2025-09-14T07:39:18Z</time>
      </trkpt>
      <trkpt lat="45.67717" lon="3.44558">
        <ele>528.8</ele>
        <time>2025-09-14T07:39:19Z</time>
      </trkpt>
      <trkpt lat="45.6772" lon="3.44559">
        <ele>528.8</ele>
        <time>2025-09-14T07:39:20Z</time>
      </trkpt>
      <trkpt lat="45.67721" lon="3.44559">
        <ele>528.8</ele>
        <time>2025-09-14T07:39:21Z</time>
      </trkpt>
      <trkpt lat="45.67722" lon="3.44559">
        <ele>528.8</ele>
        <time>2025-09-14T07:39:22Z</time>
      </trkpt>
      <trkpt lat="45.67717" lon="3.44574">
        <ele>528.8</ele>
        <time>2025-09-14T07:46:08Z</time>
      </trkpt>
      <trkpt lat="45.67717" lon="3.44579">
        <ele>528.8</ele>
        <time>2025-09-14T07:46:09Z</time>
      </trkpt>
      <trkpt lat="45.67717" lon="3.44584">
        <ele>528.8</ele>
        <time>2025-09-14T07:46:10Z</time>
      </trkpt>
      <trkpt lat="45.67717" lon="3.4459">
        <ele>528.6</ele>
        <time>2025-09-14T07:46:11Z</time>
      </trkpt>
      <trkpt lat="45.67717" lon="3.44597">
        <ele>528.4</ele>
        <time>2025-09-14T07:46:12Z</time>
      </trkpt>
      <trkpt lat="45.67717" lon="3.44604">
        <ele>528.4</ele>
        <time>2025-09-14T07:46:13Z</time>
      </trkpt>
      <trkpt lat="45.67716" lon="3.44611">
        <ele>528.2</ele>
        <time>2025-09-14T07:46:14Z</time>
      </trkpt>
      <trkpt lat="45.67715" lon="3.44619">
        <ele>528.2</ele>
        <time>2025-09-14T07:46:15Z</time>
      </trkpt>
      <trkpt lat="45.67713" lon="3.44626">
        <ele>528</ele>
        <time>2025-09-14T07:46:16Z</time>
      </trkpt>
      <trkpt lat="45.67713" lon="3.44633">
        <ele>527.8</ele>
        <time>2025-09-14T07:46:17Z</time>
      </trkpt>
      <trkpt lat="45.67711" lon="3.4464">
        <ele>527.6</ele>
        <time>2025-09-14T07:46:18Z</time>
      </trkpt>
      <trkpt lat="45.6771" lon="3.44647">
        <ele>527.4</ele>
        <time>2025-09-14T07:46:19Z</time>
      </trkpt>
      <trkpt lat="45.67709" lon="3.44653">
        <ele>527</ele>
        <time>2025-09-14T07:46:20Z</time>
      </trkpt>
      <trkpt lat="45.67708" lon="3.4466">
        <ele>526.8</ele>
        <time>2025-09-14T07:46:21Z</time>
      </trkpt>
      <trkpt lat="45.67706" lon="3.44668">
        <ele>526.4</ele>
        <time>2025-09-14T07:46:22Z</time>
      </trkpt>
      <trkpt lat="45.67705" lon="3.44678">
        <ele>526</ele>
        <time>2025-09-14T07:46:23Z</time>
      </trkpt>
      <trkpt lat="45.67703" lon="3.44688">
        <ele>525.4</ele>
        <time>2025-09-14T07:46:24Z</time>
      </trkpt>
      <trkpt lat="45.67701" lon="3.44698">
        <ele>525</ele>
        <time>2025-09-14T07:46:25Z</time>
      </trkpt>
      <trkpt lat="45.677" lon="3.44709">
        <ele>524.6</ele>
        <time>2025-09-14T07:46:26Z</time>
      </trkpt>
      <trkpt lat="45.67699" lon="3.44719">
        <ele>524.2</ele>
        <time>2025-09-14T07:46:27Z</time>
      </trkpt>
      <trkpt lat="45.67697" lon="3.4473">
        <ele>523.8</ele>
        <time>2025-09-14T07:46:28Z</time>
      </trkpt>
      <trkpt lat="45.67696" lon="3.4474">
        <ele>523.6</ele>
        <time>2025-09-14T07:46:29Z</time>
      </trkpt>
      <trkpt lat="45.67696" lon="3.4475">
        <ele>523.2</ele>
        <time>2025-09-14T07:46:30Z</time>
      </trkpt>
      <trkpt lat="45.67695" lon="3.4476">
        <ele>523</ele>
        <time>2025-09-14T07:46:31Z</time>
      </trkpt>
      <trkpt lat="45.67694" lon="3.4477">
        <ele>522.8</ele>
        <time>2025-09-14T07:46:32Z</time>
      </trkpt>
      <trkpt lat="45.67692" lon="3.44779">
        <ele>522.6</ele>
        <time>2025-09-14T07:46:33Z</time>
      </trkpt>
      <trkpt lat="45.6769" lon="3.44789">
        <ele>522.2</ele>
        <time>2025-09-14T07:46:34Z</time>
      </trkpt>
      <trkpt lat="45.67688" lon="3.44798">
        <ele>521.8</ele>
        <time>2025-09-14T07:46:35Z</time>
      </trkpt>
      <trkpt lat="45.67686" lon="3.44807">
        <ele>521.4</ele>
        <time>2025-09-14T07:46:36Z</time>
      </trkpt>
      <trkpt lat="45.67683" lon="3.44816">
        <ele>520.8</ele>
        <time>2025-09-14T07:46:37Z</time>
      </trkpt>
      <trkpt lat="45.6768" lon="3.44826">
        <ele>520.2</ele>
        <time>2025-09-14T07:46:38Z</time>
      </trkpt>
      <trkpt lat="45.67676" lon="3.44837">
        <ele>519.6</ele>
        <time>2025-09-14T07:46:39Z</time>
      </trkpt>
      <trkpt lat="45.67672" lon="3.44845">
        <ele>519</ele>
        <time>2025-09-14T07:46:40Z</time>
      </trkpt>
      <trkpt lat="45.67668" lon="3.44855">
        <ele>518</ele>
        <time>2025-09-14T07:46:41Z</time>
      </trkpt>
      <trkpt lat="45.67663" lon="3.44864">
        <ele>517.4</ele>
        <time>2025-09-14T07:46:42Z</time>
      </trkpt>
      <trkpt lat="45.67658" lon="3.44872">
        <ele>516.8</ele>
        <time>2025-09-14T07:46:43Z</time>
      </trkpt>
      <trkpt lat="45.67652" lon="3.44879">
        <ele>516.2</ele>
        <time>2025-09-14T07:46:44Z</time>
      </trkpt>
      <trkpt lat="45.67646" lon="3.44886">
        <ele>515.6</ele>
        <time>2025-09-14T07:46:45Z</time>
      </trkpt>
      <trkpt lat="45.6764" lon="3.44891">
        <ele>515</ele>
        <time>2025-09-14T07:46:46Z</time>
      </trkpt>
      <trkpt lat="45.67635" lon="3.44895">
        <ele>514.6</ele>
        <time>2025-09-14T07:46:47Z</time>
      </trkpt>
      <trkpt lat="45.67629" lon="3.44898">
        <ele>514.2</ele>
        <time>2025-09-14T07:46:48Z</time>
      </trkpt>
      <trkpt lat="45.67624" lon="3.44901">
        <ele>514</ele>
        <time>2025-09-14T07:46:49Z</time>
      </trkpt>
      <trkpt lat="45.67619" lon="3.44904">
        <ele>513.6</ele>
        <time>2025-09-14T07:46:50Z</time>
      </trkpt>
      <trkpt lat="45.67614" lon="3.44908">
        <ele>513.4</ele>
        <time>2025-09-14T07:46:51Z</time>
      </trkpt>
      <trkpt lat="45.67611" lon="3.44912">
        <ele>513.2</ele>
        <time>2025-09-14T07:46:52Z</time>
      </trkpt>
      <trkpt lat="45.67607" lon="3.44916">
        <ele>513.2</ele>
        <time>2025-09-14T07:46:53Z</time>
      </trkpt>
      <trkpt lat="45.67603" lon="3.44922">
        <ele>513</ele>
        <time>2025-09-14T07:46:54Z</time>
      </trkpt>
      <trkpt lat="45.67599" lon="3.44928">
        <ele>513</ele>
        <time>2025-09-14T07:46:55Z</time>
      </trkpt>
      <trkpt lat="45.67595" lon="3.44934">
        <ele>512.8</ele>
        <time>2025-09-14T07:46:56Z</time>
      </trkpt>
      <trkpt lat="45.67591" lon="3.44942">
        <ele>512.8</ele>
        <time>2025-09-14T07:46:57Z</time>
      </trkpt>
      <trkpt lat="45.67587" lon="3.44949">
        <ele>512.6</ele>
        <time>2025-09-14T07:46:58Z</time>
      </trkpt>
      <trkpt lat="45.67585" lon="3.44957">
        <ele>512.6</ele>
        <time>2025-09-14T07:46:59Z</time>
      </trkpt>
      <trkpt lat="45.67581" lon="3.44964">
        <ele>512.6</ele>
        <time>2025-09-14T07:47:00Z</time>
      </trkpt>
      <trkpt lat="45.67577" lon="3.44971">
        <ele>512.4</ele>
        <time>2025-09-14T07:47:01Z</time>
      </trkpt>
      <trkpt lat="45.67574" lon="3.44979">
        <ele>512.4</ele>
        <time>2025-09-14T07:47:02Z</time>
      </trkpt>
      <trkpt lat="45.67569" lon="3.44987">
        <ele>512.4</ele>
        <time>2025-09-14T07:47:03Z</time>
      </trkpt>
      <trkpt lat="45.67565" lon="3.44995">
        <ele>512.4</ele>
        <time>2025-09-14T07:47:04Z</time>
      </trkpt>
      <trkpt lat="45.67564" lon="3.45001">
        <ele>512.4</ele>
        <time>2025-09-14T07:47:05Z</time>
      </trkpt>
      <trkpt lat="45.67561" lon="3.45009">
        <ele>512.4</ele>
        <time>2025-09-14T07:47:06Z</time>
      </trkpt>
      <trkpt lat="45.67558" lon="3.45016">
        <ele>512.4</ele>
        <time>2025-09-14T07:47:07Z</time>
      </trkpt>
      <trkpt lat="45.67555" lon="3.45022">
        <ele>512.4</ele>
        <time>2025-09-14T07:47:08Z</time>
      </trkpt>
      <trkpt lat="45.67551" lon="3.45029">
        <ele>512.4</ele>
        <time>2025-09-14T07:47:09Z</time>
      </trkpt>
      <trkpt lat="45.67547" lon="3.45036">
        <ele>512.4</ele>
        <time>2025-09-14T07:47:10Z</time>
      </trkpt>
      <trkpt lat="45.67544" lon="3.45043">
        <ele>512.6</ele>
        <time>2025-09-14T07:47:11Z</time>
      </trkpt>
      <trkpt lat="45.67541" lon="3.45048">
        <ele>512.6</ele>
        <time>2025-09-14T07:47:12Z</time>
      </trkpt>
      <trkpt lat="45.67537" lon="3.45053">
        <ele>512.8</ele>
        <time>2025-09-14T07:47:13Z</time>
      </trkpt>
      <trkpt lat="45.67533" lon="3.45058">
        <ele>512.8</ele>
        <time>2025-09-14T07:47:14Z</time>
      </trkpt>
      <trkpt lat="45.67528" lon="3.45064">
        <ele>513</ele>
        <time>2025-09-14T07:47:15Z</time>
      </trkpt>
      <trkpt lat="45.67525" lon="3.45068">
        <ele>513.2</ele>
        <time>2025-09-14T07:47:16Z</time>
      </trkpt>
      <trkpt lat="45.67521" lon="3.45073">
        <ele>513.4</ele>
        <time>2025-09-14T07:47:17Z</time>
      </trkpt>
      <trkpt lat="45.67517" lon="3.45078">
        <ele>513.4</ele>
        <time>2025-09-14T07:47:18Z</time>
      </trkpt>
      <trkpt lat="45.67513" lon="3.45083">
        <ele>513.6</ele>
        <time>2025-09-14T07:47:19Z</time>
      </trkpt>
      <trkpt lat="45.6751" lon="3.45089">
        <ele>513.8</ele>
        <time>2025-09-14T07:47:20Z</time>
      </trkpt>
      <trkpt lat="45.67507" lon="3.45094">
        <ele>513.6</ele>
        <time>2025-09-14T07:47:21Z</time>
      </trkpt>
      <trkpt lat="45.67503" lon="3.451">
        <ele>513.6</ele>
        <time>2025-09-14T07:47:22Z</time>
      </trkpt>
      <trkpt lat="45.67499" lon="3.45106">
        <ele>513.4</ele>
        <time>2025-09-14T07:47:23Z</time>
      </trkpt>
      <trkpt lat="45.67495" lon="3.45112">
        <ele>513.4</ele>
        <time>2025-09-14T07:47:24Z</time>
      </trkpt>
      <trkpt lat="45.67491" lon="3.45118">
        <ele>513.4</ele>
        <time>2025-09-14T07:47:25Z</time>
      </trkpt>
      <trkpt lat="45.67488" lon="3.45125">
        <ele>513.4</ele>
        <time>2025-09-14T07:47:26Z</time>
      </trkpt>
      <trkpt lat="45.67485" lon="3.45132">
        <ele>513.4</ele>
        <time>2025-09-14T07:47:27Z</time>
      </trkpt>
      <trkpt lat="45.67481" lon="3.45138">
        <ele>513.4</ele>
        <time>2025-09-14T07:47:28Z</time>
      </trkpt>
      <trkpt lat="45.67478" lon="3.45145">
        <ele>513.4</ele>
        <time>2025-09-14T07:47:29Z</time>
      </trkpt>
      <trkpt lat="45.67474" lon="3.45152">
        <ele>513.4</ele>
        <time>2025-09-14T07:47:30Z</time>
      </trkpt>
      <trkpt lat="45.67471" lon="3.45157">
        <ele>513.4</ele>
        <time>2025-09-14T07:47:31Z</time>
      </trkpt>
      <trkpt lat="45.67467" lon="3.45163">
        <ele>513.6</ele>
        <time>2025-09-14T07:47:32Z</time>
      </trkpt>
      <trkpt lat="45.67463" lon="3.45168">
        <ele>513.6</ele>
        <time>2025-09-14T07:47:33Z</time>
      </trkpt>
      <trkpt lat="45.67459" lon="3.45173">
        <ele>513.8</ele>
        <time>2025-09-14T07:47:34Z</time>
      </trkpt>
      <trkpt lat="45.67455" lon="3.45178">
        <ele>513.8</ele>
        <time>2025-09-14T07:47:35Z</time>
      </trkpt>
      <trkpt lat="45.67452" lon="3.45182">
        <ele>514</ele>
        <time>2025-09-14T07:47:36Z</time>
      </trkpt>
      <trkpt lat="45.67448" lon="3.45186">
        <ele>514</ele>
        <time>2025-09-14T07:47:37Z</time>
      </trkpt>
      <trkpt lat="45.67445" lon="3.45191">
        <ele>514.2</ele>
        <time>2025-09-14T07:47:38Z</time>
      </trkpt>
      <trkpt lat="45.67441" lon="3.45195">
        <ele>514.4</ele>
        <time>2025-09-14T07:47:39Z</time>
      </trkpt>
      <trkpt lat="45.67438" lon="3.452">
        <ele>514.6</ele>
        <time>2025-09-14T07:47:40Z</time>
      </trkpt>
      <trkpt lat="45.67434" lon="3.45205">
        <ele>515</ele>
        <time>2025-09-14T07:47:41Z</time>
      </trkpt>
      <trkpt lat="45.67431" lon="3.45211">
        <ele>515.2</ele>
        <time>2025-09-14T07:47:42Z</time>
      </trkpt>
      <trkpt lat="45.67428" lon="3.45215">
        <ele>515.6</ele>
        <time>2025-09-14T07:47:43Z</time>
      </trkpt>
      <trkpt lat="45.67426" lon="3.45221">
        <ele>516</ele>
        <time>2025-09-14T07:47:44Z</time>
      </trkpt>
      <trkpt lat="45.67424" lon="3.45227">
        <ele>516.2</ele>
        <time>2025-09-14T07:47:45Z</time>
      </trkpt>
      <trkpt lat="45.67422" lon="3.45233">
        <ele>516.4</ele>
        <time>2025-09-14T07:47:46Z</time>
      </trkpt>
      <trkpt lat="45.6742" lon="3.45238">
        <ele>516.6</ele>
        <time>2025-09-14T07:47:47Z</time>
      </trkpt>
      <trkpt lat="45.67418" lon="3.45244">
        <ele>516.8</ele>
        <time>2025-09-14T07:47:48Z</time>
      </trkpt>
      <trkpt lat="45.67417" lon="3.45249">
        <ele>517</ele>
        <time>2025-09-14T07:47:49Z</time>
      </trkpt>
      <trkpt lat="45.67415" lon="3.45253">
        <ele>517.2</ele>
        <time>2025-09-14T07:47:50Z</time>
      </trkpt>
      <trkpt lat="45.67412" lon="3.45257">
        <ele>517.4</ele>
        <time>2025-09-14T07:47:51Z</time>
      </trkpt>
      <trkpt lat="45.67409" lon="3.45259">
        <ele>517.6</ele>
        <time>2025-09-14T07:47:52Z</time>
      </trkpt>
      <trkpt lat="45.67405" lon="3.45262">
        <ele>517.8</ele>
        <time>2025-09-14T07:47:53Z</time>
      </trkpt>
      <trkpt lat="45.67401" lon="3.45265">
        <ele>518</ele>
        <time>2025-09-14T07:47:54Z</time>
      </trkpt>
      <trkpt lat="45.67397" lon="3.45269">
        <ele>518</ele>
        <time>2025-09-14T07:47:55Z</time>
      </trkpt>
      <trkpt lat="45.67394" lon="3.45272">
        <ele>518</ele>
        <time>2025-09-14T07:47:56Z</time>
      </trkpt>
      <trkpt lat="45.67391" lon="3.45278">
        <ele>518</ele>
        <time>2025-09-14T07:47:57Z</time>
      </trkpt>
      <trkpt lat="45.6739" lon="3.45284">
        <ele>518</ele>
        <time>2025-09-14T07:47:58Z</time>
      </trkpt>
      <trkpt lat="45.67389" lon="3.45292">
        <ele>518</ele>
        <time>2025-09-14T07:47:59Z</time>
      </trkpt>
      <trkpt lat="45.6739" lon="3.453">
        <ele>518</ele>
        <time>2025-09-14T07:48:00Z</time>
      </trkpt>
      <trkpt lat="45.67392" lon="3.45308">
        <ele>518</ele>
        <time>2025-09-14T07:48:01Z</time>
      </trkpt>
      <trkpt lat="45.67394" lon="3.45315">
        <ele>517.8</ele>
        <time>2025-09-14T07:48:02Z</time>
      </trkpt>
      <trkpt lat="45.67396" lon="3.45322">
        <ele>517.8</ele>
        <time>2025-09-14T07:48:03Z</time>
      </trkpt>
      <trkpt lat="45.67397" lon="3.4533">
        <ele>517.8</ele>
        <time>2025-09-14T07:48:04Z</time>
      </trkpt>
      <trkpt lat="45.67397" lon="3.45337">
        <ele>518</ele>
        <time>2025-09-14T07:48:05Z</time>
      </trkpt>
      <trkpt lat="45.67398" lon="3.45343">
        <ele>518</ele>
        <time>2025-09-14T07:48:06Z</time>
      </trkpt>
      <trkpt lat="45.67398" lon="3.45349">
        <ele>518.2</ele>
        <time>2025-09-14T07:48:07Z</time>
      </trkpt>
      <trkpt lat="45.67398" lon="3.45353">
        <ele>518.2</ele>
        <time>2025-09-14T07:48:08Z</time>
      </trkpt>
      <trkpt lat="45.67396" lon="3.45359">
        <ele>518.4</ele>
        <time>2025-09-14T07:48:09Z</time>
      </trkpt>
      <trkpt lat="45.67393" lon="3.45364">
        <ele>518.4</ele>
        <time>2025-09-14T07:48:10Z</time>
      </trkpt>
      <trkpt lat="45.67389" lon="3.45369">
        <ele>518.4</ele>
        <time>2025-09-14T07:48:11Z</time>
      </trkpt>
      <trkpt lat="45.67385" lon="3.45375">
        <ele>518.2</ele>
        <time>2025-09-14T07:48:12Z</time>
      </trkpt>
      <trkpt lat="45.6738" lon="3.45381">
        <ele>518.2</ele>
        <time>2025-09-14T07:48:13Z</time>
      </trkpt>
      <trkpt lat="45.67376" lon="3.45388">
        <ele>518</ele>
        <time>2025-09-14T07:48:14Z</time>
      </trkpt>
      <trkpt lat="45.67372" lon="3.45393">
        <ele>517.8</ele>
        <time>2025-09-14T07:48:15Z</time>
      </trkpt>
      <trkpt lat="45.67369" lon="3.45399">
        <ele>517.8</ele>
        <time>2025-09-14T07:48:16Z</time>
      </trkpt>
      <trkpt lat="45.67365" lon="3.45406">
        <ele>517.8</ele>
        <time>2025-09-14T07:48:17Z</time>
      </trkpt>
      <trkpt lat="45.6736" lon="3.45412">
        <ele>517.6</ele>
        <time>2025-09-14T07:48:18Z</time>
      </trkpt>
      <trkpt lat="45.67355" lon="3.45418">
        <ele>517.6</ele>
        <time>2025-09-14T07:48:19Z</time>
      </trkpt>
      <trkpt lat="45.6735" lon="3.45421">
        <ele>517.6</ele>
        <time>2025-09-14T07:48:20Z</time>
      </trkpt>
      <trkpt lat="45.67346" lon="3.45423">
        <ele>517.8</ele>
        <time>2025-09-14T07:48:21Z</time>
      </trkpt>
      <trkpt lat="45.67341" lon="3.45426">
        <ele>517.8</ele>
        <time>2025-09-14T07:48:22Z</time>
      </trkpt>
      <trkpt lat="45.67337" lon="3.4543">
        <ele>517.8</ele>
        <time>2025-09-14T07:48:23Z</time>
      </trkpt>
      <trkpt lat="45.67332" lon="3.45433">
        <ele>517.8</ele>
        <time>2025-09-14T07:48:24Z</time>
      </trkpt>
      <trkpt lat="45.67327" lon="3.45437">
        <ele>518</ele>
        <time>2025-09-14T07:48:25Z</time>
      </trkpt>
      <trkpt lat="45.67321" lon="3.45441">
        <ele>518</ele>
        <time>2025-09-14T07:48:26Z</time>
      </trkpt>
      <trkpt lat="45.67316" lon="3.45445">
        <ele>518.2</ele>
        <time>2025-09-14T07:48:27Z</time>
      </trkpt>
      <trkpt lat="45.67312" lon="3.4545">
        <ele>518.2</ele>
        <time>2025-09-14T07:48:28Z</time>
      </trkpt>
      <trkpt lat="45.67309" lon="3.45455">
        <ele>518.2</ele>
        <time>2025-09-14T07:48:29Z</time>
      </trkpt>
      <trkpt lat="45.67305" lon="3.4546">
        <ele>518.2</ele>
        <time>2025-09-14T07:48:30Z</time>
      </trkpt>
      <trkpt lat="45.673" lon="3.45463">
        <ele>518</ele>
        <time>2025-09-14T07:48:31Z</time>
      </trkpt>
      <trkpt lat="45.67295" lon="3.45467">
        <ele>517.8</ele>
        <time>2025-09-14T07:48:32Z</time>
      </trkpt>
      <trkpt lat="45.67289" lon="3.4547">
        <ele>517.8</ele>
        <time>2025-09-14T07:48:33Z</time>
      </trkpt>
      <trkpt lat="45.67283" lon="3.45472">
        <ele>517.6</ele>
        <time>2025-09-14T07:48:34Z</time>
      </trkpt>
      <trkpt lat="45.67277" lon="3.45474">
        <ele>517.4</ele>
        <time>2025-09-14T07:48:35Z</time>
      </trkpt>
      <trkpt lat="45.67272" lon="3.45476">
        <ele>517.4</ele>
        <time>2025-09-14T07:48:36Z</time>
      </trkpt>
      <trkpt lat="45.67267" lon="3.45477">
        <ele>517.4</ele>
        <time>2025-09-14T07:48:37Z</time>
      </trkpt>
      <trkpt lat="45.67263" lon="3.45479">
        <ele>517.4</ele>
        <time>2025-09-14T07:48:38Z</time>
      </trkpt>
      <trkpt lat="45.67259" lon="3.45482">
        <ele>517.6</ele>
        <time>2025-09-14T07:48:39Z</time>
      </trkpt>
      <trkpt lat="45.67256" lon="3.45485">
        <ele>517.6</ele>
        <time>2025-09-14T07:48:40Z</time>
      </trkpt>
      <trkpt lat="45.67254" lon="3.45489">
        <ele>517.6</ele>
        <time>2025-09-14T07:48:41Z</time>
      </trkpt>
      <trkpt lat="45.67251" lon="3.45493">
        <ele>517.4</ele>
        <time>2025-09-14T07:48:42Z</time>
      </trkpt>
      <trkpt lat="45.6725" lon="3.45498">
        <ele>517.2</ele>
        <time>2025-09-14T07:48:43Z</time>
      </trkpt>
      <trkpt lat="45.67249" lon="3.45504">
        <ele>517</ele>
        <time>2025-09-14T07:48:44Z</time>
      </trkpt>
      <trkpt lat="45.67249" lon="3.4551">
        <ele>517</ele>
        <time>2025-09-14T07:48:45Z</time>
      </trkpt>
      <trkpt lat="45.67249" lon="3.45515">
        <ele>516.6</ele>
        <time>2025-09-14T07:48:46Z</time>
      </trkpt>
      <trkpt lat="45.6725" lon="3.4552">
        <ele>516.4</ele>
        <time>2025-09-14T07:48:47Z</time>
      </trkpt>
      <trkpt lat="45.67252" lon="3.45525">
        <ele>516.4</ele>
        <time>2025-09-14T07:48:48Z</time>
      </trkpt>
      <trkpt lat="45.67254" lon="3.4553">
        <ele>516.2</ele>
        <time>2025-09-14T07:48:49Z</time>
      </trkpt>
      <trkpt lat="45.67256" lon="3.45535">
        <ele>515.8</ele>
        <time>2025-09-14T07:48:50Z</time>
      </trkpt>
      <trkpt lat="45.67258" lon="3.45541">
        <ele>515.4</ele>
        <time>2025-09-14T07:48:51Z</time>
      </trkpt>
      <trkpt lat="45.67261" lon="3.45545">
        <ele>514.8</ele>
        <time>2025-09-14T07:48:52Z</time>
      </trkpt>
      <trkpt lat="45.67263" lon="3.45551">
        <ele>514.2</ele>
        <time>2025-09-14T07:48:53Z</time>
      </trkpt>
      <trkpt lat="45.67267" lon="3.45557">
        <ele>513.2</ele>
        <time>2025-09-14T07:48:54Z</time>
      </trkpt>
      <trkpt lat="45.67271" lon="3.45562">
        <ele>512.4</ele>
        <time>2025-09-14T07:48:55Z</time>
      </trkpt>
      <trkpt lat="45.67276" lon="3.45568">
        <ele>511.4</ele>
        <time>2025-09-14T07:48:56Z</time>
      </trkpt>
      <trkpt lat="45.6728" lon="3.45573">
        <ele>510.6</ele>
        <time>2025-09-14T07:48:57Z</time>
      </trkpt>
      <trkpt lat="45.67283" lon="3.4558">
        <ele>509.8</ele>
        <time>2025-09-14T07:48:58Z</time>
      </trkpt>
      <trkpt lat="45.67284" lon="3.45587">
        <ele>509</ele>
        <time>2025-09-14T07:48:59Z</time>
      </trkpt>
      <trkpt lat="45.67284" lon="3.45596">
        <ele>508.4</ele>
        <time>2025-09-14T07:49:00Z</time>
      </trkpt>
      <trkpt lat="45.67284" lon="3.45606">
        <ele>507.6</ele>
        <time>2025-09-14T07:49:01Z</time>
      </trkpt>
      <trkpt lat="45.67285" lon="3.45616">
        <ele>506.8</ele>
        <time>2025-09-14T07:49:02Z</time>
      </trkpt>
      <trkpt lat="45.67285" lon="3.45625">
        <ele>506</ele>
        <time>2025-09-14T07:49:03Z</time>
      </trkpt>
      <trkpt lat="45.67285" lon="3.45633">
        <ele>505</ele>
        <time>2025-09-14T07:49:04Z</time>
      </trkpt>
      <trkpt lat="45.67285" lon="3.45641">
        <ele>504</ele>
        <time>2025-09-14T07:49:05Z</time>
      </trkpt>
      <trkpt lat="45.67285" lon="3.45649">
        <ele>503.2</ele>
        <time>2025-09-14T07:49:06Z</time>
      </trkpt>
      <trkpt lat="45.67285" lon="3.45657">
        <ele>502.2</ele>
        <time>2025-09-14T07:49:07Z</time>
      </trkpt>
      <trkpt lat="45.67286" lon="3.45665">
        <ele>501</ele>
        <time>2025-09-14T07:49:08Z</time>
      </trkpt>
      <trkpt lat="45.67285" lon="3.45674">
        <ele>500</ele>
        <time>2025-09-14T07:49:09Z</time>
      </trkpt>
      <trkpt lat="45.67284" lon="3.45683">
        <ele>498.8</ele>
        <time>2025-09-14T07:49:10Z</time>
      </trkpt>
      <trkpt lat="45.67283" lon="3.45692">
        <ele>497.8</ele>
        <time>2025-09-14T07:49:11Z</time>
      </trkpt>
      <trkpt lat="45.67285" lon="3.457">
        <ele>496.6</ele>
        <time>2025-09-14T07:49:12Z</time>
      </trkpt>
      <trkpt lat="45.67286" lon="3.45707">
        <ele>495.6</ele>
        <time>2025-09-14T07:49:13Z</time>
      </trkpt>
      <trkpt lat="45.67287" lon="3.45715">
        <ele>494.8</ele>
        <time>2025-09-14T07:49:14Z</time>
      </trkpt>
      <trkpt lat="45.67288" lon="3.45722">
        <ele>493.8</ele>
        <time>2025-09-14T07:49:15Z</time>
      </trkpt>
      <trkpt lat="45.67289" lon="3.45729">
        <ele>492.8</ele>
        <time>2025-09-14T07:49:16Z</time>
      </trkpt>
      <trkpt lat="45.67289" lon="3.45736">
        <ele>491.6</ele>
        <time>2025-09-14T07:49:17Z</time>
      </trkpt>
      <trkpt lat="45.6729" lon="3.45742">
        <ele>490.6</ele>
        <time>2025-09-14T07:49:18Z</time>
      </trkpt>
      <trkpt lat="45.6729" lon="3.45747">
        <ele>489.6</ele>
        <time>2025-09-14T07:49:19Z</time>
      </trkpt>
      <trkpt lat="45.6729" lon="3.45753">
        <ele>488.8</ele>
        <time>2025-09-14T07:49:20Z</time>
      </trkpt>
      <trkpt lat="45.67289" lon="3.4576">
        <ele>487.8</ele>
        <time>2025-09-14T07:49:21Z</time>
      </trkpt>
      <trkpt lat="45.67288" lon="3.45765">
        <ele>487</ele>
        <time>2025-09-14T07:49:22Z</time>
      </trkpt>
      <trkpt lat="45.67286" lon="3.45768">
        <ele>486</ele>
        <time>2025-09-14T07:49:23Z</time>
      </trkpt>
      <trkpt lat="45.67284" lon="3.4577">
        <ele>485.2</ele>
        <time>2025-09-14T07:49:24Z</time>
      </trkpt>
      <trkpt lat="45.67281" lon="3.45771">
        <ele>484.4</ele>
        <time>2025-09-14T07:49:25Z</time>
      </trkpt>
      <trkpt lat="45.6728" lon="3.45771">
        <ele>483.6</ele>
        <time>2025-09-14T07:49:26Z</time>
      </trkpt>
      <trkpt lat="45.67278" lon="3.45771">
        <ele>483</ele>
        <time>2025-09-14T07:49:27Z</time>
      </trkpt>
      <trkpt lat="45.67277" lon="3.45772">
        <ele>482.4</ele>
        <time>2025-09-14T07:49:28Z</time>
      </trkpt>
      <trkpt lat="45.67277" lon="3.45774">
        <ele>482</ele>
        <time>2025-09-14T07:49:29Z</time>
      </trkpt>
      <trkpt lat="45.67278" lon="3.45776">
        <ele>481.8</ele>
        <time>2025-09-14T07:49:30Z</time>
      </trkpt>
      <trkpt lat="45.67278" lon="3.45776">
        <ele>481.4</ele>
        <time>2025-09-14T07:49:31Z</time>
      </trkpt>
      <trkpt lat="45.67279" lon="3.45776">
        <ele>480.6</ele>
        <time>2025-09-14T07:49:35Z</time>
      </trkpt>
      <trkpt lat="45.6728" lon="3.45776">
        <ele>480.4</ele>
        <time>2025-09-14T07:49:36Z</time>
      </trkpt>
      <trkpt lat="45.67282" lon="3.45777">
        <ele>480.2</ele>
        <time>2025-09-14T07:49:37Z</time>
      </trkpt>
      <trkpt lat="45.67284" lon="3.45777">
        <ele>480.2</ele>
        <time>2025-09-14T07:49:38Z</time>
      </trkpt>
      <trkpt lat="45.67287" lon="3.45779">
        <ele>480</ele>
        <time>2025-09-14T07:49:39Z</time>
      </trkpt>
      <trkpt lat="45.6729" lon="3.45781">
        <ele>479.8</ele>
        <time>2025-09-14T07:49:40Z</time>
      </trkpt>
      <trkpt lat="45.67293" lon="3.45783">
        <ele>479.4</ele>
        <time>2025-09-14T07:49:41Z</time>
      </trkpt>
      <trkpt lat="45.67295" lon="3.45786">
        <ele>479.2</ele>
        <time>2025-09-14T07:49:42Z</time>
      </trkpt>
      <trkpt lat="45.67298" lon="3.4579">
        <ele>479</ele>
        <time>2025-09-14T07:49:43Z</time>
      </trkpt>
      <trkpt lat="45.67301" lon="3.45795">
        <ele>478.6</ele>
        <time>2025-09-14T07:49:44Z</time>
      </trkpt>
      <trkpt lat="45.67303" lon="3.45801">
        <ele>478.2</ele>
        <time>2025-09-14T07:49:45Z</time>
      </trkpt>
      <trkpt lat="45.67306" lon="3.45806">
        <ele>478</ele>
        <time>2025-09-14T07:49:46Z</time>
      </trkpt>
      <trkpt lat="45.67307" lon="3.4581">
        <ele>477.6</ele>
        <time>2025-09-14T07:49:47Z</time>
      </trkpt>
      <trkpt lat="45.67308" lon="3.45813">
        <ele>477.2</ele>
        <time>2025-09-14T07:49:48Z</time>
      </trkpt>
      <trkpt lat="45.67309" lon="3.45814">
        <ele>477</ele>
        <time>2025-09-14T07:49:49Z</time>
      </trkpt>
      <trkpt lat="45.67309" lon="3.45814">
        <ele>476.8</ele>
        <time>2025-09-14T07:49:50Z</time>
      </trkpt>
      <trkpt lat="45.67309" lon="3.45814">
        <ele>476.6</ele>
        <time>2025-09-14T07:49:51Z</time>
      </trkpt>
      <trkpt lat="45.67309" lon="3.45814">
        <ele>476.4</ele>
        <time>2025-09-14T07:49:52Z</time>
      </trkpt>
      <trkpt lat="45.67309" lon="3.45814">
        <ele>476.4</ele>
        <time>2025-09-14T07:49:53Z</time>
      </trkpt>
      <trkpt lat="45.67309" lon="3.45814">
        <ele>476.4</ele>
        <time>2025-09-14T07:49:54Z</time>
      </trkpt>
      <trkpt lat="45.67311" lon="3.45816">
        <ele>476</ele>
        <time>2025-09-14T07:50:09Z</time>
      </trkpt>
      <trkpt lat="45.67313" lon="3.45817">
        <ele>475.8</ele>
        <time>2025-09-14T07:50:10Z</time>
      </trkpt>
      <trkpt lat="45.67316" lon="3.4582">
        <ele>475.6</ele>
        <time>2025-09-14T07:50:11Z</time>
      </trkpt>
      <trkpt lat="45.67319" lon="3.45822">
        <ele>475.4</ele>
        <time>2025-09-14T07:50:12Z</time>
      </trkpt>
      <trkpt lat="45.67323" lon="3.45825">
        <ele>475</ele>
        <time>2025-09-14T07:50:13Z</time>
      </trkpt>
      <trkpt lat="45.67327" lon="3.45828">
        <ele>474.6</ele>
        <time>2025-09-14T07:50:14Z</time>
      </trkpt>
      <trkpt lat="45.67332" lon="3.45831">
        <ele>474.4</ele>
        <time>2025-09-14T07:50:15Z</time>
      </trkpt>
      <trkpt lat="45.67336" lon="3.45834">
        <ele>474</ele>
        <time>2025-09-14T07:50:16Z</time>
      </trkpt>
      <trkpt lat="45.67342" lon="3.45836">
        <ele>473.4</ele>
        <time>2025-09-14T07:50:17Z</time>
      </trkpt>
      <trkpt lat="45.67347" lon="3.45837">
        <ele>473</ele>
        <time>2025-09-14T07:50:18Z</time>
      </trkpt>
      <trkpt lat="45.67352" lon="3.45837">
        <ele>472.8</ele>
        <time>2025-09-14T07:50:19Z</time>
      </trkpt>
      <trkpt lat="45.67357" lon="3.45837">
        <ele>472.4</ele>
        <time>2025-09-14T07:50:20Z</time>
      </trkpt>
      <trkpt lat="45.67362" lon="3.45836">
        <ele>472.2</ele>
        <time>2025-09-14T07:50:21Z</time>
      </trkpt>
      <trkpt lat="45.67366" lon="3.45837">
        <ele>472</ele>
        <time>2025-09-14T07:50:22Z</time>
      </trkpt>
      <trkpt lat="45.67369" lon="3.45837">
        <ele>471.8</ele>
        <time>2025-09-14T07:50:23Z</time>
      </trkpt>
      <trkpt lat="45.67373" lon="3.4584">
        <ele>471.6</ele>
        <time>2025-09-14T07:50:24Z</time>
      </trkpt>
      <trkpt lat="45.67376" lon="3.45843">
        <ele>471.6</ele>
        <time>2025-09-14T07:50:25Z</time>
      </trkpt>
      <trkpt lat="45.67379" lon="3.45846">
        <ele>471.6</ele>
        <time>2025-09-14T07:50:26Z</time>
      </trkpt>
      <trkpt lat="45.67382" lon="3.45852">
        <ele>471.6</ele>
        <time>2025-09-14T07:50:27Z</time>
      </trkpt>
      <trkpt lat="45.67385" lon="3.45858">
        <ele>471.6</ele>
        <time>2025-09-14T07:50:28Z</time>
      </trkpt>
      <trkpt lat="45.67388" lon="3.45864">
        <ele>471.6</ele>
        <time>2025-09-14T07:50:29Z</time>
      </trkpt>
      <trkpt lat="45.67392" lon="3.4587">
        <ele>471.6</ele>
        <time>2025-09-14T07:50:30Z</time>
      </trkpt>
      <trkpt lat="45.67395" lon="3.45876">
        <ele>471.8</ele>
        <time>2025-09-14T07:50:31Z</time>
      </trkpt>
      <trkpt lat="45.67398" lon="3.45882">
        <ele>471.8</ele>
        <time>2025-09-14T07:50:32Z</time>
      </trkpt>
      <trkpt lat="45.67399" lon="3.45887">
        <ele>471.8</ele>
        <time>2025-09-14T07:50:33Z</time>
      </trkpt>
      <trkpt lat="45.67401" lon="3.45893">
        <ele>472</ele>
        <time>2025-09-14T07:50:34Z</time>
      </trkpt>
      <trkpt lat="45.67403" lon="3.45898">
        <ele>472</ele>
        <time>2025-09-14T07:50:35Z</time>
      </trkpt>
      <trkpt lat="45.67405" lon="3.45903">
        <ele>472.2</ele>
        <time>2025-09-14T07:50:36Z</time>
      </trkpt>
      <trkpt lat="45.67406" lon="3.45908">
        <ele>472.4</ele>
        <time>2025-09-14T07:50:37Z</time>
      </trkpt>
      <trkpt lat="45.67407" lon="3.45914">
        <ele>472.6</ele>
        <time>2025-09-14T07:50:38Z</time>
      </trkpt>
      <trkpt lat="45.67409" lon="3.45919">
        <ele>472.8</ele>
        <time>2025-09-14T07:50:39Z</time>
      </trkpt>
      <trkpt lat="45.6741" lon="3.45923">
        <ele>473</ele>
        <time>2025-09-14T07:50:40Z</time>
      </trkpt>
      <trkpt lat="45.67412" lon="3.45928">
        <ele>473</ele>
        <time>2025-09-14T07:50:41Z</time>
      </trkpt>
      <trkpt lat="45.67412" lon="3.45932">
        <ele>473.2</ele>
        <time>2025-09-14T07:50:42Z</time>
      </trkpt>
      <trkpt lat="45.67413" lon="3.45936">
        <ele>473.4</ele>
        <time>2025-09-14T07:50:43Z</time>
      </trkpt>
      <trkpt lat="45.67415" lon="3.45939">
        <ele>473.6</ele>
        <time>2025-09-14T07:50:44Z</time>
      </trkpt>
      <trkpt lat="45.67416" lon="3.45943">
        <ele>473.8</ele>
        <time>2025-09-14T07:50:45Z</time>
      </trkpt>
      <trkpt lat="45.67418" lon="3.45948">
        <ele>473.8</ele>
        <time>2025-09-14T07:50:46Z</time>
      </trkpt>
      <trkpt lat="45.67422" lon="3.45952">
        <ele>474.2</ele>
        <time>2025-09-14T07:50:47Z</time>
      </trkpt>
      <trkpt lat="45.67423" lon="3.45956">
        <ele>474.4</ele>
        <time>2025-09-14T07:50:48Z</time>
      </trkpt>
      <trkpt lat="45.67425" lon="3.45959">
        <ele>474.6</ele>
        <time>2025-09-14T07:50:49Z</time>
      </trkpt>
      <trkpt lat="45.67427" lon="3.45963">
        <ele>474.8</ele>
        <time>2025-09-14T07:50:50Z</time>
      </trkpt>
      <trkpt lat="45.67429" lon="3.45966">
        <ele>475</ele>
        <time>2025-09-14T07:50:51Z</time>
      </trkpt>
      <trkpt lat="45.67432" lon="3.45971">
        <ele>475.2</ele>
        <time>2025-09-14T07:50:52Z</time>
      </trkpt>
      <trkpt lat="45.67434" lon="3.45975">
        <ele>475.4</ele>
        <time>2025-09-14T07:50:53Z</time>
      </trkpt>
      <trkpt lat="45.67436" lon="3.45979">
        <ele>475.6</ele>
        <time>2025-09-14T07:50:54Z</time>
      </trkpt>
      <trkpt lat="45.67438" lon="3.45983">
        <ele>475.6</ele>
        <time>2025-09-14T07:50:55Z</time>
      </trkpt>
      <trkpt lat="45.6744" lon="3.45987">
        <ele>475.8</ele>
        <time>2025-09-14T07:50:56Z</time>
      </trkpt>
      <trkpt lat="45.67443" lon="3.45991">
        <ele>476</ele>
        <time>2025-09-14T07:50:57Z</time>
      </trkpt>
      <trkpt lat="45.67444" lon="3.45995">
        <ele>476</ele>
        <time>2025-09-14T07:50:58Z</time>
      </trkpt>
      <trkpt lat="45.67446" lon="3.45999">
        <ele>476.2</ele>
        <time>2025-09-14T07:50:59Z</time>
      </trkpt>
      <trkpt lat="45.67448" lon="3.46003">
        <ele>476.2</ele>
        <time>2025-09-14T07:51:00Z</time>
      </trkpt>
      <trkpt lat="45.67451" lon="3.46007">
        <ele>476.2</ele>
        <time>2025-09-14T07:51:01Z</time>
      </trkpt>
      <trkpt lat="45.67453" lon="3.4601">
        <ele>476.2</ele>
        <time>2025-09-14T07:51:02Z</time>
      </trkpt>
      <trkpt lat="45.67454" lon="3.46014">
        <ele>476.2</ele>
        <time>2025-09-14T07:51:03Z</time>
      </trkpt>
      <trkpt lat="45.67456" lon="3.46018">
        <ele>476.4</ele>
        <time>2025-09-14T07:51:04Z</time>
      </trkpt>
      <trkpt lat="45.67457" lon="3.46021">
        <ele>476.4</ele>
        <time>2025-09-14T07:51:05Z</time>
      </trkpt>
      <trkpt lat="45.67459" lon="3.46023">
        <ele>476.2</ele>
        <time>2025-09-14T07:51:06Z</time>
      </trkpt>
      <trkpt lat="45.6746" lon="3.46027">
        <ele>476.2</ele>
        <time>2025-09-14T07:51:07Z</time>
      </trkpt>
      <trkpt lat="45.67461" lon="3.4603">
        <ele>476</ele>
        <time>2025-09-14T07:51:08Z</time>
      </trkpt>
      <trkpt lat="45.67464" lon="3.46033">
        <ele>476</ele>
        <time>2025-09-14T07:51:09Z</time>
      </trkpt>
      <trkpt lat="45.67466" lon="3.46037">
        <ele>476</ele>
        <time>2025-09-14T07:51:10Z</time>
      </trkpt>
      <trkpt lat="45.67469" lon="3.46039">
        <ele>475.8</ele>
        <time>2025-09-14T07:51:11Z</time>
      </trkpt>
      <trkpt lat="45.6747" lon="3.46042">
        <ele>475.8</ele>
        <time>2025-09-14T07:51:12Z</time>
      </trkpt>
      <trkpt lat="45.67471" lon="3.46044">
        <ele>475.6</ele>
        <time>2025-09-14T07:51:13Z</time>
      </trkpt>
      <trkpt lat="45.67472" lon="3.46047">
        <ele>475.4</ele>
        <time>2025-09-14T07:51:14Z</time>
      </trkpt>
      <trkpt lat="45.67473" lon="3.46049">
        <ele>475.4</ele>
        <time>2025-09-14T07:51:15Z</time>
      </trkpt>
      <trkpt lat="45.67475" lon="3.46052">
        <ele>475.4</ele>
        <time>2025-09-14T07:51:16Z</time>
      </trkpt>
      <trkpt lat="45.67476" lon="3.46056">
        <ele>475.4</ele>
        <time>2025-09-14T07:51:17Z</time>
      </trkpt>
      <trkpt lat="45.67478" lon="3.4606">
        <ele>475.4</ele>
        <time>2025-09-14T07:51:18Z</time>
      </trkpt>
      <trkpt lat="45.67479" lon="3.46065">
        <ele>475.6</ele>
        <time>2025-09-14T07:51:19Z</time>
      </trkpt>
      <trkpt lat="45.67479" lon="3.46069">
        <ele>475.8</ele>
        <time>2025-09-14T07:51:20Z</time>
      </trkpt>
      <trkpt lat="45.67478" lon="3.46072">
        <ele>476</ele>
        <time>2025-09-14T07:51:21Z</time>
      </trkpt>
      <trkpt lat="45.67476" lon="3.46076">
        <ele>476</ele>
        <time>2025-09-14T07:51:22Z</time>
      </trkpt>
      <trkpt lat="45.67475" lon="3.46081">
        <ele>476</ele>
        <time>2025-09-14T07:51:23Z</time>
      </trkpt>
      <trkpt lat="45.67474" lon="3.46088">
        <ele>476.2</ele>
        <time>2025-09-14T07:51:24Z</time>
      </trkpt>
      <trkpt lat="45.67473" lon="3.46095">
        <ele>476.4</ele>
        <time>2025-09-14T07:51:25Z</time>
      </trkpt>
      <trkpt lat="45.67471" lon="3.46102">
        <ele>476.6</ele>
        <time>2025-09-14T07:51:26Z</time>
      </trkpt>
      <trkpt lat="45.6747" lon="3.46107">
        <ele>477</ele>
        <time>2025-09-14T07:51:27Z</time>
      </trkpt>
      <trkpt lat="45.67469" lon="3.46114">
        <ele>477.2</ele>
        <time>2025-09-14T07:51:28Z</time>
      </trkpt>
      <trkpt lat="45.67469" lon="3.46119">
        <ele>477.6</ele>
        <time>2025-09-14T07:51:29Z</time>
      </trkpt>
      <trkpt lat="45.67469" lon="3.46124">
        <ele>477.8</ele>
        <time>2025-09-14T07:51:30Z</time>
      </trkpt>
      <trkpt lat="45.67469" lon="3.46128">
        <ele>478.2</ele>
        <time>2025-09-14T07:51:31Z</time>
      </trkpt>
      <trkpt lat="45.67468" lon="3.46132">
        <ele>478.6</ele>
        <time>2025-09-14T07:51:32Z</time>
      </trkpt>
      <trkpt lat="45.67467" lon="3.46135">
        <ele>479</ele>
        <time>2025-09-14T07:51:33Z</time>
      </trkpt>
      <trkpt lat="45.67466" lon="3.46139">
        <ele>479.6</ele>
        <time>2025-09-14T07:51:34Z</time>
      </trkpt>
      <trkpt lat="45.67465" lon="3.46142">
        <ele>480</ele>
        <time>2025-09-14T07:51:35Z</time>
      </trkpt>
      <trkpt lat="45.67464" lon="3.46146">
        <ele>480.4</ele>
        <time>2025-09-14T07:51:36Z</time>
      </trkpt>
      <trkpt lat="45.67463" lon="3.46149">
        <ele>480.8</ele>
        <time>2025-09-14T07:51:37Z</time>
      </trkpt>
      <trkpt lat="45.67462" lon="3.46153">
        <ele>481.2</ele>
        <time>2025-09-14T07:51:38Z</time>
      </trkpt>
      <trkpt lat="45.67462" lon="3.46156">
        <ele>481.6</ele>
        <time>2025-09-14T07:51:39Z</time>
      </trkpt>
      <trkpt lat="45.67461" lon="3.46159">
        <ele>482</ele>
        <time>2025-09-14T07:51:40Z</time>
      </trkpt>
      <trkpt lat="45.6746" lon="3.46163">
        <ele>482.4</ele>
        <time>2025-09-14T07:51:41Z</time>
      </trkpt>
      <trkpt lat="45.67459" lon="3.46166">
        <ele>482.8</ele>
        <time>2025-09-14T07:51:42Z</time>
      </trkpt>
      <trkpt lat="45.67458" lon="3.46169">
        <ele>483.2</ele>
        <time>2025-09-14T07:51:43Z</time>
      </trkpt>
      <trkpt lat="45.67457" lon="3.46173">
        <ele>483.6</ele>
        <time>2025-09-14T07:51:44Z</time>
      </trkpt>
      <trkpt lat="45.67456" lon="3.46176">
        <ele>484.2</ele>
        <time>2025-09-14T07:51:45Z</time>
      </trkpt>
      <trkpt lat="45.67456" lon="3.4618">
        <ele>484.8</ele>
        <time>2025-09-14T07:51:46Z</time>
      </trkpt>
      <trkpt lat="45.67456" lon="3.46183">
        <ele>485.2</ele>
        <time>2025-09-14T07:51:47Z</time>
      </trkpt>
      <trkpt lat="45.67454" lon="3.46186">
        <ele>485.8</ele>
        <time>2025-09-14T07:51:48Z</time>
      </trkpt>
      <trkpt lat="45.67454" lon="3.46189">
        <ele>486.2</ele>
        <time>2025-09-14T07:51:49Z</time>
      </trkpt>
      <trkpt lat="45.67454" lon="3.46193">
        <ele>486.8</ele>
        <time>2025-09-14T07:51:50Z</time>
      </trkpt>
      <trkpt lat="45.67454" lon="3.46196">
        <ele>487.2</ele>
        <time>2025-09-14T07:51:51Z</time>
      </trkpt>
      <trkpt lat="45.67454" lon="3.462">
        <ele>487.8</ele>
        <time>2025-09-14T07:51:52Z</time>
      </trkpt>
      <trkpt lat="45.67454" lon="3.46203">
        <ele>488</ele>
        <time>2025-09-14T07:51:53Z</time>
      </trkpt>
      <trkpt lat="45.67454" lon="3.46207">
        <ele>488.4</ele>
        <time>2025-09-14T07:51:54Z</time>
      </trkpt>
      <trkpt lat="45.67454" lon="3.4621">
        <ele>488.8</ele>
        <time>2025-09-14T07:51:55Z</time>
      </trkpt>
      <trkpt lat="45.67454" lon="3.46213">
        <ele>489.2</ele>
        <time>2025-09-14T07:51:56Z</time>
      </trkpt>
      <trkpt lat="45.67455" lon="3.46217">
        <ele>489.4</ele>
        <time>2025-09-14T07:51:57Z</time>
      </trkpt>
      <trkpt lat="45.67455" lon="3.46219">
        <ele>489.6</ele>
        <time>2025-09-14T07:51:58Z</time>
      </trkpt>
      <trkpt lat="45.67455" lon="3.46222">
        <ele>490</ele>
        <time>2025-09-14T07:51:59Z</time>
      </trkpt>
      <trkpt lat="45.67455" lon="3.46224">
        <ele>490</ele>
        <time>2025-09-14T07:52:00Z</time>
      </trkpt>
      <trkpt lat="45.67455" lon="3.46226">
        <ele>490.2</ele>
        <time>2025-09-14T07:52:01Z</time>
      </trkpt>
      <trkpt lat="45.67455" lon="3.46229">
        <ele>490.4</ele>
        <time>2025-09-14T07:52:02Z</time>
      </trkpt>
      <trkpt lat="45.67455" lon="3.46231">
        <ele>490.4</ele>
        <time>2025-09-14T07:52:03Z</time>
      </trkpt>
      <trkpt lat="45.67455" lon="3.46233">
        <ele>490.6</ele>
        <time>2025-09-14T07:52:04Z</time>
      </trkpt>
      <trkpt lat="45.67455" lon="3.46235">
        <ele>490.6</ele>
        <time>2025-09-14T07:52:05Z</time>
      </trkpt>
      <trkpt lat="45.67455" lon="3.46237">
        <ele>490.6</ele>
        <time>2025-09-14T07:52:06Z</time>
      </trkpt>
      <trkpt lat="45.67456" lon="3.4624">
        <ele>490.6</ele>
        <time>2025-09-14T07:52:07Z</time>
      </trkpt>
      <trkpt lat="45.67456" lon="3.46242">
        <ele>490.6</ele>
        <time>2025-09-14T07:52:08Z</time>
      </trkpt>
      <trkpt lat="45.67456" lon="3.46245">
        <ele>490.8</ele>
        <time>2025-09-14T07:52:09Z</time>
      </trkpt>
      <trkpt lat="45.67456" lon="3.46248">
        <ele>490.6</ele>
        <time>2025-09-14T07:52:10Z</time>
      </trkpt>
      <trkpt lat="45.67456" lon="3.46252">
        <ele>490.6</ele>
        <time>2025-09-14T07:52:11Z</time>
      </trkpt>
      <trkpt lat="45.67457" lon="3.46256">
        <ele>490.8</ele>
        <time>2025-09-14T07:52:12Z</time>
      </trkpt>
      <trkpt lat="45.67457" lon="3.46261">
        <ele>490.8</ele>
        <time>2025-09-14T07:52:13Z</time>
      </trkpt>
      <trkpt lat="45.67458" lon="3.46266">
        <ele>490.8</ele>
        <time>2025-09-14T07:52:14Z</time>
      </trkpt>
      <trkpt lat="45.6746" lon="3.46271">
        <ele>491</ele>
        <time>2025-09-14T07:52:15Z</time>
      </trkpt>
      <trkpt lat="45.67461" lon="3.46276">
        <ele>491.2</ele>
        <time>2025-09-14T07:52:16Z</time>
      </trkpt>
      <trkpt lat="45.67463" lon="3.46281">
        <ele>491.2</ele>
        <time>2025-09-14T07:52:17Z</time>
      </trkpt>
      <trkpt lat="45.67466" lon="3.46287">
        <ele>491</ele>
        <time>2025-09-14T07:52:18Z</time>
      </trkpt>
      <trkpt lat="45.6747" lon="3.46293">
        <ele>490.8</ele>
        <time>2025-09-14T07:52:19Z</time>
      </trkpt>
      <trkpt lat="45.67476" lon="3.46298">
        <ele>490.4</ele>
        <time>2025-09-14T07:52:20Z</time>
      </trkpt>
      <trkpt lat="45.67482" lon="3.46304">
        <ele>489.8</ele>
        <time>2025-09-14T07:52:21Z</time>
      </trkpt>
      <trkpt lat="45.67488" lon="3.46309">
        <ele>489</ele>
        <time>2025-09-14T07:52:22Z</time>
      </trkpt>
      <trkpt lat="45.67495" lon="3.46315">
        <ele>488</ele>
        <time>2025-09-14T07:52:23Z</time>
      </trkpt>
      <trkpt lat="45.67502" lon="3.46322">
        <ele>487.4</ele>
        <time>2025-09-14T07:52:24Z</time>
      </trkpt>
      <trkpt lat="45.67509" lon="3.46329">
        <ele>486.6</ele>
        <time>2025-09-14T07:52:25Z</time>
      </trkpt>
      <trkpt lat="45.67515" lon="3.46336">
        <ele>485.8</ele>
        <time>2025-09-14T07:52:26Z</time>
      </trkpt>
      <trkpt lat="45.67521" lon="3.46345">
        <ele>485</ele>
        <time>2025-09-14T07:52:27Z</time>
      </trkpt>
      <trkpt lat="45.67525" lon="3.46355">
        <ele>484.2</ele>
        <time>2025-09-14T07:52:28Z</time>
      </trkpt>
      <trkpt lat="45.67529" lon="3.46365">
        <ele>483.4</ele>
        <time>2025-09-14T07:52:29Z</time>
      </trkpt>
      <trkpt lat="45.67531" lon="3.46376">
        <ele>482.8</ele>
        <time>2025-09-14T07:52:30Z</time>
      </trkpt>
      <trkpt lat="45.67532" lon="3.46387">
        <ele>482</ele>
        <time>2025-09-14T07:52:31Z</time>
      </trkpt>
      <trkpt lat="45.67531" lon="3.46398">
        <ele>481.2</ele>
        <time>2025-09-14T07:52:32Z</time>
      </trkpt>
      <trkpt lat="45.67528" lon="3.46408">
        <ele>480.6</ele>
        <time>2025-09-14T07:52:33Z</time>
      </trkpt>
      <trkpt lat="45.67525" lon="3.46417">
        <ele>480</ele>
        <time>2025-09-14T07:52:34Z</time>
      </trkpt>
      <trkpt lat="45.67522" lon="3.46425">
        <ele>479.4</ele>
        <time>2025-09-14T07:52:35Z</time>
      </trkpt>
      <trkpt lat="45.67518" lon="3.46434">
        <ele>478.8</ele>
        <time>2025-09-14T07:52:36Z</time>
      </trkpt>
      <trkpt lat="45.67513" lon="3.46444">
        <ele>478.4</ele>
        <time>2025-09-14T07:52:37Z</time>
      </trkpt>
      <trkpt lat="45.67509" lon="3.46454">
        <ele>477.8</ele>
        <time>2025-09-14T07:52:38Z</time>
      </trkpt>
      <trkpt lat="45.67505" lon="3.46465">
        <ele>477.4</ele>
        <time>2025-09-14T07:52:39Z</time>
      </trkpt>
      <trkpt lat="45.67502" lon="3.46475">
        <ele>477</ele>
        <time>2025-09-14T07:52:40Z</time>
      </trkpt>
      <trkpt lat="45.675" lon="3.46485">
        <ele>476.8</ele>
        <time>2025-09-14T07:52:41Z</time>
      </trkpt>
      <trkpt lat="45.67498" lon="3.46494">
        <ele>476.4</ele>
        <time>2025-09-14T07:52:42Z</time>
      </trkpt>
      <trkpt lat="45.67497" lon="3.46503">
        <ele>476</ele>
        <time>2025-09-14T07:52:43Z</time>
      </trkpt>
      <trkpt lat="45.67496" lon="3.46511">
        <ele>475.6</ele>
        <time>2025-09-14T07:52:44Z</time>
      </trkpt>
      <trkpt lat="45.67496" lon="3.46516">
        <ele>475.2</ele>
        <time>2025-09-14T07:52:45Z</time>
      </trkpt>
      <trkpt lat="45.67496" lon="3.46518">
        <ele>475</ele>
        <time>2025-09-14T07:52:46Z</time>
      </trkpt>
      <trkpt lat="45.67497" lon="3.4652">
        <ele>474.8</ele>
        <time>2025-09-14T07:52:47Z</time>
      </trkpt>
      <trkpt lat="45.67498" lon="3.46521">
        <ele>474.8</ele>
        <time>2025-09-14T07:52:48Z</time>
      </trkpt>
      <trkpt lat="45.67499" lon="3.46521">
        <ele>474.8</ele>
        <time>2025-09-14T07:52:49Z</time>
      </trkpt>
      <trkpt lat="45.67501" lon="3.4652">
        <ele>474.6</ele>
        <time>2025-09-14T07:52:50Z</time>
      </trkpt>
      <trkpt lat="45.67502" lon="3.46518">
        <ele>474.6</ele>
        <time>2025-09-14T07:52:51Z</time>
      </trkpt>
      <trkpt lat="45.67504" lon="3.46516">
        <ele>474.4</ele>
        <time>2025-09-14T07:52:52Z</time>
      </trkpt>
      <trkpt lat="45.67506" lon="3.46515">
        <ele>474.4</ele>
        <time>2025-09-14T07:52:53Z</time>
      </trkpt>
      <trkpt lat="45.67507" lon="3.46514">
        <ele>474.4</ele>
        <time>2025-09-14T07:52:54Z</time>
      </trkpt>
      <trkpt lat="45.67509" lon="3.46514">
        <ele>474.6</ele>
        <time>2025-09-14T07:52:55Z</time>
      </trkpt>
      <trkpt lat="45.67511" lon="3.46513">
        <ele>474.6</ele>
        <time>2025-09-14T07:52:56Z</time>
      </trkpt>
      <trkpt lat="45.67513" lon="3.46513">
        <ele>474.6</ele>
        <time>2025-09-14T07:52:57Z</time>
      </trkpt>
      <trkpt lat="45.67515" lon="3.46512">
        <ele>474.8</ele>
        <time>2025-09-14T07:52:58Z</time>
      </trkpt>
      <trkpt lat="45.67517" lon="3.46512">
        <ele>474.8</ele>
        <time>2025-09-14T07:52:59Z</time>
      </trkpt>
      <trkpt lat="45.67519" lon="3.46512">
        <ele>475</ele>
        <time>2025-09-14T07:53:00Z</time>
      </trkpt>
      <trkpt lat="45.67522" lon="3.46512">
        <ele>475.2</ele>
        <time>2025-09-14T07:53:01Z</time>
      </trkpt>
      <trkpt lat="45.67525" lon="3.46512">
        <ele>475.4</ele>
        <time>2025-09-14T07:53:02Z</time>
      </trkpt>
      <trkpt lat="45.67527" lon="3.46511">
        <ele>475.4</ele>
        <time>2025-09-14T07:53:03Z</time>
      </trkpt>
      <trkpt lat="45.6753" lon="3.46511">
        <ele>475.6</ele>
        <time>2025-09-14T07:53:04Z</time>
      </trkpt>
      <trkpt lat="45.67532" lon="3.4651">
        <ele>475.6</ele>
        <time>2025-09-14T07:53:05Z</time>
      </trkpt>
      <trkpt lat="45.67535" lon="3.4651">
        <ele>475.8</ele>
        <time>2025-09-14T07:53:06Z</time>
      </trkpt>
      <trkpt lat="45.67537" lon="3.4651">
        <ele>476</ele>
        <time>2025-09-14T07:53:07Z</time>
      </trkpt>
      <trkpt lat="45.6754" lon="3.4651">
        <ele>476</ele>
        <time>2025-09-14T07:53:08Z</time>
      </trkpt>
      <trkpt lat="45.67542" lon="3.46509">
        <ele>476.2</ele>
        <time>2025-09-14T07:53:09Z</time>
      </trkpt>
      <trkpt lat="45.67545" lon="3.46509">
        <ele>476.4</ele>
        <time>2025-09-14T07:53:10Z</time>
      </trkpt>
      <trkpt lat="45.67547" lon="3.46509">
        <ele>476.6</ele>
        <time>2025-09-14T07:53:11Z</time>
      </trkpt>
      <trkpt lat="45.6755" lon="3.46509">
        <ele>476.8</ele>
        <time>2025-09-14T07:53:12Z</time>
      </trkpt>
      <trkpt lat="45.67553" lon="3.46508">
        <ele>477</ele>
        <time>2025-09-14T07:53:13Z</time>
      </trkpt>
      <trkpt lat="45.67555" lon="3.46508">
        <ele>477.2</ele>
        <time>2025-09-14T07:53:14Z</time>
      </trkpt>
      <trkpt lat="45.67557" lon="3.46508">
        <ele>477.4</ele>
        <time>2025-09-14T07:53:15Z</time>
      </trkpt>
      <trkpt lat="45.67559" lon="3.46507">
        <ele>477.6</ele>
        <time>2025-09-14T07:53:16Z</time>
      </trkpt>
      <trkpt lat="45.67562" lon="3.46507">
        <ele>477.8</ele>
        <time>2025-09-14T07:53:17Z</time>
      </trkpt>
      <trkpt lat="45.67564" lon="3.46506">
        <ele>478</ele>
        <time>2025-09-14T07:53:18Z</time>
      </trkpt>
      <trkpt lat="45.67565" lon="3.46506">
        <ele>478.2</ele>
        <time>2025-09-14T07:53:19Z</time>
      </trkpt>
      <trkpt lat="45.67567" lon="3.46506">
        <ele>478.4</ele>
        <time>2025-09-14T07:53:20Z</time>
      </trkpt>
      <trkpt lat="45.67569" lon="3.46506">
        <ele>478.6</ele>
        <time>2025-09-14T07:53:21Z</time>
      </trkpt>
      <trkpt lat="45.67572" lon="3.46506">
        <ele>478.8</ele>
        <time>2025-09-14T07:53:22Z</time>
      </trkpt>
      <trkpt lat="45.67574" lon="3.46506">
        <ele>479</ele>
        <time>2025-09-14T07:53:23Z</time>
      </trkpt>
      <trkpt lat="45.67576" lon="3.46506">
        <ele>479.2</ele>
        <time>2025-09-14T07:53:24Z</time>
      </trkpt>
      <trkpt lat="45.67579" lon="3.46506">
        <ele>479.2</ele>
        <time>2025-09-14T07:53:25Z</time>
      </trkpt>
      <trkpt lat="45.67581" lon="3.46505">
        <ele>479.4</ele>
        <time>2025-09-14T07:53:26Z</time>
      </trkpt>
      <trkpt lat="45.67584" lon="3.46505">
        <ele>479.6</ele>
        <time>2025-09-14T07:53:27Z</time>
      </trkpt>
      <trkpt lat="45.67587" lon="3.46505">
        <ele>479.8</ele>
        <time>2025-09-14T07:53:28Z</time>
      </trkpt>
      <trkpt lat="45.67589" lon="3.46505">
        <ele>480</ele>
        <time>2025-09-14T07:53:29Z</time>
      </trkpt>
      <trkpt lat="45.67591" lon="3.46505">
        <ele>480.2</ele>
        <time>2025-09-14T07:53:30Z</time>
      </trkpt>
      <trkpt lat="45.67592" lon="3.46504">
        <ele>480.4</ele>
        <time>2025-09-14T07:53:31Z</time>
      </trkpt>
      <trkpt lat="45.67594" lon="3.46503">
        <ele>480.6</ele>
        <time>2025-09-14T07:53:32Z</time>
      </trkpt>
      <trkpt lat="45.67596" lon="3.46503">
        <ele>480.8</ele>
        <time>2025-09-14T07:53:33Z</time>
      </trkpt>
      <trkpt lat="45.67599" lon="3.46502">
        <ele>481</ele>
        <time>2025-09-14T07:53:34Z</time>
      </trkpt>
      <trkpt lat="45.67601" lon="3.46502">
        <ele>481.2</ele>
        <time>2025-09-14T07:53:35Z</time>
      </trkpt>
      <trkpt lat="45.67603" lon="3.46502">
        <ele>481.4</ele>
        <time>2025-09-14T07:53:36Z</time>
      </trkpt>
      <trkpt lat="45.67606" lon="3.46502">
        <ele>481.6</ele>
        <time>2025-09-14T07:53:37Z</time>
      </trkpt>
      <trkpt lat="45.67608" lon="3.46501">
        <ele>481.8</ele>
        <time>2025-09-14T07:53:38Z</time>
      </trkpt>
      <trkpt lat="45.67611" lon="3.46501">
        <ele>481.8</ele>
        <time>2025-09-14T07:53:39Z</time>
      </trkpt>
      <trkpt lat="45.67613" lon="3.465">
        <ele>482</ele>
        <time>2025-09-14T07:53:40Z</time>
      </trkpt>
      <trkpt lat="45.67615" lon="3.46499">
        <ele>482.2</ele>
        <time>2025-09-14T07:53:41Z</time>
      </trkpt>
      <trkpt lat="45.67618" lon="3.46498">
        <ele>482.2</ele>
        <time>2025-09-14T07:53:42Z</time>
      </trkpt>
      <trkpt lat="45.6762" lon="3.46497">
        <ele>482.4</ele>
        <time>2025-09-14T07:53:43Z</time>
      </trkpt>
      <trkpt lat="45.67623" lon="3.46495">
        <ele>482.4</ele>
        <time>2025-09-14T07:53:44Z</time>
      </trkpt>
      <trkpt lat="45.67625" lon="3.46493">
        <ele>482.6</ele>
        <time>2025-09-14T07:53:45Z</time>
      </trkpt>
      <trkpt lat="45.67628" lon="3.46492">
        <ele>482.6</ele>
        <time>2025-09-14T07:53:46Z</time>
      </trkpt>
      <trkpt lat="45.6763" lon="3.4649">
        <ele>482.8</ele>
        <time>2025-09-14T07:53:47Z</time>
      </trkpt>
      <trkpt lat="45.67633" lon="3.46488">
        <ele>483</ele>
        <time>2025-09-14T07:53:48Z</time>
      </trkpt>
      <trkpt lat="45.67635" lon="3.46487">
        <ele>483</ele>
        <time>2025-09-14T07:53:49Z</time>
      </trkpt>
      <trkpt lat="45.67638" lon="3.46485">
        <ele>483.2</ele>
        <time>2025-09-14T07:53:50Z</time>
      </trkpt>
      <trkpt lat="45.67641" lon="3.46484">
        <ele>483.4</ele>
        <time>2025-09-14T07:53:51Z</time>
      </trkpt>
      <trkpt lat="45.67644" lon="3.46482">
        <ele>483.4</ele>
        <time>2025-09-14T07:53:52Z</time>
      </trkpt>
      <trkpt lat="45.67646" lon="3.4648">
        <ele>483.6</ele>
        <time>2025-09-14T07:53:53Z</time>
      </trkpt>
      <trkpt lat="45.67648" lon="3.46479">
        <ele>483.8</ele>
        <time>2025-09-14T07:53:54Z</time>
      </trkpt>
      <trkpt lat="45.67651" lon="3.46477">
        <ele>484</ele>
        <time>2025-09-14T07:53:55Z</time>
      </trkpt>
      <trkpt lat="45.67654" lon="3.46476">
        <ele>484</ele>
        <time>2025-09-14T07:53:56Z</time>
      </trkpt>
      <trkpt lat="45.67657" lon="3.46474">
        <ele>484.2</ele>
        <time>2025-09-14T07:53:57Z</time>
      </trkpt>
      <trkpt lat="45.67659" lon="3.46472">
        <ele>484.4</ele>
        <time>2025-09-14T07:53:58Z</time>
      </trkpt>
      <trkpt lat="45.67662" lon="3.46471">
        <ele>484.4</ele>
        <time>2025-09-14T07:53:59Z</time>
      </trkpt>
      <trkpt lat="45.67665" lon="3.46469">
        <ele>484.6</ele>
        <time>2025-09-14T07:54:00Z</time>
      </trkpt>
      <trkpt lat="45.67668" lon="3.46467">
        <ele>484.6</ele>
        <time>2025-09-14T07:54:01Z</time>
      </trkpt>
      <trkpt lat="45.67671" lon="3.46466">
        <ele>484.8</ele>
        <time>2025-09-14T07:54:02Z</time>
      </trkpt>
      <trkpt lat="45.67673" lon="3.46464">
        <ele>485</ele>
        <time>2025-09-14T07:54:03Z</time>
      </trkpt>
      <trkpt lat="45.67676" lon="3.46462">
        <ele>485</ele>
        <time>2025-09-14T07:54:04Z</time>
      </trkpt>
      <trkpt lat="45.67678" lon="3.4646">
        <ele>485.2</ele>
        <time>2025-09-14T07:54:05Z</time>
      </trkpt>
      <trkpt lat="45.67681" lon="3.46457">
        <ele>485.2</ele>
        <time>2025-09-14T07:54:06Z</time>
      </trkpt>
      <trkpt lat="45.67684" lon="3.46455">
        <ele>485.4</ele>
        <time>2025-09-14T07:54:07Z</time>
      </trkpt>
      <trkpt lat="45.67686" lon="3.46452">
        <ele>485.4</ele>
        <time>2025-09-14T07:54:08Z</time>
      </trkpt>
      <trkpt lat="45.67689" lon="3.4645">
        <ele>485.6</ele>
        <time>2025-09-14T07:54:09Z</time>
      </trkpt>
      <trkpt lat="45.67691" lon="3.46448">
        <ele>485.8</ele>
        <time>2025-09-14T07:54:10Z</time>
      </trkpt>
      <trkpt lat="45.67693" lon="3.46445">
        <ele>486</ele>
        <time>2025-09-14T07:54:11Z</time>
      </trkpt>
      <trkpt lat="45.67695" lon="3.46442">
        <ele>486</ele>
        <time>2025-09-14T07:54:12Z</time>
      </trkpt>
      <trkpt lat="45.67697" lon="3.46439">
        <ele>486.2</ele>
        <time>2025-09-14T07:54:13Z</time>
      </trkpt>
      <trkpt lat="45.67699" lon="3.46437">
        <ele>486.4</ele>
        <time>2025-09-14T07:54:14Z</time>
      </trkpt>
      <trkpt lat="45.677" lon="3.46433">
        <ele>486.4</ele>
        <time>2025-09-14T07:54:15Z</time>
      </trkpt>
      <trkpt lat="45.67702" lon="3.4643">
        <ele>486.6</ele>
        <time>2025-09-14T07:54:16Z</time>
      </trkpt>
      <trkpt lat="45.67704" lon="3.46427">
        <ele>486.8</ele>
        <time>2025-09-14T07:54:17Z</time>
      </trkpt>
      <trkpt lat="45.67705" lon="3.46423">
        <ele>486.8</ele>
        <time>2025-09-14T07:54:18Z</time>
      </trkpt>
      <trkpt lat="45.67707" lon="3.4642">
        <ele>487</ele>
        <time>2025-09-14T07:54:19Z</time>
      </trkpt>
      <trkpt lat="45.67709" lon="3.46416">
        <ele>487.2</ele>
        <time>2025-09-14T07:54:20Z</time>
      </trkpt>
      <trkpt lat="45.67711" lon="3.46413">
        <ele>487.2</ele>
        <time>2025-09-14T07:54:21Z</time>
      </trkpt>
      <trkpt lat="45.67713" lon="3.46409">
        <ele>487.4</ele>
        <time>2025-09-14T07:54:22Z</time>
      </trkpt>
      <trkpt lat="45.67715" lon="3.46406">
        <ele>487.6</ele>
        <time>2025-09-14T07:54:23Z</time>
      </trkpt>
      <trkpt lat="45.67717" lon="3.46402">
        <ele>487.6</ele>
        <time>2025-09-14T07:54:24Z</time>
      </trkpt>
      <trkpt lat="45.67718" lon="3.46399">
        <ele>487.8</ele>
        <time>2025-09-14T07:54:25Z</time>
      </trkpt>
      <trkpt lat="45.6772" lon="3.46395">
        <ele>487.8</ele>
        <time>2025-09-14T07:54:26Z</time>
      </trkpt>
      <trkpt lat="45.67722" lon="3.46391">
        <ele>488</ele>
        <time>2025-09-14T07:54:27Z</time>
      </trkpt>
      <trkpt lat="45.67724" lon="3.46388">
        <ele>488</ele>
        <time>2025-09-14T07:54:28Z</time>
      </trkpt>
      <trkpt lat="45.67725" lon="3.46384">
        <ele>488.2</ele>
        <time>2025-09-14T07:54:29Z</time>
      </trkpt>
      <trkpt lat="45.67727" lon="3.46381">
        <ele>488.4</ele>
        <time>2025-09-14T07:54:30Z</time>
      </trkpt>
      <trkpt lat="45.67729" lon="3.46377">
        <ele>488.4</ele>
        <time>2025-09-14T07:54:31Z</time>
      </trkpt>
      <trkpt lat="45.67731" lon="3.46374">
        <ele>488.6</ele>
        <time>2025-09-14T07:54:32Z</time>
      </trkpt>
      <trkpt lat="45.67732" lon="3.4637">
        <ele>488.8</ele>
        <time>2025-09-14T07:54:33Z</time>
      </trkpt>
      <trkpt lat="45.67734" lon="3.46367">
        <ele>488.8</ele>
        <time>2025-09-14T07:54:34Z</time>
      </trkpt>
      <trkpt lat="45.67736" lon="3.46364">
        <ele>489</ele>
        <time>2025-09-14T07:54:35Z</time>
      </trkpt>
      <trkpt lat="45.67737" lon="3.4636">
        <ele>489</ele>
        <time>2025-09-14T07:54:36Z</time>
      </trkpt>
      <trkpt lat="45.67739" lon="3.46357">
        <ele>489.2</ele>
        <time>2025-09-14T07:54:37Z</time>
      </trkpt>
      <trkpt lat="45.6774" lon="3.46355">
        <ele>489.4</ele>
        <time>2025-09-14T07:54:38Z</time>
      </trkpt>
      <trkpt lat="45.67741" lon="3.46353">
        <ele>489.6</ele>
        <time>2025-09-14T07:54:39Z</time>
      </trkpt>
      <trkpt lat="45.67742" lon="3.46352">
        <ele>489.6</ele>
        <time>2025-09-14T07:54:40Z</time>
      </trkpt>
      <trkpt lat="45.67744" lon="3.46352">
        <ele>489.8</ele>
        <time>2025-09-14T07:54:41Z</time>
      </trkpt>
      <trkpt lat="45.67746" lon="3.46353">
        <ele>489.8</ele>
        <time>2025-09-14T07:54:42Z</time>
      </trkpt>
      <trkpt lat="45.67748" lon="3.46354">
        <ele>490</ele>
        <time>2025-09-14T07:54:43Z</time>
      </trkpt>
      <trkpt lat="45.6775" lon="3.46355">
        <ele>490</ele>
        <time>2025-09-14T07:54:44Z</time>
      </trkpt>
      <trkpt lat="45.67753" lon="3.46357">
        <ele>490.2</ele>
        <time>2025-09-14T07:54:45Z</time>
      </trkpt>
      <trkpt lat="45.67756" lon="3.46359">
        <ele>490.4</ele>
        <time>2025-09-14T07:54:46Z</time>
      </trkpt>
      <trkpt lat="45.67759" lon="3.4636">
        <ele>490.4</ele>
        <time>2025-09-14T07:54:47Z</time>
      </trkpt>
      <trkpt lat="45.67761" lon="3.46362">
        <ele>490.4</ele>
        <time>2025-09-14T07:54:48Z</time>
      </trkpt>
      <trkpt lat="45.67764" lon="3.46364">
        <ele>490.4</ele>
        <time>2025-09-14T07:54:49Z</time>
      </trkpt>
      <trkpt lat="45.67767" lon="3.46366">
        <ele>490.4</ele>
        <time>2025-09-14T07:54:50Z</time>
      </trkpt>
      <trkpt lat="45.6777" lon="3.46368">
        <ele>490.4</ele>
        <time>2025-09-14T07:54:51Z</time>
      </trkpt>
      <trkpt lat="45.67773" lon="3.46369">
        <ele>490.2</ele>
        <time>2025-09-14T07:54:52Z</time>
      </trkpt>
      <trkpt lat="45.67777" lon="3.4637">
        <ele>490</ele>
        <time>2025-09-14T07:54:53Z</time>
      </trkpt>
      <trkpt lat="45.6778" lon="3.46372">
        <ele>490</ele>
        <time>2025-09-14T07:54:54Z</time>
      </trkpt>
      <trkpt lat="45.67784" lon="3.46373">
        <ele>490.2</ele>
        <time>2025-09-14T07:54:55Z</time>
      </trkpt>
      <trkpt lat="45.67787" lon="3.46374">
        <ele>489.8</ele>
        <time>2025-09-14T07:54:56Z</time>
      </trkpt>
      <trkpt lat="45.67791" lon="3.46376">
        <ele>489.6</ele>
        <time>2025-09-14T07:54:57Z</time>
      </trkpt>
      <trkpt lat="45.67795" lon="3.46377">
        <ele>489.4</ele>
        <time>2025-09-14T07:54:58Z</time>
      </trkpt>
      <trkpt lat="45.67799" lon="3.46378">
        <ele>489.2</ele>
        <time>2025-09-14T07:54:59Z</time>
      </trkpt>
      <trkpt lat="45.67803" lon="3.46379">
        <ele>489</ele>
        <time>2025-09-14T07:55:00Z</time>
      </trkpt>
      <trkpt lat="45.67808" lon="3.46379">
        <ele>488.8</ele>
        <time>2025-09-14T07:55:01Z</time>
      </trkpt>
      <trkpt lat="45.67811" lon="3.46379">
        <ele>488.6</ele>
        <time>2025-09-14T07:55:02Z</time>
      </trkpt>
      <trkpt lat="45.67815" lon="3.4638">
        <ele>488.2</ele>
        <time>2025-09-14T07:55:03Z</time>
      </trkpt>
      <trkpt lat="45.67819" lon="3.4638">
        <ele>488.2</ele>
        <time>2025-09-14T07:55:04Z</time>
      </trkpt>
      <trkpt lat="45.67823" lon="3.4638">
        <ele>488.2</ele>
        <time>2025-09-14T07:55:05Z</time>
      </trkpt>
      <trkpt lat="45.67827" lon="3.46381">
        <ele>487.8</ele>
        <time>2025-09-14T07:55:06Z</time>
      </trkpt>
      <trkpt lat="45.67831" lon="3.46381">
        <ele>487.4</ele>
        <time>2025-09-14T07:55:07Z</time>
      </trkpt>
      <trkpt lat="45.67835" lon="3.46381">
        <ele>487.4</ele>
        <time>2025-09-14T07:55:08Z</time>
      </trkpt>
      <trkpt lat="45.67839" lon="3.46382">
        <ele>487.2</ele>
        <time>2025-09-14T07:55:09Z</time>
      </trkpt>
      <trkpt lat="45.67843" lon="3.46382">
        <ele>487.2</ele>
        <time>2025-09-14T07:55:10Z</time>
      </trkpt>
      <trkpt lat="45.67847" lon="3.46383">
        <ele>487</ele>
        <time>2025-09-14T07:55:11Z</time>
      </trkpt>
      <trkpt lat="45.6785" lon="3.46384">
        <ele>486.8</ele>
        <time>2025-09-14T07:55:12Z</time>
      </trkpt>
      <trkpt lat="45.67854" lon="3.46385">
        <ele>486.8</ele>
        <time>2025-09-14T07:55:13Z</time>
      </trkpt>
      <trkpt lat="45.67858" lon="3.46385">
        <ele>486.6</ele>
        <time>2025-09-14T07:55:14Z</time>
      </trkpt>
      <trkpt lat="45.67861" lon="3.46386">
        <ele>486.4</ele>
        <time>2025-09-14T07:55:15Z</time>
      </trkpt>
      <trkpt lat="45.67866" lon="3.46386">
        <ele>486.2</ele>
        <time>2025-09-14T07:55:16Z</time>
      </trkpt>
      <trkpt lat="45.6787" lon="3.46387">
        <ele>486</ele>
        <time>2025-09-14T07:55:17Z</time>
      </trkpt>
      <trkpt lat="45.67874" lon="3.46387">
        <ele>486</ele>
        <time>2025-09-14T07:55:18Z</time>
      </trkpt>
      <trkpt lat="45.67877" lon="3.46388">
        <ele>486</ele>
        <time>2025-09-14T07:55:19Z</time>
      </trkpt>
      <trkpt lat="45.67882" lon="3.46389">
        <ele>486.2</ele>
        <time>2025-09-14T07:55:20Z</time>
      </trkpt>
      <trkpt lat="45.67885" lon="3.4639">
        <ele>486.4</ele>
        <time>2025-09-14T07:55:21Z</time>
      </trkpt>
      <trkpt lat="45.67889" lon="3.46391">
        <ele>486.4</ele>
        <time>2025-09-14T07:55:22Z</time>
      </trkpt>
      <trkpt lat="45.67893" lon="3.46393">
        <ele>486.4</ele>
        <time>2025-09-14T07:55:23Z</time>
      </trkpt>
      <trkpt lat="45.67897" lon="3.46394">
        <ele>486.4</ele>
        <time>2025-09-14T07:55:24Z</time>
      </trkpt>
      <trkpt lat="45.67902" lon="3.46395">
        <ele>486.2</ele>
        <time>2025-09-14T07:55:25Z</time>
      </trkpt>
      <trkpt lat="45.67905" lon="3.46396">
        <ele>486</ele>
        <time>2025-09-14T07:55:26Z</time>
      </trkpt>
      <trkpt lat="45.67909" lon="3.46397">
        <ele>486</ele>
        <time>2025-09-14T07:55:27Z</time>
      </trkpt>
      <trkpt lat="45.67913" lon="3.46398">
        <ele>486</ele>
        <time>2025-09-14T07:55:28Z</time>
      </trkpt>
      <trkpt lat="45.67917" lon="3.46399">
        <ele>485.8</ele>
        <time>2025-09-14T07:55:29Z</time>
      </trkpt>
      <trkpt lat="45.67921" lon="3.46398">
        <ele>485.6</ele>
        <time>2025-09-14T07:55:30Z</time>
      </trkpt>
      <trkpt lat="45.67925" lon="3.46397">
        <ele>485.4</ele>
        <time>2025-09-14T07:55:31Z</time>
      </trkpt>
      <trkpt lat="45.67928" lon="3.46395">
        <ele>485</ele>
        <time>2025-09-14T07:55:32Z</time>
      </trkpt>
      <trkpt lat="45.67931" lon="3.46393">
        <ele>484.8</ele>
        <time>2025-09-14T07:55:33Z</time>
      </trkpt>
      <trkpt lat="45.67935" lon="3.4639">
        <ele>484.6</ele>
        <time>2025-09-14T07:55:34Z</time>
      </trkpt>
      <trkpt lat="45.67938" lon="3.46388">
        <ele>484.4</ele>
        <time>2025-09-14T07:55:35Z</time>
      </trkpt>
      <trkpt lat="45.67942" lon="3.46385">
        <ele>484</ele>
        <time>2025-09-14T07:55:36Z</time>
      </trkpt>
      <trkpt lat="45.67946" lon="3.46382">
        <ele>483.8</ele>
        <time>2025-09-14T07:55:37Z</time>
      </trkpt>
      <trkpt lat="45.67949" lon="3.46381">
        <ele>483.8</ele>
        <time>2025-09-14T07:55:38Z</time>
      </trkpt>
      <trkpt lat="45.67953" lon="3.4638">
        <ele>483.8</ele>
        <time>2025-09-14T07:55:39Z</time>
      </trkpt>
      <trkpt lat="45.67956" lon="3.46382">
        <ele>483.6</ele>
        <time>2025-09-14T07:55:40Z</time>
      </trkpt>
      <trkpt lat="45.6796" lon="3.46384">
        <ele>483.6</ele>
        <time>2025-09-14T07:55:41Z</time>
      </trkpt>
      <trkpt lat="45.67964" lon="3.46387">
        <ele>483.4</ele>
        <time>2025-09-14T07:55:42Z</time>
      </trkpt>
      <trkpt lat="45.67968" lon="3.46391">
        <ele>483.2</ele>
        <time>2025-09-14T07:55:43Z</time>
      </trkpt>
      <trkpt lat="45.67972" lon="3.46394">
        <ele>483</ele>
        <time>2025-09-14T07:55:44Z</time>
      </trkpt>
      <trkpt lat="45.67976" lon="3.46397">
        <ele>482.8</ele>
        <time>2025-09-14T07:55:45Z</time>
      </trkpt>
      <trkpt lat="45.6798" lon="3.46399">
        <ele>482.6</ele>
        <time>2025-09-14T07:55:46Z</time>
      </trkpt>
      <trkpt lat="45.67984" lon="3.464">
        <ele>482.2</ele>
        <time>2025-09-14T07:55:47Z</time>
      </trkpt>
      <trkpt lat="45.67988" lon="3.46401">
        <ele>482</ele>
        <time>2025-09-14T07:55:48Z</time>
      </trkpt>
      <trkpt lat="45.67992" lon="3.46402">
        <ele>481.8</ele>
        <time>2025-09-14T07:55:49Z</time>
      </trkpt>
      <trkpt lat="45.67996" lon="3.46402">
        <ele>481.6</ele>
        <time>2025-09-14T07:55:50Z</time>
      </trkpt>
      <trkpt lat="45.67999" lon="3.46402">
        <ele>481.4</ele>
        <time>2025-09-14T07:55:51Z</time>
      </trkpt>
      <trkpt lat="45.68003" lon="3.46403">
        <ele>481.2</ele>
        <time>2025-09-14T07:55:52Z</time>
      </trkpt>
      <trkpt lat="45.68007" lon="3.46404">
        <ele>480.8</ele>
        <time>2025-09-14T07:55:53Z</time>
      </trkpt>
      <trkpt lat="45.68011" lon="3.46404">
        <ele>480.4</ele>
        <time>2025-09-14T07:55:54Z</time>
      </trkpt>
      <trkpt lat="45.68016" lon="3.46405">
        <ele>480</ele>
        <time>2025-09-14T07:55:55Z</time>
      </trkpt>
      <trkpt lat="45.68019" lon="3.46407">
        <ele>479.8</ele>
        <time>2025-09-14T07:55:56Z</time>
      </trkpt>
      <trkpt lat="45.68023" lon="3.46409">
        <ele>479.8</ele>
        <time>2025-09-14T07:55:57Z</time>
      </trkpt>
      <trkpt lat="45.68026" lon="3.46411">
        <ele>479.8</ele>
        <time>2025-09-14T07:55:58Z</time>
      </trkpt>
      <trkpt lat="45.68029" lon="3.46413">
        <ele>480</ele>
        <time>2025-09-14T07:55:59Z</time>
      </trkpt>
      <trkpt lat="45.68031" lon="3.46414">
        <ele>480.2</ele>
        <time>2025-09-14T07:56:00Z</time>
      </trkpt>
      <trkpt lat="45.68034" lon="3.46415">
        <ele>480.4</ele>
        <time>2025-09-14T07:56:01Z</time>
      </trkpt>
      <trkpt lat="45.68036" lon="3.46416">
        <ele>480.6</ele>
        <time>2025-09-14T07:56:02Z</time>
      </trkpt>
      <trkpt lat="45.6804" lon="3.46418">
        <ele>480.8</ele>
        <time>2025-09-14T07:56:03Z</time>
      </trkpt>
      <trkpt lat="45.68042" lon="3.4642">
        <ele>481</ele>
        <time>2025-09-14T07:56:04Z</time>
      </trkpt>
      <trkpt lat="45.68043" lon="3.46421">
        <ele>481.4</ele>
        <time>2025-09-14T07:56:05Z</time>
      </trkpt>
      <trkpt lat="45.68046" lon="3.46421">
        <ele>481.6</ele>
        <time>2025-09-14T07:56:06Z</time>
      </trkpt>
      <trkpt lat="45.68049" lon="3.46422">
        <ele>481.8</ele>
        <time>2025-09-14T07:56:07Z</time>
      </trkpt>
      <trkpt lat="45.68052" lon="3.46423">
        <ele>482</ele>
        <time>2025-09-14T07:56:08Z</time>
      </trkpt>
      <trkpt lat="45.68055" lon="3.46425">
        <ele>482.2</ele>
        <time>2025-09-14T07:56:09Z</time>
      </trkpt>
      <trkpt lat="45.68059" lon="3.46427">
        <ele>482.4</ele>
        <time>2025-09-14T07:56:10Z</time>
      </trkpt>
      <trkpt lat="45.68062" lon="3.46429">
        <ele>482.4</ele>
        <time>2025-09-14T07:56:11Z</time>
      </trkpt>
      <trkpt lat="45.68066" lon="3.46431">
        <ele>482.2</ele>
        <time>2025-09-14T07:56:12Z</time>
      </trkpt>
      <trkpt lat="45.6807" lon="3.46433">
        <ele>482.2</ele>
        <time>2025-09-14T07:56:13Z</time>
      </trkpt>
      <trkpt lat="45.68074" lon="3.46433">
        <ele>482.2</ele>
        <time>2025-09-14T07:56:14Z</time>
      </trkpt>
      <trkpt lat="45.68078" lon="3.46434">
        <ele>482</ele>
        <time>2025-09-14T07:56:15Z</time>
      </trkpt>
      <trkpt lat="45.68082" lon="3.46436">
        <ele>481.8</ele>
        <time>2025-09-14T07:56:16Z</time>
      </trkpt>
      <trkpt lat="45.68087" lon="3.46438">
        <ele>481.6</ele>
        <time>2025-09-14T07:56:17Z</time>
      </trkpt>
      <trkpt lat="45.68093" lon="3.4644">
        <ele>481.4</ele>
        <time>2025-09-14T07:56:18Z</time>
      </trkpt>
      <trkpt lat="45.68098" lon="3.46442">
        <ele>481.4</ele>
        <time>2025-09-14T07:56:19Z</time>
      </trkpt>
      <trkpt lat="45.68104" lon="3.46444">
        <ele>481.2</ele>
        <time>2025-09-14T07:56:20Z</time>
      </trkpt>
      <trkpt lat="45.68108" lon="3.46447">
        <ele>480.8</ele>
        <time>2025-09-14T07:56:21Z</time>
      </trkpt>
      <trkpt lat="45.68113" lon="3.4645">
        <ele>480.6</ele>
        <time>2025-09-14T07:56:22Z</time>
      </trkpt>
      <trkpt lat="45.68115" lon="3.46456">
        <ele>480.4</ele>
        <time>2025-09-14T07:56:23Z</time>
      </trkpt>
      <trkpt lat="45.68117" lon="3.46464">
        <ele>480.2</ele>
        <time>2025-09-14T07:56:24Z</time>
      </trkpt>
      <trkpt lat="45.68119" lon="3.46471">
        <ele>480</ele>
        <time>2025-09-14T07:56:25Z</time>
      </trkpt>
      <trkpt lat="45.6812" lon="3.46475">
        <ele>480</ele>
        <time>2025-09-14T07:56:26Z</time>
      </trkpt>
      <trkpt lat="45.6812" lon="3.46479">
        <ele>480</ele>
        <time>2025-09-14T07:56:27Z</time>
      </trkpt>
      <trkpt lat="45.6812" lon="3.46483">
        <ele>480.2</ele>
        <time>2025-09-14T07:56:28Z</time>
      </trkpt>
      <trkpt lat="45.68121" lon="3.46488">
        <ele>480.6</ele>
        <time>2025-09-14T07:56:29Z</time>
      </trkpt>
      <trkpt lat="45.68123" lon="3.46494">
        <ele>480.8</ele>
        <time>2025-09-14T07:56:30Z</time>
      </trkpt>
      <trkpt lat="45.68126" lon="3.46499">
        <ele>481</ele>
        <time>2025-09-14T07:56:31Z</time>
      </trkpt>
      <trkpt lat="45.68131" lon="3.46503">
        <ele>481.4</ele>
        <time>2025-09-14T07:56:32Z</time>
      </trkpt>
      <trkpt lat="45.68135" lon="3.46505">
        <ele>481.6</ele>
        <time>2025-09-14T07:56:33Z</time>
      </trkpt>
      <trkpt lat="45.6814" lon="3.46505">
        <ele>481.8</ele>
        <time>2025-09-14T07:56:34Z</time>
      </trkpt>
      <trkpt lat="45.68143" lon="3.46504">
        <ele>482</ele>
        <time>2025-09-14T07:56:35Z</time>
      </trkpt>
      <trkpt lat="45.68146" lon="3.46503">
        <ele>482.4</ele>
        <time>2025-09-14T07:56:36Z</time>
      </trkpt>
      <trkpt lat="45.68148" lon="3.46503">
        <ele>482.4</ele>
        <time>2025-09-14T07:56:37Z</time>
      </trkpt>
      <trkpt lat="45.68152" lon="3.46502">
        <ele>482.6</ele>
        <time>2025-09-14T07:56:38Z</time>
      </trkpt>
      <trkpt lat="45.68155" lon="3.46501">
        <ele>482.6</ele>
        <time>2025-09-14T07:56:39Z</time>
      </trkpt>
      <trkpt lat="45.68158" lon="3.46501">
        <ele>482.8</ele>
        <time>2025-09-14T07:56:40Z</time>
      </trkpt>
      <trkpt lat="45.68161" lon="3.46501">
        <ele>483</ele>
        <time>2025-09-14T07:56:41Z</time>
      </trkpt>
      <trkpt lat="45.68164" lon="3.46501">
        <ele>483.4</ele>
        <time>2025-09-14T07:56:42Z</time>
      </trkpt>
      <trkpt lat="45.68167" lon="3.46501">
        <ele>483.6</ele>
        <time>2025-09-14T07:56:43Z</time>
      </trkpt>
      <trkpt lat="45.68169" lon="3.46501">
        <ele>484</ele>
        <time>2025-09-14T07:56:44Z</time>
      </trkpt>
      <trkpt lat="45.68172" lon="3.465">
        <ele>484.4</ele>
        <time>2025-09-14T07:56:45Z</time>
      </trkpt>
      <trkpt lat="45.68174" lon="3.465">
        <ele>484.6</ele>
        <time>2025-09-14T07:56:46Z</time>
      </trkpt>
      <trkpt lat="45.68177" lon="3.465">
        <ele>484.8</ele>
        <time>2025-09-14T07:56:47Z</time>
      </trkpt>
      <trkpt lat="45.68179" lon="3.465">
        <ele>485</ele>
        <time>2025-09-14T07:56:48Z</time>
      </trkpt>
      <trkpt lat="45.68181" lon="3.465">
        <ele>485</ele>
        <time>2025-09-14T07:56:49Z</time>
      </trkpt>
      <trkpt lat="45.68183" lon="3.465">
        <ele>485</ele>
        <time>2025-09-14T07:56:50Z</time>
      </trkpt>
      <trkpt lat="45.68186" lon="3.46499">
        <ele>485</ele>
        <time>2025-09-14T07:56:51Z</time>
      </trkpt>
      <trkpt lat="45.68188" lon="3.46499">
        <ele>485.2</ele>
        <time>2025-09-14T07:56:52Z</time>
      </trkpt>
      <trkpt lat="45.6819" lon="3.46499">
        <ele>485.4</ele>
        <time>2025-09-14T07:56:53Z</time>
      </trkpt>
      <trkpt lat="45.68193" lon="3.46499">
        <ele>485.4</ele>
        <time>2025-09-14T07:56:54Z</time>
      </trkpt>
      <trkpt lat="45.68196" lon="3.46499">
        <ele>485.4</ele>
        <time>2025-09-14T07:56:55Z</time>
      </trkpt>
      <trkpt lat="45.68198" lon="3.465">
        <ele>485.6</ele>
        <time>2025-09-14T07:56:56Z</time>
      </trkpt>
      <trkpt lat="45.682" lon="3.465">
        <ele>485.8</ele>
        <time>2025-09-14T07:56:57Z</time>
      </trkpt>
      <trkpt lat="45.68202" lon="3.465">
        <ele>486</ele>
        <time>2025-09-14T07:56:58Z</time>
      </trkpt>
      <trkpt lat="45.68204" lon="3.465">
        <ele>486.2</ele>
        <time>2025-09-14T07:56:59Z</time>
      </trkpt>
      <trkpt lat="45.68206" lon="3.465">
        <ele>486.4</ele>
        <time>2025-09-14T07:57:00Z</time>
      </trkpt>
      <trkpt lat="45.68208" lon="3.465">
        <ele>486.4</ele>
        <time>2025-09-14T07:57:01Z</time>
      </trkpt>
      <trkpt lat="45.6821" lon="3.465">
        <ele>486.6</ele>
        <time>2025-09-14T07:57:02Z</time>
      </trkpt>
      <trkpt lat="45.68212" lon="3.46499">
        <ele>486.8</ele>
        <time>2025-09-14T07:57:03Z</time>
      </trkpt>
      <trkpt lat="45.68214" lon="3.46499">
        <ele>487.2</ele>
        <time>2025-09-14T07:57:04Z</time>
      </trkpt>
      <trkpt lat="45.68217" lon="3.46499">
        <ele>487.4</ele>
        <time>2025-09-14T07:57:05Z</time>
      </trkpt>
      <trkpt lat="45.68219" lon="3.46499">
        <ele>487.6</ele>
        <time>2025-09-14T07:57:06Z</time>
      </trkpt>
      <trkpt lat="45.68221" lon="3.46499">
        <ele>487.6</ele>
        <time>2025-09-14T07:57:07Z</time>
      </trkpt>
      <trkpt lat="45.68223" lon="3.46499">
        <ele>487.6</ele>
        <time>2025-09-14T07:57:08Z</time>
      </trkpt>
      <trkpt lat="45.68225" lon="3.465">
        <ele>487.8</ele>
        <time>2025-09-14T07:57:09Z</time>
      </trkpt>
      <trkpt lat="45.68226" lon="3.465">
        <ele>488</ele>
        <time>2025-09-14T07:57:10Z</time>
      </trkpt>
      <trkpt lat="45.68228" lon="3.46501">
        <ele>488</ele>
        <time>2025-09-14T07:57:11Z</time>
      </trkpt>
      <trkpt lat="45.6823" lon="3.46502">
        <ele>488.2</ele>
        <time>2025-09-14T07:57:12Z</time>
      </trkpt>
      <trkpt lat="45.68233" lon="3.46503">
        <ele>488.4</ele>
        <time>2025-09-14T07:57:13Z</time>
      </trkpt>
      <trkpt lat="45.68236" lon="3.46504">
        <ele>488.4</ele>
        <time>2025-09-14T07:57:14Z</time>
      </trkpt>
      <trkpt lat="45.68238" lon="3.46505">
        <ele>488.4</ele>
        <time>2025-09-14T07:57:15Z</time>
      </trkpt>
      <trkpt lat="45.68241" lon="3.46506">
        <ele>488.6</ele>
        <time>2025-09-14T07:57:16Z</time>
      </trkpt>
      <trkpt lat="45.68244" lon="3.46507">
        <ele>488.6</ele>
        <time>2025-09-14T07:57:17Z</time>
      </trkpt>
      <trkpt lat="45.68246" lon="3.46507">
        <ele>488.6</ele>
        <time>2025-09-14T07:57:18Z</time>
      </trkpt>
      <trkpt lat="45.68249" lon="3.46508">
        <ele>488.6</ele>
        <time>2025-09-14T07:57:19Z</time>
      </trkpt>
      <trkpt lat="45.68252" lon="3.46509">
        <ele>488.8</ele>
        <time>2025-09-14T07:57:20Z</time>
      </trkpt>
      <trkpt lat="45.68254" lon="3.4651">
        <ele>488.8</ele>
        <time>2025-09-14T07:57:21Z</time>
      </trkpt>
      <trkpt lat="45.68257" lon="3.4651">
        <ele>489</ele>
        <time>2025-09-14T07:57:22Z</time>
      </trkpt>
      <trkpt lat="45.68259" lon="3.46511">
        <ele>489.2</ele>
        <time>2025-09-14T07:57:23Z</time>
      </trkpt>
      <trkpt lat="45.68262" lon="3.46512">
        <ele>489.4</ele>
        <time>2025-09-14T07:57:24Z</time>
      </trkpt>
      <trkpt lat="45.68265" lon="3.46512">
        <ele>489.6</ele>
        <time>2025-09-14T07:57:25Z</time>
      </trkpt>
      <trkpt lat="45.68268" lon="3.46513">
        <ele>489.6</ele>
        <time>2025-09-14T07:57:26Z</time>
      </trkpt>
      <trkpt lat="45.6827" lon="3.46514">
        <ele>489.6</ele>
        <time>2025-09-14T07:57:27Z</time>
      </trkpt>
      <trkpt lat="45.68273" lon="3.46514">
        <ele>489.8</ele>
        <time>2025-09-14T07:57:28Z</time>
      </trkpt>
      <trkpt lat="45.68275" lon="3.46514">
        <ele>489.8</ele>
        <time>2025-09-14T07:57:29Z</time>
      </trkpt>
      <trkpt lat="45.68278" lon="3.46514">
        <ele>490</ele>
        <time>2025-09-14T07:57:30Z</time>
      </trkpt>
      <trkpt lat="45.68281" lon="3.46515">
        <ele>490</ele>
        <time>2025-09-14T07:57:31Z</time>
      </trkpt>
      <trkpt lat="45.68283" lon="3.46516">
        <ele>490.2</ele>
        <time>2025-09-14T07:57:32Z</time>
      </trkpt>
      <trkpt lat="45.68286" lon="3.46517">
        <ele>490.2</ele>
        <time>2025-09-14T07:57:33Z</time>
      </trkpt>
      <trkpt lat="45.6829" lon="3.46518">
        <ele>490.4</ele>
        <time>2025-09-14T07:57:34Z</time>
      </trkpt>
      <trkpt lat="45.68293" lon="3.46519">
        <ele>490.4</ele>
        <time>2025-09-14T07:57:35Z</time>
      </trkpt>
      <trkpt lat="45.68296" lon="3.4652">
        <ele>490.6</ele>
        <time>2025-09-14T07:57:36Z</time>
      </trkpt>
      <trkpt lat="45.68299" lon="3.4652">
        <ele>490.6</ele>
        <time>2025-09-14T07:57:37Z</time>
      </trkpt>
      <trkpt lat="45.68301" lon="3.46521">
        <ele>490.6</ele>
        <time>2025-09-14T07:57:38Z</time>
      </trkpt>
      <trkpt lat="45.68304" lon="3.46523">
        <ele>490.6</ele>
        <time>2025-09-14T07:57:39Z</time>
      </trkpt>
      <trkpt lat="45.68307" lon="3.46524">
        <ele>490.8</ele>
        <time>2025-09-14T07:57:40Z</time>
      </trkpt>
      <trkpt lat="45.6831" lon="3.46525">
        <ele>490.8</ele>
        <time>2025-09-14T07:57:41Z</time>
      </trkpt>
      <trkpt lat="45.68313" lon="3.46527">
        <ele>491</ele>
        <time>2025-09-14T07:57:42Z</time>
      </trkpt>
      <trkpt lat="45.68316" lon="3.46528">
        <ele>491</ele>
        <time>2025-09-14T07:57:43Z</time>
      </trkpt>
      <trkpt lat="45.68319" lon="3.4653">
        <ele>491.2</ele>
        <time>2025-09-14T07:57:44Z</time>
      </trkpt>
      <trkpt lat="45.68322" lon="3.46531">
        <ele>491.2</ele>
        <time>2025-09-14T07:57:45Z</time>
      </trkpt>
      <trkpt lat="45.68325" lon="3.46533">
        <ele>491.4</ele>
        <time>2025-09-14T07:57:46Z</time>
      </trkpt>
      <trkpt lat="45.68328" lon="3.46534">
        <ele>491.4</ele>
        <time>2025-09-14T07:57:47Z</time>
      </trkpt>
      <trkpt lat="45.68331" lon="3.46535">
        <ele>491.6</ele>
        <time>2025-09-14T07:57:48Z</time>
      </trkpt>
      <trkpt lat="45.68334" lon="3.46536">
        <ele>491.6</ele>
        <time>2025-09-14T07:57:49Z</time>
      </trkpt>
      <trkpt lat="45.68338" lon="3.46538">
        <ele>491.8</ele>
        <time>2025-09-14T07:57:50Z</time>
      </trkpt>
      <trkpt lat="45.68342" lon="3.46539">
        <ele>492</ele>
        <time>2025-09-14T07:57:51Z</time>
      </trkpt>
      <trkpt lat="45.68346" lon="3.46541">
        <ele>492.2</ele>
        <time>2025-09-14T07:57:52Z</time>
      </trkpt>
      <trkpt lat="45.6835" lon="3.46543">
        <ele>492.2</ele>
        <time>2025-09-14T07:57:53Z</time>
      </trkpt>
      <trkpt lat="45.68354" lon="3.46545">
        <ele>492</ele>
        <time>2025-09-14T07:57:54Z</time>
      </trkpt>
      <trkpt lat="45.68358" lon="3.46547">
        <ele>492</ele>
        <time>2025-09-14T07:57:55Z</time>
      </trkpt>
      <trkpt lat="45.68361" lon="3.46549">
        <ele>491.8</ele>
        <time>2025-09-14T07:57:56Z</time>
      </trkpt>
      <trkpt lat="45.68364" lon="3.4655">
        <ele>491.8</ele>
        <time>2025-09-14T07:57:57Z</time>
      </trkpt>
      <trkpt lat="45.68368" lon="3.46552">
        <ele>491.8</ele>
        <time>2025-09-14T07:57:58Z</time>
      </trkpt>
      <trkpt lat="45.68371" lon="3.46553">
        <ele>491.6</ele>
        <time>2025-09-14T07:57:59Z</time>
      </trkpt>
      <trkpt lat="45.68375" lon="3.46555">
        <ele>491.6</ele>
        <time>2025-09-14T07:58:00Z</time>
      </trkpt>
      <trkpt lat="45.68378" lon="3.46557">
        <ele>491.6</ele>
        <time>2025-09-14T07:58:01Z</time>
      </trkpt>
      <trkpt lat="45.68381" lon="3.46558">
        <ele>491.8</ele>
        <time>2025-09-14T07:58:02Z</time>
      </trkpt>
      <trkpt lat="45.68384" lon="3.46559">
        <ele>492</ele>
        <time>2025-09-14T07:58:03Z</time>
      </trkpt>
      <trkpt lat="45.68387" lon="3.46561">
        <ele>492.2</ele>
        <time>2025-09-14T07:58:04Z</time>
      </trkpt>
      <trkpt lat="45.6839" lon="3.46562">
        <ele>492.4</ele>
        <time>2025-09-14T07:58:05Z</time>
      </trkpt>
      <trkpt lat="45.68393" lon="3.46564">
        <ele>492.4</ele>
        <time>2025-09-14T07:58:06Z</time>
      </trkpt>
      <trkpt lat="45.68396" lon="3.46565">
        <ele>492.4</ele>
        <time>2025-09-14T07:58:07Z</time>
      </trkpt>
      <trkpt lat="45.68399" lon="3.46567">
        <ele>492.6</ele>
        <time>2025-09-14T07:58:08Z</time>
      </trkpt>
      <trkpt lat="45.68402" lon="3.46568">
        <ele>492.6</ele>
        <time>2025-09-14T07:58:09Z</time>
      </trkpt>
      <trkpt lat="45.68404" lon="3.46569">
        <ele>492.6</ele>
        <time>2025-09-14T07:58:10Z</time>
      </trkpt>
      <trkpt lat="45.68407" lon="3.46571">
        <ele>492.8</ele>
        <time>2025-09-14T07:58:11Z</time>
      </trkpt>
      <trkpt lat="45.68409" lon="3.46572">
        <ele>493</ele>
        <time>2025-09-14T07:58:12Z</time>
      </trkpt>
      <trkpt lat="45.68412" lon="3.46573">
        <ele>493</ele>
        <time>2025-09-14T07:58:13Z</time>
      </trkpt>
      <trkpt lat="45.68415" lon="3.46575">
        <ele>493</ele>
        <time>2025-09-14T07:58:14Z</time>
      </trkpt>
      <trkpt lat="45.68418" lon="3.46576">
        <ele>493</ele>
        <time>2025-09-14T07:58:15Z</time>
      </trkpt>
      <trkpt lat="45.68421" lon="3.46578">
        <ele>493</ele>
        <time>2025-09-14T07:58:16Z</time>
      </trkpt>
      <trkpt lat="45.68424" lon="3.4658">
        <ele>493</ele>
        <time>2025-09-14T07:58:17Z</time>
      </trkpt>
      <trkpt lat="45.68427" lon="3.46581">
        <ele>493</ele>
        <time>2025-09-14T07:58:18Z</time>
      </trkpt>
      <trkpt lat="45.68429" lon="3.46582">
        <ele>493</ele>
        <time>2025-09-14T07:58:19Z</time>
      </trkpt>
      <trkpt lat="45.68432" lon="3.46583">
        <ele>493</ele>
        <time>2025-09-14T07:58:20Z</time>
      </trkpt>
      <trkpt lat="45.68433" lon="3.46586">
        <ele>493</ele>
        <time>2025-09-14T07:58:21Z</time>
      </trkpt>
      <trkpt lat="45.68434" lon="3.46588">
        <ele>492.8</ele>
        <time>2025-09-14T07:58:22Z</time>
      </trkpt>
      <trkpt lat="45.68434" lon="3.46592">
        <ele>492.8</ele>
        <time>2025-09-14T07:58:23Z</time>
      </trkpt>
      <trkpt lat="45.68433" lon="3.46598">
        <ele>492.6</ele>
        <time>2025-09-14T07:58:24Z</time>
      </trkpt>
      <trkpt lat="45.68432" lon="3.46604">
        <ele>492.6</ele>
        <time>2025-09-14T07:58:25Z</time>
      </trkpt>
      <trkpt lat="45.68431" lon="3.46611">
        <ele>492.6</ele>
        <time>2025-09-14T07:58:26Z</time>
      </trkpt>
      <trkpt lat="45.6843" lon="3.46618">
        <ele>492.4</ele>
        <time>2025-09-14T07:58:27Z</time>
      </trkpt>
      <trkpt lat="45.68429" lon="3.46624">
        <ele>492.4</ele>
        <time>2025-09-14T07:58:28Z</time>
      </trkpt>
      <trkpt lat="45.68428" lon="3.46631">
        <ele>492.4</ele>
        <time>2025-09-14T07:58:29Z</time>
      </trkpt>
      <trkpt lat="45.68428" lon="3.46637">
        <ele>492.2</ele>
        <time>2025-09-14T07:58:30Z</time>
      </trkpt>
      <trkpt lat="45.68427" lon="3.46643">
        <ele>492.2</ele>
        <time>2025-09-14T07:58:31Z</time>
      </trkpt>
      <trkpt lat="45.68426" lon="3.46649">
        <ele>492</ele>
        <time>2025-09-14T07:58:32Z</time>
      </trkpt>
      <trkpt lat="45.68424" lon="3.46655">
        <ele>492</ele>
        <time>2025-09-14T07:58:33Z</time>
      </trkpt>
      <trkpt lat="45.68423" lon="3.46661">
        <ele>491.8</ele>
        <time>2025-09-14T07:58:34Z</time>
      </trkpt>
      <trkpt lat="45.68422" lon="3.46668">
        <ele>491.8</ele>
        <time>2025-09-14T07:58:35Z</time>
      </trkpt>
      <trkpt lat="45.6842" lon="3.46674">
        <ele>491.8</ele>
        <time>2025-09-14T07:58:36Z</time>
      </trkpt>
      <trkpt lat="45.68419" lon="3.46681">
        <ele>491.6</ele>
        <time>2025-09-14T07:58:37Z</time>
      </trkpt>
      <trkpt lat="45.68417" lon="3.46687">
        <ele>491.6</ele>
        <time>2025-09-14T07:58:38Z</time>
      </trkpt>
      <trkpt lat="45.68414" lon="3.46694">
        <ele>491.6</ele>
        <time>2025-09-14T07:58:39Z</time>
      </trkpt>
      <trkpt lat="45.68411" lon="3.46699">
        <ele>491.6</ele>
        <time>2025-09-14T07:58:40Z</time>
      </trkpt>
      <trkpt lat="45.68409" lon="3.46705">
        <ele>491.8</ele>
        <time>2025-09-14T07:58:41Z</time>
      </trkpt>
      <trkpt lat="45.68405" lon="3.4671">
        <ele>491.8</ele>
        <time>2025-09-14T07:58:42Z</time>
      </trkpt>
      <trkpt lat="45.68402" lon="3.46714">
        <ele>492</ele>
        <time>2025-09-14T07:58:43Z</time>
      </trkpt>
      <trkpt lat="45.68399" lon="3.46719">
        <ele>492</ele>
        <time>2025-09-14T07:58:44Z</time>
      </trkpt>
      <trkpt lat="45.68396" lon="3.46723">
        <ele>492.2</ele>
        <time>2025-09-14T07:58:45Z</time>
      </trkpt>
      <trkpt lat="45.68393" lon="3.46726">
        <ele>492.2</ele>
        <time>2025-09-14T07:58:46Z</time>
      </trkpt>
      <trkpt lat="45.6839" lon="3.46729">
        <ele>492.2</ele>
        <time>2025-09-14T07:58:47Z</time>
      </trkpt>
      <trkpt lat="45.68387" lon="3.46731">
        <ele>492.4</ele>
        <time>2025-09-14T07:58:48Z</time>
      </trkpt>
      <trkpt lat="45.68385" lon="3.46734">
        <ele>492.4</ele>
        <time>2025-09-14T07:58:49Z</time>
      </trkpt>
      <trkpt lat="45.68382" lon="3.46736">
        <ele>492.6</ele>
        <time>2025-09-14T07:58:50Z</time>
      </trkpt>
      <trkpt lat="45.6838" lon="3.4674">
        <ele>492.8</ele>
        <time>2025-09-14T07:58:51Z</time>
      </trkpt>
      <trkpt lat="45.68378" lon="3.46744">
        <ele>493</ele>
        <time>2025-09-14T07:58:52Z</time>
      </trkpt>
      <trkpt lat="45.68377" lon="3.46749">
        <ele>493.2</ele>
        <time>2025-09-14T07:58:53Z</time>
      </trkpt>
      <trkpt lat="45.68378" lon="3.46755">
        <ele>493.4</ele>
        <time>2025-09-14T07:58:54Z</time>
      </trkpt>
      <trkpt lat="45.68379" lon="3.4676">
        <ele>493.6</ele>
        <time>2025-09-14T07:58:55Z</time>
      </trkpt>
      <trkpt lat="45.68382" lon="3.46763">
        <ele>493.8</ele>
        <time>2025-09-14T07:58:56Z</time>
      </trkpt>
      <trkpt lat="45.68386" lon="3.46767">
        <ele>494.4</ele>
        <time>2025-09-14T07:58:57Z</time>
      </trkpt>
      <trkpt lat="45.6839" lon="3.4677">
        <ele>494.6</ele>
        <time>2025-09-14T07:58:58Z</time>
      </trkpt>
      <trkpt lat="45.68394" lon="3.46774">
        <ele>494.8</ele>
        <time>2025-09-14T07:58:59Z</time>
      </trkpt>
      <trkpt lat="45.68398" lon="3.46777">
        <ele>495.2</ele>
        <time>2025-09-14T07:59:00Z</time>
      </trkpt>
      <trkpt lat="45.68402" lon="3.4678">
        <ele>495.2</ele>
        <time>2025-09-14T07:59:01Z</time>
      </trkpt>
      <trkpt lat="45.68405" lon="3.46784">
        <ele>495.2</ele>
        <time>2025-09-14T07:59:02Z</time>
      </trkpt>
      <trkpt lat="45.6841" lon="3.46787">
        <ele>495.4</ele>
        <time>2025-09-14T07:59:03Z</time>
      </trkpt>
      <trkpt lat="45.68414" lon="3.46789">
        <ele>495.4</ele>
        <time>2025-09-14T07:59:04Z</time>
      </trkpt>
      <trkpt lat="45.68419" lon="3.4679">
        <ele>495.6</ele>
        <time>2025-09-14T07:59:05Z</time>
      </trkpt>
      <trkpt lat="45.68423" lon="3.46791">
        <ele>495.8</ele>
        <time>2025-09-14T07:59:06Z</time>
      </trkpt>
      <trkpt lat="45.68428" lon="3.46792">
        <ele>496</ele>
        <time>2025-09-14T07:59:07Z</time>
      </trkpt>
      <trkpt lat="45.68432" lon="3.46792">
        <ele>496</ele>
        <time>2025-09-14T07:59:08Z</time>
      </trkpt>
      <trkpt lat="45.68436" lon="3.46792">
        <ele>495.8</ele>
        <time>2025-09-14T07:59:09Z</time>
      </trkpt>
      <trkpt lat="45.68441" lon="3.46792">
        <ele>496</ele>
        <time>2025-09-14T07:59:10Z</time>
      </trkpt>
      <trkpt lat="45.68445" lon="3.46792">
        <ele>496</ele>
        <time>2025-09-14T07:59:11Z</time>
      </trkpt>
      <trkpt lat="45.68449" lon="3.46792">
        <ele>496</ele>
        <time>2025-09-14T07:59:12Z</time>
      </trkpt>
      <trkpt lat="45.68454" lon="3.46792">
        <ele>495.8</ele>
        <time>2025-09-14T07:59:13Z</time>
      </trkpt>
      <trkpt lat="45.68458" lon="3.46792">
        <ele>495.8</ele>
        <time>2025-09-14T07:59:14Z</time>
      </trkpt>
      <trkpt lat="45.68462" lon="3.46792">
        <ele>495.8</ele>
        <time>2025-09-14T07:59:15Z</time>
      </trkpt>
      <trkpt lat="45.68467" lon="3.46791">
        <ele>495.8</ele>
        <time>2025-09-14T07:59:16Z</time>
      </trkpt>
      <trkpt lat="45.6847" lon="3.46791">
        <ele>495.8</ele>
        <time>2025-09-14T07:59:17Z</time>
      </trkpt>
      <trkpt lat="45.68474" lon="3.46791">
        <ele>495.6</ele>
        <time>2025-09-14T07:59:18Z</time>
      </trkpt>
      <trkpt lat="45.68478" lon="3.46791">
        <ele>495.6</ele>
        <time>2025-09-14T07:59:19Z</time>
      </trkpt>
      <trkpt lat="45.68482" lon="3.46791">
        <ele>495.4</ele>
        <time>2025-09-14T07:59:20Z</time>
      </trkpt>
      <trkpt lat="45.68486" lon="3.46791">
        <ele>495.4</ele>
        <time>2025-09-14T07:59:21Z</time>
      </trkpt>
      <trkpt lat="45.68489" lon="3.4679">
        <ele>495.2</ele>
        <time>2025-09-14T07:59:22Z</time>
      </trkpt>
      <trkpt lat="45.68493" lon="3.4679">
        <ele>495.2</ele>
        <time>2025-09-14T07:59:23Z</time>
      </trkpt>
      <trkpt lat="45.68497" lon="3.4679">
        <ele>495.2</ele>
        <time>2025-09-14T07:59:24Z</time>
      </trkpt>
      <trkpt lat="45.685" lon="3.46789">
        <ele>495</ele>
        <time>2025-09-14T07:59:25Z</time>
      </trkpt>
      <trkpt lat="45.68504" lon="3.46789">
        <ele>494.8</ele>
        <time>2025-09-14T07:59:26Z</time>
      </trkpt>
      <trkpt lat="45.68507" lon="3.46789">
        <ele>494.6</ele>
        <time>2025-09-14T07:59:27Z</time>
      </trkpt>
      <trkpt lat="45.68511" lon="3.46788">
        <ele>494.6</ele>
        <time>2025-09-14T07:59:28Z</time>
      </trkpt>
      <trkpt lat="45.68514" lon="3.46788">
        <ele>494.6</ele>
        <time>2025-09-14T07:59:29Z</time>
      </trkpt>
      <trkpt lat="45.68518" lon="3.46788">
        <ele>494.4</ele>
        <time>2025-09-14T07:59:30Z</time>
      </trkpt>
      <trkpt lat="45.68522" lon="3.46788">
        <ele>494.2</ele>
        <time>2025-09-14T07:59:31Z</time>
      </trkpt>
      <trkpt lat="45.68525" lon="3.46788">
        <ele>494.2</ele>
        <time>2025-09-14T07:59:32Z</time>
      </trkpt>
      <trkpt lat="45.68529" lon="3.46788">
        <ele>494.2</ele>
        <time>2025-09-14T07:59:33Z</time>
      </trkpt>
      <trkpt lat="45.68533" lon="3.46788">
        <ele>494.2</ele>
        <time>2025-09-14T07:59:34Z</time>
      </trkpt>
      <trkpt lat="45.68537" lon="3.46788">
        <ele>494</ele>
        <time>2025-09-14T07:59:35Z</time>
      </trkpt>
      <trkpt lat="45.6854" lon="3.46789">
        <ele>494</ele>
        <time>2025-09-14T07:59:36Z</time>
      </trkpt>
      <trkpt lat="45.68544" lon="3.46788">
        <ele>493.8</ele>
        <time>2025-09-14T07:59:37Z</time>
      </trkpt>
      <trkpt lat="45.68547" lon="3.46788">
        <ele>493.8</ele>
        <time>2025-09-14T07:59:38Z</time>
      </trkpt>
      <trkpt lat="45.68551" lon="3.46788">
        <ele>493.6</ele>
        <time>2025-09-14T07:59:39Z</time>
      </trkpt>
      <trkpt lat="45.68554" lon="3.46788">
        <ele>493.6</ele>
        <time>2025-09-14T07:59:40Z</time>
      </trkpt>
      <trkpt lat="45.68558" lon="3.46788">
        <ele>493.4</ele>
        <time>2025-09-14T07:59:41Z</time>
      </trkpt>
      <trkpt lat="45.68562" lon="3.46788">
        <ele>493.2</ele>
        <time>2025-09-14T07:59:42Z</time>
      </trkpt>
      <trkpt lat="45.68565" lon="3.46788">
        <ele>493.2</ele>
        <time>2025-09-14T07:59:43Z</time>
      </trkpt>
      <trkpt lat="45.68569" lon="3.46788">
        <ele>493.2</ele>
        <time>2025-09-14T07:59:44Z</time>
      </trkpt>
      <trkpt lat="45.68572" lon="3.46788">
        <ele>493</ele>
        <time>2025-09-14T07:59:45Z</time>
      </trkpt>
      <trkpt lat="45.68576" lon="3.46788">
        <ele>492.8</ele>
        <time>2025-09-14T07:59:46Z</time>
      </trkpt>
      <trkpt lat="45.6858" lon="3.46788">
        <ele>492.6</ele>
        <time>2025-09-14T07:59:47Z</time>
      </trkpt>
      <trkpt lat="45.68584" lon="3.46788">
        <ele>492.6</ele>
        <time>2025-09-14T07:59:48Z</time>
      </trkpt>
      <trkpt lat="45.68588" lon="3.46787">
        <ele>492.6</ele>
        <time>2025-09-14T07:59:49Z</time>
      </trkpt>
      <trkpt lat="45.68592" lon="3.46787">
        <ele>492.6</ele>
        <time>2025-09-14T07:59:50Z</time>
      </trkpt>
      <trkpt lat="45.68596" lon="3.46787">
        <ele>492.6</ele>
        <time>2025-09-14T07:59:51Z</time>
      </trkpt>
      <trkpt lat="45.686" lon="3.46787">
        <ele>492.6</ele>
        <time>2025-09-14T07:59:52Z</time>
      </trkpt>
      <trkpt lat="45.68605" lon="3.46787">
        <ele>492.4</ele>
        <time>2025-09-14T07:59:53Z</time>
      </trkpt>
      <trkpt lat="45.68609" lon="3.46786">
        <ele>492.4</ele>
        <time>2025-09-14T07:59:54Z</time>
      </trkpt>
      <trkpt lat="45.68613" lon="3.46786">
        <ele>492.4</ele>
        <time>2025-09-14T07:59:55Z</time>
      </trkpt>
      <trkpt lat="45.68618" lon="3.46785">
        <ele>492.6</ele>
        <time>2025-09-14T07:59:56Z</time>
      </trkpt>
      <trkpt lat="45.68623" lon="3.46785">
        <ele>492.4</ele>
        <time>2025-09-14T07:59:57Z</time>
      </trkpt>
      <trkpt lat="45.68628" lon="3.46784">
        <ele>492.4</ele>
        <time>2025-09-14T07:59:58Z</time>
      </trkpt>
      <trkpt lat="45.68633" lon="3.46783">
        <ele>492.2</ele>
        <time>2025-09-14T07:59:59Z</time>
      </trkpt>
      <trkpt lat="45.68638" lon="3.46782">
        <ele>492</ele>
        <time>2025-09-14T08:00:00Z</time>
      </trkpt>
      <trkpt lat="45.68643" lon="3.46781">
        <ele>492</ele>
        <time>2025-09-14T08:00:01Z</time>
      </trkpt>
      <trkpt lat="45.68647" lon="3.4678">
        <ele>492</ele>
        <time>2025-09-14T08:00:02Z</time>
      </trkpt>
      <trkpt lat="45.68652" lon="3.46778">
        <ele>492</ele>
        <time>2025-09-14T08:00:03Z</time>
      </trkpt>
      <trkpt lat="45.68657" lon="3.46777">
        <ele>492</ele>
        <time>2025-09-14T08:00:04Z</time>
      </trkpt>
      <trkpt lat="45.68662" lon="3.46777">
        <ele>492.2</ele>
        <time>2025-09-14T08:00:05Z</time>
      </trkpt>
      <trkpt lat="45.68667" lon="3.46777">
        <ele>492</ele>
        <time>2025-09-14T08:00:06Z</time>
      </trkpt>
      <trkpt lat="45.68671" lon="3.46777">
        <ele>492</ele>
        <time>2025-09-14T08:00:07Z</time>
      </trkpt>
      <trkpt lat="45.68676" lon="3.46776">
        <ele>491.8</ele>
        <time>2025-09-14T08:00:08Z</time>
      </trkpt>
      <trkpt lat="45.68681" lon="3.46776">
        <ele>491.8</ele>
        <time>2025-09-14T08:00:09Z</time>
      </trkpt>
      <trkpt lat="45.68685" lon="3.46776">
        <ele>491.8</ele>
        <time>2025-09-14T08:00:10Z</time>
      </trkpt>
      <trkpt lat="45.6869" lon="3.46776">
        <ele>491.8</ele>
        <time>2025-09-14T08:00:11Z</time>
      </trkpt>
      <trkpt lat="45.68695" lon="3.46776">
        <ele>491.6</ele>
        <time>2025-09-14T08:00:12Z</time>
      </trkpt>
      <trkpt lat="45.68699" lon="3.46776">
        <ele>491.6</ele>
        <time>2025-09-14T08:00:13Z</time>
      </trkpt>
      <trkpt lat="45.68704" lon="3.46776">
        <ele>491.6</ele>
        <time>2025-09-14T08:00:14Z</time>
      </trkpt>
      <trkpt lat="45.68708" lon="3.46776">
        <ele>491.8</ele>
        <time>2025-09-14T08:00:15Z</time>
      </trkpt>
      <trkpt lat="45.68713" lon="3.46775">
        <ele>492</ele>
        <time>2025-09-14T08:00:16Z</time>
      </trkpt>
      <trkpt lat="45.68717" lon="3.46775">
        <ele>492</ele>
        <time>2025-09-14T08:00:17Z</time>
      </trkpt>
      <trkpt lat="45.6872" lon="3.46775">
        <ele>492.2</ele>
        <time>2025-09-14T08:00:18Z</time>
      </trkpt>
      <trkpt lat="45.68723" lon="3.46774">
        <ele>492.6</ele>
        <time>2025-09-14T08:00:19Z</time>
      </trkpt>
      <trkpt lat="45.68727" lon="3.46774">
        <ele>492.8</ele>
        <time>2025-09-14T08:00:20Z</time>
      </trkpt>
      <trkpt lat="45.6873" lon="3.46774">
        <ele>493</ele>
        <time>2025-09-14T08:00:21Z</time>
      </trkpt>
      <trkpt lat="45.68733" lon="3.46773">
        <ele>493</ele>
        <time>2025-09-14T08:00:22Z</time>
      </trkpt>
      <trkpt lat="45.68736" lon="3.46773">
        <ele>493</ele>
        <time>2025-09-14T08:00:23Z</time>
      </trkpt>
      <trkpt lat="45.68739" lon="3.46772">
        <ele>493</ele>
        <time>2025-09-14T08:00:24Z</time>
      </trkpt>
      <trkpt lat="45.68743" lon="3.46772">
        <ele>493</ele>
        <time>2025-09-14T08:00:25Z</time>
      </trkpt>
      <trkpt lat="45.68746" lon="3.46772">
        <ele>492.8</ele>
        <time>2025-09-14T08:00:26Z</time>
      </trkpt>
      <trkpt lat="45.6875" lon="3.46773">
        <ele>492.6</ele>
        <time>2025-09-14T08:00:27Z</time>
      </trkpt>
      <trkpt lat="45.68753" lon="3.46773">
        <ele>492.6</ele>
        <time>2025-09-14T08:00:28Z</time>
      </trkpt>
      <trkpt lat="45.68756" lon="3.46774">
        <ele>492.6</ele>
        <time>2025-09-14T08:00:29Z</time>
      </trkpt>
      <trkpt lat="45.6876" lon="3.46774">
        <ele>492.4</ele>
        <time>2025-09-14T08:00:30Z</time>
      </trkpt>
      <trkpt lat="45.68764" lon="3.46775">
        <ele>492.6</ele>
        <time>2025-09-14T08:00:31Z</time>
      </trkpt>
      <trkpt lat="45.68768" lon="3.46774">
        <ele>492.4</ele>
        <time>2025-09-14T08:00:32Z</time>
      </trkpt>
      <trkpt lat="45.68772" lon="3.46773">
        <ele>492.4</ele>
        <time>2025-09-14T08:00:33Z</time>
      </trkpt>
      <trkpt lat="45.68775" lon="3.46773">
        <ele>492.4</ele>
        <time>2025-09-14T08:00:34Z</time>
      </trkpt>
      <trkpt lat="45.6878" lon="3.46772">
        <ele>492.4</ele>
        <time>2025-09-14T08:00:35Z</time>
      </trkpt>
      <trkpt lat="45.68784" lon="3.46772">
        <ele>492.4</ele>
        <time>2025-09-14T08:00:36Z</time>
      </trkpt>
      <trkpt lat="45.68787" lon="3.46772">
        <ele>492.2</ele>
        <time>2025-09-14T08:00:37Z</time>
      </trkpt>
      <trkpt lat="45.68791" lon="3.46772">
        <ele>492.2</ele>
        <time>2025-09-14T08:00:38Z</time>
      </trkpt>
      <trkpt lat="45.68794" lon="3.46773">
        <ele>492.2</ele>
        <time>2025-09-14T08:00:39Z</time>
      </trkpt>
      <trkpt lat="45.68799" lon="3.46774">
        <ele>492.2</ele>
        <time>2025-09-14T08:00:40Z</time>
      </trkpt>
      <trkpt lat="45.68804" lon="3.46776">
        <ele>492</ele>
        <time>2025-09-14T08:00:41Z</time>
      </trkpt>
      <trkpt lat="45.68808" lon="3.46777">
        <ele>491.8</ele>
        <time>2025-09-14T08:00:42Z</time>
      </trkpt>
      <trkpt lat="45.68814" lon="3.46779">
        <ele>491.4</ele>
        <time>2025-09-14T08:00:43Z</time>
      </trkpt>
      <trkpt lat="45.68821" lon="3.46782">
        <ele>491.2</ele>
        <time>2025-09-14T08:00:44Z</time>
      </trkpt>
      <trkpt lat="45.68832" lon="3.46786">
        <ele>491</ele>
        <time>2025-09-14T08:00:45Z</time>
      </trkpt>
      <trkpt lat="45.68844" lon="3.46791">
        <ele>490.8</ele>
        <time>2025-09-14T08:00:46Z</time>
      </trkpt>
      <trkpt lat="45.68852" lon="3.46795">
        <ele>490.6</ele>
        <time>2025-09-14T08:00:47Z</time>
      </trkpt>
      <trkpt lat="45.6886" lon="3.468">
        <ele>490.2</ele>
        <time>2025-09-14T08:00:48Z</time>
      </trkpt>
      <trkpt lat="45.68869" lon="3.46804">
        <ele>489.6</ele>
        <time>2025-09-14T08:00:49Z</time>
      </trkpt>
      <trkpt lat="45.68876" lon="3.46806">
        <ele>489.4</ele>
        <time>2025-09-14T08:00:50Z</time>
      </trkpt>
      <trkpt lat="45.6888" lon="3.46808">
        <ele>489</ele>
        <time>2025-09-14T08:00:51Z</time>
      </trkpt>
      <trkpt lat="45.68885" lon="3.46809">
        <ele>488.8</ele>
        <time>2025-09-14T08:00:52Z</time>
      </trkpt>
      <trkpt lat="45.68887" lon="3.46809">
        <ele>488.4</ele>
        <time>2025-09-14T08:00:53Z</time>
      </trkpt>
      <trkpt lat="45.68889" lon="3.46809">
        <ele>488.2</ele>
        <time>2025-09-14T08:00:54Z</time>
      </trkpt>
      <trkpt lat="45.68892" lon="3.4681">
        <ele>488</ele>
        <time>2025-09-14T08:00:55Z</time>
      </trkpt>
      <trkpt lat="45.68895" lon="3.46812">
        <ele>487.8</ele>
        <time>2025-09-14T08:00:56Z</time>
      </trkpt>
      <trkpt lat="45.68898" lon="3.46813">
        <ele>487.6</ele>
        <time>2025-09-14T08:00:57Z</time>
      </trkpt>
      <trkpt lat="45.68901" lon="3.46814">
        <ele>487.4</ele>
        <time>2025-09-14T08:00:58Z</time>
      </trkpt>
      <trkpt lat="45.68906" lon="3.46817">
        <ele>487.4</ele>
        <time>2025-09-14T08:00:59Z</time>
      </trkpt>
      <trkpt lat="45.6891" lon="3.46821">
        <ele>487.2</ele>
        <time>2025-09-14T08:01:00Z</time>
      </trkpt>
      <trkpt lat="45.68915" lon="3.46826">
        <ele>487</ele>
        <time>2025-09-14T08:01:01Z</time>
      </trkpt>
      <trkpt lat="45.6892" lon="3.46832">
        <ele>486.6</ele>
        <time>2025-09-14T08:01:02Z</time>
      </trkpt>
      <trkpt lat="45.68928" lon="3.46836">
        <ele>486.6</ele>
        <time>2025-09-14T08:01:03Z</time>
      </trkpt>
      <trkpt lat="45.68936" lon="3.46841">
        <ele>486.4</ele>
        <time>2025-09-14T08:01:04Z</time>
      </trkpt>
      <trkpt lat="45.68945" lon="3.46845">
        <ele>486</ele>
        <time>2025-09-14T08:01:05Z</time>
      </trkpt>
      <trkpt lat="45.68951" lon="3.46848">
        <ele>486</ele>
        <time>2025-09-14T08:01:06Z</time>
      </trkpt>
      <trkpt lat="45.68956" lon="3.46851">
        <ele>486</ele>
        <time>2025-09-14T08:01:07Z</time>
      </trkpt>
      <trkpt lat="45.68961" lon="3.46856">
        <ele>486</ele>
        <time>2025-09-14T08:01:08Z</time>
      </trkpt>
      <trkpt lat="45.68967" lon="3.4686">
        <ele>486</ele>
        <time>2025-09-14T08:01:09Z</time>
      </trkpt>
      <trkpt lat="45.68972" lon="3.46863">
        <ele>485.8</ele>
        <time>2025-09-14T08:01:10Z</time>
      </trkpt>
      <trkpt lat="45.68977" lon="3.46867">
        <ele>485.6</ele>
        <time>2025-09-14T08:01:11Z</time>
      </trkpt>
      <trkpt lat="45.68982" lon="3.4687">
        <ele>485.2</ele>
        <time>2025-09-14T08:01:12Z</time>
      </trkpt>
      <trkpt lat="45.68985" lon="3.46873">
        <ele>485</ele>
        <time>2025-09-14T08:01:13Z</time>
      </trkpt>
      <trkpt lat="45.68988" lon="3.46876">
        <ele>484.6</ele>
        <time>2025-09-14T08:01:14Z</time>
      </trkpt>
      <trkpt lat="45.68991" lon="3.4688">
        <ele>484.2</ele>
        <time>2025-09-14T08:01:15Z</time>
      </trkpt>
      <trkpt lat="45.68993" lon="3.46883">
        <ele>483.6</ele>
        <time>2025-09-14T08:01:16Z</time>
      </trkpt>
      <trkpt lat="45.68994" lon="3.46887">
        <ele>483</ele>
        <time>2025-09-14T08:01:17Z</time>
      </trkpt>
      <trkpt lat="45.68996" lon="3.46891">
        <ele>482.2</ele>
        <time>2025-09-14T08:01:18Z</time>
      </trkpt>
      <trkpt lat="45.68998" lon="3.46893">
        <ele>481.4</ele>
        <time>2025-09-14T08:01:19Z</time>
      </trkpt>
      <trkpt lat="45.69" lon="3.46895">
        <ele>481</ele>
        <time>2025-09-14T08:01:20Z</time>
      </trkpt>
      <trkpt lat="45.69001" lon="3.46897">
        <ele>480.4</ele>
        <time>2025-09-14T08:01:21Z</time>
      </trkpt>
      <trkpt lat="45.69002" lon="3.46898">
        <ele>479.6</ele>
        <time>2025-09-14T08:01:22Z</time>
      </trkpt>
      <trkpt lat="45.69004" lon="3.46899">
        <ele>479.2</ele>
        <time>2025-09-14T08:01:23Z</time>
      </trkpt>
      <trkpt lat="45.69006" lon="3.469">
        <ele>478.6</ele>
        <time>2025-09-14T08:01:24Z</time>
      </trkpt>
      <trkpt lat="45.69008" lon="3.46901">
        <ele>478.2</ele>
        <time>2025-09-14T08:01:25Z</time>
      </trkpt>
      <trkpt lat="45.6901" lon="3.46901">
        <ele>478.2</ele>
        <time>2025-09-14T08:01:26Z</time>
      </trkpt>
      <trkpt lat="45.69013" lon="3.469">
        <ele>478</ele>
        <time>2025-09-14T08:01:27Z</time>
      </trkpt>
      <trkpt lat="45.69016" lon="3.469">
        <ele>477.8</ele>
        <time>2025-09-14T08:01:28Z</time>
      </trkpt>
      <trkpt lat="45.69019" lon="3.469">
        <ele>477.6</ele>
        <time>2025-09-14T08:01:29Z</time>
      </trkpt>
      <trkpt lat="45.69021" lon="3.46902">
        <ele>477.4</ele>
        <time>2025-09-14T08:01:30Z</time>
      </trkpt>
      <trkpt lat="45.69023" lon="3.46904">
        <ele>477.2</ele>
        <time>2025-09-14T08:01:31Z</time>
      </trkpt>
      <trkpt lat="45.69025" lon="3.46905">
        <ele>477</ele>
        <time>2025-09-14T08:01:32Z</time>
      </trkpt>
      <trkpt lat="45.69028" lon="3.46906">
        <ele>477</ele>
        <time>2025-09-14T08:01:33Z</time>
      </trkpt>
      <trkpt lat="45.69031" lon="3.46906">
        <ele>476.6</ele>
        <time>2025-09-14T08:01:34Z</time>
      </trkpt>
      <trkpt lat="45.69036" lon="3.46907">
        <ele>476.4</ele>
        <time>2025-09-14T08:01:35Z</time>
      </trkpt>
      <trkpt lat="45.6904" lon="3.46908">
        <ele>476.2</ele>
        <time>2025-09-14T08:01:36Z</time>
      </trkpt>
      <trkpt lat="45.69043" lon="3.46909">
        <ele>476</ele>
        <time>2025-09-14T08:01:37Z</time>
      </trkpt>
      <trkpt lat="45.69046" lon="3.46909">
        <ele>476</ele>
        <time>2025-09-14T08:01:38Z</time>
      </trkpt>
      <trkpt lat="45.69049" lon="3.46908">
        <ele>476.2</ele>
        <time>2025-09-14T08:01:39Z</time>
      </trkpt>
      <trkpt lat="45.69051" lon="3.46906">
        <ele>476.2</ele>
        <time>2025-09-14T08:01:40Z</time>
      </trkpt>
      <trkpt lat="45.69053" lon="3.46906">
        <ele>476.2</ele>
        <time>2025-09-14T08:01:41Z</time>
      </trkpt>
      <trkpt lat="45.69056" lon="3.46906">
        <ele>476.2</ele>
        <time>2025-09-14T08:01:42Z</time>
      </trkpt>
      <trkpt lat="45.69058" lon="3.46907">
        <ele>476.2</ele>
        <time>2025-09-14T08:01:43Z</time>
      </trkpt>
      <trkpt lat="45.69058" lon="3.46907">
        <ele>476.2</ele>
        <time>2025-09-14T08:01:44Z</time>
      </trkpt>
      <trkpt lat="45.6906" lon="3.46908">
        <ele>476.2</ele>
        <time>2025-09-14T08:01:45Z</time>
      </trkpt>
      <trkpt lat="45.69061" lon="3.46909">
        <ele>476.2</ele>
        <time>2025-09-14T08:01:46Z</time>
      </trkpt>
      <trkpt lat="45.69064" lon="3.46911">
        <ele>476.2</ele>
        <time>2025-09-14T08:01:47Z</time>
      </trkpt>
      <trkpt lat="45.69066" lon="3.46914">
        <ele>476.2</ele>
        <time>2025-09-14T08:01:48Z</time>
      </trkpt>
      <trkpt lat="45.69068" lon="3.46917">
        <ele>476.4</ele>
        <time>2025-09-14T08:01:49Z</time>
      </trkpt>
      <trkpt lat="45.69071" lon="3.4692">
        <ele>476.6</ele>
        <time>2025-09-14T08:01:50Z</time>
      </trkpt>
      <trkpt lat="45.69073" lon="3.46922">
        <ele>476.6</ele>
        <time>2025-09-14T08:01:51Z</time>
      </trkpt>
      <trkpt lat="45.69074" lon="3.46924">
        <ele>476.8</ele>
        <time>2025-09-14T08:01:52Z</time>
      </trkpt>
      <trkpt lat="45.69077" lon="3.46926">
        <ele>476.8</ele>
        <time>2025-09-14T08:01:53Z</time>
      </trkpt>
      <trkpt lat="45.6908" lon="3.46929">
        <ele>477</ele>
        <time>2025-09-14T08:01:54Z</time>
      </trkpt>
      <trkpt lat="45.69083" lon="3.46931">
        <ele>477.2</ele>
        <time>2025-09-14T08:01:55Z</time>
      </trkpt>
      <trkpt lat="45.69085" lon="3.46932">
        <ele>477.4</ele>
        <time>2025-09-14T08:01:56Z</time>
      </trkpt>
      <trkpt lat="45.69087" lon="3.46934">
        <ele>477.8</ele>
        <time>2025-09-14T08:01:57Z</time>
      </trkpt>
      <trkpt lat="45.69089" lon="3.46936">
        <ele>478</ele>
        <time>2025-09-14T08:01:58Z</time>
      </trkpt>
      <trkpt lat="45.69091" lon="3.46939">
        <ele>478.4</ele>
        <time>2025-09-14T08:01:59Z</time>
      </trkpt>
      <trkpt lat="45.69096" lon="3.46942">
        <ele>478.8</ele>
        <time>2025-09-14T08:02:00Z</time>
      </trkpt>
      <trkpt lat="45.69101" lon="3.46946">
        <ele>479</ele>
        <time>2025-09-14T08:02:01Z</time>
      </trkpt>
      <trkpt lat="45.69107" lon="3.46952">
        <ele>479.6</ele>
        <time>2025-09-14T08:02:02Z</time>
      </trkpt>
      <trkpt lat="45.69111" lon="3.46955">
        <ele>479.8</ele>
        <time>2025-09-14T08:02:03Z</time>
      </trkpt>
      <trkpt lat="45.69117" lon="3.46957">
        <ele>480</ele>
        <time>2025-09-14T08:02:04Z</time>
      </trkpt>
      <trkpt lat="45.69121" lon="3.4696">
        <ele>480.2</ele>
        <time>2025-09-14T08:02:05Z</time>
      </trkpt>
      <trkpt lat="45.69125" lon="3.46959">
        <ele>480.2</ele>
        <time>2025-09-14T08:02:06Z</time>
      </trkpt>
      <trkpt lat="45.69128" lon="3.46957">
        <ele>480.4</ele>
        <time>2025-09-14T08:02:07Z</time>
      </trkpt>
      <trkpt lat="45.69133" lon="3.46954">
        <ele>480.4</ele>
        <time>2025-09-14T08:02:08Z</time>
      </trkpt>
      <trkpt lat="45.69138" lon="3.46951">
        <ele>480.6</ele>
        <time>2025-09-14T08:02:09Z</time>
      </trkpt>
      <trkpt lat="45.69142" lon="3.46948">
        <ele>480.6</ele>
        <time>2025-09-14T08:02:10Z</time>
      </trkpt>
      <trkpt lat="45.69146" lon="3.46945">
        <ele>480.6</ele>
        <time>2025-09-14T08:02:11Z</time>
      </trkpt>
      <trkpt lat="45.6915" lon="3.46944">
        <ele>480.4</ele>
        <time>2025-09-14T08:02:12Z</time>
      </trkpt>
      <trkpt lat="45.69154" lon="3.46945">
        <ele>480.4</ele>
        <time>2025-09-14T08:02:13Z</time>
      </trkpt>
      <trkpt lat="45.69157" lon="3.46948">
        <ele>480.6</ele>
        <time>2025-09-14T08:02:14Z</time>
      </trkpt>
      <trkpt lat="45.69158" lon="3.46951">
        <ele>480.6</ele>
        <time>2025-09-14T08:02:15Z</time>
      </trkpt>
      <trkpt lat="45.69159" lon="3.46952">
        <ele>480.8</ele>
        <time>2025-09-14T08:02:16Z</time>
      </trkpt>
      <trkpt lat="45.69161" lon="3.46951">
        <ele>481</ele>
        <time>2025-09-14T08:02:17Z</time>
      </trkpt>
      <trkpt lat="45.69163" lon="3.46951">
        <ele>481.2</ele>
        <time>2025-09-14T08:02:18Z</time>
      </trkpt>
      <trkpt lat="45.69166" lon="3.4695">
        <ele>481.4</ele>
        <time>2025-09-14T08:02:19Z</time>
      </trkpt>
      <trkpt lat="45.69168" lon="3.4695">
        <ele>481.6</ele>
        <time>2025-09-14T08:02:20Z</time>
      </trkpt>
      <trkpt lat="45.69171" lon="3.46949">
        <ele>481.8</ele>
        <time>2025-09-14T08:02:21Z</time>
      </trkpt>
      <trkpt lat="45.69173" lon="3.46948">
        <ele>482.2</ele>
        <time>2025-09-14T08:02:22Z</time>
      </trkpt>
      <trkpt lat="45.69174" lon="3.46947">
        <ele>482.4</ele>
        <time>2025-09-14T08:02:23Z</time>
      </trkpt>
      <trkpt lat="45.69176" lon="3.46946">
        <ele>482.8</ele>
        <time>2025-09-14T08:02:24Z</time>
      </trkpt>
      <trkpt lat="45.69178" lon="3.46945">
        <ele>483</ele>
        <time>2025-09-14T08:02:25Z</time>
      </trkpt>
      <trkpt lat="45.69179" lon="3.46944">
        <ele>483.4</ele>
        <time>2025-09-14T08:02:26Z</time>
      </trkpt>
      <trkpt lat="45.69181" lon="3.46943">
        <ele>483.6</ele>
        <time>2025-09-14T08:02:27Z</time>
      </trkpt>
      <trkpt lat="45.69184" lon="3.46943">
        <ele>484</ele>
        <time>2025-09-14T08:02:28Z</time>
      </trkpt>
      <trkpt lat="45.69186" lon="3.46942">
        <ele>484.4</ele>
        <time>2025-09-14T08:02:29Z</time>
      </trkpt>
      <trkpt lat="45.69187" lon="3.46941">
        <ele>484.6</ele>
        <time>2025-09-14T08:02:30Z</time>
      </trkpt>
      <trkpt lat="45.69189" lon="3.4694">
        <ele>484.8</ele>
        <time>2025-09-14T08:02:31Z</time>
      </trkpt>
      <trkpt lat="45.69191" lon="3.46939">
        <ele>485.2</ele>
        <time>2025-09-14T08:02:32Z</time>
      </trkpt>
      <trkpt lat="45.69193" lon="3.46939">
        <ele>485.4</ele>
        <time>2025-09-14T08:02:33Z</time>
      </trkpt>
      <trkpt lat="45.69195" lon="3.4694">
        <ele>485.8</ele>
        <time>2025-09-14T08:02:34Z</time>
      </trkpt>
      <trkpt lat="45.69197" lon="3.4694">
        <ele>486</ele>
        <time>2025-09-14T08:02:35Z</time>
      </trkpt>
      <trkpt lat="45.69198" lon="3.46941">
        <ele>486.2</ele>
        <time>2025-09-14T08:02:36Z</time>
      </trkpt>
      <trkpt lat="45.69199" lon="3.46942">
        <ele>486.6</ele>
        <time>2025-09-14T08:02:37Z</time>
      </trkpt>
      <trkpt lat="45.69201" lon="3.46943">
        <ele>486.8</ele>
        <time>2025-09-14T08:02:38Z</time>
      </trkpt>
      <trkpt lat="45.69203" lon="3.46945">
        <ele>487.2</ele>
        <time>2025-09-14T08:02:39Z</time>
      </trkpt>
      <trkpt lat="45.69205" lon="3.46947">
        <ele>487.6</ele>
        <time>2025-09-14T08:02:40Z</time>
      </trkpt>
      <trkpt lat="45.69207" lon="3.46948">
        <ele>488</ele>
        <time>2025-09-14T08:02:41Z</time>
      </trkpt>
      <trkpt lat="45.69209" lon="3.4695">
        <ele>488.2</ele>
        <time>2025-09-14T08:02:42Z</time>
      </trkpt>
      <trkpt lat="45.6921" lon="3.46951">
        <ele>488.6</ele>
        <time>2025-09-14T08:02:43Z</time>
      </trkpt>
      <trkpt lat="45.69211" lon="3.46953">
        <ele>488.8</ele>
        <time>2025-09-14T08:02:44Z</time>
      </trkpt>
      <trkpt lat="45.69212" lon="3.46955">
        <ele>489.2</ele>
        <time>2025-09-14T08:02:45Z</time>
      </trkpt>
      <trkpt lat="45.69213" lon="3.46957">
        <ele>489.2</ele>
        <time>2025-09-14T08:02:46Z</time>
      </trkpt>
      <trkpt lat="45.69214" lon="3.46959">
        <ele>489.4</ele>
        <time>2025-09-14T08:02:47Z</time>
      </trkpt>
      <trkpt lat="45.69216" lon="3.46961">
        <ele>489.6</ele>
        <time>2025-09-14T08:02:48Z</time>
      </trkpt>
      <trkpt lat="45.69217" lon="3.46963">
        <ele>489.6</ele>
        <time>2025-09-14T08:02:49Z</time>
      </trkpt>
      <trkpt lat="45.69218" lon="3.46966">
        <ele>489.8</ele>
        <time>2025-09-14T08:02:50Z</time>
      </trkpt>
      <trkpt lat="45.69219" lon="3.46968">
        <ele>489.8</ele>
        <time>2025-09-14T08:02:51Z</time>
      </trkpt>
      <trkpt lat="45.69221" lon="3.46971">
        <ele>490</ele>
        <time>2025-09-14T08:02:52Z</time>
      </trkpt>
      <trkpt lat="45.69224" lon="3.46974">
        <ele>490</ele>
        <time>2025-09-14T08:02:53Z</time>
      </trkpt>
      <trkpt lat="45.69226" lon="3.46977">
        <ele>490</ele>
        <time>2025-09-14T08:02:54Z</time>
      </trkpt>
      <trkpt lat="45.69229" lon="3.46979">
        <ele>489.8</ele>
        <time>2025-09-14T08:02:55Z</time>
      </trkpt>
      <trkpt lat="45.6923" lon="3.46981">
        <ele>489.8</ele>
        <time>2025-09-14T08:02:56Z</time>
      </trkpt>
      <trkpt lat="45.69232" lon="3.46983">
        <ele>489.8</ele>
        <time>2025-09-14T08:02:57Z</time>
      </trkpt>
      <trkpt lat="45.69233" lon="3.46984">
        <ele>489.6</ele>
        <time>2025-09-14T08:02:58Z</time>
      </trkpt>
      <trkpt lat="45.69233" lon="3.46985">
        <ele>489.6</ele>
        <time>2025-09-14T08:02:59Z</time>
      </trkpt>
      <trkpt lat="45.69235" lon="3.46987">
        <ele>489.4</ele>
        <time>2025-09-14T08:03:00Z</time>
      </trkpt>
      <trkpt lat="45.69235" lon="3.46988">
        <ele>489.4</ele>
        <time>2025-09-14T08:03:01Z</time>
      </trkpt>
      <trkpt lat="45.69236" lon="3.4699">
        <ele>489.2</ele>
        <time>2025-09-14T08:03:02Z</time>
      </trkpt>
      <trkpt lat="45.69239" lon="3.46994">
        <ele>489.4</ele>
        <time>2025-09-14T08:03:03Z</time>
      </trkpt>
      <trkpt lat="45.69242" lon="3.46999">
        <ele>489.6</ele>
        <time>2025-09-14T08:03:04Z</time>
      </trkpt>
      <trkpt lat="45.69244" lon="3.47004">
        <ele>489.6</ele>
        <time>2025-09-14T08:03:05Z</time>
      </trkpt>
      <trkpt lat="45.69245" lon="3.47008">
        <ele>489.8</ele>
        <time>2025-09-14T08:03:06Z</time>
      </trkpt>
      <trkpt lat="45.69247" lon="3.4701">
        <ele>490</ele>
        <time>2025-09-14T08:03:07Z</time>
      </trkpt>
      <trkpt lat="45.69249" lon="3.47013">
        <ele>490</ele>
        <time>2025-09-14T08:03:08Z</time>
      </trkpt>
      <trkpt lat="45.69251" lon="3.47016">
        <ele>490</ele>
        <time>2025-09-14T08:03:09Z</time>
      </trkpt>
      <trkpt lat="45.69252" lon="3.47019">
        <ele>490</ele>
        <time>2025-09-14T08:03:10Z</time>
      </trkpt>
      <trkpt lat="45.69253" lon="3.47022">
        <ele>490</ele>
        <time>2025-09-14T08:03:11Z</time>
      </trkpt>
      <trkpt lat="45.69254" lon="3.47025">
        <ele>490.2</ele>
        <time>2025-09-14T08:03:12Z</time>
      </trkpt>
      <trkpt lat="45.69256" lon="3.47028">
        <ele>490.2</ele>
        <time>2025-09-14T08:03:13Z</time>
      </trkpt>
      <trkpt lat="45.69259" lon="3.47032">
        <ele>490.2</ele>
        <time>2025-09-14T08:03:14Z</time>
      </trkpt>
      <trkpt lat="45.69262" lon="3.47037">
        <ele>490.2</ele>
        <time>2025-09-14T08:03:15Z</time>
      </trkpt>
      <trkpt lat="45.69265" lon="3.47041">
        <ele>490.4</ele>
        <time>2025-09-14T08:03:16Z</time>
      </trkpt>
      <trkpt lat="45.69267" lon="3.47044">
        <ele>490.4</ele>
        <time>2025-09-14T08:03:17Z</time>
      </trkpt>
      <trkpt lat="45.69268" lon="3.47048">
        <ele>490.6</ele>
        <time>2025-09-14T08:03:18Z</time>
      </trkpt>
      <trkpt lat="45.69269" lon="3.47052">
        <ele>490.8</ele>
        <time>2025-09-14T08:03:19Z</time>
      </trkpt>
      <trkpt lat="45.6927" lon="3.47056">
        <ele>491</ele>
        <time>2025-09-14T08:03:20Z</time>
      </trkpt>
      <trkpt lat="45.69272" lon="3.47061">
        <ele>491.2</ele>
        <time>2025-09-14T08:03:21Z</time>
      </trkpt>
      <trkpt lat="45.69273" lon="3.47066">
        <ele>491.4</ele>
        <time>2025-09-14T08:03:22Z</time>
      </trkpt>
      <trkpt lat="45.69273" lon="3.47067">
        <ele>491.8</ele>
        <time>2025-09-14T08:03:23Z</time>
      </trkpt>
      <trkpt lat="45.69274" lon="3.47068">
        <ele>492.2</ele>
        <time>2025-09-14T08:03:24Z</time>
      </trkpt>
      <trkpt lat="45.69275" lon="3.4707">
        <ele>492.4</ele>
        <time>2025-09-14T08:03:25Z</time>
      </trkpt>
      <trkpt lat="45.69275" lon="3.4707">
        <ele>492.6</ele>
        <time>2025-09-14T08:03:26Z</time>
      </trkpt>
      <trkpt lat="45.69276" lon="3.47072">
        <ele>492.8</ele>
        <time>2025-09-14T08:03:27Z</time>
      </trkpt>
      <trkpt lat="45.69277" lon="3.47075">
        <ele>493.2</ele>
        <time>2025-09-14T08:03:28Z</time>
      </trkpt>
      <trkpt lat="45.69279" lon="3.47077">
        <ele>493.4</ele>
        <time>2025-09-14T08:03:29Z</time>
      </trkpt>
      <trkpt lat="45.69281" lon="3.47078">
        <ele>493.6</ele>
        <time>2025-09-14T08:03:30Z</time>
      </trkpt>
      <trkpt lat="45.69283" lon="3.4708">
        <ele>493.8</ele>
        <time>2025-09-14T08:03:31Z</time>
      </trkpt>
      <trkpt lat="45.69286" lon="3.47082">
        <ele>494</ele>
        <time>2025-09-14T08:03:32Z</time>
      </trkpt>
      <trkpt lat="45.69288" lon="3.47084">
        <ele>494.2</ele>
        <time>2025-09-14T08:03:33Z</time>
      </trkpt>
      <trkpt lat="45.69289" lon="3.47085">
        <ele>494.4</ele>
        <time>2025-09-14T08:03:34Z</time>
      </trkpt>
      <trkpt lat="45.6929" lon="3.47087">
        <ele>494.8</ele>
        <time>2025-09-14T08:03:35Z</time>
      </trkpt>
      <trkpt lat="45.69291" lon="3.47089">
        <ele>495</ele>
        <time>2025-09-14T08:03:36Z</time>
      </trkpt>
      <trkpt lat="45.69293" lon="3.47091">
        <ele>495.4</ele>
        <time>2025-09-14T08:03:37Z</time>
      </trkpt>
      <trkpt lat="45.69294" lon="3.47092">
        <ele>495.6</ele>
        <time>2025-09-14T08:03:38Z</time>
      </trkpt>
      <trkpt lat="45.69296" lon="3.47094">
        <ele>495.8</ele>
        <time>2025-09-14T08:03:39Z</time>
      </trkpt>
      <trkpt lat="45.69298" lon="3.47096">
        <ele>496.2</ele>
        <time>2025-09-14T08:03:40Z</time>
      </trkpt>
      <trkpt lat="45.69298" lon="3.47096">
        <ele>496.4</ele>
        <time>2025-09-14T08:03:41Z</time>
      </trkpt>
      <trkpt lat="45.69298" lon="3.47096">
        <ele>496.6</ele>
        <time>2025-09-14T08:03:42Z</time>
      </trkpt>
      <trkpt lat="45.69298" lon="3.47097">
        <ele>497</ele>
        <time>2025-09-14T08:03:43Z</time>
      </trkpt>
      <trkpt lat="45.69299" lon="3.47098">
        <ele>497.2</ele>
        <time>2025-09-14T08:03:44Z</time>
      </trkpt>
      <trkpt lat="45.69299" lon="3.47099">
        <ele>497.4</ele>
        <time>2025-09-14T08:03:45Z</time>
      </trkpt>
      <trkpt lat="45.69301" lon="3.471">
        <ele>497.6</ele>
        <time>2025-09-14T08:03:46Z</time>
      </trkpt>
      <trkpt lat="45.69302" lon="3.47101">
        <ele>497.8</ele>
        <time>2025-09-14T08:03:47Z</time>
      </trkpt>
      <trkpt lat="45.69303" lon="3.47102">
        <ele>498.2</ele>
        <time>2025-09-14T08:03:48Z</time>
      </trkpt>
      <trkpt lat="45.69305" lon="3.47103">
        <ele>498.4</ele>
        <time>2025-09-14T08:03:49Z</time>
      </trkpt>
      <trkpt lat="45.69307" lon="3.47106">
        <ele>498.6</ele>
        <time>2025-09-14T08:03:50Z</time>
      </trkpt>
      <trkpt lat="45.69309" lon="3.47109">
        <ele>498.8</ele>
        <time>2025-09-14T08:03:51Z</time>
      </trkpt>
      <trkpt lat="45.6931" lon="3.47109">
        <ele>498.8</ele>
        <time>2025-09-14T08:03:52Z</time>
      </trkpt>
      <trkpt lat="45.69312" lon="3.47111">
        <ele>499</ele>
        <time>2025-09-14T08:03:53Z</time>
      </trkpt>
      <trkpt lat="45.69316" lon="3.47114">
        <ele>499</ele>
        <time>2025-09-14T08:03:54Z</time>
      </trkpt>
      <trkpt lat="45.69319" lon="3.47116">
        <ele>499.2</ele>
        <time>2025-09-14T08:03:55Z</time>
      </trkpt>
      <trkpt lat="45.69321" lon="3.47118">
        <ele>499.2</ele>
        <time>2025-09-14T08:03:56Z</time>
      </trkpt>
      <trkpt lat="45.69324" lon="3.47119">
        <ele>499.4</ele>
        <time>2025-09-14T08:03:57Z</time>
      </trkpt>
      <trkpt lat="45.69326" lon="3.47122">
        <ele>499.6</ele>
        <time>2025-09-14T08:03:58Z</time>
      </trkpt>
      <trkpt lat="45.69328" lon="3.47124">
        <ele>499.6</ele>
        <time>2025-09-14T08:03:59Z</time>
      </trkpt>
      <trkpt lat="45.69329" lon="3.47126">
        <ele>499.8</ele>
        <time>2025-09-14T08:04:00Z</time>
      </trkpt>
      <trkpt lat="45.69331" lon="3.47129">
        <ele>500</ele>
        <time>2025-09-14T08:04:01Z</time>
      </trkpt>
      <trkpt lat="45.69334" lon="3.47132">
        <ele>500</ele>
        <time>2025-09-14T08:04:02Z</time>
      </trkpt>
      <trkpt lat="45.69335" lon="3.47134">
        <ele>500.2</ele>
        <time>2025-09-14T08:04:03Z</time>
      </trkpt>
      <trkpt lat="45.69336" lon="3.47136">
        <ele>500.4</ele>
        <time>2025-09-14T08:04:04Z</time>
      </trkpt>
      <trkpt lat="45.69338" lon="3.47139">
        <ele>500.4</ele>
        <time>2025-09-14T08:04:05Z</time>
      </trkpt>
      <trkpt lat="45.69339" lon="3.47142">
        <ele>500.6</ele>
        <time>2025-09-14T08:04:06Z</time>
      </trkpt>
      <trkpt lat="45.69341" lon="3.47145">
        <ele>500.6</ele>
        <time>2025-09-14T08:04:07Z</time>
      </trkpt>
      <trkpt lat="45.69344" lon="3.47148">
        <ele>500.8</ele>
        <time>2025-09-14T08:04:08Z</time>
      </trkpt>
      <trkpt lat="45.69345" lon="3.47151">
        <ele>501</ele>
        <time>2025-09-14T08:04:09Z</time>
      </trkpt>
      <trkpt lat="45.69346" lon="3.47155">
        <ele>501.4</ele>
        <time>2025-09-14T08:04:10Z</time>
      </trkpt>
      <trkpt lat="45.69347" lon="3.47158">
        <ele>501.4</ele>
        <time>2025-09-14T08:04:11Z</time>
      </trkpt>
      <trkpt lat="45.69349" lon="3.47159">
        <ele>501.6</ele>
        <time>2025-09-14T08:04:12Z</time>
      </trkpt>
      <trkpt lat="45.69349" lon="3.47161">
        <ele>501.8</ele>
        <time>2025-09-14T08:04:13Z</time>
      </trkpt>
      <trkpt lat="45.69351" lon="3.47163">
        <ele>502.2</ele>
        <time>2025-09-14T08:04:14Z</time>
      </trkpt>
      <trkpt lat="45.69353" lon="3.47166">
        <ele>502.4</ele>
        <time>2025-09-14T08:04:15Z</time>
      </trkpt>
      <trkpt lat="45.69354" lon="3.47169">
        <ele>502.6</ele>
        <time>2025-09-14T08:04:16Z</time>
      </trkpt>
      <trkpt lat="45.69355" lon="3.47172">
        <ele>502.8</ele>
        <time>2025-09-14T08:04:17Z</time>
      </trkpt>
      <trkpt lat="45.69356" lon="3.47175">
        <ele>503</ele>
        <time>2025-09-14T08:04:18Z</time>
      </trkpt>
      <trkpt lat="45.69357" lon="3.47178">
        <ele>503.2</ele>
        <time>2025-09-14T08:04:19Z</time>
      </trkpt>
      <trkpt lat="45.69357" lon="3.47181">
        <ele>503.6</ele>
        <time>2025-09-14T08:04:20Z</time>
      </trkpt>
      <trkpt lat="45.69358" lon="3.47185">
        <ele>503.8</ele>
        <time>2025-09-14T08:04:21Z</time>
      </trkpt>
      <trkpt lat="45.69359" lon="3.47189">
        <ele>504</ele>
        <time>2025-09-14T08:04:22Z</time>
      </trkpt>
      <trkpt lat="45.69359" lon="3.47193">
        <ele>504.4</ele>
        <time>2025-09-14T08:04:23Z</time>
      </trkpt>
      <trkpt lat="45.69358" lon="3.47196">
        <ele>504.6</ele>
        <time>2025-09-14T08:04:24Z</time>
      </trkpt>
      <trkpt lat="45.69358" lon="3.47202">
        <ele>505.2</ele>
        <time>2025-09-14T08:04:25Z</time>
      </trkpt>
      <trkpt lat="45.69358" lon="3.47204">
        <ele>505.6</ele>
        <time>2025-09-14T08:04:26Z</time>
      </trkpt>
      <trkpt lat="45.69357" lon="3.47206">
        <ele>506</ele>
        <time>2025-09-14T08:04:27Z</time>
      </trkpt>
      <trkpt lat="45.69356" lon="3.47209">
        <ele>506.2</ele>
        <time>2025-09-14T08:04:28Z</time>
      </trkpt>
      <trkpt lat="45.69356" lon="3.47212">
        <ele>506.6</ele>
        <time>2025-09-14T08:04:29Z</time>
      </trkpt>
      <trkpt lat="45.69357" lon="3.47215">
        <ele>507</ele>
        <time>2025-09-14T08:04:30Z</time>
      </trkpt>
      <trkpt lat="45.69357" lon="3.47218">
        <ele>507.2</ele>
        <time>2025-09-14T08:04:31Z</time>
      </trkpt>
      <trkpt lat="45.69356" lon="3.47222">
        <ele>507.4</ele>
        <time>2025-09-14T08:04:32Z</time>
      </trkpt>
      <trkpt lat="45.69356" lon="3.47224">
        <ele>507.8</ele>
        <time>2025-09-14T08:04:33Z</time>
      </trkpt>
      <trkpt lat="45.69357" lon="3.47226">
        <ele>508</ele>
        <time>2025-09-14T08:04:34Z</time>
      </trkpt>
      <trkpt lat="45.69357" lon="3.47229">
        <ele>508.4</ele>
        <time>2025-09-14T08:04:35Z</time>
      </trkpt>
      <trkpt lat="45.69355" lon="3.47233">
        <ele>508.6</ele>
        <time>2025-09-14T08:04:36Z</time>
      </trkpt>
      <trkpt lat="45.69355" lon="3.47236">
        <ele>509</ele>
        <time>2025-09-14T08:04:37Z</time>
      </trkpt>
      <trkpt lat="45.69356" lon="3.47239">
        <ele>509.6</ele>
        <time>2025-09-14T08:04:38Z</time>
      </trkpt>
      <trkpt lat="45.69358" lon="3.47242">
        <ele>509.8</ele>
        <time>2025-09-14T08:04:39Z</time>
      </trkpt>
      <trkpt lat="45.6936" lon="3.47244">
        <ele>510</ele>
        <time>2025-09-14T08:04:40Z</time>
      </trkpt>
      <trkpt lat="45.69363" lon="3.47246">
        <ele>510.2</ele>
        <time>2025-09-14T08:04:41Z</time>
      </trkpt>
      <trkpt lat="45.69364" lon="3.47248">
        <ele>510.2</ele>
        <time>2025-09-14T08:04:42Z</time>
      </trkpt>
      <trkpt lat="45.69364" lon="3.47249">
        <ele>510.2</ele>
        <time>2025-09-14T08:04:43Z</time>
      </trkpt>
      <trkpt lat="45.69363" lon="3.47249">
        <ele>510.2</ele>
        <time>2025-09-14T08:04:44Z</time>
      </trkpt>
      <trkpt lat="45.69362" lon="3.47249">
        <ele>510.2</ele>
        <time>2025-09-14T08:04:45Z</time>
      </trkpt>
      <trkpt lat="45.69367" lon="3.47248">
        <ele>510.4</ele>
        <time>2025-09-14T08:05:04Z</time>
      </trkpt>
      <trkpt lat="45.69369" lon="3.47248">
        <ele>510.6</ele>
        <time>2025-09-14T08:05:05Z</time>
      </trkpt>
      <trkpt lat="45.69371" lon="3.47247">
        <ele>510.6</ele>
        <time>2025-09-14T08:05:06Z</time>
      </trkpt>
      <trkpt lat="45.69373" lon="3.47247">
        <ele>510.6</ele>
        <time>2025-09-14T08:05:07Z</time>
      </trkpt>
      <trkpt lat="45.69374" lon="3.47246">
        <ele>510.6</ele>
        <time>2025-09-14T08:05:08Z</time>
      </trkpt>
      <trkpt lat="45.69376" lon="3.47245">
        <ele>510.6</ele>
        <time>2025-09-14T08:05:09Z</time>
      </trkpt>
      <trkpt lat="45.69378" lon="3.47244">
        <ele>510.6</ele>
        <time>2025-09-14T08:05:10Z</time>
      </trkpt>
      <trkpt lat="45.69381" lon="3.47244">
        <ele>510.8</ele>
        <time>2025-09-14T08:05:11Z</time>
      </trkpt>
      <trkpt lat="45.69384" lon="3.47244">
        <ele>510.8</ele>
        <time>2025-09-14T08:05:12Z</time>
      </trkpt>
      <trkpt lat="45.69386" lon="3.47243">
        <ele>510.8</ele>
        <time>2025-09-14T08:05:13Z</time>
      </trkpt>
      <trkpt lat="45.69388" lon="3.47242">
        <ele>510.8</ele>
        <time>2025-09-14T08:05:14Z</time>
      </trkpt>
      <trkpt lat="45.69391" lon="3.47241">
        <ele>510.8</ele>
        <time>2025-09-14T08:05:15Z</time>
      </trkpt>
      <trkpt lat="45.69394" lon="3.47241">
        <ele>510.8</ele>
        <time>2025-09-14T08:05:16Z</time>
      </trkpt>
      <trkpt lat="45.69396" lon="3.4724">
        <ele>511</ele>
        <time>2025-09-14T08:05:17Z</time>
      </trkpt>
      <trkpt lat="45.69398" lon="3.47239">
        <ele>511</ele>
        <time>2025-09-14T08:05:18Z</time>
      </trkpt>
      <trkpt lat="45.69402" lon="3.47237">
        <ele>511</ele>
        <time>2025-09-14T08:05:19Z</time>
      </trkpt>
      <trkpt lat="45.69405" lon="3.47235">
        <ele>511</ele>
        <time>2025-09-14T08:05:20Z</time>
      </trkpt>
      <trkpt lat="45.69407" lon="3.47234">
        <ele>511.2</ele>
        <time>2025-09-14T08:05:21Z</time>
      </trkpt>
      <trkpt lat="45.6941" lon="3.47233">
        <ele>511.2</ele>
        <time>2025-09-14T08:05:22Z</time>
      </trkpt>
      <trkpt lat="45.69412" lon="3.47231">
        <ele>511.4</ele>
        <time>2025-09-14T08:05:23Z</time>
      </trkpt>
      <trkpt lat="45.69415" lon="3.47228">
        <ele>511.4</ele>
        <time>2025-09-14T08:05:24Z</time>
      </trkpt>
      <trkpt lat="45.69418" lon="3.47225">
        <ele>511.4</ele>
        <time>2025-09-14T08:05:25Z</time>
      </trkpt>
      <trkpt lat="45.69422" lon="3.47223">
        <ele>511.6</ele>
        <time>2025-09-14T08:05:26Z</time>
      </trkpt>
      <trkpt lat="45.69426" lon="3.47221">
        <ele>511.6</ele>
        <time>2025-09-14T08:05:27Z</time>
      </trkpt>
      <trkpt lat="45.69429" lon="3.4722">
        <ele>511.6</ele>
        <time>2025-09-14T08:05:28Z</time>
      </trkpt>
      <trkpt lat="45.69432" lon="3.47218">
        <ele>511.6</ele>
        <time>2025-09-14T08:05:29Z</time>
      </trkpt>
      <trkpt lat="45.69434" lon="3.47216">
        <ele>511.8</ele>
        <time>2025-09-14T08:05:30Z</time>
      </trkpt>
      <trkpt lat="45.69436" lon="3.47215">
        <ele>511.8</ele>
        <time>2025-09-14T08:05:31Z</time>
      </trkpt>
      <trkpt lat="45.69439" lon="3.47212">
        <ele>511.8</ele>
        <time>2025-09-14T08:05:32Z</time>
      </trkpt>
      <trkpt lat="45.69443" lon="3.4721">
        <ele>511.8</ele>
        <time>2025-09-14T08:05:33Z</time>
      </trkpt>
      <trkpt lat="45.69446" lon="3.47207">
        <ele>512</ele>
        <time>2025-09-14T08:05:34Z</time>
      </trkpt>
      <trkpt lat="45.69451" lon="3.47203">
        <ele>512</ele>
        <time>2025-09-14T08:05:35Z</time>
      </trkpt>
      <trkpt lat="45.69456" lon="3.47199">
        <ele>512</ele>
        <time>2025-09-14T08:05:36Z</time>
      </trkpt>
      <trkpt lat="45.6946" lon="3.47196">
        <ele>512.2</ele>
        <time>2025-09-14T08:05:37Z</time>
      </trkpt>
      <trkpt lat="45.69463" lon="3.47192">
        <ele>512.2</ele>
        <time>2025-09-14T08:05:38Z</time>
      </trkpt>
      <trkpt lat="45.69467" lon="3.4719">
        <ele>512.2</ele>
        <time>2025-09-14T08:05:39Z</time>
      </trkpt>
      <trkpt lat="45.6947" lon="3.47189">
        <ele>512.2</ele>
        <time>2025-09-14T08:05:40Z</time>
      </trkpt>
      <trkpt lat="45.69474" lon="3.47188">
        <ele>512.4</ele>
        <time>2025-09-14T08:05:41Z</time>
      </trkpt>
      <trkpt lat="45.69476" lon="3.47186">
        <ele>512.4</ele>
        <time>2025-09-14T08:05:42Z</time>
      </trkpt>
      <trkpt lat="45.6948" lon="3.47185">
        <ele>512.6</ele>
        <time>2025-09-14T08:05:43Z</time>
      </trkpt>
      <trkpt lat="45.69484" lon="3.47183">
        <ele>512.6</ele>
        <time>2025-09-14T08:05:44Z</time>
      </trkpt>
      <trkpt lat="45.69487" lon="3.4718">
        <ele>512.6</ele>
        <time>2025-09-14T08:05:45Z</time>
      </trkpt>
      <trkpt lat="45.6949" lon="3.47177">
        <ele>512.6</ele>
        <time>2025-09-14T08:05:46Z</time>
      </trkpt>
      <trkpt lat="45.69492" lon="3.47173">
        <ele>512.8</ele>
        <time>2025-09-14T08:05:47Z</time>
      </trkpt>
      <trkpt lat="45.69496" lon="3.47169">
        <ele>512.8</ele>
        <time>2025-09-14T08:05:48Z</time>
      </trkpt>
      <trkpt lat="45.69502" lon="3.47166">
        <ele>512.8</ele>
        <time>2025-09-14T08:05:49Z</time>
      </trkpt>
      <trkpt lat="45.69507" lon="3.47163">
        <ele>512.8</ele>
        <time>2025-09-14T08:05:50Z</time>
      </trkpt>
      <trkpt lat="45.6951" lon="3.47161">
        <ele>513</ele>
        <time>2025-09-14T08:05:51Z</time>
      </trkpt>
      <trkpt lat="45.69513" lon="3.47158">
        <ele>513</ele>
        <time>2025-09-14T08:05:52Z</time>
      </trkpt>
      <trkpt lat="45.69516" lon="3.47156">
        <ele>513</ele>
        <time>2025-09-14T08:05:53Z</time>
      </trkpt>
      <trkpt lat="45.69519" lon="3.47154">
        <ele>513.2</ele>
        <time>2025-09-14T08:05:54Z</time>
      </trkpt>
      <trkpt lat="45.69522" lon="3.47151">
        <ele>513.2</ele>
        <time>2025-09-14T08:05:55Z</time>
      </trkpt>
      <trkpt lat="45.69525" lon="3.4715">
        <ele>513.4</ele>
        <time>2025-09-14T08:05:56Z</time>
      </trkpt>
      <trkpt lat="45.69529" lon="3.47148">
        <ele>513.4</ele>
        <time>2025-09-14T08:05:57Z</time>
      </trkpt>
      <trkpt lat="45.69533" lon="3.47147">
        <ele>513.6</ele>
        <time>2025-09-14T08:05:58Z</time>
      </trkpt>
      <trkpt lat="45.69536" lon="3.47146">
        <ele>513.6</ele>
        <time>2025-09-14T08:05:59Z</time>
      </trkpt>
      <trkpt lat="45.69539" lon="3.47144">
        <ele>513.6</ele>
        <time>2025-09-14T08:06:00Z</time>
      </trkpt>
      <trkpt lat="45.69543" lon="3.47143">
        <ele>513.6</ele>
        <time>2025-09-14T08:06:01Z</time>
      </trkpt>
      <trkpt lat="45.69546" lon="3.47143">
        <ele>513.6</ele>
        <time>2025-09-14T08:06:02Z</time>
      </trkpt>
      <trkpt lat="45.69549" lon="3.47141">
        <ele>513.8</ele>
        <time>2025-09-14T08:06:03Z</time>
      </trkpt>
      <trkpt lat="45.69552" lon="3.47139">
        <ele>514</ele>
        <time>2025-09-14T08:06:04Z</time>
      </trkpt>
      <trkpt lat="45.69555" lon="3.47136">
        <ele>514.2</ele>
        <time>2025-09-14T08:06:05Z</time>
      </trkpt>
      <trkpt lat="45.69557" lon="3.47133">
        <ele>514.2</ele>
        <time>2025-09-14T08:06:06Z</time>
      </trkpt>
      <trkpt lat="45.69558" lon="3.47129">
        <ele>514.2</ele>
        <time>2025-09-14T08:06:07Z</time>
      </trkpt>
      <trkpt lat="45.69559" lon="3.47125">
        <ele>514.4</ele>
        <time>2025-09-14T08:06:08Z</time>
      </trkpt>
      <trkpt lat="45.69559" lon="3.47122">
        <ele>514.4</ele>
        <time>2025-09-14T08:06:09Z</time>
      </trkpt>
      <trkpt lat="45.6956" lon="3.4712">
        <ele>514.4</ele>
        <time>2025-09-14T08:06:10Z</time>
      </trkpt>
      <trkpt lat="45.6956" lon="3.47118">
        <ele>514.4</ele>
        <time>2025-09-14T08:06:11Z</time>
      </trkpt>
      <trkpt lat="45.69561" lon="3.47116">
        <ele>514.4</ele>
        <time>2025-09-14T08:06:12Z</time>
      </trkpt>
      <trkpt lat="45.69563" lon="3.47113">
        <ele>514.6</ele>
        <time>2025-09-14T08:06:13Z</time>
      </trkpt>
      <trkpt lat="45.69564" lon="3.47111">
        <ele>514.6</ele>
        <time>2025-09-14T08:06:14Z</time>
      </trkpt>
      <trkpt lat="45.69565" lon="3.47108">
        <ele>514.8</ele>
        <time>2025-09-14T08:06:15Z</time>
      </trkpt>
      <trkpt lat="45.69567" lon="3.47105">
        <ele>515</ele>
        <time>2025-09-14T08:06:16Z</time>
      </trkpt>
      <trkpt lat="45.6957" lon="3.47103">
        <ele>515.2</ele>
        <time>2025-09-14T08:06:17Z</time>
      </trkpt>
      <trkpt lat="45.69571" lon="3.471">
        <ele>515.4</ele>
        <time>2025-09-14T08:06:18Z</time>
      </trkpt>
      <trkpt lat="45.69573" lon="3.47098">
        <ele>515.6</ele>
        <time>2025-09-14T08:06:19Z</time>
      </trkpt>
      <trkpt lat="45.69575" lon="3.47096">
        <ele>515.8</ele>
        <time>2025-09-14T08:06:20Z</time>
      </trkpt>
      <trkpt lat="45.69576" lon="3.47094">
        <ele>515.8</ele>
        <time>2025-09-14T08:06:21Z</time>
      </trkpt>
      <trkpt lat="45.69578" lon="3.47091">
        <ele>515.8</ele>
        <time>2025-09-14T08:06:22Z</time>
      </trkpt>
      <trkpt lat="45.6958" lon="3.47088">
        <ele>516</ele>
        <time>2025-09-14T08:06:23Z</time>
      </trkpt>
      <trkpt lat="45.69582" lon="3.47085">
        <ele>516.2</ele>
        <time>2025-09-14T08:06:24Z</time>
      </trkpt>
      <trkpt lat="45.69584" lon="3.47083">
        <ele>516.2</ele>
        <time>2025-09-14T08:06:25Z</time>
      </trkpt>
      <trkpt lat="45.69586" lon="3.4708">
        <ele>516.4</ele>
        <time>2025-09-14T08:06:26Z</time>
      </trkpt>
      <trkpt lat="45.69588" lon="3.47078">
        <ele>516.6</ele>
        <time>2025-09-14T08:06:27Z</time>
      </trkpt>
      <trkpt lat="45.6959" lon="3.47075">
        <ele>516.6</ele>
        <time>2025-09-14T08:06:28Z</time>
      </trkpt>
      <trkpt lat="45.69591" lon="3.47074">
        <ele>516.6</ele>
        <time>2025-09-14T08:06:29Z</time>
      </trkpt>
      <trkpt lat="45.69593" lon="3.47071">
        <ele>516.6</ele>
        <time>2025-09-14T08:06:30Z</time>
      </trkpt>
      <trkpt lat="45.69594" lon="3.47069">
        <ele>516.8</ele>
        <time>2025-09-14T08:06:31Z</time>
      </trkpt>
      <trkpt lat="45.69596" lon="3.47068">
        <ele>516.8</ele>
        <time>2025-09-14T08:06:32Z</time>
      </trkpt>
      <trkpt lat="45.69598" lon="3.47067">
        <ele>516.8</ele>
        <time>2025-09-14T08:06:33Z</time>
      </trkpt>
      <trkpt lat="45.696" lon="3.47066">
        <ele>516.8</ele>
        <time>2025-09-14T08:06:34Z</time>
      </trkpt>
      <trkpt lat="45.69601" lon="3.47065">
        <ele>516.8</ele>
        <time>2025-09-14T08:06:35Z</time>
      </trkpt>
      <trkpt lat="45.69602" lon="3.47065">
        <ele>516.8</ele>
        <time>2025-09-14T08:06:36Z</time>
      </trkpt>
      <trkpt lat="45.69603" lon="3.47063">
        <ele>517</ele>
        <time>2025-09-14T08:06:37Z</time>
      </trkpt>
      <trkpt lat="45.69604" lon="3.47062">
        <ele>517</ele>
        <time>2025-09-14T08:06:38Z</time>
      </trkpt>
      <trkpt lat="45.69605" lon="3.47061">
        <ele>517</ele>
        <time>2025-09-14T08:06:39Z</time>
      </trkpt>
      <trkpt lat="45.69605" lon="3.47061">
        <ele>517.2</ele>
        <time>2025-09-14T08:06:40Z</time>
      </trkpt>
      <trkpt lat="45.69605" lon="3.47059">
        <ele>517.2</ele>
        <time>2025-09-14T08:06:41Z</time>
      </trkpt>
      <trkpt lat="45.69606" lon="3.47058">
        <ele>517.2</ele>
        <time>2025-09-14T08:06:42Z</time>
      </trkpt>
      <trkpt lat="45.69607" lon="3.47057">
        <ele>517.4</ele>
        <time>2025-09-14T08:06:43Z</time>
      </trkpt>
      <trkpt lat="45.69607" lon="3.47056">
        <ele>517.4</ele>
        <time>2025-09-14T08:06:44Z</time>
      </trkpt>
      <trkpt lat="45.69609" lon="3.47054">
        <ele>517.6</ele>
        <time>2025-09-14T08:06:45Z</time>
      </trkpt>
      <trkpt lat="45.69611" lon="3.47052">
        <ele>517.6</ele>
        <time>2025-09-14T08:06:46Z</time>
      </trkpt>
      <trkpt lat="45.69613" lon="3.4705">
        <ele>517.8</ele>
        <time>2025-09-14T08:06:47Z</time>
      </trkpt>
      <trkpt lat="45.69614" lon="3.47047">
        <ele>517.8</ele>
        <time>2025-09-14T08:06:48Z</time>
      </trkpt>
      <trkpt lat="45.69616" lon="3.47045">
        <ele>517.8</ele>
        <time>2025-09-14T08:06:49Z</time>
      </trkpt>
      <trkpt lat="45.69618" lon="3.47043">
        <ele>518</ele>
        <time>2025-09-14T08:06:50Z</time>
      </trkpt>
      <trkpt lat="45.6962" lon="3.47041">
        <ele>518.2</ele>
        <time>2025-09-14T08:06:51Z</time>
      </trkpt>
      <trkpt lat="45.69621" lon="3.47039">
        <ele>518.2</ele>
        <time>2025-09-14T08:06:52Z</time>
      </trkpt>
      <trkpt lat="45.69622" lon="3.47038">
        <ele>518.4</ele>
        <time>2025-09-14T08:06:53Z</time>
      </trkpt>
      <trkpt lat="45.69623" lon="3.47036">
        <ele>518.4</ele>
        <time>2025-09-14T08:06:54Z</time>
      </trkpt>
      <trkpt lat="45.69624" lon="3.47034">
        <ele>518.4</ele>
        <time>2025-09-14T08:06:55Z</time>
      </trkpt>
      <trkpt lat="45.69626" lon="3.47033">
        <ele>518.6</ele>
        <time>2025-09-14T08:06:56Z</time>
      </trkpt>
      <trkpt lat="45.69626" lon="3.47033">
        <ele>518.6</ele>
        <time>2025-09-14T08:06:57Z</time>
      </trkpt>
      <trkpt lat="45.6963" lon="3.47029">
        <ele>518.6</ele>
        <time>2025-09-14T08:07:10Z</time>
      </trkpt>
      <trkpt lat="45.69632" lon="3.47028">
        <ele>518.6</ele>
        <time>2025-09-14T08:07:11Z</time>
      </trkpt>
      <trkpt lat="45.69633" lon="3.47027">
        <ele>518.6</ele>
        <time>2025-09-14T08:07:12Z</time>
      </trkpt>
      <trkpt lat="45.69634" lon="3.47026">
        <ele>518.6</ele>
        <time>2025-09-14T08:07:13Z</time>
      </trkpt>
      <trkpt lat="45.69635" lon="3.47025">
        <ele>518.6</ele>
        <time>2025-09-14T08:07:14Z</time>
      </trkpt>
      <trkpt lat="45.69636" lon="3.47024">
        <ele>518.8</ele>
        <time>2025-09-14T08:07:15Z</time>
      </trkpt>
      <trkpt lat="45.69637" lon="3.47023">
        <ele>518.8</ele>
        <time>2025-09-14T08:07:16Z</time>
      </trkpt>
      <trkpt lat="45.69638" lon="3.47022">
        <ele>518.8</ele>
        <time>2025-09-14T08:07:17Z</time>
      </trkpt>
      <trkpt lat="45.69639" lon="3.47021">
        <ele>518.8</ele>
        <time>2025-09-14T08:07:18Z</time>
      </trkpt>
      <trkpt lat="45.69641" lon="3.4702">
        <ele>518.8</ele>
        <time>2025-09-14T08:07:19Z</time>
      </trkpt>
      <trkpt lat="45.69642" lon="3.4702">
        <ele>518.8</ele>
        <time>2025-09-14T08:07:20Z</time>
      </trkpt>
      <trkpt lat="45.69644" lon="3.47019">
        <ele>518.8</ele>
        <time>2025-09-14T08:07:21Z</time>
      </trkpt>
      <trkpt lat="45.69645" lon="3.47019">
        <ele>518.8</ele>
        <time>2025-09-14T08:07:22Z</time>
      </trkpt>
      <trkpt lat="45.69646" lon="3.47018">
        <ele>518.8</ele>
        <time>2025-09-14T08:07:23Z</time>
      </trkpt>
      <trkpt lat="45.69647" lon="3.47016">
        <ele>519</ele>
        <time>2025-09-14T08:07:24Z</time>
      </trkpt>
      <trkpt lat="45.69648" lon="3.47015">
        <ele>519</ele>
        <time>2025-09-14T08:07:25Z</time>
      </trkpt>
      <trkpt lat="45.69649" lon="3.47013">
        <ele>519.2</ele>
        <time>2025-09-14T08:07:26Z</time>
      </trkpt>
      <trkpt lat="45.6965" lon="3.47011">
        <ele>519.4</ele>
        <time>2025-09-14T08:07:27Z</time>
      </trkpt>
      <trkpt lat="45.69651" lon="3.4701">
        <ele>519.6</ele>
        <time>2025-09-14T08:07:28Z</time>
      </trkpt>
      <trkpt lat="45.69652" lon="3.47007">
        <ele>519.8</ele>
        <time>2025-09-14T08:07:29Z</time>
      </trkpt>
      <trkpt lat="45.69653" lon="3.47005">
        <ele>519.8</ele>
        <time>2025-09-14T08:07:30Z</time>
      </trkpt>
      <trkpt lat="45.69653" lon="3.47004">
        <ele>520</ele>
        <time>2025-09-14T08:07:31Z</time>
      </trkpt>
      <trkpt lat="45.69654" lon="3.47004">
        <ele>519.8</ele>
        <time>2025-09-14T08:07:32Z</time>
      </trkpt>
      <trkpt lat="45.69654" lon="3.47004">
        <ele>519.8</ele>
        <time>2025-09-14T08:07:33Z</time>
      </trkpt>
      <trkpt lat="45.69654" lon="3.47004">
        <ele>519.8</ele>
        <time>2025-09-14T08:07:34Z</time>
      </trkpt>
      <trkpt lat="45.69654" lon="3.47004">
        <ele>519.8</ele>
        <time>2025-09-14T08:07:35Z</time>
      </trkpt>
      <trkpt lat="45.69654" lon="3.47004">
        <ele>519.8</ele>
        <time>2025-09-14T08:07:36Z</time>
      </trkpt>
      <trkpt lat="45.69654" lon="3.47004">
        <ele>519.8</ele>
        <time>2025-09-14T08:07:37Z</time>
      </trkpt>
      <trkpt lat="45.69655" lon="3.47003">
        <ele>519.6</ele>
        <time>2025-09-14T08:07:38Z</time>
      </trkpt>
      <trkpt lat="45.69656" lon="3.47002">
        <ele>519.8</ele>
        <time>2025-09-14T08:07:39Z</time>
      </trkpt>
      <trkpt lat="45.69658" lon="3.47001">
        <ele>519.8</ele>
        <time>2025-09-14T08:07:40Z</time>
      </trkpt>
      <trkpt lat="45.69658" lon="3.47">
        <ele>519.8</ele>
        <time>2025-09-14T08:07:41Z</time>
      </trkpt>
      <trkpt lat="45.69658" lon="3.47">
        <ele>519.8</ele>
        <time>2025-09-14T08:07:42Z</time>
      </trkpt>
      <trkpt lat="45.69658" lon="3.47">
        <ele>519.8</ele>
        <time>2025-09-14T08:07:43Z</time>
      </trkpt>
      <trkpt lat="45.69658" lon="3.47">
        <ele>519.8</ele>
        <time>2025-09-14T08:07:44Z</time>
      </trkpt>
      <trkpt lat="45.69659" lon="3.47">
        <ele>519.8</ele>
        <time>2025-09-14T08:07:45Z</time>
      </trkpt>
      <trkpt lat="45.69659" lon="3.46999">
        <ele>520</ele>
        <time>2025-09-14T08:07:46Z</time>
      </trkpt>
      <trkpt lat="45.69659" lon="3.46997">
        <ele>520</ele>
        <time>2025-09-14T08:07:47Z</time>
      </trkpt>
      <trkpt lat="45.69661" lon="3.46995">
        <ele>520.2</ele>
        <time>2025-09-14T08:07:48Z</time>
      </trkpt>
      <trkpt lat="45.69662" lon="3.46993">
        <ele>520.4</ele>
        <time>2025-09-14T08:07:49Z</time>
      </trkpt>
      <trkpt lat="45.69664" lon="3.46991">
        <ele>520.6</ele>
        <time>2025-09-14T08:07:50Z</time>
      </trkpt>
      <trkpt lat="45.69665" lon="3.46989">
        <ele>520.8</ele>
        <time>2025-09-14T08:07:51Z</time>
      </trkpt>
      <trkpt lat="45.69666" lon="3.46986">
        <ele>520.8</ele>
        <time>2025-09-14T08:07:52Z</time>
      </trkpt>
      <trkpt lat="45.69668" lon="3.46983">
        <ele>521</ele>
        <time>2025-09-14T08:07:53Z</time>
      </trkpt>
      <trkpt lat="45.69669" lon="3.46981">
        <ele>521</ele>
        <time>2025-09-14T08:07:54Z</time>
      </trkpt>
      <trkpt lat="45.6967" lon="3.4698">
        <ele>521</ele>
        <time>2025-09-14T08:07:55Z</time>
      </trkpt>
      <trkpt lat="45.69672" lon="3.46979">
        <ele>521</ele>
        <time>2025-09-14T08:07:56Z</time>
      </trkpt>
      <trkpt lat="45.69674" lon="3.46978">
        <ele>521.4</ele>
        <time>2025-09-14T08:07:57Z</time>
      </trkpt>
      <trkpt lat="45.69676" lon="3.46977">
        <ele>521.4</ele>
        <time>2025-09-14T08:07:58Z</time>
      </trkpt>
      <trkpt lat="45.69676" lon="3.46976">
        <ele>521.6</ele>
        <time>2025-09-14T08:07:59Z</time>
      </trkpt>
      <trkpt lat="45.69676" lon="3.46976">
        <ele>521.6</ele>
        <time>2025-09-14T08:08:00Z</time>
      </trkpt>
      <trkpt lat="45.69677" lon="3.46975">
        <ele>521.6</ele>
        <time>2025-09-14T08:08:01Z</time>
      </trkpt>
      <trkpt lat="45.69677" lon="3.46974">
        <ele>521.8</ele>
        <time>2025-09-14T08:08:02Z</time>
      </trkpt>
      <trkpt lat="45.69677" lon="3.46972">
        <ele>522</ele>
        <time>2025-09-14T08:08:03Z</time>
      </trkpt>
      <trkpt lat="45.69677" lon="3.46971">
        <ele>522</ele>
        <time>2025-09-14T08:08:04Z</time>
      </trkpt>
      <trkpt lat="45.69678" lon="3.4697">
        <ele>522.2</ele>
        <time>2025-09-14T08:08:05Z</time>
      </trkpt>
      <trkpt lat="45.69678" lon="3.46968">
        <ele>522.4</ele>
        <time>2025-09-14T08:08:06Z</time>
      </trkpt>
      <trkpt lat="45.69679" lon="3.46967">
        <ele>522.4</ele>
        <time>2025-09-14T08:08:07Z</time>
      </trkpt>
      <trkpt lat="45.69679" lon="3.46966">
        <ele>522.4</ele>
        <time>2025-09-14T08:08:08Z</time>
      </trkpt>
      <trkpt lat="45.69679" lon="3.46966">
        <ele>522.4</ele>
        <time>2025-09-14T08:08:09Z</time>
      </trkpt>
      <trkpt lat="45.69679" lon="3.46966">
        <ele>522.4</ele>
        <time>2025-09-14T08:08:10Z</time>
      </trkpt>
      <trkpt lat="45.69679" lon="3.46966">
        <ele>522.4</ele>
        <time>2025-09-14T08:08:11Z</time>
      </trkpt>
      <trkpt lat="45.69679" lon="3.46966">
        <ele>522.4</ele>
        <time>2025-09-14T08:08:12Z</time>
      </trkpt>
      <trkpt lat="45.69681" lon="3.46965">
        <ele>522.4</ele>
        <time>2025-09-14T08:08:13Z</time>
      </trkpt>
      <trkpt lat="45.69682" lon="3.46963">
        <ele>522.4</ele>
        <time>2025-09-14T08:08:14Z</time>
      </trkpt>
      <trkpt lat="45.69683" lon="3.4696">
        <ele>522.4</ele>
        <time>2025-09-14T08:08:15Z</time>
      </trkpt>
      <trkpt lat="45.69684" lon="3.46958">
        <ele>522.4</ele>
        <time>2025-09-14T08:08:16Z</time>
      </trkpt>
      <trkpt lat="45.69685" lon="3.46955">
        <ele>522.4</ele>
        <time>2025-09-14T08:08:17Z</time>
      </trkpt>
      <trkpt lat="45.69686" lon="3.46953">
        <ele>522.6</ele>
        <time>2025-09-14T08:08:18Z</time>
      </trkpt>
      <trkpt lat="45.69687" lon="3.4695">
        <ele>522.8</ele>
        <time>2025-09-14T08:08:19Z</time>
      </trkpt>
      <trkpt lat="45.69689" lon="3.46948">
        <ele>522.8</ele>
        <time>2025-09-14T08:08:20Z</time>
      </trkpt>
      <trkpt lat="45.6969" lon="3.46945">
        <ele>523</ele>
        <time>2025-09-14T08:08:21Z</time>
      </trkpt>
      <trkpt lat="45.69691" lon="3.46943">
        <ele>523.2</ele>
        <time>2025-09-14T08:08:22Z</time>
      </trkpt>
      <trkpt lat="45.69692" lon="3.4694">
        <ele>523.4</ele>
        <time>2025-09-14T08:08:23Z</time>
      </trkpt>
      <trkpt lat="45.69694" lon="3.46937">
        <ele>523.6</ele>
        <time>2025-09-14T08:08:24Z</time>
      </trkpt>
      <trkpt lat="45.69695" lon="3.46935">
        <ele>524</ele>
        <time>2025-09-14T08:08:25Z</time>
      </trkpt>
      <trkpt lat="45.69696" lon="3.46932">
        <ele>524.2</ele>
        <time>2025-09-14T08:08:26Z</time>
      </trkpt>
      <trkpt lat="45.69697" lon="3.4693">
        <ele>524.6</ele>
        <time>2025-09-14T08:08:27Z</time>
      </trkpt>
      <trkpt lat="45.69699" lon="3.46928">
        <ele>525</ele>
        <time>2025-09-14T08:08:28Z</time>
      </trkpt>
      <trkpt lat="45.697" lon="3.46925">
        <ele>525.2</ele>
        <time>2025-09-14T08:08:29Z</time>
      </trkpt>
      <trkpt lat="45.69701" lon="3.46922">
        <ele>525.4</ele>
        <time>2025-09-14T08:08:30Z</time>
      </trkpt>
      <trkpt lat="45.69702" lon="3.46919">
        <ele>525.8</ele>
        <time>2025-09-14T08:08:31Z</time>
      </trkpt>
      <trkpt lat="45.69703" lon="3.46916">
        <ele>526.2</ele>
        <time>2025-09-14T08:08:32Z</time>
      </trkpt>
      <trkpt lat="45.69705" lon="3.46913">
        <ele>526.6</ele>
        <time>2025-09-14T08:08:33Z</time>
      </trkpt>
      <trkpt lat="45.69707" lon="3.46909">
        <ele>527</ele>
        <time>2025-09-14T08:08:34Z</time>
      </trkpt>
      <trkpt lat="45.69708" lon="3.46906">
        <ele>527</ele>
        <time>2025-09-14T08:08:35Z</time>
      </trkpt>
      <trkpt lat="45.6971" lon="3.46902">
        <ele>527.2</ele>
        <time>2025-09-14T08:08:36Z</time>
      </trkpt>
      <trkpt lat="45.69712" lon="3.46899">
        <ele>527.4</ele>
        <time>2025-09-14T08:08:37Z</time>
      </trkpt>
      <trkpt lat="45.69714" lon="3.46895">
        <ele>527.6</ele>
        <time>2025-09-14T08:08:38Z</time>
      </trkpt>
      <trkpt lat="45.69715" lon="3.4689">
        <ele>527.6</ele>
        <time>2025-09-14T08:08:39Z</time>
      </trkpt>
      <trkpt lat="45.69718" lon="3.46885">
        <ele>527.8</ele>
        <time>2025-09-14T08:08:40Z</time>
      </trkpt>
      <trkpt lat="45.69719" lon="3.46882">
        <ele>528</ele>
        <time>2025-09-14T08:08:41Z</time>
      </trkpt>
      <trkpt lat="45.69719" lon="3.4688">
        <ele>528.2</ele>
        <time>2025-09-14T08:08:42Z</time>
      </trkpt>
      <trkpt lat="45.69721" lon="3.46878">
        <ele>528.4</ele>
        <time>2025-09-14T08:08:43Z</time>
      </trkpt>
      <trkpt lat="45.69722" lon="3.46874">
        <ele>528.4</ele>
        <time>2025-09-14T08:08:44Z</time>
      </trkpt>
      <trkpt lat="45.69724" lon="3.4687">
        <ele>528.6</ele>
        <time>2025-09-14T08:08:45Z</time>
      </trkpt>
      <trkpt lat="45.69726" lon="3.46865">
        <ele>528.6</ele>
        <time>2025-09-14T08:08:46Z</time>
      </trkpt>
      <trkpt lat="45.69728" lon="3.46862">
        <ele>528.8</ele>
        <time>2025-09-14T08:08:47Z</time>
      </trkpt>
      <trkpt lat="45.69729" lon="3.46858">
        <ele>529</ele>
        <time>2025-09-14T08:08:48Z</time>
      </trkpt>
      <trkpt lat="45.69731" lon="3.46854">
        <ele>529.2</ele>
        <time>2025-09-14T08:08:49Z</time>
      </trkpt>
      <trkpt lat="45.69733" lon="3.46851">
        <ele>529.4</ele>
        <time>2025-09-14T08:08:50Z</time>
      </trkpt>
      <trkpt lat="45.69734" lon="3.46848">
        <ele>529.6</ele>
        <time>2025-09-14T08:08:51Z</time>
      </trkpt>
      <trkpt lat="45.69735" lon="3.46844">
        <ele>529.8</ele>
        <time>2025-09-14T08:08:52Z</time>
      </trkpt>
      <trkpt lat="45.69735" lon="3.46839">
        <ele>530</ele>
        <time>2025-09-14T08:08:53Z</time>
      </trkpt>
      <trkpt lat="45.69736" lon="3.46834">
        <ele>530.2</ele>
        <time>2025-09-14T08:08:54Z</time>
      </trkpt>
      <trkpt lat="45.69737" lon="3.46831">
        <ele>530.4</ele>
        <time>2025-09-14T08:08:55Z</time>
      </trkpt>
      <trkpt lat="45.69739" lon="3.46828">
        <ele>530.4</ele>
        <time>2025-09-14T08:08:56Z</time>
      </trkpt>
      <trkpt lat="45.69741" lon="3.46826">
        <ele>530.6</ele>
        <time>2025-09-14T08:08:57Z</time>
      </trkpt>
      <trkpt lat="45.69742" lon="3.46824">
        <ele>530.6</ele>
        <time>2025-09-14T08:08:58Z</time>
      </trkpt>
      <trkpt lat="45.69743" lon="3.46822">
        <ele>530.8</ele>
        <time>2025-09-14T08:08:59Z</time>
      </trkpt>
      <trkpt lat="45.69744" lon="3.4682">
        <ele>530.8</ele>
        <time>2025-09-14T08:09:00Z</time>
      </trkpt>
      <trkpt lat="45.69745" lon="3.46818">
        <ele>531</ele>
        <time>2025-09-14T08:09:01Z</time>
      </trkpt>
      <trkpt lat="45.69747" lon="3.46815">
        <ele>531.2</ele>
        <time>2025-09-14T08:09:02Z</time>
      </trkpt>
      <trkpt lat="45.6975" lon="3.46812">
        <ele>531.2</ele>
        <time>2025-09-14T08:09:03Z</time>
      </trkpt>
      <trkpt lat="45.6975" lon="3.4681">
        <ele>531.4</ele>
        <time>2025-09-14T08:09:04Z</time>
      </trkpt>
      <trkpt lat="45.6975" lon="3.46809">
        <ele>531.4</ele>
        <time>2025-09-14T08:09:05Z</time>
      </trkpt>
      <trkpt lat="45.69751" lon="3.46807">
        <ele>531.4</ele>
        <time>2025-09-14T08:09:06Z</time>
      </trkpt>
      <trkpt lat="45.69751" lon="3.46806">
        <ele>531.4</ele>
        <time>2025-09-14T08:09:07Z</time>
      </trkpt>
      <trkpt lat="45.69751" lon="3.46805">
        <ele>531.6</ele>
        <time>2025-09-14T08:09:08Z</time>
      </trkpt>
      <trkpt lat="45.69751" lon="3.46803">
        <ele>531.8</ele>
        <time>2025-09-14T08:09:09Z</time>
      </trkpt>
      <trkpt lat="45.69751" lon="3.46802">
        <ele>531.8</ele>
        <time>2025-09-14T08:09:10Z</time>
      </trkpt>
      <trkpt lat="45.69751" lon="3.468">
        <ele>532</ele>
        <time>2025-09-14T08:09:11Z</time>
      </trkpt>
      <trkpt lat="45.69752" lon="3.46799">
        <ele>532</ele>
        <time>2025-09-14T08:09:12Z</time>
      </trkpt>
      <trkpt lat="45.69752" lon="3.46798">
        <ele>532</ele>
        <time>2025-09-14T08:09:13Z</time>
      </trkpt>
      <trkpt lat="45.69753" lon="3.46797">
        <ele>532.2</ele>
        <time>2025-09-14T08:09:14Z</time>
      </trkpt>
      <trkpt lat="45.69753" lon="3.46796">
        <ele>532.2</ele>
        <time>2025-09-14T08:09:15Z</time>
      </trkpt>
      <trkpt lat="45.69753" lon="3.46794">
        <ele>532.4</ele>
        <time>2025-09-14T08:09:16Z</time>
      </trkpt>
      <trkpt lat="45.69754" lon="3.46792">
        <ele>532.4</ele>
        <time>2025-09-14T08:09:17Z</time>
      </trkpt>
      <trkpt lat="45.69754" lon="3.46789">
        <ele>532.6</ele>
        <time>2025-09-14T08:09:18Z</time>
      </trkpt>
      <trkpt lat="45.69755" lon="3.46786">
        <ele>532.6</ele>
        <time>2025-09-14T08:09:19Z</time>
      </trkpt>
      <trkpt lat="45.69756" lon="3.46783">
        <ele>532.8</ele>
        <time>2025-09-14T08:09:20Z</time>
      </trkpt>
      <trkpt lat="45.69757" lon="3.4678">
        <ele>533</ele>
        <time>2025-09-14T08:09:21Z</time>
      </trkpt>
      <trkpt lat="45.69758" lon="3.46776">
        <ele>533</ele>
        <time>2025-09-14T08:09:22Z</time>
      </trkpt>
      <trkpt lat="45.69759" lon="3.46773">
        <ele>533.2</ele>
        <time>2025-09-14T08:09:23Z</time>
      </trkpt>
      <trkpt lat="45.6976" lon="3.4677">
        <ele>533.4</ele>
        <time>2025-09-14T08:09:24Z</time>
      </trkpt>
      <trkpt lat="45.69761" lon="3.46768">
        <ele>533.4</ele>
        <time>2025-09-14T08:09:25Z</time>
      </trkpt>
      <trkpt lat="45.69761" lon="3.46765">
        <ele>533.4</ele>
        <time>2025-09-14T08:09:26Z</time>
      </trkpt>
      <trkpt lat="45.69761" lon="3.46763">
        <ele>533.4</ele>
        <time>2025-09-14T08:09:27Z</time>
      </trkpt>
      <trkpt lat="45.69762" lon="3.4676">
        <ele>533.6</ele>
        <time>2025-09-14T08:09:28Z</time>
      </trkpt>
      <trkpt lat="45.69762" lon="3.46757">
        <ele>533.6</ele>
        <time>2025-09-14T08:09:29Z</time>
      </trkpt>
      <trkpt lat="45.69763" lon="3.46754">
        <ele>533.8</ele>
        <time>2025-09-14T08:09:30Z</time>
      </trkpt>
      <trkpt lat="45.69764" lon="3.46751">
        <ele>533.8</ele>
        <time>2025-09-14T08:09:31Z</time>
      </trkpt>
      <trkpt lat="45.69765" lon="3.46747">
        <ele>534</ele>
        <time>2025-09-14T08:09:32Z</time>
      </trkpt>
      <trkpt lat="45.69765" lon="3.46745">
        <ele>534</ele>
        <time>2025-09-14T08:09:33Z</time>
      </trkpt>
      <trkpt lat="45.69766" lon="3.46742">
        <ele>534</ele>
        <time>2025-09-14T08:09:34Z</time>
      </trkpt>
      <trkpt lat="45.69766" lon="3.4674">
        <ele>534</ele>
        <time>2025-09-14T08:09:35Z</time>
      </trkpt>
      <trkpt lat="45.69766" lon="3.46737">
        <ele>534.2</ele>
        <time>2025-09-14T08:09:36Z</time>
      </trkpt>
      <trkpt lat="45.69767" lon="3.46734">
        <ele>534.2</ele>
        <time>2025-09-14T08:09:37Z</time>
      </trkpt>
      <trkpt lat="45.69768" lon="3.4673">
        <ele>534.4</ele>
        <time>2025-09-14T08:09:38Z</time>
      </trkpt>
      <trkpt lat="45.69768" lon="3.46726">
        <ele>534.4</ele>
        <time>2025-09-14T08:09:39Z</time>
      </trkpt>
      <trkpt lat="45.69769" lon="3.46722">
        <ele>534.4</ele>
        <time>2025-09-14T08:09:40Z</time>
      </trkpt>
      <trkpt lat="45.6977" lon="3.46719">
        <ele>534.4</ele>
        <time>2025-09-14T08:09:41Z</time>
      </trkpt>
      <trkpt lat="45.6977" lon="3.46716">
        <ele>534.4</ele>
        <time>2025-09-14T08:09:42Z</time>
      </trkpt>
      <trkpt lat="45.6977" lon="3.46712">
        <ele>534.4</ele>
        <time>2025-09-14T08:09:43Z</time>
      </trkpt>
      <trkpt lat="45.6977" lon="3.46709">
        <ele>534.6</ele>
        <time>2025-09-14T08:09:44Z</time>
      </trkpt>
      <trkpt lat="45.6977" lon="3.46706">
        <ele>534.6</ele>
        <time>2025-09-14T08:09:45Z</time>
      </trkpt>
      <trkpt lat="45.6977" lon="3.46703">
        <ele>534.6</ele>
        <time>2025-09-14T08:09:46Z</time>
      </trkpt>
      <trkpt lat="45.6977" lon="3.467">
        <ele>534.6</ele>
        <time>2025-09-14T08:09:47Z</time>
      </trkpt>
      <trkpt lat="45.6977" lon="3.46697">
        <ele>534.8</ele>
        <time>2025-09-14T08:09:48Z</time>
      </trkpt>
      <trkpt lat="45.6977" lon="3.46694">
        <ele>534.8</ele>
        <time>2025-09-14T08:09:49Z</time>
      </trkpt>
      <trkpt lat="45.6977" lon="3.46691">
        <ele>534.8</ele>
        <time>2025-09-14T08:09:50Z</time>
      </trkpt>
      <trkpt lat="45.69769" lon="3.46688">
        <ele>535</ele>
        <time>2025-09-14T08:09:51Z</time>
      </trkpt>
      <trkpt lat="45.69769" lon="3.46685">
        <ele>535</ele>
        <time>2025-09-14T08:09:52Z</time>
      </trkpt>
      <trkpt lat="45.69769" lon="3.46682">
        <ele>535.2</ele>
        <time>2025-09-14T08:09:53Z</time>
      </trkpt>
      <trkpt lat="45.69769" lon="3.46679">
        <ele>535.2</ele>
        <time>2025-09-14T08:09:54Z</time>
      </trkpt>
      <trkpt lat="45.69769" lon="3.46676">
        <ele>535.2</ele>
        <time>2025-09-14T08:09:55Z</time>
      </trkpt>
      <trkpt lat="45.69768" lon="3.46673">
        <ele>535.2</ele>
        <time>2025-09-14T08:09:56Z</time>
      </trkpt>
      <trkpt lat="45.69768" lon="3.4667">
        <ele>535.2</ele>
        <time>2025-09-14T08:09:57Z</time>
      </trkpt>
      <trkpt lat="45.69768" lon="3.46667">
        <ele>535.2</ele>
        <time>2025-09-14T08:09:58Z</time>
      </trkpt>
      <trkpt lat="45.69767" lon="3.46665">
        <ele>535.4</ele>
        <time>2025-09-14T08:09:59Z</time>
      </trkpt>
      <trkpt lat="45.69767" lon="3.46661">
        <ele>535.4</ele>
        <time>2025-09-14T08:10:00Z</time>
      </trkpt>
      <trkpt lat="45.69766" lon="3.46658">
        <ele>535.4</ele>
        <time>2025-09-14T08:10:01Z</time>
      </trkpt>
      <trkpt lat="45.69766" lon="3.46655">
        <ele>535.6</ele>
        <time>2025-09-14T08:10:02Z</time>
      </trkpt>
      <trkpt lat="45.69765" lon="3.46652">
        <ele>535.6</ele>
        <time>2025-09-14T08:10:03Z</time>
      </trkpt>
      <trkpt lat="45.69765" lon="3.4665">
        <ele>535.6</ele>
        <time>2025-09-14T08:10:04Z</time>
      </trkpt>
      <trkpt lat="45.69765" lon="3.46647">
        <ele>535.8</ele>
        <time>2025-09-14T08:10:05Z</time>
      </trkpt>
      <trkpt lat="45.69764" lon="3.46644">
        <ele>535.8</ele>
        <time>2025-09-14T08:10:06Z</time>
      </trkpt>
      <trkpt lat="45.69764" lon="3.46641">
        <ele>535.8</ele>
        <time>2025-09-14T08:10:07Z</time>
      </trkpt>
      <trkpt lat="45.69764" lon="3.46638">
        <ele>536.2</ele>
        <time>2025-09-14T08:10:08Z</time>
      </trkpt>
      <trkpt lat="45.69764" lon="3.46636">
        <ele>538.4</ele>
        <time>2025-09-14T08:10:16Z</time>
      </trkpt>
      <trkpt lat="45.69764" lon="3.46634">
        <ele>538.6</ele>
        <time>2025-09-14T08:10:17Z</time>
      </trkpt>
      <trkpt lat="45.69763" lon="3.46631">
        <ele>538.8</ele>
        <time>2025-09-14T08:10:18Z</time>
      </trkpt>
      <trkpt lat="45.69763" lon="3.46628">
        <ele>539</ele>
        <time>2025-09-14T08:10:19Z</time>
      </trkpt>
      <trkpt lat="45.69762" lon="3.46624">
        <ele>539.2</ele>
        <time>2025-09-14T08:10:20Z</time>
      </trkpt>
      <trkpt lat="45.6976" lon="3.46619">
        <ele>539.2</ele>
        <time>2025-09-14T08:10:21Z</time>
      </trkpt>
      <trkpt lat="45.69759" lon="3.46615">
        <ele>539.4</ele>
        <time>2025-09-14T08:10:22Z</time>
      </trkpt>
      <trkpt lat="45.69758" lon="3.4661">
        <ele>539.6</ele>
        <time>2025-09-14T08:10:23Z</time>
      </trkpt>
      <trkpt lat="45.69757" lon="3.46606">
        <ele>539.8</ele>
        <time>2025-09-14T08:10:24Z</time>
      </trkpt>
      <trkpt lat="45.69756" lon="3.46602">
        <ele>540</ele>
        <time>2025-09-14T08:10:25Z</time>
      </trkpt>
      <trkpt lat="45.69755" lon="3.46598">
        <ele>540.2</ele>
        <time>2025-09-14T08:10:26Z</time>
      </trkpt>
      <trkpt lat="45.69755" lon="3.46595">
        <ele>540.4</ele>
        <time>2025-09-14T08:10:27Z</time>
      </trkpt>
      <trkpt lat="45.69754" lon="3.46592">
        <ele>540.4</ele>
        <time>2025-09-14T08:10:28Z</time>
      </trkpt>
      <trkpt lat="45.69754" lon="3.46591">
        <ele>540.6</ele>
        <time>2025-09-14T08:10:29Z</time>
      </trkpt>
      <trkpt lat="45.69754" lon="3.46591">
        <ele>540.8</ele>
        <time>2025-09-14T08:10:30Z</time>
      </trkpt>
      <trkpt lat="45.69755" lon="3.4659">
        <ele>541.4</ele>
        <time>2025-09-14T08:10:31Z</time>
      </trkpt>
      <trkpt lat="45.69755" lon="3.4659">
        <ele>541.8</ele>
        <time>2025-09-14T08:10:32Z</time>
      </trkpt>
      <trkpt lat="45.69755" lon="3.4659">
        <ele>542</ele>
        <time>2025-09-14T08:10:33Z</time>
      </trkpt>
      <trkpt lat="45.69756" lon="3.46589">
        <ele>542.8</ele>
        <time>2025-09-14T08:10:49Z</time>
      </trkpt>
      <trkpt lat="45.69757" lon="3.46587">
        <ele>542.8</ele>
        <time>2025-09-14T08:10:50Z</time>
      </trkpt>
      <trkpt lat="45.69758" lon="3.46585">
        <ele>542.8</ele>
        <time>2025-09-14T08:10:51Z</time>
      </trkpt>
      <trkpt lat="45.69758" lon="3.46585">
        <ele>542.8</ele>
        <time>2025-09-14T08:10:52Z</time>
      </trkpt>
      <trkpt lat="45.69758" lon="3.46585">
        <ele>543</ele>
        <time>2025-09-14T08:10:53Z</time>
      </trkpt>
      <trkpt lat="45.69758" lon="3.46585">
        <ele>543</ele>
        <time>2025-09-14T08:10:54Z</time>
      </trkpt>
      <trkpt lat="45.69758" lon="3.46585">
        <ele>543</ele>
        <time>2025-09-14T08:10:55Z</time>
      </trkpt>
      <trkpt lat="45.69759" lon="3.46583">
        <ele>543.2</ele>
        <time>2025-09-14T08:10:56Z</time>
      </trkpt>
      <trkpt lat="45.69761" lon="3.46582">
        <ele>543.4</ele>
        <time>2025-09-14T08:10:57Z</time>
      </trkpt>
      <trkpt lat="45.69762" lon="3.4658">
        <ele>543.6</ele>
        <time>2025-09-14T08:10:58Z</time>
      </trkpt>
      <trkpt lat="45.69762" lon="3.46578">
        <ele>543.6</ele>
        <time>2025-09-14T08:10:59Z</time>
      </trkpt>
      <trkpt lat="45.69763" lon="3.46576">
        <ele>543.8</ele>
        <time>2025-09-14T08:11:00Z</time>
      </trkpt>
      <trkpt lat="45.69764" lon="3.46574">
        <ele>544</ele>
        <time>2025-09-14T08:11:01Z</time>
      </trkpt>
      <trkpt lat="45.69764" lon="3.46571">
        <ele>544.2</ele>
        <time>2025-09-14T08:11:02Z</time>
      </trkpt>
      <trkpt lat="45.69765" lon="3.46568">
        <ele>544.6</ele>
        <time>2025-09-14T08:11:03Z</time>
      </trkpt>
      <trkpt lat="45.69766" lon="3.46564">
        <ele>545</ele>
        <time>2025-09-14T08:11:04Z</time>
      </trkpt>
      <trkpt lat="45.69767" lon="3.46561">
        <ele>545.6</ele>
        <time>2025-09-14T08:11:05Z</time>
      </trkpt>
      <trkpt lat="45.69767" lon="3.46557">
        <ele>545.8</ele>
        <time>2025-09-14T08:11:06Z</time>
      </trkpt>
      <trkpt lat="45.69767" lon="3.46553">
        <ele>546.2</ele>
        <time>2025-09-14T08:11:07Z</time>
      </trkpt>
      <trkpt lat="45.69768" lon="3.46548">
        <ele>546.8</ele>
        <time>2025-09-14T08:11:08Z</time>
      </trkpt>
      <trkpt lat="45.69769" lon="3.46544">
        <ele>547.4</ele>
        <time>2025-09-14T08:11:09Z</time>
      </trkpt>
      <trkpt lat="45.69771" lon="3.4654">
        <ele>548</ele>
        <time>2025-09-14T08:11:10Z</time>
      </trkpt>
      <trkpt lat="45.69771" lon="3.46536">
        <ele>548.6</ele>
        <time>2025-09-14T08:11:11Z</time>
      </trkpt>
      <trkpt lat="45.69773" lon="3.46532">
        <ele>549</ele>
        <time>2025-09-14T08:11:12Z</time>
      </trkpt>
      <trkpt lat="45.69774" lon="3.46528">
        <ele>549.4</ele>
        <time>2025-09-14T08:11:13Z</time>
      </trkpt>
      <trkpt lat="45.69775" lon="3.46524">
        <ele>549.8</ele>
        <time>2025-09-14T08:11:14Z</time>
      </trkpt>
      <trkpt lat="45.69776" lon="3.46519">
        <ele>550.4</ele>
        <time>2025-09-14T08:11:15Z</time>
      </trkpt>
      <trkpt lat="45.69776" lon="3.46515">
        <ele>550.8</ele>
        <time>2025-09-14T08:11:16Z</time>
      </trkpt>
      <trkpt lat="45.69777" lon="3.46511">
        <ele>551.6</ele>
        <time>2025-09-14T08:11:17Z</time>
      </trkpt>
      <trkpt lat="45.69778" lon="3.46507">
        <ele>552.2</ele>
        <time>2025-09-14T08:11:18Z</time>
      </trkpt>
      <trkpt lat="45.69779" lon="3.46502">
        <ele>552.6</ele>
        <time>2025-09-14T08:11:19Z</time>
      </trkpt>
      <trkpt lat="45.6978" lon="3.46498">
        <ele>553</ele>
        <time>2025-09-14T08:11:20Z</time>
      </trkpt>
      <trkpt lat="45.6978" lon="3.46493">
        <ele>553.4</ele>
        <time>2025-09-14T08:11:21Z</time>
      </trkpt>
      <trkpt lat="45.69781" lon="3.46489">
        <ele>554</ele>
        <time>2025-09-14T08:11:22Z</time>
      </trkpt>
      <trkpt lat="45.69782" lon="3.46484">
        <ele>554.4</ele>
        <time>2025-09-14T08:11:23Z</time>
      </trkpt>
      <trkpt lat="45.69783" lon="3.4648">
        <ele>554.8</ele>
        <time>2025-09-14T08:11:24Z</time>
      </trkpt>
      <trkpt lat="45.69784" lon="3.46476">
        <ele>555.6</ele>
        <time>2025-09-14T08:11:25Z</time>
      </trkpt>
      <trkpt lat="45.69784" lon="3.46472">
        <ele>556.4</ele>
        <time>2025-09-14T08:11:26Z</time>
      </trkpt>
      <trkpt lat="45.69784" lon="3.46468">
        <ele>556.8</ele>
        <time>2025-09-14T08:11:27Z</time>
      </trkpt>
      <trkpt lat="45.69784" lon="3.46464">
        <ele>557.6</ele>
        <time>2025-09-14T08:11:28Z</time>
      </trkpt>
      <trkpt lat="45.69783" lon="3.46459">
        <ele>558</ele>
        <time>2025-09-14T08:11:29Z</time>
      </trkpt>
      <trkpt lat="45.69782" lon="3.46454">
        <ele>558.6</ele>
        <time>2025-09-14T08:11:30Z</time>
      </trkpt>
      <trkpt lat="45.69781" lon="3.46449">
        <ele>559.2</ele>
        <time>2025-09-14T08:11:31Z</time>
      </trkpt>
      <trkpt lat="45.69781" lon="3.46444">
        <ele>559.6</ele>
        <time>2025-09-14T08:11:32Z</time>
      </trkpt>
      <trkpt lat="45.69781" lon="3.4644">
        <ele>560</ele>
        <time>2025-09-14T08:11:33Z</time>
      </trkpt>
      <trkpt lat="45.69782" lon="3.46435">
        <ele>560.6</ele>
        <time>2025-09-14T08:11:34Z</time>
      </trkpt>
      <trkpt lat="45.69783" lon="3.46431">
        <ele>561.2</ele>
        <time>2025-09-14T08:11:35Z</time>
      </trkpt>
      <trkpt lat="45.69783" lon="3.46426">
        <ele>561.4</ele>
        <time>2025-09-14T08:11:36Z</time>
      </trkpt>
      <trkpt lat="45.69784" lon="3.46423">
        <ele>561.8</ele>
        <time>2025-09-14T08:11:37Z</time>
      </trkpt>
      <trkpt lat="45.69784" lon="3.4642">
        <ele>562</ele>
        <time>2025-09-14T08:11:38Z</time>
      </trkpt>
      <trkpt lat="45.69784" lon="3.46416">
        <ele>562.2</ele>
        <time>2025-09-14T08:11:39Z</time>
      </trkpt>
      <trkpt lat="45.69784" lon="3.46414">
        <ele>562.4</ele>
        <time>2025-09-14T08:11:40Z</time>
      </trkpt>
      <trkpt lat="45.69785" lon="3.46411">
        <ele>562.6</ele>
        <time>2025-09-14T08:11:41Z</time>
      </trkpt>
      <trkpt lat="45.69785" lon="3.46408">
        <ele>562.8</ele>
        <time>2025-09-14T08:11:42Z</time>
      </trkpt>
      <trkpt lat="45.69785" lon="3.46406">
        <ele>563</ele>
        <time>2025-09-14T08:11:43Z</time>
      </trkpt>
      <trkpt lat="45.69786" lon="3.46403">
        <ele>563.2</ele>
        <time>2025-09-14T08:11:44Z</time>
      </trkpt>
      <trkpt lat="45.69786" lon="3.464">
        <ele>563.6</ele>
        <time>2025-09-14T08:11:45Z</time>
      </trkpt>
      <trkpt lat="45.69786" lon="3.46398">
        <ele>563.8</ele>
        <time>2025-09-14T08:11:46Z</time>
      </trkpt>
      <trkpt lat="45.69786" lon="3.46396">
        <ele>564</ele>
        <time>2025-09-14T08:11:47Z</time>
      </trkpt>
      <trkpt lat="45.69786" lon="3.46393">
        <ele>564.4</ele>
        <time>2025-09-14T08:11:48Z</time>
      </trkpt>
      <trkpt lat="45.69786" lon="3.46391">
        <ele>564.6</ele>
        <time>2025-09-14T08:11:49Z</time>
      </trkpt>
      <trkpt lat="45.69786" lon="3.46388">
        <ele>565</ele>
        <time>2025-09-14T08:11:50Z</time>
      </trkpt>
      <trkpt lat="45.69786" lon="3.46386">
        <ele>565.2</ele>
        <time>2025-09-14T08:11:51Z</time>
      </trkpt>
      <trkpt lat="45.69786" lon="3.46384">
        <ele>565.4</ele>
        <time>2025-09-14T08:11:52Z</time>
      </trkpt>
      <trkpt lat="45.69786" lon="3.46381">
        <ele>566</ele>
        <time>2025-09-14T08:11:53Z</time>
      </trkpt>
      <trkpt lat="45.69787" lon="3.46378">
        <ele>566.4</ele>
        <time>2025-09-14T08:11:54Z</time>
      </trkpt>
      <trkpt lat="45.69787" lon="3.46375">
        <ele>566.6</ele>
        <time>2025-09-14T08:11:55Z</time>
      </trkpt>
      <trkpt lat="45.69787" lon="3.46373">
        <ele>566.8</ele>
        <time>2025-09-14T08:11:56Z</time>
      </trkpt>
      <trkpt lat="45.69787" lon="3.46369">
        <ele>567</ele>
        <time>2025-09-14T08:11:57Z</time>
      </trkpt>
      <trkpt lat="45.69787" lon="3.46366">
        <ele>567.2</ele>
        <time>2025-09-14T08:11:58Z</time>
      </trkpt>
      <trkpt lat="45.69787" lon="3.46363">
        <ele>567.4</ele>
        <time>2025-09-14T08:11:59Z</time>
      </trkpt>
      <trkpt lat="45.69787" lon="3.46361">
        <ele>567.6</ele>
        <time>2025-09-14T08:12:00Z</time>
      </trkpt>
      <trkpt lat="45.69788" lon="3.46358">
        <ele>567.8</ele>
        <time>2025-09-14T08:12:01Z</time>
      </trkpt>
      <trkpt lat="45.69788" lon="3.46355">
        <ele>568</ele>
        <time>2025-09-14T08:12:02Z</time>
      </trkpt>
      <trkpt lat="45.69788" lon="3.46352">
        <ele>568.2</ele>
        <time>2025-09-14T08:12:03Z</time>
      </trkpt>
      <trkpt lat="45.69788" lon="3.46349">
        <ele>568.4</ele>
        <time>2025-09-14T08:12:04Z</time>
      </trkpt>
      <trkpt lat="45.69788" lon="3.46346">
        <ele>568.4</ele>
        <time>2025-09-14T08:12:05Z</time>
      </trkpt>
      <trkpt lat="45.69788" lon="3.46343">
        <ele>568.6</ele>
        <time>2025-09-14T08:12:06Z</time>
      </trkpt>
      <trkpt lat="45.69788" lon="3.46341">
        <ele>568.8</ele>
        <time>2025-09-14T08:12:07Z</time>
      </trkpt>
      <trkpt lat="45.69788" lon="3.46338">
        <ele>569</ele>
        <time>2025-09-14T08:12:08Z</time>
      </trkpt>
      <trkpt lat="45.69788" lon="3.46335">
        <ele>569.2</ele>
        <time>2025-09-14T08:12:09Z</time>
      </trkpt>
      <trkpt lat="45.69788" lon="3.46332">
        <ele>569.2</ele>
        <time>2025-09-14T08:12:10Z</time>
      </trkpt>
      <trkpt lat="45.69788" lon="3.4633">
        <ele>569.4</ele>
        <time>2025-09-14T08:12:11Z</time>
      </trkpt>
      <trkpt lat="45.69789" lon="3.46327">
        <ele>569.6</ele>
        <time>2025-09-14T08:12:12Z</time>
      </trkpt>
      <trkpt lat="45.69789" lon="3.46324">
        <ele>569.6</ele>
        <time>2025-09-14T08:12:13Z</time>
      </trkpt>
      <trkpt lat="45.6979" lon="3.46321">
        <ele>569.8</ele>
        <time>2025-09-14T08:12:14Z</time>
      </trkpt>
      <trkpt lat="45.6979" lon="3.46318">
        <ele>570</ele>
        <time>2025-09-14T08:12:15Z</time>
      </trkpt>
      <trkpt lat="45.6979" lon="3.46315">
        <ele>570.2</ele>
        <time>2025-09-14T08:12:16Z</time>
      </trkpt>
      <trkpt lat="45.69791" lon="3.46311">
        <ele>570.4</ele>
        <time>2025-09-14T08:12:17Z</time>
      </trkpt>
      <trkpt lat="45.69791" lon="3.46308">
        <ele>570.6</ele>
        <time>2025-09-14T08:12:18Z</time>
      </trkpt>
      <trkpt lat="45.69791" lon="3.46305">
        <ele>570.8</ele>
        <time>2025-09-14T08:12:19Z</time>
      </trkpt>
      <trkpt lat="45.69791" lon="3.46302">
        <ele>571</ele>
        <time>2025-09-14T08:12:20Z</time>
      </trkpt>
      <trkpt lat="45.69791" lon="3.46298">
        <ele>571.2</ele>
        <time>2025-09-14T08:12:21Z</time>
      </trkpt>
      <trkpt lat="45.69792" lon="3.46295">
        <ele>571.2</ele>
        <time>2025-09-14T08:12:22Z</time>
      </trkpt>
      <trkpt lat="45.69792" lon="3.46291">
        <ele>571.2</ele>
        <time>2025-09-14T08:12:23Z</time>
      </trkpt>
      <trkpt lat="45.69793" lon="3.46288">
        <ele>571.4</ele>
        <time>2025-09-14T08:12:24Z</time>
      </trkpt>
      <trkpt lat="45.69793" lon="3.46284">
        <ele>571.6</ele>
        <time>2025-09-14T08:12:25Z</time>
      </trkpt>
      <trkpt lat="45.69793" lon="3.4628">
        <ele>571.8</ele>
        <time>2025-09-14T08:12:26Z</time>
      </trkpt>
      <trkpt lat="45.69793" lon="3.46277">
        <ele>572</ele>
        <time>2025-09-14T08:12:27Z</time>
      </trkpt>
      <trkpt lat="45.69793" lon="3.46273">
        <ele>572</ele>
        <time>2025-09-14T08:12:28Z</time>
      </trkpt>
      <trkpt lat="45.69793" lon="3.46269">
        <ele>572</ele>
        <time>2025-09-14T08:12:29Z</time>
      </trkpt>
      <trkpt lat="45.69793" lon="3.46265">
        <ele>572.2</ele>
        <time>2025-09-14T08:12:30Z</time>
      </trkpt>
      <trkpt lat="45.69793" lon="3.46261">
        <ele>572.2</ele>
        <time>2025-09-14T08:12:31Z</time>
      </trkpt>
      <trkpt lat="45.69794" lon="3.46257">
        <ele>572.2</ele>
        <time>2025-09-14T08:12:32Z</time>
      </trkpt>
      <trkpt lat="45.69794" lon="3.46252">
        <ele>572.2</ele>
        <time>2025-09-14T08:12:33Z</time>
      </trkpt>
      <trkpt lat="45.69795" lon="3.46248">
        <ele>572.2</ele>
        <time>2025-09-14T08:12:34Z</time>
      </trkpt>
      <trkpt lat="45.69795" lon="3.46243">
        <ele>572.2</ele>
        <time>2025-09-14T08:12:35Z</time>
      </trkpt>
      <trkpt lat="45.69795" lon="3.46239">
        <ele>572.2</ele>
        <time>2025-09-14T08:12:36Z</time>
      </trkpt>
      <trkpt lat="45.69795" lon="3.46234">
        <ele>572</ele>
        <time>2025-09-14T08:12:37Z</time>
      </trkpt>
      <trkpt lat="45.69795" lon="3.46229">
        <ele>572</ele>
        <time>2025-09-14T08:12:38Z</time>
      </trkpt>
      <trkpt lat="45.69795" lon="3.46225">
        <ele>571.8</ele>
        <time>2025-09-14T08:12:39Z</time>
      </trkpt>
      <trkpt lat="45.69795" lon="3.4622">
        <ele>571.8</ele>
        <time>2025-09-14T08:12:40Z</time>
      </trkpt>
      <trkpt lat="45.69796" lon="3.46215">
        <ele>571.6</ele>
        <time>2025-09-14T08:12:41Z</time>
      </trkpt>
      <trkpt lat="45.69796" lon="3.4621">
        <ele>571.6</ele>
        <time>2025-09-14T08:12:42Z</time>
      </trkpt>
      <trkpt lat="45.69796" lon="3.46205">
        <ele>571.6</ele>
        <time>2025-09-14T08:12:43Z</time>
      </trkpt>
      <trkpt lat="45.69797" lon="3.462">
        <ele>571.6</ele>
        <time>2025-09-14T08:12:44Z</time>
      </trkpt>
      <trkpt lat="45.69797" lon="3.46194">
        <ele>571.4</ele>
        <time>2025-09-14T08:12:45Z</time>
      </trkpt>
      <trkpt lat="45.69798" lon="3.46188">
        <ele>571.4</ele>
        <time>2025-09-14T08:12:46Z</time>
      </trkpt>
      <trkpt lat="45.69798" lon="3.46183">
        <ele>571.2</ele>
        <time>2025-09-14T08:12:47Z</time>
      </trkpt>
      <trkpt lat="45.69799" lon="3.46177">
        <ele>571.2</ele>
        <time>2025-09-14T08:12:48Z</time>
      </trkpt>
      <trkpt lat="45.69799" lon="3.46171">
        <ele>571</ele>
        <time>2025-09-14T08:12:49Z</time>
      </trkpt>
      <trkpt lat="45.698" lon="3.46165">
        <ele>571.2</ele>
        <time>2025-09-14T08:12:50Z</time>
      </trkpt>
      <trkpt lat="45.698" lon="3.46159">
        <ele>571.4</ele>
        <time>2025-09-14T08:12:51Z</time>
      </trkpt>
      <trkpt lat="45.698" lon="3.46152">
        <ele>571.4</ele>
        <time>2025-09-14T08:12:52Z</time>
      </trkpt>
      <trkpt lat="45.698" lon="3.46146">
        <ele>571.2</ele>
        <time>2025-09-14T08:12:53Z</time>
      </trkpt>
      <trkpt lat="45.698" lon="3.4614">
        <ele>571</ele>
        <time>2025-09-14T08:12:54Z</time>
      </trkpt>
      <trkpt lat="45.698" lon="3.46134">
        <ele>570.6</ele>
        <time>2025-09-14T08:12:55Z</time>
      </trkpt>
      <trkpt lat="45.69801" lon="3.46128">
        <ele>570.4</ele>
        <time>2025-09-14T08:12:56Z</time>
      </trkpt>
      <trkpt lat="45.69802" lon="3.46123">
        <ele>570.2</ele>
        <time>2025-09-14T08:12:57Z</time>
      </trkpt>
      <trkpt lat="45.69802" lon="3.46118">
        <ele>570.2</ele>
        <time>2025-09-14T08:12:58Z</time>
      </trkpt>
      <trkpt lat="45.69803" lon="3.46113">
        <ele>570</ele>
        <time>2025-09-14T08:12:59Z</time>
      </trkpt>
      <trkpt lat="45.69803" lon="3.46108">
        <ele>569.8</ele>
        <time>2025-09-14T08:13:00Z</time>
      </trkpt>
      <trkpt lat="45.69803" lon="3.46102">
        <ele>569.6</ele>
        <time>2025-09-14T08:13:01Z</time>
      </trkpt>
      <trkpt lat="45.69804" lon="3.46096">
        <ele>569.4</ele>
        <time>2025-09-14T08:13:02Z</time>
      </trkpt>
      <trkpt lat="45.69805" lon="3.46089">
        <ele>569.4</ele>
        <time>2025-09-14T08:13:03Z</time>
      </trkpt>
      <trkpt lat="45.69807" lon="3.46082">
        <ele>569.2</ele>
        <time>2025-09-14T08:13:04Z</time>
      </trkpt>
      <trkpt lat="45.69808" lon="3.46075">
        <ele>569.2</ele>
        <time>2025-09-14T08:13:05Z</time>
      </trkpt>
      <trkpt lat="45.6981" lon="3.46068">
        <ele>569</ele>
        <time>2025-09-14T08:13:06Z</time>
      </trkpt>
      <trkpt lat="45.69811" lon="3.46061">
        <ele>569</ele>
        <time>2025-09-14T08:13:07Z</time>
      </trkpt>
      <trkpt lat="45.69813" lon="3.46054">
        <ele>568.6</ele>
        <time>2025-09-14T08:13:08Z</time>
      </trkpt>
      <trkpt lat="45.69815" lon="3.46046">
        <ele>568.4</ele>
        <time>2025-09-14T08:13:09Z</time>
      </trkpt>
      <trkpt lat="45.69816" lon="3.46039">
        <ele>568.2</ele>
        <time>2025-09-14T08:13:10Z</time>
      </trkpt>
      <trkpt lat="45.69817" lon="3.46031">
        <ele>568</ele>
        <time>2025-09-14T08:13:11Z</time>
      </trkpt>
      <trkpt lat="45.69818" lon="3.46024">
        <ele>567.8</ele>
        <time>2025-09-14T08:13:12Z</time>
      </trkpt>
      <trkpt lat="45.69818" lon="3.46016">
        <ele>567.6</ele>
        <time>2025-09-14T08:13:13Z</time>
      </trkpt>
      <trkpt lat="45.69818" lon="3.46009">
        <ele>567.4</ele>
        <time>2025-09-14T08:13:14Z</time>
      </trkpt>
      <trkpt lat="45.69818" lon="3.46002">
        <ele>567.2</ele>
        <time>2025-09-14T08:13:15Z</time>
      </trkpt>
      <trkpt lat="45.69818" lon="3.45995">
        <ele>567.2</ele>
        <time>2025-09-14T08:13:16Z</time>
      </trkpt>
      <trkpt lat="45.69817" lon="3.45989">
        <ele>567.2</ele>
        <time>2025-09-14T08:13:17Z</time>
      </trkpt>
      <trkpt lat="45.69816" lon="3.45984">
        <ele>567</ele>
        <time>2025-09-14T08:13:18Z</time>
      </trkpt>
      <trkpt lat="45.69816" lon="3.45981">
        <ele>566.8</ele>
        <time>2025-09-14T08:13:19Z</time>
      </trkpt>
      <trkpt lat="45.69815" lon="3.45978">
        <ele>566.6</ele>
        <time>2025-09-14T08:13:20Z</time>
      </trkpt>
      <trkpt lat="45.69815" lon="3.45975">
        <ele>566.6</ele>
        <time>2025-09-14T08:13:21Z</time>
      </trkpt>
      <trkpt lat="45.69814" lon="3.45971">
        <ele>566.4</ele>
        <time>2025-09-14T08:13:22Z</time>
      </trkpt>
      <trkpt lat="45.69813" lon="3.45967">
        <ele>566.4</ele>
        <time>2025-09-14T08:13:23Z</time>
      </trkpt>
      <trkpt lat="45.69813" lon="3.45963">
        <ele>566.6</ele>
        <time>2025-09-14T08:13:24Z</time>
      </trkpt>
      <trkpt lat="45.69812" lon="3.45959">
        <ele>566.6</ele>
        <time>2025-09-14T08:13:25Z</time>
      </trkpt>
      <trkpt lat="45.69812" lon="3.45956">
        <ele>566.6</ele>
        <time>2025-09-14T08:13:26Z</time>
      </trkpt>
      <trkpt lat="45.69812" lon="3.45952">
        <ele>566.6</ele>
        <time>2025-09-14T08:13:27Z</time>
      </trkpt>
      <trkpt lat="45.69813" lon="3.45947">
        <ele>566.6</ele>
        <time>2025-09-14T08:13:28Z</time>
      </trkpt>
      <trkpt lat="45.69814" lon="3.45941">
        <ele>566.6</ele>
        <time>2025-09-14T08:13:29Z</time>
      </trkpt>
      <trkpt lat="45.69815" lon="3.45934">
        <ele>566.6</ele>
        <time>2025-09-14T08:13:30Z</time>
      </trkpt>
      <trkpt lat="45.69816" lon="3.45927">
        <ele>566.8</ele>
        <time>2025-09-14T08:13:31Z</time>
      </trkpt>
      <trkpt lat="45.69816" lon="3.45921">
        <ele>567</ele>
        <time>2025-09-14T08:13:32Z</time>
      </trkpt>
      <trkpt lat="45.69817" lon="3.45914">
        <ele>567</ele>
        <time>2025-09-14T08:13:33Z</time>
      </trkpt>
      <trkpt lat="45.69817" lon="3.45908">
        <ele>567</ele>
        <time>2025-09-14T08:13:34Z</time>
      </trkpt>
      <trkpt lat="45.69817" lon="3.45901">
        <ele>567.2</ele>
        <time>2025-09-14T08:13:35Z</time>
      </trkpt>
      <trkpt lat="45.69817" lon="3.45894">
        <ele>567.4</ele>
        <time>2025-09-14T08:13:36Z</time>
      </trkpt>
      <trkpt lat="45.69817" lon="3.45888">
        <ele>567.4</ele>
        <time>2025-09-14T08:13:37Z</time>
      </trkpt>
      <trkpt lat="45.69817" lon="3.45882">
        <ele>567.6</ele>
        <time>2025-09-14T08:13:38Z</time>
      </trkpt>
      <trkpt lat="45.69818" lon="3.45876">
        <ele>567.8</ele>
        <time>2025-09-14T08:13:39Z</time>
      </trkpt>
      <trkpt lat="45.69818" lon="3.4587">
        <ele>568</ele>
        <time>2025-09-14T08:13:40Z</time>
      </trkpt>
      <trkpt lat="45.69818" lon="3.45865">
        <ele>568.2</ele>
        <time>2025-09-14T08:13:41Z</time>
      </trkpt>
      <trkpt lat="45.69818" lon="3.45859">
        <ele>568.2</ele>
        <time>2025-09-14T08:13:42Z</time>
      </trkpt>
      <trkpt lat="45.69818" lon="3.45853">
        <ele>568.2</ele>
        <time>2025-09-14T08:13:43Z</time>
      </trkpt>
      <trkpt lat="45.69819" lon="3.45848">
        <ele>568.4</ele>
        <time>2025-09-14T08:13:44Z</time>
      </trkpt>
      <trkpt lat="45.69819" lon="3.45843">
        <ele>568.6</ele>
        <time>2025-09-14T08:13:45Z</time>
      </trkpt>
      <trkpt lat="45.69819" lon="3.45837">
        <ele>568.8</ele>
        <time>2025-09-14T08:13:46Z</time>
      </trkpt>
      <trkpt lat="45.69819" lon="3.45832">
        <ele>569</ele>
        <time>2025-09-14T08:13:47Z</time>
      </trkpt>
      <trkpt lat="45.6982" lon="3.45827">
        <ele>569.2</ele>
        <time>2025-09-14T08:13:48Z</time>
      </trkpt>
      <trkpt lat="45.6982" lon="3.45822">
        <ele>569.4</ele>
        <time>2025-09-14T08:13:49Z</time>
      </trkpt>
      <trkpt lat="45.6982" lon="3.45818">
        <ele>569.6</ele>
        <time>2025-09-14T08:13:50Z</time>
      </trkpt>
      <trkpt lat="45.6982" lon="3.45813">
        <ele>569.8</ele>
        <time>2025-09-14T08:13:51Z</time>
      </trkpt>
      <trkpt lat="45.6982" lon="3.45809">
        <ele>570.2</ele>
        <time>2025-09-14T08:13:52Z</time>
      </trkpt>
      <trkpt lat="45.6982" lon="3.45804">
        <ele>570.4</ele>
        <time>2025-09-14T08:13:53Z</time>
      </trkpt>
      <trkpt lat="45.6982" lon="3.458">
        <ele>570.6</ele>
        <time>2025-09-14T08:13:54Z</time>
      </trkpt>
      <trkpt lat="45.6982" lon="3.45795">
        <ele>570.8</ele>
        <time>2025-09-14T08:13:55Z</time>
      </trkpt>
      <trkpt lat="45.6982" lon="3.45791">
        <ele>571</ele>
        <time>2025-09-14T08:13:56Z</time>
      </trkpt>
      <trkpt lat="45.69821" lon="3.45787">
        <ele>571.2</ele>
        <time>2025-09-14T08:13:57Z</time>
      </trkpt>
      <trkpt lat="45.69821" lon="3.45783">
        <ele>571.4</ele>
        <time>2025-09-14T08:13:58Z</time>
      </trkpt>
      <trkpt lat="45.69822" lon="3.45779">
        <ele>571.8</ele>
        <time>2025-09-14T08:13:59Z</time>
      </trkpt>
      <trkpt lat="45.69822" lon="3.45775">
        <ele>571.8</ele>
        <time>2025-09-14T08:14:00Z</time>
      </trkpt>
      <trkpt lat="45.69822" lon="3.45771">
        <ele>572</ele>
        <time>2025-09-14T08:14:01Z</time>
      </trkpt>
      <trkpt lat="45.69823" lon="3.45767">
        <ele>572.4</ele>
        <time>2025-09-14T08:14:02Z</time>
      </trkpt>
      <trkpt lat="45.69824" lon="3.45762">
        <ele>572.4</ele>
        <time>2025-09-14T08:14:03Z</time>
      </trkpt>
      <trkpt lat="45.69824" lon="3.45757">
        <ele>572.8</ele>
        <time>2025-09-14T08:14:04Z</time>
      </trkpt>
      <trkpt lat="45.69825" lon="3.45752">
        <ele>572.8</ele>
        <time>2025-09-14T08:14:05Z</time>
      </trkpt>
      <trkpt lat="45.69825" lon="3.45748">
        <ele>573</ele>
        <time>2025-09-14T08:14:06Z</time>
      </trkpt>
      <trkpt lat="45.69826" lon="3.45743">
        <ele>573.4</ele>
        <time>2025-09-14T08:14:07Z</time>
      </trkpt>
      <trkpt lat="45.69827" lon="3.45738">
        <ele>573.4</ele>
        <time>2025-09-14T08:14:08Z</time>
      </trkpt>
      <trkpt lat="45.69827" lon="3.45734">
        <ele>573.6</ele>
        <time>2025-09-14T08:14:09Z</time>
      </trkpt>
      <trkpt lat="45.69828" lon="3.45729">
        <ele>573.8</ele>
        <time>2025-09-14T08:14:10Z</time>
      </trkpt>
      <trkpt lat="45.69829" lon="3.45725">
        <ele>574</ele>
        <time>2025-09-14T08:14:11Z</time>
      </trkpt>
      <trkpt lat="45.6983" lon="3.45721">
        <ele>574.2</ele>
        <time>2025-09-14T08:14:12Z</time>
      </trkpt>
      <trkpt lat="45.6983" lon="3.45717">
        <ele>574.4</ele>
        <time>2025-09-14T08:14:13Z</time>
      </trkpt>
      <trkpt lat="45.69831" lon="3.45713">
        <ele>574.6</ele>
        <time>2025-09-14T08:14:14Z</time>
      </trkpt>
      <trkpt lat="45.69831" lon="3.45708">
        <ele>574.8</ele>
        <time>2025-09-14T08:14:15Z</time>
      </trkpt>
      <trkpt lat="45.69832" lon="3.45704">
        <ele>575</ele>
        <time>2025-09-14T08:14:16Z</time>
      </trkpt>
      <trkpt lat="45.69832" lon="3.457">
        <ele>575.2</ele>
        <time>2025-09-14T08:14:17Z</time>
      </trkpt>
      <trkpt lat="45.69832" lon="3.45696">
        <ele>575.4</ele>
        <time>2025-09-14T08:14:18Z</time>
      </trkpt>
      <trkpt lat="45.69833" lon="3.45692">
        <ele>575.4</ele>
        <time>2025-09-14T08:14:19Z</time>
      </trkpt>
      <trkpt lat="45.69833" lon="3.45688">
        <ele>575.6</ele>
        <time>2025-09-14T08:14:20Z</time>
      </trkpt>
      <trkpt lat="45.69834" lon="3.45684">
        <ele>575.8</ele>
        <time>2025-09-14T08:14:21Z</time>
      </trkpt>
      <trkpt lat="45.69835" lon="3.4568">
        <ele>576</ele>
        <time>2025-09-14T08:14:22Z</time>
      </trkpt>
      <trkpt lat="45.69835" lon="3.45677">
        <ele>576.2</ele>
        <time>2025-09-14T08:14:23Z</time>
      </trkpt>
      <trkpt lat="45.69835" lon="3.45673">
        <ele>576.2</ele>
        <time>2025-09-14T08:14:24Z</time>
      </trkpt>
      <trkpt lat="45.69836" lon="3.45669">
        <ele>576.2</ele>
        <time>2025-09-14T08:14:25Z</time>
      </trkpt>
      <trkpt lat="45.69836" lon="3.45665">
        <ele>576.2</ele>
        <time>2025-09-14T08:14:26Z</time>
      </trkpt>
      <trkpt lat="45.69837" lon="3.45661">
        <ele>576.4</ele>
        <time>2025-09-14T08:14:27Z</time>
      </trkpt>
      <trkpt lat="45.69837" lon="3.45658">
        <ele>576.4</ele>
        <time>2025-09-14T08:14:28Z</time>
      </trkpt>
      <trkpt lat="45.69838" lon="3.45654">
        <ele>576.4</ele>
        <time>2025-09-14T08:14:29Z</time>
      </trkpt>
      <trkpt lat="45.69838" lon="3.4565">
        <ele>576.4</ele>
        <time>2025-09-14T08:14:30Z</time>
      </trkpt>
      <trkpt lat="45.69838" lon="3.45646">
        <ele>576.2</ele>
        <time>2025-09-14T08:14:31Z</time>
      </trkpt>
      <trkpt lat="45.69839" lon="3.45641">
        <ele>576.2</ele>
        <time>2025-09-14T08:14:32Z</time>
      </trkpt>
      <trkpt lat="45.6984" lon="3.45637">
        <ele>576.2</ele>
        <time>2025-09-14T08:14:33Z</time>
      </trkpt>
      <trkpt lat="45.6984" lon="3.45632">
        <ele>576</ele>
        <time>2025-09-14T08:14:34Z</time>
      </trkpt>
      <trkpt lat="45.6984" lon="3.45628">
        <ele>576</ele>
        <time>2025-09-14T08:14:35Z</time>
      </trkpt>
      <trkpt lat="45.6984" lon="3.45623">
        <ele>575.8</ele>
        <time>2025-09-14T08:14:36Z</time>
      </trkpt>
      <trkpt lat="45.6984" lon="3.45618">
        <ele>575.6</ele>
        <time>2025-09-14T08:14:37Z</time>
      </trkpt>
      <trkpt lat="45.6984" lon="3.45613">
        <ele>575.6</ele>
        <time>2025-09-14T08:14:38Z</time>
      </trkpt>
      <trkpt lat="45.6984" lon="3.45608">
        <ele>575.4</ele>
        <time>2025-09-14T08:14:39Z</time>
      </trkpt>
      <trkpt lat="45.6984" lon="3.45602">
        <ele>575.4</ele>
        <time>2025-09-14T08:14:40Z</time>
      </trkpt>
      <trkpt lat="45.6984" lon="3.45597">
        <ele>575.2</ele>
        <time>2025-09-14T08:14:41Z</time>
      </trkpt>
      <trkpt lat="45.69839" lon="3.45591">
        <ele>575.2</ele>
        <time>2025-09-14T08:14:42Z</time>
      </trkpt>
      <trkpt lat="45.69839" lon="3.45586">
        <ele>575</ele>
        <time>2025-09-14T08:14:43Z</time>
      </trkpt>
      <trkpt lat="45.69839" lon="3.4558">
        <ele>575</ele>
        <time>2025-09-14T08:14:44Z</time>
      </trkpt>
      <trkpt lat="45.69838" lon="3.45575">
        <ele>575.2</ele>
        <time>2025-09-14T08:14:45Z</time>
      </trkpt>
      <trkpt lat="45.69838" lon="3.45569">
        <ele>575</ele>
        <time>2025-09-14T08:14:46Z</time>
      </trkpt>
      <trkpt lat="45.69838" lon="3.45563">
        <ele>574.8</ele>
        <time>2025-09-14T08:14:47Z</time>
      </trkpt>
      <trkpt lat="45.69838" lon="3.45558">
        <ele>574.8</ele>
        <time>2025-09-14T08:14:48Z</time>
      </trkpt>
      <trkpt lat="45.69838" lon="3.45552">
        <ele>574.6</ele>
        <time>2025-09-14T08:14:49Z</time>
      </trkpt>
      <trkpt lat="45.69838" lon="3.45547">
        <ele>574.4</ele>
        <time>2025-09-14T08:14:50Z</time>
      </trkpt>
      <trkpt lat="45.69837" lon="3.45541">
        <ele>574.4</ele>
        <time>2025-09-14T08:14:51Z</time>
      </trkpt>
      <trkpt lat="45.69837" lon="3.45535">
        <ele>574.2</ele>
        <time>2025-09-14T08:14:52Z</time>
      </trkpt>
      <trkpt lat="45.69837" lon="3.4553">
        <ele>574.2</ele>
        <time>2025-09-14T08:14:53Z</time>
      </trkpt>
      <trkpt lat="45.69837" lon="3.45525">
        <ele>574</ele>
        <time>2025-09-14T08:14:54Z</time>
      </trkpt>
      <trkpt lat="45.69836" lon="3.45519">
        <ele>574</ele>
        <time>2025-09-14T08:14:55Z</time>
      </trkpt>
      <trkpt lat="45.69836" lon="3.45514">
        <ele>574</ele>
        <time>2025-09-14T08:14:56Z</time>
      </trkpt>
      <trkpt lat="45.69836" lon="3.45508">
        <ele>574</ele>
        <time>2025-09-14T08:14:57Z</time>
      </trkpt>
      <trkpt lat="45.69836" lon="3.45503">
        <ele>574</ele>
        <time>2025-09-14T08:14:58Z</time>
      </trkpt>
      <trkpt lat="45.69836" lon="3.45498">
        <ele>574</ele>
        <time>2025-09-14T08:14:59Z</time>
      </trkpt>
      <trkpt lat="45.69835" lon="3.45493">
        <ele>574</ele>
        <time>2025-09-14T08:15:00Z</time>
      </trkpt>
      <trkpt lat="45.69834" lon="3.45489">
        <ele>574</ele>
        <time>2025-09-14T08:15:01Z</time>
      </trkpt>
      <trkpt lat="45.69834" lon="3.45485">
        <ele>574.2</ele>
        <time>2025-09-14T08:15:02Z</time>
      </trkpt>
      <trkpt lat="45.69833" lon="3.45482">
        <ele>574</ele>
        <time>2025-09-14T08:15:03Z</time>
      </trkpt>
      <trkpt lat="45.69832" lon="3.45479">
        <ele>574</ele>
        <time>2025-09-14T08:15:04Z</time>
      </trkpt>
      <trkpt lat="45.69831" lon="3.45476">
        <ele>574</ele>
        <time>2025-09-14T08:15:05Z</time>
      </trkpt>
      <trkpt lat="45.6983" lon="3.45472">
        <ele>574</ele>
        <time>2025-09-14T08:15:06Z</time>
      </trkpt>
      <trkpt lat="45.69829" lon="3.45468">
        <ele>573.8</ele>
        <time>2025-09-14T08:15:07Z</time>
      </trkpt>
      <trkpt lat="45.69827" lon="3.45464">
        <ele>573.6</ele>
        <time>2025-09-14T08:15:08Z</time>
      </trkpt>
      <trkpt lat="45.69826" lon="3.45461">
        <ele>573.2</ele>
        <time>2025-09-14T08:15:09Z</time>
      </trkpt>
      <trkpt lat="45.69826" lon="3.45458">
        <ele>573.2</ele>
        <time>2025-09-14T08:15:10Z</time>
      </trkpt>
      <trkpt lat="45.69825" lon="3.45455">
        <ele>573</ele>
        <time>2025-09-14T08:15:11Z</time>
      </trkpt>
      <trkpt lat="45.69825" lon="3.45452">
        <ele>572.8</ele>
        <time>2025-09-14T08:15:12Z</time>
      </trkpt>
      <trkpt lat="45.69825" lon="3.4545">
        <ele>572.4</ele>
        <time>2025-09-14T08:15:13Z</time>
      </trkpt>
      <trkpt lat="45.69825" lon="3.45447">
        <ele>572.4</ele>
        <time>2025-09-14T08:15:14Z</time>
      </trkpt>
      <trkpt lat="45.69825" lon="3.45444">
        <ele>572.4</ele>
        <time>2025-09-14T08:15:15Z</time>
      </trkpt>
      <trkpt lat="45.69824" lon="3.4544">
        <ele>572.4</ele>
        <time>2025-09-14T08:15:16Z</time>
      </trkpt>
      <trkpt lat="45.69824" lon="3.45436">
        <ele>572.4</ele>
        <time>2025-09-14T08:15:17Z</time>
      </trkpt>
      <trkpt lat="45.69825" lon="3.45432">
        <ele>572.4</ele>
        <time>2025-09-14T08:15:18Z</time>
      </trkpt>
      <trkpt lat="45.69826" lon="3.45428">
        <ele>572.4</ele>
        <time>2025-09-14T08:15:19Z</time>
      </trkpt>
      <trkpt lat="45.69827" lon="3.45424">
        <ele>572.6</ele>
        <time>2025-09-14T08:15:20Z</time>
      </trkpt>
      <trkpt lat="45.69828" lon="3.45419">
        <ele>572.8</ele>
        <time>2025-09-14T08:15:21Z</time>
      </trkpt>
      <trkpt lat="45.69829" lon="3.45413">
        <ele>572.8</ele>
        <time>2025-09-14T08:15:22Z</time>
      </trkpt>
      <trkpt lat="45.69829" lon="3.45408">
        <ele>573</ele>
        <time>2025-09-14T08:15:23Z</time>
      </trkpt>
      <trkpt lat="45.6983" lon="3.45403">
        <ele>573.2</ele>
        <time>2025-09-14T08:15:24Z</time>
      </trkpt>
      <trkpt lat="45.6983" lon="3.45397">
        <ele>573.4</ele>
        <time>2025-09-14T08:15:25Z</time>
      </trkpt>
      <trkpt lat="45.6983" lon="3.45392">
        <ele>573.8</ele>
        <time>2025-09-14T08:15:26Z</time>
      </trkpt>
      <trkpt lat="45.69831" lon="3.45387">
        <ele>573.8</ele>
        <time>2025-09-14T08:15:27Z</time>
      </trkpt>
      <trkpt lat="45.69831" lon="3.45382">
        <ele>574</ele>
        <time>2025-09-14T08:15:28Z</time>
      </trkpt>
      <trkpt lat="45.69832" lon="3.45377">
        <ele>574.2</ele>
        <time>2025-09-14T08:15:29Z</time>
      </trkpt>
      <trkpt lat="45.69832" lon="3.45372">
        <ele>574.6</ele>
        <time>2025-09-14T08:15:30Z</time>
      </trkpt>
      <trkpt lat="45.69832" lon="3.45368">
        <ele>574.8</ele>
        <time>2025-09-14T08:15:31Z</time>
      </trkpt>
      <trkpt lat="45.69833" lon="3.45363">
        <ele>574.8</ele>
        <time>2025-09-14T08:15:32Z</time>
      </trkpt>
      <trkpt lat="45.69833" lon="3.45359">
        <ele>575</ele>
        <time>2025-09-14T08:15:33Z</time>
      </trkpt>
      <trkpt lat="45.69834" lon="3.45354">
        <ele>575.2</ele>
        <time>2025-09-14T08:15:34Z</time>
      </trkpt>
      <trkpt lat="45.69835" lon="3.4535">
        <ele>575.6</ele>
        <time>2025-09-14T08:15:35Z</time>
      </trkpt>
      <trkpt lat="45.69835" lon="3.45346">
        <ele>575.8</ele>
        <time>2025-09-14T08:15:36Z</time>
      </trkpt>
      <trkpt lat="45.69835" lon="3.45342">
        <ele>575.8</ele>
        <time>2025-09-14T08:15:37Z</time>
      </trkpt>
      <trkpt lat="45.69836" lon="3.45338">
        <ele>576.2</ele>
        <time>2025-09-14T08:15:38Z</time>
      </trkpt>
      <trkpt lat="45.69836" lon="3.45334">
        <ele>576.4</ele>
        <time>2025-09-14T08:15:39Z</time>
      </trkpt>
      <trkpt lat="45.69836" lon="3.45329">
        <ele>576.8</ele>
        <time>2025-09-14T08:15:40Z</time>
      </trkpt>
      <trkpt lat="45.69836" lon="3.45325">
        <ele>576.8</ele>
        <time>2025-09-14T08:15:41Z</time>
      </trkpt>
      <trkpt lat="45.69836" lon="3.45321">
        <ele>576.8</ele>
        <time>2025-09-14T08:15:42Z</time>
      </trkpt>
      <trkpt lat="45.69835" lon="3.45318">
        <ele>577.2</ele>
        <time>2025-09-14T08:15:43Z</time>
      </trkpt>
      <trkpt lat="45.69834" lon="3.45314">
        <ele>577.4</ele>
        <time>2025-09-14T08:15:44Z</time>
      </trkpt>
      <trkpt lat="45.69833" lon="3.45311">
        <ele>577.4</ele>
        <time>2025-09-14T08:15:45Z</time>
      </trkpt>
      <trkpt lat="45.69832" lon="3.45307">
        <ele>577.4</ele>
        <time>2025-09-14T08:15:46Z</time>
      </trkpt>
      <trkpt lat="45.69832" lon="3.45304">
        <ele>577.6</ele>
        <time>2025-09-14T08:15:47Z</time>
      </trkpt>
      <trkpt lat="45.69831" lon="3.45301">
        <ele>577.8</ele>
        <time>2025-09-14T08:15:48Z</time>
      </trkpt>
      <trkpt lat="45.69831" lon="3.45297">
        <ele>577.8</ele>
        <time>2025-09-14T08:15:49Z</time>
      </trkpt>
      <trkpt lat="45.6983" lon="3.45293">
        <ele>578</ele>
        <time>2025-09-14T08:15:50Z</time>
      </trkpt>
      <trkpt lat="45.69829" lon="3.45289">
        <ele>578</ele>
        <time>2025-09-14T08:15:51Z</time>
      </trkpt>
      <trkpt lat="45.69829" lon="3.45285">
        <ele>578.4</ele>
        <time>2025-09-14T08:15:52Z</time>
      </trkpt>
      <trkpt lat="45.69828" lon="3.4528">
        <ele>578.6</ele>
        <time>2025-09-14T08:15:53Z</time>
      </trkpt>
      <trkpt lat="45.69827" lon="3.45276">
        <ele>578.8</ele>
        <time>2025-09-14T08:15:54Z</time>
      </trkpt>
      <trkpt lat="45.69826" lon="3.45273">
        <ele>579</ele>
        <time>2025-09-14T08:15:55Z</time>
      </trkpt>
      <trkpt lat="45.69825" lon="3.45269">
        <ele>579</ele>
        <time>2025-09-14T08:15:56Z</time>
      </trkpt>
      <trkpt lat="45.69824" lon="3.45266">
        <ele>579.4</ele>
        <time>2025-09-14T08:15:57Z</time>
      </trkpt>
      <trkpt lat="45.69824" lon="3.45262">
        <ele>579.6</ele>
        <time>2025-09-14T08:15:58Z</time>
      </trkpt>
      <trkpt lat="45.69823" lon="3.45259">
        <ele>579.8</ele>
        <time>2025-09-14T08:15:59Z</time>
      </trkpt>
      <trkpt lat="45.69823" lon="3.45257">
        <ele>580</ele>
        <time>2025-09-14T08:16:00Z</time>
      </trkpt>
      <trkpt lat="45.69822" lon="3.45254">
        <ele>580.4</ele>
        <time>2025-09-14T08:16:01Z</time>
      </trkpt>
      <trkpt lat="45.69821" lon="3.45251">
        <ele>580.4</ele>
        <time>2025-09-14T08:16:02Z</time>
      </trkpt>
      <trkpt lat="45.6982" lon="3.45247">
        <ele>580.6</ele>
        <time>2025-09-14T08:16:03Z</time>
      </trkpt>
      <trkpt lat="45.6982" lon="3.45244">
        <ele>580.8</ele>
        <time>2025-09-14T08:16:04Z</time>
      </trkpt>
      <trkpt lat="45.6982" lon="3.45241">
        <ele>581</ele>
        <time>2025-09-14T08:16:05Z</time>
      </trkpt>
      <trkpt lat="45.69819" lon="3.45237">
        <ele>581.2</ele>
        <time>2025-09-14T08:16:06Z</time>
      </trkpt>
      <trkpt lat="45.69819" lon="3.45234">
        <ele>581.4</ele>
        <time>2025-09-14T08:16:07Z</time>
      </trkpt>
      <trkpt lat="45.69818" lon="3.4523">
        <ele>581.6</ele>
        <time>2025-09-14T08:16:08Z</time>
      </trkpt>
      <trkpt lat="45.69817" lon="3.45227">
        <ele>581.8</ele>
        <time>2025-09-14T08:16:09Z</time>
      </trkpt>
      <trkpt lat="45.69816" lon="3.45223">
        <ele>581.8</ele>
        <time>2025-09-14T08:16:10Z</time>
      </trkpt>
      <trkpt lat="45.69816" lon="3.4522">
        <ele>582</ele>
        <time>2025-09-14T08:16:11Z</time>
      </trkpt>
      <trkpt lat="45.69815" lon="3.45216">
        <ele>582</ele>
        <time>2025-09-14T08:16:12Z</time>
      </trkpt>
      <trkpt lat="45.69815" lon="3.45214">
        <ele>582.2</ele>
        <time>2025-09-14T08:16:13Z</time>
      </trkpt>
      <trkpt lat="45.69815" lon="3.45211">
        <ele>582.2</ele>
        <time>2025-09-14T08:16:14Z</time>
      </trkpt>
      <trkpt lat="45.69814" lon="3.45208">
        <ele>582.4</ele>
        <time>2025-09-14T08:16:15Z</time>
      </trkpt>
      <trkpt lat="45.69814" lon="3.45206">
        <ele>582.6</ele>
        <time>2025-09-14T08:16:16Z</time>
      </trkpt>
      <trkpt lat="45.69814" lon="3.45203">
        <ele>582.6</ele>
        <time>2025-09-14T08:16:17Z</time>
      </trkpt>
      <trkpt lat="45.69814" lon="3.452">
        <ele>582.8</ele>
        <time>2025-09-14T08:16:18Z</time>
      </trkpt>
      <trkpt lat="45.69814" lon="3.45198">
        <ele>582.8</ele>
        <time>2025-09-14T08:16:19Z</time>
      </trkpt>
      <trkpt lat="45.69815" lon="3.45195">
        <ele>582.8</ele>
        <time>2025-09-14T08:16:20Z</time>
      </trkpt>
      <trkpt lat="45.69817" lon="3.45193">
        <ele>583</ele>
        <time>2025-09-14T08:16:21Z</time>
      </trkpt>
      <trkpt lat="45.6982" lon="3.45191">
        <ele>583</ele>
        <time>2025-09-14T08:16:22Z</time>
      </trkpt>
      <trkpt lat="45.69823" lon="3.45188">
        <ele>582.8</ele>
        <time>2025-09-14T08:16:23Z</time>
      </trkpt>
      <trkpt lat="45.69827" lon="3.45186">
        <ele>582.6</ele>
        <time>2025-09-14T08:16:24Z</time>
      </trkpt>
      <trkpt lat="45.69831" lon="3.45184">
        <ele>582.6</ele>
        <time>2025-09-14T08:16:25Z</time>
      </trkpt>
      <trkpt lat="45.69836" lon="3.45182">
        <ele>582.6</ele>
        <time>2025-09-14T08:16:26Z</time>
      </trkpt>
      <trkpt lat="45.6984" lon="3.45179">
        <ele>582.4</ele>
        <time>2025-09-14T08:16:27Z</time>
      </trkpt>
      <trkpt lat="45.69846" lon="3.45176">
        <ele>582</ele>
        <time>2025-09-14T08:16:28Z</time>
      </trkpt>
      <trkpt lat="45.69851" lon="3.45173">
        <ele>581.6</ele>
        <time>2025-09-14T08:16:29Z</time>
      </trkpt>
      <trkpt lat="45.69857" lon="3.4517">
        <ele>581.4</ele>
        <time>2025-09-14T08:16:30Z</time>
      </trkpt>
      <trkpt lat="45.69862" lon="3.45166">
        <ele>581.2</ele>
        <time>2025-09-14T08:16:31Z</time>
      </trkpt>
      <trkpt lat="45.69868" lon="3.45163">
        <ele>581</ele>
        <time>2025-09-14T08:16:32Z</time>
      </trkpt>
      <trkpt lat="45.69874" lon="3.45158">
        <ele>580.6</ele>
        <time>2025-09-14T08:16:33Z</time>
      </trkpt>
      <trkpt lat="45.69879" lon="3.45154">
        <ele>580.2</ele>
        <time>2025-09-14T08:16:34Z</time>
      </trkpt>
      <trkpt lat="45.69884" lon="3.4515">
        <ele>579.6</ele>
        <time>2025-09-14T08:16:35Z</time>
      </trkpt>
      <trkpt lat="45.69888" lon="3.45148">
        <ele>579.2</ele>
        <time>2025-09-14T08:16:36Z</time>
      </trkpt>
      <trkpt lat="45.69891" lon="3.45146">
        <ele>578.8</ele>
        <time>2025-09-14T08:16:37Z</time>
      </trkpt>
      <trkpt lat="45.69893" lon="3.45144">
        <ele>578</ele>
        <time>2025-09-14T08:16:38Z</time>
      </trkpt>
      <trkpt lat="45.69894" lon="3.45144">
        <ele>577.6</ele>
        <time>2025-09-14T08:16:39Z</time>
      </trkpt>
      <trkpt lat="45.69893" lon="3.45144">
        <ele>577</ele>
        <time>2025-09-14T08:16:40Z</time>
      </trkpt>
      <trkpt lat="45.69893" lon="3.45145">
        <ele>576.8</ele>
        <time>2025-09-14T08:16:41Z</time>
      </trkpt>
      <trkpt lat="45.69892" lon="3.45145">
        <ele>576.6</ele>
        <time>2025-09-14T08:16:42Z</time>
      </trkpt>
      <trkpt lat="45.69892" lon="3.45146">
        <ele>576.2</ele>
        <time>2025-09-14T08:16:43Z</time>
      </trkpt>
      <trkpt lat="45.6989" lon="3.45147">
        <ele>575.8</ele>
        <time>2025-09-14T08:16:46Z</time>
      </trkpt>
      <trkpt lat="45.69888" lon="3.45148">
        <ele>575.8</ele>
        <time>2025-09-14T08:16:47Z</time>
      </trkpt>
      <trkpt lat="45.69886" lon="3.45149">
        <ele>575.8</ele>
        <time>2025-09-14T08:16:48Z</time>
      </trkpt>
      <trkpt lat="45.69884" lon="3.45151">
        <ele>576</ele>
        <time>2025-09-14T08:16:49Z</time>
      </trkpt>
      <trkpt lat="45.69882" lon="3.45152">
        <ele>576.2</ele>
        <time>2025-09-14T08:16:50Z</time>
      </trkpt>
      <trkpt lat="45.6988" lon="3.45153">
        <ele>576.2</ele>
        <time>2025-09-14T08:16:51Z</time>
      </trkpt>
      <trkpt lat="45.69879" lon="3.45154">
        <ele>576.4</ele>
        <time>2025-09-14T08:16:52Z</time>
      </trkpt>
      <trkpt lat="45.69878" lon="3.45156">
        <ele>576.4</ele>
        <time>2025-09-14T08:16:53Z</time>
      </trkpt>
      <trkpt lat="45.69877" lon="3.45158">
        <ele>576.6</ele>
        <time>2025-09-14T08:16:54Z</time>
      </trkpt>
      <trkpt lat="45.69876" lon="3.4516">
        <ele>576.6</ele>
        <time>2025-09-14T08:16:55Z</time>
      </trkpt>
      <trkpt lat="45.69876" lon="3.45162">
        <ele>576.6</ele>
        <time>2025-09-14T08:16:56Z</time>
      </trkpt>
      <trkpt lat="45.69876" lon="3.45163">
        <ele>576.6</ele>
        <time>2025-09-14T08:16:57Z</time>
      </trkpt>
      <trkpt lat="45.69877" lon="3.45165">
        <ele>576.6</ele>
        <time>2025-09-14T08:16:58Z</time>
      </trkpt>
      <trkpt lat="45.69877" lon="3.45166">
        <ele>576.6</ele>
        <time>2025-09-14T08:16:59Z</time>
      </trkpt>
      <trkpt lat="45.69878" lon="3.45169">
        <ele>576.6</ele>
        <time>2025-09-14T08:17:00Z</time>
      </trkpt>
      <trkpt lat="45.69878" lon="3.45172">
        <ele>576.6</ele>
        <time>2025-09-14T08:17:01Z</time>
      </trkpt>
      <trkpt lat="45.69878" lon="3.45175">
        <ele>576.6</ele>
        <time>2025-09-14T08:17:02Z</time>
      </trkpt>
      <trkpt lat="45.6988" lon="3.45178">
        <ele>576.6</ele>
        <time>2025-09-14T08:17:03Z</time>
      </trkpt>
      <trkpt lat="45.69881" lon="3.45182">
        <ele>576.6</ele>
        <time>2025-09-14T08:17:04Z</time>
      </trkpt>
      <trkpt lat="45.69882" lon="3.45186">
        <ele>576.6</ele>
        <time>2025-09-14T08:17:05Z</time>
      </trkpt>
      <trkpt lat="45.69883" lon="3.4519">
        <ele>576.6</ele>
        <time>2025-09-14T08:17:06Z</time>
      </trkpt>
      <trkpt lat="45.69884" lon="3.45195">
        <ele>576.6</ele>
        <time>2025-09-14T08:17:07Z</time>
      </trkpt>
      <trkpt lat="45.69885" lon="3.45201">
        <ele>576.4</ele>
        <time>2025-09-14T08:17:08Z</time>
      </trkpt>
      <trkpt lat="45.69885" lon="3.45206">
        <ele>576.4</ele>
        <time>2025-09-14T08:17:09Z</time>
      </trkpt>
      <trkpt lat="45.69886" lon="3.45211">
        <ele>576.4</ele>
        <time>2025-09-14T08:17:10Z</time>
      </trkpt>
      <trkpt lat="45.69887" lon="3.45217">
        <ele>576.4</ele>
        <time>2025-09-14T08:17:11Z</time>
      </trkpt>
      <trkpt lat="45.69887" lon="3.45222">
        <ele>576.2</ele>
        <time>2025-09-14T08:17:12Z</time>
      </trkpt>
      <trkpt lat="45.69887" lon="3.45228">
        <ele>576.2</ele>
        <time>2025-09-14T08:17:13Z</time>
      </trkpt>
      <trkpt lat="45.69887" lon="3.45233">
        <ele>576</ele>
        <time>2025-09-14T08:17:14Z</time>
      </trkpt>
      <trkpt lat="45.69887" lon="3.45239">
        <ele>576</ele>
        <time>2025-09-14T08:17:15Z</time>
      </trkpt>
      <trkpt lat="45.69887" lon="3.45244">
        <ele>575.8</ele>
        <time>2025-09-14T08:17:16Z</time>
      </trkpt>
      <trkpt lat="45.69887" lon="3.45249">
        <ele>575.6</ele>
        <time>2025-09-14T08:17:17Z</time>
      </trkpt>
      <trkpt lat="45.69887" lon="3.45252">
        <ele>575.6</ele>
        <time>2025-09-14T08:17:18Z</time>
      </trkpt>
      <trkpt lat="45.69887" lon="3.45254">
        <ele>575.4</ele>
        <time>2025-09-14T08:17:19Z</time>
      </trkpt>
      <trkpt lat="45.69888" lon="3.45256">
        <ele>575.4</ele>
        <time>2025-09-14T08:17:20Z</time>
      </trkpt>
      <trkpt lat="45.6989" lon="3.45259">
        <ele>575.4</ele>
        <time>2025-09-14T08:17:21Z</time>
      </trkpt>
      <trkpt lat="45.69892" lon="3.45262">
        <ele>575.2</ele>
        <time>2025-09-14T08:17:22Z</time>
      </trkpt>
      <trkpt lat="45.69893" lon="3.45264">
        <ele>575.2</ele>
        <time>2025-09-14T08:17:23Z</time>
      </trkpt>
      <trkpt lat="45.69895" lon="3.45266">
        <ele>575.2</ele>
        <time>2025-09-14T08:17:24Z</time>
      </trkpt>
      <trkpt lat="45.69897" lon="3.45269">
        <ele>575.2</ele>
        <time>2025-09-14T08:17:25Z</time>
      </trkpt>
      <trkpt lat="45.69899" lon="3.45271">
        <ele>575</ele>
        <time>2025-09-14T08:17:26Z</time>
      </trkpt>
      <trkpt lat="45.69901" lon="3.45273">
        <ele>575</ele>
        <time>2025-09-14T08:17:27Z</time>
      </trkpt>
      <trkpt lat="45.69902" lon="3.45275">
        <ele>575</ele>
        <time>2025-09-14T08:17:28Z</time>
      </trkpt>
      <trkpt lat="45.69905" lon="3.45277">
        <ele>574.8</ele>
        <time>2025-09-14T08:17:29Z</time>
      </trkpt>
      <trkpt lat="45.69907" lon="3.45279">
        <ele>574.8</ele>
        <time>2025-09-14T08:17:30Z</time>
      </trkpt>
      <trkpt lat="45.6991" lon="3.4528">
        <ele>574.8</ele>
        <time>2025-09-14T08:17:31Z</time>
      </trkpt>
      <trkpt lat="45.69913" lon="3.45279">
        <ele>575</ele>
        <time>2025-09-14T08:17:32Z</time>
      </trkpt>
      <trkpt lat="45.69916" lon="3.45278">
        <ele>575</ele>
        <time>2025-09-14T08:17:33Z</time>
      </trkpt>
      <trkpt lat="45.69919" lon="3.45276">
        <ele>575</ele>
        <time>2025-09-14T08:17:34Z</time>
      </trkpt>
      <trkpt lat="45.69923" lon="3.45275">
        <ele>575.2</ele>
        <time>2025-09-14T08:17:35Z</time>
      </trkpt>
      <trkpt lat="45.69927" lon="3.45273">
        <ele>575</ele>
        <time>2025-09-14T08:17:36Z</time>
      </trkpt>
      <trkpt lat="45.6993" lon="3.45272">
        <ele>575</ele>
        <time>2025-09-14T08:17:37Z</time>
      </trkpt>
      <trkpt lat="45.69933" lon="3.4527">
        <ele>575</ele>
        <time>2025-09-14T08:17:38Z</time>
      </trkpt>
      <trkpt lat="45.69936" lon="3.45268">
        <ele>575</ele>
        <time>2025-09-14T08:17:39Z</time>
      </trkpt>
      <trkpt lat="45.69939" lon="3.45266">
        <ele>575</ele>
        <time>2025-09-14T08:17:40Z</time>
      </trkpt>
      <trkpt lat="45.69942" lon="3.45264">
        <ele>575</ele>
        <time>2025-09-14T08:17:41Z</time>
      </trkpt>
      <trkpt lat="45.69947" lon="3.45262">
        <ele>575</ele>
        <time>2025-09-14T08:17:42Z</time>
      </trkpt>
      <trkpt lat="45.69951" lon="3.4526">
        <ele>575</ele>
        <time>2025-09-14T08:17:43Z</time>
      </trkpt>
      <trkpt lat="45.69955" lon="3.45258">
        <ele>575</ele>
        <time>2025-09-14T08:17:44Z</time>
      </trkpt>
      <trkpt lat="45.69958" lon="3.45256">
        <ele>575</ele>
        <time>2025-09-14T08:17:45Z</time>
      </trkpt>
      <trkpt lat="45.69962" lon="3.45254">
        <ele>575</ele>
        <time>2025-09-14T08:17:46Z</time>
      </trkpt>
      <trkpt lat="45.69965" lon="3.45252">
        <ele>575</ele>
        <time>2025-09-14T08:17:47Z</time>
      </trkpt>
      <trkpt lat="45.69969" lon="3.4525">
        <ele>575</ele>
        <time>2025-09-14T08:17:48Z</time>
      </trkpt>
      <trkpt lat="45.69972" lon="3.45248">
        <ele>575</ele>
        <time>2025-09-14T08:17:49Z</time>
      </trkpt>
      <trkpt lat="45.69975" lon="3.45247">
        <ele>575</ele>
        <time>2025-09-14T08:17:50Z</time>
      </trkpt>
      <trkpt lat="45.69978" lon="3.45246">
        <ele>575</ele>
        <time>2025-09-14T08:17:51Z</time>
      </trkpt>
      <trkpt lat="45.69981" lon="3.45245">
        <ele>575.2</ele>
        <time>2025-09-14T08:17:52Z</time>
      </trkpt>
      <trkpt lat="45.69985" lon="3.45244">
        <ele>575.2</ele>
        <time>2025-09-14T08:17:53Z</time>
      </trkpt>
      <trkpt lat="45.69988" lon="3.45242">
        <ele>575.2</ele>
        <time>2025-09-14T08:17:54Z</time>
      </trkpt>
      <trkpt lat="45.69991" lon="3.45241">
        <ele>575.2</ele>
        <time>2025-09-14T08:17:55Z</time>
      </trkpt>
      <trkpt lat="45.69994" lon="3.45241">
        <ele>575.2</ele>
        <time>2025-09-14T08:17:56Z</time>
      </trkpt>
      <trkpt lat="45.69997" lon="3.45241">
        <ele>575.2</ele>
        <time>2025-09-14T08:17:57Z</time>
      </trkpt>
      <trkpt lat="45.7" lon="3.45241">
        <ele>575.4</ele>
        <time>2025-09-14T08:17:58Z</time>
      </trkpt>
      <trkpt lat="45.70002" lon="3.45241">
        <ele>575.6</ele>
        <time>2025-09-14T08:17:59Z</time>
      </trkpt>
      <trkpt lat="45.70005" lon="3.45241">
        <ele>575.8</ele>
        <time>2025-09-14T08:18:00Z</time>
      </trkpt>
      <trkpt lat="45.70008" lon="3.4524">
        <ele>576</ele>
        <time>2025-09-14T08:18:01Z</time>
      </trkpt>
      <trkpt lat="45.70011" lon="3.45239">
        <ele>576.4</ele>
        <time>2025-09-14T08:18:02Z</time>
      </trkpt>
      <trkpt lat="45.70014" lon="3.45238">
        <ele>576.6</ele>
        <time>2025-09-14T08:18:03Z</time>
      </trkpt>
      <trkpt lat="45.70016" lon="3.45237">
        <ele>577</ele>
        <time>2025-09-14T08:18:04Z</time>
      </trkpt>
      <trkpt lat="45.70019" lon="3.45235">
        <ele>577.4</ele>
        <time>2025-09-14T08:18:05Z</time>
      </trkpt>
      <trkpt lat="45.70021" lon="3.45233">
        <ele>577.8</ele>
        <time>2025-09-14T08:18:06Z</time>
      </trkpt>
      <trkpt lat="45.70023" lon="3.45232">
        <ele>578.2</ele>
        <time>2025-09-14T08:18:07Z</time>
      </trkpt>
      <trkpt lat="45.70026" lon="3.45231">
        <ele>578.6</ele>
        <time>2025-09-14T08:18:08Z</time>
      </trkpt>
      <trkpt lat="45.70029" lon="3.45229">
        <ele>578.8</ele>
        <time>2025-09-14T08:18:09Z</time>
      </trkpt>
      <trkpt lat="45.70032" lon="3.45228">
        <ele>579</ele>
        <time>2025-09-14T08:18:10Z</time>
      </trkpt>
      <trkpt lat="45.70034" lon="3.45226">
        <ele>579.2</ele>
        <time>2025-09-14T08:18:11Z</time>
      </trkpt>
      <trkpt lat="45.70037" lon="3.45225">
        <ele>579.4</ele>
        <time>2025-09-14T08:18:12Z</time>
      </trkpt>
      <trkpt lat="45.70039" lon="3.45224">
        <ele>579.6</ele>
        <time>2025-09-14T08:18:13Z</time>
      </trkpt>
      <trkpt lat="45.70041" lon="3.45222">
        <ele>580</ele>
        <time>2025-09-14T08:18:14Z</time>
      </trkpt>
      <trkpt lat="45.70044" lon="3.45221">
        <ele>580.2</ele>
        <time>2025-09-14T08:18:15Z</time>
      </trkpt>
      <trkpt lat="45.70046" lon="3.4522">
        <ele>580.6</ele>
        <time>2025-09-14T08:18:16Z</time>
      </trkpt>
      <trkpt lat="45.70048" lon="3.45218">
        <ele>580.8</ele>
        <time>2025-09-14T08:18:17Z</time>
      </trkpt>
      <trkpt lat="45.70051" lon="3.45217">
        <ele>581.2</ele>
        <time>2025-09-14T08:18:18Z</time>
      </trkpt>
      <trkpt lat="45.70053" lon="3.45216">
        <ele>581.4</ele>
        <time>2025-09-14T08:18:19Z</time>
      </trkpt>
      <trkpt lat="45.70056" lon="3.45215">
        <ele>581.8</ele>
        <time>2025-09-14T08:18:20Z</time>
      </trkpt>
      <trkpt lat="45.70058" lon="3.45213">
        <ele>582</ele>
        <time>2025-09-14T08:18:21Z</time>
      </trkpt>
      <trkpt lat="45.70061" lon="3.45212">
        <ele>582.2</ele>
        <time>2025-09-14T08:18:22Z</time>
      </trkpt>
      <trkpt lat="45.70063" lon="3.45211">
        <ele>582.4</ele>
        <time>2025-09-14T08:18:23Z</time>
      </trkpt>
      <trkpt lat="45.70066" lon="3.45209">
        <ele>582.6</ele>
        <time>2025-09-14T08:18:24Z</time>
      </trkpt>
      <trkpt lat="45.70068" lon="3.45207">
        <ele>582.8</ele>
        <time>2025-09-14T08:18:25Z</time>
      </trkpt>
      <trkpt lat="45.7007" lon="3.45206">
        <ele>583</ele>
        <time>2025-09-14T08:18:26Z</time>
      </trkpt>
      <trkpt lat="45.70073" lon="3.45205">
        <ele>583.4</ele>
        <time>2025-09-14T08:18:27Z</time>
      </trkpt>
      <trkpt lat="45.70075" lon="3.45203">
        <ele>583.6</ele>
        <time>2025-09-14T08:18:28Z</time>
      </trkpt>
      <trkpt lat="45.70077" lon="3.45202">
        <ele>583.8</ele>
        <time>2025-09-14T08:18:29Z</time>
      </trkpt>
      <trkpt lat="45.70079" lon="3.452">
        <ele>584</ele>
        <time>2025-09-14T08:18:30Z</time>
      </trkpt>
      <trkpt lat="45.70082" lon="3.45199">
        <ele>584.2</ele>
        <time>2025-09-14T08:18:31Z</time>
      </trkpt>
      <trkpt lat="45.70084" lon="3.45198">
        <ele>584.2</ele>
        <time>2025-09-14T08:18:32Z</time>
      </trkpt>
      <trkpt lat="45.70086" lon="3.45196">
        <ele>584.4</ele>
        <time>2025-09-14T08:18:33Z</time>
      </trkpt>
      <trkpt lat="45.70088" lon="3.45195">
        <ele>584.6</ele>
        <time>2025-09-14T08:18:34Z</time>
      </trkpt>
      <trkpt lat="45.7009" lon="3.45193">
        <ele>584.6</ele>
        <time>2025-09-14T08:18:35Z</time>
      </trkpt>
      <trkpt lat="45.70092" lon="3.45192">
        <ele>584.6</ele>
        <time>2025-09-14T08:18:36Z</time>
      </trkpt>
      <trkpt lat="45.70094" lon="3.4519">
        <ele>584.6</ele>
        <time>2025-09-14T08:18:37Z</time>
      </trkpt>
      <trkpt lat="45.70096" lon="3.45189">
        <ele>584.8</ele>
        <time>2025-09-14T08:18:38Z</time>
      </trkpt>
      <trkpt lat="45.70098" lon="3.45188">
        <ele>584.6</ele>
        <time>2025-09-14T08:18:39Z</time>
      </trkpt>
      <trkpt lat="45.70099" lon="3.45188">
        <ele>584.8</ele>
        <time>2025-09-14T08:18:40Z</time>
      </trkpt>
      <trkpt lat="45.70099" lon="3.45186">
        <ele>584.8</ele>
        <time>2025-09-14T08:18:41Z</time>
      </trkpt>
      <trkpt lat="45.70099" lon="3.45184">
        <ele>584.8</ele>
        <time>2025-09-14T08:18:42Z</time>
      </trkpt>
      <trkpt lat="45.70098" lon="3.45181">
        <ele>585</ele>
        <time>2025-09-14T08:18:43Z</time>
      </trkpt>
      <trkpt lat="45.70098" lon="3.45178">
        <ele>585</ele>
        <time>2025-09-14T08:18:44Z</time>
      </trkpt>
      <trkpt lat="45.70097" lon="3.45175">
        <ele>585.2</ele>
        <time>2025-09-14T08:18:45Z</time>
      </trkpt>
      <trkpt lat="45.70095" lon="3.45172">
        <ele>585.2</ele>
        <time>2025-09-14T08:18:46Z</time>
      </trkpt>
      <trkpt lat="45.70093" lon="3.45168">
        <ele>585.4</ele>
        <time>2025-09-14T08:18:47Z</time>
      </trkpt>
      <trkpt lat="45.70091" lon="3.45165">
        <ele>585.4</ele>
        <time>2025-09-14T08:18:48Z</time>
      </trkpt>
      <trkpt lat="45.70089" lon="3.45162">
        <ele>585.6</ele>
        <time>2025-09-14T08:18:49Z</time>
      </trkpt>
      <trkpt lat="45.70088" lon="3.45158">
        <ele>585.6</ele>
        <time>2025-09-14T08:18:50Z</time>
      </trkpt>
      <trkpt lat="45.70086" lon="3.45155">
        <ele>585.8</ele>
        <time>2025-09-14T08:18:51Z</time>
      </trkpt>
      <trkpt lat="45.70084" lon="3.45152">
        <ele>586</ele>
        <time>2025-09-14T08:18:52Z</time>
      </trkpt>
      <trkpt lat="45.70082" lon="3.45148">
        <ele>586</ele>
        <time>2025-09-14T08:18:53Z</time>
      </trkpt>
      <trkpt lat="45.7008" lon="3.45145">
        <ele>586.2</ele>
        <time>2025-09-14T08:18:54Z</time>
      </trkpt>
      <trkpt lat="45.70078" lon="3.45141">
        <ele>586.2</ele>
        <time>2025-09-14T08:18:55Z</time>
      </trkpt>
      <trkpt lat="45.70076" lon="3.45138">
        <ele>586.2</ele>
        <time>2025-09-14T08:18:56Z</time>
      </trkpt>
      <trkpt lat="45.70075" lon="3.45134">
        <ele>586.4</ele>
        <time>2025-09-14T08:18:57Z</time>
      </trkpt>
      <trkpt lat="45.70073" lon="3.45131">
        <ele>586.6</ele>
        <time>2025-09-14T08:18:58Z</time>
      </trkpt>
      <trkpt lat="45.7007" lon="3.45127">
        <ele>586.6</ele>
        <time>2025-09-14T08:18:59Z</time>
      </trkpt>
      <trkpt lat="45.70068" lon="3.45123">
        <ele>586.8</ele>
        <time>2025-09-14T08:19:00Z</time>
      </trkpt>
      <trkpt lat="45.70067" lon="3.45119">
        <ele>586.8</ele>
        <time>2025-09-14T08:19:01Z</time>
      </trkpt>
      <trkpt lat="45.70065" lon="3.45116">
        <ele>587</ele>
        <time>2025-09-14T08:19:02Z</time>
      </trkpt>
      <trkpt lat="45.70063" lon="3.45112">
        <ele>587.2</ele>
        <time>2025-09-14T08:19:03Z</time>
      </trkpt>
      <trkpt lat="45.70061" lon="3.45109">
        <ele>587.4</ele>
        <time>2025-09-14T08:19:04Z</time>
      </trkpt>
      <trkpt lat="45.70059" lon="3.45105">
        <ele>587.8</ele>
        <time>2025-09-14T08:19:05Z</time>
      </trkpt>
      <trkpt lat="45.70057" lon="3.45101">
        <ele>588</ele>
        <time>2025-09-14T08:19:06Z</time>
      </trkpt>
      <trkpt lat="45.70056" lon="3.45098">
        <ele>588</ele>
        <time>2025-09-14T08:19:07Z</time>
      </trkpt>
      <trkpt lat="45.70054" lon="3.45094">
        <ele>588</ele>
        <time>2025-09-14T08:19:08Z</time>
      </trkpt>
      <trkpt lat="45.70052" lon="3.45091">
        <ele>588.2</ele>
        <time>2025-09-14T08:19:09Z</time>
      </trkpt>
      <trkpt lat="45.7005" lon="3.45087">
        <ele>588.2</ele>
        <time>2025-09-14T08:19:10Z</time>
      </trkpt>
      <trkpt lat="45.70048" lon="3.45084">
        <ele>588.4</ele>
        <time>2025-09-14T08:19:11Z</time>
      </trkpt>
      <trkpt lat="45.70046" lon="3.4508">
        <ele>588.6</ele>
        <time>2025-09-14T08:19:12Z</time>
      </trkpt>
      <trkpt lat="45.70044" lon="3.45076">
        <ele>588.8</ele>
        <time>2025-09-14T08:19:13Z</time>
      </trkpt>
      <trkpt lat="45.70042" lon="3.45073">
        <ele>588.8</ele>
        <time>2025-09-14T08:19:14Z</time>
      </trkpt>
      <trkpt lat="45.7004" lon="3.4507">
        <ele>589</ele>
        <time>2025-09-14T08:19:15Z</time>
      </trkpt>
      <trkpt lat="45.70039" lon="3.45066">
        <ele>589.2</ele>
        <time>2025-09-14T08:19:16Z</time>
      </trkpt>
      <trkpt lat="45.70037" lon="3.45063">
        <ele>589.4</ele>
        <time>2025-09-14T08:19:17Z</time>
      </trkpt>
      <trkpt lat="45.70035" lon="3.45059">
        <ele>589.6</ele>
        <time>2025-09-14T08:19:18Z</time>
      </trkpt>
      <trkpt lat="45.70033" lon="3.45055">
        <ele>589.6</ele>
        <time>2025-09-14T08:19:19Z</time>
      </trkpt>
      <trkpt lat="45.70031" lon="3.45052">
        <ele>589.8</ele>
        <time>2025-09-14T08:19:20Z</time>
      </trkpt>
      <trkpt lat="45.70029" lon="3.45048">
        <ele>590</ele>
        <time>2025-09-14T08:19:21Z</time>
      </trkpt>
      <trkpt lat="45.70027" lon="3.45044">
        <ele>590.2</ele>
        <time>2025-09-14T08:19:22Z</time>
      </trkpt>
      <trkpt lat="45.70025" lon="3.4504">
        <ele>590.4</ele>
        <time>2025-09-14T08:19:23Z</time>
      </trkpt>
      <trkpt lat="45.70023" lon="3.45037">
        <ele>590.6</ele>
        <time>2025-09-14T08:19:24Z</time>
      </trkpt>
      <trkpt lat="45.70021" lon="3.45033">
        <ele>590.6</ele>
        <time>2025-09-14T08:19:25Z</time>
      </trkpt>
      <trkpt lat="45.70019" lon="3.4503">
        <ele>590.6</ele>
        <time>2025-09-14T08:19:26Z</time>
      </trkpt>
      <trkpt lat="45.70017" lon="3.45026">
        <ele>590.8</ele>
        <time>2025-09-14T08:19:27Z</time>
      </trkpt>
      <trkpt lat="45.70015" lon="3.45022">
        <ele>591</ele>
        <time>2025-09-14T08:19:28Z</time>
      </trkpt>
      <trkpt lat="45.70013" lon="3.45019">
        <ele>591</ele>
        <time>2025-09-14T08:19:29Z</time>
      </trkpt>
      <trkpt lat="45.70011" lon="3.45015">
        <ele>591</ele>
        <time>2025-09-14T08:19:30Z</time>
      </trkpt>
      <trkpt lat="45.70009" lon="3.45011">
        <ele>591</ele>
        <time>2025-09-14T08:19:31Z</time>
      </trkpt>
      <trkpt lat="45.70007" lon="3.45008">
        <ele>591</ele>
        <time>2025-09-14T08:19:32Z</time>
      </trkpt>
      <trkpt lat="45.70005" lon="3.45004">
        <ele>591.2</ele>
        <time>2025-09-14T08:19:33Z</time>
      </trkpt>
      <trkpt lat="45.70003" lon="3.45">
        <ele>591.2</ele>
        <time>2025-09-14T08:19:34Z</time>
      </trkpt>
      <trkpt lat="45.70001" lon="3.44997">
        <ele>591.2</ele>
        <time>2025-09-14T08:19:35Z</time>
      </trkpt>
      <trkpt lat="45.69999" lon="3.44993">
        <ele>591.4</ele>
        <time>2025-09-14T08:19:36Z</time>
      </trkpt>
      <trkpt lat="45.69998" lon="3.4499">
        <ele>591.6</ele>
        <time>2025-09-14T08:19:37Z</time>
      </trkpt>
      <trkpt lat="45.69996" lon="3.44986">
        <ele>591.6</ele>
        <time>2025-09-14T08:19:38Z</time>
      </trkpt>
      <trkpt lat="45.69994" lon="3.44982">
        <ele>591.8</ele>
        <time>2025-09-14T08:19:39Z</time>
      </trkpt>
      <trkpt lat="45.69992" lon="3.44979">
        <ele>591.8</ele>
        <time>2025-09-14T08:19:40Z</time>
      </trkpt>
      <trkpt lat="45.6999" lon="3.44975">
        <ele>591.8</ele>
        <time>2025-09-14T08:19:41Z</time>
      </trkpt>
      <trkpt lat="45.69988" lon="3.44971">
        <ele>592</ele>
        <time>2025-09-14T08:19:42Z</time>
      </trkpt>
      <trkpt lat="45.69986" lon="3.44968">
        <ele>592.2</ele>
        <time>2025-09-14T08:19:43Z</time>
      </trkpt>
      <trkpt lat="45.69985" lon="3.44963">
        <ele>592.6</ele>
        <time>2025-09-14T08:19:44Z</time>
      </trkpt>
      <trkpt lat="45.69983" lon="3.44959">
        <ele>592.8</ele>
        <time>2025-09-14T08:19:45Z</time>
      </trkpt>
      <trkpt lat="45.69981" lon="3.44955">
        <ele>593</ele>
        <time>2025-09-14T08:19:46Z</time>
      </trkpt>
      <trkpt lat="45.69979" lon="3.44951">
        <ele>593</ele>
        <time>2025-09-14T08:19:47Z</time>
      </trkpt>
      <trkpt lat="45.69977" lon="3.44948">
        <ele>592.8</ele>
        <time>2025-09-14T08:19:48Z</time>
      </trkpt>
      <trkpt lat="45.69975" lon="3.44945">
        <ele>592.8</ele>
        <time>2025-09-14T08:19:49Z</time>
      </trkpt>
      <trkpt lat="45.69974" lon="3.44941">
        <ele>592.8</ele>
        <time>2025-09-14T08:19:50Z</time>
      </trkpt>
      <trkpt lat="45.69972" lon="3.44937">
        <ele>593</ele>
        <time>2025-09-14T08:19:51Z</time>
      </trkpt>
      <trkpt lat="45.6997" lon="3.44934">
        <ele>593.2</ele>
        <time>2025-09-14T08:19:52Z</time>
      </trkpt>
      <trkpt lat="45.69969" lon="3.4493">
        <ele>593.4</ele>
        <time>2025-09-14T08:19:53Z</time>
      </trkpt>
      <trkpt lat="45.69967" lon="3.44927">
        <ele>593.4</ele>
        <time>2025-09-14T08:19:54Z</time>
      </trkpt>
      <trkpt lat="45.69965" lon="3.44923">
        <ele>593.4</ele>
        <time>2025-09-14T08:19:55Z</time>
      </trkpt>
      <trkpt lat="45.69963" lon="3.44919">
        <ele>593.6</ele>
        <time>2025-09-14T08:19:56Z</time>
      </trkpt>
      <trkpt lat="45.69961" lon="3.44915">
        <ele>593.6</ele>
        <time>2025-09-14T08:19:57Z</time>
      </trkpt>
      <trkpt lat="45.69959" lon="3.44912">
        <ele>593.8</ele>
        <time>2025-09-14T08:19:58Z</time>
      </trkpt>
      <trkpt lat="45.69957" lon="3.44908">
        <ele>594</ele>
        <time>2025-09-14T08:19:59Z</time>
      </trkpt>
      <trkpt lat="45.69955" lon="3.44904">
        <ele>594.2</ele>
        <time>2025-09-14T08:20:00Z</time>
      </trkpt>
      <trkpt lat="45.69953" lon="3.44901">
        <ele>594.2</ele>
        <time>2025-09-14T08:20:01Z</time>
      </trkpt>
      <trkpt lat="45.69951" lon="3.44897">
        <ele>594.4</ele>
        <time>2025-09-14T08:20:02Z</time>
      </trkpt>
      <trkpt lat="45.69949" lon="3.44893">
        <ele>594.4</ele>
        <time>2025-09-14T08:20:03Z</time>
      </trkpt>
      <trkpt lat="45.69948" lon="3.4489">
        <ele>594.4</ele>
        <time>2025-09-14T08:20:04Z</time>
      </trkpt>
      <trkpt lat="45.69946" lon="3.44886">
        <ele>594.6</ele>
        <time>2025-09-14T08:20:05Z</time>
      </trkpt>
      <trkpt lat="45.69945" lon="3.44882">
        <ele>594.8</ele>
        <time>2025-09-14T08:20:06Z</time>
      </trkpt>
      <trkpt lat="45.69944" lon="3.44878">
        <ele>594.8</ele>
        <time>2025-09-14T08:20:07Z</time>
      </trkpt>
      <trkpt lat="45.69943" lon="3.44873">
        <ele>595.2</ele>
        <time>2025-09-14T08:20:08Z</time>
      </trkpt>
      <trkpt lat="45.69942" lon="3.44869">
        <ele>595.2</ele>
        <time>2025-09-14T08:20:09Z</time>
      </trkpt>
      <trkpt lat="45.69941" lon="3.44865">
        <ele>595.4</ele>
        <time>2025-09-14T08:20:10Z</time>
      </trkpt>
      <trkpt lat="45.6994" lon="3.44861">
        <ele>595.6</ele>
        <time>2025-09-14T08:20:11Z</time>
      </trkpt>
      <trkpt lat="45.69939" lon="3.44857">
        <ele>595.8</ele>
        <time>2025-09-14T08:20:12Z</time>
      </trkpt>
      <trkpt lat="45.69938" lon="3.44853">
        <ele>596</ele>
        <time>2025-09-14T08:20:13Z</time>
      </trkpt>
      <trkpt lat="45.69937" lon="3.44849">
        <ele>596.2</ele>
        <time>2025-09-14T08:20:14Z</time>
      </trkpt>
      <trkpt lat="45.69936" lon="3.44846">
        <ele>596.4</ele>
        <time>2025-09-14T08:20:15Z</time>
      </trkpt>
      <trkpt lat="45.69935" lon="3.44842">
        <ele>596.6</ele>
        <time>2025-09-14T08:20:16Z</time>
      </trkpt>
      <trkpt lat="45.69935" lon="3.44838">
        <ele>597</ele>
        <time>2025-09-14T08:20:17Z</time>
      </trkpt>
      <trkpt lat="45.69934" lon="3.44835">
        <ele>597.2</ele>
        <time>2025-09-14T08:20:18Z</time>
      </trkpt>
      <trkpt lat="45.69933" lon="3.44831">
        <ele>597.4</ele>
        <time>2025-09-14T08:20:19Z</time>
      </trkpt>
      <trkpt lat="45.69933" lon="3.44827">
        <ele>597.6</ele>
        <time>2025-09-14T08:20:20Z</time>
      </trkpt>
      <trkpt lat="45.69932" lon="3.44824">
        <ele>598</ele>
        <time>2025-09-14T08:20:21Z</time>
      </trkpt>
      <trkpt lat="45.69932" lon="3.4482">
        <ele>598.2</ele>
        <time>2025-09-14T08:20:22Z</time>
      </trkpt>
      <trkpt lat="45.69931" lon="3.44816">
        <ele>598</ele>
        <time>2025-09-14T08:20:23Z</time>
      </trkpt>
      <trkpt lat="45.69931" lon="3.44813">
        <ele>598.2</ele>
        <time>2025-09-14T08:20:24Z</time>
      </trkpt>
      <trkpt lat="45.6993" lon="3.44809">
        <ele>598.4</ele>
        <time>2025-09-14T08:20:25Z</time>
      </trkpt>
      <trkpt lat="45.69929" lon="3.44806">
        <ele>598.6</ele>
        <time>2025-09-14T08:20:26Z</time>
      </trkpt>
      <trkpt lat="45.69929" lon="3.44802">
        <ele>599</ele>
        <time>2025-09-14T08:20:27Z</time>
      </trkpt>
      <trkpt lat="45.69928" lon="3.44799">
        <ele>599.2</ele>
        <time>2025-09-14T08:20:28Z</time>
      </trkpt>
      <trkpt lat="45.69927" lon="3.44796">
        <ele>599.4</ele>
        <time>2025-09-14T08:20:29Z</time>
      </trkpt>
      <trkpt lat="45.69927" lon="3.44792">
        <ele>599.4</ele>
        <time>2025-09-14T08:20:30Z</time>
      </trkpt>
      <trkpt lat="45.69926" lon="3.44789">
        <ele>599.6</ele>
        <time>2025-09-14T08:20:31Z</time>
      </trkpt>
      <trkpt lat="45.69926" lon="3.44786">
        <ele>599.8</ele>
        <time>2025-09-14T08:20:32Z</time>
      </trkpt>
      <trkpt lat="45.69925" lon="3.44782">
        <ele>600</ele>
        <time>2025-09-14T08:20:33Z</time>
      </trkpt>
      <trkpt lat="45.69924" lon="3.44779">
        <ele>600</ele>
        <time>2025-09-14T08:20:34Z</time>
      </trkpt>
      <trkpt lat="45.69923" lon="3.44775">
        <ele>600</ele>
        <time>2025-09-14T08:20:35Z</time>
      </trkpt>
      <trkpt lat="45.69922" lon="3.44772">
        <ele>600.2</ele>
        <time>2025-09-14T08:20:36Z</time>
      </trkpt>
      <trkpt lat="45.69921" lon="3.44768">
        <ele>600.2</ele>
        <time>2025-09-14T08:20:37Z</time>
      </trkpt>
      <trkpt lat="45.6992" lon="3.44764">
        <ele>600.4</ele>
        <time>2025-09-14T08:20:38Z</time>
      </trkpt>
      <trkpt lat="45.69919" lon="3.4476">
        <ele>600.6</ele>
        <time>2025-09-14T08:20:39Z</time>
      </trkpt>
      <trkpt lat="45.69919" lon="3.44756">
        <ele>600.8</ele>
        <time>2025-09-14T08:20:40Z</time>
      </trkpt>
      <trkpt lat="45.69918" lon="3.44752">
        <ele>601</ele>
        <time>2025-09-14T08:20:41Z</time>
      </trkpt>
      <trkpt lat="45.69917" lon="3.44748">
        <ele>601.2</ele>
        <time>2025-09-14T08:20:42Z</time>
      </trkpt>
      <trkpt lat="45.69916" lon="3.44744">
        <ele>601.6</ele>
        <time>2025-09-14T08:20:43Z</time>
      </trkpt>
      <trkpt lat="45.69915" lon="3.4474">
        <ele>601.6</ele>
        <time>2025-09-14T08:20:44Z</time>
      </trkpt>
      <trkpt lat="45.69914" lon="3.44735">
        <ele>601.6</ele>
        <time>2025-09-14T08:20:45Z</time>
      </trkpt>
      <trkpt lat="45.69913" lon="3.44731">
        <ele>601.8</ele>
        <time>2025-09-14T08:20:46Z</time>
      </trkpt>
      <trkpt lat="45.69912" lon="3.44727">
        <ele>601.8</ele>
        <time>2025-09-14T08:20:47Z</time>
      </trkpt>
      <trkpt lat="45.69911" lon="3.44723">
        <ele>601.8</ele>
        <time>2025-09-14T08:20:48Z</time>
      </trkpt>
      <trkpt lat="45.6991" lon="3.44719">
        <ele>602</ele>
        <time>2025-09-14T08:20:49Z</time>
      </trkpt>
      <trkpt lat="45.69909" lon="3.44714">
        <ele>602.2</ele>
        <time>2025-09-14T08:20:50Z</time>
      </trkpt>
      <trkpt lat="45.69908" lon="3.4471">
        <ele>602.2</ele>
        <time>2025-09-14T08:20:51Z</time>
      </trkpt>
      <trkpt lat="45.69907" lon="3.44706">
        <ele>602.2</ele>
        <time>2025-09-14T08:20:52Z</time>
      </trkpt>
      <trkpt lat="45.69906" lon="3.44701">
        <ele>602.4</ele>
        <time>2025-09-14T08:20:53Z</time>
      </trkpt>
      <trkpt lat="45.69905" lon="3.44697">
        <ele>602.4</ele>
        <time>2025-09-14T08:20:54Z</time>
      </trkpt>
      <trkpt lat="45.69904" lon="3.44693">
        <ele>602.4</ele>
        <time>2025-09-14T08:20:55Z</time>
      </trkpt>
      <trkpt lat="45.69903" lon="3.44689">
        <ele>602.6</ele>
        <time>2025-09-14T08:20:56Z</time>
      </trkpt>
      <trkpt lat="45.69902" lon="3.44684">
        <ele>602.6</ele>
        <time>2025-09-14T08:20:57Z</time>
      </trkpt>
      <trkpt lat="45.69901" lon="3.4468">
        <ele>602.6</ele>
        <time>2025-09-14T08:20:58Z</time>
      </trkpt>
      <trkpt lat="45.699" lon="3.44675">
        <ele>602.8</ele>
        <time>2025-09-14T08:20:59Z</time>
      </trkpt>
      <trkpt lat="45.69899" lon="3.44671">
        <ele>603</ele>
        <time>2025-09-14T08:21:00Z</time>
      </trkpt>
      <trkpt lat="45.69898" lon="3.44667">
        <ele>603.2</ele>
        <time>2025-09-14T08:21:01Z</time>
      </trkpt>
      <trkpt lat="45.69897" lon="3.44663">
        <ele>603.2</ele>
        <time>2025-09-14T08:21:02Z</time>
      </trkpt>
      <trkpt lat="45.69896" lon="3.44658">
        <ele>603.2</ele>
        <time>2025-09-14T08:21:03Z</time>
      </trkpt>
      <trkpt lat="45.69895" lon="3.44654">
        <ele>603.2</ele>
        <time>2025-09-14T08:21:04Z</time>
      </trkpt>
      <trkpt lat="45.69894" lon="3.44649">
        <ele>603.4</ele>
        <time>2025-09-14T08:21:05Z</time>
      </trkpt>
      <trkpt lat="45.69893" lon="3.44645">
        <ele>603.4</ele>
        <time>2025-09-14T08:21:06Z</time>
      </trkpt>
      <trkpt lat="45.69892" lon="3.4464">
        <ele>603.6</ele>
        <time>2025-09-14T08:21:07Z</time>
      </trkpt>
      <trkpt lat="45.69891" lon="3.44636">
        <ele>603.8</ele>
        <time>2025-09-14T08:21:08Z</time>
      </trkpt>
      <trkpt lat="45.6989" lon="3.44632">
        <ele>603.8</ele>
        <time>2025-09-14T08:21:09Z</time>
      </trkpt>
      <trkpt lat="45.69889" lon="3.44628">
        <ele>604</ele>
        <time>2025-09-14T08:21:10Z</time>
      </trkpt>
      <trkpt lat="45.69888" lon="3.44623">
        <ele>604.2</ele>
        <time>2025-09-14T08:21:11Z</time>
      </trkpt>
      <trkpt lat="45.69887" lon="3.44619">
        <ele>604.4</ele>
        <time>2025-09-14T08:21:12Z</time>
      </trkpt>
      <trkpt lat="45.69887" lon="3.44614">
        <ele>604.6</ele>
        <time>2025-09-14T08:21:13Z</time>
      </trkpt>
      <trkpt lat="45.69885" lon="3.4461">
        <ele>604.6</ele>
        <time>2025-09-14T08:21:14Z</time>
      </trkpt>
      <trkpt lat="45.69884" lon="3.44606">
        <ele>604.8</ele>
        <time>2025-09-14T08:21:15Z</time>
      </trkpt>
      <trkpt lat="45.69884" lon="3.44602">
        <ele>604.6</ele>
        <time>2025-09-14T08:21:16Z</time>
      </trkpt>
      <trkpt lat="45.69883" lon="3.44597">
        <ele>604.8</ele>
        <time>2025-09-14T08:21:17Z</time>
      </trkpt>
      <trkpt lat="45.69882" lon="3.44593">
        <ele>604.8</ele>
        <time>2025-09-14T08:21:18Z</time>
      </trkpt>
      <trkpt lat="45.69881" lon="3.44589">
        <ele>605</ele>
        <time>2025-09-14T08:21:19Z</time>
      </trkpt>
      <trkpt lat="45.69879" lon="3.44584">
        <ele>605.4</ele>
        <time>2025-09-14T08:21:20Z</time>
      </trkpt>
      <trkpt lat="45.69879" lon="3.4458">
        <ele>605.4</ele>
        <time>2025-09-14T08:21:21Z</time>
      </trkpt>
      <trkpt lat="45.69878" lon="3.44576">
        <ele>605.4</ele>
        <time>2025-09-14T08:21:22Z</time>
      </trkpt>
      <trkpt lat="45.69877" lon="3.44571">
        <ele>605.4</ele>
        <time>2025-09-14T08:21:23Z</time>
      </trkpt>
      <trkpt lat="45.69876" lon="3.44567">
        <ele>605.4</ele>
        <time>2025-09-14T08:21:24Z</time>
      </trkpt>
      <trkpt lat="45.69875" lon="3.44563">
        <ele>605.4</ele>
        <time>2025-09-14T08:21:25Z</time>
      </trkpt>
      <trkpt lat="45.69874" lon="3.44558">
        <ele>605.6</ele>
        <time>2025-09-14T08:21:26Z</time>
      </trkpt>
      <trkpt lat="45.69874" lon="3.44553">
        <ele>605.6</ele>
        <time>2025-09-14T08:21:27Z</time>
      </trkpt>
      <trkpt lat="45.69873" lon="3.44549">
        <ele>605.8</ele>
        <time>2025-09-14T08:21:28Z</time>
      </trkpt>
      <trkpt lat="45.69872" lon="3.44544">
        <ele>605.8</ele>
        <time>2025-09-14T08:21:29Z</time>
      </trkpt>
      <trkpt lat="45.69871" lon="3.4454">
        <ele>606</ele>
        <time>2025-09-14T08:21:30Z</time>
      </trkpt>
      <trkpt lat="45.69869" lon="3.44536">
        <ele>606.2</ele>
        <time>2025-09-14T08:21:31Z</time>
      </trkpt>
      <trkpt lat="45.69868" lon="3.44532">
        <ele>606.6</ele>
        <time>2025-09-14T08:21:32Z</time>
      </trkpt>
      <trkpt lat="45.69868" lon="3.44528">
        <ele>606.8</ele>
        <time>2025-09-14T08:21:33Z</time>
      </trkpt>
      <trkpt lat="45.69866" lon="3.44523">
        <ele>606.8</ele>
        <time>2025-09-14T08:21:34Z</time>
      </trkpt>
      <trkpt lat="45.69866" lon="3.44519">
        <ele>606.8</ele>
        <time>2025-09-14T08:21:35Z</time>
      </trkpt>
      <trkpt lat="45.69865" lon="3.44514">
        <ele>607</ele>
        <time>2025-09-14T08:21:36Z</time>
      </trkpt>
      <trkpt lat="45.69864" lon="3.4451">
        <ele>607.2</ele>
        <time>2025-09-14T08:21:37Z</time>
      </trkpt>
      <trkpt lat="45.69863" lon="3.44505">
        <ele>607.4</ele>
        <time>2025-09-14T08:21:38Z</time>
      </trkpt>
      <trkpt lat="45.69862" lon="3.44501">
        <ele>607.6</ele>
        <time>2025-09-14T08:21:39Z</time>
      </trkpt>
      <trkpt lat="45.69861" lon="3.44497">
        <ele>607.8</ele>
        <time>2025-09-14T08:21:40Z</time>
      </trkpt>
      <trkpt lat="45.6986" lon="3.44492">
        <ele>608</ele>
        <time>2025-09-14T08:21:41Z</time>
      </trkpt>
      <trkpt lat="45.69858" lon="3.44488">
        <ele>608.2</ele>
        <time>2025-09-14T08:21:42Z</time>
      </trkpt>
      <trkpt lat="45.69857" lon="3.44484">
        <ele>608.4</ele>
        <time>2025-09-14T08:21:43Z</time>
      </trkpt>
      <trkpt lat="45.69856" lon="3.44479">
        <ele>608.4</ele>
        <time>2025-09-14T08:21:44Z</time>
      </trkpt>
      <trkpt lat="45.69855" lon="3.44475">
        <ele>608.4</ele>
        <time>2025-09-14T08:21:45Z</time>
      </trkpt>
      <trkpt lat="45.69854" lon="3.4447">
        <ele>608.6</ele>
        <time>2025-09-14T08:21:46Z</time>
      </trkpt>
      <trkpt lat="45.69853" lon="3.44466">
        <ele>608.6</ele>
        <time>2025-09-14T08:21:47Z</time>
      </trkpt>
      <trkpt lat="45.69853" lon="3.44462">
        <ele>608.8</ele>
        <time>2025-09-14T08:21:48Z</time>
      </trkpt>
      <trkpt lat="45.69852" lon="3.44458">
        <ele>608.8</ele>
        <time>2025-09-14T08:21:49Z</time>
      </trkpt>
      <trkpt lat="45.69851" lon="3.44453">
        <ele>609</ele>
        <time>2025-09-14T08:21:50Z</time>
      </trkpt>
      <trkpt lat="45.6985" lon="3.44449">
        <ele>609.2</ele>
        <time>2025-09-14T08:21:51Z</time>
      </trkpt>
      <trkpt lat="45.69849" lon="3.44445">
        <ele>609.4</ele>
        <time>2025-09-14T08:21:52Z</time>
      </trkpt>
      <trkpt lat="45.69848" lon="3.4444">
        <ele>609.6</ele>
        <time>2025-09-14T08:21:53Z</time>
      </trkpt>
      <trkpt lat="45.69847" lon="3.44436">
        <ele>609.8</ele>
        <time>2025-09-14T08:21:54Z</time>
      </trkpt>
      <trkpt lat="45.69845" lon="3.44433">
        <ele>610.2</ele>
        <time>2025-09-14T08:21:55Z</time>
      </trkpt>
      <trkpt lat="45.69844" lon="3.44429">
        <ele>610.2</ele>
        <time>2025-09-14T08:21:56Z</time>
      </trkpt>
      <trkpt lat="45.69843" lon="3.44425">
        <ele>610.2</ele>
        <time>2025-09-14T08:21:57Z</time>
      </trkpt>
      <trkpt lat="45.69841" lon="3.44421">
        <ele>610.4</ele>
        <time>2025-09-14T08:21:58Z</time>
      </trkpt>
      <trkpt lat="45.6984" lon="3.44417">
        <ele>610.4</ele>
        <time>2025-09-14T08:21:59Z</time>
      </trkpt>
      <trkpt lat="45.69839" lon="3.44413">
        <ele>610.6</ele>
        <time>2025-09-14T08:22:00Z</time>
      </trkpt>
      <trkpt lat="45.69838" lon="3.4441">
        <ele>610.8</ele>
        <time>2025-09-14T08:22:01Z</time>
      </trkpt>
      <trkpt lat="45.69837" lon="3.44406">
        <ele>611</ele>
        <time>2025-09-14T08:22:02Z</time>
      </trkpt>
      <trkpt lat="45.69836" lon="3.44401">
        <ele>611.2</ele>
        <time>2025-09-14T08:22:03Z</time>
      </trkpt>
      <trkpt lat="45.69835" lon="3.44397">
        <ele>611.6</ele>
        <time>2025-09-14T08:22:04Z</time>
      </trkpt>
      <trkpt lat="45.69834" lon="3.44393">
        <ele>612</ele>
        <time>2025-09-14T08:22:05Z</time>
      </trkpt>
      <trkpt lat="45.69832" lon="3.44389">
        <ele>612.2</ele>
        <time>2025-09-14T08:22:06Z</time>
      </trkpt>
      <trkpt lat="45.69831" lon="3.44385">
        <ele>612.4</ele>
        <time>2025-09-14T08:22:07Z</time>
      </trkpt>
      <trkpt lat="45.69829" lon="3.44382">
        <ele>612.6</ele>
        <time>2025-09-14T08:22:08Z</time>
      </trkpt>
      <trkpt lat="45.69828" lon="3.44379">
        <ele>612.8</ele>
        <time>2025-09-14T08:22:09Z</time>
      </trkpt>
      <trkpt lat="45.69828" lon="3.44375">
        <ele>613</ele>
        <time>2025-09-14T08:22:10Z</time>
      </trkpt>
      <trkpt lat="45.69826" lon="3.44372">
        <ele>613</ele>
        <time>2025-09-14T08:22:11Z</time>
      </trkpt>
      <trkpt lat="45.69825" lon="3.44368">
        <ele>613.2</ele>
        <time>2025-09-14T08:22:12Z</time>
      </trkpt>
      <trkpt lat="45.69824" lon="3.44364">
        <ele>613.2</ele>
        <time>2025-09-14T08:22:13Z</time>
      </trkpt>
      <trkpt lat="45.69822" lon="3.44361">
        <ele>613.4</ele>
        <time>2025-09-14T08:22:14Z</time>
      </trkpt>
      <trkpt lat="45.69821" lon="3.44357">
        <ele>613.6</ele>
        <time>2025-09-14T08:22:15Z</time>
      </trkpt>
      <trkpt lat="45.69819" lon="3.44354">
        <ele>613.8</ele>
        <time>2025-09-14T08:22:16Z</time>
      </trkpt>
      <trkpt lat="45.69818" lon="3.4435">
        <ele>614</ele>
        <time>2025-09-14T08:22:17Z</time>
      </trkpt>
      <trkpt lat="45.69817" lon="3.44346">
        <ele>614</ele>
        <time>2025-09-14T08:22:18Z</time>
      </trkpt>
      <trkpt lat="45.69816" lon="3.44342">
        <ele>614.2</ele>
        <time>2025-09-14T08:22:19Z</time>
      </trkpt>
      <trkpt lat="45.69814" lon="3.44338">
        <ele>614.2</ele>
        <time>2025-09-14T08:22:20Z</time>
      </trkpt>
      <trkpt lat="45.69813" lon="3.44334">
        <ele>614.4</ele>
        <time>2025-09-14T08:22:21Z</time>
      </trkpt>
      <trkpt lat="45.69812" lon="3.4433">
        <ele>614.4</ele>
        <time>2025-09-14T08:22:22Z</time>
      </trkpt>
      <trkpt lat="45.6981" lon="3.44326">
        <ele>614.4</ele>
        <time>2025-09-14T08:22:23Z</time>
      </trkpt>
      <trkpt lat="45.69809" lon="3.44322">
        <ele>614.4</ele>
        <time>2025-09-14T08:22:24Z</time>
      </trkpt>
      <trkpt lat="45.69808" lon="3.44318">
        <ele>614.4</ele>
        <time>2025-09-14T08:22:25Z</time>
      </trkpt>
      <trkpt lat="45.69806" lon="3.44314">
        <ele>614.6</ele>
        <time>2025-09-14T08:22:26Z</time>
      </trkpt>
      <trkpt lat="45.69805" lon="3.4431">
        <ele>614.6</ele>
        <time>2025-09-14T08:22:27Z</time>
      </trkpt>
      <trkpt lat="45.69804" lon="3.44306">
        <ele>614.6</ele>
        <time>2025-09-14T08:22:28Z</time>
      </trkpt>
      <trkpt lat="45.69803" lon="3.44302">
        <ele>614.6</ele>
        <time>2025-09-14T08:22:29Z</time>
      </trkpt>
      <trkpt lat="45.69801" lon="3.44297">
        <ele>614.4</ele>
        <time>2025-09-14T08:22:30Z</time>
      </trkpt>
      <trkpt lat="45.698" lon="3.44293">
        <ele>614.2</ele>
        <time>2025-09-14T08:22:31Z</time>
      </trkpt>
      <trkpt lat="45.69798" lon="3.44289">
        <ele>614</ele>
        <time>2025-09-14T08:22:32Z</time>
      </trkpt>
      <trkpt lat="45.69797" lon="3.44284">
        <ele>614</ele>
        <time>2025-09-14T08:22:33Z</time>
      </trkpt>
      <trkpt lat="45.69795" lon="3.4428">
        <ele>614</ele>
        <time>2025-09-14T08:22:34Z</time>
      </trkpt>
      <trkpt lat="45.69793" lon="3.44275">
        <ele>613.8</ele>
        <time>2025-09-14T08:22:35Z</time>
      </trkpt>
      <trkpt lat="45.69792" lon="3.44271">
        <ele>613.6</ele>
        <time>2025-09-14T08:22:36Z</time>
      </trkpt>
      <trkpt lat="45.6979" lon="3.44267">
        <ele>613.6</ele>
        <time>2025-09-14T08:22:37Z</time>
      </trkpt>
      <trkpt lat="45.69789" lon="3.44264">
        <ele>613.6</ele>
        <time>2025-09-14T08:22:38Z</time>
      </trkpt>
      <trkpt lat="45.69788" lon="3.44261">
        <ele>613.4</ele>
        <time>2025-09-14T08:22:39Z</time>
      </trkpt>
      <trkpt lat="45.69787" lon="3.44258">
        <ele>613.4</ele>
        <time>2025-09-14T08:22:40Z</time>
      </trkpt>
      <trkpt lat="45.69785" lon="3.44256">
        <ele>613.4</ele>
        <time>2025-09-14T08:22:41Z</time>
      </trkpt>
      <trkpt lat="45.69784" lon="3.44255">
        <ele>613.2</ele>
        <time>2025-09-14T08:22:42Z</time>
      </trkpt>
      <trkpt lat="45.69783" lon="3.44254">
        <ele>613.2</ele>
        <time>2025-09-14T08:22:43Z</time>
      </trkpt>
      <trkpt lat="45.69782" lon="3.44252">
        <ele>613.2</ele>
        <time>2025-09-14T08:22:44Z</time>
      </trkpt>
      <trkpt lat="45.69781" lon="3.4425">
        <ele>613.2</ele>
        <time>2025-09-14T08:22:45Z</time>
      </trkpt>
      <trkpt lat="45.6978" lon="3.44248">
        <ele>613.2</ele>
        <time>2025-09-14T08:22:46Z</time>
      </trkpt>
      <trkpt lat="45.6978" lon="3.44246">
        <ele>613</ele>
        <time>2025-09-14T08:22:47Z</time>
      </trkpt>
      <trkpt lat="45.6978" lon="3.44245">
        <ele>613</ele>
        <time>2025-09-14T08:22:48Z</time>
      </trkpt>
      <trkpt lat="45.6978" lon="3.44243">
        <ele>613</ele>
        <time>2025-09-14T08:22:49Z</time>
      </trkpt>
      <trkpt lat="45.69778" lon="3.44232">
        <ele>612.6</ele>
        <time>2025-09-14T08:27:02Z</time>
      </trkpt>
      <trkpt lat="45.69778" lon="3.44229">
        <ele>612.6</ele>
        <time>2025-09-14T08:27:03Z</time>
      </trkpt>
      <trkpt lat="45.69779" lon="3.44226">
        <ele>612.6</ele>
        <time>2025-09-14T08:27:04Z</time>
      </trkpt>
      <trkpt lat="45.6978" lon="3.44223">
        <ele>612.6</ele>
        <time>2025-09-14T08:27:05Z</time>
      </trkpt>
      <trkpt lat="45.6978" lon="3.44219">
        <ele>612.8</ele>
        <time>2025-09-14T08:27:06Z</time>
      </trkpt>
      <trkpt lat="45.6978" lon="3.44216">
        <ele>612.8</ele>
        <time>2025-09-14T08:27:07Z</time>
      </trkpt>
      <trkpt lat="45.69781" lon="3.44212">
        <ele>612.8</ele>
        <time>2025-09-14T08:27:08Z</time>
      </trkpt>
      <trkpt lat="45.69782" lon="3.44208">
        <ele>613</ele>
        <time>2025-09-14T08:27:09Z</time>
      </trkpt>
      <trkpt lat="45.69783" lon="3.44204">
        <ele>613</ele>
        <time>2025-09-14T08:27:10Z</time>
      </trkpt>
      <trkpt lat="45.69784" lon="3.442">
        <ele>613.2</ele>
        <time>2025-09-14T08:27:11Z</time>
      </trkpt>
      <trkpt lat="45.69786" lon="3.44197">
        <ele>613.4</ele>
        <time>2025-09-14T08:27:12Z</time>
      </trkpt>
      <trkpt lat="45.69788" lon="3.44194">
        <ele>613.6</ele>
        <time>2025-09-14T08:27:13Z</time>
      </trkpt>
      <trkpt lat="45.69789" lon="3.44191">
        <ele>613.8</ele>
        <time>2025-09-14T08:27:14Z</time>
      </trkpt>
      <trkpt lat="45.69791" lon="3.44187">
        <ele>613.8</ele>
        <time>2025-09-14T08:27:15Z</time>
      </trkpt>
      <trkpt lat="45.69793" lon="3.44184">
        <ele>613.8</ele>
        <time>2025-09-14T08:27:16Z</time>
      </trkpt>
      <trkpt lat="45.69795" lon="3.44181">
        <ele>613.8</ele>
        <time>2025-09-14T08:27:17Z</time>
      </trkpt>
      <trkpt lat="45.69797" lon="3.44179">
        <ele>614</ele>
        <time>2025-09-14T08:27:18Z</time>
      </trkpt>
      <trkpt lat="45.69798" lon="3.44176">
        <ele>614</ele>
        <time>2025-09-14T08:27:19Z</time>
      </trkpt>
      <trkpt lat="45.69799" lon="3.44173">
        <ele>614.4</ele>
        <time>2025-09-14T08:27:20Z</time>
      </trkpt>
      <trkpt lat="45.69801" lon="3.4417">
        <ele>614.4</ele>
        <time>2025-09-14T08:27:21Z</time>
      </trkpt>
      <trkpt lat="45.69802" lon="3.44166">
        <ele>614.6</ele>
        <time>2025-09-14T08:27:22Z</time>
      </trkpt>
      <trkpt lat="45.69804" lon="3.44162">
        <ele>614.6</ele>
        <time>2025-09-14T08:27:23Z</time>
      </trkpt>
      <trkpt lat="45.69805" lon="3.44159">
        <ele>614.8</ele>
        <time>2025-09-14T08:27:24Z</time>
      </trkpt>
      <trkpt lat="45.69807" lon="3.44155">
        <ele>615</ele>
        <time>2025-09-14T08:27:25Z</time>
      </trkpt>
      <trkpt lat="45.69808" lon="3.4415">
        <ele>615</ele>
        <time>2025-09-14T08:27:26Z</time>
      </trkpt>
      <trkpt lat="45.6981" lon="3.44146">
        <ele>615.2</ele>
        <time>2025-09-14T08:27:27Z</time>
      </trkpt>
      <trkpt lat="45.69811" lon="3.44143">
        <ele>615.4</ele>
        <time>2025-09-14T08:27:28Z</time>
      </trkpt>
      <trkpt lat="45.69813" lon="3.44138">
        <ele>615.6</ele>
        <time>2025-09-14T08:27:29Z</time>
      </trkpt>
      <trkpt lat="45.69814" lon="3.44134">
        <ele>615.8</ele>
        <time>2025-09-14T08:27:30Z</time>
      </trkpt>
      <trkpt lat="45.69816" lon="3.4413">
        <ele>616</ele>
        <time>2025-09-14T08:27:31Z</time>
      </trkpt>
      <trkpt lat="45.69817" lon="3.44125">
        <ele>616.2</ele>
        <time>2025-09-14T08:27:32Z</time>
      </trkpt>
      <trkpt lat="45.69818" lon="3.44121">
        <ele>616.6</ele>
        <time>2025-09-14T08:27:33Z</time>
      </trkpt>
      <trkpt lat="45.69819" lon="3.44116">
        <ele>616.8</ele>
        <time>2025-09-14T08:27:34Z</time>
      </trkpt>
      <trkpt lat="45.6982" lon="3.44112">
        <ele>617</ele>
        <time>2025-09-14T08:27:35Z</time>
      </trkpt>
      <trkpt lat="45.69821" lon="3.44108">
        <ele>617</ele>
        <time>2025-09-14T08:27:36Z</time>
      </trkpt>
      <trkpt lat="45.69822" lon="3.44105">
        <ele>617</ele>
        <time>2025-09-14T08:27:37Z</time>
      </trkpt>
      <trkpt lat="45.69822" lon="3.44102">
        <ele>617</ele>
        <time>2025-09-14T08:27:38Z</time>
      </trkpt>
      <trkpt lat="45.69823" lon="3.44098">
        <ele>617.2</ele>
        <time>2025-09-14T08:27:39Z</time>
      </trkpt>
      <trkpt lat="45.69824" lon="3.44094">
        <ele>617.4</ele>
        <time>2025-09-14T08:27:40Z</time>
      </trkpt>
      <trkpt lat="45.69824" lon="3.4409">
        <ele>617.2</ele>
        <time>2025-09-14T08:27:41Z</time>
      </trkpt>
      <trkpt lat="45.69825" lon="3.44086">
        <ele>617.2</ele>
        <time>2025-09-14T08:27:42Z</time>
      </trkpt>
      <trkpt lat="45.69826" lon="3.44082">
        <ele>617.4</ele>
        <time>2025-09-14T08:27:43Z</time>
      </trkpt>
      <trkpt lat="45.69828" lon="3.44077">
        <ele>617.6</ele>
        <time>2025-09-14T08:27:44Z</time>
      </trkpt>
      <trkpt lat="45.69829" lon="3.44072">
        <ele>617.8</ele>
        <time>2025-09-14T08:27:45Z</time>
      </trkpt>
      <trkpt lat="45.69831" lon="3.44068">
        <ele>617.8</ele>
        <time>2025-09-14T08:27:46Z</time>
      </trkpt>
      <trkpt lat="45.69833" lon="3.44063">
        <ele>617.8</ele>
        <time>2025-09-14T08:27:47Z</time>
      </trkpt>
      <trkpt lat="45.69835" lon="3.44058">
        <ele>618</ele>
        <time>2025-09-14T08:27:48Z</time>
      </trkpt>
      <trkpt lat="45.69837" lon="3.44053">
        <ele>618.4</ele>
        <time>2025-09-14T08:27:49Z</time>
      </trkpt>
      <trkpt lat="45.69838" lon="3.44048">
        <ele>618.4</ele>
        <time>2025-09-14T08:27:50Z</time>
      </trkpt>
      <trkpt lat="45.69839" lon="3.44043">
        <ele>618.4</ele>
        <time>2025-09-14T08:27:51Z</time>
      </trkpt>
      <trkpt lat="45.69841" lon="3.44039">
        <ele>618.2</ele>
        <time>2025-09-14T08:27:52Z</time>
      </trkpt>
      <trkpt lat="45.69842" lon="3.44035">
        <ele>618.2</ele>
        <time>2025-09-14T08:27:53Z</time>
      </trkpt>
      <trkpt lat="45.69844" lon="3.44031">
        <ele>618.2</ele>
        <time>2025-09-14T08:27:54Z</time>
      </trkpt>
      <trkpt lat="45.69845" lon="3.44026">
        <ele>618.2</ele>
        <time>2025-09-14T08:27:55Z</time>
      </trkpt>
      <trkpt lat="45.69846" lon="3.44021">
        <ele>618</ele>
        <time>2025-09-14T08:27:56Z</time>
      </trkpt>
      <trkpt lat="45.69847" lon="3.44017">
        <ele>618</ele>
        <time>2025-09-14T08:27:57Z</time>
      </trkpt>
      <trkpt lat="45.69849" lon="3.44012">
        <ele>617.8</ele>
        <time>2025-09-14T08:27:58Z</time>
      </trkpt>
      <trkpt lat="45.69851" lon="3.44007">
        <ele>617.8</ele>
        <time>2025-09-14T08:27:59Z</time>
      </trkpt>
      <trkpt lat="45.69853" lon="3.44003">
        <ele>617.6</ele>
        <time>2025-09-14T08:28:00Z</time>
      </trkpt>
      <trkpt lat="45.69855" lon="3.43999">
        <ele>617.6</ele>
        <time>2025-09-14T08:28:01Z</time>
      </trkpt>
      <trkpt lat="45.69857" lon="3.43994">
        <ele>617.4</ele>
        <time>2025-09-14T08:28:02Z</time>
      </trkpt>
      <trkpt lat="45.69859" lon="3.4399">
        <ele>617.2</ele>
        <time>2025-09-14T08:28:03Z</time>
      </trkpt>
      <trkpt lat="45.6986" lon="3.43985">
        <ele>617</ele>
        <time>2025-09-14T08:28:04Z</time>
      </trkpt>
      <trkpt lat="45.69862" lon="3.43981">
        <ele>617</ele>
        <time>2025-09-14T08:28:05Z</time>
      </trkpt>
      <trkpt lat="45.69864" lon="3.43976">
        <ele>616.8</ele>
        <time>2025-09-14T08:28:06Z</time>
      </trkpt>
      <trkpt lat="45.69866" lon="3.43971">
        <ele>616.6</ele>
        <time>2025-09-14T08:28:07Z</time>
      </trkpt>
      <trkpt lat="45.69869" lon="3.43965">
        <ele>616.6</ele>
        <time>2025-09-14T08:28:08Z</time>
      </trkpt>
      <trkpt lat="45.69871" lon="3.4396">
        <ele>616.4</ele>
        <time>2025-09-14T08:28:09Z</time>
      </trkpt>
      <trkpt lat="45.69872" lon="3.43955">
        <ele>616.4</ele>
        <time>2025-09-14T08:28:10Z</time>
      </trkpt>
      <trkpt lat="45.69873" lon="3.43949">
        <ele>616.4</ele>
        <time>2025-09-14T08:28:11Z</time>
      </trkpt>
      <trkpt lat="45.69874" lon="3.43944">
        <ele>616.4</ele>
        <time>2025-09-14T08:28:12Z</time>
      </trkpt>
      <trkpt lat="45.69875" lon="3.43938">
        <ele>616.4</ele>
        <time>2025-09-14T08:28:13Z</time>
      </trkpt>
      <trkpt lat="45.69875" lon="3.43933">
        <ele>616.4</ele>
        <time>2025-09-14T08:28:14Z</time>
      </trkpt>
      <trkpt lat="45.69875" lon="3.43928">
        <ele>616.4</ele>
        <time>2025-09-14T08:28:15Z</time>
      </trkpt>
      <trkpt lat="45.69878" lon="3.43923">
        <ele>616.4</ele>
        <time>2025-09-14T08:28:16Z</time>
      </trkpt>
      <trkpt lat="45.6988" lon="3.43919">
        <ele>616.2</ele>
        <time>2025-09-14T08:28:17Z</time>
      </trkpt>
      <trkpt lat="45.69882" lon="3.43913">
        <ele>616.2</ele>
        <time>2025-09-14T08:28:18Z</time>
      </trkpt>
      <trkpt lat="45.69884" lon="3.43908">
        <ele>616</ele>
        <time>2025-09-14T08:28:19Z</time>
      </trkpt>
      <trkpt lat="45.69886" lon="3.43904">
        <ele>616</ele>
        <time>2025-09-14T08:28:20Z</time>
      </trkpt>
      <trkpt lat="45.69887" lon="3.439">
        <ele>616</ele>
        <time>2025-09-14T08:28:21Z</time>
      </trkpt>
      <trkpt lat="45.69889" lon="3.43896">
        <ele>616</ele>
        <time>2025-09-14T08:28:22Z</time>
      </trkpt>
      <trkpt lat="45.6989" lon="3.43893">
        <ele>615.8</ele>
        <time>2025-09-14T08:28:23Z</time>
      </trkpt>
      <trkpt lat="45.6989" lon="3.4389">
        <ele>615.8</ele>
        <time>2025-09-14T08:28:24Z</time>
      </trkpt>
      <trkpt lat="45.69891" lon="3.43887">
        <ele>615.6</ele>
        <time>2025-09-14T08:28:25Z</time>
      </trkpt>
      <trkpt lat="45.69891" lon="3.43885">
        <ele>615.6</ele>
        <time>2025-09-14T08:28:26Z</time>
      </trkpt>
      <trkpt lat="45.69892" lon="3.43881">
        <ele>615.8</ele>
        <time>2025-09-14T08:28:27Z</time>
      </trkpt>
      <trkpt lat="45.69891" lon="3.43876">
        <ele>616</ele>
        <time>2025-09-14T08:28:28Z</time>
      </trkpt>
      <trkpt lat="45.6989" lon="3.43872">
        <ele>616</ele>
        <time>2025-09-14T08:28:29Z</time>
      </trkpt>
      <trkpt lat="45.69887" lon="3.43869">
        <ele>616</ele>
        <time>2025-09-14T08:28:30Z</time>
      </trkpt>
      <trkpt lat="45.69883" lon="3.43867">
        <ele>616</ele>
        <time>2025-09-14T08:28:31Z</time>
      </trkpt>
      <trkpt lat="45.69879" lon="3.43867">
        <ele>616</ele>
        <time>2025-09-14T08:28:32Z</time>
      </trkpt>
      <trkpt lat="45.69875" lon="3.43867">
        <ele>615.8</ele>
        <time>2025-09-14T08:28:33Z</time>
      </trkpt>
      <trkpt lat="45.69871" lon="3.43868">
        <ele>615.8</ele>
        <time>2025-09-14T08:28:34Z</time>
      </trkpt>
      <trkpt lat="45.69868" lon="3.43868">
        <ele>615.8</ele>
        <time>2025-09-14T08:28:35Z</time>
      </trkpt>
      <trkpt lat="45.69865" lon="3.43869">
        <ele>615.6</ele>
        <time>2025-09-14T08:28:36Z</time>
      </trkpt>
      <trkpt lat="45.69861" lon="3.4387">
        <ele>615.6</ele>
        <time>2025-09-14T08:28:37Z</time>
      </trkpt>
      <trkpt lat="45.69858" lon="3.43872">
        <ele>615.6</ele>
        <time>2025-09-14T08:28:38Z</time>
      </trkpt>
      <trkpt lat="45.69854" lon="3.43873">
        <ele>615.6</ele>
        <time>2025-09-14T08:28:39Z</time>
      </trkpt>
      <trkpt lat="45.69851" lon="3.43874">
        <ele>615.6</ele>
        <time>2025-09-14T08:28:40Z</time>
      </trkpt>
      <trkpt lat="45.69848" lon="3.43875">
        <ele>615.4</ele>
        <time>2025-09-14T08:28:41Z</time>
      </trkpt>
      <trkpt lat="45.69845" lon="3.43876">
        <ele>615.4</ele>
        <time>2025-09-14T08:28:42Z</time>
      </trkpt>
      <trkpt lat="45.69842" lon="3.43878">
        <ele>615.4</ele>
        <time>2025-09-14T08:28:43Z</time>
      </trkpt>
      <trkpt lat="45.69839" lon="3.43879">
        <ele>615.4</ele>
        <time>2025-09-14T08:28:44Z</time>
      </trkpt>
      <trkpt lat="45.69835" lon="3.43881">
        <ele>615.4</ele>
        <time>2025-09-14T08:28:45Z</time>
      </trkpt>
      <trkpt lat="45.69833" lon="3.43882">
        <ele>615.2</ele>
        <time>2025-09-14T08:28:46Z</time>
      </trkpt>
      <trkpt lat="45.6983" lon="3.43882">
        <ele>615.2</ele>
        <time>2025-09-14T08:28:47Z</time>
      </trkpt>
      <trkpt lat="45.69827" lon="3.4388">
        <ele>615.2</ele>
        <time>2025-09-14T08:28:48Z</time>
      </trkpt>
      <trkpt lat="45.69825" lon="3.43877">
        <ele>615.2</ele>
        <time>2025-09-14T08:28:49Z</time>
      </trkpt>
      <trkpt lat="45.69823" lon="3.43874">
        <ele>615.2</ele>
        <time>2025-09-14T08:28:50Z</time>
      </trkpt>
      <trkpt lat="45.69821" lon="3.4387">
        <ele>615.2</ele>
        <time>2025-09-14T08:28:51Z</time>
      </trkpt>
      <trkpt lat="45.6982" lon="3.43866">
        <ele>615.2</ele>
        <time>2025-09-14T08:28:52Z</time>
      </trkpt>
      <trkpt lat="45.69819" lon="3.43861">
        <ele>615.2</ele>
        <time>2025-09-14T08:28:53Z</time>
      </trkpt>
      <trkpt lat="45.69818" lon="3.43856">
        <ele>615.2</ele>
        <time>2025-09-14T08:28:54Z</time>
      </trkpt>
      <trkpt lat="45.69818" lon="3.43851">
        <ele>615.2</ele>
        <time>2025-09-14T08:28:55Z</time>
      </trkpt>
      <trkpt lat="45.69817" lon="3.43846">
        <ele>615.2</ele>
        <time>2025-09-14T08:28:56Z</time>
      </trkpt>
      <trkpt lat="45.69817" lon="3.4384">
        <ele>615.2</ele>
        <time>2025-09-14T08:28:57Z</time>
      </trkpt>
      <trkpt lat="45.69816" lon="3.43835">
        <ele>615.2</ele>
        <time>2025-09-14T08:28:58Z</time>
      </trkpt>
      <trkpt lat="45.69815" lon="3.4383">
        <ele>615.4</ele>
        <time>2025-09-14T08:28:59Z</time>
      </trkpt>
      <trkpt lat="45.69814" lon="3.43824">
        <ele>615.4</ele>
        <time>2025-09-14T08:29:00Z</time>
      </trkpt>
      <trkpt lat="45.69813" lon="3.43819">
        <ele>615.4</ele>
        <time>2025-09-14T08:29:01Z</time>
      </trkpt>
      <trkpt lat="45.69812" lon="3.43814">
        <ele>615.4</ele>
        <time>2025-09-14T08:29:02Z</time>
      </trkpt>
      <trkpt lat="45.69811" lon="3.43808">
        <ele>615.4</ele>
        <time>2025-09-14T08:29:03Z</time>
      </trkpt>
      <trkpt lat="45.6981" lon="3.43803">
        <ele>615.4</ele>
        <time>2025-09-14T08:29:04Z</time>
      </trkpt>
      <trkpt lat="45.69809" lon="3.43797">
        <ele>615.6</ele>
        <time>2025-09-14T08:29:05Z</time>
      </trkpt>
      <trkpt lat="45.69809" lon="3.43792">
        <ele>615.6</ele>
        <time>2025-09-14T08:29:06Z</time>
      </trkpt>
      <trkpt lat="45.69808" lon="3.43786">
        <ele>615.6</ele>
        <time>2025-09-14T08:29:07Z</time>
      </trkpt>
      <trkpt lat="45.69808" lon="3.43781">
        <ele>615.6</ele>
        <time>2025-09-14T08:29:08Z</time>
      </trkpt>
      <trkpt lat="45.69807" lon="3.43776">
        <ele>615.6</ele>
        <time>2025-09-14T08:29:09Z</time>
      </trkpt>
      <trkpt lat="45.69806" lon="3.4377">
        <ele>615.8</ele>
        <time>2025-09-14T08:29:10Z</time>
      </trkpt>
      <trkpt lat="45.69805" lon="3.43764">
        <ele>615.8</ele>
        <time>2025-09-14T08:29:11Z</time>
      </trkpt>
      <trkpt lat="45.69805" lon="3.43759">
        <ele>616</ele>
        <time>2025-09-14T08:29:12Z</time>
      </trkpt>
      <trkpt lat="45.69804" lon="3.43754">
        <ele>616</ele>
        <time>2025-09-14T08:29:13Z</time>
      </trkpt>
      <trkpt lat="45.69803" lon="3.43749">
        <ele>616.2</ele>
        <time>2025-09-14T08:29:14Z</time>
      </trkpt>
      <trkpt lat="45.69803" lon="3.43743">
        <ele>616.4</ele>
        <time>2025-09-14T08:29:15Z</time>
      </trkpt>
      <trkpt lat="45.69802" lon="3.43738">
        <ele>616.4</ele>
        <time>2025-09-14T08:29:16Z</time>
      </trkpt>
      <trkpt lat="45.69801" lon="3.43733">
        <ele>616.4</ele>
        <time>2025-09-14T08:29:17Z</time>
      </trkpt>
      <trkpt lat="45.698" lon="3.43728">
        <ele>616.6</ele>
        <time>2025-09-14T08:29:18Z</time>
      </trkpt>
      <trkpt lat="45.69799" lon="3.43722">
        <ele>616.6</ele>
        <time>2025-09-14T08:29:19Z</time>
      </trkpt>
      <trkpt lat="45.69797" lon="3.43715">
        <ele>616.6</ele>
        <time>2025-09-14T08:29:20Z</time>
      </trkpt>
      <trkpt lat="45.69796" lon="3.43709">
        <ele>616.8</ele>
        <time>2025-09-14T08:29:21Z</time>
      </trkpt>
      <trkpt lat="45.69795" lon="3.43702">
        <ele>616.8</ele>
        <time>2025-09-14T08:29:22Z</time>
      </trkpt>
      <trkpt lat="45.69794" lon="3.43697">
        <ele>616.8</ele>
        <time>2025-09-14T08:29:23Z</time>
      </trkpt>
      <trkpt lat="45.69793" lon="3.43691">
        <ele>616.8</ele>
        <time>2025-09-14T08:29:24Z</time>
      </trkpt>
      <trkpt lat="45.69792" lon="3.43685">
        <ele>616.8</ele>
        <time>2025-09-14T08:29:25Z</time>
      </trkpt>
      <trkpt lat="45.69791" lon="3.43679">
        <ele>616.8</ele>
        <time>2025-09-14T08:29:26Z</time>
      </trkpt>
      <trkpt lat="45.6979" lon="3.43674">
        <ele>616.6</ele>
        <time>2025-09-14T08:29:27Z</time>
      </trkpt>
      <trkpt lat="45.69789" lon="3.43668">
        <ele>616.6</ele>
        <time>2025-09-14T08:29:28Z</time>
      </trkpt>
      <trkpt lat="45.69788" lon="3.43661">
        <ele>616.6</ele>
        <time>2025-09-14T08:29:29Z</time>
      </trkpt>
      <trkpt lat="45.69787" lon="3.43653">
        <ele>616.4</ele>
        <time>2025-09-14T08:29:30Z</time>
      </trkpt>
      <trkpt lat="45.69786" lon="3.43646">
        <ele>616.4</ele>
        <time>2025-09-14T08:29:31Z</time>
      </trkpt>
      <trkpt lat="45.69784" lon="3.43639">
        <ele>616.4</ele>
        <time>2025-09-14T08:29:32Z</time>
      </trkpt>
      <trkpt lat="45.69783" lon="3.43632">
        <ele>616.2</ele>
        <time>2025-09-14T08:29:33Z</time>
      </trkpt>
      <trkpt lat="45.69783" lon="3.43624">
        <ele>616.2</ele>
        <time>2025-09-14T08:29:34Z</time>
      </trkpt>
      <trkpt lat="45.69782" lon="3.43617">
        <ele>616</ele>
        <time>2025-09-14T08:29:35Z</time>
      </trkpt>
      <trkpt lat="45.69781" lon="3.43609">
        <ele>615.8</ele>
        <time>2025-09-14T08:29:36Z</time>
      </trkpt>
      <trkpt lat="45.6978" lon="3.43602">
        <ele>615.6</ele>
        <time>2025-09-14T08:29:37Z</time>
      </trkpt>
      <trkpt lat="45.69779" lon="3.43594">
        <ele>615.6</ele>
        <time>2025-09-14T08:29:38Z</time>
      </trkpt>
      <trkpt lat="45.69778" lon="3.43587">
        <ele>615.4</ele>
        <time>2025-09-14T08:29:39Z</time>
      </trkpt>
      <trkpt lat="45.69777" lon="3.4358">
        <ele>615.2</ele>
        <time>2025-09-14T08:29:40Z</time>
      </trkpt>
      <trkpt lat="45.69776" lon="3.43573">
        <ele>615.2</ele>
        <time>2025-09-14T08:29:41Z</time>
      </trkpt>
      <trkpt lat="45.69774" lon="3.43565">
        <ele>615</ele>
        <time>2025-09-14T08:29:42Z</time>
      </trkpt>
      <trkpt lat="45.69773" lon="3.43558">
        <ele>615</ele>
        <time>2025-09-14T08:29:43Z</time>
      </trkpt>
      <trkpt lat="45.69772" lon="3.4355">
        <ele>614.8</ele>
        <time>2025-09-14T08:29:44Z</time>
      </trkpt>
      <trkpt lat="45.69771" lon="3.43543">
        <ele>614.8</ele>
        <time>2025-09-14T08:29:45Z</time>
      </trkpt>
      <trkpt lat="45.6977" lon="3.43535">
        <ele>614.6</ele>
        <time>2025-09-14T08:29:46Z</time>
      </trkpt>
      <trkpt lat="45.69769" lon="3.43528">
        <ele>614.6</ele>
        <time>2025-09-14T08:29:47Z</time>
      </trkpt>
      <trkpt lat="45.69768" lon="3.43521">
        <ele>614.6</ele>
        <time>2025-09-14T08:29:48Z</time>
      </trkpt>
      <trkpt lat="45.69766" lon="3.43514">
        <ele>614.6</ele>
        <time>2025-09-14T08:29:49Z</time>
      </trkpt>
      <trkpt lat="45.69766" lon="3.43508">
        <ele>614.6</ele>
        <time>2025-09-14T08:29:50Z</time>
      </trkpt>
      <trkpt lat="45.69765" lon="3.43501">
        <ele>614.6</ele>
        <time>2025-09-14T08:29:51Z</time>
      </trkpt>
      <trkpt lat="45.69764" lon="3.43494">
        <ele>614.4</ele>
        <time>2025-09-14T08:29:52Z</time>
      </trkpt>
      <trkpt lat="45.69762" lon="3.43488">
        <ele>614.4</ele>
        <time>2025-09-14T08:29:53Z</time>
      </trkpt>
      <trkpt lat="45.69761" lon="3.43481">
        <ele>614.4</ele>
        <time>2025-09-14T08:29:54Z</time>
      </trkpt>
      <trkpt lat="45.6976" lon="3.43475">
        <ele>614.6</ele>
        <time>2025-09-14T08:29:55Z</time>
      </trkpt>
      <trkpt lat="45.69759" lon="3.43468">
        <ele>614.6</ele>
        <time>2025-09-14T08:29:56Z</time>
      </trkpt>
      <trkpt lat="45.69758" lon="3.43461">
        <ele>614.6</ele>
        <time>2025-09-14T08:29:57Z</time>
      </trkpt>
      <trkpt lat="45.69757" lon="3.43455">
        <ele>614.4</ele>
        <time>2025-09-14T08:29:58Z</time>
      </trkpt>
      <trkpt lat="45.69755" lon="3.43448">
        <ele>614.6</ele>
        <time>2025-09-14T08:29:59Z</time>
      </trkpt>
      <trkpt lat="45.69754" lon="3.43442">
        <ele>614.6</ele>
        <time>2025-09-14T08:30:00Z</time>
      </trkpt>
      <trkpt lat="45.69753" lon="3.43435">
        <ele>614.6</ele>
        <time>2025-09-14T08:30:01Z</time>
      </trkpt>
      <trkpt lat="45.69752" lon="3.43429">
        <ele>614.4</ele>
        <time>2025-09-14T08:30:02Z</time>
      </trkpt>
      <trkpt lat="45.6975" lon="3.43423">
        <ele>614.4</ele>
        <time>2025-09-14T08:30:03Z</time>
      </trkpt>
      <trkpt lat="45.69749" lon="3.43417">
        <ele>614.4</ele>
        <time>2025-09-14T08:30:04Z</time>
      </trkpt>
      <trkpt lat="45.69749" lon="3.43411">
        <ele>614.2</ele>
        <time>2025-09-14T08:30:05Z</time>
      </trkpt>
      <trkpt lat="45.69748" lon="3.43405">
        <ele>614.2</ele>
        <time>2025-09-14T08:30:06Z</time>
      </trkpt>
      <trkpt lat="45.69747" lon="3.43398">
        <ele>614.2</ele>
        <time>2025-09-14T08:30:07Z</time>
      </trkpt>
      <trkpt lat="45.69747" lon="3.43391">
        <ele>614</ele>
        <time>2025-09-14T08:30:08Z</time>
      </trkpt>
      <trkpt lat="45.69746" lon="3.43385">
        <ele>614</ele>
        <time>2025-09-14T08:30:09Z</time>
      </trkpt>
      <trkpt lat="45.69745" lon="3.43378">
        <ele>613.8</ele>
        <time>2025-09-14T08:30:10Z</time>
      </trkpt>
      <trkpt lat="45.69743" lon="3.43372">
        <ele>613.8</ele>
        <time>2025-09-14T08:30:11Z</time>
      </trkpt>
      <trkpt lat="45.69741" lon="3.43365">
        <ele>613.8</ele>
        <time>2025-09-14T08:30:12Z</time>
      </trkpt>
      <trkpt lat="45.69739" lon="3.43359">
        <ele>613.8</ele>
        <time>2025-09-14T08:30:13Z</time>
      </trkpt>
      <trkpt lat="45.69736" lon="3.43352">
        <ele>613.6</ele>
        <time>2025-09-14T08:30:14Z</time>
      </trkpt>
      <trkpt lat="45.69734" lon="3.43346">
        <ele>613.4</ele>
        <time>2025-09-14T08:30:15Z</time>
      </trkpt>
      <trkpt lat="45.69731" lon="3.43339">
        <ele>613.4</ele>
        <time>2025-09-14T08:30:16Z</time>
      </trkpt>
      <trkpt lat="45.69728" lon="3.43333">
        <ele>613.4</ele>
        <time>2025-09-14T08:30:17Z</time>
      </trkpt>
      <trkpt lat="45.69726" lon="3.43327">
        <ele>613.2</ele>
        <time>2025-09-14T08:30:18Z</time>
      </trkpt>
      <trkpt lat="45.69724" lon="3.43321">
        <ele>613</ele>
        <time>2025-09-14T08:30:19Z</time>
      </trkpt>
      <trkpt lat="45.69722" lon="3.43315">
        <ele>612.8</ele>
        <time>2025-09-14T08:30:20Z</time>
      </trkpt>
      <trkpt lat="45.69719" lon="3.4331">
        <ele>612.6</ele>
        <time>2025-09-14T08:30:21Z</time>
      </trkpt>
      <trkpt lat="45.69717" lon="3.43304">
        <ele>612.4</ele>
        <time>2025-09-14T08:30:22Z</time>
      </trkpt>
      <trkpt lat="45.69716" lon="3.43299">
        <ele>612.2</ele>
        <time>2025-09-14T08:30:23Z</time>
      </trkpt>
      <trkpt lat="45.69716" lon="3.43293">
        <ele>612</ele>
        <time>2025-09-14T08:30:24Z</time>
      </trkpt>
      <trkpt lat="45.69718" lon="3.43287">
        <ele>612</ele>
        <time>2025-09-14T08:30:25Z</time>
      </trkpt>
      <trkpt lat="45.6972" lon="3.4328">
        <ele>612</ele>
        <time>2025-09-14T08:30:26Z</time>
      </trkpt>
      <trkpt lat="45.69721" lon="3.43272">
        <ele>612</ele>
        <time>2025-09-14T08:30:27Z</time>
      </trkpt>
      <trkpt lat="45.69722" lon="3.43264">
        <ele>612</ele>
        <time>2025-09-14T08:30:28Z</time>
      </trkpt>
      <trkpt lat="45.69723" lon="3.43255">
        <ele>611.8</ele>
        <time>2025-09-14T08:30:29Z</time>
      </trkpt>
      <trkpt lat="45.69724" lon="3.43246">
        <ele>611.6</ele>
        <time>2025-09-14T08:30:30Z</time>
      </trkpt>
      <trkpt lat="45.69723" lon="3.43238">
        <ele>611.4</ele>
        <time>2025-09-14T08:30:31Z</time>
      </trkpt>
      <trkpt lat="45.69722" lon="3.43228">
        <ele>611</ele>
        <time>2025-09-14T08:30:32Z</time>
      </trkpt>
      <trkpt lat="45.69719" lon="3.43219">
        <ele>610.8</ele>
        <time>2025-09-14T08:30:33Z</time>
      </trkpt>
      <trkpt lat="45.69717" lon="3.4321">
        <ele>610.4</ele>
        <time>2025-09-14T08:30:34Z</time>
      </trkpt>
      <trkpt lat="45.69715" lon="3.43201">
        <ele>610.2</ele>
        <time>2025-09-14T08:30:35Z</time>
      </trkpt>
      <trkpt lat="45.69712" lon="3.43191">
        <ele>609.8</ele>
        <time>2025-09-14T08:30:36Z</time>
      </trkpt>
      <trkpt lat="45.6971" lon="3.43181">
        <ele>609.8</ele>
        <time>2025-09-14T08:30:37Z</time>
      </trkpt>
      <trkpt lat="45.69709" lon="3.43171">
        <ele>610</ele>
        <time>2025-09-14T08:30:38Z</time>
      </trkpt>
      <trkpt lat="45.69707" lon="3.43161">
        <ele>610</ele>
        <time>2025-09-14T08:30:39Z</time>
      </trkpt>
      <trkpt lat="45.69706" lon="3.4315">
        <ele>609.8</ele>
        <time>2025-09-14T08:30:40Z</time>
      </trkpt>
      <trkpt lat="45.69704" lon="3.43139">
        <ele>609.6</ele>
        <time>2025-09-14T08:30:41Z</time>
      </trkpt>
      <trkpt lat="45.69702" lon="3.43128">
        <ele>609.2</ele>
        <time>2025-09-14T08:30:42Z</time>
      </trkpt>
      <trkpt lat="45.697" lon="3.43116">
        <ele>608.8</ele>
        <time>2025-09-14T08:30:43Z</time>
      </trkpt>
      <trkpt lat="45.69698" lon="3.43105">
        <ele>608.4</ele>
        <time>2025-09-14T08:30:44Z</time>
      </trkpt>
      <trkpt lat="45.69697" lon="3.43093">
        <ele>608.2</ele>
        <time>2025-09-14T08:30:45Z</time>
      </trkpt>
      <trkpt lat="45.69696" lon="3.4308">
        <ele>607.6</ele>
        <time>2025-09-14T08:30:46Z</time>
      </trkpt>
      <trkpt lat="45.69695" lon="3.43068">
        <ele>607</ele>
        <time>2025-09-14T08:30:47Z</time>
      </trkpt>
      <trkpt lat="45.69694" lon="3.43055">
        <ele>606.4</ele>
        <time>2025-09-14T08:30:48Z</time>
      </trkpt>
      <trkpt lat="45.69692" lon="3.43043">
        <ele>605.8</ele>
        <time>2025-09-14T08:30:49Z</time>
      </trkpt>
      <trkpt lat="45.69691" lon="3.4303">
        <ele>605.2</ele>
        <time>2025-09-14T08:30:50Z</time>
      </trkpt>
      <trkpt lat="45.6969" lon="3.43017">
        <ele>604.8</ele>
        <time>2025-09-14T08:30:51Z</time>
      </trkpt>
      <trkpt lat="45.69689" lon="3.43005">
        <ele>604.4</ele>
        <time>2025-09-14T08:30:52Z</time>
      </trkpt>
      <trkpt lat="45.69687" lon="3.42994">
        <ele>604</ele>
        <time>2025-09-14T08:30:53Z</time>
      </trkpt>
      <trkpt lat="45.69686" lon="3.42983">
        <ele>603.6</ele>
        <time>2025-09-14T08:30:54Z</time>
      </trkpt>
      <trkpt lat="45.69686" lon="3.42972">
        <ele>603.4</ele>
        <time>2025-09-14T08:30:55Z</time>
      </trkpt>
      <trkpt lat="45.69686" lon="3.42961">
        <ele>603.2</ele>
        <time>2025-09-14T08:30:56Z</time>
      </trkpt>
      <trkpt lat="45.69685" lon="3.4295">
        <ele>602.6</ele>
        <time>2025-09-14T08:30:57Z</time>
      </trkpt>
      <trkpt lat="45.69685" lon="3.42939">
        <ele>601.8</ele>
        <time>2025-09-14T08:30:58Z</time>
      </trkpt>
      <trkpt lat="45.69684" lon="3.42926">
        <ele>601</ele>
        <time>2025-09-14T08:30:59Z</time>
      </trkpt>
      <trkpt lat="45.69683" lon="3.42914">
        <ele>600.4</ele>
        <time>2025-09-14T08:31:00Z</time>
      </trkpt>
      <trkpt lat="45.69681" lon="3.42901">
        <ele>600</ele>
        <time>2025-09-14T08:31:01Z</time>
      </trkpt>
      <trkpt lat="45.6968" lon="3.42887">
        <ele>599.6</ele>
        <time>2025-09-14T08:31:02Z</time>
      </trkpt>
      <trkpt lat="45.6968" lon="3.42875">
        <ele>598.8</ele>
        <time>2025-09-14T08:31:03Z</time>
      </trkpt>
      <trkpt lat="45.69681" lon="3.42864">
        <ele>598.4</ele>
        <time>2025-09-14T08:31:04Z</time>
      </trkpt>
      <trkpt lat="45.69683" lon="3.42853">
        <ele>598</ele>
        <time>2025-09-14T08:31:05Z</time>
      </trkpt>
      <trkpt lat="45.69685" lon="3.42844">
        <ele>597.6</ele>
        <time>2025-09-14T08:31:06Z</time>
      </trkpt>
      <trkpt lat="45.69689" lon="3.42836">
        <ele>597.2</ele>
        <time>2025-09-14T08:31:07Z</time>
      </trkpt>
      <trkpt lat="45.69693" lon="3.42829">
        <ele>597</ele>
        <time>2025-09-14T08:31:08Z</time>
      </trkpt>
      <trkpt lat="45.69697" lon="3.42823">
        <ele>596.6</ele>
        <time>2025-09-14T08:31:09Z</time>
      </trkpt>
      <trkpt lat="45.69702" lon="3.42819">
        <ele>596.2</ele>
        <time>2025-09-14T08:31:10Z</time>
      </trkpt>
      <trkpt lat="45.69705" lon="3.42814">
        <ele>595.8</ele>
        <time>2025-09-14T08:31:11Z</time>
      </trkpt>
      <trkpt lat="45.69709" lon="3.4281">
        <ele>595.2</ele>
        <time>2025-09-14T08:31:12Z</time>
      </trkpt>
      <trkpt lat="45.69711" lon="3.42805">
        <ele>594.4</ele>
        <time>2025-09-14T08:31:13Z</time>
      </trkpt>
      <trkpt lat="45.6971" lon="3.42799">
        <ele>593.6</ele>
        <time>2025-09-14T08:31:14Z</time>
      </trkpt>
      <trkpt lat="45.69707" lon="3.42794">
        <ele>593</ele>
        <time>2025-09-14T08:31:15Z</time>
      </trkpt>
      <trkpt lat="45.69703" lon="3.42789">
        <ele>592.4</ele>
        <time>2025-09-14T08:31:16Z</time>
      </trkpt>
      <trkpt lat="45.69701" lon="3.42786">
        <ele>591.8</ele>
        <time>2025-09-14T08:31:17Z</time>
      </trkpt>
      <trkpt lat="45.69698" lon="3.42782">
        <ele>591.6</ele>
        <time>2025-09-14T08:31:18Z</time>
      </trkpt>
      <trkpt lat="45.69696" lon="3.42778">
        <ele>591.4</ele>
        <time>2025-09-14T08:31:19Z</time>
      </trkpt>
      <trkpt lat="45.69694" lon="3.42773">
        <ele>591.4</ele>
        <time>2025-09-14T08:31:20Z</time>
      </trkpt>
      <trkpt lat="45.69692" lon="3.42768">
        <ele>591.4</ele>
        <time>2025-09-14T08:31:21Z</time>
      </trkpt>
      <trkpt lat="45.6969" lon="3.42763">
        <ele>591.6</ele>
        <time>2025-09-14T08:31:22Z</time>
      </trkpt>
      <trkpt lat="45.69687" lon="3.42757">
        <ele>591.4</ele>
        <time>2025-09-14T08:31:23Z</time>
      </trkpt>
      <trkpt lat="45.69685" lon="3.42751">
        <ele>591.4</ele>
        <time>2025-09-14T08:31:24Z</time>
      </trkpt>
      <trkpt lat="45.69682" lon="3.42745">
        <ele>591.4</ele>
        <time>2025-09-14T08:31:25Z</time>
      </trkpt>
      <trkpt lat="45.6968" lon="3.42739">
        <ele>591.4</ele>
        <time>2025-09-14T08:31:26Z</time>
      </trkpt>
      <trkpt lat="45.69678" lon="3.42734">
        <ele>591.4</ele>
        <time>2025-09-14T08:31:27Z</time>
      </trkpt>
      <trkpt lat="45.69676" lon="3.42729">
        <ele>591.4</ele>
        <time>2025-09-14T08:31:28Z</time>
      </trkpt>
      <trkpt lat="45.69675" lon="3.42725">
        <ele>591.4</ele>
        <time>2025-09-14T08:31:29Z</time>
      </trkpt>
      <trkpt lat="45.69673" lon="3.42722">
        <ele>591.4</ele>
        <time>2025-09-14T08:31:30Z</time>
      </trkpt>
      <trkpt lat="45.6967" lon="3.4272">
        <ele>591.4</ele>
        <time>2025-09-14T08:31:31Z</time>
      </trkpt>
      <trkpt lat="45.69668" lon="3.42718">
        <ele>591.4</ele>
        <time>2025-09-14T08:31:32Z</time>
      </trkpt>
      <trkpt lat="45.69664" lon="3.42717">
        <ele>591.2</ele>
        <time>2025-09-14T08:31:33Z</time>
      </trkpt>
      <trkpt lat="45.6966" lon="3.42715">
        <ele>591.2</ele>
        <time>2025-09-14T08:31:34Z</time>
      </trkpt>
      <trkpt lat="45.69656" lon="3.42712">
        <ele>591.2</ele>
        <time>2025-09-14T08:31:35Z</time>
      </trkpt>
      <trkpt lat="45.69652" lon="3.42709">
        <ele>591</ele>
        <time>2025-09-14T08:31:36Z</time>
      </trkpt>
      <trkpt lat="45.69648" lon="3.42704">
        <ele>590.8</ele>
        <time>2025-09-14T08:31:37Z</time>
      </trkpt>
      <trkpt lat="45.69644" lon="3.427">
        <ele>590.4</ele>
        <time>2025-09-14T08:31:38Z</time>
      </trkpt>
      <trkpt lat="45.6964" lon="3.42694">
        <ele>590.2</ele>
        <time>2025-09-14T08:31:39Z</time>
      </trkpt>
      <trkpt lat="45.69636" lon="3.42689">
        <ele>590.2</ele>
        <time>2025-09-14T08:31:40Z</time>
      </trkpt>
      <trkpt lat="45.69632" lon="3.42683">
        <ele>590</ele>
        <time>2025-09-14T08:31:41Z</time>
      </trkpt>
      <trkpt lat="45.69628" lon="3.42677">
        <ele>589.8</ele>
        <time>2025-09-14T08:31:42Z</time>
      </trkpt>
      <trkpt lat="45.69624" lon="3.42671">
        <ele>589.6</ele>
        <time>2025-09-14T08:31:43Z</time>
      </trkpt>
      <trkpt lat="45.6962" lon="3.42666">
        <ele>589.6</ele>
        <time>2025-09-14T08:31:44Z</time>
      </trkpt>
      <trkpt lat="45.69617" lon="3.42661">
        <ele>589.6</ele>
        <time>2025-09-14T08:31:45Z</time>
      </trkpt>
      <trkpt lat="45.69613" lon="3.42657">
        <ele>589.2</ele>
        <time>2025-09-14T08:31:46Z</time>
      </trkpt>
      <trkpt lat="45.6961" lon="3.42651">
        <ele>589.2</ele>
        <time>2025-09-14T08:31:47Z</time>
      </trkpt>
      <trkpt lat="45.69606" lon="3.42646">
        <ele>589</ele>
        <time>2025-09-14T08:31:48Z</time>
      </trkpt>
      <trkpt lat="45.69602" lon="3.4264">
        <ele>588.8</ele>
        <time>2025-09-14T08:31:49Z</time>
      </trkpt>
      <trkpt lat="45.69598" lon="3.42634">
        <ele>588.8</ele>
        <time>2025-09-14T08:31:50Z</time>
      </trkpt>
      <trkpt lat="45.69594" lon="3.42628">
        <ele>588.6</ele>
        <time>2025-09-14T08:31:51Z</time>
      </trkpt>
      <trkpt lat="45.6959" lon="3.42622">
        <ele>588.4</ele>
        <time>2025-09-14T08:31:52Z</time>
      </trkpt>
      <trkpt lat="45.69586" lon="3.42616">
        <ele>588.4</ele>
        <time>2025-09-14T08:31:53Z</time>
      </trkpt>
      <trkpt lat="45.69582" lon="3.42611">
        <ele>588.4</ele>
        <time>2025-09-14T08:31:54Z</time>
      </trkpt>
      <trkpt lat="45.69578" lon="3.42605">
        <ele>588.2</ele>
        <time>2025-09-14T08:31:55Z</time>
      </trkpt>
      <trkpt lat="45.69574" lon="3.42599">
        <ele>588.2</ele>
        <time>2025-09-14T08:31:56Z</time>
      </trkpt>
      <trkpt lat="45.6957" lon="3.42592">
        <ele>588</ele>
        <time>2025-09-14T08:31:57Z</time>
      </trkpt>
      <trkpt lat="45.69567" lon="3.42587">
        <ele>588</ele>
        <time>2025-09-14T08:31:58Z</time>
      </trkpt>
      <trkpt lat="45.69563" lon="3.42582">
        <ele>588</ele>
        <time>2025-09-14T08:31:59Z</time>
      </trkpt>
      <trkpt lat="45.6956" lon="3.42576">
        <ele>587.8</ele>
        <time>2025-09-14T08:32:00Z</time>
      </trkpt>
      <trkpt lat="45.69556" lon="3.42569">
        <ele>587.8</ele>
        <time>2025-09-14T08:32:01Z</time>
      </trkpt>
      <trkpt lat="45.69553" lon="3.42562">
        <ele>587.8</ele>
        <time>2025-09-14T08:32:02Z</time>
      </trkpt>
      <trkpt lat="45.6955" lon="3.42557">
        <ele>587.6</ele>
        <time>2025-09-14T08:32:03Z</time>
      </trkpt>
      <trkpt lat="45.69546" lon="3.4255">
        <ele>587.6</ele>
        <time>2025-09-14T08:32:04Z</time>
      </trkpt>
      <trkpt lat="45.69541" lon="3.42543">
        <ele>587.6</ele>
        <time>2025-09-14T08:32:05Z</time>
      </trkpt>
      <trkpt lat="45.69537" lon="3.42536">
        <ele>587.8</ele>
        <time>2025-09-14T08:32:06Z</time>
      </trkpt>
      <trkpt lat="45.69533" lon="3.4253">
        <ele>588</ele>
        <time>2025-09-14T08:32:07Z</time>
      </trkpt>
      <trkpt lat="45.69529" lon="3.42524">
        <ele>588</ele>
        <time>2025-09-14T08:32:08Z</time>
      </trkpt>
      <trkpt lat="45.69525" lon="3.42517">
        <ele>588</ele>
        <time>2025-09-14T08:32:09Z</time>
      </trkpt>
      <trkpt lat="45.69521" lon="3.4251">
        <ele>587.8</ele>
        <time>2025-09-14T08:32:10Z</time>
      </trkpt>
      <trkpt lat="45.69515" lon="3.42502">
        <ele>587.6</ele>
        <time>2025-09-14T08:32:11Z</time>
      </trkpt>
      <trkpt lat="45.69508" lon="3.42496">
        <ele>587.4</ele>
        <time>2025-09-14T08:32:12Z</time>
      </trkpt>
      <trkpt lat="45.69501" lon="3.42491">
        <ele>587.4</ele>
        <time>2025-09-14T08:32:13Z</time>
      </trkpt>
      <trkpt lat="45.69495" lon="3.42489">
        <ele>587</ele>
        <time>2025-09-14T08:32:14Z</time>
      </trkpt>
      <trkpt lat="45.69489" lon="3.42488">
        <ele>587</ele>
        <time>2025-09-14T08:32:15Z</time>
      </trkpt>
      <trkpt lat="45.69485" lon="3.42487">
        <ele>586.8</ele>
        <time>2025-09-14T08:32:16Z</time>
      </trkpt>
      <trkpt lat="45.69481" lon="3.42486">
        <ele>586.6</ele>
        <time>2025-09-14T08:32:17Z</time>
      </trkpt>
      <trkpt lat="45.69477" lon="3.42484">
        <ele>586.6</ele>
        <time>2025-09-14T08:32:18Z</time>
      </trkpt>
      <trkpt lat="45.69473" lon="3.42482">
        <ele>586.6</ele>
        <time>2025-09-14T08:32:19Z</time>
      </trkpt>
      <trkpt lat="45.69469" lon="3.42481">
        <ele>586.4</ele>
        <time>2025-09-14T08:32:20Z</time>
      </trkpt>
      <trkpt lat="45.69466" lon="3.42479">
        <ele>586.2</ele>
        <time>2025-09-14T08:32:21Z</time>
      </trkpt>
      <trkpt lat="45.69463" lon="3.42477">
        <ele>586.2</ele>
        <time>2025-09-14T08:32:22Z</time>
      </trkpt>
      <trkpt lat="45.6946" lon="3.42475">
        <ele>586.2</ele>
        <time>2025-09-14T08:32:23Z</time>
      </trkpt>
      <trkpt lat="45.69456" lon="3.42473">
        <ele>586</ele>
        <time>2025-09-14T08:32:24Z</time>
      </trkpt>
      <trkpt lat="45.69452" lon="3.42471">
        <ele>586</ele>
        <time>2025-09-14T08:32:25Z</time>
      </trkpt>
      <trkpt lat="45.69448" lon="3.42468">
        <ele>585.8</ele>
        <time>2025-09-14T08:32:26Z</time>
      </trkpt>
      <trkpt lat="45.69444" lon="3.42465">
        <ele>585.6</ele>
        <time>2025-09-14T08:32:27Z</time>
      </trkpt>
      <trkpt lat="45.69439" lon="3.4246">
        <ele>585.6</ele>
        <time>2025-09-14T08:32:28Z</time>
      </trkpt>
      <trkpt lat="45.69433" lon="3.42455">
        <ele>585.6</ele>
        <time>2025-09-14T08:32:29Z</time>
      </trkpt>
      <trkpt lat="45.69429" lon="3.42451">
        <ele>585.8</ele>
        <time>2025-09-14T08:32:30Z</time>
      </trkpt>
      <trkpt lat="45.69424" lon="3.42446">
        <ele>585.6</ele>
        <time>2025-09-14T08:32:31Z</time>
      </trkpt>
      <trkpt lat="45.6942" lon="3.42441">
        <ele>585.4</ele>
        <time>2025-09-14T08:32:32Z</time>
      </trkpt>
      <trkpt lat="45.69414" lon="3.42437">
        <ele>585.4</ele>
        <time>2025-09-14T08:32:33Z</time>
      </trkpt>
      <trkpt lat="45.69407" lon="3.42433">
        <ele>585.2</ele>
        <time>2025-09-14T08:32:34Z</time>
      </trkpt>
      <trkpt lat="45.694" lon="3.42429">
        <ele>584.8</ele>
        <time>2025-09-14T08:32:35Z</time>
      </trkpt>
      <trkpt lat="45.69394" lon="3.42425">
        <ele>584.4</ele>
        <time>2025-09-14T08:32:36Z</time>
      </trkpt>
      <trkpt lat="45.69389" lon="3.42422">
        <ele>583.8</ele>
        <time>2025-09-14T08:32:37Z</time>
      </trkpt>
      <trkpt lat="45.69384" lon="3.42418">
        <ele>583.4</ele>
        <time>2025-09-14T08:32:38Z</time>
      </trkpt>
      <trkpt lat="45.69379" lon="3.42414">
        <ele>583</ele>
        <time>2025-09-14T08:32:39Z</time>
      </trkpt>
      <trkpt lat="45.69372" lon="3.4241">
        <ele>582.8</ele>
        <time>2025-09-14T08:32:40Z</time>
      </trkpt>
      <trkpt lat="45.69366" lon="3.42405">
        <ele>582.6</ele>
        <time>2025-09-14T08:32:41Z</time>
      </trkpt>
      <trkpt lat="45.69361" lon="3.42401">
        <ele>583</ele>
        <time>2025-09-14T08:32:42Z</time>
      </trkpt>
      <trkpt lat="45.69357" lon="3.42399">
        <ele>583</ele>
        <time>2025-09-14T08:32:43Z</time>
      </trkpt>
      <trkpt lat="45.69351" lon="3.42397">
        <ele>582.4</ele>
        <time>2025-09-14T08:32:44Z</time>
      </trkpt>
      <trkpt lat="45.69346" lon="3.42395">
        <ele>582</ele>
        <time>2025-09-14T08:32:45Z</time>
      </trkpt>
      <trkpt lat="45.6934" lon="3.42393">
        <ele>582</ele>
        <time>2025-09-14T08:32:46Z</time>
      </trkpt>
      <trkpt lat="45.69335" lon="3.4239">
        <ele>581.8</ele>
        <time>2025-09-14T08:32:47Z</time>
      </trkpt>
      <trkpt lat="45.69329" lon="3.42385">
        <ele>581.6</ele>
        <time>2025-09-14T08:32:48Z</time>
      </trkpt>
      <trkpt lat="45.69324" lon="3.42379">
        <ele>581.4</ele>
        <time>2025-09-14T08:32:49Z</time>
      </trkpt>
      <trkpt lat="45.69317" lon="3.42373">
        <ele>581.4</ele>
        <time>2025-09-14T08:32:50Z</time>
      </trkpt>
      <trkpt lat="45.6931" lon="3.42366">
        <ele>581.4</ele>
        <time>2025-09-14T08:32:51Z</time>
      </trkpt>
      <trkpt lat="45.69303" lon="3.42362">
        <ele>581.4</ele>
        <time>2025-09-14T08:32:52Z</time>
      </trkpt>
      <trkpt lat="45.69298" lon="3.42358">
        <ele>581.2</ele>
        <time>2025-09-14T08:32:53Z</time>
      </trkpt>
      <trkpt lat="45.69293" lon="3.42355">
        <ele>581.2</ele>
        <time>2025-09-14T08:32:54Z</time>
      </trkpt>
      <trkpt lat="45.69288" lon="3.42352">
        <ele>581</ele>
        <time>2025-09-14T08:32:55Z</time>
      </trkpt>
      <trkpt lat="45.69282" lon="3.42347">
        <ele>580.6</ele>
        <time>2025-09-14T08:32:56Z</time>
      </trkpt>
      <trkpt lat="45.69276" lon="3.42341">
        <ele>580</ele>
        <time>2025-09-14T08:32:57Z</time>
      </trkpt>
      <trkpt lat="45.69272" lon="3.42336">
        <ele>579.6</ele>
        <time>2025-09-14T08:32:58Z</time>
      </trkpt>
      <trkpt lat="45.6927" lon="3.42332">
        <ele>579.4</ele>
        <time>2025-09-14T08:32:59Z</time>
      </trkpt>
      <trkpt lat="45.69267" lon="3.42329">
        <ele>579</ele>
        <time>2025-09-14T08:33:00Z</time>
      </trkpt>
      <trkpt lat="45.69264" lon="3.42326">
        <ele>578.8</ele>
        <time>2025-09-14T08:33:01Z</time>
      </trkpt>
      <trkpt lat="45.69262" lon="3.42323">
        <ele>578.4</ele>
        <time>2025-09-14T08:33:02Z</time>
      </trkpt>
      <trkpt lat="45.69259" lon="3.42319">
        <ele>577.8</ele>
        <time>2025-09-14T08:33:03Z</time>
      </trkpt>
      <trkpt lat="45.69258" lon="3.42314">
        <ele>577.2</ele>
        <time>2025-09-14T08:33:04Z</time>
      </trkpt>
      <trkpt lat="45.69256" lon="3.42309">
        <ele>576.6</ele>
        <time>2025-09-14T08:33:05Z</time>
      </trkpt>
      <trkpt lat="45.69253" lon="3.42305">
        <ele>576.2</ele>
        <time>2025-09-14T08:33:06Z</time>
      </trkpt>
      <trkpt lat="45.69251" lon="3.42301">
        <ele>575.6</ele>
        <time>2025-09-14T08:33:07Z</time>
      </trkpt>
      <trkpt lat="45.69248" lon="3.42297">
        <ele>575.2</ele>
        <time>2025-09-14T08:33:08Z</time>
      </trkpt>
      <trkpt lat="45.69246" lon="3.42293">
        <ele>574.8</ele>
        <time>2025-09-14T08:33:09Z</time>
      </trkpt>
      <trkpt lat="45.69244" lon="3.4229">
        <ele>574.6</ele>
        <time>2025-09-14T08:33:10Z</time>
      </trkpt>
      <trkpt lat="45.69243" lon="3.42288">
        <ele>574.4</ele>
        <time>2025-09-14T08:33:11Z</time>
      </trkpt>
      <trkpt lat="45.69242" lon="3.42285">
        <ele>574</ele>
        <time>2025-09-14T08:33:12Z</time>
      </trkpt>
      <trkpt lat="45.69242" lon="3.42281">
        <ele>573.8</ele>
        <time>2025-09-14T08:33:13Z</time>
      </trkpt>
      <trkpt lat="45.69243" lon="3.42276">
        <ele>573.6</ele>
        <time>2025-09-14T08:33:14Z</time>
      </trkpt>
      <trkpt lat="45.69243" lon="3.4227">
        <ele>573.4</ele>
        <time>2025-09-14T08:33:15Z</time>
      </trkpt>
      <trkpt lat="45.69245" lon="3.42264">
        <ele>573.2</ele>
        <time>2025-09-14T08:33:16Z</time>
      </trkpt>
      <trkpt lat="45.69245" lon="3.42259">
        <ele>573</ele>
        <time>2025-09-14T08:33:17Z</time>
      </trkpt>
      <trkpt lat="45.69246" lon="3.42254">
        <ele>572.8</ele>
        <time>2025-09-14T08:33:18Z</time>
      </trkpt>
      <trkpt lat="45.69246" lon="3.4225">
        <ele>572.6</ele>
        <time>2025-09-14T08:33:19Z</time>
      </trkpt>
      <trkpt lat="45.69245" lon="3.42246">
        <ele>572.6</ele>
        <time>2025-09-14T08:33:20Z</time>
      </trkpt>
      <trkpt lat="45.69245" lon="3.42239">
        <ele>572.6</ele>
        <time>2025-09-14T08:33:21Z</time>
      </trkpt>
      <trkpt lat="45.69246" lon="3.4223">
        <ele>572.6</ele>
        <time>2025-09-14T08:33:22Z</time>
      </trkpt>
      <trkpt lat="45.69246" lon="3.42222">
        <ele>572.6</ele>
        <time>2025-09-14T08:33:23Z</time>
      </trkpt>
      <trkpt lat="45.69247" lon="3.42213">
        <ele>572.4</ele>
        <time>2025-09-14T08:33:24Z</time>
      </trkpt>
      <trkpt lat="45.69247" lon="3.42206">
        <ele>572.2</ele>
        <time>2025-09-14T08:33:25Z</time>
      </trkpt>
      <trkpt lat="45.69247" lon="3.42198">
        <ele>572.2</ele>
        <time>2025-09-14T08:33:26Z</time>
      </trkpt>
      <trkpt lat="45.69247" lon="3.42192">
        <ele>572</ele>
        <time>2025-09-14T08:33:27Z</time>
      </trkpt>
      <trkpt lat="45.69246" lon="3.42187">
        <ele>572</ele>
        <time>2025-09-14T08:33:28Z</time>
      </trkpt>
      <trkpt lat="45.69245" lon="3.42181">
        <ele>572</ele>
        <time>2025-09-14T08:33:29Z</time>
      </trkpt>
      <trkpt lat="45.69246" lon="3.42176">
        <ele>571.8</ele>
        <time>2025-09-14T08:33:30Z</time>
      </trkpt>
      <trkpt lat="45.69248" lon="3.42172">
        <ele>571.4</ele>
        <time>2025-09-14T08:33:31Z</time>
      </trkpt>
      <trkpt lat="45.6925" lon="3.42168">
        <ele>571</ele>
        <time>2025-09-14T08:33:32Z</time>
      </trkpt>
      <trkpt lat="45.69254" lon="3.42164">
        <ele>571</ele>
        <time>2025-09-14T08:33:33Z</time>
      </trkpt>
      <trkpt lat="45.69257" lon="3.42161">
        <ele>571.2</ele>
        <time>2025-09-14T08:33:34Z</time>
      </trkpt>
      <trkpt lat="45.6926" lon="3.42156">
        <ele>571.2</ele>
        <time>2025-09-14T08:33:35Z</time>
      </trkpt>
      <trkpt lat="45.69265" lon="3.42149">
        <ele>571</ele>
        <time>2025-09-14T08:33:36Z</time>
      </trkpt>
      <trkpt lat="45.69267" lon="3.42143">
        <ele>571</ele>
        <time>2025-09-14T08:33:37Z</time>
      </trkpt>
      <trkpt lat="45.69269" lon="3.42135">
        <ele>571</ele>
        <time>2025-09-14T08:33:38Z</time>
      </trkpt>
      <trkpt lat="45.69271" lon="3.42119">
        <ele>570.8</ele>
        <time>2025-09-14T08:33:39Z</time>
      </trkpt>
      <trkpt lat="45.69273" lon="3.42109">
        <ele>570.6</ele>
        <time>2025-09-14T08:33:40Z</time>
      </trkpt>
      <trkpt lat="45.69277" lon="3.421">
        <ele>570.2</ele>
        <time>2025-09-14T08:33:41Z</time>
      </trkpt>
      <trkpt lat="45.69282" lon="3.42092">
        <ele>569.6</ele>
        <time>2025-09-14T08:33:42Z</time>
      </trkpt>
      <trkpt lat="45.69286" lon="3.42083">
        <ele>569</ele>
        <time>2025-09-14T08:33:43Z</time>
      </trkpt>
      <trkpt lat="45.69292" lon="3.42074">
        <ele>568.2</ele>
        <time>2025-09-14T08:33:44Z</time>
      </trkpt>
      <trkpt lat="45.69296" lon="3.42066">
        <ele>567.6</ele>
        <time>2025-09-14T08:33:45Z</time>
      </trkpt>
      <trkpt lat="45.69301" lon="3.42057">
        <ele>567.2</ele>
        <time>2025-09-14T08:33:46Z</time>
      </trkpt>
      <trkpt lat="45.69309" lon="3.42045">
        <ele>566.6</ele>
        <time>2025-09-14T08:33:47Z</time>
      </trkpt>
      <trkpt lat="45.69313" lon="3.42032">
        <ele>566</ele>
        <time>2025-09-14T08:33:48Z</time>
      </trkpt>
      <trkpt lat="45.69315" lon="3.42023">
        <ele>565.6</ele>
        <time>2025-09-14T08:33:49Z</time>
      </trkpt>
      <trkpt lat="45.69317" lon="3.42014">
        <ele>565</ele>
        <time>2025-09-14T08:33:50Z</time>
      </trkpt>
      <trkpt lat="45.6932" lon="3.42006">
        <ele>564.4</ele>
        <time>2025-09-14T08:33:51Z</time>
      </trkpt>
      <trkpt lat="45.69322" lon="3.41997">
        <ele>563.8</ele>
        <time>2025-09-14T08:33:52Z</time>
      </trkpt>
      <trkpt lat="45.69326" lon="3.4199">
        <ele>563.2</ele>
        <time>2025-09-14T08:33:53Z</time>
      </trkpt>
      <trkpt lat="45.6933" lon="3.41983">
        <ele>562.6</ele>
        <time>2025-09-14T08:33:54Z</time>
      </trkpt>
      <trkpt lat="45.69333" lon="3.41976">
        <ele>562.2</ele>
        <time>2025-09-14T08:33:55Z</time>
      </trkpt>
      <trkpt lat="45.69339" lon="3.41969">
        <ele>561.6</ele>
        <time>2025-09-14T08:33:56Z</time>
      </trkpt>
      <trkpt lat="45.69343" lon="3.41961">
        <ele>561</ele>
        <time>2025-09-14T08:33:57Z</time>
      </trkpt>
      <trkpt lat="45.69348" lon="3.4195">
        <ele>560.6</ele>
        <time>2025-09-14T08:33:58Z</time>
      </trkpt>
      <trkpt lat="45.69351" lon="3.41938">
        <ele>560</ele>
        <time>2025-09-14T08:33:59Z</time>
      </trkpt>
      <trkpt lat="45.69355" lon="3.41928">
        <ele>559.4</ele>
        <time>2025-09-14T08:34:00Z</time>
      </trkpt>
      <trkpt lat="45.69361" lon="3.41919">
        <ele>558.8</ele>
        <time>2025-09-14T08:34:01Z</time>
      </trkpt>
      <trkpt lat="45.69364" lon="3.41912">
        <ele>558.4</ele>
        <time>2025-09-14T08:34:02Z</time>
      </trkpt>
      <trkpt lat="45.69367" lon="3.41905">
        <ele>558</ele>
        <time>2025-09-14T08:34:03Z</time>
      </trkpt>
      <trkpt lat="45.69367" lon="3.41897">
        <ele>557.6</ele>
        <time>2025-09-14T08:34:04Z</time>
      </trkpt>
      <trkpt lat="45.69367" lon="3.41889">
        <ele>557.2</ele>
        <time>2025-09-14T08:34:05Z</time>
      </trkpt>
      <trkpt lat="45.69364" lon="3.41881">
        <ele>556.4</ele>
        <time>2025-09-14T08:34:06Z</time>
      </trkpt>
      <trkpt lat="45.69361" lon="3.41874">
        <ele>555.8</ele>
        <time>2025-09-14T08:34:07Z</time>
      </trkpt>
      <trkpt lat="45.69361" lon="3.41869">
        <ele>555</ele>
        <time>2025-09-14T08:34:08Z</time>
      </trkpt>
      <trkpt lat="45.69362" lon="3.41864">
        <ele>554.6</ele>
        <time>2025-09-14T08:34:09Z</time>
      </trkpt>
      <trkpt lat="45.69363" lon="3.41859">
        <ele>554</ele>
        <time>2025-09-14T08:34:10Z</time>
      </trkpt>
      <trkpt lat="45.69364" lon="3.41854">
        <ele>553.6</ele>
        <time>2025-09-14T08:34:11Z</time>
      </trkpt>
      <trkpt lat="45.69366" lon="3.41851">
        <ele>553</ele>
        <time>2025-09-14T08:34:12Z</time>
      </trkpt>
      <trkpt lat="45.69368" lon="3.41847">
        <ele>552.4</ele>
        <time>2025-09-14T08:34:13Z</time>
      </trkpt>
      <trkpt lat="45.6937" lon="3.41844">
        <ele>552</ele>
        <time>2025-09-14T08:34:14Z</time>
      </trkpt>
      <trkpt lat="45.69373" lon="3.4184">
        <ele>551.6</ele>
        <time>2025-09-14T08:34:15Z</time>
      </trkpt>
      <trkpt lat="45.69377" lon="3.41836">
        <ele>551</ele>
        <time>2025-09-14T08:34:16Z</time>
      </trkpt>
      <trkpt lat="45.69379" lon="3.41834">
        <ele>550.6</ele>
        <time>2025-09-14T08:34:17Z</time>
      </trkpt>
      <trkpt lat="45.69382" lon="3.41833">
        <ele>550.2</ele>
        <time>2025-09-14T08:34:18Z</time>
      </trkpt>
      <trkpt lat="45.69384" lon="3.41831">
        <ele>549.8</ele>
        <time>2025-09-14T08:34:19Z</time>
      </trkpt>
      <trkpt lat="45.69387" lon="3.4183">
        <ele>549.4</ele>
        <time>2025-09-14T08:34:20Z</time>
      </trkpt>
      <trkpt lat="45.6939" lon="3.4183">
        <ele>549</ele>
        <time>2025-09-14T08:34:21Z</time>
      </trkpt>
      <trkpt lat="45.69394" lon="3.4183">
        <ele>548.6</ele>
        <time>2025-09-14T08:34:22Z</time>
      </trkpt>
      <trkpt lat="45.69398" lon="3.41831">
        <ele>548.2</ele>
        <time>2025-09-14T08:34:23Z</time>
      </trkpt>
      <trkpt lat="45.69401" lon="3.41832">
        <ele>548</ele>
        <time>2025-09-14T08:34:24Z</time>
      </trkpt>
      <trkpt lat="45.69404" lon="3.41833">
        <ele>547.8</ele>
        <time>2025-09-14T08:34:25Z</time>
      </trkpt>
      <trkpt lat="45.69407" lon="3.41834">
        <ele>547.4</ele>
        <time>2025-09-14T08:34:26Z</time>
      </trkpt>
      <trkpt lat="45.6941" lon="3.41834">
        <ele>547.2</ele>
        <time>2025-09-14T08:34:27Z</time>
      </trkpt>
      <trkpt lat="45.69414" lon="3.41835">
        <ele>546.8</ele>
        <time>2025-09-14T08:34:28Z</time>
      </trkpt>
      <trkpt lat="45.69419" lon="3.41835">
        <ele>546.4</ele>
        <time>2025-09-14T08:34:29Z</time>
      </trkpt>
      <trkpt lat="45.69424" lon="3.41835">
        <ele>546</ele>
        <time>2025-09-14T08:34:30Z</time>
      </trkpt>
      <trkpt lat="45.6943" lon="3.41836">
        <ele>545.6</ele>
        <time>2025-09-14T08:34:31Z</time>
      </trkpt>
      <trkpt lat="45.69436" lon="3.41837">
        <ele>545.4</ele>
        <time>2025-09-14T08:34:32Z</time>
      </trkpt>
      <trkpt lat="45.69443" lon="3.41838">
        <ele>545.4</ele>
        <time>2025-09-14T08:34:33Z</time>
      </trkpt>
      <trkpt lat="45.69451" lon="3.4184">
        <ele>545.2</ele>
        <time>2025-09-14T08:34:34Z</time>
      </trkpt>
      <trkpt lat="45.69459" lon="3.41843">
        <ele>545.2</ele>
        <time>2025-09-14T08:34:35Z</time>
      </trkpt>
      <trkpt lat="45.69466" lon="3.41844">
        <ele>545</ele>
        <time>2025-09-14T08:34:36Z</time>
      </trkpt>
      <trkpt lat="45.69472" lon="3.41845">
        <ele>544.8</ele>
        <time>2025-09-14T08:34:37Z</time>
      </trkpt>
      <trkpt lat="45.69479" lon="3.41846">
        <ele>544.6</ele>
        <time>2025-09-14T08:34:38Z</time>
      </trkpt>
      <trkpt lat="45.69486" lon="3.41846">
        <ele>544.4</ele>
        <time>2025-09-14T08:34:39Z</time>
      </trkpt>
      <trkpt lat="45.69494" lon="3.41845">
        <ele>544</ele>
        <time>2025-09-14T08:34:40Z</time>
      </trkpt>
      <trkpt lat="45.69498" lon="3.41844">
        <ele>543.6</ele>
        <time>2025-09-14T08:34:41Z</time>
      </trkpt>
      <trkpt lat="45.69503" lon="3.41844">
        <ele>543</ele>
        <time>2025-09-14T08:34:42Z</time>
      </trkpt>
      <trkpt lat="45.6951" lon="3.41847">
        <ele>542.6</ele>
        <time>2025-09-14T08:34:43Z</time>
      </trkpt>
      <trkpt lat="45.69519" lon="3.41848">
        <ele>542.4</ele>
        <time>2025-09-14T08:34:44Z</time>
      </trkpt>
      <trkpt lat="45.69528" lon="3.41848">
        <ele>541.8</ele>
        <time>2025-09-14T08:34:45Z</time>
      </trkpt>
      <trkpt lat="45.69535" lon="3.41849">
        <ele>541.4</ele>
        <time>2025-09-14T08:34:46Z</time>
      </trkpt>
      <trkpt lat="45.69543" lon="3.4185">
        <ele>541.2</ele>
        <time>2025-09-14T08:34:47Z</time>
      </trkpt>
      <trkpt lat="45.69551" lon="3.41851">
        <ele>540.8</ele>
        <time>2025-09-14T08:34:48Z</time>
      </trkpt>
      <trkpt lat="45.69558" lon="3.41852">
        <ele>540.4</ele>
        <time>2025-09-14T08:34:49Z</time>
      </trkpt>
      <trkpt lat="45.69564" lon="3.41852">
        <ele>540</ele>
        <time>2025-09-14T08:34:50Z</time>
      </trkpt>
      <trkpt lat="45.6957" lon="3.41852">
        <ele>539.6</ele>
        <time>2025-09-14T08:34:51Z</time>
      </trkpt>
      <trkpt lat="45.69578" lon="3.41852">
        <ele>539.2</ele>
        <time>2025-09-14T08:34:52Z</time>
      </trkpt>
      <trkpt lat="45.69585" lon="3.4185">
        <ele>538.6</ele>
        <time>2025-09-14T08:34:53Z</time>
      </trkpt>
      <trkpt lat="45.69595" lon="3.41847">
        <ele>538</ele>
        <time>2025-09-14T08:34:54Z</time>
      </trkpt>
      <trkpt lat="45.69604" lon="3.41843">
        <ele>537.4</ele>
        <time>2025-09-14T08:34:55Z</time>
      </trkpt>
      <trkpt lat="45.69612" lon="3.41841">
        <ele>537</ele>
        <time>2025-09-14T08:34:56Z</time>
      </trkpt>
      <trkpt lat="45.69618" lon="3.41841">
        <ele>536.6</ele>
        <time>2025-09-14T08:34:57Z</time>
      </trkpt>
      <trkpt lat="45.69623" lon="3.4184">
        <ele>536</ele>
        <time>2025-09-14T08:34:58Z</time>
      </trkpt>
      <trkpt lat="45.69629" lon="3.41841">
        <ele>535.8</ele>
        <time>2025-09-14T08:34:59Z</time>
      </trkpt>
      <trkpt lat="45.69636" lon="3.4184">
        <ele>535.4</ele>
        <time>2025-09-14T08:35:00Z</time>
      </trkpt>
      <trkpt lat="45.69642" lon="3.41839">
        <ele>535.4</ele>
        <time>2025-09-14T08:35:01Z</time>
      </trkpt>
      <trkpt lat="45.69647" lon="3.41839">
        <ele>535.2</ele>
        <time>2025-09-14T08:35:02Z</time>
      </trkpt>
      <trkpt lat="45.69653" lon="3.41838">
        <ele>535.2</ele>
        <time>2025-09-14T08:35:03Z</time>
      </trkpt>
      <trkpt lat="45.69657" lon="3.41839">
        <ele>535.2</ele>
        <time>2025-09-14T08:35:04Z</time>
      </trkpt>
      <trkpt lat="45.69661" lon="3.41838">
        <ele>535.4</ele>
        <time>2025-09-14T08:35:05Z</time>
      </trkpt>
      <trkpt lat="45.69666" lon="3.41837">
        <ele>535.4</ele>
        <time>2025-09-14T08:35:06Z</time>
      </trkpt>
      <trkpt lat="45.69674" lon="3.41833">
        <ele>535.2</ele>
        <time>2025-09-14T08:35:07Z</time>
      </trkpt>
      <trkpt lat="45.69687" lon="3.41825">
        <ele>534.8</ele>
        <time>2025-09-14T08:35:08Z</time>
      </trkpt>
      <trkpt lat="45.69692" lon="3.41818">
        <ele>534.4</ele>
        <time>2025-09-14T08:35:09Z</time>
      </trkpt>
      <trkpt lat="45.69697" lon="3.41812">
        <ele>534</ele>
        <time>2025-09-14T08:35:10Z</time>
      </trkpt>
      <trkpt lat="45.69701" lon="3.41805">
        <ele>533.6</ele>
        <time>2025-09-14T08:35:11Z</time>
      </trkpt>
      <trkpt lat="45.69702" lon="3.41799">
        <ele>533</ele>
        <time>2025-09-14T08:35:12Z</time>
      </trkpt>
      <trkpt lat="45.69703" lon="3.41793">
        <ele>532.4</ele>
        <time>2025-09-14T08:35:13Z</time>
      </trkpt>
      <trkpt lat="45.69702" lon="3.41789">
        <ele>531.8</ele>
        <time>2025-09-14T08:35:14Z</time>
      </trkpt>
      <trkpt lat="45.697" lon="3.41786">
        <ele>531.2</ele>
        <time>2025-09-14T08:35:15Z</time>
      </trkpt>
      <trkpt lat="45.69698" lon="3.41784">
        <ele>530.6</ele>
        <time>2025-09-14T08:35:16Z</time>
      </trkpt>
      <trkpt lat="45.69695" lon="3.41783">
        <ele>529.8</ele>
        <time>2025-09-14T08:35:17Z</time>
      </trkpt>
      <trkpt lat="45.69692" lon="3.41784">
        <ele>529.2</ele>
        <time>2025-09-14T08:35:18Z</time>
      </trkpt>
      <trkpt lat="45.69688" lon="3.41784">
        <ele>528.8</ele>
        <time>2025-09-14T08:35:19Z</time>
      </trkpt>
      <trkpt lat="45.69684" lon="3.41785">
        <ele>528</ele>
        <time>2025-09-14T08:35:20Z</time>
      </trkpt>
      <trkpt lat="45.6968" lon="3.41784">
        <ele>527.2</ele>
        <time>2025-09-14T08:35:21Z</time>
      </trkpt>
      <trkpt lat="45.69676" lon="3.41785">
        <ele>526.8</ele>
        <time>2025-09-14T08:35:22Z</time>
      </trkpt>
      <trkpt lat="45.69673" lon="3.41785">
        <ele>526.4</ele>
        <time>2025-09-14T08:35:23Z</time>
      </trkpt>
      <trkpt lat="45.69669" lon="3.41784">
        <ele>526.2</ele>
        <time>2025-09-14T08:35:24Z</time>
      </trkpt>
      <trkpt lat="45.69665" lon="3.41784">
        <ele>526</ele>
        <time>2025-09-14T08:35:25Z</time>
      </trkpt>
      <trkpt lat="45.69661" lon="3.41782">
        <ele>525.4</ele>
        <time>2025-09-14T08:35:26Z</time>
      </trkpt>
      <trkpt lat="45.69658" lon="3.4178">
        <ele>525</ele>
        <time>2025-09-14T08:35:27Z</time>
      </trkpt>
      <trkpt lat="45.69656" lon="3.41779">
        <ele>524.6</ele>
        <time>2025-09-14T08:35:28Z</time>
      </trkpt>
      <trkpt lat="45.69656" lon="3.41777">
        <ele>524</ele>
        <time>2025-09-14T08:35:29Z</time>
      </trkpt>
      <trkpt lat="45.69656" lon="3.41775">
        <ele>523.6</ele>
        <time>2025-09-14T08:35:30Z</time>
      </trkpt>
      <trkpt lat="45.69655" lon="3.41772">
        <ele>523</ele>
        <time>2025-09-14T08:35:31Z</time>
      </trkpt>
      <trkpt lat="45.69653" lon="3.41768">
        <ele>522.4</ele>
        <time>2025-09-14T08:35:32Z</time>
      </trkpt>
      <trkpt lat="45.69652" lon="3.41766">
        <ele>522</ele>
        <time>2025-09-14T08:35:33Z</time>
      </trkpt>
      <trkpt lat="45.6965" lon="3.41764">
        <ele>521.4</ele>
        <time>2025-09-14T08:35:34Z</time>
      </trkpt>
      <trkpt lat="45.69647" lon="3.41764">
        <ele>521</ele>
        <time>2025-09-14T08:35:35Z</time>
      </trkpt>
      <trkpt lat="45.69642" lon="3.41762">
        <ele>520.4</ele>
        <time>2025-09-14T08:35:36Z</time>
      </trkpt>
      <trkpt lat="45.69638" lon="3.41761">
        <ele>519.8</ele>
        <time>2025-09-14T08:35:37Z</time>
      </trkpt>
      <trkpt lat="45.69636" lon="3.4176">
        <ele>519.2</ele>
        <time>2025-09-14T08:35:38Z</time>
      </trkpt>
      <trkpt lat="45.69634" lon="3.41758">
        <ele>518.8</ele>
        <time>2025-09-14T08:35:39Z</time>
      </trkpt>
      <trkpt lat="45.69633" lon="3.41756">
        <ele>518.4</ele>
        <time>2025-09-14T08:35:40Z</time>
      </trkpt>
      <trkpt lat="45.69633" lon="3.41753">
        <ele>518</ele>
        <time>2025-09-14T08:35:41Z</time>
      </trkpt>
      <trkpt lat="45.69634" lon="3.4175">
        <ele>517.6</ele>
        <time>2025-09-14T08:35:42Z</time>
      </trkpt>
      <trkpt lat="45.69635" lon="3.41746">
        <ele>517.2</ele>
        <time>2025-09-14T08:35:43Z</time>
      </trkpt>
      <trkpt lat="45.69635" lon="3.41745">
        <ele>516.8</ele>
        <time>2025-09-14T08:35:44Z</time>
      </trkpt>
      <trkpt lat="45.69635" lon="3.41745">
        <ele>516.4</ele>
        <time>2025-09-14T08:35:45Z</time>
      </trkpt>
      <trkpt lat="45.69635" lon="3.41745">
        <ele>515.8</ele>
        <time>2025-09-14T08:35:46Z</time>
      </trkpt>
      <trkpt lat="45.69635" lon="3.41745">
        <ele>515.2</ele>
        <time>2025-09-14T08:35:47Z</time>
      </trkpt>
      <trkpt lat="45.69635" lon="3.41745">
        <ele>513.6</ele>
        <time>2025-09-14T08:35:49Z</time>
      </trkpt>
      <trkpt lat="45.69636" lon="3.41744">
        <ele>513.2</ele>
        <time>2025-09-14T08:35:50Z</time>
      </trkpt>
      <trkpt lat="45.69636" lon="3.41742">
        <ele>513</ele>
        <time>2025-09-14T08:35:51Z</time>
      </trkpt>
      <trkpt lat="45.69636" lon="3.41742">
        <ele>512.8</ele>
        <time>2025-09-14T08:35:52Z</time>
      </trkpt>
      <trkpt lat="45.69638" lon="3.4174">
        <ele>513</ele>
        <time>2025-09-14T08:35:53Z</time>
      </trkpt>
      <trkpt lat="45.69639" lon="3.41736">
        <ele>513</ele>
        <time>2025-09-14T08:35:54Z</time>
      </trkpt>
      <trkpt lat="45.69641" lon="3.41732">
        <ele>513.2</ele>
        <time>2025-09-14T08:35:55Z</time>
      </trkpt>
      <trkpt lat="45.69643" lon="3.41731">
        <ele>513.4</ele>
        <time>2025-09-14T08:35:56Z</time>
      </trkpt>
      <trkpt lat="45.69646" lon="3.41729">
        <ele>513.2</ele>
        <time>2025-09-14T08:35:57Z</time>
      </trkpt>
      <trkpt lat="45.69648" lon="3.41726">
        <ele>512.8</ele>
        <time>2025-09-14T08:35:58Z</time>
      </trkpt>
      <trkpt lat="45.69653" lon="3.41721">
        <ele>512.6</ele>
        <time>2025-09-14T08:35:59Z</time>
      </trkpt>
      <trkpt lat="45.69655" lon="3.41717">
        <ele>512.4</ele>
        <time>2025-09-14T08:36:00Z</time>
      </trkpt>
      <trkpt lat="45.69659" lon="3.41713">
        <ele>512.2</ele>
        <time>2025-09-14T08:36:01Z</time>
      </trkpt>
      <trkpt lat="45.69662" lon="3.41707">
        <ele>512</ele>
        <time>2025-09-14T08:36:02Z</time>
      </trkpt>
      <trkpt lat="45.69663" lon="3.41701">
        <ele>511.8</ele>
        <time>2025-09-14T08:36:03Z</time>
      </trkpt>
      <trkpt lat="45.69666" lon="3.41696">
        <ele>512</ele>
        <time>2025-09-14T08:36:04Z</time>
      </trkpt>
      <trkpt lat="45.6967" lon="3.41691">
        <ele>512.2</ele>
        <time>2025-09-14T08:36:05Z</time>
      </trkpt>
      <trkpt lat="45.69674" lon="3.41686">
        <ele>512.2</ele>
        <time>2025-09-14T08:36:06Z</time>
      </trkpt>
      <trkpt lat="45.69677" lon="3.41682">
        <ele>512</ele>
        <time>2025-09-14T08:36:07Z</time>
      </trkpt>
      <trkpt lat="45.6968" lon="3.41678">
        <ele>511.8</ele>
        <time>2025-09-14T08:36:08Z</time>
      </trkpt>
      <trkpt lat="45.69684" lon="3.41674">
        <ele>511.4</ele>
        <time>2025-09-14T08:36:09Z</time>
      </trkpt>
      <trkpt lat="45.69692" lon="3.41669">
        <ele>511</ele>
        <time>2025-09-14T08:36:10Z</time>
      </trkpt>
      <trkpt lat="45.69699" lon="3.41663">
        <ele>510.8</ele>
        <time>2025-09-14T08:36:11Z</time>
      </trkpt>
      <trkpt lat="45.69704" lon="3.41656">
        <ele>511</ele>
        <time>2025-09-14T08:36:12Z</time>
      </trkpt>
      <trkpt lat="45.69712" lon="3.41644">
        <ele>511</ele>
        <time>2025-09-14T08:36:13Z</time>
      </trkpt>
      <trkpt lat="45.69718" lon="3.41636">
        <ele>511</ele>
        <time>2025-09-14T08:36:14Z</time>
      </trkpt>
      <trkpt lat="45.69721" lon="3.41633">
        <ele>510.8</ele>
        <time>2025-09-14T08:36:15Z</time>
      </trkpt>
      <trkpt lat="45.69723" lon="3.41629">
        <ele>510.6</ele>
        <time>2025-09-14T08:36:16Z</time>
      </trkpt>
      <trkpt lat="45.69728" lon="3.41626">
        <ele>510</ele>
        <time>2025-09-14T08:36:17Z</time>
      </trkpt>
      <trkpt lat="45.69731" lon="3.41622">
        <ele>509.6</ele>
        <time>2025-09-14T08:36:18Z</time>
      </trkpt>
      <trkpt lat="45.69733" lon="3.41616">
        <ele>509.2</ele>
        <time>2025-09-14T08:36:19Z</time>
      </trkpt>
      <trkpt lat="45.69734" lon="3.41612">
        <ele>509</ele>
        <time>2025-09-14T08:36:20Z</time>
      </trkpt>
      <trkpt lat="45.69737" lon="3.41608">
        <ele>508.8</ele>
        <time>2025-09-14T08:36:21Z</time>
      </trkpt>
      <trkpt lat="45.6974" lon="3.41604">
        <ele>508.6</ele>
        <time>2025-09-14T08:36:22Z</time>
      </trkpt>
      <trkpt lat="45.69745" lon="3.416">
        <ele>508.6</ele>
        <time>2025-09-14T08:36:23Z</time>
      </trkpt>
      <trkpt lat="45.69752" lon="3.41593">
        <ele>508.6</ele>
        <time>2025-09-14T08:36:24Z</time>
      </trkpt>
      <trkpt lat="45.69757" lon="3.41582">
        <ele>508.6</ele>
        <time>2025-09-14T08:36:25Z</time>
      </trkpt>
      <trkpt lat="45.69759" lon="3.41573">
        <ele>508.6</ele>
        <time>2025-09-14T08:36:26Z</time>
      </trkpt>
      <trkpt lat="45.69761" lon="3.41568">
        <ele>509.2</ele>
        <time>2025-09-14T08:36:27Z</time>
      </trkpt>
      <trkpt lat="45.69763" lon="3.41564">
        <ele>509.4</ele>
        <time>2025-09-14T08:36:28Z</time>
      </trkpt>
      <trkpt lat="45.69764" lon="3.4156">
        <ele>509.6</ele>
        <time>2025-09-14T08:36:29Z</time>
      </trkpt>
      <trkpt lat="45.69766" lon="3.41556">
        <ele>509.2</ele>
        <time>2025-09-14T08:36:30Z</time>
      </trkpt>
      <trkpt lat="45.69772" lon="3.41551">
        <ele>509</ele>
        <time>2025-09-14T08:36:31Z</time>
      </trkpt>
      <trkpt lat="45.69776" lon="3.41545">
        <ele>508.6</ele>
        <time>2025-09-14T08:36:32Z</time>
      </trkpt>
      <trkpt lat="45.69781" lon="3.41539">
        <ele>508.4</ele>
        <time>2025-09-14T08:36:33Z</time>
      </trkpt>
      <trkpt lat="45.69786" lon="3.41533">
        <ele>508.2</ele>
        <time>2025-09-14T08:36:34Z</time>
      </trkpt>
      <trkpt lat="45.6979" lon="3.41527">
        <ele>508.2</ele>
        <time>2025-09-14T08:36:35Z</time>
      </trkpt>
      <trkpt lat="45.69792" lon="3.41524">
        <ele>508</ele>
        <time>2025-09-14T08:36:36Z</time>
      </trkpt>
      <trkpt lat="45.69794" lon="3.4152">
        <ele>508</ele>
        <time>2025-09-14T08:36:37Z</time>
      </trkpt>
      <trkpt lat="45.69796" lon="3.41515">
        <ele>508</ele>
        <time>2025-09-14T08:36:38Z</time>
      </trkpt>
      <trkpt lat="45.69799" lon="3.41509">
        <ele>507.8</ele>
        <time>2025-09-14T08:36:39Z</time>
      </trkpt>
      <trkpt lat="45.698" lon="3.41507">
        <ele>507.6</ele>
        <time>2025-09-14T08:36:40Z</time>
      </trkpt>
      <trkpt lat="45.69801" lon="3.41507">
        <ele>507.6</ele>
        <time>2025-09-14T08:36:41Z</time>
      </trkpt>
      <trkpt lat="45.69802" lon="3.41504">
        <ele>507.2</ele>
        <time>2025-09-14T08:36:51Z</time>
      </trkpt>
      <trkpt lat="45.69802" lon="3.41502">
        <ele>507.2</ele>
        <time>2025-09-14T08:36:52Z</time>
      </trkpt>
      <trkpt lat="45.69803" lon="3.41499">
        <ele>507.2</ele>
        <time>2025-09-14T08:36:53Z</time>
      </trkpt>
      <trkpt lat="45.69805" lon="3.41495">
        <ele>507.2</ele>
        <time>2025-09-14T08:36:54Z</time>
      </trkpt>
      <trkpt lat="45.69806" lon="3.41491">
        <ele>507.2</ele>
        <time>2025-09-14T08:36:55Z</time>
      </trkpt>
      <trkpt lat="45.69808" lon="3.41487">
        <ele>507.2</ele>
        <time>2025-09-14T08:36:56Z</time>
      </trkpt>
      <trkpt lat="45.69808" lon="3.41483">
        <ele>507.4</ele>
        <time>2025-09-14T08:36:57Z</time>
      </trkpt>
      <trkpt lat="45.6981" lon="3.41478">
        <ele>507.4</ele>
        <time>2025-09-14T08:36:58Z</time>
      </trkpt>
      <trkpt lat="45.69812" lon="3.41473">
        <ele>507.4</ele>
        <time>2025-09-14T08:36:59Z</time>
      </trkpt>
      <trkpt lat="45.69815" lon="3.41467">
        <ele>507.8</ele>
        <time>2025-09-14T08:37:00Z</time>
      </trkpt>
      <trkpt lat="45.69815" lon="3.41461">
        <ele>507.8</ele>
        <time>2025-09-14T08:37:01Z</time>
      </trkpt>
      <trkpt lat="45.69815" lon="3.41454">
        <ele>507.8</ele>
        <time>2025-09-14T08:37:02Z</time>
      </trkpt>
      <trkpt lat="45.69814" lon="3.41448">
        <ele>508</ele>
        <time>2025-09-14T08:37:03Z</time>
      </trkpt>
      <trkpt lat="45.69812" lon="3.41441">
        <ele>507.8</ele>
        <time>2025-09-14T08:37:04Z</time>
      </trkpt>
      <trkpt lat="45.69811" lon="3.41435">
        <ele>507.6</ele>
        <time>2025-09-14T08:37:05Z</time>
      </trkpt>
      <trkpt lat="45.69809" lon="3.41429">
        <ele>507.8</ele>
        <time>2025-09-14T08:37:06Z</time>
      </trkpt>
      <trkpt lat="45.69808" lon="3.41422">
        <ele>507.6</ele>
        <time>2025-09-14T08:37:07Z</time>
      </trkpt>
      <trkpt lat="45.69807" lon="3.41416">
        <ele>507.2</ele>
        <time>2025-09-14T08:37:08Z</time>
      </trkpt>
      <trkpt lat="45.69808" lon="3.4141">
        <ele>506.8</ele>
        <time>2025-09-14T08:37:09Z</time>
      </trkpt>
      <trkpt lat="45.69808" lon="3.41404">
        <ele>506.6</ele>
        <time>2025-09-14T08:37:10Z</time>
      </trkpt>
      <trkpt lat="45.6981" lon="3.41396">
        <ele>506.4</ele>
        <time>2025-09-14T08:37:11Z</time>
      </trkpt>
      <trkpt lat="45.69812" lon="3.41387">
        <ele>506.2</ele>
        <time>2025-09-14T08:37:12Z</time>
      </trkpt>
      <trkpt lat="45.69813" lon="3.41379">
        <ele>506.4</ele>
        <time>2025-09-14T08:37:13Z</time>
      </trkpt>
      <trkpt lat="45.69813" lon="3.41371">
        <ele>506.2</ele>
        <time>2025-09-14T08:37:14Z</time>
      </trkpt>
      <trkpt lat="45.69813" lon="3.41365">
        <ele>506</ele>
        <time>2025-09-14T08:37:15Z</time>
      </trkpt>
      <trkpt lat="45.69812" lon="3.41359">
        <ele>506</ele>
        <time>2025-09-14T08:37:16Z</time>
      </trkpt>
      <trkpt lat="45.6981" lon="3.41354">
        <ele>506</ele>
        <time>2025-09-14T08:37:17Z</time>
      </trkpt>
      <trkpt lat="45.6981" lon="3.41347">
        <ele>505.8</ele>
        <time>2025-09-14T08:37:18Z</time>
      </trkpt>
      <trkpt lat="45.6981" lon="3.4134">
        <ele>505.8</ele>
        <time>2025-09-14T08:37:19Z</time>
      </trkpt>
      <trkpt lat="45.69809" lon="3.41334">
        <ele>505.8</ele>
        <time>2025-09-14T08:37:20Z</time>
      </trkpt>
      <trkpt lat="45.69807" lon="3.41328">
        <ele>505.6</ele>
        <time>2025-09-14T08:37:21Z</time>
      </trkpt>
      <trkpt lat="45.69806" lon="3.41324">
        <ele>505.4</ele>
        <time>2025-09-14T08:37:22Z</time>
      </trkpt>
      <trkpt lat="45.69805" lon="3.4132">
        <ele>505.2</ele>
        <time>2025-09-14T08:37:23Z</time>
      </trkpt>
      <trkpt lat="45.69805" lon="3.41316">
        <ele>505</ele>
        <time>2025-09-14T08:37:24Z</time>
      </trkpt>
      <trkpt lat="45.69804" lon="3.41311">
        <ele>505</ele>
        <time>2025-09-14T08:37:25Z</time>
      </trkpt>
      <trkpt lat="45.69803" lon="3.41303">
        <ele>504.8</ele>
        <time>2025-09-14T08:37:26Z</time>
      </trkpt>
      <trkpt lat="45.69804" lon="3.41297">
        <ele>504.8</ele>
        <time>2025-09-14T08:37:27Z</time>
      </trkpt>
      <trkpt lat="45.69804" lon="3.41291">
        <ele>504.8</ele>
        <time>2025-09-14T08:37:28Z</time>
      </trkpt>
      <trkpt lat="45.69803" lon="3.41285">
        <ele>504.6</ele>
        <time>2025-09-14T08:37:29Z</time>
      </trkpt>
      <trkpt lat="45.69804" lon="3.41281">
        <ele>504.8</ele>
        <time>2025-09-14T08:37:30Z</time>
      </trkpt>
      <trkpt lat="45.69807" lon="3.41278">
        <ele>505</ele>
        <time>2025-09-14T08:37:31Z</time>
      </trkpt>
      <trkpt lat="45.69808" lon="3.41274">
        <ele>505.4</ele>
        <time>2025-09-14T08:37:32Z</time>
      </trkpt>
      <trkpt lat="45.69809" lon="3.41271">
        <ele>505.2</ele>
        <time>2025-09-14T08:37:33Z</time>
      </trkpt>
      <trkpt lat="45.69809" lon="3.41267">
        <ele>504.8</ele>
        <time>2025-09-14T08:37:34Z</time>
      </trkpt>
      <trkpt lat="45.6981" lon="3.41263">
        <ele>504.8</ele>
        <time>2025-09-14T08:37:35Z</time>
      </trkpt>
      <trkpt lat="45.69812" lon="3.41258">
        <ele>505</ele>
        <time>2025-09-14T08:37:36Z</time>
      </trkpt>
      <trkpt lat="45.69812" lon="3.41254">
        <ele>505.2</ele>
        <time>2025-09-14T08:37:37Z</time>
      </trkpt>
      <trkpt lat="45.69812" lon="3.4125">
        <ele>504.8</ele>
        <time>2025-09-14T08:37:38Z</time>
      </trkpt>
      <trkpt lat="45.69811" lon="3.41247">
        <ele>504.6</ele>
        <time>2025-09-14T08:37:39Z</time>
      </trkpt>
      <trkpt lat="45.69811" lon="3.41244">
        <ele>504.6</ele>
        <time>2025-09-14T08:37:40Z</time>
      </trkpt>
      <trkpt lat="45.69815" lon="3.41241">
        <ele>504.6</ele>
        <time>2025-09-14T08:37:41Z</time>
      </trkpt>
      <trkpt lat="45.69819" lon="3.41237">
        <ele>504.8</ele>
        <time>2025-09-14T08:37:42Z</time>
      </trkpt>
      <trkpt lat="45.69821" lon="3.41232">
        <ele>505</ele>
        <time>2025-09-14T08:37:43Z</time>
      </trkpt>
      <trkpt lat="45.69823" lon="3.41227">
        <ele>505</ele>
        <time>2025-09-14T08:37:44Z</time>
      </trkpt>
      <trkpt lat="45.69824" lon="3.41222">
        <ele>505.2</ele>
        <time>2025-09-14T08:37:45Z</time>
      </trkpt>
      <trkpt lat="45.69825" lon="3.41218">
        <ele>505.8</ele>
        <time>2025-09-14T08:37:46Z</time>
      </trkpt>
      <trkpt lat="45.69828" lon="3.41213">
        <ele>506</ele>
        <time>2025-09-14T08:37:47Z</time>
      </trkpt>
      <trkpt lat="45.69831" lon="3.41208">
        <ele>506.2</ele>
        <time>2025-09-14T08:37:48Z</time>
      </trkpt>
      <trkpt lat="45.69836" lon="3.41202">
        <ele>506.2</ele>
        <time>2025-09-14T08:37:49Z</time>
      </trkpt>
      <trkpt lat="45.69843" lon="3.41194">
        <ele>506.2</ele>
        <time>2025-09-14T08:37:50Z</time>
      </trkpt>
      <trkpt lat="45.69847" lon="3.41186">
        <ele>506</ele>
        <time>2025-09-14T08:37:51Z</time>
      </trkpt>
      <trkpt lat="45.6985" lon="3.41179">
        <ele>505.8</ele>
        <time>2025-09-14T08:37:52Z</time>
      </trkpt>
      <trkpt lat="45.69853" lon="3.41174">
        <ele>505.2</ele>
        <time>2025-09-14T08:37:53Z</time>
      </trkpt>
      <trkpt lat="45.69856" lon="3.4117">
        <ele>505</ele>
        <time>2025-09-14T08:37:54Z</time>
      </trkpt>
      <trkpt lat="45.69861" lon="3.41165">
        <ele>504.6</ele>
        <time>2025-09-14T08:37:55Z</time>
      </trkpt>
      <trkpt lat="45.69867" lon="3.41159">
        <ele>504.2</ele>
        <time>2025-09-14T08:37:56Z</time>
      </trkpt>
      <trkpt lat="45.69871" lon="3.41153">
        <ele>503.8</ele>
        <time>2025-09-14T08:37:57Z</time>
      </trkpt>
      <trkpt lat="45.69877" lon="3.41146">
        <ele>503.4</ele>
        <time>2025-09-14T08:37:58Z</time>
      </trkpt>
      <trkpt lat="45.69882" lon="3.41139">
        <ele>503</ele>
        <time>2025-09-14T08:37:59Z</time>
      </trkpt>
      <trkpt lat="45.69887" lon="3.41132">
        <ele>502.6</ele>
        <time>2025-09-14T08:38:00Z</time>
      </trkpt>
      <trkpt lat="45.69891" lon="3.41126">
        <ele>502.2</ele>
        <time>2025-09-14T08:38:01Z</time>
      </trkpt>
      <trkpt lat="45.69894" lon="3.4112">
        <ele>502</ele>
        <time>2025-09-14T08:38:02Z</time>
      </trkpt>
      <trkpt lat="45.69896" lon="3.41117">
        <ele>501.8</ele>
        <time>2025-09-14T08:38:03Z</time>
      </trkpt>
      <trkpt lat="45.69897" lon="3.41114">
        <ele>501.6</ele>
        <time>2025-09-14T08:38:04Z</time>
      </trkpt>
      <trkpt lat="45.69898" lon="3.41113">
        <ele>501</ele>
        <time>2025-09-14T08:38:05Z</time>
      </trkpt>
      <trkpt lat="45.69899" lon="3.41111">
        <ele>500.4</ele>
        <time>2025-09-14T08:38:06Z</time>
      </trkpt>
      <trkpt lat="45.69902" lon="3.41107">
        <ele>500.2</ele>
        <time>2025-09-14T08:38:07Z</time>
      </trkpt>
      <trkpt lat="45.69906" lon="3.41102">
        <ele>500.2</ele>
        <time>2025-09-14T08:38:08Z</time>
      </trkpt>
      <trkpt lat="45.69908" lon="3.41098">
        <ele>500.4</ele>
        <time>2025-09-14T08:38:09Z</time>
      </trkpt>
      <trkpt lat="45.69911" lon="3.41094">
        <ele>500.4</ele>
        <time>2025-09-14T08:38:10Z</time>
      </trkpt>
      <trkpt lat="45.69913" lon="3.4109">
        <ele>500.6</ele>
        <time>2025-09-14T08:38:11Z</time>
      </trkpt>
      <trkpt lat="45.69916" lon="3.41086">
        <ele>500.6</ele>
        <time>2025-09-14T08:38:12Z</time>
      </trkpt>
      <trkpt lat="45.69918" lon="3.41081">
        <ele>500.6</ele>
        <time>2025-09-14T08:38:13Z</time>
      </trkpt>
      <trkpt lat="45.69921" lon="3.41077">
        <ele>500.4</ele>
        <time>2025-09-14T08:38:14Z</time>
      </trkpt>
      <trkpt lat="45.69923" lon="3.41075">
        <ele>500.4</ele>
        <time>2025-09-14T08:38:15Z</time>
      </trkpt>
      <trkpt lat="45.69925" lon="3.41073">
        <ele>500.8</ele>
        <time>2025-09-14T08:38:16Z</time>
      </trkpt>
      <trkpt lat="45.69927" lon="3.41071">
        <ele>501.2</ele>
        <time>2025-09-14T08:38:17Z</time>
      </trkpt>
      <trkpt lat="45.6993" lon="3.41069">
        <ele>501.4</ele>
        <time>2025-09-14T08:38:18Z</time>
      </trkpt>
      <trkpt lat="45.69933" lon="3.41066">
        <ele>501.4</ele>
        <time>2025-09-14T08:38:19Z</time>
      </trkpt>
      <trkpt lat="45.69937" lon="3.41062">
        <ele>501.4</ele>
        <time>2025-09-14T08:38:20Z</time>
      </trkpt>
      <trkpt lat="45.6994" lon="3.4106">
        <ele>501.6</ele>
        <time>2025-09-14T08:38:21Z</time>
      </trkpt>
      <trkpt lat="45.69943" lon="3.41057">
        <ele>501.8</ele>
        <time>2025-09-14T08:38:22Z</time>
      </trkpt>
      <trkpt lat="45.69944" lon="3.41056">
        <ele>501.8</ele>
        <time>2025-09-14T08:38:23Z</time>
      </trkpt>
      <trkpt lat="45.69946" lon="3.41053">
        <ele>501.6</ele>
        <time>2025-09-14T08:38:24Z</time>
      </trkpt>
      <trkpt lat="45.69948" lon="3.4105">
        <ele>501.6</ele>
        <time>2025-09-14T08:38:25Z</time>
      </trkpt>
      <trkpt lat="45.69951" lon="3.41047">
        <ele>501.6</ele>
        <time>2025-09-14T08:38:26Z</time>
      </trkpt>
      <trkpt lat="45.69955" lon="3.41044">
        <ele>501.6</ele>
        <time>2025-09-14T08:38:27Z</time>
      </trkpt>
      <trkpt lat="45.69958" lon="3.41041">
        <ele>501.6</ele>
        <time>2025-09-14T08:38:28Z</time>
      </trkpt>
      <trkpt lat="45.69962" lon="3.41037">
        <ele>501.6</ele>
        <time>2025-09-14T08:38:29Z</time>
      </trkpt>
      <trkpt lat="45.69966" lon="3.41033">
        <ele>501.4</ele>
        <time>2025-09-14T08:38:30Z</time>
      </trkpt>
      <trkpt lat="45.6997" lon="3.4103">
        <ele>501.4</ele>
        <time>2025-09-14T08:38:31Z</time>
      </trkpt>
      <trkpt lat="45.69975" lon="3.41025">
        <ele>501.4</ele>
        <time>2025-09-14T08:38:32Z</time>
      </trkpt>
      <trkpt lat="45.69978" lon="3.4102">
        <ele>501.4</ele>
        <time>2025-09-14T08:38:33Z</time>
      </trkpt>
      <trkpt lat="45.69982" lon="3.41017">
        <ele>501.2</ele>
        <time>2025-09-14T08:38:34Z</time>
      </trkpt>
      <trkpt lat="45.69985" lon="3.41013">
        <ele>501.2</ele>
        <time>2025-09-14T08:38:35Z</time>
      </trkpt>
      <trkpt lat="45.69989" lon="3.4101">
        <ele>501.4</ele>
        <time>2025-09-14T08:38:36Z</time>
      </trkpt>
      <trkpt lat="45.69993" lon="3.41007">
        <ele>501.4</ele>
        <time>2025-09-14T08:38:37Z</time>
      </trkpt>
      <trkpt lat="45.69997" lon="3.41004">
        <ele>501.6</ele>
        <time>2025-09-14T08:38:38Z</time>
      </trkpt>
      <trkpt lat="45.70002" lon="3.41001">
        <ele>501.8</ele>
        <time>2025-09-14T08:38:39Z</time>
      </trkpt>
      <trkpt lat="45.70006" lon="3.40997">
        <ele>502</ele>
        <time>2025-09-14T08:38:40Z</time>
      </trkpt>
      <trkpt lat="45.7001" lon="3.40994">
        <ele>501.8</ele>
        <time>2025-09-14T08:38:41Z</time>
      </trkpt>
      <trkpt lat="45.70013" lon="3.40991">
        <ele>501.4</ele>
        <time>2025-09-14T08:38:42Z</time>
      </trkpt>
      <trkpt lat="45.70017" lon="3.40988">
        <ele>501.2</ele>
        <time>2025-09-14T08:38:43Z</time>
      </trkpt>
      <trkpt lat="45.70021" lon="3.40985">
        <ele>500.8</ele>
        <time>2025-09-14T08:38:44Z</time>
      </trkpt>
      <trkpt lat="45.70025" lon="3.40983">
        <ele>500.8</ele>
        <time>2025-09-14T08:38:45Z</time>
      </trkpt>
      <trkpt lat="45.70029" lon="3.40981">
        <ele>500.6</ele>
        <time>2025-09-14T08:38:46Z</time>
      </trkpt>
      <trkpt lat="45.70032" lon="3.4098">
        <ele>500.4</ele>
        <time>2025-09-14T08:38:47Z</time>
      </trkpt>
      <trkpt lat="45.70036" lon="3.40978">
        <ele>500.2</ele>
        <time>2025-09-14T08:38:48Z</time>
      </trkpt>
      <trkpt lat="45.7004" lon="3.40975">
        <ele>500</ele>
        <time>2025-09-14T08:38:49Z</time>
      </trkpt>
      <trkpt lat="45.70043" lon="3.40972">
        <ele>500</ele>
        <time>2025-09-14T08:38:50Z</time>
      </trkpt>
      <trkpt lat="45.70048" lon="3.4097">
        <ele>499.6</ele>
        <time>2025-09-14T08:38:51Z</time>
      </trkpt>
      <trkpt lat="45.70053" lon="3.40968">
        <ele>499.4</ele>
        <time>2025-09-14T08:38:52Z</time>
      </trkpt>
      <trkpt lat="45.70057" lon="3.40966">
        <ele>499.2</ele>
        <time>2025-09-14T08:38:53Z</time>
      </trkpt>
      <trkpt lat="45.70061" lon="3.40964">
        <ele>499.2</ele>
        <time>2025-09-14T08:38:54Z</time>
      </trkpt>
      <trkpt lat="45.70066" lon="3.40963">
        <ele>499.2</ele>
        <time>2025-09-14T08:38:55Z</time>
      </trkpt>
      <trkpt lat="45.7007" lon="3.40961">
        <ele>499.2</ele>
        <time>2025-09-14T08:38:56Z</time>
      </trkpt>
      <trkpt lat="45.70073" lon="3.4096">
        <ele>499.2</ele>
        <time>2025-09-14T08:38:57Z</time>
      </trkpt>
      <trkpt lat="45.70077" lon="3.40959">
        <ele>499.2</ele>
        <time>2025-09-14T08:38:58Z</time>
      </trkpt>
      <trkpt lat="45.7008" lon="3.40958">
        <ele>499.4</ele>
        <time>2025-09-14T08:38:59Z</time>
      </trkpt>
      <trkpt lat="45.70083" lon="3.40957">
        <ele>499.6</ele>
        <time>2025-09-14T08:39:00Z</time>
      </trkpt>
      <trkpt lat="45.70087" lon="3.40956">
        <ele>499.6</ele>
        <time>2025-09-14T08:39:01Z</time>
      </trkpt>
      <trkpt lat="45.70091" lon="3.40955">
        <ele>499.6</ele>
        <time>2025-09-14T08:39:02Z</time>
      </trkpt>
      <trkpt lat="45.70094" lon="3.40954">
        <ele>499.6</ele>
        <time>2025-09-14T08:39:03Z</time>
      </trkpt>
      <trkpt lat="45.70098" lon="3.40953">
        <ele>499.4</ele>
        <time>2025-09-14T08:39:04Z</time>
      </trkpt>
      <trkpt lat="45.70102" lon="3.40952">
        <ele>499.6</ele>
        <time>2025-09-14T08:39:05Z</time>
      </trkpt>
      <trkpt lat="45.70106" lon="3.40951">
        <ele>499.6</ele>
        <time>2025-09-14T08:39:06Z</time>
      </trkpt>
      <trkpt lat="45.7011" lon="3.4095">
        <ele>499.6</ele>
        <time>2025-09-14T08:39:07Z</time>
      </trkpt>
      <trkpt lat="45.70114" lon="3.40948">
        <ele>499.6</ele>
        <time>2025-09-14T08:39:08Z</time>
      </trkpt>
      <trkpt lat="45.70117" lon="3.40947">
        <ele>499.6</ele>
        <time>2025-09-14T08:39:09Z</time>
      </trkpt>
      <trkpt lat="45.7012" lon="3.40946">
        <ele>499.6</ele>
        <time>2025-09-14T08:39:10Z</time>
      </trkpt>
      <trkpt lat="45.70123" lon="3.40945">
        <ele>499.6</ele>
        <time>2025-09-14T08:39:11Z</time>
      </trkpt>
      <trkpt lat="45.70126" lon="3.40944">
        <ele>499.8</ele>
        <time>2025-09-14T08:39:12Z</time>
      </trkpt>
      <trkpt lat="45.70129" lon="3.40944">
        <ele>499.8</ele>
        <time>2025-09-14T08:39:13Z</time>
      </trkpt>
      <trkpt lat="45.70132" lon="3.40943">
        <ele>499.8</ele>
        <time>2025-09-14T08:39:14Z</time>
      </trkpt>
      <trkpt lat="45.70135" lon="3.40942">
        <ele>499.8</ele>
        <time>2025-09-14T08:39:15Z</time>
      </trkpt>
      <trkpt lat="45.70138" lon="3.40941">
        <ele>499.8</ele>
        <time>2025-09-14T08:39:16Z</time>
      </trkpt>
      <trkpt lat="45.70142" lon="3.4094">
        <ele>499.8</ele>
        <time>2025-09-14T08:39:17Z</time>
      </trkpt>
      <trkpt lat="45.70146" lon="3.40938">
        <ele>499.8</ele>
        <time>2025-09-14T08:39:18Z</time>
      </trkpt>
      <trkpt lat="45.70149" lon="3.40937">
        <ele>499.8</ele>
        <time>2025-09-14T08:39:19Z</time>
      </trkpt>
      <trkpt lat="45.70154" lon="3.40936">
        <ele>500</ele>
        <time>2025-09-14T08:39:20Z</time>
      </trkpt>
      <trkpt lat="45.70159" lon="3.40934">
        <ele>500</ele>
        <time>2025-09-14T08:39:21Z</time>
      </trkpt>
      <trkpt lat="45.70167" lon="3.40931">
        <ele>500</ele>
        <time>2025-09-14T08:39:22Z</time>
      </trkpt>
      <trkpt lat="45.70173" lon="3.40927">
        <ele>500.4</ele>
        <time>2025-09-14T08:39:23Z</time>
      </trkpt>
      <trkpt lat="45.7018" lon="3.40924">
        <ele>500.6</ele>
        <time>2025-09-14T08:39:24Z</time>
      </trkpt>
      <trkpt lat="45.70186" lon="3.4092">
        <ele>501</ele>
        <time>2025-09-14T08:39:25Z</time>
      </trkpt>
      <trkpt lat="45.70192" lon="3.40917">
        <ele>501.2</ele>
        <time>2025-09-14T08:39:26Z</time>
      </trkpt>
      <trkpt lat="45.70198" lon="3.40913">
        <ele>501</ele>
        <time>2025-09-14T08:39:27Z</time>
      </trkpt>
      <trkpt lat="45.70204" lon="3.40909">
        <ele>500.8</ele>
        <time>2025-09-14T08:39:28Z</time>
      </trkpt>
      <trkpt lat="45.7021" lon="3.40905">
        <ele>500.8</ele>
        <time>2025-09-14T08:39:29Z</time>
      </trkpt>
      <trkpt lat="45.70216" lon="3.409">
        <ele>500.6</ele>
        <time>2025-09-14T08:39:30Z</time>
      </trkpt>
      <trkpt lat="45.70221" lon="3.40897">
        <ele>500.2</ele>
        <time>2025-09-14T08:39:31Z</time>
      </trkpt>
      <trkpt lat="45.70226" lon="3.40893">
        <ele>500</ele>
        <time>2025-09-14T08:39:32Z</time>
      </trkpt>
      <trkpt lat="45.70231" lon="3.40891">
        <ele>499.8</ele>
        <time>2025-09-14T08:39:33Z</time>
      </trkpt>
      <trkpt lat="45.70236" lon="3.40887">
        <ele>499.4</ele>
        <time>2025-09-14T08:39:34Z</time>
      </trkpt>
      <trkpt lat="45.70242" lon="3.40884">
        <ele>499.2</ele>
        <time>2025-09-14T08:39:35Z</time>
      </trkpt>
      <trkpt lat="45.70247" lon="3.4088">
        <ele>499</ele>
        <time>2025-09-14T08:39:36Z</time>
      </trkpt>
      <trkpt lat="45.70252" lon="3.40877">
        <ele>499</ele>
        <time>2025-09-14T08:39:37Z</time>
      </trkpt>
      <trkpt lat="45.70256" lon="3.40874">
        <ele>498.8</ele>
        <time>2025-09-14T08:39:38Z</time>
      </trkpt>
      <trkpt lat="45.7026" lon="3.4087">
        <ele>499</ele>
        <time>2025-09-14T08:39:39Z</time>
      </trkpt>
      <trkpt lat="45.70265" lon="3.40867">
        <ele>498.8</ele>
        <time>2025-09-14T08:39:40Z</time>
      </trkpt>
      <trkpt lat="45.70268" lon="3.40864">
        <ele>498.6</ele>
        <time>2025-09-14T08:39:41Z</time>
      </trkpt>
      <trkpt lat="45.70272" lon="3.40861">
        <ele>498.6</ele>
        <time>2025-09-14T08:39:42Z</time>
      </trkpt>
      <trkpt lat="45.70276" lon="3.40859">
        <ele>498.8</ele>
        <time>2025-09-14T08:39:43Z</time>
      </trkpt>
      <trkpt lat="45.7028" lon="3.40856">
        <ele>499.2</ele>
        <time>2025-09-14T08:39:44Z</time>
      </trkpt>
      <trkpt lat="45.70283" lon="3.40852">
        <ele>499.2</ele>
        <time>2025-09-14T08:39:45Z</time>
      </trkpt>
      <trkpt lat="45.70287" lon="3.40848">
        <ele>499</ele>
        <time>2025-09-14T08:39:46Z</time>
      </trkpt>
      <trkpt lat="45.70289" lon="3.40842">
        <ele>499</ele>
        <time>2025-09-14T08:39:47Z</time>
      </trkpt>
      <trkpt lat="45.70291" lon="3.40836">
        <ele>498.8</ele>
        <time>2025-09-14T08:39:48Z</time>
      </trkpt>
      <trkpt lat="45.70293" lon="3.4083">
        <ele>498.6</ele>
        <time>2025-09-14T08:39:49Z</time>
      </trkpt>
      <trkpt lat="45.70296" lon="3.40824">
        <ele>498.4</ele>
        <time>2025-09-14T08:39:50Z</time>
      </trkpt>
      <trkpt lat="45.70297" lon="3.40818">
        <ele>498.4</ele>
        <time>2025-09-14T08:39:51Z</time>
      </trkpt>
      <trkpt lat="45.70299" lon="3.40813">
        <ele>498.4</ele>
        <time>2025-09-14T08:39:52Z</time>
      </trkpt>
      <trkpt lat="45.70302" lon="3.40807">
        <ele>498.6</ele>
        <time>2025-09-14T08:39:53Z</time>
      </trkpt>
      <trkpt lat="45.70303" lon="3.40802">
        <ele>498.4</ele>
        <time>2025-09-14T08:39:54Z</time>
      </trkpt>
      <trkpt lat="45.70305" lon="3.40797">
        <ele>498.4</ele>
        <time>2025-09-14T08:39:55Z</time>
      </trkpt>
      <trkpt lat="45.70307" lon="3.40791">
        <ele>498.4</ele>
        <time>2025-09-14T08:39:56Z</time>
      </trkpt>
      <trkpt lat="45.70309" lon="3.40785">
        <ele>498.4</ele>
        <time>2025-09-14T08:39:57Z</time>
      </trkpt>
      <trkpt lat="45.70311" lon="3.40779">
        <ele>498.2</ele>
        <time>2025-09-14T08:39:58Z</time>
      </trkpt>
      <trkpt lat="45.70313" lon="3.40774">
        <ele>498.2</ele>
        <time>2025-09-14T08:39:59Z</time>
      </trkpt>
      <trkpt lat="45.70315" lon="3.40769">
        <ele>498.2</ele>
        <time>2025-09-14T08:40:00Z</time>
      </trkpt>
      <trkpt lat="45.70317" lon="3.40763">
        <ele>498.2</ele>
        <time>2025-09-14T08:40:01Z</time>
      </trkpt>
      <trkpt lat="45.7032" lon="3.40758">
        <ele>498.2</ele>
        <time>2025-09-14T08:40:02Z</time>
      </trkpt>
      <trkpt lat="45.70322" lon="3.40752">
        <ele>498.4</ele>
        <time>2025-09-14T08:40:03Z</time>
      </trkpt>
      <trkpt lat="45.70325" lon="3.40746">
        <ele>498.8</ele>
        <time>2025-09-14T08:40:04Z</time>
      </trkpt>
      <trkpt lat="45.70327" lon="3.40739">
        <ele>498.8</ele>
        <time>2025-09-14T08:40:05Z</time>
      </trkpt>
      <trkpt lat="45.70329" lon="3.40732">
        <ele>498.8</ele>
        <time>2025-09-14T08:40:06Z</time>
      </trkpt>
      <trkpt lat="45.70332" lon="3.40724">
        <ele>498.6</ele>
        <time>2025-09-14T08:40:07Z</time>
      </trkpt>
      <trkpt lat="45.70334" lon="3.40716">
        <ele>498.4</ele>
        <time>2025-09-14T08:40:08Z</time>
      </trkpt>
      <trkpt lat="45.70337" lon="3.40708">
        <ele>498</ele>
        <time>2025-09-14T08:40:09Z</time>
      </trkpt>
      <trkpt lat="45.70339" lon="3.407">
        <ele>497.6</ele>
        <time>2025-09-14T08:40:10Z</time>
      </trkpt>
      <trkpt lat="45.70343" lon="3.40691">
        <ele>497.2</ele>
        <time>2025-09-14T08:40:11Z</time>
      </trkpt>
      <trkpt lat="45.70346" lon="3.40682">
        <ele>497</ele>
        <time>2025-09-14T08:40:12Z</time>
      </trkpt>
      <trkpt lat="45.70348" lon="3.40674">
        <ele>496.8</ele>
        <time>2025-09-14T08:40:13Z</time>
      </trkpt>
      <trkpt lat="45.70351" lon="3.40666">
        <ele>496.4</ele>
        <time>2025-09-14T08:40:14Z</time>
      </trkpt>
      <trkpt lat="45.70353" lon="3.40658">
        <ele>496.2</ele>
        <time>2025-09-14T08:40:15Z</time>
      </trkpt>
      <trkpt lat="45.70355" lon="3.40651">
        <ele>496.4</ele>
        <time>2025-09-14T08:40:16Z</time>
      </trkpt>
      <trkpt lat="45.70358" lon="3.40644">
        <ele>496.6</ele>
        <time>2025-09-14T08:40:17Z</time>
      </trkpt>
      <trkpt lat="45.70362" lon="3.40636">
        <ele>496.6</ele>
        <time>2025-09-14T08:40:18Z</time>
      </trkpt>
      <trkpt lat="45.70366" lon="3.40628">
        <ele>496.6</ele>
        <time>2025-09-14T08:40:19Z</time>
      </trkpt>
      <trkpt lat="45.70369" lon="3.4062">
        <ele>496.4</ele>
        <time>2025-09-14T08:40:20Z</time>
      </trkpt>
      <trkpt lat="45.70371" lon="3.40612">
        <ele>496.4</ele>
        <time>2025-09-14T08:40:21Z</time>
      </trkpt>
      <trkpt lat="45.70373" lon="3.40604">
        <ele>496.4</ele>
        <time>2025-09-14T08:40:22Z</time>
      </trkpt>
      <trkpt lat="45.70376" lon="3.40597">
        <ele>496.2</ele>
        <time>2025-09-14T08:40:23Z</time>
      </trkpt>
      <trkpt lat="45.70379" lon="3.4059">
        <ele>496.2</ele>
        <time>2025-09-14T08:40:24Z</time>
      </trkpt>
      <trkpt lat="45.70382" lon="3.40583">
        <ele>496</ele>
        <time>2025-09-14T08:40:25Z</time>
      </trkpt>
      <trkpt lat="45.70384" lon="3.40577">
        <ele>496.2</ele>
        <time>2025-09-14T08:40:26Z</time>
      </trkpt>
      <trkpt lat="45.70388" lon="3.40571">
        <ele>496</ele>
        <time>2025-09-14T08:40:27Z</time>
      </trkpt>
      <trkpt lat="45.70392" lon="3.40565">
        <ele>495.6</ele>
        <time>2025-09-14T08:40:28Z</time>
      </trkpt>
      <trkpt lat="45.70395" lon="3.4056">
        <ele>495.4</ele>
        <time>2025-09-14T08:40:29Z</time>
      </trkpt>
      <trkpt lat="45.70398" lon="3.40554">
        <ele>495.2</ele>
        <time>2025-09-14T08:40:30Z</time>
      </trkpt>
      <trkpt lat="45.70401" lon="3.40549">
        <ele>495</ele>
        <time>2025-09-14T08:40:31Z</time>
      </trkpt>
      <trkpt lat="45.70404" lon="3.40544">
        <ele>495</ele>
        <time>2025-09-14T08:40:32Z</time>
      </trkpt>
      <trkpt lat="45.70406" lon="3.40537">
        <ele>495.4</ele>
        <time>2025-09-14T08:40:33Z</time>
      </trkpt>
      <trkpt lat="45.70407" lon="3.40531">
        <ele>495.6</ele>
        <time>2025-09-14T08:40:34Z</time>
      </trkpt>
      <trkpt lat="45.70408" lon="3.40523">
        <ele>495.2</ele>
        <time>2025-09-14T08:40:35Z</time>
      </trkpt>
      <trkpt lat="45.7041" lon="3.40515">
        <ele>494.6</ele>
        <time>2025-09-14T08:40:36Z</time>
      </trkpt>
      <trkpt lat="45.70411" lon="3.40506">
        <ele>494</ele>
        <time>2025-09-14T08:40:37Z</time>
      </trkpt>
      <trkpt lat="45.70412" lon="3.40498">
        <ele>493.8</ele>
        <time>2025-09-14T08:40:38Z</time>
      </trkpt>
      <trkpt lat="45.70413" lon="3.4049">
        <ele>493.6</ele>
        <time>2025-09-14T08:40:39Z</time>
      </trkpt>
      <trkpt lat="45.70415" lon="3.40482">
        <ele>493.4</ele>
        <time>2025-09-14T08:40:40Z</time>
      </trkpt>
      <trkpt lat="45.70417" lon="3.40475">
        <ele>493.6</ele>
        <time>2025-09-14T08:40:41Z</time>
      </trkpt>
      <trkpt lat="45.7042" lon="3.40466">
        <ele>493.4</ele>
        <time>2025-09-14T08:40:42Z</time>
      </trkpt>
      <trkpt lat="45.70422" lon="3.40458">
        <ele>493</ele>
        <time>2025-09-14T08:40:43Z</time>
      </trkpt>
      <trkpt lat="45.70424" lon="3.4045">
        <ele>492.4</ele>
        <time>2025-09-14T08:40:44Z</time>
      </trkpt>
      <trkpt lat="45.70426" lon="3.40443">
        <ele>492</ele>
        <time>2025-09-14T08:40:45Z</time>
      </trkpt>
      <trkpt lat="45.70427" lon="3.40435">
        <ele>491.6</ele>
        <time>2025-09-14T08:40:46Z</time>
      </trkpt>
      <trkpt lat="45.70429" lon="3.40428">
        <ele>491.2</ele>
        <time>2025-09-14T08:40:47Z</time>
      </trkpt>
      <trkpt lat="45.7043" lon="3.40421">
        <ele>490.8</ele>
        <time>2025-09-14T08:40:48Z</time>
      </trkpt>
      <trkpt lat="45.70431" lon="3.40414">
        <ele>490.6</ele>
        <time>2025-09-14T08:40:49Z</time>
      </trkpt>
      <trkpt lat="45.70432" lon="3.40406">
        <ele>490.6</ele>
        <time>2025-09-14T08:40:50Z</time>
      </trkpt>
      <trkpt lat="45.70433" lon="3.40399">
        <ele>490.6</ele>
        <time>2025-09-14T08:40:51Z</time>
      </trkpt>
      <trkpt lat="45.70434" lon="3.40391">
        <ele>490.6</ele>
        <time>2025-09-14T08:40:52Z</time>
      </trkpt>
      <trkpt lat="45.70435" lon="3.40382">
        <ele>490.4</ele>
        <time>2025-09-14T08:40:53Z</time>
      </trkpt>
      <trkpt lat="45.70437" lon="3.40372">
        <ele>490.4</ele>
        <time>2025-09-14T08:40:54Z</time>
      </trkpt>
      <trkpt lat="45.7044" lon="3.40363">
        <ele>490.2</ele>
        <time>2025-09-14T08:40:55Z</time>
      </trkpt>
      <trkpt lat="45.70442" lon="3.40354">
        <ele>490</ele>
        <time>2025-09-14T08:40:56Z</time>
      </trkpt>
      <trkpt lat="45.70444" lon="3.40346">
        <ele>489.8</ele>
        <time>2025-09-14T08:40:57Z</time>
      </trkpt>
      <trkpt lat="45.70445" lon="3.40338">
        <ele>489.6</ele>
        <time>2025-09-14T08:40:58Z</time>
      </trkpt>
      <trkpt lat="45.70447" lon="3.4033">
        <ele>489.4</ele>
        <time>2025-09-14T08:40:59Z</time>
      </trkpt>
      <trkpt lat="45.70449" lon="3.40322">
        <ele>489.6</ele>
        <time>2025-09-14T08:41:00Z</time>
      </trkpt>
      <trkpt lat="45.70452" lon="3.40313">
        <ele>489.4</ele>
        <time>2025-09-14T08:41:01Z</time>
      </trkpt>
      <trkpt lat="45.70453" lon="3.40306">
        <ele>489.2</ele>
        <time>2025-09-14T08:41:02Z</time>
      </trkpt>
      <trkpt lat="45.70455" lon="3.40299">
        <ele>489.2</ele>
        <time>2025-09-14T08:41:03Z</time>
      </trkpt>
      <trkpt lat="45.70457" lon="3.40292">
        <ele>489</ele>
        <time>2025-09-14T08:41:04Z</time>
      </trkpt>
      <trkpt lat="45.70458" lon="3.40284">
        <ele>489</ele>
        <time>2025-09-14T08:41:05Z</time>
      </trkpt>
      <trkpt lat="45.70459" lon="3.40277">
        <ele>488.8</ele>
        <time>2025-09-14T08:41:06Z</time>
      </trkpt>
      <trkpt lat="45.70461" lon="3.4027">
        <ele>488.8</ele>
        <time>2025-09-14T08:41:07Z</time>
      </trkpt>
      <trkpt lat="45.70464" lon="3.40263">
        <ele>488.8</ele>
        <time>2025-09-14T08:41:08Z</time>
      </trkpt>
      <trkpt lat="45.70466" lon="3.40256">
        <ele>488.8</ele>
        <time>2025-09-14T08:41:09Z</time>
      </trkpt>
      <trkpt lat="45.70468" lon="3.40248">
        <ele>488.8</ele>
        <time>2025-09-14T08:41:10Z</time>
      </trkpt>
      <trkpt lat="45.70469" lon="3.4024">
        <ele>489</ele>
        <time>2025-09-14T08:41:11Z</time>
      </trkpt>
      <trkpt lat="45.70469" lon="3.40232">
        <ele>489.2</ele>
        <time>2025-09-14T08:41:12Z</time>
      </trkpt>
      <trkpt lat="45.70468" lon="3.40225">
        <ele>489</ele>
        <time>2025-09-14T08:41:13Z</time>
      </trkpt>
      <trkpt lat="45.70468" lon="3.40218">
        <ele>489.2</ele>
        <time>2025-09-14T08:41:14Z</time>
      </trkpt>
      <trkpt lat="45.70468" lon="3.40211">
        <ele>489.2</ele>
        <time>2025-09-14T08:41:15Z</time>
      </trkpt>
      <trkpt lat="45.70467" lon="3.40204">
        <ele>489.4</ele>
        <time>2025-09-14T08:41:16Z</time>
      </trkpt>
      <trkpt lat="45.70467" lon="3.40197">
        <ele>489.4</ele>
        <time>2025-09-14T08:41:17Z</time>
      </trkpt>
      <trkpt lat="45.70467" lon="3.4019">
        <ele>489.4</ele>
        <time>2025-09-14T08:41:18Z</time>
      </trkpt>
      <trkpt lat="45.70466" lon="3.40183">
        <ele>489.6</ele>
        <time>2025-09-14T08:41:19Z</time>
      </trkpt>
      <trkpt lat="45.70466" lon="3.40176">
        <ele>489.6</ele>
        <time>2025-09-14T08:41:20Z</time>
      </trkpt>
      <trkpt lat="45.70465" lon="3.4017">
        <ele>489.6</ele>
        <time>2025-09-14T08:41:21Z</time>
      </trkpt>
      <trkpt lat="45.70464" lon="3.40163">
        <ele>489.8</ele>
        <time>2025-09-14T08:41:22Z</time>
      </trkpt>
      <trkpt lat="45.70463" lon="3.40157">
        <ele>489.8</ele>
        <time>2025-09-14T08:41:23Z</time>
      </trkpt>
      <trkpt lat="45.70462" lon="3.4015">
        <ele>489.8</ele>
        <time>2025-09-14T08:41:24Z</time>
      </trkpt>
      <trkpt lat="45.70461" lon="3.40144">
        <ele>489.8</ele>
        <time>2025-09-14T08:41:25Z</time>
      </trkpt>
      <trkpt lat="45.7046" lon="3.40138">
        <ele>490</ele>
        <time>2025-09-14T08:41:26Z</time>
      </trkpt>
      <trkpt lat="45.70458" lon="3.40133">
        <ele>490</ele>
        <time>2025-09-14T08:41:27Z</time>
      </trkpt>
      <trkpt lat="45.70456" lon="3.40129">
        <ele>490.2</ele>
        <time>2025-09-14T08:41:28Z</time>
      </trkpt>
      <trkpt lat="45.70455" lon="3.40125">
        <ele>490.4</ele>
        <time>2025-09-14T08:41:29Z</time>
      </trkpt>
      <trkpt lat="45.70454" lon="3.4012">
        <ele>490.4</ele>
        <time>2025-09-14T08:41:30Z</time>
      </trkpt>
      <trkpt lat="45.70453" lon="3.40114">
        <ele>490.2</ele>
        <time>2025-09-14T08:41:31Z</time>
      </trkpt>
      <trkpt lat="45.70452" lon="3.40108">
        <ele>490.2</ele>
        <time>2025-09-14T08:41:32Z</time>
      </trkpt>
      <trkpt lat="45.70452" lon="3.40101">
        <ele>490.2</ele>
        <time>2025-09-14T08:41:33Z</time>
      </trkpt>
      <trkpt lat="45.70451" lon="3.40094">
        <ele>490.4</ele>
        <time>2025-09-14T08:41:34Z</time>
      </trkpt>
      <trkpt lat="45.7045" lon="3.40087">
        <ele>490.4</ele>
        <time>2025-09-14T08:41:35Z</time>
      </trkpt>
      <trkpt lat="45.70449" lon="3.40081">
        <ele>490.4</ele>
        <time>2025-09-14T08:41:36Z</time>
      </trkpt>
      <trkpt lat="45.70449" lon="3.40075">
        <ele>490.2</ele>
        <time>2025-09-14T08:41:37Z</time>
      </trkpt>
      <trkpt lat="45.7045" lon="3.40068">
        <ele>490</ele>
        <time>2025-09-14T08:41:38Z</time>
      </trkpt>
      <trkpt lat="45.70452" lon="3.40059">
        <ele>489.8</ele>
        <time>2025-09-14T08:41:39Z</time>
      </trkpt>
      <trkpt lat="45.70453" lon="3.4005">
        <ele>489.6</ele>
        <time>2025-09-14T08:41:40Z</time>
      </trkpt>
      <trkpt lat="45.70454" lon="3.40042">
        <ele>489.4</ele>
        <time>2025-09-14T08:41:41Z</time>
      </trkpt>
      <trkpt lat="45.70456" lon="3.40034">
        <ele>489.4</ele>
        <time>2025-09-14T08:41:42Z</time>
      </trkpt>
      <trkpt lat="45.70458" lon="3.40026">
        <ele>489.4</ele>
        <time>2025-09-14T08:41:43Z</time>
      </trkpt>
      <trkpt lat="45.7046" lon="3.40017">
        <ele>489.2</ele>
        <time>2025-09-14T08:41:44Z</time>
      </trkpt>
      <trkpt lat="45.70461" lon="3.40008">
        <ele>489</ele>
        <time>2025-09-14T08:41:45Z</time>
      </trkpt>
      <trkpt lat="45.70463" lon="3.4">
        <ele>488.8</ele>
        <time>2025-09-14T08:41:46Z</time>
      </trkpt>
      <trkpt lat="45.70464" lon="3.39989">
        <ele>488.6</ele>
        <time>2025-09-14T08:41:47Z</time>
      </trkpt>
      <trkpt lat="45.70464" lon="3.39981">
        <ele>488.4</ele>
        <time>2025-09-14T08:41:48Z</time>
      </trkpt>
      <trkpt lat="45.70464" lon="3.39972">
        <ele>488.4</ele>
        <time>2025-09-14T08:41:49Z</time>
      </trkpt>
      <trkpt lat="45.70464" lon="3.39964">
        <ele>488.6</ele>
        <time>2025-09-14T08:41:50Z</time>
      </trkpt>
      <trkpt lat="45.70465" lon="3.39955">
        <ele>488.6</ele>
        <time>2025-09-14T08:41:51Z</time>
      </trkpt>
      <trkpt lat="45.70465" lon="3.39947">
        <ele>488.6</ele>
        <time>2025-09-14T08:41:52Z</time>
      </trkpt>
      <trkpt lat="45.70465" lon="3.39939">
        <ele>489</ele>
        <time>2025-09-14T08:41:53Z</time>
      </trkpt>
      <trkpt lat="45.70464" lon="3.39931">
        <ele>488.8</ele>
        <time>2025-09-14T08:41:54Z</time>
      </trkpt>
      <trkpt lat="45.70462" lon="3.39923">
        <ele>488.6</ele>
        <time>2025-09-14T08:41:55Z</time>
      </trkpt>
      <trkpt lat="45.7046" lon="3.39916">
        <ele>488.4</ele>
        <time>2025-09-14T08:41:56Z</time>
      </trkpt>
      <trkpt lat="45.70459" lon="3.3991">
        <ele>488.6</ele>
        <time>2025-09-14T08:41:57Z</time>
      </trkpt>
      <trkpt lat="45.70456" lon="3.39904">
        <ele>488.6</ele>
        <time>2025-09-14T08:41:58Z</time>
      </trkpt>
      <trkpt lat="45.70454" lon="3.39898">
        <ele>488.4</ele>
        <time>2025-09-14T08:41:59Z</time>
      </trkpt>
      <trkpt lat="45.70452" lon="3.39892">
        <ele>488.4</ele>
        <time>2025-09-14T08:42:00Z</time>
      </trkpt>
      <trkpt lat="45.7045" lon="3.39887">
        <ele>488.8</ele>
        <time>2025-09-14T08:42:01Z</time>
      </trkpt>
      <trkpt lat="45.70448" lon="3.39879">
        <ele>488.8</ele>
        <time>2025-09-14T08:42:02Z</time>
      </trkpt>
      <trkpt lat="45.70445" lon="3.39872">
        <ele>488.4</ele>
        <time>2025-09-14T08:42:03Z</time>
      </trkpt>
      <trkpt lat="45.70442" lon="3.39863">
        <ele>487.6</ele>
        <time>2025-09-14T08:42:04Z</time>
      </trkpt>
      <trkpt lat="45.70439" lon="3.39853">
        <ele>487</ele>
        <time>2025-09-14T08:42:05Z</time>
      </trkpt>
      <trkpt lat="45.70437" lon="3.39843">
        <ele>486.8</ele>
        <time>2025-09-14T08:42:06Z</time>
      </trkpt>
      <trkpt lat="45.70436" lon="3.39834">
        <ele>487</ele>
        <time>2025-09-14T08:42:07Z</time>
      </trkpt>
      <trkpt lat="45.70435" lon="3.39825">
        <ele>487.2</ele>
        <time>2025-09-14T08:42:08Z</time>
      </trkpt>
      <trkpt lat="45.70432" lon="3.39815">
        <ele>487.2</ele>
        <time>2025-09-14T08:42:09Z</time>
      </trkpt>
      <trkpt lat="45.70429" lon="3.39808">
        <ele>487</ele>
        <time>2025-09-14T08:42:10Z</time>
      </trkpt>
      <trkpt lat="45.70427" lon="3.39801">
        <ele>486.4</ele>
        <time>2025-09-14T08:42:11Z</time>
      </trkpt>
      <trkpt lat="45.70425" lon="3.39795">
        <ele>486.4</ele>
        <time>2025-09-14T08:42:12Z</time>
      </trkpt>
      <trkpt lat="45.70423" lon="3.39789">
        <ele>486</ele>
        <time>2025-09-14T08:42:13Z</time>
      </trkpt>
      <trkpt lat="45.70421" lon="3.39782">
        <ele>485.8</ele>
        <time>2025-09-14T08:42:14Z</time>
      </trkpt>
      <trkpt lat="45.70419" lon="3.39774">
        <ele>485.4</ele>
        <time>2025-09-14T08:42:15Z</time>
      </trkpt>
      <trkpt lat="45.70417" lon="3.39767">
        <ele>485</ele>
        <time>2025-09-14T08:42:16Z</time>
      </trkpt>
      <trkpt lat="45.70415" lon="3.39758">
        <ele>484.6</ele>
        <time>2025-09-14T08:42:17Z</time>
      </trkpt>
      <trkpt lat="45.70413" lon="3.39751">
        <ele>484.4</ele>
        <time>2025-09-14T08:42:18Z</time>
      </trkpt>
      <trkpt lat="45.70412" lon="3.39744">
        <ele>484</ele>
        <time>2025-09-14T08:42:19Z</time>
      </trkpt>
      <trkpt lat="45.7041" lon="3.39738">
        <ele>483.6</ele>
        <time>2025-09-14T08:42:20Z</time>
      </trkpt>
      <trkpt lat="45.70409" lon="3.39733">
        <ele>483.4</ele>
        <time>2025-09-14T08:42:21Z</time>
      </trkpt>
      <trkpt lat="45.70408" lon="3.39727">
        <ele>483.6</ele>
        <time>2025-09-14T08:42:22Z</time>
      </trkpt>
      <trkpt lat="45.70407" lon="3.3972">
        <ele>483.4</ele>
        <time>2025-09-14T08:42:23Z</time>
      </trkpt>
      <trkpt lat="45.70406" lon="3.39714">
        <ele>483.4</ele>
        <time>2025-09-14T08:42:24Z</time>
      </trkpt>
      <trkpt lat="45.70404" lon="3.39709">
        <ele>483.6</ele>
        <time>2025-09-14T08:42:25Z</time>
      </trkpt>
      <trkpt lat="45.70402" lon="3.39705">
        <ele>483.6</ele>
        <time>2025-09-14T08:42:26Z</time>
      </trkpt>
      <trkpt lat="45.70398" lon="3.39702">
        <ele>483.4</ele>
        <time>2025-09-14T08:42:27Z</time>
      </trkpt>
      <trkpt lat="45.70395" lon="3.39699">
        <ele>483.4</ele>
        <time>2025-09-14T08:42:28Z</time>
      </trkpt>
      <trkpt lat="45.70391" lon="3.39696">
        <ele>483.2</ele>
        <time>2025-09-14T08:42:29Z</time>
      </trkpt>
      <trkpt lat="45.70388" lon="3.39694">
        <ele>483.2</ele>
        <time>2025-09-14T08:42:30Z</time>
      </trkpt>
      <trkpt lat="45.70385" lon="3.39691">
        <ele>483.2</ele>
        <time>2025-09-14T08:42:31Z</time>
      </trkpt>
      <trkpt lat="45.70381" lon="3.39688">
        <ele>483.6</ele>
        <time>2025-09-14T08:42:32Z</time>
      </trkpt>
      <trkpt lat="45.70378" lon="3.39684">
        <ele>483.8</ele>
        <time>2025-09-14T08:42:33Z</time>
      </trkpt>
      <trkpt lat="45.70374" lon="3.3968">
        <ele>483.6</ele>
        <time>2025-09-14T08:42:34Z</time>
      </trkpt>
      <trkpt lat="45.70369" lon="3.39675">
        <ele>483.4</ele>
        <time>2025-09-14T08:42:35Z</time>
      </trkpt>
      <trkpt lat="45.70365" lon="3.39669">
        <ele>483.4</ele>
        <time>2025-09-14T08:42:36Z</time>
      </trkpt>
      <trkpt lat="45.70359" lon="3.39662">
        <ele>483.2</ele>
        <time>2025-09-14T08:42:37Z</time>
      </trkpt>
      <trkpt lat="45.70352" lon="3.39654">
        <ele>483.2</ele>
        <time>2025-09-14T08:42:38Z</time>
      </trkpt>
      <trkpt lat="45.70347" lon="3.39647">
        <ele>483.2</ele>
        <time>2025-09-14T08:42:39Z</time>
      </trkpt>
      <trkpt lat="45.70343" lon="3.39643">
        <ele>483.2</ele>
        <time>2025-09-14T08:42:40Z</time>
      </trkpt>
      <trkpt lat="45.7034" lon="3.39637">
        <ele>483.2</ele>
        <time>2025-09-14T08:42:41Z</time>
      </trkpt>
      <trkpt lat="45.70335" lon="3.39633">
        <ele>483</ele>
        <time>2025-09-14T08:42:42Z</time>
      </trkpt>
      <trkpt lat="45.7033" lon="3.39628">
        <ele>483</ele>
        <time>2025-09-14T08:42:43Z</time>
      </trkpt>
      <trkpt lat="45.70325" lon="3.39625">
        <ele>483.2</ele>
        <time>2025-09-14T08:42:44Z</time>
      </trkpt>
      <trkpt lat="45.70321" lon="3.3962">
        <ele>483.8</ele>
        <time>2025-09-14T08:42:45Z</time>
      </trkpt>
      <trkpt lat="45.70315" lon="3.39615">
        <ele>484.4</ele>
        <time>2025-09-14T08:42:46Z</time>
      </trkpt>
      <trkpt lat="45.7031" lon="3.39608">
        <ele>484.4</ele>
        <time>2025-09-14T08:42:47Z</time>
      </trkpt>
      <trkpt lat="45.70308" lon="3.39604">
        <ele>484.4</ele>
        <time>2025-09-14T08:42:48Z</time>
      </trkpt>
      <trkpt lat="45.70307" lon="3.396">
        <ele>484.4</ele>
        <time>2025-09-14T08:42:49Z</time>
      </trkpt>
      <trkpt lat="45.70306" lon="3.39597">
        <ele>484.6</ele>
        <time>2025-09-14T08:42:50Z</time>
      </trkpt>
      <trkpt lat="45.70303" lon="3.39591">
        <ele>484.8</ele>
        <time>2025-09-14T08:42:51Z</time>
      </trkpt>
      <trkpt lat="45.70301" lon="3.39585">
        <ele>484.8</ele>
        <time>2025-09-14T08:42:52Z</time>
      </trkpt>
      <trkpt lat="45.70297" lon="3.3958">
        <ele>484.8</ele>
        <time>2025-09-14T08:42:53Z</time>
      </trkpt>
      <trkpt lat="45.70293" lon="3.39576">
        <ele>484.8</ele>
        <time>2025-09-14T08:42:54Z</time>
      </trkpt>
      <trkpt lat="45.70289" lon="3.39571">
        <ele>485.2</ele>
        <time>2025-09-14T08:42:55Z</time>
      </trkpt>
      <trkpt lat="45.70284" lon="3.39568">
        <ele>485.2</ele>
        <time>2025-09-14T08:42:56Z</time>
      </trkpt>
      <trkpt lat="45.7028" lon="3.39565">
        <ele>485.2</ele>
        <time>2025-09-14T08:42:57Z</time>
      </trkpt>
      <trkpt lat="45.70276" lon="3.39564">
        <ele>485.2</ele>
        <time>2025-09-14T08:42:58Z</time>
      </trkpt>
      <trkpt lat="45.70273" lon="3.39563">
        <ele>485.4</ele>
        <time>2025-09-14T08:42:59Z</time>
      </trkpt>
      <trkpt lat="45.70269" lon="3.39561">
        <ele>485</ele>
        <time>2025-09-14T08:43:00Z</time>
      </trkpt>
      <trkpt lat="45.70264" lon="3.39559">
        <ele>485</ele>
        <time>2025-09-14T08:43:01Z</time>
      </trkpt>
      <trkpt lat="45.70259" lon="3.39558">
        <ele>484.8</ele>
        <time>2025-09-14T08:43:02Z</time>
      </trkpt>
      <trkpt lat="45.70254" lon="3.39558">
        <ele>484.6</ele>
        <time>2025-09-14T08:43:03Z</time>
      </trkpt>
      <trkpt lat="45.70249" lon="3.39557">
        <ele>484</ele>
        <time>2025-09-14T08:43:04Z</time>
      </trkpt>
      <trkpt lat="45.70244" lon="3.39555">
        <ele>483.4</ele>
        <time>2025-09-14T08:43:05Z</time>
      </trkpt>
      <trkpt lat="45.70239" lon="3.39553">
        <ele>483</ele>
        <time>2025-09-14T08:43:06Z</time>
      </trkpt>
      <trkpt lat="45.70234" lon="3.3955">
        <ele>482.6</ele>
        <time>2025-09-14T08:43:07Z</time>
      </trkpt>
      <trkpt lat="45.70229" lon="3.39548">
        <ele>482.2</ele>
        <time>2025-09-14T08:43:08Z</time>
      </trkpt>
      <trkpt lat="45.70224" lon="3.39546">
        <ele>482</ele>
        <time>2025-09-14T08:43:09Z</time>
      </trkpt>
      <trkpt lat="45.70219" lon="3.39543">
        <ele>482</ele>
        <time>2025-09-14T08:43:10Z</time>
      </trkpt>
      <trkpt lat="45.70216" lon="3.3954">
        <ele>482.2</ele>
        <time>2025-09-14T08:43:11Z</time>
      </trkpt>
      <trkpt lat="45.70213" lon="3.39538">
        <ele>482.2</ele>
        <time>2025-09-14T08:43:12Z</time>
      </trkpt>
      <trkpt lat="45.70211" lon="3.39536">
        <ele>482.2</ele>
        <time>2025-09-14T08:43:13Z</time>
      </trkpt>
      <trkpt lat="45.7021" lon="3.39535">
        <ele>482</ele>
        <time>2025-09-14T08:43:14Z</time>
      </trkpt>
      <trkpt lat="45.7021" lon="3.39534">
        <ele>482.2</ele>
        <time>2025-09-14T08:43:15Z</time>
      </trkpt>
      <trkpt lat="45.70209" lon="3.39534">
        <ele>482.2</ele>
        <time>2025-09-14T08:43:16Z</time>
      </trkpt>
      <trkpt lat="45.70208" lon="3.39533">
        <ele>482</ele>
        <time>2025-09-14T08:43:17Z</time>
      </trkpt>
      <trkpt lat="45.70206" lon="3.39532">
        <ele>481.8</ele>
        <time>2025-09-14T08:43:18Z</time>
      </trkpt>
      <trkpt lat="45.70204" lon="3.3953">
        <ele>481.6</ele>
        <time>2025-09-14T08:43:19Z</time>
      </trkpt>
      <trkpt lat="45.70202" lon="3.39526">
        <ele>481.4</ele>
        <time>2025-09-14T08:43:20Z</time>
      </trkpt>
      <trkpt lat="45.70201" lon="3.3952">
        <ele>481.2</ele>
        <time>2025-09-14T08:43:21Z</time>
      </trkpt>
      <trkpt lat="45.702" lon="3.39514">
        <ele>481</ele>
        <time>2025-09-14T08:43:22Z</time>
      </trkpt>
      <trkpt lat="45.70198" lon="3.39507">
        <ele>480.8</ele>
        <time>2025-09-14T08:43:23Z</time>
      </trkpt>
      <trkpt lat="45.70196" lon="3.395">
        <ele>480.6</ele>
        <time>2025-09-14T08:43:24Z</time>
      </trkpt>
      <trkpt lat="45.70196" lon="3.39492">
        <ele>480.4</ele>
        <time>2025-09-14T08:43:25Z</time>
      </trkpt>
      <trkpt lat="45.70197" lon="3.39485">
        <ele>480.2</ele>
        <time>2025-09-14T08:43:26Z</time>
      </trkpt>
      <trkpt lat="45.70199" lon="3.39476">
        <ele>480</ele>
        <time>2025-09-14T08:43:27Z</time>
      </trkpt>
      <trkpt lat="45.70201" lon="3.39468">
        <ele>480</ele>
        <time>2025-09-14T08:43:28Z</time>
      </trkpt>
      <trkpt lat="45.70203" lon="3.3946">
        <ele>479.8</ele>
        <time>2025-09-14T08:43:29Z</time>
      </trkpt>
      <trkpt lat="45.70204" lon="3.39452">
        <ele>479.6</ele>
        <time>2025-09-14T08:43:30Z</time>
      </trkpt>
      <trkpt lat="45.70205" lon="3.39443">
        <ele>479.4</ele>
        <time>2025-09-14T08:43:31Z</time>
      </trkpt>
      <trkpt lat="45.70206" lon="3.39434">
        <ele>479.2</ele>
        <time>2025-09-14T08:43:32Z</time>
      </trkpt>
      <trkpt lat="45.70208" lon="3.39426">
        <ele>479</ele>
        <time>2025-09-14T08:43:33Z</time>
      </trkpt>
      <trkpt lat="45.7021" lon="3.39419">
        <ele>478.8</ele>
        <time>2025-09-14T08:43:34Z</time>
      </trkpt>
      <trkpt lat="45.70213" lon="3.39412">
        <ele>478.8</ele>
        <time>2025-09-14T08:43:35Z</time>
      </trkpt>
      <trkpt lat="45.70217" lon="3.39406">
        <ele>478.8</ele>
        <time>2025-09-14T08:43:36Z</time>
      </trkpt>
      <trkpt lat="45.7022" lon="3.39399">
        <ele>478.8</ele>
        <time>2025-09-14T08:43:37Z</time>
      </trkpt>
      <trkpt lat="45.70224" lon="3.39394">
        <ele>478.8</ele>
        <time>2025-09-14T08:43:38Z</time>
      </trkpt>
      <trkpt lat="45.70228" lon="3.39388">
        <ele>479</ele>
        <time>2025-09-14T08:43:39Z</time>
      </trkpt>
      <trkpt lat="45.70231" lon="3.39382">
        <ele>479</ele>
        <time>2025-09-14T08:43:40Z</time>
      </trkpt>
      <trkpt lat="45.70234" lon="3.39376">
        <ele>479.2</ele>
        <time>2025-09-14T08:43:41Z</time>
      </trkpt>
      <trkpt lat="45.70237" lon="3.39371">
        <ele>479.2</ele>
        <time>2025-09-14T08:43:42Z</time>
      </trkpt>
      <trkpt lat="45.7024" lon="3.39364">
        <ele>479.4</ele>
        <time>2025-09-14T08:43:43Z</time>
      </trkpt>
      <trkpt lat="45.70243" lon="3.39359">
        <ele>479.4</ele>
        <time>2025-09-14T08:43:44Z</time>
      </trkpt>
      <trkpt lat="45.70246" lon="3.39353">
        <ele>479.6</ele>
        <time>2025-09-14T08:43:45Z</time>
      </trkpt>
      <trkpt lat="45.70249" lon="3.39346">
        <ele>479.6</ele>
        <time>2025-09-14T08:43:46Z</time>
      </trkpt>
      <trkpt lat="45.70252" lon="3.3934">
        <ele>479.8</ele>
        <time>2025-09-14T08:43:47Z</time>
      </trkpt>
      <trkpt lat="45.70256" lon="3.39334">
        <ele>480</ele>
        <time>2025-09-14T08:43:48Z</time>
      </trkpt>
      <trkpt lat="45.7026" lon="3.39328">
        <ele>480</ele>
        <time>2025-09-14T08:43:49Z</time>
      </trkpt>
      <trkpt lat="45.70262" lon="3.39322">
        <ele>480.2</ele>
        <time>2025-09-14T08:43:50Z</time>
      </trkpt>
      <trkpt lat="45.70265" lon="3.39316">
        <ele>480.4</ele>
        <time>2025-09-14T08:43:51Z</time>
      </trkpt>
      <trkpt lat="45.70266" lon="3.3931">
        <ele>480.6</ele>
        <time>2025-09-14T08:43:52Z</time>
      </trkpt>
      <trkpt lat="45.70268" lon="3.39304">
        <ele>480.6</ele>
        <time>2025-09-14T08:43:53Z</time>
      </trkpt>
      <trkpt lat="45.70269" lon="3.39297">
        <ele>480.8</ele>
        <time>2025-09-14T08:43:54Z</time>
      </trkpt>
      <trkpt lat="45.70272" lon="3.39292">
        <ele>481</ele>
        <time>2025-09-14T08:43:55Z</time>
      </trkpt>
      <trkpt lat="45.70275" lon="3.39287">
        <ele>481</ele>
        <time>2025-09-14T08:43:56Z</time>
      </trkpt>
      <trkpt lat="45.70276" lon="3.39281">
        <ele>481.2</ele>
        <time>2025-09-14T08:43:57Z</time>
      </trkpt>
      <trkpt lat="45.70278" lon="3.39276">
        <ele>481.2</ele>
        <time>2025-09-14T08:43:58Z</time>
      </trkpt>
      <trkpt lat="45.70279" lon="3.3927">
        <ele>481.4</ele>
        <time>2025-09-14T08:43:59Z</time>
      </trkpt>
      <trkpt lat="45.7028" lon="3.39263">
        <ele>481.4</ele>
        <time>2025-09-14T08:44:00Z</time>
      </trkpt>
      <trkpt lat="45.70281" lon="3.39257">
        <ele>481.6</ele>
        <time>2025-09-14T08:44:01Z</time>
      </trkpt>
      <trkpt lat="45.70283" lon="3.39251">
        <ele>481.6</ele>
        <time>2025-09-14T08:44:02Z</time>
      </trkpt>
      <trkpt lat="45.70284" lon="3.39245">
        <ele>481.8</ele>
        <time>2025-09-14T08:44:03Z</time>
      </trkpt>
      <trkpt lat="45.70286" lon="3.39239">
        <ele>481.8</ele>
        <time>2025-09-14T08:44:04Z</time>
      </trkpt>
      <trkpt lat="45.70287" lon="3.39232">
        <ele>482</ele>
        <time>2025-09-14T08:44:05Z</time>
      </trkpt>
      <trkpt lat="45.70289" lon="3.39225">
        <ele>482.2</ele>
        <time>2025-09-14T08:44:06Z</time>
      </trkpt>
      <trkpt lat="45.7029" lon="3.39218">
        <ele>482.2</ele>
        <time>2025-09-14T08:44:07Z</time>
      </trkpt>
      <trkpt lat="45.70292" lon="3.39211">
        <ele>482.4</ele>
        <time>2025-09-14T08:44:08Z</time>
      </trkpt>
      <trkpt lat="45.70293" lon="3.39204">
        <ele>482.6</ele>
        <time>2025-09-14T08:44:09Z</time>
      </trkpt>
      <trkpt lat="45.70295" lon="3.39197">
        <ele>482.6</ele>
        <time>2025-09-14T08:44:10Z</time>
      </trkpt>
      <trkpt lat="45.70296" lon="3.39189">
        <ele>482.8</ele>
        <time>2025-09-14T08:44:11Z</time>
      </trkpt>
      <trkpt lat="45.70297" lon="3.39181">
        <ele>482.8</ele>
        <time>2025-09-14T08:44:12Z</time>
      </trkpt>
      <trkpt lat="45.70298" lon="3.39174">
        <ele>483</ele>
        <time>2025-09-14T08:44:13Z</time>
      </trkpt>
      <trkpt lat="45.70299" lon="3.39166">
        <ele>483.2</ele>
        <time>2025-09-14T08:44:14Z</time>
      </trkpt>
      <trkpt lat="45.703" lon="3.39159">
        <ele>483.6</ele>
        <time>2025-09-14T08:44:15Z</time>
      </trkpt>
      <trkpt lat="45.70301" lon="3.39152">
        <ele>484</ele>
        <time>2025-09-14T08:44:16Z</time>
      </trkpt>
      <trkpt lat="45.70302" lon="3.39145">
        <ele>484</ele>
        <time>2025-09-14T08:44:17Z</time>
      </trkpt>
      <trkpt lat="45.70303" lon="3.39139">
        <ele>484</ele>
        <time>2025-09-14T08:44:18Z</time>
      </trkpt>
      <trkpt lat="45.70303" lon="3.39132">
        <ele>484</ele>
        <time>2025-09-14T08:44:19Z</time>
      </trkpt>
      <trkpt lat="45.70305" lon="3.39125">
        <ele>484.2</ele>
        <time>2025-09-14T08:44:20Z</time>
      </trkpt>
      <trkpt lat="45.70305" lon="3.39118">
        <ele>484.2</ele>
        <time>2025-09-14T08:44:21Z</time>
      </trkpt>
      <trkpt lat="45.70306" lon="3.39113">
        <ele>484.4</ele>
        <time>2025-09-14T08:44:22Z</time>
      </trkpt>
      <trkpt lat="45.70307" lon="3.39107">
        <ele>484.6</ele>
        <time>2025-09-14T08:44:23Z</time>
      </trkpt>
      <trkpt lat="45.70307" lon="3.39101">
        <ele>484.8</ele>
        <time>2025-09-14T08:44:24Z</time>
      </trkpt>
      <trkpt lat="45.70308" lon="3.39095">
        <ele>484.8</ele>
        <time>2025-09-14T08:44:25Z</time>
      </trkpt>
      <trkpt lat="45.70309" lon="3.39089">
        <ele>485</ele>
        <time>2025-09-14T08:44:26Z</time>
      </trkpt>
      <trkpt lat="45.7031" lon="3.39083">
        <ele>485.4</ele>
        <time>2025-09-14T08:44:27Z</time>
      </trkpt>
      <trkpt lat="45.70311" lon="3.39077">
        <ele>485.8</ele>
        <time>2025-09-14T08:44:28Z</time>
      </trkpt>
      <trkpt lat="45.70312" lon="3.39072">
        <ele>486</ele>
        <time>2025-09-14T08:44:29Z</time>
      </trkpt>
      <trkpt lat="45.70314" lon="3.39067">
        <ele>486.2</ele>
        <time>2025-09-14T08:44:30Z</time>
      </trkpt>
      <trkpt lat="45.70314" lon="3.39062">
        <ele>486.2</ele>
        <time>2025-09-14T08:44:31Z</time>
      </trkpt>
      <trkpt lat="45.70315" lon="3.39057">
        <ele>486.4</ele>
        <time>2025-09-14T08:44:32Z</time>
      </trkpt>
      <trkpt lat="45.70316" lon="3.39052">
        <ele>486.8</ele>
        <time>2025-09-14T08:44:33Z</time>
      </trkpt>
      <trkpt lat="45.70317" lon="3.39046">
        <ele>487</ele>
        <time>2025-09-14T08:44:34Z</time>
      </trkpt>
      <trkpt lat="45.70318" lon="3.39042">
        <ele>487.2</ele>
        <time>2025-09-14T08:44:35Z</time>
      </trkpt>
      <trkpt lat="45.70319" lon="3.39037">
        <ele>487.4</ele>
        <time>2025-09-14T08:44:36Z</time>
      </trkpt>
      <trkpt lat="45.7032" lon="3.39033">
        <ele>487.4</ele>
        <time>2025-09-14T08:44:37Z</time>
      </trkpt>
      <trkpt lat="45.70321" lon="3.39028">
        <ele>487.4</ele>
        <time>2025-09-14T08:44:38Z</time>
      </trkpt>
      <trkpt lat="45.70322" lon="3.39023">
        <ele>487.6</ele>
        <time>2025-09-14T08:44:39Z</time>
      </trkpt>
      <trkpt lat="45.70323" lon="3.39019">
        <ele>487.8</ele>
        <time>2025-09-14T08:44:40Z</time>
      </trkpt>
      <trkpt lat="45.70323" lon="3.39014">
        <ele>488</ele>
        <time>2025-09-14T08:44:41Z</time>
      </trkpt>
      <trkpt lat="45.70324" lon="3.3901">
        <ele>488.2</ele>
        <time>2025-09-14T08:44:42Z</time>
      </trkpt>
      <trkpt lat="45.70326" lon="3.39006">
        <ele>488.2</ele>
        <time>2025-09-14T08:44:43Z</time>
      </trkpt>
      <trkpt lat="45.70327" lon="3.39001">
        <ele>488.4</ele>
        <time>2025-09-14T08:44:44Z</time>
      </trkpt>
      <trkpt lat="45.70329" lon="3.38997">
        <ele>488.4</ele>
        <time>2025-09-14T08:44:45Z</time>
      </trkpt>
      <trkpt lat="45.7033" lon="3.38993">
        <ele>488.6</ele>
        <time>2025-09-14T08:44:46Z</time>
      </trkpt>
      <trkpt lat="45.70331" lon="3.38989">
        <ele>488.6</ele>
        <time>2025-09-14T08:44:47Z</time>
      </trkpt>
      <trkpt lat="45.70333" lon="3.38985">
        <ele>488.6</ele>
        <time>2025-09-14T08:44:48Z</time>
      </trkpt>
      <trkpt lat="45.70335" lon="3.38981">
        <ele>488.8</ele>
        <time>2025-09-14T08:44:49Z</time>
      </trkpt>
      <trkpt lat="45.70336" lon="3.38977">
        <ele>489</ele>
        <time>2025-09-14T08:44:50Z</time>
      </trkpt>
      <trkpt lat="45.70338" lon="3.38973">
        <ele>489.4</ele>
        <time>2025-09-14T08:44:51Z</time>
      </trkpt>
      <trkpt lat="45.70341" lon="3.38969">
        <ele>489.6</ele>
        <time>2025-09-14T08:44:52Z</time>
      </trkpt>
      <trkpt lat="45.70342" lon="3.38965">
        <ele>489.8</ele>
        <time>2025-09-14T08:44:53Z</time>
      </trkpt>
      <trkpt lat="45.70344" lon="3.38961">
        <ele>490</ele>
        <time>2025-09-14T08:44:54Z</time>
      </trkpt>
      <trkpt lat="45.70346" lon="3.38957">
        <ele>490</ele>
        <time>2025-09-14T08:44:55Z</time>
      </trkpt>
      <trkpt lat="45.70348" lon="3.38954">
        <ele>490.2</ele>
        <time>2025-09-14T08:44:56Z</time>
      </trkpt>
      <trkpt lat="45.7035" lon="3.38951">
        <ele>490.4</ele>
        <time>2025-09-14T08:44:57Z</time>
      </trkpt>
      <trkpt lat="45.70351" lon="3.38948">
        <ele>490.6</ele>
        <time>2025-09-14T08:44:58Z</time>
      </trkpt>
      <trkpt lat="45.70353" lon="3.38945">
        <ele>490.8</ele>
        <time>2025-09-14T08:44:59Z</time>
      </trkpt>
      <trkpt lat="45.70354" lon="3.38943">
        <ele>491</ele>
        <time>2025-09-14T08:45:00Z</time>
      </trkpt>
      <trkpt lat="45.70355" lon="3.3894">
        <ele>491</ele>
        <time>2025-09-14T08:45:01Z</time>
      </trkpt>
      <trkpt lat="45.70357" lon="3.38937">
        <ele>491.2</ele>
        <time>2025-09-14T08:45:02Z</time>
      </trkpt>
      <trkpt lat="45.70358" lon="3.38934">
        <ele>491.2</ele>
        <time>2025-09-14T08:45:03Z</time>
      </trkpt>
      <trkpt lat="45.7036" lon="3.38931">
        <ele>491.4</ele>
        <time>2025-09-14T08:45:04Z</time>
      </trkpt>
      <trkpt lat="45.70362" lon="3.38928">
        <ele>491.6</ele>
        <time>2025-09-14T08:45:05Z</time>
      </trkpt>
      <trkpt lat="45.70363" lon="3.38925">
        <ele>491.6</ele>
        <time>2025-09-14T08:45:06Z</time>
      </trkpt>
      <trkpt lat="45.70365" lon="3.38921">
        <ele>491.8</ele>
        <time>2025-09-14T08:45:07Z</time>
      </trkpt>
      <trkpt lat="45.70367" lon="3.38917">
        <ele>492</ele>
        <time>2025-09-14T08:45:08Z</time>
      </trkpt>
      <trkpt lat="45.70369" lon="3.38913">
        <ele>492.2</ele>
        <time>2025-09-14T08:45:09Z</time>
      </trkpt>
      <trkpt lat="45.70371" lon="3.38909">
        <ele>492.2</ele>
        <time>2025-09-14T08:45:10Z</time>
      </trkpt>
      <trkpt lat="45.70372" lon="3.38904">
        <ele>492.6</ele>
        <time>2025-09-14T08:45:11Z</time>
      </trkpt>
      <trkpt lat="45.70373" lon="3.38899">
        <ele>492.6</ele>
        <time>2025-09-14T08:45:12Z</time>
      </trkpt>
      <trkpt lat="45.70375" lon="3.38894">
        <ele>492.8</ele>
        <time>2025-09-14T08:45:13Z</time>
      </trkpt>
      <trkpt lat="45.70376" lon="3.38889">
        <ele>492.8</ele>
        <time>2025-09-14T08:45:14Z</time>
      </trkpt>
      <trkpt lat="45.70376" lon="3.38885">
        <ele>493</ele>
        <time>2025-09-14T08:45:15Z</time>
      </trkpt>
      <trkpt lat="45.70377" lon="3.3888">
        <ele>493</ele>
        <time>2025-09-14T08:45:16Z</time>
      </trkpt>
      <trkpt lat="45.70377" lon="3.38875">
        <ele>493</ele>
        <time>2025-09-14T08:45:17Z</time>
      </trkpt>
      <trkpt lat="45.70378" lon="3.3887">
        <ele>493.2</ele>
        <time>2025-09-14T08:45:18Z</time>
      </trkpt>
      <trkpt lat="45.70379" lon="3.38866">
        <ele>493.2</ele>
        <time>2025-09-14T08:45:19Z</time>
      </trkpt>
      <trkpt lat="45.70381" lon="3.38861">
        <ele>493.4</ele>
        <time>2025-09-14T08:45:20Z</time>
      </trkpt>
      <trkpt lat="45.70382" lon="3.38856">
        <ele>493.8</ele>
        <time>2025-09-14T08:45:21Z</time>
      </trkpt>
      <trkpt lat="45.70383" lon="3.38851">
        <ele>494</ele>
        <time>2025-09-14T08:45:22Z</time>
      </trkpt>
      <trkpt lat="45.70384" lon="3.38846">
        <ele>494</ele>
        <time>2025-09-14T08:45:23Z</time>
      </trkpt>
      <trkpt lat="45.70384" lon="3.38842">
        <ele>494</ele>
        <time>2025-09-14T08:45:24Z</time>
      </trkpt>
      <trkpt lat="45.70385" lon="3.38838">
        <ele>494.2</ele>
        <time>2025-09-14T08:45:25Z</time>
      </trkpt>
      <trkpt lat="45.70386" lon="3.38834">
        <ele>494.2</ele>
        <time>2025-09-14T08:45:26Z</time>
      </trkpt>
      <trkpt lat="45.70387" lon="3.38829">
        <ele>494.4</ele>
        <time>2025-09-14T08:45:27Z</time>
      </trkpt>
      <trkpt lat="45.70387" lon="3.38825">
        <ele>494.4</ele>
        <time>2025-09-14T08:45:28Z</time>
      </trkpt>
      <trkpt lat="45.70389" lon="3.38821">
        <ele>494.6</ele>
        <time>2025-09-14T08:45:29Z</time>
      </trkpt>
      <trkpt lat="45.7039" lon="3.38817">
        <ele>494.8</ele>
        <time>2025-09-14T08:45:30Z</time>
      </trkpt>
      <trkpt lat="45.7039" lon="3.38813">
        <ele>495</ele>
        <time>2025-09-14T08:45:31Z</time>
      </trkpt>
      <trkpt lat="45.70391" lon="3.38809">
        <ele>495</ele>
        <time>2025-09-14T08:45:32Z</time>
      </trkpt>
      <trkpt lat="45.70392" lon="3.38805">
        <ele>495.2</ele>
        <time>2025-09-14T08:45:33Z</time>
      </trkpt>
      <trkpt lat="45.70392" lon="3.38801">
        <ele>495.2</ele>
        <time>2025-09-14T08:45:34Z</time>
      </trkpt>
      <trkpt lat="45.70393" lon="3.38797">
        <ele>495.4</ele>
        <time>2025-09-14T08:45:35Z</time>
      </trkpt>
      <trkpt lat="45.70394" lon="3.38793">
        <ele>495.6</ele>
        <time>2025-09-14T08:45:36Z</time>
      </trkpt>
      <trkpt lat="45.70395" lon="3.38789">
        <ele>495.8</ele>
        <time>2025-09-14T08:45:37Z</time>
      </trkpt>
      <trkpt lat="45.70395" lon="3.38785">
        <ele>496</ele>
        <time>2025-09-14T08:45:38Z</time>
      </trkpt>
      <trkpt lat="45.70397" lon="3.38781">
        <ele>496.4</ele>
        <time>2025-09-14T08:45:39Z</time>
      </trkpt>
      <trkpt lat="45.70397" lon="3.38778">
        <ele>496.6</ele>
        <time>2025-09-14T08:45:40Z</time>
      </trkpt>
      <trkpt lat="45.70398" lon="3.38774">
        <ele>496.8</ele>
        <time>2025-09-14T08:45:41Z</time>
      </trkpt>
      <trkpt lat="45.70398" lon="3.38771">
        <ele>497</ele>
        <time>2025-09-14T08:45:42Z</time>
      </trkpt>
      <trkpt lat="45.704" lon="3.38767">
        <ele>497.2</ele>
        <time>2025-09-14T08:45:43Z</time>
      </trkpt>
      <trkpt lat="45.704" lon="3.38763">
        <ele>497.4</ele>
        <time>2025-09-14T08:45:44Z</time>
      </trkpt>
      <trkpt lat="45.70401" lon="3.38759">
        <ele>497.8</ele>
        <time>2025-09-14T08:45:45Z</time>
      </trkpt>
      <trkpt lat="45.70402" lon="3.38756">
        <ele>498</ele>
        <time>2025-09-14T08:45:46Z</time>
      </trkpt>
      <trkpt lat="45.70402" lon="3.38753">
        <ele>498.4</ele>
        <time>2025-09-14T08:45:47Z</time>
      </trkpt>
      <trkpt lat="45.70403" lon="3.3875">
        <ele>498.6</ele>
        <time>2025-09-14T08:45:48Z</time>
      </trkpt>
      <trkpt lat="45.70404" lon="3.38748">
        <ele>498.8</ele>
        <time>2025-09-14T08:45:49Z</time>
      </trkpt>
      <trkpt lat="45.70405" lon="3.38745">
        <ele>499.2</ele>
        <time>2025-09-14T08:45:50Z</time>
      </trkpt>
      <trkpt lat="45.70407" lon="3.38741">
        <ele>499.4</ele>
        <time>2025-09-14T08:45:51Z</time>
      </trkpt>
      <trkpt lat="45.70408" lon="3.38738">
        <ele>499.6</ele>
        <time>2025-09-14T08:45:52Z</time>
      </trkpt>
      <trkpt lat="45.70409" lon="3.38736">
        <ele>499.8</ele>
        <time>2025-09-14T08:45:53Z</time>
      </trkpt>
      <trkpt lat="45.7041" lon="3.38733">
        <ele>499.8</ele>
        <time>2025-09-14T08:45:54Z</time>
      </trkpt>
      <trkpt lat="45.70411" lon="3.3873">
        <ele>500</ele>
        <time>2025-09-14T08:45:55Z</time>
      </trkpt>
      <trkpt lat="45.70412" lon="3.38727">
        <ele>500.4</ele>
        <time>2025-09-14T08:45:56Z</time>
      </trkpt>
      <trkpt lat="45.70414" lon="3.38724">
        <ele>500.6</ele>
        <time>2025-09-14T08:45:57Z</time>
      </trkpt>
      <trkpt lat="45.70415" lon="3.38721">
        <ele>500.8</ele>
        <time>2025-09-14T08:45:58Z</time>
      </trkpt>
      <trkpt lat="45.70417" lon="3.38719">
        <ele>501</ele>
        <time>2025-09-14T08:45:59Z</time>
      </trkpt>
      <trkpt lat="45.70419" lon="3.38717">
        <ele>501.2</ele>
        <time>2025-09-14T08:46:00Z</time>
      </trkpt>
      <trkpt lat="45.70421" lon="3.38714">
        <ele>501.6</ele>
        <time>2025-09-14T08:46:01Z</time>
      </trkpt>
      <trkpt lat="45.70423" lon="3.38713">
        <ele>502</ele>
        <time>2025-09-14T08:46:02Z</time>
      </trkpt>
      <trkpt lat="45.70425" lon="3.38712">
        <ele>502.6</ele>
        <time>2025-09-14T08:46:03Z</time>
      </trkpt>
      <trkpt lat="45.70427" lon="3.38711">
        <ele>502.8</ele>
        <time>2025-09-14T08:46:04Z</time>
      </trkpt>
      <trkpt lat="45.70429" lon="3.3871">
        <ele>503</ele>
        <time>2025-09-14T08:46:05Z</time>
      </trkpt>
      <trkpt lat="45.70431" lon="3.3871">
        <ele>503.2</ele>
        <time>2025-09-14T08:46:06Z</time>
      </trkpt>
      <trkpt lat="45.70433" lon="3.3871">
        <ele>503.6</ele>
        <time>2025-09-14T08:46:07Z</time>
      </trkpt>
      <trkpt lat="45.70436" lon="3.38711">
        <ele>503.8</ele>
        <time>2025-09-14T08:46:08Z</time>
      </trkpt>
      <trkpt lat="45.70438" lon="3.38713">
        <ele>504.2</ele>
        <time>2025-09-14T08:46:09Z</time>
      </trkpt>
      <trkpt lat="45.70439" lon="3.38714">
        <ele>504.4</ele>
        <time>2025-09-14T08:46:10Z</time>
      </trkpt>
      <trkpt lat="45.70441" lon="3.38715">
        <ele>504.8</ele>
        <time>2025-09-14T08:46:11Z</time>
      </trkpt>
      <trkpt lat="45.70443" lon="3.38717">
        <ele>505</ele>
        <time>2025-09-14T08:46:12Z</time>
      </trkpt>
      <trkpt lat="45.70444" lon="3.38719">
        <ele>505.4</ele>
        <time>2025-09-14T08:46:13Z</time>
      </trkpt>
      <trkpt lat="45.70446" lon="3.38721">
        <ele>505.8</ele>
        <time>2025-09-14T08:46:14Z</time>
      </trkpt>
      <trkpt lat="45.70448" lon="3.38723">
        <ele>506</ele>
        <time>2025-09-14T08:46:15Z</time>
      </trkpt>
      <trkpt lat="45.7045" lon="3.38725">
        <ele>506.2</ele>
        <time>2025-09-14T08:46:16Z</time>
      </trkpt>
      <trkpt lat="45.70452" lon="3.38727">
        <ele>506.6</ele>
        <time>2025-09-14T08:46:17Z</time>
      </trkpt>
      <trkpt lat="45.70454" lon="3.38729">
        <ele>506.8</ele>
        <time>2025-09-14T08:46:18Z</time>
      </trkpt>
      <trkpt lat="45.70456" lon="3.38731">
        <ele>507.2</ele>
        <time>2025-09-14T08:46:19Z</time>
      </trkpt>
      <trkpt lat="45.70458" lon="3.38732">
        <ele>507.4</ele>
        <time>2025-09-14T08:46:20Z</time>
      </trkpt>
      <trkpt lat="45.7046" lon="3.38734">
        <ele>507.8</ele>
        <time>2025-09-14T08:46:21Z</time>
      </trkpt>
      <trkpt lat="45.70462" lon="3.38735">
        <ele>508</ele>
        <time>2025-09-14T08:46:22Z</time>
      </trkpt>
      <trkpt lat="45.70465" lon="3.38737">
        <ele>508.4</ele>
        <time>2025-09-14T08:46:23Z</time>
      </trkpt>
      <trkpt lat="45.70467" lon="3.38738">
        <ele>508.6</ele>
        <time>2025-09-14T08:46:24Z</time>
      </trkpt>
      <trkpt lat="45.70468" lon="3.3874">
        <ele>509</ele>
        <time>2025-09-14T08:46:25Z</time>
      </trkpt>
      <trkpt lat="45.7047" lon="3.38741">
        <ele>509.2</ele>
        <time>2025-09-14T08:46:26Z</time>
      </trkpt>
      <trkpt lat="45.70472" lon="3.38743">
        <ele>509.6</ele>
        <time>2025-09-14T08:46:27Z</time>
      </trkpt>
      <trkpt lat="45.70474" lon="3.38745">
        <ele>509.8</ele>
        <time>2025-09-14T08:46:28Z</time>
      </trkpt>
      <trkpt lat="45.70476" lon="3.38746">
        <ele>510.2</ele>
        <time>2025-09-14T08:46:29Z</time>
      </trkpt>
      <trkpt lat="45.70478" lon="3.38747">
        <ele>510.4</ele>
        <time>2025-09-14T08:46:30Z</time>
      </trkpt>
      <trkpt lat="45.7048" lon="3.38748">
        <ele>510.8</ele>
        <time>2025-09-14T08:46:31Z</time>
      </trkpt>
      <trkpt lat="45.70482" lon="3.3875">
        <ele>511</ele>
        <time>2025-09-14T08:46:32Z</time>
      </trkpt>
      <trkpt lat="45.70484" lon="3.38751">
        <ele>511.4</ele>
        <time>2025-09-14T08:46:33Z</time>
      </trkpt>
      <trkpt lat="45.70485" lon="3.38753">
        <ele>511.6</ele>
        <time>2025-09-14T08:46:34Z</time>
      </trkpt>
      <trkpt lat="45.70487" lon="3.38756">
        <ele>512</ele>
        <time>2025-09-14T08:46:35Z</time>
      </trkpt>
      <trkpt lat="45.70489" lon="3.38758">
        <ele>512.4</ele>
        <time>2025-09-14T08:46:36Z</time>
      </trkpt>
      <trkpt lat="45.70491" lon="3.38759">
        <ele>512.6</ele>
        <time>2025-09-14T08:46:37Z</time>
      </trkpt>
      <trkpt lat="45.70494" lon="3.38761">
        <ele>512.8</ele>
        <time>2025-09-14T08:46:38Z</time>
      </trkpt>
      <trkpt lat="45.70496" lon="3.38762">
        <ele>513</ele>
        <time>2025-09-14T08:46:39Z</time>
      </trkpt>
      <trkpt lat="45.70498" lon="3.38764">
        <ele>513.2</ele>
        <time>2025-09-14T08:46:40Z</time>
      </trkpt>
      <trkpt lat="45.705" lon="3.38766">
        <ele>513.6</ele>
        <time>2025-09-14T08:46:41Z</time>
      </trkpt>
      <trkpt lat="45.70502" lon="3.38768">
        <ele>513.8</ele>
        <time>2025-09-14T08:46:42Z</time>
      </trkpt>
      <trkpt lat="45.70504" lon="3.38769">
        <ele>514</ele>
        <time>2025-09-14T08:46:43Z</time>
      </trkpt>
      <trkpt lat="45.70506" lon="3.38771">
        <ele>514.2</ele>
        <time>2025-09-14T08:46:44Z</time>
      </trkpt>
      <trkpt lat="45.70508" lon="3.38772">
        <ele>514.6</ele>
        <time>2025-09-14T08:46:45Z</time>
      </trkpt>
      <trkpt lat="45.7051" lon="3.38774">
        <ele>514.8</ele>
        <time>2025-09-14T08:46:46Z</time>
      </trkpt>
      <trkpt lat="45.70511" lon="3.38776">
        <ele>515.2</ele>
        <time>2025-09-14T08:46:47Z</time>
      </trkpt>
      <trkpt lat="45.70513" lon="3.38777">
        <ele>515.4</ele>
        <time>2025-09-14T08:46:48Z</time>
      </trkpt>
      <trkpt lat="45.70515" lon="3.38779">
        <ele>515.8</ele>
        <time>2025-09-14T08:46:49Z</time>
      </trkpt>
      <trkpt lat="45.70516" lon="3.38781">
        <ele>516</ele>
        <time>2025-09-14T08:46:50Z</time>
      </trkpt>
      <trkpt lat="45.70518" lon="3.38783">
        <ele>516.4</ele>
        <time>2025-09-14T08:46:51Z</time>
      </trkpt>
      <trkpt lat="45.7052" lon="3.38785">
        <ele>516.6</ele>
        <time>2025-09-14T08:46:52Z</time>
      </trkpt>
      <trkpt lat="45.70522" lon="3.38787">
        <ele>517</ele>
        <time>2025-09-14T08:46:53Z</time>
      </trkpt>
      <trkpt lat="45.70524" lon="3.38788">
        <ele>517.4</ele>
        <time>2025-09-14T08:46:54Z</time>
      </trkpt>
      <trkpt lat="45.70526" lon="3.3879">
        <ele>517.6</ele>
        <time>2025-09-14T08:46:55Z</time>
      </trkpt>
      <trkpt lat="45.70528" lon="3.38792">
        <ele>518</ele>
        <time>2025-09-14T08:46:56Z</time>
      </trkpt>
      <trkpt lat="45.7053" lon="3.38794">
        <ele>518.2</ele>
        <time>2025-09-14T08:46:57Z</time>
      </trkpt>
      <trkpt lat="45.70532" lon="3.38796">
        <ele>518.6</ele>
        <time>2025-09-14T08:46:58Z</time>
      </trkpt>
      <trkpt lat="45.70534" lon="3.38798">
        <ele>518.8</ele>
        <time>2025-09-14T08:46:59Z</time>
      </trkpt>
      <trkpt lat="45.70536" lon="3.38799">
        <ele>519.2</ele>
        <time>2025-09-14T08:47:00Z</time>
      </trkpt>
      <trkpt lat="45.70538" lon="3.38801">
        <ele>519.4</ele>
        <time>2025-09-14T08:47:01Z</time>
      </trkpt>
      <trkpt lat="45.7054" lon="3.38803">
        <ele>519.8</ele>
        <time>2025-09-14T08:47:02Z</time>
      </trkpt>
      <trkpt lat="45.70542" lon="3.38805">
        <ele>520.2</ele>
        <time>2025-09-14T08:47:03Z</time>
      </trkpt>
      <trkpt lat="45.70544" lon="3.38806">
        <ele>520.4</ele>
        <time>2025-09-14T08:47:04Z</time>
      </trkpt>
      <trkpt lat="45.70547" lon="3.38807">
        <ele>520.8</ele>
        <time>2025-09-14T08:47:05Z</time>
      </trkpt>
      <trkpt lat="45.70549" lon="3.38809">
        <ele>521</ele>
        <time>2025-09-14T08:47:06Z</time>
      </trkpt>
      <trkpt lat="45.70551" lon="3.38809">
        <ele>521.4</ele>
        <time>2025-09-14T08:47:07Z</time>
      </trkpt>
      <trkpt lat="45.70554" lon="3.3881">
        <ele>521.6</ele>
        <time>2025-09-14T08:47:08Z</time>
      </trkpt>
      <trkpt lat="45.70557" lon="3.3881">
        <ele>521.8</ele>
        <time>2025-09-14T08:47:09Z</time>
      </trkpt>
      <trkpt lat="45.7056" lon="3.38809">
        <ele>522</ele>
        <time>2025-09-14T08:47:10Z</time>
      </trkpt>
      <trkpt lat="45.70562" lon="3.38808">
        <ele>522.2</ele>
        <time>2025-09-14T08:47:11Z</time>
      </trkpt>
      <trkpt lat="45.70565" lon="3.38808">
        <ele>522.4</ele>
        <time>2025-09-14T08:47:12Z</time>
      </trkpt>
      <trkpt lat="45.70568" lon="3.38807">
        <ele>522.4</ele>
        <time>2025-09-14T08:47:13Z</time>
      </trkpt>
      <trkpt lat="45.70571" lon="3.38807">
        <ele>522.6</ele>
        <time>2025-09-14T08:47:14Z</time>
      </trkpt>
      <trkpt lat="45.70574" lon="3.38807">
        <ele>522.8</ele>
        <time>2025-09-14T08:47:15Z</time>
      </trkpt>
      <trkpt lat="45.70577" lon="3.38807">
        <ele>522.8</ele>
        <time>2025-09-14T08:47:16Z</time>
      </trkpt>
      <trkpt lat="45.7058" lon="3.38807">
        <ele>523</ele>
        <time>2025-09-14T08:47:17Z</time>
      </trkpt>
      <trkpt lat="45.70583" lon="3.38807">
        <ele>523</ele>
        <time>2025-09-14T08:47:18Z</time>
      </trkpt>
      <trkpt lat="45.70586" lon="3.38808">
        <ele>523.2</ele>
        <time>2025-09-14T08:47:19Z</time>
      </trkpt>
      <trkpt lat="45.70589" lon="3.38809">
        <ele>523.4</ele>
        <time>2025-09-14T08:47:20Z</time>
      </trkpt>
      <trkpt lat="45.70592" lon="3.3881">
        <ele>523.4</ele>
        <time>2025-09-14T08:47:21Z</time>
      </trkpt>
      <trkpt lat="45.70595" lon="3.38811">
        <ele>523.6</ele>
        <time>2025-09-14T08:47:22Z</time>
      </trkpt>
      <trkpt lat="45.70598" lon="3.38811">
        <ele>523.8</ele>
        <time>2025-09-14T08:47:23Z</time>
      </trkpt>
      <trkpt lat="45.70601" lon="3.38811">
        <ele>523.8</ele>
        <time>2025-09-14T08:47:24Z</time>
      </trkpt>
      <trkpt lat="45.70604" lon="3.38812">
        <ele>524</ele>
        <time>2025-09-14T08:47:25Z</time>
      </trkpt>
      <trkpt lat="45.70607" lon="3.38813">
        <ele>524.2</ele>
        <time>2025-09-14T08:47:26Z</time>
      </trkpt>
      <trkpt lat="45.70611" lon="3.38815">
        <ele>524.2</ele>
        <time>2025-09-14T08:47:27Z</time>
      </trkpt>
      <trkpt lat="45.70614" lon="3.38816">
        <ele>524.4</ele>
        <time>2025-09-14T08:47:28Z</time>
      </trkpt>
      <trkpt lat="45.70617" lon="3.38816">
        <ele>524.6</ele>
        <time>2025-09-14T08:47:29Z</time>
      </trkpt>
      <trkpt lat="45.70621" lon="3.38817">
        <ele>524.6</ele>
        <time>2025-09-14T08:47:30Z</time>
      </trkpt>
      <trkpt lat="45.70624" lon="3.38818">
        <ele>524.8</ele>
        <time>2025-09-14T08:47:31Z</time>
      </trkpt>
      <trkpt lat="45.70628" lon="3.38819">
        <ele>524.8</ele>
        <time>2025-09-14T08:47:32Z</time>
      </trkpt>
      <trkpt lat="45.70631" lon="3.3882">
        <ele>525</ele>
        <time>2025-09-14T08:47:33Z</time>
      </trkpt>
      <trkpt lat="45.70635" lon="3.38821">
        <ele>525</ele>
        <time>2025-09-14T08:47:34Z</time>
      </trkpt>
      <trkpt lat="45.70639" lon="3.38822">
        <ele>525.2</ele>
        <time>2025-09-14T08:47:35Z</time>
      </trkpt>
      <trkpt lat="45.70643" lon="3.38824">
        <ele>525.2</ele>
        <time>2025-09-14T08:47:36Z</time>
      </trkpt>
      <trkpt lat="45.70647" lon="3.38825">
        <ele>525.2</ele>
        <time>2025-09-14T08:47:37Z</time>
      </trkpt>
      <trkpt lat="45.70651" lon="3.38827">
        <ele>525</ele>
        <time>2025-09-14T08:47:38Z</time>
      </trkpt>
      <trkpt lat="45.70655" lon="3.38828">
        <ele>525</ele>
        <time>2025-09-14T08:47:39Z</time>
      </trkpt>
      <trkpt lat="45.70659" lon="3.38829">
        <ele>525</ele>
        <time>2025-09-14T08:47:40Z</time>
      </trkpt>
      <trkpt lat="45.70663" lon="3.38831">
        <ele>525</ele>
        <time>2025-09-14T08:47:41Z</time>
      </trkpt>
      <trkpt lat="45.70667" lon="3.38832">
        <ele>524.8</ele>
        <time>2025-09-14T08:47:42Z</time>
      </trkpt>
      <trkpt lat="45.7067" lon="3.38833">
        <ele>524.8</ele>
        <time>2025-09-14T08:47:43Z</time>
      </trkpt>
      <trkpt lat="45.70673" lon="3.38834">
        <ele>524.8</ele>
        <time>2025-09-14T08:47:44Z</time>
      </trkpt>
      <trkpt lat="45.70675" lon="3.38836">
        <ele>524.6</ele>
        <time>2025-09-14T08:47:45Z</time>
      </trkpt>
      <trkpt lat="45.70678" lon="3.38837">
        <ele>524.6</ele>
        <time>2025-09-14T08:47:46Z</time>
      </trkpt>
      <trkpt lat="45.70681" lon="3.38838">
        <ele>524.4</ele>
        <time>2025-09-14T08:47:47Z</time>
      </trkpt>
      <trkpt lat="45.70684" lon="3.38838">
        <ele>524.4</ele>
        <time>2025-09-14T08:47:48Z</time>
      </trkpt>
      <trkpt lat="45.70688" lon="3.38837">
        <ele>524.4</ele>
        <time>2025-09-14T08:47:49Z</time>
      </trkpt>
      <trkpt lat="45.70692" lon="3.38835">
        <ele>524.4</ele>
        <time>2025-09-14T08:47:50Z</time>
      </trkpt>
      <trkpt lat="45.70697" lon="3.38832">
        <ele>524.2</ele>
        <time>2025-09-14T08:47:51Z</time>
      </trkpt>
      <trkpt lat="45.70701" lon="3.38827">
        <ele>524.2</ele>
        <time>2025-09-14T08:47:52Z</time>
      </trkpt>
      <trkpt lat="45.70704" lon="3.3882">
        <ele>524.4</ele>
        <time>2025-09-14T08:47:53Z</time>
      </trkpt>
      <trkpt lat="45.70708" lon="3.38813">
        <ele>524.4</ele>
        <time>2025-09-14T08:47:54Z</time>
      </trkpt>
      <trkpt lat="45.70709" lon="3.38807">
        <ele>524.6</ele>
        <time>2025-09-14T08:47:55Z</time>
      </trkpt>
      <trkpt lat="45.70711" lon="3.388">
        <ele>524.8</ele>
        <time>2025-09-14T08:47:56Z</time>
      </trkpt>
      <trkpt lat="45.70712" lon="3.38794">
        <ele>525</ele>
        <time>2025-09-14T08:47:57Z</time>
      </trkpt>
      <trkpt lat="45.70714" lon="3.38787">
        <ele>525</ele>
        <time>2025-09-14T08:47:58Z</time>
      </trkpt>
      <trkpt lat="45.70714" lon="3.38781">
        <ele>525.2</ele>
        <time>2025-09-14T08:47:59Z</time>
      </trkpt>
      <trkpt lat="45.70715" lon="3.38774">
        <ele>525.4</ele>
        <time>2025-09-14T08:48:00Z</time>
      </trkpt>
      <trkpt lat="45.70716" lon="3.38767">
        <ele>525.6</ele>
        <time>2025-09-14T08:48:01Z</time>
      </trkpt>
      <trkpt lat="45.70717" lon="3.38759">
        <ele>525.6</ele>
        <time>2025-09-14T08:48:02Z</time>
      </trkpt>
      <trkpt lat="45.70718" lon="3.38753">
        <ele>525.8</ele>
        <time>2025-09-14T08:48:03Z</time>
      </trkpt>
      <trkpt lat="45.70719" lon="3.38745">
        <ele>525.8</ele>
        <time>2025-09-14T08:48:04Z</time>
      </trkpt>
      <trkpt lat="45.70721" lon="3.38738">
        <ele>525.8</ele>
        <time>2025-09-14T08:48:05Z</time>
      </trkpt>
      <trkpt lat="45.70723" lon="3.38731">
        <ele>525.8</ele>
        <time>2025-09-14T08:48:06Z</time>
      </trkpt>
      <trkpt lat="45.70726" lon="3.38723">
        <ele>525.8</ele>
        <time>2025-09-14T08:48:07Z</time>
      </trkpt>
      <trkpt lat="45.70728" lon="3.38716">
        <ele>525.8</ele>
        <time>2025-09-14T08:48:08Z</time>
      </trkpt>
      <trkpt lat="45.7073" lon="3.38708">
        <ele>525.8</ele>
        <time>2025-09-14T08:48:09Z</time>
      </trkpt>
      <trkpt lat="45.70732" lon="3.38701">
        <ele>525.8</ele>
        <time>2025-09-14T08:48:10Z</time>
      </trkpt>
      <trkpt lat="45.70735" lon="3.38694">
        <ele>525.8</ele>
        <time>2025-09-14T08:48:11Z</time>
      </trkpt>
      <trkpt lat="45.70737" lon="3.38686">
        <ele>525.6</ele>
        <time>2025-09-14T08:48:12Z</time>
      </trkpt>
      <trkpt lat="45.70738" lon="3.38678">
        <ele>525.6</ele>
        <time>2025-09-14T08:48:13Z</time>
      </trkpt>
      <trkpt lat="45.7074" lon="3.3867">
        <ele>525.6</ele>
        <time>2025-09-14T08:48:14Z</time>
      </trkpt>
      <trkpt lat="45.7074" lon="3.38663">
        <ele>525.4</ele>
        <time>2025-09-14T08:48:15Z</time>
      </trkpt>
      <trkpt lat="45.7074" lon="3.38655">
        <ele>525.4</ele>
        <time>2025-09-14T08:48:16Z</time>
      </trkpt>
      <trkpt lat="45.70738" lon="3.38646">
        <ele>525.4</ele>
        <time>2025-09-14T08:48:17Z</time>
      </trkpt>
      <trkpt lat="45.70736" lon="3.38638">
        <ele>525.2</ele>
        <time>2025-09-14T08:48:18Z</time>
      </trkpt>
      <trkpt lat="45.70735" lon="3.3863">
        <ele>525.2</ele>
        <time>2025-09-14T08:48:19Z</time>
      </trkpt>
      <trkpt lat="45.70733" lon="3.38621">
        <ele>525.2</ele>
        <time>2025-09-14T08:48:20Z</time>
      </trkpt>
      <trkpt lat="45.70731" lon="3.38612">
        <ele>525</ele>
        <time>2025-09-14T08:48:21Z</time>
      </trkpt>
      <trkpt lat="45.7073" lon="3.38604">
        <ele>525</ele>
        <time>2025-09-14T08:48:22Z</time>
      </trkpt>
      <trkpt lat="45.70728" lon="3.38596">
        <ele>524.8</ele>
        <time>2025-09-14T08:48:23Z</time>
      </trkpt>
      <trkpt lat="45.70727" lon="3.38587">
        <ele>524.6</ele>
        <time>2025-09-14T08:48:24Z</time>
      </trkpt>
      <trkpt lat="45.70725" lon="3.38579">
        <ele>524.6</ele>
        <time>2025-09-14T08:48:25Z</time>
      </trkpt>
      <trkpt lat="45.70723" lon="3.38571">
        <ele>524.4</ele>
        <time>2025-09-14T08:48:26Z</time>
      </trkpt>
      <trkpt lat="45.70722" lon="3.38562">
        <ele>524.2</ele>
        <time>2025-09-14T08:48:27Z</time>
      </trkpt>
      <trkpt lat="45.7072" lon="3.38554">
        <ele>524.2</ele>
        <time>2025-09-14T08:48:28Z</time>
      </trkpt>
      <trkpt lat="45.70718" lon="3.38546">
        <ele>524.2</ele>
        <time>2025-09-14T08:48:29Z</time>
      </trkpt>
      <trkpt lat="45.70716" lon="3.38538">
        <ele>524</ele>
        <time>2025-09-14T08:48:30Z</time>
      </trkpt>
      <trkpt lat="45.70714" lon="3.38529">
        <ele>524</ele>
        <time>2025-09-14T08:48:31Z</time>
      </trkpt>
      <trkpt lat="45.70712" lon="3.38521">
        <ele>524</ele>
        <time>2025-09-14T08:48:32Z</time>
      </trkpt>
      <trkpt lat="45.7071" lon="3.38513">
        <ele>524</ele>
        <time>2025-09-14T08:48:33Z</time>
      </trkpt>
      <trkpt lat="45.70707" lon="3.38506">
        <ele>524</ele>
        <time>2025-09-14T08:48:34Z</time>
      </trkpt>
      <trkpt lat="45.70705" lon="3.38498">
        <ele>524.2</ele>
        <time>2025-09-14T08:48:35Z</time>
      </trkpt>
      <trkpt lat="45.70703" lon="3.38491">
        <ele>524.2</ele>
        <time>2025-09-14T08:48:36Z</time>
      </trkpt>
      <trkpt lat="45.70701" lon="3.38484">
        <ele>524.4</ele>
        <time>2025-09-14T08:48:37Z</time>
      </trkpt>
      <trkpt lat="45.70699" lon="3.38477">
        <ele>524.6</ele>
        <time>2025-09-14T08:48:38Z</time>
      </trkpt>
      <trkpt lat="45.70697" lon="3.38471">
        <ele>524.8</ele>
        <time>2025-09-14T08:48:39Z</time>
      </trkpt>
      <trkpt lat="45.70694" lon="3.38465">
        <ele>525.2</ele>
        <time>2025-09-14T08:48:40Z</time>
      </trkpt>
      <trkpt lat="45.70692" lon="3.38459">
        <ele>525.4</ele>
        <time>2025-09-14T08:48:41Z</time>
      </trkpt>
      <trkpt lat="45.7069" lon="3.38453">
        <ele>525.6</ele>
        <time>2025-09-14T08:48:42Z</time>
      </trkpt>
      <trkpt lat="45.70688" lon="3.38448">
        <ele>525.8</ele>
        <time>2025-09-14T08:48:43Z</time>
      </trkpt>
      <trkpt lat="45.70686" lon="3.38443">
        <ele>526</ele>
        <time>2025-09-14T08:48:44Z</time>
      </trkpt>
      <trkpt lat="45.70684" lon="3.38438">
        <ele>526.2</ele>
        <time>2025-09-14T08:48:45Z</time>
      </trkpt>
      <trkpt lat="45.70682" lon="3.38432">
        <ele>526.6</ele>
        <time>2025-09-14T08:48:46Z</time>
      </trkpt>
      <trkpt lat="45.70681" lon="3.38427">
        <ele>526.8</ele>
        <time>2025-09-14T08:48:47Z</time>
      </trkpt>
      <trkpt lat="45.70678" lon="3.38422">
        <ele>527.2</ele>
        <time>2025-09-14T08:48:48Z</time>
      </trkpt>
      <trkpt lat="45.70676" lon="3.38417">
        <ele>527.6</ele>
        <time>2025-09-14T08:48:49Z</time>
      </trkpt>
      <trkpt lat="45.70674" lon="3.38412">
        <ele>527.8</ele>
        <time>2025-09-14T08:48:50Z</time>
      </trkpt>
      <trkpt lat="45.70671" lon="3.38407">
        <ele>528.2</ele>
        <time>2025-09-14T08:48:51Z</time>
      </trkpt>
      <trkpt lat="45.70669" lon="3.38403">
        <ele>528.4</ele>
        <time>2025-09-14T08:48:52Z</time>
      </trkpt>
      <trkpt lat="45.70666" lon="3.38398">
        <ele>528.6</ele>
        <time>2025-09-14T08:48:53Z</time>
      </trkpt>
      <trkpt lat="45.70663" lon="3.38394">
        <ele>528.8</ele>
        <time>2025-09-14T08:48:54Z</time>
      </trkpt>
      <trkpt lat="45.70661" lon="3.38389">
        <ele>529</ele>
        <time>2025-09-14T08:48:55Z</time>
      </trkpt>
      <trkpt lat="45.70659" lon="3.38385">
        <ele>529.2</ele>
        <time>2025-09-14T08:48:56Z</time>
      </trkpt>
      <trkpt lat="45.70657" lon="3.3838">
        <ele>529.2</ele>
        <time>2025-09-14T08:48:57Z</time>
      </trkpt>
      <trkpt lat="45.70656" lon="3.38374">
        <ele>529.6</ele>
        <time>2025-09-14T08:48:58Z</time>
      </trkpt>
      <trkpt lat="45.70654" lon="3.38369">
        <ele>529.8</ele>
        <time>2025-09-14T08:48:59Z</time>
      </trkpt>
      <trkpt lat="45.70653" lon="3.38364">
        <ele>530</ele>
        <time>2025-09-14T08:49:00Z</time>
      </trkpt>
      <trkpt lat="45.70652" lon="3.38358">
        <ele>530.2</ele>
        <time>2025-09-14T08:49:01Z</time>
      </trkpt>
      <trkpt lat="45.70652" lon="3.38352">
        <ele>530.4</ele>
        <time>2025-09-14T08:49:02Z</time>
      </trkpt>
      <trkpt lat="45.70652" lon="3.38346">
        <ele>530.6</ele>
        <time>2025-09-14T08:49:03Z</time>
      </trkpt>
      <trkpt lat="45.70652" lon="3.3834">
        <ele>530.8</ele>
        <time>2025-09-14T08:49:04Z</time>
      </trkpt>
      <trkpt lat="45.70652" lon="3.38334">
        <ele>531</ele>
        <time>2025-09-14T08:49:05Z</time>
      </trkpt>
      <trkpt lat="45.70652" lon="3.38327">
        <ele>531.2</ele>
        <time>2025-09-14T08:49:06Z</time>
      </trkpt>
      <trkpt lat="45.70652" lon="3.38321">
        <ele>531.4</ele>
        <time>2025-09-14T08:49:07Z</time>
      </trkpt>
      <trkpt lat="45.70652" lon="3.38315">
        <ele>531.4</ele>
        <time>2025-09-14T08:49:08Z</time>
      </trkpt>
      <trkpt lat="45.70652" lon="3.38308">
        <ele>531.4</ele>
        <time>2025-09-14T08:49:09Z</time>
      </trkpt>
      <trkpt lat="45.70653" lon="3.38301">
        <ele>531.4</ele>
        <time>2025-09-14T08:49:10Z</time>
      </trkpt>
      <trkpt lat="45.70653" lon="3.38295">
        <ele>531.6</ele>
        <time>2025-09-14T08:49:11Z</time>
      </trkpt>
      <trkpt lat="45.70654" lon="3.38288">
        <ele>531.6</ele>
        <time>2025-09-14T08:49:12Z</time>
      </trkpt>
      <trkpt lat="45.70654" lon="3.38281">
        <ele>531.6</ele>
        <time>2025-09-14T08:49:13Z</time>
      </trkpt>
      <trkpt lat="45.70655" lon="3.38274">
        <ele>531.6</ele>
        <time>2025-09-14T08:49:14Z</time>
      </trkpt>
      <trkpt lat="45.70655" lon="3.38267">
        <ele>531.6</ele>
        <time>2025-09-14T08:49:15Z</time>
      </trkpt>
      <trkpt lat="45.70656" lon="3.3826">
        <ele>531.6</ele>
        <time>2025-09-14T08:49:16Z</time>
      </trkpt>
      <trkpt lat="45.70656" lon="3.38254">
        <ele>531.6</ele>
        <time>2025-09-14T08:49:17Z</time>
      </trkpt>
      <trkpt lat="45.70656" lon="3.38247">
        <ele>531.6</ele>
        <time>2025-09-14T08:49:18Z</time>
      </trkpt>
      <trkpt lat="45.70657" lon="3.3824">
        <ele>531.4</ele>
        <time>2025-09-14T08:49:19Z</time>
      </trkpt>
      <trkpt lat="45.70657" lon="3.38233">
        <ele>531.4</ele>
        <time>2025-09-14T08:49:20Z</time>
      </trkpt>
      <trkpt lat="45.70658" lon="3.38226">
        <ele>531.4</ele>
        <time>2025-09-14T08:49:21Z</time>
      </trkpt>
      <trkpt lat="45.70659" lon="3.38219">
        <ele>531.2</ele>
        <time>2025-09-14T08:49:22Z</time>
      </trkpt>
      <trkpt lat="45.70659" lon="3.38211">
        <ele>531</ele>
        <time>2025-09-14T08:49:23Z</time>
      </trkpt>
      <trkpt lat="45.7066" lon="3.38204">
        <ele>531</ele>
        <time>2025-09-14T08:49:24Z</time>
      </trkpt>
      <trkpt lat="45.70661" lon="3.38197">
        <ele>530.8</ele>
        <time>2025-09-14T08:49:25Z</time>
      </trkpt>
      <trkpt lat="45.70663" lon="3.38189">
        <ele>530.8</ele>
        <time>2025-09-14T08:49:26Z</time>
      </trkpt>
      <trkpt lat="45.70665" lon="3.38181">
        <ele>530.6</ele>
        <time>2025-09-14T08:49:27Z</time>
      </trkpt>
      <trkpt lat="45.70666" lon="3.38173">
        <ele>530.4</ele>
        <time>2025-09-14T08:49:28Z</time>
      </trkpt>
      <trkpt lat="45.70668" lon="3.38164">
        <ele>530.2</ele>
        <time>2025-09-14T08:49:29Z</time>
      </trkpt>
      <trkpt lat="45.7067" lon="3.38155">
        <ele>530</ele>
        <time>2025-09-14T08:49:30Z</time>
      </trkpt>
      <trkpt lat="45.70672" lon="3.38146">
        <ele>529.6</ele>
        <time>2025-09-14T08:49:31Z</time>
      </trkpt>
      <trkpt lat="45.70674" lon="3.38137">
        <ele>529.4</ele>
        <time>2025-09-14T08:49:32Z</time>
      </trkpt>
      <trkpt lat="45.70676" lon="3.38127">
        <ele>529.2</ele>
        <time>2025-09-14T08:49:33Z</time>
      </trkpt>
      <trkpt lat="45.70678" lon="3.38117">
        <ele>528.8</ele>
        <time>2025-09-14T08:49:34Z</time>
      </trkpt>
      <trkpt lat="45.70681" lon="3.38107">
        <ele>528.4</ele>
        <time>2025-09-14T08:49:35Z</time>
      </trkpt>
      <trkpt lat="45.70684" lon="3.38097">
        <ele>528</ele>
        <time>2025-09-14T08:49:36Z</time>
      </trkpt>
      <trkpt lat="45.70687" lon="3.38087">
        <ele>527.6</ele>
        <time>2025-09-14T08:49:37Z</time>
      </trkpt>
      <trkpt lat="45.7069" lon="3.38076">
        <ele>527.2</ele>
        <time>2025-09-14T08:49:38Z</time>
      </trkpt>
      <trkpt lat="45.70694" lon="3.38066">
        <ele>526.8</ele>
        <time>2025-09-14T08:49:39Z</time>
      </trkpt>
      <trkpt lat="45.70698" lon="3.38056">
        <ele>526.4</ele>
        <time>2025-09-14T08:49:40Z</time>
      </trkpt>
      <trkpt lat="45.70702" lon="3.38045">
        <ele>526</ele>
        <time>2025-09-14T08:49:41Z</time>
      </trkpt>
      <trkpt lat="45.70707" lon="3.38035">
        <ele>525.6</ele>
        <time>2025-09-14T08:49:42Z</time>
      </trkpt>
      <trkpt lat="45.70712" lon="3.38026">
        <ele>525.4</ele>
        <time>2025-09-14T08:49:43Z</time>
      </trkpt>
      <trkpt lat="45.70718" lon="3.38016">
        <ele>524.8</ele>
        <time>2025-09-14T08:49:44Z</time>
      </trkpt>
      <trkpt lat="45.70724" lon="3.38008">
        <ele>524.4</ele>
        <time>2025-09-14T08:49:45Z</time>
      </trkpt>
      <trkpt lat="45.7073" lon="3.37999">
        <ele>524</ele>
        <time>2025-09-14T08:49:46Z</time>
      </trkpt>
      <trkpt lat="45.70737" lon="3.37991">
        <ele>523.6</ele>
        <time>2025-09-14T08:49:47Z</time>
      </trkpt>
      <trkpt lat="45.70743" lon="3.37982">
        <ele>523.2</ele>
        <time>2025-09-14T08:49:48Z</time>
      </trkpt>
      <trkpt lat="45.7075" lon="3.37975">
        <ele>523</ele>
        <time>2025-09-14T08:49:49Z</time>
      </trkpt>
      <trkpt lat="45.70757" lon="3.37967">
        <ele>522.8</ele>
        <time>2025-09-14T08:49:50Z</time>
      </trkpt>
      <trkpt lat="45.70764" lon="3.3796">
        <ele>522.6</ele>
        <time>2025-09-14T08:49:51Z</time>
      </trkpt>
      <trkpt lat="45.70771" lon="3.37953">
        <ele>522.4</ele>
        <time>2025-09-14T08:49:52Z</time>
      </trkpt>
      <trkpt lat="45.70778" lon="3.37947">
        <ele>522.2</ele>
        <time>2025-09-14T08:49:53Z</time>
      </trkpt>
      <trkpt lat="45.70785" lon="3.3794">
        <ele>522</ele>
        <time>2025-09-14T08:49:54Z</time>
      </trkpt>
      <trkpt lat="45.70792" lon="3.37934">
        <ele>521.8</ele>
        <time>2025-09-14T08:49:55Z</time>
      </trkpt>
      <trkpt lat="45.70799" lon="3.37928">
        <ele>521.6</ele>
        <time>2025-09-14T08:49:56Z</time>
      </trkpt>
      <trkpt lat="45.70806" lon="3.37922">
        <ele>521.2</ele>
        <time>2025-09-14T08:49:57Z</time>
      </trkpt>
      <trkpt lat="45.70813" lon="3.37917">
        <ele>521</ele>
        <time>2025-09-14T08:49:58Z</time>
      </trkpt>
      <trkpt lat="45.7082" lon="3.37912">
        <ele>520.8</ele>
        <time>2025-09-14T08:49:59Z</time>
      </trkpt>
      <trkpt lat="45.70827" lon="3.37905">
        <ele>520.6</ele>
        <time>2025-09-14T08:50:00Z</time>
      </trkpt>
      <trkpt lat="45.70832" lon="3.37897">
        <ele>520.4</ele>
        <time>2025-09-14T08:50:01Z</time>
      </trkpt>
      <trkpt lat="45.70836" lon="3.37887">
        <ele>520.4</ele>
        <time>2025-09-14T08:50:02Z</time>
      </trkpt>
      <trkpt lat="45.7084" lon="3.37877">
        <ele>520.2</ele>
        <time>2025-09-14T08:50:03Z</time>
      </trkpt>
      <trkpt lat="45.70842" lon="3.37866">
        <ele>519.8</ele>
        <time>2025-09-14T08:50:04Z</time>
      </trkpt>
      <trkpt lat="45.70845" lon="3.37855">
        <ele>519.4</ele>
        <time>2025-09-14T08:50:05Z</time>
      </trkpt>
      <trkpt lat="45.70846" lon="3.37844">
        <ele>519</ele>
        <time>2025-09-14T08:50:06Z</time>
      </trkpt>
      <trkpt lat="45.70848" lon="3.37833">
        <ele>518.4</ele>
        <time>2025-09-14T08:50:07Z</time>
      </trkpt>
      <trkpt lat="45.70849" lon="3.37823">
        <ele>518.2</ele>
        <time>2025-09-14T08:50:08Z</time>
      </trkpt>
      <trkpt lat="45.70851" lon="3.37811">
        <ele>517.8</ele>
        <time>2025-09-14T08:50:09Z</time>
      </trkpt>
      <trkpt lat="45.70852" lon="3.378">
        <ele>517.4</ele>
        <time>2025-09-14T08:50:10Z</time>
      </trkpt>
      <trkpt lat="45.70855" lon="3.3779">
        <ele>517</ele>
        <time>2025-09-14T08:50:11Z</time>
      </trkpt>
      <trkpt lat="45.70858" lon="3.37781">
        <ele>516.6</ele>
        <time>2025-09-14T08:50:12Z</time>
      </trkpt>
      <trkpt lat="45.70863" lon="3.37773">
        <ele>516.2</ele>
        <time>2025-09-14T08:50:13Z</time>
      </trkpt>
      <trkpt lat="45.70868" lon="3.37768">
        <ele>515.6</ele>
        <time>2025-09-14T08:50:14Z</time>
      </trkpt>
      <trkpt lat="45.70874" lon="3.37765">
        <ele>515.2</ele>
        <time>2025-09-14T08:50:15Z</time>
      </trkpt>
      <trkpt lat="45.70881" lon="3.37762">
        <ele>515</ele>
        <time>2025-09-14T08:50:16Z</time>
      </trkpt>
      <trkpt lat="45.70886" lon="3.37757">
        <ele>514.8</ele>
        <time>2025-09-14T08:50:17Z</time>
      </trkpt>
      <trkpt lat="45.70891" lon="3.37751">
        <ele>514.4</ele>
        <time>2025-09-14T08:50:18Z</time>
      </trkpt>
      <trkpt lat="45.70894" lon="3.37744">
        <ele>514.2</ele>
        <time>2025-09-14T08:50:19Z</time>
      </trkpt>
      <trkpt lat="45.70896" lon="3.37736">
        <ele>514</ele>
        <time>2025-09-14T08:50:20Z</time>
      </trkpt>
      <trkpt lat="45.70896" lon="3.37727">
        <ele>513.8</ele>
        <time>2025-09-14T08:50:21Z</time>
      </trkpt>
      <trkpt lat="45.70897" lon="3.37717">
        <ele>513.4</ele>
        <time>2025-09-14T08:50:22Z</time>
      </trkpt>
      <trkpt lat="45.70897" lon="3.37707">
        <ele>513</ele>
        <time>2025-09-14T08:50:23Z</time>
      </trkpt>
      <trkpt lat="45.70898" lon="3.37698">
        <ele>512.8</ele>
        <time>2025-09-14T08:50:24Z</time>
      </trkpt>
      <trkpt lat="45.70899" lon="3.37688">
        <ele>512.4</ele>
        <time>2025-09-14T08:50:25Z</time>
      </trkpt>
      <trkpt lat="45.70899" lon="3.37678">
        <ele>512</ele>
        <time>2025-09-14T08:50:26Z</time>
      </trkpt>
      <trkpt lat="45.709" lon="3.37667">
        <ele>511.8</ele>
        <time>2025-09-14T08:50:27Z</time>
      </trkpt>
      <trkpt lat="45.70901" lon="3.37657">
        <ele>511.6</ele>
        <time>2025-09-14T08:50:28Z</time>
      </trkpt>
      <trkpt lat="45.70902" lon="3.37647">
        <ele>511.2</ele>
        <time>2025-09-14T08:50:29Z</time>
      </trkpt>
      <trkpt lat="45.70903" lon="3.37637">
        <ele>511</ele>
        <time>2025-09-14T08:50:30Z</time>
      </trkpt>
      <trkpt lat="45.70904" lon="3.37627">
        <ele>510.8</ele>
        <time>2025-09-14T08:50:31Z</time>
      </trkpt>
      <trkpt lat="45.70904" lon="3.37617">
        <ele>510.4</ele>
        <time>2025-09-14T08:50:32Z</time>
      </trkpt>
      <trkpt lat="45.70905" lon="3.37607">
        <ele>510.2</ele>
        <time>2025-09-14T08:50:33Z</time>
      </trkpt>
      <trkpt lat="45.70906" lon="3.37597">
        <ele>510</ele>
        <time>2025-09-14T08:50:34Z</time>
      </trkpt>
      <trkpt lat="45.70906" lon="3.37588">
        <ele>509.6</ele>
        <time>2025-09-14T08:50:35Z</time>
      </trkpt>
      <trkpt lat="45.70906" lon="3.37577">
        <ele>509.4</ele>
        <time>2025-09-14T08:50:36Z</time>
      </trkpt>
      <trkpt lat="45.70906" lon="3.37568">
        <ele>509</ele>
        <time>2025-09-14T08:50:37Z</time>
      </trkpt>
      <trkpt lat="45.70904" lon="3.37558">
        <ele>508.8</ele>
        <time>2025-09-14T08:50:38Z</time>
      </trkpt>
      <trkpt lat="45.70903" lon="3.37548">
        <ele>508.4</ele>
        <time>2025-09-14T08:50:39Z</time>
      </trkpt>
      <trkpt lat="45.70903" lon="3.37537">
        <ele>508</ele>
        <time>2025-09-14T08:50:40Z</time>
      </trkpt>
      <trkpt lat="45.70905" lon="3.37526">
        <ele>507.6</ele>
        <time>2025-09-14T08:50:41Z</time>
      </trkpt>
      <trkpt lat="45.70908" lon="3.37515">
        <ele>507</ele>
        <time>2025-09-14T08:50:42Z</time>
      </trkpt>
      <trkpt lat="45.70911" lon="3.37504">
        <ele>506.4</ele>
        <time>2025-09-14T08:50:43Z</time>
      </trkpt>
      <trkpt lat="45.70915" lon="3.37494">
        <ele>506</ele>
        <time>2025-09-14T08:50:44Z</time>
      </trkpt>
      <trkpt lat="45.70918" lon="3.37485">
        <ele>505.4</ele>
        <time>2025-09-14T08:50:45Z</time>
      </trkpt>
      <trkpt lat="45.70923" lon="3.37478">
        <ele>504.8</ele>
        <time>2025-09-14T08:50:46Z</time>
      </trkpt>
      <trkpt lat="45.70928" lon="3.37473">
        <ele>504.4</ele>
        <time>2025-09-14T08:50:47Z</time>
      </trkpt>
      <trkpt lat="45.70934" lon="3.37468">
        <ele>503.8</ele>
        <time>2025-09-14T08:50:48Z</time>
      </trkpt>
      <trkpt lat="45.7094" lon="3.37463">
        <ele>503.4</ele>
        <time>2025-09-14T08:50:49Z</time>
      </trkpt>
      <trkpt lat="45.70946" lon="3.37458">
        <ele>503.2</ele>
        <time>2025-09-14T08:50:50Z</time>
      </trkpt>
      <trkpt lat="45.70953" lon="3.37453">
        <ele>502.8</ele>
        <time>2025-09-14T08:50:51Z</time>
      </trkpt>
      <trkpt lat="45.70958" lon="3.37447">
        <ele>502.4</ele>
        <time>2025-09-14T08:50:52Z</time>
      </trkpt>
      <trkpt lat="45.70963" lon="3.37441">
        <ele>501.8</ele>
        <time>2025-09-14T08:50:53Z</time>
      </trkpt>
      <trkpt lat="45.70969" lon="3.37436">
        <ele>501.2</ele>
        <time>2025-09-14T08:50:54Z</time>
      </trkpt>
      <trkpt lat="45.70974" lon="3.3743">
        <ele>500.6</ele>
        <time>2025-09-14T08:50:55Z</time>
      </trkpt>
      <trkpt lat="45.7098" lon="3.37425">
        <ele>500</ele>
        <time>2025-09-14T08:50:56Z</time>
      </trkpt>
      <trkpt lat="45.70986" lon="3.3742">
        <ele>499.6</ele>
        <time>2025-09-14T08:50:57Z</time>
      </trkpt>
      <trkpt lat="45.70993" lon="3.37416">
        <ele>499.4</ele>
        <time>2025-09-14T08:50:58Z</time>
      </trkpt>
      <trkpt lat="45.70999" lon="3.37411">
        <ele>499</ele>
        <time>2025-09-14T08:50:59Z</time>
      </trkpt>
      <trkpt lat="45.71005" lon="3.37407">
        <ele>498.6</ele>
        <time>2025-09-14T08:51:00Z</time>
      </trkpt>
      <trkpt lat="45.7101" lon="3.37402">
        <ele>498</ele>
        <time>2025-09-14T08:51:01Z</time>
      </trkpt>
      <trkpt lat="45.71014" lon="3.37398">
        <ele>497.4</ele>
        <time>2025-09-14T08:51:02Z</time>
      </trkpt>
      <trkpt lat="45.71016" lon="3.37393">
        <ele>496.8</ele>
        <time>2025-09-14T08:51:03Z</time>
      </trkpt>
      <trkpt lat="45.71019" lon="3.37389">
        <ele>496.4</ele>
        <time>2025-09-14T08:51:04Z</time>
      </trkpt>
      <trkpt lat="45.71022" lon="3.37385">
        <ele>496.2</ele>
        <time>2025-09-14T08:51:05Z</time>
      </trkpt>
      <trkpt lat="45.71027" lon="3.37381">
        <ele>495.8</ele>
        <time>2025-09-14T08:51:06Z</time>
      </trkpt>
      <trkpt lat="45.71031" lon="3.37377">
        <ele>495.4</ele>
        <time>2025-09-14T08:51:07Z</time>
      </trkpt>
      <trkpt lat="45.71036" lon="3.37375">
        <ele>495.2</ele>
        <time>2025-09-14T08:51:08Z</time>
      </trkpt>
      <trkpt lat="45.7104" lon="3.37373">
        <ele>494.8</ele>
        <time>2025-09-14T08:51:09Z</time>
      </trkpt>
      <trkpt lat="45.71046" lon="3.37372">
        <ele>494.4</ele>
        <time>2025-09-14T08:51:10Z</time>
      </trkpt>
      <trkpt lat="45.71053" lon="3.37371">
        <ele>494.2</ele>
        <time>2025-09-14T08:51:11Z</time>
      </trkpt>
      <trkpt lat="45.71059" lon="3.37371">
        <ele>493.8</ele>
        <time>2025-09-14T08:51:12Z</time>
      </trkpt>
      <trkpt lat="45.71066" lon="3.37372">
        <ele>493.4</ele>
        <time>2025-09-14T08:51:13Z</time>
      </trkpt>
      <trkpt lat="45.71073" lon="3.37374">
        <ele>493.2</ele>
        <time>2025-09-14T08:51:14Z</time>
      </trkpt>
      <trkpt lat="45.7108" lon="3.37377">
        <ele>493</ele>
        <time>2025-09-14T08:51:15Z</time>
      </trkpt>
      <trkpt lat="45.71086" lon="3.37379">
        <ele>492.6</ele>
        <time>2025-09-14T08:51:16Z</time>
      </trkpt>
      <trkpt lat="45.71092" lon="3.37381">
        <ele>492.4</ele>
        <time>2025-09-14T08:51:17Z</time>
      </trkpt>
      <trkpt lat="45.71099" lon="3.37382">
        <ele>492</ele>
        <time>2025-09-14T08:51:18Z</time>
      </trkpt>
      <trkpt lat="45.71105" lon="3.37382">
        <ele>491.8</ele>
        <time>2025-09-14T08:51:19Z</time>
      </trkpt>
      <trkpt lat="45.71111" lon="3.37382">
        <ele>491.6</ele>
        <time>2025-09-14T08:51:20Z</time>
      </trkpt>
      <trkpt lat="45.71117" lon="3.37382">
        <ele>491.2</ele>
        <time>2025-09-14T08:51:21Z</time>
      </trkpt>
      <trkpt lat="45.71124" lon="3.37381">
        <ele>490.8</ele>
        <time>2025-09-14T08:51:22Z</time>
      </trkpt>
      <trkpt lat="45.71129" lon="3.37381">
        <ele>490.4</ele>
        <time>2025-09-14T08:51:23Z</time>
      </trkpt>
      <trkpt lat="45.71134" lon="3.3738">
        <ele>490</ele>
        <time>2025-09-14T08:51:24Z</time>
      </trkpt>
      <trkpt lat="45.71139" lon="3.37381">
        <ele>489.8</ele>
        <time>2025-09-14T08:51:25Z</time>
      </trkpt>
      <trkpt lat="45.71143" lon="3.37384">
        <ele>489.4</ele>
        <time>2025-09-14T08:51:26Z</time>
      </trkpt>
      <trkpt lat="45.71146" lon="3.37389">
        <ele>488.8</ele>
        <time>2025-09-14T08:51:27Z</time>
      </trkpt>
      <trkpt lat="45.71149" lon="3.37395">
        <ele>488.4</ele>
        <time>2025-09-14T08:51:28Z</time>
      </trkpt>
      <trkpt lat="45.7115" lon="3.37402">
        <ele>487.8</ele>
        <time>2025-09-14T08:51:29Z</time>
      </trkpt>
      <trkpt lat="45.7115" lon="3.3741">
        <ele>487.4</ele>
        <time>2025-09-14T08:51:30Z</time>
      </trkpt>
      <trkpt lat="45.71151" lon="3.37418">
        <ele>487</ele>
        <time>2025-09-14T08:51:31Z</time>
      </trkpt>
      <trkpt lat="45.71151" lon="3.37427">
        <ele>486.6</ele>
        <time>2025-09-14T08:51:32Z</time>
      </trkpt>
      <trkpt lat="45.71152" lon="3.37435">
        <ele>486.4</ele>
        <time>2025-09-14T08:51:33Z</time>
      </trkpt>
      <trkpt lat="45.71153" lon="3.37443">
        <ele>486.4</ele>
        <time>2025-09-14T08:51:34Z</time>
      </trkpt>
      <trkpt lat="45.71154" lon="3.37452">
        <ele>486.2</ele>
        <time>2025-09-14T08:51:35Z</time>
      </trkpt>
      <trkpt lat="45.71155" lon="3.3746">
        <ele>486.2</ele>
        <time>2025-09-14T08:51:36Z</time>
      </trkpt>
      <trkpt lat="45.71156" lon="3.37468">
        <ele>486</ele>
        <time>2025-09-14T08:51:37Z</time>
      </trkpt>
      <trkpt lat="45.71156" lon="3.37476">
        <ele>486</ele>
        <time>2025-09-14T08:51:38Z</time>
      </trkpt>
      <trkpt lat="45.71158" lon="3.37482">
        <ele>486</ele>
        <time>2025-09-14T08:51:39Z</time>
      </trkpt>
      <trkpt lat="45.71158" lon="3.37489">
        <ele>486.2</ele>
        <time>2025-09-14T08:51:40Z</time>
      </trkpt>
      <trkpt lat="45.71159" lon="3.37495">
        <ele>486.2</ele>
        <time>2025-09-14T08:51:41Z</time>
      </trkpt>
      <trkpt lat="45.71161" lon="3.37502">
        <ele>486.2</ele>
        <time>2025-09-14T08:51:42Z</time>
      </trkpt>
      <trkpt lat="45.71164" lon="3.37506">
        <ele>486.2</ele>
        <time>2025-09-14T08:51:43Z</time>
      </trkpt>
      <trkpt lat="45.71168" lon="3.37508">
        <ele>486.4</ele>
        <time>2025-09-14T08:51:44Z</time>
      </trkpt>
      <trkpt lat="45.71171" lon="3.37506">
        <ele>486.8</ele>
        <time>2025-09-14T08:51:45Z</time>
      </trkpt>
      <trkpt lat="45.71174" lon="3.37501">
        <ele>486.8</ele>
        <time>2025-09-14T08:51:46Z</time>
      </trkpt>
      <trkpt lat="45.71176" lon="3.37494">
        <ele>486.8</ele>
        <time>2025-09-14T08:51:47Z</time>
      </trkpt>
      <trkpt lat="45.71178" lon="3.37487">
        <ele>486.6</ele>
        <time>2025-09-14T08:51:48Z</time>
      </trkpt>
      <trkpt lat="45.7118" lon="3.3748">
        <ele>486</ele>
        <time>2025-09-14T08:51:49Z</time>
      </trkpt>
      <trkpt lat="45.71182" lon="3.37472">
        <ele>485.6</ele>
        <time>2025-09-14T08:51:50Z</time>
      </trkpt>
      <trkpt lat="45.71185" lon="3.37463">
        <ele>485.2</ele>
        <time>2025-09-14T08:51:51Z</time>
      </trkpt>
      <trkpt lat="45.71188" lon="3.37453">
        <ele>484.8</ele>
        <time>2025-09-14T08:51:52Z</time>
      </trkpt>
      <trkpt lat="45.71191" lon="3.37444">
        <ele>484.6</ele>
        <time>2025-09-14T08:51:53Z</time>
      </trkpt>
      <trkpt lat="45.71194" lon="3.37434">
        <ele>484.2</ele>
        <time>2025-09-14T08:51:54Z</time>
      </trkpt>
      <trkpt lat="45.71196" lon="3.37424">
        <ele>483.8</ele>
        <time>2025-09-14T08:51:55Z</time>
      </trkpt>
      <trkpt lat="45.71199" lon="3.37414">
        <ele>483.4</ele>
        <time>2025-09-14T08:51:56Z</time>
      </trkpt>
      <trkpt lat="45.712" lon="3.37403">
        <ele>483</ele>
        <time>2025-09-14T08:51:57Z</time>
      </trkpt>
      <trkpt lat="45.71201" lon="3.37394">
        <ele>482.6</ele>
        <time>2025-09-14T08:51:58Z</time>
      </trkpt>
      <trkpt lat="45.71202" lon="3.37384">
        <ele>482.2</ele>
        <time>2025-09-14T08:51:59Z</time>
      </trkpt>
      <trkpt lat="45.71205" lon="3.37375">
        <ele>481.6</ele>
        <time>2025-09-14T08:52:00Z</time>
      </trkpt>
      <trkpt lat="45.71208" lon="3.37365">
        <ele>481.2</ele>
        <time>2025-09-14T08:52:01Z</time>
      </trkpt>
      <trkpt lat="45.71212" lon="3.37357">
        <ele>480.6</ele>
        <time>2025-09-14T08:52:02Z</time>
      </trkpt>
      <trkpt lat="45.71217" lon="3.3735">
        <ele>479.8</ele>
        <time>2025-09-14T08:52:03Z</time>
      </trkpt>
      <trkpt lat="45.71222" lon="3.37342">
        <ele>479.2</ele>
        <time>2025-09-14T08:52:04Z</time>
      </trkpt>
      <trkpt lat="45.71228" lon="3.37334">
        <ele>478.4</ele>
        <time>2025-09-14T08:52:05Z</time>
      </trkpt>
      <trkpt lat="45.71234" lon="3.37325">
        <ele>477.6</ele>
        <time>2025-09-14T08:52:06Z</time>
      </trkpt>
      <trkpt lat="45.7124" lon="3.37316">
        <ele>477</ele>
        <time>2025-09-14T08:52:07Z</time>
      </trkpt>
      <trkpt lat="45.71246" lon="3.37308">
        <ele>476.4</ele>
        <time>2025-09-14T08:52:08Z</time>
      </trkpt>
      <trkpt lat="45.71252" lon="3.373">
        <ele>475.6</ele>
        <time>2025-09-14T08:52:09Z</time>
      </trkpt>
      <trkpt lat="45.71257" lon="3.37292">
        <ele>474.8</ele>
        <time>2025-09-14T08:52:10Z</time>
      </trkpt>
      <trkpt lat="45.71262" lon="3.37285">
        <ele>474.2</ele>
        <time>2025-09-14T08:52:11Z</time>
      </trkpt>
      <trkpt lat="45.71267" lon="3.37277">
        <ele>473.4</ele>
        <time>2025-09-14T08:52:12Z</time>
      </trkpt>
      <trkpt lat="45.71272" lon="3.37271">
        <ele>472.8</ele>
        <time>2025-09-14T08:52:13Z</time>
      </trkpt>
      <trkpt lat="45.71277" lon="3.37264">
        <ele>472</ele>
        <time>2025-09-14T08:52:14Z</time>
      </trkpt>
      <trkpt lat="45.71282" lon="3.37258">
        <ele>471.4</ele>
        <time>2025-09-14T08:52:15Z</time>
      </trkpt>
      <trkpt lat="45.71286" lon="3.37252">
        <ele>470.6</ele>
        <time>2025-09-14T08:52:16Z</time>
      </trkpt>
      <trkpt lat="45.7129" lon="3.37246">
        <ele>470</ele>
        <time>2025-09-14T08:52:17Z</time>
      </trkpt>
      <trkpt lat="45.71295" lon="3.37241">
        <ele>469.4</ele>
        <time>2025-09-14T08:52:18Z</time>
      </trkpt>
      <trkpt lat="45.71298" lon="3.37235">
        <ele>468.8</ele>
        <time>2025-09-14T08:52:19Z</time>
      </trkpt>
      <trkpt lat="45.71302" lon="3.37229">
        <ele>468.2</ele>
        <time>2025-09-14T08:52:20Z</time>
      </trkpt>
      <trkpt lat="45.71307" lon="3.37223">
        <ele>467.6</ele>
        <time>2025-09-14T08:52:21Z</time>
      </trkpt>
      <trkpt lat="45.71311" lon="3.37217">
        <ele>467</ele>
        <time>2025-09-14T08:52:22Z</time>
      </trkpt>
      <trkpt lat="45.71315" lon="3.37211">
        <ele>466.4</ele>
        <time>2025-09-14T08:52:23Z</time>
      </trkpt>
      <trkpt lat="45.7132" lon="3.37205">
        <ele>465.8</ele>
        <time>2025-09-14T08:52:24Z</time>
      </trkpt>
      <trkpt lat="45.71324" lon="3.37198">
        <ele>465</ele>
        <time>2025-09-14T08:52:25Z</time>
      </trkpt>
      <trkpt lat="45.71329" lon="3.37193">
        <ele>464.4</ele>
        <time>2025-09-14T08:52:26Z</time>
      </trkpt>
      <trkpt lat="45.71334" lon="3.37187">
        <ele>463.8</ele>
        <time>2025-09-14T08:52:27Z</time>
      </trkpt>
      <trkpt lat="45.71338" lon="3.3718">
        <ele>463.2</ele>
        <time>2025-09-14T08:52:28Z</time>
      </trkpt>
      <trkpt lat="45.71342" lon="3.37174">
        <ele>462.6</ele>
        <time>2025-09-14T08:52:29Z</time>
      </trkpt>
      <trkpt lat="45.71347" lon="3.37167">
        <ele>461.8</ele>
        <time>2025-09-14T08:52:30Z</time>
      </trkpt>
      <trkpt lat="45.71352" lon="3.37159">
        <ele>461</ele>
        <time>2025-09-14T08:52:31Z</time>
      </trkpt>
      <trkpt lat="45.71357" lon="3.3715">
        <ele>460</ele>
        <time>2025-09-14T08:52:32Z</time>
      </trkpt>
      <trkpt lat="45.71362" lon="3.37141">
        <ele>459</ele>
        <time>2025-09-14T08:52:33Z</time>
      </trkpt>
      <trkpt lat="45.71367" lon="3.37131">
        <ele>458</ele>
        <time>2025-09-14T08:52:34Z</time>
      </trkpt>
      <trkpt lat="45.71372" lon="3.37121">
        <ele>457</ele>
        <time>2025-09-14T08:52:35Z</time>
      </trkpt>
      <trkpt lat="45.71377" lon="3.37112">
        <ele>456</ele>
        <time>2025-09-14T08:52:36Z</time>
      </trkpt>
      <trkpt lat="45.71382" lon="3.37103">
        <ele>455</ele>
        <time>2025-09-14T08:52:37Z</time>
      </trkpt>
      <trkpt lat="45.71387" lon="3.37095">
        <ele>454.2</ele>
        <time>2025-09-14T08:52:38Z</time>
      </trkpt>
      <trkpt lat="45.71392" lon="3.37087">
        <ele>453.4</ele>
        <time>2025-09-14T08:52:39Z</time>
      </trkpt>
      <trkpt lat="45.71396" lon="3.37079">
        <ele>452.6</ele>
        <time>2025-09-14T08:52:40Z</time>
      </trkpt>
      <trkpt lat="45.714" lon="3.37072">
        <ele>451.6</ele>
        <time>2025-09-14T08:52:41Z</time>
      </trkpt>
      <trkpt lat="45.71404" lon="3.37063">
        <ele>450.8</ele>
        <time>2025-09-14T08:52:42Z</time>
      </trkpt>
      <trkpt lat="45.71408" lon="3.37054">
        <ele>450</ele>
        <time>2025-09-14T08:52:43Z</time>
      </trkpt>
      <trkpt lat="45.71412" lon="3.37044">
        <ele>449</ele>
        <time>2025-09-14T08:52:44Z</time>
      </trkpt>
      <trkpt lat="45.71416" lon="3.37033">
        <ele>448</ele>
        <time>2025-09-14T08:52:45Z</time>
      </trkpt>
      <trkpt lat="45.71421" lon="3.37022">
        <ele>447</ele>
        <time>2025-09-14T08:52:46Z</time>
      </trkpt>
      <trkpt lat="45.71426" lon="3.37009">
        <ele>445.8</ele>
        <time>2025-09-14T08:52:47Z</time>
      </trkpt>
      <trkpt lat="45.71431" lon="3.36997">
        <ele>445</ele>
        <time>2025-09-14T08:52:48Z</time>
      </trkpt>
      <trkpt lat="45.71437" lon="3.36984">
        <ele>444.2</ele>
        <time>2025-09-14T08:52:49Z</time>
      </trkpt>
      <trkpt lat="45.71443" lon="3.36972">
        <ele>443.2</ele>
        <time>2025-09-14T08:52:50Z</time>
      </trkpt>
      <trkpt lat="45.71448" lon="3.36959">
        <ele>441.8</ele>
        <time>2025-09-14T08:52:51Z</time>
      </trkpt>
      <trkpt lat="45.71454" lon="3.36946">
        <ele>440.6</ele>
        <time>2025-09-14T08:52:52Z</time>
      </trkpt>
      <trkpt lat="45.71459" lon="3.36932">
        <ele>439.4</ele>
        <time>2025-09-14T08:52:53Z</time>
      </trkpt>
      <trkpt lat="45.71464" lon="3.36919">
        <ele>438.2</ele>
        <time>2025-09-14T08:52:54Z</time>
      </trkpt>
      <trkpt lat="45.71469" lon="3.36905">
        <ele>437</ele>
        <time>2025-09-14T08:52:55Z</time>
      </trkpt>
      <trkpt lat="45.71475" lon="3.36891">
        <ele>436.2</ele>
        <time>2025-09-14T08:52:56Z</time>
      </trkpt>
      <trkpt lat="45.7148" lon="3.36877">
        <ele>435.4</ele>
        <time>2025-09-14T08:52:57Z</time>
      </trkpt>
      <trkpt lat="45.71485" lon="3.36864">
        <ele>434.6</ele>
        <time>2025-09-14T08:52:58Z</time>
      </trkpt>
      <trkpt lat="45.71489" lon="3.36851">
        <ele>433.8</ele>
        <time>2025-09-14T08:52:59Z</time>
      </trkpt>
      <trkpt lat="45.71493" lon="3.3684">
        <ele>433</ele>
        <time>2025-09-14T08:53:00Z</time>
      </trkpt>
      <trkpt lat="45.71497" lon="3.36828">
        <ele>432.2</ele>
        <time>2025-09-14T08:53:01Z</time>
      </trkpt>
      <trkpt lat="45.71501" lon="3.36818">
        <ele>431.4</ele>
        <time>2025-09-14T08:53:02Z</time>
      </trkpt>
      <trkpt lat="45.71504" lon="3.36807">
        <ele>430.6</ele>
        <time>2025-09-14T08:53:03Z</time>
      </trkpt>
      <trkpt lat="45.71508" lon="3.36796">
        <ele>429.8</ele>
        <time>2025-09-14T08:53:04Z</time>
      </trkpt>
      <trkpt lat="45.71512" lon="3.36785">
        <ele>429</ele>
        <time>2025-09-14T08:53:05Z</time>
      </trkpt>
      <trkpt lat="45.71516" lon="3.36775">
        <ele>428.2</ele>
        <time>2025-09-14T08:53:06Z</time>
      </trkpt>
      <trkpt lat="45.7152" lon="3.36765">
        <ele>427.4</ele>
        <time>2025-09-14T08:53:07Z</time>
      </trkpt>
      <trkpt lat="45.71523" lon="3.36756">
        <ele>426.8</ele>
        <time>2025-09-14T08:53:08Z</time>
      </trkpt>
      <trkpt lat="45.71526" lon="3.36746">
        <ele>426.2</ele>
        <time>2025-09-14T08:53:09Z</time>
      </trkpt>
      <trkpt lat="45.7153" lon="3.36737">
        <ele>425.6</ele>
        <time>2025-09-14T08:53:10Z</time>
      </trkpt>
      <trkpt lat="45.71533" lon="3.36728">
        <ele>424.8</ele>
        <time>2025-09-14T08:53:11Z</time>
      </trkpt>
      <trkpt lat="45.71537" lon="3.36718">
        <ele>424.2</ele>
        <time>2025-09-14T08:53:12Z</time>
      </trkpt>
      <trkpt lat="45.7154" lon="3.36708">
        <ele>423.6</ele>
        <time>2025-09-14T08:53:13Z</time>
      </trkpt>
      <trkpt lat="45.71543" lon="3.36698">
        <ele>422.8</ele>
        <time>2025-09-14T08:53:14Z</time>
      </trkpt>
      <trkpt lat="45.71547" lon="3.36688">
        <ele>422.2</ele>
        <time>2025-09-14T08:53:15Z</time>
      </trkpt>
      <trkpt lat="45.7155" lon="3.36678">
        <ele>421.6</ele>
        <time>2025-09-14T08:53:16Z</time>
      </trkpt>
      <trkpt lat="45.71553" lon="3.36669">
        <ele>421</ele>
        <time>2025-09-14T08:53:17Z</time>
      </trkpt>
      <trkpt lat="45.71556" lon="3.3666">
        <ele>420.4</ele>
        <time>2025-09-14T08:53:18Z</time>
      </trkpt>
      <trkpt lat="45.71559" lon="3.36653">
        <ele>420</ele>
        <time>2025-09-14T08:53:19Z</time>
      </trkpt>
      <trkpt lat="45.71561" lon="3.36646">
        <ele>419.4</ele>
        <time>2025-09-14T08:53:20Z</time>
      </trkpt>
      <trkpt lat="45.71564" lon="3.36639">
        <ele>419</ele>
        <time>2025-09-14T08:53:21Z</time>
      </trkpt>
      <trkpt lat="45.71566" lon="3.36633">
        <ele>418.8</ele>
        <time>2025-09-14T08:53:22Z</time>
      </trkpt>
      <trkpt lat="45.71567" lon="3.36627">
        <ele>418.4</ele>
        <time>2025-09-14T08:53:23Z</time>
      </trkpt>
      <trkpt lat="45.71569" lon="3.36622">
        <ele>418</ele>
        <time>2025-09-14T08:53:24Z</time>
      </trkpt>
      <trkpt lat="45.71571" lon="3.36617">
        <ele>417.6</ele>
        <time>2025-09-14T08:53:25Z</time>
      </trkpt>
      <trkpt lat="45.71573" lon="3.36612">
        <ele>417.2</ele>
        <time>2025-09-14T08:53:26Z</time>
      </trkpt>
      <trkpt lat="45.71574" lon="3.36607">
        <ele>417</ele>
        <time>2025-09-14T08:53:27Z</time>
      </trkpt>
      <trkpt lat="45.71575" lon="3.36602">
        <ele>416.6</ele>
        <time>2025-09-14T08:53:28Z</time>
      </trkpt>
      <trkpt lat="45.71577" lon="3.36597">
        <ele>416.2</ele>
        <time>2025-09-14T08:53:29Z</time>
      </trkpt>
      <trkpt lat="45.71579" lon="3.36592">
        <ele>415.8</ele>
        <time>2025-09-14T08:53:30Z</time>
      </trkpt>
      <trkpt lat="45.71581" lon="3.36587">
        <ele>415.4</ele>
        <time>2025-09-14T08:53:31Z</time>
      </trkpt>
      <trkpt lat="45.71582" lon="3.36582">
        <ele>415.2</ele>
        <time>2025-09-14T08:53:32Z</time>
      </trkpt>
      <trkpt lat="45.71585" lon="3.36576">
        <ele>414.8</ele>
        <time>2025-09-14T08:53:33Z</time>
      </trkpt>
      <trkpt lat="45.71587" lon="3.36571">
        <ele>414.4</ele>
        <time>2025-09-14T08:53:34Z</time>
      </trkpt>
      <trkpt lat="45.71588" lon="3.36565">
        <ele>414</ele>
        <time>2025-09-14T08:53:35Z</time>
      </trkpt>
      <trkpt lat="45.7159" lon="3.3656">
        <ele>413.6</ele>
        <time>2025-09-14T08:53:36Z</time>
      </trkpt>
      <trkpt lat="45.71593" lon="3.36554">
        <ele>413</ele>
        <time>2025-09-14T08:53:37Z</time>
      </trkpt>
      <trkpt lat="45.71595" lon="3.36548">
        <ele>412.4</ele>
        <time>2025-09-14T08:53:38Z</time>
      </trkpt>
      <trkpt lat="45.71598" lon="3.36541">
        <ele>411.8</ele>
        <time>2025-09-14T08:53:39Z</time>
      </trkpt>
      <trkpt lat="45.716" lon="3.36532">
        <ele>410.8</ele>
        <time>2025-09-14T08:53:40Z</time>
      </trkpt>
      <trkpt lat="45.71602" lon="3.36523">
        <ele>409.8</ele>
        <time>2025-09-14T08:53:41Z</time>
      </trkpt>
      <trkpt lat="45.71604" lon="3.36511">
        <ele>408.6</ele>
        <time>2025-09-14T08:53:42Z</time>
      </trkpt>
      <trkpt lat="45.71606" lon="3.36499">
        <ele>407</ele>
        <time>2025-09-14T08:53:43Z</time>
      </trkpt>
      <trkpt lat="45.71609" lon="3.36485">
        <ele>405.8</ele>
        <time>2025-09-14T08:53:44Z</time>
      </trkpt>
      <trkpt lat="45.71611" lon="3.36472">
        <ele>404.4</ele>
        <time>2025-09-14T08:53:45Z</time>
      </trkpt>
      <trkpt lat="45.71614" lon="3.3646">
        <ele>403.2</ele>
        <time>2025-09-14T08:53:46Z</time>
      </trkpt>
      <trkpt lat="45.71615" lon="3.3645">
        <ele>402</ele>
        <time>2025-09-14T08:53:47Z</time>
      </trkpt>
      <trkpt lat="45.71616" lon="3.36442">
        <ele>400.8</ele>
        <time>2025-09-14T08:53:48Z</time>
      </trkpt>
      <trkpt lat="45.71618" lon="3.36435">
        <ele>400</ele>
        <time>2025-09-14T08:53:49Z</time>
      </trkpt>
      <trkpt lat="45.71618" lon="3.36427">
        <ele>399.2</ele>
        <time>2025-09-14T08:53:50Z</time>
      </trkpt>
      <trkpt lat="45.7162" lon="3.36421">
        <ele>398.4</ele>
        <time>2025-09-14T08:53:51Z</time>
      </trkpt>
      <trkpt lat="45.7162" lon="3.36414">
        <ele>397.6</ele>
        <time>2025-09-14T08:53:52Z</time>
      </trkpt>
      <trkpt lat="45.71621" lon="3.36407">
        <ele>397</ele>
        <time>2025-09-14T08:53:53Z</time>
      </trkpt>
      <trkpt lat="45.71622" lon="3.364">
        <ele>396.2</ele>
        <time>2025-09-14T08:53:54Z</time>
      </trkpt>
      <trkpt lat="45.71623" lon="3.36391">
        <ele>395.4</ele>
        <time>2025-09-14T08:53:55Z</time>
      </trkpt>
      <trkpt lat="45.71624" lon="3.36381">
        <ele>394.4</ele>
        <time>2025-09-14T08:53:56Z</time>
      </trkpt>
      <trkpt lat="45.71625" lon="3.36371">
        <ele>393.6</ele>
        <time>2025-09-14T08:53:57Z</time>
      </trkpt>
      <trkpt lat="45.71626" lon="3.36361">
        <ele>392.8</ele>
        <time>2025-09-14T08:53:58Z</time>
      </trkpt>
      <trkpt lat="45.71626" lon="3.36351">
        <ele>391.8</ele>
        <time>2025-09-14T08:53:59Z</time>
      </trkpt>
      <trkpt lat="45.71626" lon="3.36341">
        <ele>391</ele>
        <time>2025-09-14T08:54:00Z</time>
      </trkpt>
      <trkpt lat="45.71624" lon="3.36333">
        <ele>390.2</ele>
        <time>2025-09-14T08:54:01Z</time>
      </trkpt>
      <trkpt lat="45.71623" lon="3.36324">
        <ele>389.2</ele>
        <time>2025-09-14T08:54:02Z</time>
      </trkpt>
      <trkpt lat="45.71621" lon="3.36317">
        <ele>388.2</ele>
        <time>2025-09-14T08:54:03Z</time>
      </trkpt>
      <trkpt lat="45.7162" lon="3.36312">
        <ele>387.2</ele>
        <time>2025-09-14T08:54:04Z</time>
      </trkpt>
      <trkpt lat="45.71619" lon="3.36308">
        <ele>386.2</ele>
        <time>2025-09-14T08:54:05Z</time>
      </trkpt>
      <trkpt lat="45.71619" lon="3.36304">
        <ele>385.2</ele>
        <time>2025-09-14T08:54:06Z</time>
      </trkpt>
      <trkpt lat="45.7162" lon="3.363">
        <ele>384.6</ele>
        <time>2025-09-14T08:54:07Z</time>
      </trkpt>
      <trkpt lat="45.71623" lon="3.36296">
        <ele>383.6</ele>
        <time>2025-09-14T08:54:08Z</time>
      </trkpt>
      <trkpt lat="45.71625" lon="3.36293">
        <ele>382.8</ele>
        <time>2025-09-14T08:54:09Z</time>
      </trkpt>
      <trkpt lat="45.71629" lon="3.36291">
        <ele>381.8</ele>
        <time>2025-09-14T08:54:10Z</time>
      </trkpt>
      <trkpt lat="45.71632" lon="3.36289">
        <ele>381.2</ele>
        <time>2025-09-14T08:54:11Z</time>
      </trkpt>
      <trkpt lat="45.71636" lon="3.36288">
        <ele>380.6</ele>
        <time>2025-09-14T08:54:12Z</time>
      </trkpt>
      <trkpt lat="45.7164" lon="3.36286">
        <ele>380.2</ele>
        <time>2025-09-14T08:54:13Z</time>
      </trkpt>
      <trkpt lat="45.71644" lon="3.36285">
        <ele>380.4</ele>
        <time>2025-09-14T08:54:14Z</time>
      </trkpt>
      <trkpt lat="45.71647" lon="3.36284">
        <ele>380.8</ele>
        <time>2025-09-14T08:54:15Z</time>
      </trkpt>
      <trkpt lat="45.71651" lon="3.36284">
        <ele>380.8</ele>
        <time>2025-09-14T08:54:16Z</time>
      </trkpt>
      <trkpt lat="45.71654" lon="3.36284">
        <ele>380.4</ele>
        <time>2025-09-14T08:54:17Z</time>
      </trkpt>
      <trkpt lat="45.71658" lon="3.36284">
        <ele>380</ele>
        <time>2025-09-14T08:54:18Z</time>
      </trkpt>
      <trkpt lat="45.71663" lon="3.36283">
        <ele>379.6</ele>
        <time>2025-09-14T08:54:19Z</time>
      </trkpt>
      <trkpt lat="45.71667" lon="3.36281">
        <ele>379.4</ele>
        <time>2025-09-14T08:54:20Z</time>
      </trkpt>
      <trkpt lat="45.71672" lon="3.3628">
        <ele>379.2</ele>
        <time>2025-09-14T08:54:21Z</time>
      </trkpt>
      <trkpt lat="45.71678" lon="3.3628">
        <ele>379</ele>
        <time>2025-09-14T08:54:22Z</time>
      </trkpt>
      <trkpt lat="45.71683" lon="3.3628">
        <ele>378.8</ele>
        <time>2025-09-14T08:54:23Z</time>
      </trkpt>
      <trkpt lat="45.71687" lon="3.36281">
        <ele>378.8</ele>
        <time>2025-09-14T08:54:24Z</time>
      </trkpt>
      <trkpt lat="45.71691" lon="3.36283">
        <ele>378.6</ele>
        <time>2025-09-14T08:54:25Z</time>
      </trkpt>
      <trkpt lat="45.71695" lon="3.36286">
        <ele>378.8</ele>
        <time>2025-09-14T08:54:26Z</time>
      </trkpt>
      <trkpt lat="45.717" lon="3.3629">
        <ele>378.8</ele>
        <time>2025-09-14T08:54:27Z</time>
      </trkpt>
      <trkpt lat="45.71705" lon="3.36294">
        <ele>378.8</ele>
        <time>2025-09-14T08:54:28Z</time>
      </trkpt>
      <trkpt lat="45.71711" lon="3.36294">
        <ele>378.6</ele>
        <time>2025-09-14T08:54:29Z</time>
      </trkpt>
      <trkpt lat="45.71716" lon="3.36293">
        <ele>378.6</ele>
        <time>2025-09-14T08:54:30Z</time>
      </trkpt>
      <trkpt lat="45.71723" lon="3.36292">
        <ele>378.6</ele>
        <time>2025-09-14T08:54:31Z</time>
      </trkpt>
      <trkpt lat="45.7173" lon="3.36291">
        <ele>378.4</ele>
        <time>2025-09-14T08:54:32Z</time>
      </trkpt>
      <trkpt lat="45.71736" lon="3.3629">
        <ele>378.4</ele>
        <time>2025-09-14T08:54:33Z</time>
      </trkpt>
      <trkpt lat="45.71742" lon="3.36289">
        <ele>378.4</ele>
        <time>2025-09-14T08:54:34Z</time>
      </trkpt>
      <trkpt lat="45.71748" lon="3.36287">
        <ele>378.2</ele>
        <time>2025-09-14T08:54:35Z</time>
      </trkpt>
      <trkpt lat="45.71753" lon="3.36286">
        <ele>378.2</ele>
        <time>2025-09-14T08:54:36Z</time>
      </trkpt>
      <trkpt lat="45.71759" lon="3.36285">
        <ele>378.2</ele>
        <time>2025-09-14T08:54:37Z</time>
      </trkpt>
      <trkpt lat="45.71766" lon="3.36285">
        <ele>378</ele>
        <time>2025-09-14T08:54:38Z</time>
      </trkpt>
      <trkpt lat="45.71773" lon="3.36285">
        <ele>378</ele>
        <time>2025-09-14T08:54:39Z</time>
      </trkpt>
      <trkpt lat="45.7178" lon="3.36289">
        <ele>378</ele>
        <time>2025-09-14T08:54:40Z</time>
      </trkpt>
      <trkpt lat="45.71787" lon="3.36292">
        <ele>378.2</ele>
        <time>2025-09-14T08:54:41Z</time>
      </trkpt>
      <trkpt lat="45.71795" lon="3.36293">
        <ele>378.2</ele>
        <time>2025-09-14T08:54:42Z</time>
      </trkpt>
      <trkpt lat="45.718" lon="3.36294">
        <ele>378.2</ele>
        <time>2025-09-14T08:54:43Z</time>
      </trkpt>
      <trkpt lat="45.71806" lon="3.36296">
        <ele>378.2</ele>
        <time>2025-09-14T08:54:44Z</time>
      </trkpt>
      <trkpt lat="45.71811" lon="3.36297">
        <ele>378.4</ele>
        <time>2025-09-14T08:54:45Z</time>
      </trkpt>
      <trkpt lat="45.71817" lon="3.36299">
        <ele>378.4</ele>
        <time>2025-09-14T08:54:46Z</time>
      </trkpt>
      <trkpt lat="45.71823" lon="3.363">
        <ele>378.4</ele>
        <time>2025-09-14T08:54:47Z</time>
      </trkpt>
      <trkpt lat="45.71828" lon="3.36301">
        <ele>378.6</ele>
        <time>2025-09-14T08:54:48Z</time>
      </trkpt>
      <trkpt lat="45.71833" lon="3.36301">
        <ele>378.6</ele>
        <time>2025-09-14T08:54:49Z</time>
      </trkpt>
      <trkpt lat="45.71839" lon="3.36302">
        <ele>378.6</ele>
        <time>2025-09-14T08:54:50Z</time>
      </trkpt>
      <trkpt lat="45.71845" lon="3.36301">
        <ele>378.6</ele>
        <time>2025-09-14T08:54:51Z</time>
      </trkpt>
      <trkpt lat="45.71851" lon="3.36301">
        <ele>378.6</ele>
        <time>2025-09-14T08:54:52Z</time>
      </trkpt>
      <trkpt lat="45.71857" lon="3.363">
        <ele>378.4</ele>
        <time>2025-09-14T08:54:53Z</time>
      </trkpt>
      <trkpt lat="45.71863" lon="3.36299">
        <ele>378.2</ele>
        <time>2025-09-14T08:54:54Z</time>
      </trkpt>
      <trkpt lat="45.71869" lon="3.36297">
        <ele>377.8</ele>
        <time>2025-09-14T08:54:55Z</time>
      </trkpt>
      <trkpt lat="45.71875" lon="3.36295">
        <ele>377.6</ele>
        <time>2025-09-14T08:54:56Z</time>
      </trkpt>
      <trkpt lat="45.71882" lon="3.36291">
        <ele>377.4</ele>
        <time>2025-09-14T08:54:57Z</time>
      </trkpt>
      <trkpt lat="45.71888" lon="3.36287">
        <ele>377.2</ele>
        <time>2025-09-14T08:54:58Z</time>
      </trkpt>
      <trkpt lat="45.71894" lon="3.36282">
        <ele>377</ele>
        <time>2025-09-14T08:54:59Z</time>
      </trkpt>
      <trkpt lat="45.719" lon="3.36278">
        <ele>377</ele>
        <time>2025-09-14T08:55:00Z</time>
      </trkpt>
      <trkpt lat="45.71906" lon="3.36273">
        <ele>376.8</ele>
        <time>2025-09-14T08:55:01Z</time>
      </trkpt>
      <trkpt lat="45.71912" lon="3.36268">
        <ele>376.8</ele>
        <time>2025-09-14T08:55:02Z</time>
      </trkpt>
      <trkpt lat="45.71918" lon="3.36264">
        <ele>376.6</ele>
        <time>2025-09-14T08:55:03Z</time>
      </trkpt>
      <trkpt lat="45.71924" lon="3.36259">
        <ele>376.6</ele>
        <time>2025-09-14T08:55:04Z</time>
      </trkpt>
      <trkpt lat="45.71929" lon="3.36253">
        <ele>376.4</ele>
        <time>2025-09-14T08:55:05Z</time>
      </trkpt>
      <trkpt lat="45.71934" lon="3.36247">
        <ele>376.4</ele>
        <time>2025-09-14T08:55:06Z</time>
      </trkpt>
      <trkpt lat="45.71939" lon="3.36241">
        <ele>376.2</ele>
        <time>2025-09-14T08:55:07Z</time>
      </trkpt>
      <trkpt lat="45.71946" lon="3.36236">
        <ele>376.2</ele>
        <time>2025-09-14T08:55:08Z</time>
      </trkpt>
      <trkpt lat="45.71951" lon="3.36234">
        <ele>376</ele>
        <time>2025-09-14T08:55:09Z</time>
      </trkpt>
      <trkpt lat="45.71957" lon="3.36231">
        <ele>376</ele>
        <time>2025-09-14T08:55:10Z</time>
      </trkpt>
      <trkpt lat="45.71962" lon="3.3623">
        <ele>376</ele>
        <time>2025-09-14T08:55:11Z</time>
      </trkpt>
      <trkpt lat="45.71967" lon="3.3623">
        <ele>375.8</ele>
        <time>2025-09-14T08:55:12Z</time>
      </trkpt>
      <trkpt lat="45.71973" lon="3.36229">
        <ele>375.8</ele>
        <time>2025-09-14T08:55:13Z</time>
      </trkpt>
      <trkpt lat="45.71979" lon="3.36227">
        <ele>375.8</ele>
        <time>2025-09-14T08:55:14Z</time>
      </trkpt>
      <trkpt lat="45.71984" lon="3.36224">
        <ele>375.8</ele>
        <time>2025-09-14T08:55:15Z</time>
      </trkpt>
      <trkpt lat="45.7199" lon="3.36222">
        <ele>375.6</ele>
        <time>2025-09-14T08:55:16Z</time>
      </trkpt>
      <trkpt lat="45.71995" lon="3.36221">
        <ele>375.6</ele>
        <time>2025-09-14T08:55:17Z</time>
      </trkpt>
      <trkpt lat="45.72001" lon="3.36219">
        <ele>375.6</ele>
        <time>2025-09-14T08:55:18Z</time>
      </trkpt>
      <trkpt lat="45.72006" lon="3.36217">
        <ele>375.6</ele>
        <time>2025-09-14T08:55:19Z</time>
      </trkpt>
      <trkpt lat="45.72012" lon="3.36213">
        <ele>375.6</ele>
        <time>2025-09-14T08:55:20Z</time>
      </trkpt>
      <trkpt lat="45.72018" lon="3.3621">
        <ele>375.6</ele>
        <time>2025-09-14T08:55:21Z</time>
      </trkpt>
      <trkpt lat="45.72024" lon="3.36207">
        <ele>375.6</ele>
        <time>2025-09-14T08:55:22Z</time>
      </trkpt>
      <trkpt lat="45.7203" lon="3.36206">
        <ele>375.6</ele>
        <time>2025-09-14T08:55:23Z</time>
      </trkpt>
      <trkpt lat="45.72036" lon="3.36204">
        <ele>375.6</ele>
        <time>2025-09-14T08:55:24Z</time>
      </trkpt>
      <trkpt lat="45.72044" lon="3.36202">
        <ele>375.6</ele>
        <time>2025-09-14T08:55:25Z</time>
      </trkpt>
      <trkpt lat="45.72049" lon="3.36199">
        <ele>375.6</ele>
        <time>2025-09-14T08:55:26Z</time>
      </trkpt>
      <trkpt lat="45.72055" lon="3.36196">
        <ele>375.6</ele>
        <time>2025-09-14T08:55:27Z</time>
      </trkpt>
      <trkpt lat="45.72061" lon="3.36192">
        <ele>375.6</ele>
        <time>2025-09-14T08:55:28Z</time>
      </trkpt>
      <trkpt lat="45.72067" lon="3.36188">
        <ele>375.8</ele>
        <time>2025-09-14T08:55:29Z</time>
      </trkpt>
      <trkpt lat="45.72071" lon="3.36182">
        <ele>375.8</ele>
        <time>2025-09-14T08:55:30Z</time>
      </trkpt>
      <trkpt lat="45.72075" lon="3.36174">
        <ele>375.8</ele>
        <time>2025-09-14T08:55:31Z</time>
      </trkpt>
      <trkpt lat="45.72078" lon="3.36166">
        <ele>375.8</ele>
        <time>2025-09-14T08:55:32Z</time>
      </trkpt>
      <trkpt lat="45.7208" lon="3.36158">
        <ele>375.6</ele>
        <time>2025-09-14T08:55:33Z</time>
      </trkpt>
      <trkpt lat="45.72082" lon="3.3615">
        <ele>375.6</ele>
        <time>2025-09-14T08:55:34Z</time>
      </trkpt>
      <trkpt lat="45.72085" lon="3.36141">
        <ele>375.6</ele>
        <time>2025-09-14T08:55:35Z</time>
      </trkpt>
      <trkpt lat="45.72087" lon="3.36133">
        <ele>375.4</ele>
        <time>2025-09-14T08:55:36Z</time>
      </trkpt>
      <trkpt lat="45.7209" lon="3.36124">
        <ele>375.4</ele>
        <time>2025-09-14T08:55:37Z</time>
      </trkpt>
      <trkpt lat="45.72092" lon="3.36116">
        <ele>375.4</ele>
        <time>2025-09-14T08:55:38Z</time>
      </trkpt>
      <trkpt lat="45.72095" lon="3.36108">
        <ele>375.4</ele>
        <time>2025-09-14T08:55:39Z</time>
      </trkpt>
      <trkpt lat="45.72097" lon="3.36099">
        <ele>375.4</ele>
        <time>2025-09-14T08:55:40Z</time>
      </trkpt>
      <trkpt lat="45.72099" lon="3.36091">
        <ele>375.4</ele>
        <time>2025-09-14T08:55:41Z</time>
      </trkpt>
      <trkpt lat="45.72102" lon="3.36082">
        <ele>375.4</ele>
        <time>2025-09-14T08:55:42Z</time>
      </trkpt>
      <trkpt lat="45.72104" lon="3.36073">
        <ele>375.4</ele>
        <time>2025-09-14T08:55:43Z</time>
      </trkpt>
      <trkpt lat="45.72106" lon="3.36065">
        <ele>375.4</ele>
        <time>2025-09-14T08:55:44Z</time>
      </trkpt>
      <trkpt lat="45.72108" lon="3.36057">
        <ele>375.6</ele>
        <time>2025-09-14T08:55:45Z</time>
      </trkpt>
      <trkpt lat="45.72111" lon="3.36048">
        <ele>375.4</ele>
        <time>2025-09-14T08:55:46Z</time>
      </trkpt>
      <trkpt lat="45.72113" lon="3.3604">
        <ele>375.4</ele>
        <time>2025-09-14T08:55:47Z</time>
      </trkpt>
      <trkpt lat="45.72116" lon="3.36032">
        <ele>375.4</ele>
        <time>2025-09-14T08:55:48Z</time>
      </trkpt>
      <trkpt lat="45.72118" lon="3.36024">
        <ele>375.4</ele>
        <time>2025-09-14T08:55:49Z</time>
      </trkpt>
      <trkpt lat="45.72121" lon="3.36016">
        <ele>375.4</ele>
        <time>2025-09-14T08:55:50Z</time>
      </trkpt>
      <trkpt lat="45.72123" lon="3.36008">
        <ele>375.2</ele>
        <time>2025-09-14T08:55:51Z</time>
      </trkpt>
      <trkpt lat="45.72126" lon="3.36">
        <ele>375.2</ele>
        <time>2025-09-14T08:55:52Z</time>
      </trkpt>
      <trkpt lat="45.72128" lon="3.35991">
        <ele>375.2</ele>
        <time>2025-09-14T08:55:53Z</time>
      </trkpt>
      <trkpt lat="45.72131" lon="3.35983">
        <ele>375.4</ele>
        <time>2025-09-14T08:55:54Z</time>
      </trkpt>
      <trkpt lat="45.72133" lon="3.35975">
        <ele>375.4</ele>
        <time>2025-09-14T08:55:55Z</time>
      </trkpt>
      <trkpt lat="45.72136" lon="3.35968">
        <ele>375.4</ele>
        <time>2025-09-14T08:55:56Z</time>
      </trkpt>
      <trkpt lat="45.72138" lon="3.3596">
        <ele>375.6</ele>
        <time>2025-09-14T08:55:57Z</time>
      </trkpt>
      <trkpt lat="45.7214" lon="3.35953">
        <ele>375.6</ele>
        <time>2025-09-14T08:55:58Z</time>
      </trkpt>
      <trkpt lat="45.72143" lon="3.35945">
        <ele>375.6</ele>
        <time>2025-09-14T08:55:59Z</time>
      </trkpt>
      <trkpt lat="45.72145" lon="3.35937">
        <ele>375.8</ele>
        <time>2025-09-14T08:56:00Z</time>
      </trkpt>
      <trkpt lat="45.72147" lon="3.35929">
        <ele>376</ele>
        <time>2025-09-14T08:56:01Z</time>
      </trkpt>
      <trkpt lat="45.72148" lon="3.35922">
        <ele>376.2</ele>
        <time>2025-09-14T08:56:02Z</time>
      </trkpt>
      <trkpt lat="45.72149" lon="3.35915">
        <ele>376.4</ele>
        <time>2025-09-14T08:56:03Z</time>
      </trkpt>
      <trkpt lat="45.72151" lon="3.35907">
        <ele>376.6</ele>
        <time>2025-09-14T08:56:04Z</time>
      </trkpt>
      <trkpt lat="45.72152" lon="3.359">
        <ele>376.8</ele>
        <time>2025-09-14T08:56:05Z</time>
      </trkpt>
      <trkpt lat="45.72154" lon="3.35893">
        <ele>376.8</ele>
        <time>2025-09-14T08:56:06Z</time>
      </trkpt>
      <trkpt lat="45.72156" lon="3.35885">
        <ele>377</ele>
        <time>2025-09-14T08:56:07Z</time>
      </trkpt>
      <trkpt lat="45.72158" lon="3.35878">
        <ele>377</ele>
        <time>2025-09-14T08:56:08Z</time>
      </trkpt>
      <trkpt lat="45.72161" lon="3.35871">
        <ele>377.2</ele>
        <time>2025-09-14T08:56:09Z</time>
      </trkpt>
      <trkpt lat="45.72163" lon="3.35864">
        <ele>377.2</ele>
        <time>2025-09-14T08:56:10Z</time>
      </trkpt>
      <trkpt lat="45.72165" lon="3.35856">
        <ele>377.4</ele>
        <time>2025-09-14T08:56:11Z</time>
      </trkpt>
      <trkpt lat="45.72167" lon="3.35849">
        <ele>377.4</ele>
        <time>2025-09-14T08:56:12Z</time>
      </trkpt>
      <trkpt lat="45.7217" lon="3.35841">
        <ele>377.2</ele>
        <time>2025-09-14T08:56:13Z</time>
      </trkpt>
      <trkpt lat="45.72172" lon="3.35833">
        <ele>377.2</ele>
        <time>2025-09-14T08:56:14Z</time>
      </trkpt>
      <trkpt lat="45.72174" lon="3.35825">
        <ele>377</ele>
        <time>2025-09-14T08:56:15Z</time>
      </trkpt>
      <trkpt lat="45.72177" lon="3.35817">
        <ele>376.8</ele>
        <time>2025-09-14T08:56:16Z</time>
      </trkpt>
      <trkpt lat="45.72179" lon="3.35809">
        <ele>376.8</ele>
        <time>2025-09-14T08:56:17Z</time>
      </trkpt>
      <trkpt lat="45.72182" lon="3.358">
        <ele>376.6</ele>
        <time>2025-09-14T08:56:18Z</time>
      </trkpt>
      <trkpt lat="45.72184" lon="3.35793">
        <ele>376.4</ele>
        <time>2025-09-14T08:56:19Z</time>
      </trkpt>
      <trkpt lat="45.72186" lon="3.35785">
        <ele>376.4</ele>
        <time>2025-09-14T08:56:20Z</time>
      </trkpt>
      <trkpt lat="45.72189" lon="3.35778">
        <ele>376.2</ele>
        <time>2025-09-14T08:56:21Z</time>
      </trkpt>
      <trkpt lat="45.72191" lon="3.35771">
        <ele>376.2</ele>
        <time>2025-09-14T08:56:22Z</time>
      </trkpt>
      <trkpt lat="45.72193" lon="3.35764">
        <ele>376.2</ele>
        <time>2025-09-14T08:56:23Z</time>
      </trkpt>
      <trkpt lat="45.72195" lon="3.35755">
        <ele>376.4</ele>
        <time>2025-09-14T08:56:24Z</time>
      </trkpt>
      <trkpt lat="45.72196" lon="3.35746">
        <ele>376.4</ele>
        <time>2025-09-14T08:56:25Z</time>
      </trkpt>
      <trkpt lat="45.72196" lon="3.35736">
        <ele>376.4</ele>
        <time>2025-09-14T08:56:26Z</time>
      </trkpt>
      <trkpt lat="45.72195" lon="3.35728">
        <ele>376.4</ele>
        <time>2025-09-14T08:56:27Z</time>
      </trkpt>
      <trkpt lat="45.72195" lon="3.3572">
        <ele>376.4</ele>
        <time>2025-09-14T08:56:28Z</time>
      </trkpt>
      <trkpt lat="45.72195" lon="3.35712">
        <ele>376.4</ele>
        <time>2025-09-14T08:56:29Z</time>
      </trkpt>
      <trkpt lat="45.72194" lon="3.35704">
        <ele>376.6</ele>
        <time>2025-09-14T08:56:30Z</time>
      </trkpt>
      <trkpt lat="45.72193" lon="3.35696">
        <ele>376.6</ele>
        <time>2025-09-14T08:56:31Z</time>
      </trkpt>
      <trkpt lat="45.72191" lon="3.35688">
        <ele>376.8</ele>
        <time>2025-09-14T08:56:32Z</time>
      </trkpt>
      <trkpt lat="45.72189" lon="3.35681">
        <ele>377</ele>
        <time>2025-09-14T08:56:33Z</time>
      </trkpt>
      <trkpt lat="45.72187" lon="3.35674">
        <ele>377.2</ele>
        <time>2025-09-14T08:56:34Z</time>
      </trkpt>
      <trkpt lat="45.72185" lon="3.35668">
        <ele>377.2</ele>
        <time>2025-09-14T08:56:35Z</time>
      </trkpt>
      <trkpt lat="45.72183" lon="3.35663">
        <ele>377.4</ele>
        <time>2025-09-14T08:56:36Z</time>
      </trkpt>
      <trkpt lat="45.72182" lon="3.35658">
        <ele>377.6</ele>
        <time>2025-09-14T08:56:37Z</time>
      </trkpt>
      <trkpt lat="45.7218" lon="3.35654">
        <ele>377.8</ele>
        <time>2025-09-14T08:56:38Z</time>
      </trkpt>
      <trkpt lat="45.72179" lon="3.35649">
        <ele>378</ele>
        <time>2025-09-14T08:56:39Z</time>
      </trkpt>
      <trkpt lat="45.72177" lon="3.35644">
        <ele>378.4</ele>
        <time>2025-09-14T08:56:40Z</time>
      </trkpt>
      <trkpt lat="45.72177" lon="3.3564">
        <ele>378.6</ele>
        <time>2025-09-14T08:56:41Z</time>
      </trkpt>
      <trkpt lat="45.72176" lon="3.35635">
        <ele>378.8</ele>
        <time>2025-09-14T08:56:42Z</time>
      </trkpt>
      <trkpt lat="45.72175" lon="3.35629">
        <ele>379</ele>
        <time>2025-09-14T08:56:43Z</time>
      </trkpt>
      <trkpt lat="45.72172" lon="3.35623">
        <ele>379.4</ele>
        <time>2025-09-14T08:56:44Z</time>
      </trkpt>
      <trkpt lat="45.7217" lon="3.35615">
        <ele>379.6</ele>
        <time>2025-09-14T08:56:45Z</time>
      </trkpt>
      <trkpt lat="45.72168" lon="3.35609">
        <ele>380</ele>
        <time>2025-09-14T08:56:46Z</time>
      </trkpt>
      <trkpt lat="45.72166" lon="3.35602">
        <ele>380.2</ele>
        <time>2025-09-14T08:56:47Z</time>
      </trkpt>
      <trkpt lat="45.72164" lon="3.35596">
        <ele>380.6</ele>
        <time>2025-09-14T08:56:48Z</time>
      </trkpt>
      <trkpt lat="45.72163" lon="3.35588">
        <ele>380.8</ele>
        <time>2025-09-14T08:56:49Z</time>
      </trkpt>
      <trkpt lat="45.72162" lon="3.35581">
        <ele>381.2</ele>
        <time>2025-09-14T08:56:50Z</time>
      </trkpt>
      <trkpt lat="45.7216" lon="3.35574">
        <ele>381.4</ele>
        <time>2025-09-14T08:56:51Z</time>
      </trkpt>
      <trkpt lat="45.72159" lon="3.35567">
        <ele>381.8</ele>
        <time>2025-09-14T08:56:52Z</time>
      </trkpt>
      <trkpt lat="45.72159" lon="3.3556">
        <ele>382</ele>
        <time>2025-09-14T08:56:53Z</time>
      </trkpt>
      <trkpt lat="45.72158" lon="3.35553">
        <ele>382.2</ele>
        <time>2025-09-14T08:56:54Z</time>
      </trkpt>
      <trkpt lat="45.72157" lon="3.35545">
        <ele>382.4</ele>
        <time>2025-09-14T08:56:55Z</time>
      </trkpt>
      <trkpt lat="45.72156" lon="3.35537">
        <ele>382.8</ele>
        <time>2025-09-14T08:56:56Z</time>
      </trkpt>
      <trkpt lat="45.72155" lon="3.35528">
        <ele>383</ele>
        <time>2025-09-14T08:56:57Z</time>
      </trkpt>
      <trkpt lat="45.72154" lon="3.3552">
        <ele>383.2</ele>
        <time>2025-09-14T08:56:58Z</time>
      </trkpt>
      <trkpt lat="45.72153" lon="3.35512">
        <ele>383.2</ele>
        <time>2025-09-14T08:56:59Z</time>
      </trkpt>
      <trkpt lat="45.72153" lon="3.35505">
        <ele>383.6</ele>
        <time>2025-09-14T08:57:00Z</time>
      </trkpt>
      <trkpt lat="45.72152" lon="3.35498">
        <ele>383.8</ele>
        <time>2025-09-14T08:57:01Z</time>
      </trkpt>
      <trkpt lat="45.72151" lon="3.3549">
        <ele>383.8</ele>
        <time>2025-09-14T08:57:02Z</time>
      </trkpt>
      <trkpt lat="45.7215" lon="3.35484">
        <ele>384</ele>
        <time>2025-09-14T08:57:03Z</time>
      </trkpt>
      <trkpt lat="45.7215" lon="3.35477">
        <ele>384.2</ele>
        <time>2025-09-14T08:57:04Z</time>
      </trkpt>
      <trkpt lat="45.72149" lon="3.35471">
        <ele>384.4</ele>
        <time>2025-09-14T08:57:05Z</time>
      </trkpt>
      <trkpt lat="45.72148" lon="3.35464">
        <ele>384.4</ele>
        <time>2025-09-14T08:57:06Z</time>
      </trkpt>
      <trkpt lat="45.72148" lon="3.35457">
        <ele>384.6</ele>
        <time>2025-09-14T08:57:07Z</time>
      </trkpt>
      <trkpt lat="45.72148" lon="3.3545">
        <ele>384.8</ele>
        <time>2025-09-14T08:57:08Z</time>
      </trkpt>
      <trkpt lat="45.72148" lon="3.35443">
        <ele>384.8</ele>
        <time>2025-09-14T08:57:09Z</time>
      </trkpt>
      <trkpt lat="45.72147" lon="3.35436">
        <ele>385</ele>
        <time>2025-09-14T08:57:10Z</time>
      </trkpt>
      <trkpt lat="45.72147" lon="3.3543">
        <ele>385.2</ele>
        <time>2025-09-14T08:57:11Z</time>
      </trkpt>
      <trkpt lat="45.72146" lon="3.35422">
        <ele>385.2</ele>
        <time>2025-09-14T08:57:12Z</time>
      </trkpt>
      <trkpt lat="45.72145" lon="3.35416">
        <ele>385.4</ele>
        <time>2025-09-14T08:57:13Z</time>
      </trkpt>
      <trkpt lat="45.72144" lon="3.3541">
        <ele>385.4</ele>
        <time>2025-09-14T08:57:14Z</time>
      </trkpt>
      <trkpt lat="45.72144" lon="3.35403">
        <ele>385.4</ele>
        <time>2025-09-14T08:57:15Z</time>
      </trkpt>
      <trkpt lat="45.72144" lon="3.35397">
        <ele>385.6</ele>
        <time>2025-09-14T08:57:16Z</time>
      </trkpt>
      <trkpt lat="45.72144" lon="3.3539">
        <ele>385.8</ele>
        <time>2025-09-14T08:57:17Z</time>
      </trkpt>
      <trkpt lat="45.72144" lon="3.35383">
        <ele>386</ele>
        <time>2025-09-14T08:57:18Z</time>
      </trkpt>
      <trkpt lat="45.72144" lon="3.35376">
        <ele>386.2</ele>
        <time>2025-09-14T08:57:19Z</time>
      </trkpt>
      <trkpt lat="45.72144" lon="3.35369">
        <ele>386.4</ele>
        <time>2025-09-14T08:57:20Z</time>
      </trkpt>
      <trkpt lat="45.72144" lon="3.35362">
        <ele>386.6</ele>
        <time>2025-09-14T08:57:21Z</time>
      </trkpt>
      <trkpt lat="45.72145" lon="3.35355">
        <ele>386.8</ele>
        <time>2025-09-14T08:57:22Z</time>
      </trkpt>
      <trkpt lat="45.72145" lon="3.35348">
        <ele>386.8</ele>
        <time>2025-09-14T08:57:23Z</time>
      </trkpt>
      <trkpt lat="45.72145" lon="3.35341">
        <ele>387</ele>
        <time>2025-09-14T08:57:24Z</time>
      </trkpt>
      <trkpt lat="45.72145" lon="3.35334">
        <ele>387</ele>
        <time>2025-09-14T08:57:25Z</time>
      </trkpt>
      <trkpt lat="45.72144" lon="3.35327">
        <ele>387.2</ele>
        <time>2025-09-14T08:57:26Z</time>
      </trkpt>
      <trkpt lat="45.72144" lon="3.35319">
        <ele>387.4</ele>
        <time>2025-09-14T08:57:27Z</time>
      </trkpt>
      <trkpt lat="45.72144" lon="3.35312">
        <ele>387.4</ele>
        <time>2025-09-14T08:57:28Z</time>
      </trkpt>
      <trkpt lat="45.72143" lon="3.35305">
        <ele>387.4</ele>
        <time>2025-09-14T08:57:29Z</time>
      </trkpt>
      <trkpt lat="45.72143" lon="3.35297">
        <ele>387.4</ele>
        <time>2025-09-14T08:57:30Z</time>
      </trkpt>
      <trkpt lat="45.72141" lon="3.3529">
        <ele>387.4</ele>
        <time>2025-09-14T08:57:31Z</time>
      </trkpt>
      <trkpt lat="45.7214" lon="3.35283">
        <ele>387.4</ele>
        <time>2025-09-14T08:57:32Z</time>
      </trkpt>
      <trkpt lat="45.7214" lon="3.35276">
        <ele>387.4</ele>
        <time>2025-09-14T08:57:33Z</time>
      </trkpt>
      <trkpt lat="45.72139" lon="3.35268">
        <ele>387.4</ele>
        <time>2025-09-14T08:57:34Z</time>
      </trkpt>
      <trkpt lat="45.72138" lon="3.35261">
        <ele>387.4</ele>
        <time>2025-09-14T08:57:35Z</time>
      </trkpt>
      <trkpt lat="45.72138" lon="3.35254">
        <ele>387.6</ele>
        <time>2025-09-14T08:57:36Z</time>
      </trkpt>
      <trkpt lat="45.72137" lon="3.35246">
        <ele>387.6</ele>
        <time>2025-09-14T08:57:37Z</time>
      </trkpt>
      <trkpt lat="45.72136" lon="3.35239">
        <ele>387.6</ele>
        <time>2025-09-14T08:57:38Z</time>
      </trkpt>
      <trkpt lat="45.72135" lon="3.35232">
        <ele>387.6</ele>
        <time>2025-09-14T08:57:39Z</time>
      </trkpt>
      <trkpt lat="45.72135" lon="3.35224">
        <ele>387.8</ele>
        <time>2025-09-14T08:57:40Z</time>
      </trkpt>
      <trkpt lat="45.72134" lon="3.35217">
        <ele>388</ele>
        <time>2025-09-14T08:57:41Z</time>
      </trkpt>
      <trkpt lat="45.72134" lon="3.3521">
        <ele>388</ele>
        <time>2025-09-14T08:57:42Z</time>
      </trkpt>
      <trkpt lat="45.72133" lon="3.35203">
        <ele>388</ele>
        <time>2025-09-14T08:57:43Z</time>
      </trkpt>
      <trkpt lat="45.72132" lon="3.35196">
        <ele>388</ele>
        <time>2025-09-14T08:57:44Z</time>
      </trkpt>
      <trkpt lat="45.72131" lon="3.35189">
        <ele>388</ele>
        <time>2025-09-14T08:57:45Z</time>
      </trkpt>
      <trkpt lat="45.72131" lon="3.35182">
        <ele>388</ele>
        <time>2025-09-14T08:57:46Z</time>
      </trkpt>
      <trkpt lat="45.7213" lon="3.35175">
        <ele>388</ele>
        <time>2025-09-14T08:57:47Z</time>
      </trkpt>
      <trkpt lat="45.7213" lon="3.35167">
        <ele>388</ele>
        <time>2025-09-14T08:57:48Z</time>
      </trkpt>
      <trkpt lat="45.72129" lon="3.3516">
        <ele>388</ele>
        <time>2025-09-14T08:57:49Z</time>
      </trkpt>
      <trkpt lat="45.72129" lon="3.35153">
        <ele>388</ele>
        <time>2025-09-14T08:57:50Z</time>
      </trkpt>
      <trkpt lat="45.72128" lon="3.35146">
        <ele>388</ele>
        <time>2025-09-14T08:57:51Z</time>
      </trkpt>
      <trkpt lat="45.72127" lon="3.3514">
        <ele>388.2</ele>
        <time>2025-09-14T08:57:52Z</time>
      </trkpt>
      <trkpt lat="45.72127" lon="3.35133">
        <ele>388.2</ele>
        <time>2025-09-14T08:57:53Z</time>
      </trkpt>
      <trkpt lat="45.72126" lon="3.35126">
        <ele>388.2</ele>
        <time>2025-09-14T08:57:54Z</time>
      </trkpt>
      <trkpt lat="45.72126" lon="3.35118">
        <ele>388.2</ele>
        <time>2025-09-14T08:57:55Z</time>
      </trkpt>
      <trkpt lat="45.72125" lon="3.35111">
        <ele>388.2</ele>
        <time>2025-09-14T08:57:56Z</time>
      </trkpt>
      <trkpt lat="45.72124" lon="3.35104">
        <ele>388.2</ele>
        <time>2025-09-14T08:57:57Z</time>
      </trkpt>
      <trkpt lat="45.72124" lon="3.35097">
        <ele>388.4</ele>
        <time>2025-09-14T08:57:58Z</time>
      </trkpt>
      <trkpt lat="45.72123" lon="3.3509">
        <ele>388.4</ele>
        <time>2025-09-14T08:57:59Z</time>
      </trkpt>
      <trkpt lat="45.72122" lon="3.35084">
        <ele>388.6</ele>
        <time>2025-09-14T08:58:00Z</time>
      </trkpt>
      <trkpt lat="45.72122" lon="3.35077">
        <ele>388.6</ele>
        <time>2025-09-14T08:58:01Z</time>
      </trkpt>
      <trkpt lat="45.72121" lon="3.35071">
        <ele>388.6</ele>
        <time>2025-09-14T08:58:02Z</time>
      </trkpt>
      <trkpt lat="45.7212" lon="3.35065">
        <ele>388.6</ele>
        <time>2025-09-14T08:58:03Z</time>
      </trkpt>
      <trkpt lat="45.7212" lon="3.3506">
        <ele>388.4</ele>
        <time>2025-09-14T08:58:04Z</time>
      </trkpt>
      <trkpt lat="45.7212" lon="3.35055">
        <ele>388.4</ele>
        <time>2025-09-14T08:58:05Z</time>
      </trkpt>
      <trkpt lat="45.7212" lon="3.35051">
        <ele>388.2</ele>
        <time>2025-09-14T08:58:06Z</time>
      </trkpt>
      <trkpt lat="45.7212" lon="3.35047">
        <ele>388.2</ele>
        <time>2025-09-14T08:58:07Z</time>
      </trkpt>
      <trkpt lat="45.7212" lon="3.35043">
        <ele>388.2</ele>
        <time>2025-09-14T08:58:08Z</time>
      </trkpt>
      <trkpt lat="45.72119" lon="3.35039">
        <ele>388.2</ele>
        <time>2025-09-14T08:58:09Z</time>
      </trkpt>
      <trkpt lat="45.72118" lon="3.35034">
        <ele>388.4</ele>
        <time>2025-09-14T08:58:10Z</time>
      </trkpt>
      <trkpt lat="45.72117" lon="3.35029">
        <ele>388.2</ele>
        <time>2025-09-14T08:58:11Z</time>
      </trkpt>
      <trkpt lat="45.72115" lon="3.35024">
        <ele>388.2</ele>
        <time>2025-09-14T08:58:12Z</time>
      </trkpt>
      <trkpt lat="45.72114" lon="3.35019">
        <ele>388.4</ele>
        <time>2025-09-14T08:58:13Z</time>
      </trkpt>
      <trkpt lat="45.72113" lon="3.35013">
        <ele>388.6</ele>
        <time>2025-09-14T08:58:14Z</time>
      </trkpt>
      <trkpt lat="45.72112" lon="3.35007">
        <ele>388.8</ele>
        <time>2025-09-14T08:58:15Z</time>
      </trkpt>
      <trkpt lat="45.72111" lon="3.35001">
        <ele>388.8</ele>
        <time>2025-09-14T08:58:16Z</time>
      </trkpt>
      <trkpt lat="45.7211" lon="3.34994">
        <ele>388.8</ele>
        <time>2025-09-14T08:58:17Z</time>
      </trkpt>
      <trkpt lat="45.72109" lon="3.34988">
        <ele>388.8</ele>
        <time>2025-09-14T08:58:18Z</time>
      </trkpt>
      <trkpt lat="45.72108" lon="3.34981">
        <ele>388.8</ele>
        <time>2025-09-14T08:58:19Z</time>
      </trkpt>
      <trkpt lat="45.72107" lon="3.34974">
        <ele>388.8</ele>
        <time>2025-09-14T08:58:20Z</time>
      </trkpt>
      <trkpt lat="45.72106" lon="3.34968">
        <ele>388.8</ele>
        <time>2025-09-14T08:58:21Z</time>
      </trkpt>
      <trkpt lat="45.72105" lon="3.34961">
        <ele>388.8</ele>
        <time>2025-09-14T08:58:22Z</time>
      </trkpt>
      <trkpt lat="45.72104" lon="3.34955">
        <ele>389</ele>
        <time>2025-09-14T08:58:23Z</time>
      </trkpt>
      <trkpt lat="45.72103" lon="3.34948">
        <ele>389</ele>
        <time>2025-09-14T08:58:24Z</time>
      </trkpt>
      <trkpt lat="45.72102" lon="3.34942">
        <ele>389</ele>
        <time>2025-09-14T08:58:25Z</time>
      </trkpt>
      <trkpt lat="45.72101" lon="3.34935">
        <ele>389.2</ele>
        <time>2025-09-14T08:58:26Z</time>
      </trkpt>
      <trkpt lat="45.721" lon="3.34929">
        <ele>389.4</ele>
        <time>2025-09-14T08:58:27Z</time>
      </trkpt>
      <trkpt lat="45.72099" lon="3.34922">
        <ele>389.4</ele>
        <time>2025-09-14T08:58:28Z</time>
      </trkpt>
      <trkpt lat="45.72098" lon="3.34916">
        <ele>389.8</ele>
        <time>2025-09-14T08:58:29Z</time>
      </trkpt>
      <trkpt lat="45.72097" lon="3.34909">
        <ele>390</ele>
        <time>2025-09-14T08:58:30Z</time>
      </trkpt>
      <trkpt lat="45.72096" lon="3.34903">
        <ele>389.8</ele>
        <time>2025-09-14T08:58:31Z</time>
      </trkpt>
      <trkpt lat="45.72095" lon="3.34896">
        <ele>390</ele>
        <time>2025-09-14T08:58:32Z</time>
      </trkpt>
      <trkpt lat="45.72095" lon="3.3489">
        <ele>390</ele>
        <time>2025-09-14T08:58:33Z</time>
      </trkpt>
      <trkpt lat="45.72094" lon="3.34884">
        <ele>390</ele>
        <time>2025-09-14T08:58:34Z</time>
      </trkpt>
      <trkpt lat="45.72093" lon="3.34877">
        <ele>390</ele>
        <time>2025-09-14T08:58:35Z</time>
      </trkpt>
      <trkpt lat="45.72092" lon="3.3487">
        <ele>390.2</ele>
        <time>2025-09-14T08:58:36Z</time>
      </trkpt>
      <trkpt lat="45.72091" lon="3.34864">
        <ele>390.2</ele>
        <time>2025-09-14T08:58:37Z</time>
      </trkpt>
      <trkpt lat="45.7209" lon="3.34857">
        <ele>390.2</ele>
        <time>2025-09-14T08:58:38Z</time>
      </trkpt>
      <trkpt lat="45.7209" lon="3.3485">
        <ele>390.4</ele>
        <time>2025-09-14T08:58:39Z</time>
      </trkpt>
      <trkpt lat="45.72089" lon="3.34843">
        <ele>390.4</ele>
        <time>2025-09-14T08:58:40Z</time>
      </trkpt>
      <trkpt lat="45.72088" lon="3.34837">
        <ele>390.6</ele>
        <time>2025-09-14T08:58:41Z</time>
      </trkpt>
      <trkpt lat="45.72087" lon="3.3483">
        <ele>390.6</ele>
        <time>2025-09-14T08:58:42Z</time>
      </trkpt>
      <trkpt lat="45.72086" lon="3.34823">
        <ele>390.8</ele>
        <time>2025-09-14T08:58:43Z</time>
      </trkpt>
      <trkpt lat="45.72085" lon="3.34816">
        <ele>391</ele>
        <time>2025-09-14T08:58:44Z</time>
      </trkpt>
      <trkpt lat="45.72083" lon="3.34808">
        <ele>391.4</ele>
        <time>2025-09-14T08:58:45Z</time>
      </trkpt>
      <trkpt lat="45.72082" lon="3.34801">
        <ele>391.2</ele>
        <time>2025-09-14T08:58:46Z</time>
      </trkpt>
      <trkpt lat="45.72081" lon="3.34794">
        <ele>391.2</ele>
        <time>2025-09-14T08:58:47Z</time>
      </trkpt>
      <trkpt lat="45.7208" lon="3.34787">
        <ele>391.2</ele>
        <time>2025-09-14T08:58:48Z</time>
      </trkpt>
      <trkpt lat="45.72079" lon="3.3478">
        <ele>391.2</ele>
        <time>2025-09-14T08:58:49Z</time>
      </trkpt>
      <trkpt lat="45.72078" lon="3.34774">
        <ele>391.2</ele>
        <time>2025-09-14T08:58:50Z</time>
      </trkpt>
      <trkpt lat="45.72078" lon="3.34767">
        <ele>391.2</ele>
        <time>2025-09-14T08:58:51Z</time>
      </trkpt>
      <trkpt lat="45.72077" lon="3.3476">
        <ele>391.2</ele>
        <time>2025-09-14T08:58:52Z</time>
      </trkpt>
      <trkpt lat="45.72076" lon="3.34753">
        <ele>391.4</ele>
        <time>2025-09-14T08:58:53Z</time>
      </trkpt>
      <trkpt lat="45.72075" lon="3.34746">
        <ele>391.4</ele>
        <time>2025-09-14T08:58:54Z</time>
      </trkpt>
      <trkpt lat="45.72074" lon="3.34739">
        <ele>391.6</ele>
        <time>2025-09-14T08:58:55Z</time>
      </trkpt>
      <trkpt lat="45.72073" lon="3.34732">
        <ele>391.6</ele>
        <time>2025-09-14T08:58:56Z</time>
      </trkpt>
      <trkpt lat="45.72072" lon="3.34724">
        <ele>391.8</ele>
        <time>2025-09-14T08:58:57Z</time>
      </trkpt>
      <trkpt lat="45.72071" lon="3.34717">
        <ele>391.8</ele>
        <time>2025-09-14T08:58:58Z</time>
      </trkpt>
      <trkpt lat="45.7207" lon="3.3471">
        <ele>391.8</ele>
        <time>2025-09-14T08:58:59Z</time>
      </trkpt>
      <trkpt lat="45.72069" lon="3.34703">
        <ele>391.8</ele>
        <time>2025-09-14T08:59:00Z</time>
      </trkpt>
      <trkpt lat="45.72067" lon="3.34696">
        <ele>391.8</ele>
        <time>2025-09-14T08:59:01Z</time>
      </trkpt>
      <trkpt lat="45.72066" lon="3.34689">
        <ele>391.8</ele>
        <time>2025-09-14T08:59:02Z</time>
      </trkpt>
      <trkpt lat="45.72066" lon="3.34683">
        <ele>391.8</ele>
        <time>2025-09-14T08:59:03Z</time>
      </trkpt>
      <trkpt lat="45.72065" lon="3.34677">
        <ele>392</ele>
        <time>2025-09-14T08:59:04Z</time>
      </trkpt>
      <trkpt lat="45.72064" lon="3.3467">
        <ele>392</ele>
        <time>2025-09-14T08:59:05Z</time>
      </trkpt>
      <trkpt lat="45.72064" lon="3.34664">
        <ele>391.8</ele>
        <time>2025-09-14T08:59:06Z</time>
      </trkpt>
      <trkpt lat="45.72062" lon="3.34657">
        <ele>392</ele>
        <time>2025-09-14T08:59:07Z</time>
      </trkpt>
      <trkpt lat="45.72061" lon="3.3465">
        <ele>392</ele>
        <time>2025-09-14T08:59:08Z</time>
      </trkpt>
      <trkpt lat="45.7206" lon="3.34642">
        <ele>392</ele>
        <time>2025-09-14T08:59:09Z</time>
      </trkpt>
      <trkpt lat="45.72058" lon="3.34635">
        <ele>392</ele>
        <time>2025-09-14T08:59:10Z</time>
      </trkpt>
      <trkpt lat="45.72057" lon="3.34628">
        <ele>392</ele>
        <time>2025-09-14T08:59:11Z</time>
      </trkpt>
      <trkpt lat="45.72056" lon="3.34621">
        <ele>392.2</ele>
        <time>2025-09-14T08:59:12Z</time>
      </trkpt>
      <trkpt lat="45.72055" lon="3.34614">
        <ele>392.4</ele>
        <time>2025-09-14T08:59:13Z</time>
      </trkpt>
      <trkpt lat="45.72053" lon="3.34606">
        <ele>392.2</ele>
        <time>2025-09-14T08:59:14Z</time>
      </trkpt>
      <trkpt lat="45.72052" lon="3.34598">
        <ele>392.2</ele>
        <time>2025-09-14T08:59:15Z</time>
      </trkpt>
      <trkpt lat="45.72051" lon="3.34591">
        <ele>392.2</ele>
        <time>2025-09-14T08:59:16Z</time>
      </trkpt>
      <trkpt lat="45.7205" lon="3.34584">
        <ele>392.2</ele>
        <time>2025-09-14T08:59:17Z</time>
      </trkpt>
      <trkpt lat="45.72049" lon="3.34577">
        <ele>392.2</ele>
        <time>2025-09-14T08:59:18Z</time>
      </trkpt>
      <trkpt lat="45.72048" lon="3.34571">
        <ele>392.2</ele>
        <time>2025-09-14T08:59:19Z</time>
      </trkpt>
      <trkpt lat="45.72046" lon="3.34564">
        <ele>392.2</ele>
        <time>2025-09-14T08:59:20Z</time>
      </trkpt>
      <trkpt lat="45.72045" lon="3.34559">
        <ele>392.2</ele>
        <time>2025-09-14T08:59:21Z</time>
      </trkpt>
      <trkpt lat="45.72043" lon="3.34555">
        <ele>392.2</ele>
        <time>2025-09-14T08:59:22Z</time>
      </trkpt>
      <trkpt lat="45.72043" lon="3.34553">
        <ele>392</ele>
        <time>2025-09-14T08:59:23Z</time>
      </trkpt>
      <trkpt lat="45.72042" lon="3.34549">
        <ele>391.8</ele>
        <time>2025-09-14T08:59:24Z</time>
      </trkpt>
      <trkpt lat="45.72042" lon="3.34545">
        <ele>391.8</ele>
        <time>2025-09-14T08:59:25Z</time>
      </trkpt>
      <trkpt lat="45.72041" lon="3.34539">
        <ele>391.6</ele>
        <time>2025-09-14T08:59:26Z</time>
      </trkpt>
      <trkpt lat="45.72041" lon="3.34533">
        <ele>391.6</ele>
        <time>2025-09-14T08:59:27Z</time>
      </trkpt>
      <trkpt lat="45.72041" lon="3.34528">
        <ele>391.4</ele>
        <time>2025-09-14T08:59:28Z</time>
      </trkpt>
      <trkpt lat="45.72042" lon="3.34521">
        <ele>391.4</ele>
        <time>2025-09-14T08:59:29Z</time>
      </trkpt>
      <trkpt lat="45.72044" lon="3.34515">
        <ele>391.2</ele>
        <time>2025-09-14T08:59:30Z</time>
      </trkpt>
      <trkpt lat="45.72046" lon="3.34509">
        <ele>391</ele>
        <time>2025-09-14T08:59:31Z</time>
      </trkpt>
      <trkpt lat="45.72048" lon="3.34502">
        <ele>390.6</ele>
        <time>2025-09-14T08:59:32Z</time>
      </trkpt>
      <trkpt lat="45.7205" lon="3.34495">
        <ele>390.4</ele>
        <time>2025-09-14T08:59:33Z</time>
      </trkpt>
      <trkpt lat="45.72053" lon="3.34488">
        <ele>390</ele>
        <time>2025-09-14T08:59:34Z</time>
      </trkpt>
      <trkpt lat="45.72054" lon="3.34481">
        <ele>389.8</ele>
        <time>2025-09-14T08:59:35Z</time>
      </trkpt>
      <trkpt lat="45.72055" lon="3.34473">
        <ele>389.6</ele>
        <time>2025-09-14T08:59:36Z</time>
      </trkpt>
      <trkpt lat="45.72054" lon="3.34465">
        <ele>389.4</ele>
        <time>2025-09-14T08:59:37Z</time>
      </trkpt>
      <trkpt lat="45.72053" lon="3.34456">
        <ele>389</ele>
        <time>2025-09-14T08:59:38Z</time>
      </trkpt>
      <trkpt lat="45.72052" lon="3.34447">
        <ele>388.8</ele>
        <time>2025-09-14T08:59:39Z</time>
      </trkpt>
      <trkpt lat="45.72051" lon="3.34437">
        <ele>388.6</ele>
        <time>2025-09-14T08:59:40Z</time>
      </trkpt>
      <trkpt lat="45.7205" lon="3.34427">
        <ele>388.4</ele>
        <time>2025-09-14T08:59:41Z</time>
      </trkpt>
      <trkpt lat="45.7205" lon="3.34416">
        <ele>388.6</ele>
        <time>2025-09-14T08:59:42Z</time>
      </trkpt>
      <trkpt lat="45.72049" lon="3.34406">
        <ele>388.6</ele>
        <time>2025-09-14T08:59:43Z</time>
      </trkpt>
      <trkpt lat="45.72049" lon="3.34395">
        <ele>388.4</ele>
        <time>2025-09-14T08:59:44Z</time>
      </trkpt>
      <trkpt lat="45.72049" lon="3.34385">
        <ele>387.6</ele>
        <time>2025-09-14T08:59:45Z</time>
      </trkpt>
      <trkpt lat="45.72048" lon="3.34374">
        <ele>386.8</ele>
        <time>2025-09-14T08:59:46Z</time>
      </trkpt>
      <trkpt lat="45.72048" lon="3.34364">
        <ele>386.2</ele>
        <time>2025-09-14T08:59:47Z</time>
      </trkpt>
      <trkpt lat="45.72047" lon="3.34354">
        <ele>385.8</ele>
        <time>2025-09-14T08:59:48Z</time>
      </trkpt>
      <trkpt lat="45.72046" lon="3.34342">
        <ele>385.2</ele>
        <time>2025-09-14T08:59:49Z</time>
      </trkpt>
      <trkpt lat="45.72045" lon="3.34329">
        <ele>384.6</ele>
        <time>2025-09-14T08:59:50Z</time>
      </trkpt>
      <trkpt lat="45.72044" lon="3.34317">
        <ele>384</ele>
        <time>2025-09-14T08:59:51Z</time>
      </trkpt>
      <trkpt lat="45.72043" lon="3.34306">
        <ele>383.6</ele>
        <time>2025-09-14T08:59:52Z</time>
      </trkpt>
      <trkpt lat="45.72043" lon="3.34294">
        <ele>383</ele>
        <time>2025-09-14T08:59:53Z</time>
      </trkpt>
      <trkpt lat="45.72041" lon="3.34282">
        <ele>382.6</ele>
        <time>2025-09-14T08:59:54Z</time>
      </trkpt>
      <trkpt lat="45.7204" lon="3.3427">
        <ele>382.2</ele>
        <time>2025-09-14T08:59:55Z</time>
      </trkpt>
      <trkpt lat="45.7204" lon="3.34258">
        <ele>381.8</ele>
        <time>2025-09-14T08:59:56Z</time>
      </trkpt>
      <trkpt lat="45.72039" lon="3.34246">
        <ele>381.2</ele>
        <time>2025-09-14T08:59:57Z</time>
      </trkpt>
      <trkpt lat="45.72038" lon="3.34235">
        <ele>380.8</ele>
        <time>2025-09-14T08:59:58Z</time>
      </trkpt>
      <trkpt lat="45.72037" lon="3.34223">
        <ele>380.2</ele>
        <time>2025-09-14T08:59:59Z</time>
      </trkpt>
      <trkpt lat="45.72036" lon="3.34212">
        <ele>379.8</ele>
        <time>2025-09-14T09:00:00Z</time>
      </trkpt>
      <trkpt lat="45.72035" lon="3.34201">
        <ele>379.4</ele>
        <time>2025-09-14T09:00:01Z</time>
      </trkpt>
      <trkpt lat="45.72035" lon="3.34191">
        <ele>379.2</ele>
        <time>2025-09-14T09:00:02Z</time>
      </trkpt>
      <trkpt lat="45.72034" lon="3.34181">
        <ele>379</ele>
        <time>2025-09-14T09:00:03Z</time>
      </trkpt>
      <trkpt lat="45.72032" lon="3.34173">
        <ele>378.6</ele>
        <time>2025-09-14T09:00:04Z</time>
      </trkpt>
      <trkpt lat="45.72031" lon="3.34165">
        <ele>378.2</ele>
        <time>2025-09-14T09:00:05Z</time>
      </trkpt>
      <trkpt lat="45.7203" lon="3.34158">
        <ele>377.8</ele>
        <time>2025-09-14T09:00:06Z</time>
      </trkpt>
      <trkpt lat="45.72029" lon="3.34152">
        <ele>377.4</ele>
        <time>2025-09-14T09:00:07Z</time>
      </trkpt>
      <trkpt lat="45.72029" lon="3.34148">
        <ele>377</ele>
        <time>2025-09-14T09:00:08Z</time>
      </trkpt>
      <trkpt lat="45.72028" lon="3.34145">
        <ele>376.4</ele>
        <time>2025-09-14T09:00:09Z</time>
      </trkpt>
      <trkpt lat="45.72028" lon="3.34143">
        <ele>376</ele>
        <time>2025-09-14T09:00:10Z</time>
      </trkpt>
      <trkpt lat="45.72028" lon="3.34141">
        <ele>375</ele>
        <time>2025-09-14T09:00:16Z</time>
      </trkpt>
      <trkpt lat="45.72028" lon="3.34138">
        <ele>374.8</ele>
        <time>2025-09-14T09:00:17Z</time>
      </trkpt>
      <trkpt lat="45.72029" lon="3.34135">
        <ele>374.8</ele>
        <time>2025-09-14T09:00:18Z</time>
      </trkpt>
      <trkpt lat="45.72029" lon="3.34132">
        <ele>374.8</ele>
        <time>2025-09-14T09:00:19Z</time>
      </trkpt>
      <trkpt lat="45.7203" lon="3.34128">
        <ele>374.6</ele>
        <time>2025-09-14T09:00:20Z</time>
      </trkpt>
      <trkpt lat="45.72031" lon="3.34122">
        <ele>374.6</ele>
        <time>2025-09-14T09:00:21Z</time>
      </trkpt>
      <trkpt lat="45.72031" lon="3.34116">
        <ele>374.8</ele>
        <time>2025-09-14T09:00:22Z</time>
      </trkpt>
      <trkpt lat="45.72031" lon="3.3411">
        <ele>374.8</ele>
        <time>2025-09-14T09:00:23Z</time>
      </trkpt>
      <trkpt lat="45.72029" lon="3.34104">
        <ele>374.8</ele>
        <time>2025-09-14T09:00:24Z</time>
      </trkpt>
      <trkpt lat="45.72028" lon="3.34097">
        <ele>374.8</ele>
        <time>2025-09-14T09:00:25Z</time>
      </trkpt>
      <trkpt lat="45.72027" lon="3.3409">
        <ele>374.8</ele>
        <time>2025-09-14T09:00:26Z</time>
      </trkpt>
      <trkpt lat="45.72027" lon="3.34083">
        <ele>375</ele>
        <time>2025-09-14T09:00:27Z</time>
      </trkpt>
      <trkpt lat="45.72027" lon="3.34075">
        <ele>374.8</ele>
        <time>2025-09-14T09:00:28Z</time>
      </trkpt>
      <trkpt lat="45.72026" lon="3.34067">
        <ele>374.8</ele>
        <time>2025-09-14T09:00:29Z</time>
      </trkpt>
      <trkpt lat="45.72025" lon="3.34059">
        <ele>374.6</ele>
        <time>2025-09-14T09:00:30Z</time>
      </trkpt>
      <trkpt lat="45.72024" lon="3.34051">
        <ele>374.6</ele>
        <time>2025-09-14T09:00:31Z</time>
      </trkpt>
      <trkpt lat="45.72022" lon="3.34044">
        <ele>374.4</ele>
        <time>2025-09-14T09:00:32Z</time>
      </trkpt>
      <trkpt lat="45.7202" lon="3.34036">
        <ele>374.2</ele>
        <time>2025-09-14T09:00:33Z</time>
      </trkpt>
      <trkpt lat="45.72019" lon="3.34028">
        <ele>374.2</ele>
        <time>2025-09-14T09:00:34Z</time>
      </trkpt>
      <trkpt lat="45.72017" lon="3.34019">
        <ele>374</ele>
        <time>2025-09-14T09:00:35Z</time>
      </trkpt>
      <trkpt lat="45.72016" lon="3.3401">
        <ele>373.8</ele>
        <time>2025-09-14T09:00:36Z</time>
      </trkpt>
      <trkpt lat="45.72014" lon="3.34001">
        <ele>373.6</ele>
        <time>2025-09-14T09:00:37Z</time>
      </trkpt>
      <trkpt lat="45.72012" lon="3.33993">
        <ele>373.4</ele>
        <time>2025-09-14T09:00:38Z</time>
      </trkpt>
      <trkpt lat="45.7201" lon="3.33984">
        <ele>373.2</ele>
        <time>2025-09-14T09:00:39Z</time>
      </trkpt>
      <trkpt lat="45.72009" lon="3.33976">
        <ele>373</ele>
        <time>2025-09-14T09:00:40Z</time>
      </trkpt>
      <trkpt lat="45.72007" lon="3.33969">
        <ele>373</ele>
        <time>2025-09-14T09:00:41Z</time>
      </trkpt>
      <trkpt lat="45.72007" lon="3.33962">
        <ele>372.8</ele>
        <time>2025-09-14T09:00:42Z</time>
      </trkpt>
      <trkpt lat="45.72006" lon="3.33955">
        <ele>372.4</ele>
        <time>2025-09-14T09:00:43Z</time>
      </trkpt>
      <trkpt lat="45.72007" lon="3.33947">
        <ele>372</ele>
        <time>2025-09-14T09:00:44Z</time>
      </trkpt>
      <trkpt lat="45.72007" lon="3.33938">
        <ele>371.8</ele>
        <time>2025-09-14T09:00:45Z</time>
      </trkpt>
      <trkpt lat="45.72007" lon="3.33929">
        <ele>371.8</ele>
        <time>2025-09-14T09:00:46Z</time>
      </trkpt>
      <trkpt lat="45.72007" lon="3.33919">
        <ele>371.2</ele>
        <time>2025-09-14T09:00:47Z</time>
      </trkpt>
      <trkpt lat="45.72008" lon="3.33908">
        <ele>370.6</ele>
        <time>2025-09-14T09:00:48Z</time>
      </trkpt>
      <trkpt lat="45.7201" lon="3.33898">
        <ele>370</ele>
        <time>2025-09-14T09:00:49Z</time>
      </trkpt>
      <trkpt lat="45.72012" lon="3.33886">
        <ele>369.6</ele>
        <time>2025-09-14T09:00:50Z</time>
      </trkpt>
      <trkpt lat="45.72014" lon="3.33876">
        <ele>369</ele>
        <time>2025-09-14T09:00:51Z</time>
      </trkpt>
      <trkpt lat="45.72017" lon="3.33866">
        <ele>368.6</ele>
        <time>2025-09-14T09:00:52Z</time>
      </trkpt>
      <trkpt lat="45.7202" lon="3.33855">
        <ele>368.2</ele>
        <time>2025-09-14T09:00:53Z</time>
      </trkpt>
      <trkpt lat="45.72023" lon="3.33845">
        <ele>368</ele>
        <time>2025-09-14T09:00:54Z</time>
      </trkpt>
      <trkpt lat="45.72027" lon="3.33835">
        <ele>367.6</ele>
        <time>2025-09-14T09:00:55Z</time>
      </trkpt>
      <trkpt lat="45.72031" lon="3.33826">
        <ele>367.8</ele>
        <time>2025-09-14T09:00:56Z</time>
      </trkpt>
      <trkpt lat="45.72035" lon="3.33817">
        <ele>368</ele>
        <time>2025-09-14T09:00:57Z</time>
      </trkpt>
      <trkpt lat="45.72039" lon="3.33809">
        <ele>367.8</ele>
        <time>2025-09-14T09:00:58Z</time>
      </trkpt>
      <trkpt lat="45.72043" lon="3.33801">
        <ele>367.8</ele>
        <time>2025-09-14T09:00:59Z</time>
      </trkpt>
      <trkpt lat="45.72047" lon="3.33794">
        <ele>367.8</ele>
        <time>2025-09-14T09:01:00Z</time>
      </trkpt>
      <trkpt lat="45.7205" lon="3.33787">
        <ele>368</ele>
        <time>2025-09-14T09:01:01Z</time>
      </trkpt>
      <trkpt lat="45.72054" lon="3.33781">
        <ele>368</ele>
        <time>2025-09-14T09:01:02Z</time>
      </trkpt>
      <trkpt lat="45.72057" lon="3.33774">
        <ele>368.2</ele>
        <time>2025-09-14T09:01:03Z</time>
      </trkpt>
      <trkpt lat="45.7206" lon="3.33769">
        <ele>368.4</ele>
        <time>2025-09-14T09:01:04Z</time>
      </trkpt>
      <trkpt lat="45.72062" lon="3.33763">
        <ele>368.8</ele>
        <time>2025-09-14T09:01:05Z</time>
      </trkpt>
      <trkpt lat="45.72065" lon="3.33759">
        <ele>369</ele>
        <time>2025-09-14T09:01:06Z</time>
      </trkpt>
      <trkpt lat="45.72067" lon="3.33754">
        <ele>369.4</ele>
        <time>2025-09-14T09:01:07Z</time>
      </trkpt>
      <trkpt lat="45.7207" lon="3.3375">
        <ele>369.8</ele>
        <time>2025-09-14T09:01:08Z</time>
      </trkpt>
      <trkpt lat="45.72072" lon="3.33746">
        <ele>370.2</ele>
        <time>2025-09-14T09:01:09Z</time>
      </trkpt>
      <trkpt lat="45.72075" lon="3.33742">
        <ele>370.8</ele>
        <time>2025-09-14T09:01:10Z</time>
      </trkpt>
      <trkpt lat="45.72078" lon="3.33738">
        <ele>371.2</ele>
        <time>2025-09-14T09:01:11Z</time>
      </trkpt>
      <trkpt lat="45.7208" lon="3.33734">
        <ele>371.6</ele>
        <time>2025-09-14T09:01:12Z</time>
      </trkpt>
      <trkpt lat="45.72083" lon="3.3373">
        <ele>372</ele>
        <time>2025-09-14T09:01:13Z</time>
      </trkpt>
      <trkpt lat="45.72086" lon="3.33725">
        <ele>372.4</ele>
        <time>2025-09-14T09:01:14Z</time>
      </trkpt>
      <trkpt lat="45.72089" lon="3.33721">
        <ele>372.8</ele>
        <time>2025-09-14T09:01:15Z</time>
      </trkpt>
      <trkpt lat="45.72092" lon="3.33717">
        <ele>373.2</ele>
        <time>2025-09-14T09:01:16Z</time>
      </trkpt>
      <trkpt lat="45.72094" lon="3.33714">
        <ele>373.8</ele>
        <time>2025-09-14T09:01:17Z</time>
      </trkpt>
      <trkpt lat="45.72095" lon="3.3371">
        <ele>374.2</ele>
        <time>2025-09-14T09:01:18Z</time>
      </trkpt>
      <trkpt lat="45.72096" lon="3.33707">
        <ele>374.6</ele>
        <time>2025-09-14T09:01:19Z</time>
      </trkpt>
      <trkpt lat="45.72099" lon="3.33703">
        <ele>375</ele>
        <time>2025-09-14T09:01:20Z</time>
      </trkpt>
      <trkpt lat="45.72102" lon="3.33699">
        <ele>375.2</ele>
        <time>2025-09-14T09:01:21Z</time>
      </trkpt>
      <trkpt lat="45.72105" lon="3.33694">
        <ele>375.6</ele>
        <time>2025-09-14T09:01:22Z</time>
      </trkpt>
      <trkpt lat="45.72108" lon="3.33689">
        <ele>376</ele>
        <time>2025-09-14T09:01:23Z</time>
      </trkpt>
      <trkpt lat="45.72111" lon="3.33684">
        <ele>376.2</ele>
        <time>2025-09-14T09:01:24Z</time>
      </trkpt>
      <trkpt lat="45.72114" lon="3.3368">
        <ele>376.6</ele>
        <time>2025-09-14T09:01:25Z</time>
      </trkpt>
      <trkpt lat="45.72115" lon="3.33677">
        <ele>377</ele>
        <time>2025-09-14T09:01:26Z</time>
      </trkpt>
      <trkpt lat="45.72117" lon="3.33674">
        <ele>377.4</ele>
        <time>2025-09-14T09:01:27Z</time>
      </trkpt>
      <trkpt lat="45.72119" lon="3.33669">
        <ele>377.6</ele>
        <time>2025-09-14T09:01:28Z</time>
      </trkpt>
      <trkpt lat="45.72121" lon="3.33665">
        <ele>377.8</ele>
        <time>2025-09-14T09:01:29Z</time>
      </trkpt>
      <trkpt lat="45.72123" lon="3.3366">
        <ele>378</ele>
        <time>2025-09-14T09:01:30Z</time>
      </trkpt>
      <trkpt lat="45.72125" lon="3.33656">
        <ele>378.2</ele>
        <time>2025-09-14T09:01:31Z</time>
      </trkpt>
      <trkpt lat="45.72128" lon="3.3365">
        <ele>378.4</ele>
        <time>2025-09-14T09:01:32Z</time>
      </trkpt>
      <trkpt lat="45.72131" lon="3.33646">
        <ele>378.4</ele>
        <time>2025-09-14T09:01:33Z</time>
      </trkpt>
      <trkpt lat="45.72133" lon="3.33641">
        <ele>378.6</ele>
        <time>2025-09-14T09:01:34Z</time>
      </trkpt>
      <trkpt lat="45.72135" lon="3.33636">
        <ele>378.6</ele>
        <time>2025-09-14T09:01:35Z</time>
      </trkpt>
      <trkpt lat="45.72138" lon="3.33631">
        <ele>378.6</ele>
        <time>2025-09-14T09:01:36Z</time>
      </trkpt>
      <trkpt lat="45.72142" lon="3.33626">
        <ele>378.6</ele>
        <time>2025-09-14T09:01:37Z</time>
      </trkpt>
      <trkpt lat="45.72146" lon="3.33621">
        <ele>378.6</ele>
        <time>2025-09-14T09:01:38Z</time>
      </trkpt>
      <trkpt lat="45.72149" lon="3.33616">
        <ele>378.6</ele>
        <time>2025-09-14T09:01:39Z</time>
      </trkpt>
      <trkpt lat="45.72152" lon="3.33612">
        <ele>378.4</ele>
        <time>2025-09-14T09:01:40Z</time>
      </trkpt>
      <trkpt lat="45.72156" lon="3.33608">
        <ele>378.4</ele>
        <time>2025-09-14T09:01:41Z</time>
      </trkpt>
      <trkpt lat="45.7216" lon="3.33604">
        <ele>378.2</ele>
        <time>2025-09-14T09:01:42Z</time>
      </trkpt>
      <trkpt lat="45.72164" lon="3.33602">
        <ele>378.2</ele>
        <time>2025-09-14T09:01:43Z</time>
      </trkpt>
      <trkpt lat="45.72167" lon="3.33602">
        <ele>378</ele>
        <time>2025-09-14T09:01:44Z</time>
      </trkpt>
      <trkpt lat="45.72169" lon="3.33602">
        <ele>377.8</ele>
        <time>2025-09-14T09:01:45Z</time>
      </trkpt>
      <trkpt lat="45.72171" lon="3.33601">
        <ele>377.8</ele>
        <time>2025-09-14T09:01:46Z</time>
      </trkpt>
      <trkpt lat="45.72172" lon="3.33601">
        <ele>377.6</ele>
        <time>2025-09-14T09:01:47Z</time>
      </trkpt>
      <trkpt lat="45.72173" lon="3.33601">
        <ele>377.6</ele>
        <time>2025-09-14T09:01:48Z</time>
      </trkpt>
      <trkpt lat="45.72173" lon="3.33601">
        <ele>377.6</ele>
        <time>2025-09-14T09:01:49Z</time>
      </trkpt>
      <trkpt lat="45.72173" lon="3.33601">
        <ele>377.4</ele>
        <time>2025-09-14T09:01:50Z</time>
      </trkpt>
      <trkpt lat="45.72175" lon="3.33601">
        <ele>377.4</ele>
        <time>2025-09-14T09:01:51Z</time>
      </trkpt>
      <trkpt lat="45.72175" lon="3.33601">
        <ele>377.2</ele>
        <time>2025-09-14T09:01:52Z</time>
      </trkpt>
      <trkpt lat="45.72175" lon="3.33601">
        <ele>377</ele>
        <time>2025-09-14T09:01:53Z</time>
      </trkpt>
      <trkpt lat="45.72177" lon="3.33601">
        <ele>377</ele>
        <time>2025-09-14T09:01:54Z</time>
      </trkpt>
      <trkpt lat="45.72179" lon="3.336">
        <ele>376.8</ele>
        <time>2025-09-14T09:01:55Z</time>
      </trkpt>
      <trkpt lat="45.72182" lon="3.336">
        <ele>376.6</ele>
        <time>2025-09-14T09:01:56Z</time>
      </trkpt>
      <trkpt lat="45.72185" lon="3.336">
        <ele>376.6</ele>
        <time>2025-09-14T09:01:57Z</time>
      </trkpt>
      <trkpt lat="45.72189" lon="3.336">
        <ele>376.4</ele>
        <time>2025-09-14T09:01:58Z</time>
      </trkpt>
      <trkpt lat="45.72193" lon="3.33601">
        <ele>376.2</ele>
        <time>2025-09-14T09:01:59Z</time>
      </trkpt>
      <trkpt lat="45.72198" lon="3.33602">
        <ele>376</ele>
        <time>2025-09-14T09:02:00Z</time>
      </trkpt>
      <trkpt lat="45.72203" lon="3.33604">
        <ele>375.8</ele>
        <time>2025-09-14T09:02:01Z</time>
      </trkpt>
      <trkpt lat="45.72209" lon="3.33605">
        <ele>375.6</ele>
        <time>2025-09-14T09:02:02Z</time>
      </trkpt>
      <trkpt lat="45.72214" lon="3.33607">
        <ele>375.4</ele>
        <time>2025-09-14T09:02:03Z</time>
      </trkpt>
      <trkpt lat="45.72221" lon="3.33608">
        <ele>375.2</ele>
        <time>2025-09-14T09:02:04Z</time>
      </trkpt>
      <trkpt lat="45.72226" lon="3.33609">
        <ele>375</ele>
        <time>2025-09-14T09:02:05Z</time>
      </trkpt>
      <trkpt lat="45.72232" lon="3.33613">
        <ele>374.8</ele>
        <time>2025-09-14T09:02:06Z</time>
      </trkpt>
      <trkpt lat="45.72237" lon="3.33615">
        <ele>374.6</ele>
        <time>2025-09-14T09:02:07Z</time>
      </trkpt>
      <trkpt lat="45.72241" lon="3.33618">
        <ele>374.4</ele>
        <time>2025-09-14T09:02:08Z</time>
      </trkpt>
      <trkpt lat="45.72244" lon="3.33623">
        <ele>374.2</ele>
        <time>2025-09-14T09:02:09Z</time>
      </trkpt>
      <trkpt lat="45.72246" lon="3.33625">
        <ele>374</ele>
        <time>2025-09-14T09:02:10Z</time>
      </trkpt>
      <trkpt lat="45.72248" lon="3.33627">
        <ele>373.8</ele>
        <time>2025-09-14T09:02:11Z</time>
      </trkpt>
      <trkpt lat="45.7225" lon="3.33627">
        <ele>373.8</ele>
        <time>2025-09-14T09:02:12Z</time>
      </trkpt>
      <trkpt lat="45.72252" lon="3.33625">
        <ele>373.6</ele>
        <time>2025-09-14T09:02:13Z</time>
      </trkpt>
      <trkpt lat="45.72255" lon="3.3362">
        <ele>373.4</ele>
        <time>2025-09-14T09:02:14Z</time>
      </trkpt>
      <trkpt lat="45.72257" lon="3.33612">
        <ele>373</ele>
        <time>2025-09-14T09:02:15Z</time>
      </trkpt>
      <trkpt lat="45.72259" lon="3.33605">
        <ele>372.8</ele>
        <time>2025-09-14T09:02:16Z</time>
      </trkpt>
      <trkpt lat="45.72261" lon="3.33596">
        <ele>372.4</ele>
        <time>2025-09-14T09:02:17Z</time>
      </trkpt>
      <trkpt lat="45.72263" lon="3.33587">
        <ele>372</ele>
        <time>2025-09-14T09:02:18Z</time>
      </trkpt>
      <trkpt lat="45.72263" lon="3.33578">
        <ele>371.6</ele>
        <time>2025-09-14T09:02:19Z</time>
      </trkpt>
      <trkpt lat="45.72264" lon="3.33568">
        <ele>371.4</ele>
        <time>2025-09-14T09:02:20Z</time>
      </trkpt>
      <trkpt lat="45.72265" lon="3.3356">
        <ele>371.4</ele>
        <time>2025-09-14T09:02:21Z</time>
      </trkpt>
      <trkpt lat="45.72265" lon="3.33551">
        <ele>371</ele>
        <time>2025-09-14T09:02:22Z</time>
      </trkpt>
      <trkpt lat="45.72265" lon="3.33543">
        <ele>370.8</ele>
        <time>2025-09-14T09:02:23Z</time>
      </trkpt>
      <trkpt lat="45.72265" lon="3.33535">
        <ele>370.4</ele>
        <time>2025-09-14T09:02:24Z</time>
      </trkpt>
      <trkpt lat="45.72265" lon="3.33526">
        <ele>370.4</ele>
        <time>2025-09-14T09:02:25Z</time>
      </trkpt>
      <trkpt lat="45.72265" lon="3.33517">
        <ele>370.4</ele>
        <time>2025-09-14T09:02:26Z</time>
      </trkpt>
      <trkpt lat="45.72265" lon="3.33507">
        <ele>370.2</ele>
        <time>2025-09-14T09:02:27Z</time>
      </trkpt>
      <trkpt lat="45.72265" lon="3.33498">
        <ele>369.8</ele>
        <time>2025-09-14T09:02:28Z</time>
      </trkpt>
      <trkpt lat="45.72265" lon="3.33488">
        <ele>369.4</ele>
        <time>2025-09-14T09:02:29Z</time>
      </trkpt>
      <trkpt lat="45.72264" lon="3.33479">
        <ele>369</ele>
        <time>2025-09-14T09:02:30Z</time>
      </trkpt>
      <trkpt lat="45.72263" lon="3.33469">
        <ele>368.8</ele>
        <time>2025-09-14T09:02:31Z</time>
      </trkpt>
      <trkpt lat="45.72262" lon="3.3346">
        <ele>368.4</ele>
        <time>2025-09-14T09:02:32Z</time>
      </trkpt>
      <trkpt lat="45.72262" lon="3.3345">
        <ele>368.2</ele>
        <time>2025-09-14T09:02:33Z</time>
      </trkpt>
      <trkpt lat="45.72261" lon="3.3344">
        <ele>368</ele>
        <time>2025-09-14T09:02:34Z</time>
      </trkpt>
      <trkpt lat="45.7226" lon="3.3343">
        <ele>368.2</ele>
        <time>2025-09-14T09:02:35Z</time>
      </trkpt>
      <trkpt lat="45.72259" lon="3.3342">
        <ele>367.8</ele>
        <time>2025-09-14T09:02:36Z</time>
      </trkpt>
      <trkpt lat="45.72256" lon="3.3341">
        <ele>367.6</ele>
        <time>2025-09-14T09:02:37Z</time>
      </trkpt>
      <trkpt lat="45.72254" lon="3.334">
        <ele>367.4</ele>
        <time>2025-09-14T09:02:38Z</time>
      </trkpt>
      <trkpt lat="45.72252" lon="3.3339">
        <ele>367</ele>
        <time>2025-09-14T09:02:39Z</time>
      </trkpt>
      <trkpt lat="45.7225" lon="3.3338">
        <ele>366.6</ele>
        <time>2025-09-14T09:02:40Z</time>
      </trkpt>
      <trkpt lat="45.72249" lon="3.33372">
        <ele>366.4</ele>
        <time>2025-09-14T09:02:41Z</time>
      </trkpt>
      <trkpt lat="45.72248" lon="3.33364">
        <ele>366</ele>
        <time>2025-09-14T09:02:42Z</time>
      </trkpt>
      <trkpt lat="45.72247" lon="3.33357">
        <ele>365.6</ele>
        <time>2025-09-14T09:02:43Z</time>
      </trkpt>
      <trkpt lat="45.72245" lon="3.33349">
        <ele>365.4</ele>
        <time>2025-09-14T09:02:44Z</time>
      </trkpt>
      <trkpt lat="45.72244" lon="3.33342">
        <ele>365.2</ele>
        <time>2025-09-14T09:02:45Z</time>
      </trkpt>
      <trkpt lat="45.72242" lon="3.33336">
        <ele>364.8</ele>
        <time>2025-09-14T09:02:46Z</time>
      </trkpt>
      <trkpt lat="45.7224" lon="3.33331">
        <ele>364.6</ele>
        <time>2025-09-14T09:02:47Z</time>
      </trkpt>
      <trkpt lat="45.72239" lon="3.33328">
        <ele>364.4</ele>
        <time>2025-09-14T09:02:48Z</time>
      </trkpt>
      <trkpt lat="45.72239" lon="3.33325">
        <ele>364.2</ele>
        <time>2025-09-14T09:02:49Z</time>
      </trkpt>
      <trkpt lat="45.7224" lon="3.33322">
        <ele>364</ele>
        <time>2025-09-14T09:02:50Z</time>
      </trkpt>
      <trkpt lat="45.72241" lon="3.33319">
        <ele>363.6</ele>
        <time>2025-09-14T09:02:51Z</time>
      </trkpt>
      <trkpt lat="45.72243" lon="3.33315">
        <ele>363.2</ele>
        <time>2025-09-14T09:02:52Z</time>
      </trkpt>
      <trkpt lat="45.72245" lon="3.3331">
        <ele>362.8</ele>
        <time>2025-09-14T09:02:53Z</time>
      </trkpt>
      <trkpt lat="45.72246" lon="3.33306">
        <ele>362.6</ele>
        <time>2025-09-14T09:02:54Z</time>
      </trkpt>
      <trkpt lat="45.72248" lon="3.33302">
        <ele>362.4</ele>
        <time>2025-09-14T09:02:55Z</time>
      </trkpt>
      <trkpt lat="45.72249" lon="3.333">
        <ele>362.4</ele>
        <time>2025-09-14T09:02:56Z</time>
      </trkpt>
      <trkpt lat="45.72251" lon="3.33299">
        <ele>362</ele>
        <time>2025-09-14T09:02:57Z</time>
      </trkpt>
      <trkpt lat="45.72253" lon="3.33299">
        <ele>361.6</ele>
        <time>2025-09-14T09:02:58Z</time>
      </trkpt>
      <trkpt lat="45.72254" lon="3.33299">
        <ele>361.6</ele>
        <time>2025-09-14T09:02:59Z</time>
      </trkpt>
      <trkpt lat="45.72257" lon="3.333">
        <ele>361.6</ele>
        <time>2025-09-14T09:03:00Z</time>
      </trkpt>
      <trkpt lat="45.7226" lon="3.33301">
        <ele>361.4</ele>
        <time>2025-09-14T09:03:01Z</time>
      </trkpt>
      <trkpt lat="45.72263" lon="3.33302">
        <ele>361.2</ele>
        <time>2025-09-14T09:03:02Z</time>
      </trkpt>
      <trkpt lat="45.72266" lon="3.33303">
        <ele>361.2</ele>
        <time>2025-09-14T09:03:03Z</time>
      </trkpt>
      <trkpt lat="45.72269" lon="3.33305">
        <ele>361</ele>
        <time>2025-09-14T09:03:04Z</time>
      </trkpt>
      <trkpt lat="45.72271" lon="3.33305">
        <ele>361</ele>
        <time>2025-09-14T09:03:05Z</time>
      </trkpt>
      <trkpt lat="45.72273" lon="3.33306">
        <ele>360.8</ele>
        <time>2025-09-14T09:03:06Z</time>
      </trkpt>
      <trkpt lat="45.72274" lon="3.33306">
        <ele>360.8</ele>
        <time>2025-09-14T09:03:07Z</time>
      </trkpt>
      <trkpt lat="45.72276" lon="3.33306">
        <ele>360.6</ele>
        <time>2025-09-14T09:03:08Z</time>
      </trkpt>
      <trkpt lat="45.72278" lon="3.33307">
        <ele>360.6</ele>
        <time>2025-09-14T09:03:09Z</time>
      </trkpt>
      <trkpt lat="45.72281" lon="3.33309">
        <ele>360.4</ele>
        <time>2025-09-14T09:03:10Z</time>
      </trkpt>
      <trkpt lat="45.72284" lon="3.33311">
        <ele>360.4</ele>
        <time>2025-09-14T09:03:11Z</time>
      </trkpt>
      <trkpt lat="45.72288" lon="3.33314">
        <ele>360.4</ele>
        <time>2025-09-14T09:03:12Z</time>
      </trkpt>
      <trkpt lat="45.72293" lon="3.33317">
        <ele>360.2</ele>
        <time>2025-09-14T09:03:13Z</time>
      </trkpt>
      <trkpt lat="45.72298" lon="3.33319">
        <ele>360.2</ele>
        <time>2025-09-14T09:03:14Z</time>
      </trkpt>
      <trkpt lat="45.72302" lon="3.33321">
        <ele>360.2</ele>
        <time>2025-09-14T09:03:15Z</time>
      </trkpt>
      <trkpt lat="45.72307" lon="3.33322">
        <ele>360.2</ele>
        <time>2025-09-14T09:03:16Z</time>
      </trkpt>
      <trkpt lat="45.72313" lon="3.33323">
        <ele>360.2</ele>
        <time>2025-09-14T09:03:17Z</time>
      </trkpt>
      <trkpt lat="45.72317" lon="3.33322">
        <ele>360.4</ele>
        <time>2025-09-14T09:03:18Z</time>
      </trkpt>
      <trkpt lat="45.72322" lon="3.33322">
        <ele>360.4</ele>
        <time>2025-09-14T09:03:19Z</time>
      </trkpt>
      <trkpt lat="45.72326" lon="3.33322">
        <ele>360.4</ele>
        <time>2025-09-14T09:03:20Z</time>
      </trkpt>
      <trkpt lat="45.72328" lon="3.33322">
        <ele>360.6</ele>
        <time>2025-09-14T09:03:21Z</time>
      </trkpt>
      <trkpt lat="45.72329" lon="3.33322">
        <ele>360.4</ele>
        <time>2025-09-14T09:03:22Z</time>
      </trkpt>
      <trkpt lat="45.72329" lon="3.33322">
        <ele>360.2</ele>
        <time>2025-09-14T09:03:23Z</time>
      </trkpt>
      <trkpt lat="45.72329" lon="3.33322">
        <ele>360.2</ele>
        <time>2025-09-14T09:03:24Z</time>
      </trkpt>
      <trkpt lat="45.72329" lon="3.33322">
        <ele>360</ele>
        <time>2025-09-14T09:03:25Z</time>
      </trkpt>
      <trkpt lat="45.72329" lon="3.33322">
        <ele>360</ele>
        <time>2025-09-14T09:03:26Z</time>
      </trkpt>
      <trkpt lat="45.72329" lon="3.33322">
        <ele>359.8</ele>
        <time>2025-09-14T09:03:27Z</time>
      </trkpt>
      <trkpt lat="45.72329" lon="3.33322">
        <ele>359.8</ele>
        <time>2025-09-14T09:03:28Z</time>
      </trkpt>
      <trkpt lat="45.72329" lon="3.33322">
        <ele>359.8</ele>
        <time>2025-09-14T09:03:29Z</time>
      </trkpt>
    </trkseg>
  </trk>
</gpx>